<?xml version='1.0' encoding='UTF-8'?><gpx version="1.1" creator="JPX - https://github.com/jenetics/jpx" xmlns="http://www.topografix.com/GPX/1/1"><trk><trkseg><trkpt lat="43.561161852716204" lon="1.6547167047684588"><ele>249.99999999999997</ele><time>2026-04-06T08:47:19.999Z</time></trkpt><trkpt lat="43.561182292201785" lon="1.6548241738934908"><ele>250.0</ele><time>2026-04-06T08:47:20.999Z</time></trkpt><trkpt lat="43.56120228578481" lon="1.6549302890351305"><ele>250.0</ele><time>2026-04-06T08:47:21.999Z</time></trkpt><trkpt lat="43.56122393961159" lon="1.6550279925791234"><ele>250.0</ele><time>2026-04-06T08:47:22.999Z</time></trkpt><trkpt lat="43.56124272991669" lon="1.6551207727843091"><ele>249.99999999999997</ele><time>2026-04-06T08:47:23.999Z</time></trkpt><trkpt lat="43.561285420427474" lon="1.6552864191265164"><ele>250.0</ele><time>2026-04-06T08:47:25.999Z</time></trkpt><trkpt lat="43.56131752295701" lon="1.6554460737361814"><ele>250.83333333333331</ele><time>2026-04-06T08:47:27.999Z</time></trkpt><trkpt lat="43.56130786234522" lon="1.6555906740490118"><ele>251.66666666666666</ele><time>2026-04-06T08:47:29.999Z</time></trkpt><trkpt lat="43.56125411680278" lon="1.6556576281338038"><ele>252.5</ele><time>2026-04-06T08:47:30.999Z</time></trkpt><trkpt lat="43.56120781157978" lon="1.6557878115354985"><ele>253.33333333333331</ele><time>2026-04-06T08:47:32.999Z</time></trkpt><trkpt lat="43.56122753572727" lon="1.6559051853997149"><ele>254.16666666666666</ele><time>2026-04-06T08:47:34.999Z</time></trkpt><trkpt lat="43.56127729051317" lon="1.6559611865464334"><ele>255.0</ele><time>2026-04-06T08:47:36.999Z</time></trkpt><trkpt lat="43.561374876812906" lon="1.6559499676815626"><ele>255.0</ele><time>2026-04-06T08:47:39.999Z</time></trkpt><trkpt lat="43.56143443804979" lon="1.655909786620059"><ele>255.0</ele><time>2026-04-06T08:47:47.999Z</time></trkpt><trkpt lat="43.56141176989082" lon="1.65570730120483"><ele>255.0</ele><time>2026-04-06T08:47:49.999Z</time></trkpt><trkpt lat="43.56140059620854" lon="1.655584194766063"><ele>255.0</ele><time>2026-04-06T08:47:50.999Z</time></trkpt><trkpt lat="43.561381435401685" lon="1.655478639260207"><ele>255.0</ele><time>2026-04-06T08:47:51.999Z</time></trkpt><trkpt lat="43.561360344295686" lon="1.6553668691078958"><ele>254.33333333333334</ele><time>2026-04-06T08:47:52.999Z</time></trkpt><trkpt lat="43.56132136358352" lon="1.6552518402995353"><ele>253.66666666666669</ele><time>2026-04-06T08:47:53.999Z</time></trkpt><trkpt lat="43.5613123823362" lon="1.6551249571751705"><ele>253.0</ele><time>2026-04-06T08:47:54.999Z</time></trkpt><trkpt lat="43.56128983496818" lon="1.6550134188700951"><ele>252.33333333333334</ele><time>2026-04-06T08:47:55.999Z</time></trkpt><trkpt lat="43.56125534396842" lon="1.6549190689662443"><ele>251.66666666666669</ele><time>2026-04-06T08:47:56.999Z</time></trkpt><trkpt lat="43.56123645301608" lon="1.6548158095029144"><ele>251.0</ele><time>2026-04-06T08:47:57.999Z</time></trkpt><trkpt lat="43.56121431669814" lon="1.6547062971420854"><ele>251.0</ele><time>2026-04-06T08:47:58.999Z</time></trkpt><trkpt lat="43.56119719551164" lon="1.6545862166320922"><ele>251.00000000000003</ele><time>2026-04-06T08:47:59.999Z</time></trkpt><trkpt lat="43.56121335283834" lon="1.6544571681990692"><ele>251.00000000000003</ele><time>2026-04-06T08:48:00.999Z</time></trkpt><trkpt lat="43.56128601959755" lon="1.6543516557351237"><ele>251.0</ele><time>2026-04-06T08:48:01.999Z</time></trkpt><trkpt lat="43.56136042011692" lon="1.6542554189008016"><ele>251.0</ele><time>2026-04-06T08:48:02.999Z</time></trkpt><trkpt lat="43.56143582668811" lon="1.65415813446142"><ele>250.4</ele><time>2026-04-06T08:48:03.999Z</time></trkpt><trkpt lat="43.56150520511243" lon="1.6540471301635107"><ele>249.8</ele><time>2026-04-06T08:48:04.999Z</time></trkpt><trkpt lat="43.56158571125185" lon="1.6539476755986957"><ele>249.20000000000002</ele><time>2026-04-06T08:48:05.999Z</time></trkpt><trkpt lat="43.56166458002105" lon="1.6538395953942482"><ele>248.60000000000002</ele><time>2026-04-06T08:48:06.999Z</time></trkpt><trkpt lat="43.561744196902794" lon="1.6537280804585817"><ele>248.0</ele><time>2026-04-06T08:48:07.999Z</time></trkpt><trkpt lat="43.56182686340832" lon="1.6536274498641057"><ele>247.66666666666669</ele><time>2026-04-06T08:48:08.999Z</time></trkpt><trkpt lat="43.56189889315913" lon="1.653532266109677"><ele>247.33333333333334</ele><time>2026-04-06T08:48:09.999Z</time></trkpt><trkpt lat="43.56197167138571" lon="1.6534557390483922"><ele>247.0</ele><time>2026-04-06T08:48:10.999Z</time></trkpt><trkpt lat="43.56201705271431" lon="1.6533623392639805"><ele>246.66666666666669</ele><time>2026-04-06T08:48:11.999Z</time></trkpt><trkpt lat="43.56207701749556" lon="1.653289821452154"><ele>246.33333333333334</ele><time>2026-04-06T08:48:12.999Z</time></trkpt><trkpt lat="43.5621450211237" lon="1.6532238813298294"><ele>246.0</ele><time>2026-04-06T08:48:13.999Z</time></trkpt><trkpt lat="43.56222759495056" lon="1.653160329355252"><ele>246.0</ele><time>2026-04-06T08:48:14.999Z</time></trkpt><trkpt lat="43.56232188587498" lon="1.6530717964248443"><ele>246.0</ele><time>2026-04-06T08:48:15.999Z</time></trkpt><trkpt lat="43.562412564584115" lon="1.6529611646029099"><ele>246.0</ele><time>2026-04-06T08:48:16.999Z</time></trkpt><trkpt lat="43.56250401493935" lon="1.652846743563302"><ele>246.0</ele><time>2026-04-06T08:48:17.999Z</time></trkpt><trkpt lat="43.56261210449774" lon="1.6527605468239717"><ele>246.75</ele><time>2026-04-06T08:48:18.999Z</time></trkpt><trkpt lat="43.56272662574039" lon="1.6526793750137976"><ele>247.5</ele><time>2026-04-06T08:48:19.999Z</time></trkpt><trkpt lat="43.56284504441399" lon="1.6526374269291373"><ele>248.25</ele><time>2026-04-06T08:48:20.999Z</time></trkpt><trkpt lat="43.56296974541988" lon="1.652622489210194"><ele>249.0</ele><time>2026-04-06T08:48:21.999Z</time></trkpt><trkpt lat="43.56311301459591" lon="1.6526342560299627"><ele>249.75</ele><time>2026-04-06T08:48:22.999Z</time></trkpt><trkpt lat="43.56325717462448" lon="1.6526333179113386"><ele>250.5</ele><time>2026-04-06T08:48:23.999Z</time></trkpt><trkpt lat="43.56339423896637" lon="1.652650980781606"><ele>251.25</ele><time>2026-04-06T08:48:24.999Z</time></trkpt><trkpt lat="43.56353569624917" lon="1.6526623697616392"><ele>252.0</ele><time>2026-04-06T08:48:25.999Z</time></trkpt><trkpt lat="43.56367013432403" lon="1.6526708612809025"><ele>251.6</ele><time>2026-04-06T08:48:26.999Z</time></trkpt><trkpt lat="43.56379634842565" lon="1.6526930255297216"><ele>251.2</ele><time>2026-04-06T08:48:27.999Z</time></trkpt><trkpt lat="43.56390947512482" lon="1.6527380112583812"><ele>250.8</ele><time>2026-04-06T08:48:28.999Z</time></trkpt><trkpt lat="43.56399566623348" lon="1.652811353227084"><ele>250.4</ele><time>2026-04-06T08:48:29.999Z</time></trkpt><trkpt lat="43.56406841066517" lon="1.652881842473349"><ele>250.0</ele><time>2026-04-06T08:48:30.999Z</time></trkpt><trkpt lat="43.56417140048955" lon="1.65288335162252"><ele>250.0</ele><time>2026-04-06T08:48:31.999Z</time></trkpt><trkpt lat="43.56428487784562" lon="1.652759224755239"><ele>250.0</ele><time>2026-04-06T08:48:32.999Z</time></trkpt><trkpt lat="43.564413842235375" lon="1.6527871814990394"><ele>250.0</ele><time>2026-04-06T08:48:33.999Z</time></trkpt><trkpt lat="43.56456941800184" lon="1.6527989780862515"><ele>250.0</ele><time>2026-04-06T08:48:34.999Z</time></trkpt><trkpt lat="43.564718942508826" lon="1.652808569760107"><ele>249.0</ele><time>2026-04-06T08:48:35.999Z</time></trkpt><trkpt lat="43.56487935053485" lon="1.6528025262753423"><ele>248.0</ele><time>2026-04-06T08:48:36.999Z</time></trkpt><trkpt lat="43.56503942045256" lon="1.6528221481191139"><ele>247.0</ele><time>2026-04-06T08:48:37.999Z</time></trkpt><trkpt lat="43.56519651232497" lon="1.6528418839348888"><ele>247.0</ele><time>2026-04-06T08:48:38.999Z</time></trkpt><trkpt lat="43.56535433661402" lon="1.652850850016697"><ele>247.0</ele><time>2026-04-06T08:48:39.999Z</time></trkpt><trkpt lat="43.56550375042662" lon="1.652864266435169"><ele>247.0</ele><time>2026-04-06T08:48:40.999Z</time></trkpt><trkpt lat="43.5656460732251" lon="1.652875794321946"><ele>245.5</ele><time>2026-04-06T08:48:41.999Z</time></trkpt><trkpt lat="43.565772912115555" lon="1.6529263838296335"><ele>244.0</ele><time>2026-04-06T08:48:42.999Z</time></trkpt><trkpt lat="43.56587899651025" lon="1.652975843184399"><ele>242.5</ele><time>2026-04-06T08:48:43.999Z</time></trkpt><trkpt lat="43.56594916124783" lon="1.6531066928345484"><ele>241.0</ele><time>2026-04-06T08:48:44.999Z</time></trkpt><trkpt lat="43.565975964458104" lon="1.6532776978733579"><ele>241.0</ele><time>2026-04-06T08:48:45.999Z</time></trkpt><trkpt lat="43.56596326259215" lon="1.6534676193491147"><ele>241.0</ele><time>2026-04-06T08:48:46.999Z</time></trkpt><trkpt lat="43.56593219869894" lon="1.653664536533535"><ele>241.0</ele><time>2026-04-06T08:48:47.999Z</time></trkpt><trkpt lat="43.565894491314594" lon="1.653876243454322"><ele>241.0</ele><time>2026-04-06T08:48:48.999Z</time></trkpt><trkpt lat="43.56586273470612" lon="1.6540991158300609"><ele>239.33333333333331</ele><time>2026-04-06T08:48:49.999Z</time></trkpt><trkpt lat="43.56583417828666" lon="1.6543258537028922"><ele>237.66666666666669</ele><time>2026-04-06T08:48:50.999Z</time></trkpt><trkpt lat="43.56580756611648" lon="1.6545567766332785"><ele>236.0</ele><time>2026-04-06T08:48:51.999Z</time></trkpt><trkpt lat="43.56578181568583" lon="1.654797438972953"><ele>233.66666666666669</ele><time>2026-04-06T08:48:52.999Z</time></trkpt><trkpt lat="43.56575837022379" lon="1.655035597262813"><ele>231.33333333333331</ele><time>2026-04-06T08:48:53.999Z</time></trkpt><trkpt lat="43.56573013554506" lon="1.6552642519464456"><ele>229.0</ele><time>2026-04-06T08:48:54.999Z</time></trkpt><trkpt lat="43.56570176563682" lon="1.6554788317121873"><ele>227.0</ele><time>2026-04-06T08:48:55.999Z</time></trkpt><trkpt lat="43.5656917574276" lon="1.6556908156803118"><ele>225.0</ele><time>2026-04-06T08:48:56.999Z</time></trkpt><trkpt lat="43.56573063106256" lon="1.6558903124519415"><ele>223.0</ele><time>2026-04-06T08:48:57.999Z</time></trkpt><trkpt lat="43.56582432120487" lon="1.6560729353223977"><ele>221.33333333333331</ele><time>2026-04-06T08:48:58.999Z</time></trkpt><trkpt lat="43.565963725578044" lon="1.6562265442424648"><ele>219.66666666666669</ele><time>2026-04-06T08:48:59.999Z</time></trkpt><trkpt lat="43.566132445915486" lon="1.65634930916392"><ele>218.0</ele><time>2026-04-06T08:49:00.999Z</time></trkpt><trkpt lat="43.56631894424638" lon="1.656431648731011"><ele>216.33333333333334</ele><time>2026-04-06T08:49:01.999Z</time></trkpt><trkpt lat="43.566508504913855" lon="1.6565174253041708"><ele>214.66666666666669</ele><time>2026-04-06T08:49:02.999Z</time></trkpt><trkpt lat="43.566704535228105" lon="1.6565864516081676"><ele>213.0</ele><time>2026-04-06T08:49:03.999Z</time></trkpt><trkpt lat="43.56690673146071" lon="1.6566347018744927"><ele>213.0</ele><time>2026-04-06T08:49:04.999Z</time></trkpt><trkpt lat="43.56711486938007" lon="1.6566694244092137"><ele>213.0</ele><time>2026-04-06T08:49:05.999Z</time></trkpt><trkpt lat="43.567325454599924" lon="1.6566853015005922"><ele>213.0</ele><time>2026-04-06T08:49:06.999Z</time></trkpt><trkpt lat="43.56753231953127" lon="1.6567066577955458"><ele>213.0</ele><time>2026-04-06T08:49:07.999Z</time></trkpt><trkpt lat="43.5677290673783" lon="1.656772739507017"><ele>213.0</ele><time>2026-04-06T08:49:08.999Z</time></trkpt><trkpt lat="43.56792499891118" lon="1.6568292032354577"><ele>213.0</ele><time>2026-04-06T08:49:09.999Z</time></trkpt><trkpt lat="43.568118065269864" lon="1.6569383276835346"><ele>210.33333333333331</ele><time>2026-04-06T08:49:10.999Z</time></trkpt><trkpt lat="43.568307944004495" lon="1.6570690044006429"><ele>207.66666666666666</ele><time>2026-04-06T08:49:11.999Z</time></trkpt><trkpt lat="43.56849293287501" lon="1.657219039125808"><ele>205.0</ele><time>2026-04-06T08:49:12.999Z</time></trkpt><trkpt lat="43.568655010476625" lon="1.6574153734807087"><ele>203.66666666666666</ele><time>2026-04-06T08:49:13.999Z</time></trkpt><trkpt lat="43.568807145363685" lon="1.6576218189096616"><ele>202.33333333333331</ele><time>2026-04-06T08:49:14.999Z</time></trkpt><trkpt lat="43.56896048493227" lon="1.6578321189293093"><ele>201.0</ele><time>2026-04-06T08:49:15.999Z</time></trkpt><trkpt lat="43.56909657973217" lon="1.6580612288392913"><ele>200.33333333333331</ele><time>2026-04-06T08:49:16.999Z</time></trkpt><trkpt lat="43.56923127210306" lon="1.6582896357399446"><ele>199.66666666666666</ele><time>2026-04-06T08:49:17.999Z</time></trkpt><trkpt lat="43.56936485882169" lon="1.6585080632259406"><ele>199.0</ele><time>2026-04-06T08:49:18.999Z</time></trkpt><trkpt lat="43.5695046155756" lon="1.6587286211604615"><ele>198.0</ele><time>2026-04-06T08:49:19.999Z</time></trkpt><trkpt lat="43.5696420382157" lon="1.6589512434069678"><ele>197.0</ele><time>2026-04-06T08:49:20.999Z</time></trkpt><trkpt lat="43.56978358148128" lon="1.6591545008826032"><ele>196.0</ele><time>2026-04-06T08:49:21.999Z</time></trkpt><trkpt lat="43.56994302672409" lon="1.6593229623168082"><ele>194.33333333333331</ele><time>2026-04-06T08:49:22.999Z</time></trkpt><trkpt lat="43.57012457506496" lon="1.6594556696482259"><ele>192.66666666666666</ele><time>2026-04-06T08:49:23.999Z</time></trkpt><trkpt lat="43.57032231656941" lon="1.6595654557132997"><ele>191.0</ele><time>2026-04-06T08:49:25Z</time></trkpt><trkpt lat="43.570526116331926" lon="1.659648374385947"><ele>190.66666666666666</ele><time>2026-04-06T08:49:26Z</time></trkpt><trkpt lat="43.57073043780972" lon="1.65974036591617"><ele>190.33333333333334</ele><time>2026-04-06T08:49:27Z</time></trkpt><trkpt lat="43.57093538694081" lon="1.659828243328403"><ele>190.0</ele><time>2026-04-06T08:49:28Z</time></trkpt><trkpt lat="43.57114448558737" lon="1.659911239422326"><ele>189.0</ele><time>2026-04-06T08:49:29Z</time></trkpt><trkpt lat="43.571345694738206" lon="1.6600211745513855"><ele>188.0</ele><time>2026-04-06T08:49:30Z</time></trkpt><trkpt lat="43.57154608332739" lon="1.6601409750590383"><ele>187.0</ele><time>2026-04-06T08:49:31Z</time></trkpt><trkpt lat="43.57173086382385" lon="1.6602876596395497"><ele>186.66666666666669</ele><time>2026-04-06T08:49:32Z</time></trkpt><trkpt lat="43.571909717951684" lon="1.6604407533693635"><ele>186.33333333333334</ele><time>2026-04-06T08:49:33Z</time></trkpt><trkpt lat="43.57209837262787" lon="1.660579300621739"><ele>186.0</ele><time>2026-04-06T08:49:34Z</time></trkpt><trkpt lat="43.57227499268246" lon="1.660734926546201"><ele>185.66666666666666</ele><time>2026-04-06T08:49:35Z</time></trkpt><trkpt lat="43.57245164233841" lon="1.6608918504563097"><ele>185.33333333333331</ele><time>2026-04-06T08:49:36Z</time></trkpt><trkpt lat="43.57261860770696" lon="1.6610602940868415"><ele>185.0</ele><time>2026-04-06T08:49:37Z</time></trkpt><trkpt lat="43.57280341111777" lon="1.6611983096062137"><ele>186.33333333333331</ele><time>2026-04-06T08:49:38Z</time></trkpt><trkpt lat="43.57297577256471" lon="1.661345560789688"><ele>187.66666666666666</ele><time>2026-04-06T08:49:39Z</time></trkpt><trkpt lat="43.57314928028033" lon="1.6614895649488663"><ele>189.0</ele><time>2026-04-06T08:49:40Z</time></trkpt><trkpt lat="43.57332075656497" lon="1.6616327400612234"><ele>189.0</ele><time>2026-04-06T08:49:41Z</time></trkpt><trkpt lat="43.573488923541554" lon="1.6617727903608472"><ele>189.0</ele><time>2026-04-06T08:49:42Z</time></trkpt><trkpt lat="43.57365613349049" lon="1.6619073203163606"><ele>189.0</ele><time>2026-04-06T08:49:43Z</time></trkpt><trkpt lat="43.57382530155093" lon="1.6620393207607342"><ele>191.66666666666669</ele><time>2026-04-06T08:49:44Z</time></trkpt><trkpt lat="43.573992674531794" lon="1.6621719743463663"><ele>194.33333333333334</ele><time>2026-04-06T08:49:45Z</time></trkpt><trkpt lat="43.57415723255488" lon="1.6623116304702212"><ele>197.0</ele><time>2026-04-06T08:49:46Z</time></trkpt><trkpt lat="43.574319828615174" lon="1.6624553858203472"><ele>197.0</ele><time>2026-04-06T08:49:47Z</time></trkpt><trkpt lat="43.574481574222276" lon="1.6625961905082811"><ele>197.0</ele><time>2026-04-06T08:49:48Z</time></trkpt><trkpt lat="43.5746492839096" lon="1.6627405567063611"><ele>197.0</ele><time>2026-04-06T08:49:49Z</time></trkpt><trkpt lat="43.57481941918081" lon="1.6628790381618233"><ele>199.0</ele><time>2026-04-06T08:49:50Z</time></trkpt><trkpt lat="43.574987852035136" lon="1.66301948836342"><ele>201.0</ele><time>2026-04-06T08:49:51Z</time></trkpt><trkpt lat="43.575156757533925" lon="1.6631617925042095"><ele>203.0</ele><time>2026-04-06T08:49:52Z</time></trkpt><trkpt lat="43.575315177931536" lon="1.663299227492215"><ele>202.0</ele><time>2026-04-06T08:49:53Z</time></trkpt><trkpt lat="43.5754842139578" lon="1.6634495823118791"><ele>201.0</ele><time>2026-04-06T08:49:54Z</time></trkpt><trkpt lat="43.575650389937024" lon="1.663603898410212"><ele>200.0</ele><time>2026-04-06T08:49:55Z</time></trkpt><trkpt lat="43.57581947068797" lon="1.6637462053546954"><ele>200.0</ele><time>2026-04-06T08:49:56Z</time></trkpt><trkpt lat="43.575991419168155" lon="1.6638970615699495"><ele>200.0</ele><time>2026-04-06T08:49:57Z</time></trkpt><trkpt lat="43.57615935373391" lon="1.6640455612173874"><ele>200.0</ele><time>2026-04-06T08:49:58Z</time></trkpt><trkpt lat="43.57632801109618" lon="1.6641939128831265"><ele>199.0</ele><time>2026-04-06T08:49:59Z</time></trkpt><trkpt lat="43.576503641228456" lon="1.6643445842664693"><ele>198.0</ele><time>2026-04-06T08:50:00Z</time></trkpt><trkpt lat="43.57667702215781" lon="1.664493608103431"><ele>197.0</ele><time>2026-04-06T08:50:01Z</time></trkpt><trkpt lat="43.57684960457023" lon="1.6646458704483107"><ele>197.0</ele><time>2026-04-06T08:50:02Z</time></trkpt><trkpt lat="43.57701832865169" lon="1.6647941649972575"><ele>197.0</ele><time>2026-04-06T08:50:03Z</time></trkpt><trkpt lat="43.57718784205697" lon="1.6649423362746063"><ele>197.0</ele><time>2026-04-06T08:50:04Z</time></trkpt><trkpt lat="43.57736058149199" lon="1.665081841527924"><ele>196.66666666666669</ele><time>2026-04-06T08:50:05Z</time></trkpt><trkpt lat="43.57753600818026" lon="1.6652252012255357"><ele>196.33333333333331</ele><time>2026-04-06T08:50:06Z</time></trkpt><trkpt lat="43.577682746674306" lon="1.6653933662647549"><ele>196.0</ele><time>2026-04-06T08:50:07Z</time></trkpt><trkpt lat="43.57780264190052" lon="1.6656109081598767"><ele>201.0</ele><time>2026-04-06T08:50:08Z</time></trkpt><trkpt lat="43.57787449581875" lon="1.665865710551016"><ele>206.0</ele><time>2026-04-06T08:50:09Z</time></trkpt><trkpt lat="43.577910439673786" lon="1.6661348074755646"><ele>211.0</ele><time>2026-04-06T08:50:10Z</time></trkpt><trkpt lat="43.577927827325595" lon="1.6664068836466897"><ele>211.33333333333331</ele><time>2026-04-06T08:50:11Z</time></trkpt><trkpt lat="43.57794551369161" lon="1.6666950037289001"><ele>211.66666666666669</ele><time>2026-04-06T08:50:12Z</time></trkpt><trkpt lat="43.57797516099995" lon="1.6669856308952182"><ele>212.0</ele><time>2026-04-06T08:50:13Z</time></trkpt><trkpt lat="43.578004105456415" lon="1.66727938063305"><ele>214.0</ele><time>2026-04-06T08:50:13.999Z</time></trkpt><trkpt lat="43.5780334136947" lon="1.667572010866645"><ele>216.0</ele><time>2026-04-06T08:50:14.999Z</time></trkpt><trkpt lat="43.57806391898328" lon="1.6678645783749977"><ele>218.0</ele><time>2026-04-06T08:50:15.999Z</time></trkpt><trkpt lat="43.57809911421162" lon="1.6681570678242754"><ele>219.33333333333334</ele><time>2026-04-06T08:50:16.999Z</time></trkpt><trkpt lat="43.57814931215013" lon="1.6684419487525939"><ele>220.66666666666669</ele><time>2026-04-06T08:50:17.999Z</time></trkpt><trkpt lat="43.57821083844157" lon="1.6687237037062284"><ele>222.0</ele><time>2026-04-06T08:50:18.999Z</time></trkpt><trkpt lat="43.57828264815163" lon="1.669000616819665"><ele>222.66666666666669</ele><time>2026-04-06T08:50:19.999Z</time></trkpt><trkpt lat="43.57834022716245" lon="1.6692891136340304"><ele>223.33333333333334</ele><time>2026-04-06T08:50:20.999Z</time></trkpt><trkpt lat="43.5783668979058" lon="1.6695784981640522"><ele>224.0</ele><time>2026-04-06T08:50:21.999Z</time></trkpt><trkpt lat="43.57835770225577" lon="1.6698563423123292"><ele>225.33333333333334</ele><time>2026-04-06T08:50:22.999Z</time></trkpt><trkpt lat="43.57833420619655" lon="1.6701313372178666"><ele>226.66666666666669</ele><time>2026-04-06T08:50:23.999Z</time></trkpt><trkpt lat="43.57830451231111" lon="1.6704147588616278"><ele>228.0</ele><time>2026-04-06T08:50:24.999Z</time></trkpt><trkpt lat="43.578301569059086" lon="1.6707023977240756"><ele>230.0</ele><time>2026-04-06T08:50:25.999Z</time></trkpt><trkpt lat="43.57833705331764" lon="1.6709844073285187"><ele>232.0</ele><time>2026-04-06T08:50:26.999Z</time></trkpt><trkpt lat="43.57840316514688" lon="1.6712422438980434"><ele>234.0</ele><time>2026-04-06T08:50:27.999Z</time></trkpt><trkpt lat="43.57848885427514" lon="1.6714807120392376"><ele>234.66666666666669</ele><time>2026-04-06T08:50:28.999Z</time></trkpt><trkpt lat="43.578602273576934" lon="1.6716845374854492"><ele>235.33333333333334</ele><time>2026-04-06T08:50:29.999Z</time></trkpt><trkpt lat="43.578749187700566" lon="1.6718634866035256"><ele>236.0</ele><time>2026-04-06T08:50:30.999Z</time></trkpt><trkpt lat="43.578922505842364" lon="1.6720080111703202"><ele>237.33333333333334</ele><time>2026-04-06T08:50:31.999Z</time></trkpt><trkpt lat="43.579107345390405" lon="1.6721340839801278"><ele>238.66666666666669</ele><time>2026-04-06T08:50:32.999Z</time></trkpt><trkpt lat="43.57930141990088" lon="1.6722427511578597"><ele>240.0</ele><time>2026-04-06T08:50:33.999Z</time></trkpt><trkpt lat="43.57950256469918" lon="1.672313581622281"><ele>242.66666666666669</ele><time>2026-04-06T08:50:34.999Z</time></trkpt><trkpt lat="43.5797081656554" lon="1.6723357048241758"><ele>245.33333333333334</ele><time>2026-04-06T08:50:35.999Z</time></trkpt><trkpt lat="43.579917121790814" lon="1.6723280562869394"><ele>248.0</ele><time>2026-04-06T08:50:36.999Z</time></trkpt><trkpt lat="43.58012658052287" lon="1.6723304506902859"><ele>248.0</ele><time>2026-04-06T08:50:37.999Z</time></trkpt><trkpt lat="43.58032617379934" lon="1.6722944737103196"><ele>248.0</ele><time>2026-04-06T08:50:38.999Z</time></trkpt><trkpt lat="43.580521172825996" lon="1.672232406840587"><ele>248.0</ele><time>2026-04-06T08:50:39.999Z</time></trkpt><trkpt lat="43.58071567244862" lon="1.672142481589798"><ele>250.0</ele><time>2026-04-06T08:50:40.999Z</time></trkpt><trkpt lat="43.58090302414831" lon="1.6720197869343443"><ele>252.0</ele><time>2026-04-06T08:50:41.999Z</time></trkpt><trkpt lat="43.58111636728861" lon="1.6718583618583467"><ele>250.66666666666669</ele><time>2026-04-06T08:50:42.999Z</time></trkpt><trkpt lat="43.58131157347714" lon="1.6717064889303677"><ele>249.33333333333334</ele><time>2026-04-06T08:50:43.999Z</time></trkpt><trkpt lat="43.58150512651928" lon="1.6715559026056745"><ele>248.0</ele><time>2026-04-06T08:50:44.999Z</time></trkpt><trkpt lat="43.58169996478589" lon="1.6714043161066667"><ele>248.0</ele><time>2026-04-06T08:50:45.999Z</time></trkpt><trkpt lat="43.5818962701875" lon="1.6712515885135961"><ele>248.0</ele><time>2026-04-06T08:50:46.999Z</time></trkpt><trkpt lat="43.58209512761175" lon="1.6711021643452761"><ele>246.5</ele><time>2026-04-06T08:50:47.999Z</time></trkpt><trkpt lat="43.58229435036486" lon="1.6709497638761834"><ele>245.0</ele><time>2026-04-06T08:50:48.999Z</time></trkpt><trkpt lat="43.58249349428953" lon="1.6707932726463777"><ele>245.0</ele><time>2026-04-06T08:50:49.999Z</time></trkpt><trkpt lat="43.58269429536616" lon="1.6706356110216594"><ele>245.0</ele><time>2026-04-06T08:50:50.999Z</time></trkpt><trkpt lat="43.58289482655696" lon="1.670480676142908"><ele>244.33333333333334</ele><time>2026-04-06T08:50:51.999Z</time></trkpt><trkpt lat="43.58309039113768" lon="1.670329578579891"><ele>243.66666666666669</ele><time>2026-04-06T08:50:52.999Z</time></trkpt><trkpt lat="43.58328652385197" lon="1.6701777326617764"><ele>243.0</ele><time>2026-04-06T08:50:53.999Z</time></trkpt><trkpt lat="43.583482622978075" lon="1.6700246951226871"><ele>242.5</ele><time>2026-04-06T08:50:54.999Z</time></trkpt><trkpt lat="43.58367821720673" lon="1.6698720445233013"><ele>242.0</ele><time>2026-04-06T08:50:55.999Z</time></trkpt><trkpt lat="43.5838743252935" lon="1.6697189845554612"><ele>241.0</ele><time>2026-04-06T08:50:56.999Z</time></trkpt><trkpt lat="43.58407076336884" lon="1.6695652865100221"><ele>240.0</ele><time>2026-04-06T08:50:57.999Z</time></trkpt><trkpt lat="43.58425883716735" lon="1.669392002917305"><ele>239.33333333333331</ele><time>2026-04-06T08:50:58.999Z</time></trkpt><trkpt lat="43.58445615269152" lon="1.669241797919432"><ele>238.66666666666666</ele><time>2026-04-06T08:50:59.999Z</time></trkpt><trkpt lat="43.58465024919783" lon="1.669090181770045"><ele>238.0</ele><time>2026-04-06T08:51:00.999Z</time></trkpt><trkpt lat="43.58484019669029" lon="1.668935679903088"><ele>238.0</ele><time>2026-04-06T08:51:01.999Z</time></trkpt><trkpt lat="43.58503483535318" lon="1.6688067445631383"><ele>238.0</ele><time>2026-04-06T08:51:02.999Z</time></trkpt><trkpt lat="43.58521893221641" lon="1.668662554663498"><ele>238.0</ele><time>2026-04-06T08:51:03.999Z</time></trkpt><trkpt lat="43.58540205360908" lon="1.6685256079936424"><ele>238.33333333333331</ele><time>2026-04-06T08:51:05Z</time></trkpt><trkpt lat="43.58558495482014" lon="1.6684078939039466"><ele>238.66666666666669</ele><time>2026-04-06T08:51:06Z</time></trkpt><trkpt lat="43.58577234392879" lon="1.6683383740275155"><ele>239.0</ele><time>2026-04-06T08:51:07Z</time></trkpt><trkpt lat="43.585973748149875" lon="1.6682938802337648"><ele>239.0</ele><time>2026-04-06T08:51:08Z</time></trkpt><trkpt lat="43.58617593177578" lon="1.6683047651263097"><ele>239.0</ele><time>2026-04-06T08:51:09Z</time></trkpt><trkpt lat="43.58638615143798" lon="1.6683208944837933"><ele>239.0</ele><time>2026-04-06T08:51:10Z</time></trkpt><trkpt lat="43.586595011251376" lon="1.6683355866044103"><ele>240.0</ele><time>2026-04-06T08:51:11Z</time></trkpt><trkpt lat="43.58680315416811" lon="1.6683476722663955"><ele>241.0</ele><time>2026-04-06T08:51:12Z</time></trkpt><trkpt lat="43.58701028581338" lon="1.6683608484356285"><ele>242.0</ele><time>2026-04-06T08:51:13Z</time></trkpt><trkpt lat="43.58721461994728" lon="1.6683756872166884"><ele>242.33333333333334</ele><time>2026-04-06T08:51:14Z</time></trkpt><trkpt lat="43.58742060511024" lon="1.668400789543382"><ele>242.66666666666669</ele><time>2026-04-06T08:51:15Z</time></trkpt><trkpt lat="43.587627862753806" lon="1.6684373190420618"><ele>243.0</ele><time>2026-04-06T08:51:16Z</time></trkpt><trkpt lat="43.587839376216294" lon="1.6684743032966165"><ele>242.66666666666669</ele><time>2026-04-06T08:51:17Z</time></trkpt><trkpt lat="43.58805147660972" lon="1.6685071893397734"><ele>242.33333333333334</ele><time>2026-04-06T08:51:18Z</time></trkpt><trkpt lat="43.588267204143044" lon="1.6685343692679613"><ele>242.0</ele><time>2026-04-06T08:51:19Z</time></trkpt><trkpt lat="43.58848269764323" lon="1.6685655766286547"><ele>241.33333333333334</ele><time>2026-04-06T08:51:20Z</time></trkpt><trkpt lat="43.58869588589972" lon="1.668594465224062"><ele>240.66666666666669</ele><time>2026-04-06T08:51:21Z</time></trkpt><trkpt lat="43.58891036770508" lon="1.6686178214749519"><ele>240.0</ele><time>2026-04-06T08:51:22Z</time></trkpt><trkpt lat="43.589133681340705" lon="1.6686497700007714"><ele>237.5</ele><time>2026-04-06T08:51:23Z</time></trkpt><trkpt lat="43.5893646975392" lon="1.66867621949888"><ele>235.0</ele><time>2026-04-06T08:51:24Z</time></trkpt><trkpt lat="43.58959221735507" lon="1.6686967783653461"><ele>232.5</ele><time>2026-04-06T08:51:25Z</time></trkpt><trkpt lat="43.58982203159797" lon="1.6687143470843884"><ele>230.0</ele><time>2026-04-06T08:51:26Z</time></trkpt><trkpt lat="43.59005222754743" lon="1.6687258284814823"><ele>230.0</ele><time>2026-04-06T08:51:27Z</time></trkpt><trkpt lat="43.59027979409113" lon="1.6687282258715792"><ele>230.0</ele><time>2026-04-06T08:51:28Z</time></trkpt><trkpt lat="43.59050922145937" lon="1.6687276521249637"><ele>228.5</ele><time>2026-04-06T08:51:29Z</time></trkpt><trkpt lat="43.59073563999162" lon="1.6687249817935952"><ele>227.0</ele><time>2026-04-06T08:51:30Z</time></trkpt><trkpt lat="43.59096075734958" lon="1.6687180667927257"><ele>225.5</ele><time>2026-04-06T08:51:31Z</time></trkpt><trkpt lat="43.591183781518566" lon="1.6687105139592207"><ele>224.0</ele><time>2026-04-06T08:51:32Z</time></trkpt><trkpt lat="43.59161655505642" lon="1.6686872268567416"><ele>224.0</ele><time>2026-04-06T08:51:34Z</time></trkpt><trkpt lat="43.59182859314726" lon="1.6686491829097452"><ele>224.0</ele><time>2026-04-06T08:51:35Z</time></trkpt><trkpt lat="43.592035473202685" lon="1.6686006912575162"><ele>224.0</ele><time>2026-04-06T08:51:36Z</time></trkpt><trkpt lat="43.592241500464816" lon="1.6685535318174427"><ele>222.66666666666669</ele><time>2026-04-06T08:51:37Z</time></trkpt><trkpt lat="43.592438172260714" lon="1.6685063140688066"><ele>221.33333333333331</ele><time>2026-04-06T08:51:38Z</time></trkpt><trkpt lat="43.59263008067022" lon="1.6684625127182136"><ele>220.0</ele><time>2026-04-06T08:51:39Z</time></trkpt><trkpt lat="43.59280795627495" lon="1.6684220490502935"><ele>219.0</ele><time>2026-04-06T08:51:40Z</time></trkpt><trkpt lat="43.59297333587494" lon="1.6683818718898709"><ele>218.0</ele><time>2026-04-06T08:51:41Z</time></trkpt><trkpt lat="43.59312954418173" lon="1.6683503824766015"><ele>217.0</ele><time>2026-04-06T08:51:42Z</time></trkpt><trkpt lat="43.593275717124584" lon="1.6683200659843487"><ele>217.0</ele><time>2026-04-06T08:51:43Z</time></trkpt><trkpt lat="43.59341173910808" lon="1.6682952720204607"><ele>217.0</ele><time>2026-04-06T08:51:44Z</time></trkpt><trkpt lat="43.593537024873214" lon="1.6682699698207757"><ele>217.0</ele><time>2026-04-06T08:51:45Z</time></trkpt><trkpt lat="43.59364723152288" lon="1.6682516880640732"><ele>217.0</ele><time>2026-04-06T08:51:46Z</time></trkpt><trkpt lat="43.59375899339645" lon="1.668243638314272"><ele>216.33333333333331</ele><time>2026-04-06T08:51:47Z</time></trkpt><trkpt lat="43.59385588488842" lon="1.6682575736538856"><ele>215.66666666666666</ele><time>2026-04-06T08:51:48Z</time></trkpt><trkpt lat="43.59393524463464" lon="1.6682818453838912"><ele>215.0</ele><time>2026-04-06T08:51:49Z</time></trkpt><trkpt lat="43.59399617155348" lon="1.6683139794990993"><ele>214.33333333333331</ele><time>2026-04-06T08:51:50Z</time></trkpt><trkpt lat="43.594080838536975" lon="1.6684156816821436"><ele>213.66666666666666</ele><time>2026-04-06T08:51:52Z</time></trkpt><trkpt lat="43.594093542453244" lon="1.6685148296157724"><ele>213.0</ele><time>2026-04-06T08:51:53Z</time></trkpt><trkpt lat="43.59409465650132" lon="1.6686512535588884"><ele>212.75</ele><time>2026-04-06T08:51:54Z</time></trkpt><trkpt lat="43.594093073941714" lon="1.6688079582801374"><ele>212.5</ele><time>2026-04-06T08:51:55Z</time></trkpt><trkpt lat="43.59409153011661" lon="1.6689898700292658"><ele>212.25</ele><time>2026-04-06T08:51:56Z</time></trkpt><trkpt lat="43.59409783766911" lon="1.6691949599128273"><ele>212.0</ele><time>2026-04-06T08:51:57Z</time></trkpt><trkpt lat="43.5941009023614" lon="1.6694271822812048"><ele>212.0</ele><time>2026-04-06T08:51:58Z</time></trkpt><trkpt lat="43.5941032205222" lon="1.6696646765207184"><ele>212.0</ele><time>2026-04-06T08:51:59Z</time></trkpt><trkpt lat="43.59410468960963" lon="1.6699278273864906"><ele>212.0</ele><time>2026-04-06T08:52:00Z</time></trkpt><trkpt lat="43.59411143068688" lon="1.6702147945061288"><ele>212.0</ele><time>2026-04-06T08:52:01Z</time></trkpt><trkpt lat="43.59411891565601" lon="1.6705179319364563"><ele>212.0</ele><time>2026-04-06T08:52:02Z</time></trkpt><trkpt lat="43.5941154360113" lon="1.6708240433086714"><ele>212.0</ele><time>2026-04-06T08:52:03Z</time></trkpt><trkpt lat="43.59410916988177" lon="1.6711442791289715"><ele>213.5</ele><time>2026-04-06T08:52:04Z</time></trkpt><trkpt lat="43.594099509474944" lon="1.6714770531445582"><ele>215.0</ele><time>2026-04-06T08:52:05Z</time></trkpt><trkpt lat="43.594069997573115" lon="1.6718187285958979"><ele>218.0</ele><time>2026-04-06T08:52:06Z</time></trkpt><trkpt lat="43.59402633284292" lon="1.6721615964803174"><ele>221.0</ele><time>2026-04-06T08:52:07Z</time></trkpt><trkpt lat="43.59396127655461" lon="1.6724895188386473"><ele>224.0</ele><time>2026-04-06T08:52:08Z</time></trkpt><trkpt lat="43.59388678192882" lon="1.672822463957594"><ele>227.0</ele><time>2026-04-06T08:52:09Z</time></trkpt><trkpt lat="43.59381155143686" lon="1.6731533405827996"><ele>227.0</ele><time>2026-04-06T08:52:10Z</time></trkpt><trkpt lat="43.59372073947406" lon="1.6734716034303012"><ele>227.0</ele><time>2026-04-06T08:52:11Z</time></trkpt><trkpt lat="43.59361489257977" lon="1.673774629201299"><ele>224.5</ele><time>2026-04-06T08:52:12Z</time></trkpt><trkpt lat="43.59350068174622" lon="1.674071700407022"><ele>222.0</ele><time>2026-04-06T08:52:13Z</time></trkpt><trkpt lat="43.59338743536731" lon="1.6743675993520821"><ele>226.0</ele><time>2026-04-06T08:52:14Z</time></trkpt><trkpt lat="43.59327695681682" lon="1.6746630047592301"><ele>230.0</ele><time>2026-04-06T08:52:15Z</time></trkpt><trkpt lat="43.59316879114504" lon="1.6749694883611472"><ele>233.5</ele><time>2026-04-06T08:52:16Z</time></trkpt><trkpt lat="43.59306213556113" lon="1.6752803927894209"><ele>237.0</ele><time>2026-04-06T08:52:17Z</time></trkpt><trkpt lat="43.592951790252684" lon="1.6755821732017993"><ele>235.5</ele><time>2026-04-06T08:52:18Z</time></trkpt><trkpt lat="43.592834616421065" lon="1.6758778817591524"><ele>234.0</ele><time>2026-04-06T08:52:19Z</time></trkpt><trkpt lat="43.59272326346587" lon="1.6761911048167617"><ele>234.0</ele><time>2026-04-06T08:52:20Z</time></trkpt><trkpt lat="43.59260666737181" lon="1.6764931326847923"><ele>234.0</ele><time>2026-04-06T08:52:21Z</time></trkpt><trkpt lat="43.59249151982514" lon="1.6768008198011464"><ele>237.5</ele><time>2026-04-06T08:52:22Z</time></trkpt><trkpt lat="43.59238242882248" lon="1.67710693128822"><ele>241.0</ele><time>2026-04-06T08:52:23Z</time></trkpt><trkpt lat="43.59227904711284" lon="1.6774172654183608"><ele>241.0</ele><time>2026-04-06T08:52:24Z</time></trkpt><trkpt lat="43.592187599044856" lon="1.677740230961539"><ele>241.0</ele><time>2026-04-06T08:52:25Z</time></trkpt><trkpt lat="43.59210636796623" lon="1.678071235319618"><ele>242.0</ele><time>2026-04-06T08:52:26Z</time></trkpt><trkpt lat="43.59204186172331" lon="1.678408388964632"><ele>243.0</ele><time>2026-04-06T08:52:27Z</time></trkpt><trkpt lat="43.59199270985577" lon="1.6787557870481822"><ele>243.5</ele><time>2026-04-06T08:52:28Z</time></trkpt><trkpt lat="43.59195550629727" lon="1.6791081064198081"><ele>244.0</ele><time>2026-04-06T08:52:29Z</time></trkpt><trkpt lat="43.591933726075375" lon="1.6794626387755796"><ele>244.0</ele><time>2026-04-06T08:52:30Z</time></trkpt><trkpt lat="43.59192398815599" lon="1.6798189123279632"><ele>244.0</ele><time>2026-04-06T08:52:31Z</time></trkpt><trkpt lat="43.591930691910164" lon="1.6801685866482534"><ele>244.5</ele><time>2026-04-06T08:52:32Z</time></trkpt><trkpt lat="43.591952755485714" lon="1.680512325092549"><ele>245.0</ele><time>2026-04-06T08:52:33Z</time></trkpt><trkpt lat="43.59198934539016" lon="1.680854122862832"><ele>246.0</ele><time>2026-04-06T08:52:34Z</time></trkpt><trkpt lat="43.59203912429366" lon="1.6811956365420684"><ele>247.0</ele><time>2026-04-06T08:52:35Z</time></trkpt><trkpt lat="43.59210153067251" lon="1.681533353335518"><ele>247.0</ele><time>2026-04-06T08:52:36Z</time></trkpt><trkpt lat="43.592178514487664" lon="1.6818650531762043"><ele>247.0</ele><time>2026-04-06T08:52:37Z</time></trkpt><trkpt lat="43.59226351351686" lon="1.6821896246039336"><ele>246.5</ele><time>2026-04-06T08:52:38Z</time></trkpt><trkpt lat="43.59235171293804" lon="1.6825113660004771"><ele>246.0</ele><time>2026-04-06T08:52:39Z</time></trkpt><trkpt lat="43.59243586216848" lon="1.6828296264419522"><ele>247.0</ele><time>2026-04-06T08:52:40Z</time></trkpt><trkpt lat="43.592515988754464" lon="1.6831350214340395"><ele>248.0</ele><time>2026-04-06T08:52:41Z</time></trkpt><trkpt lat="43.592598795709726" lon="1.683449007477725"><ele>250.0</ele><time>2026-04-06T08:52:42Z</time></trkpt><trkpt lat="43.59266882343114" lon="1.6837242757156792"><ele>252.0</ele><time>2026-04-06T08:52:43Z</time></trkpt><trkpt lat="43.59274379173433" lon="1.6840119880308928"><ele>254.0</ele><time>2026-04-06T08:52:44Z</time></trkpt><trkpt lat="43.592820002901206" lon="1.6843005593665636"><ele>251.33333333333334</ele><time>2026-04-06T08:52:45Z</time></trkpt><trkpt lat="43.59289179754655" lon="1.684586665801457"><ele>248.66666666666669</ele><time>2026-04-06T08:52:46Z</time></trkpt><trkpt lat="43.59295575293166" lon="1.6848766383633555"><ele>246.0</ele><time>2026-04-06T08:52:47Z</time></trkpt><trkpt lat="43.593001373157186" lon="1.6851740008845324"><ele>244.66666666666669</ele><time>2026-04-06T08:52:48Z</time></trkpt><trkpt lat="43.59303078772986" lon="1.6854739142858002"><ele>243.33333333333334</ele><time>2026-04-06T08:52:49Z</time></trkpt><trkpt lat="43.593031252257866" lon="1.6857788362762849"><ele>242.0</ele><time>2026-04-06T08:52:50Z</time></trkpt><trkpt lat="43.59300965961097" lon="1.6860788957103947"><ele>240.33333333333334</ele><time>2026-04-06T08:52:51Z</time></trkpt><trkpt lat="43.59301548255436" lon="1.6863671798622426"><ele>238.66666666666669</ele><time>2026-04-06T08:52:52Z</time></trkpt><trkpt lat="43.59303638115045" lon="1.6866560005074227"><ele>237.0</ele><time>2026-04-06T08:52:53Z</time></trkpt><trkpt lat="43.59308707494237" lon="1.6869383209217772"><ele>236.0</ele><time>2026-04-06T08:52:54Z</time></trkpt><trkpt lat="43.59318346619934" lon="1.6872063605888101"><ele>235.0</ele><time>2026-04-06T08:52:55Z</time></trkpt><trkpt lat="43.59331529355577" lon="1.6874358928678712"><ele>234.0</ele><time>2026-04-06T08:52:56Z</time></trkpt><trkpt lat="43.593479373348295" lon="1.6876117838695555"><ele>234.0</ele><time>2026-04-06T08:52:57Z</time></trkpt><trkpt lat="43.59366634049524" lon="1.687728752912101"><ele>234.0</ele><time>2026-04-06T08:52:58Z</time></trkpt><trkpt lat="43.59387205712849" lon="1.6877770417372207"><ele>234.0</ele><time>2026-04-06T08:52:59Z</time></trkpt><trkpt lat="43.59407747643359" lon="1.6877572445525866"><ele>233.66666666666669</ele><time>2026-04-06T08:53:00Z</time></trkpt><trkpt lat="43.59427961254322" lon="1.6877466955290399"><ele>233.33333333333334</ele><time>2026-04-06T08:53:01Z</time></trkpt><trkpt lat="43.594467001047796" lon="1.6878233389015889"><ele>233.0</ele><time>2026-04-06T08:53:02Z</time></trkpt><trkpt lat="43.594635453492735" lon="1.6879669372235935"><ele>231.66666666666669</ele><time>2026-04-06T08:53:03Z</time></trkpt><trkpt lat="43.59478449693671" lon="1.6881684663960226"><ele>230.33333333333331</ele><time>2026-04-06T08:53:04Z</time></trkpt><trkpt lat="43.59489550009586" lon="1.688411571339133"><ele>229.0</ele><time>2026-04-06T08:53:05Z</time></trkpt><trkpt lat="43.594976181202796" lon="1.6886815756571416"><ele>228.66666666666666</ele><time>2026-04-06T08:53:06Z</time></trkpt><trkpt lat="43.59502955778995" lon="1.688969946470193"><ele>228.33333333333331</ele><time>2026-04-06T08:53:07Z</time></trkpt><trkpt lat="43.595054234432226" lon="1.6892682468486895"><ele>228.0</ele><time>2026-04-06T08:53:08Z</time></trkpt><trkpt lat="43.59504660029538" lon="1.6895732596884616"><ele>226.33333333333331</ele><time>2026-04-06T08:53:09Z</time></trkpt><trkpt lat="43.59500145428233" lon="1.6898741580137953"><ele>224.66666666666666</ele><time>2026-04-06T08:53:10Z</time></trkpt><trkpt lat="43.59491776784722" lon="1.6901584411985306"><ele>223.0</ele><time>2026-04-06T08:53:11.001Z</time></trkpt><trkpt lat="43.59479551939615" lon="1.690417340047797"><ele>218.5</ele><time>2026-04-06T08:53:12.001Z</time></trkpt><trkpt lat="43.59465032433483" lon="1.690655665186925"><ele>214.0</ele><time>2026-04-06T08:53:13.001Z</time></trkpt><trkpt lat="43.594506968621566" lon="1.690896620201853"><ele>215.66666666666666</ele><time>2026-04-06T08:53:14.001Z</time></trkpt><trkpt lat="43.594368900378456" lon="1.6911419726954415"><ele>217.33333333333331</ele><time>2026-04-06T08:53:15.001Z</time></trkpt><trkpt lat="43.59425221529286" lon="1.6913907844006337"><ele>219.0</ele><time>2026-04-06T08:53:16.001Z</time></trkpt><trkpt lat="43.594163457269076" lon="1.691651696320303"><ele>217.66666666666669</ele><time>2026-04-06T08:53:17.001Z</time></trkpt><trkpt lat="43.594119240428405" lon="1.69192891474427"><ele>216.33333333333334</ele><time>2026-04-06T08:53:18.001Z</time></trkpt><trkpt lat="43.59412168980696" lon="1.6922181627696518"><ele>215.0</ele><time>2026-04-06T08:53:19.001Z</time></trkpt><trkpt lat="43.59410003714822" lon="1.6924907029509588"><ele>213.0</ele><time>2026-04-06T08:53:20.001Z</time></trkpt><trkpt lat="43.5942513138017" lon="1.6927724443228214"><ele>211.0</ele><time>2026-04-06T08:53:21.001Z</time></trkpt><trkpt lat="43.594372134132925" lon="1.6930157250559605"><ele>209.33333333333331</ele><time>2026-04-06T08:53:22.001Z</time></trkpt><trkpt lat="43.59452490292957" lon="1.6932309944645603"><ele>207.66666666666669</ele><time>2026-04-06T08:53:23.001Z</time></trkpt><trkpt lat="43.59470877095886" lon="1.693395705257967"><ele>206.0</ele><time>2026-04-06T08:53:24.001Z</time></trkpt><trkpt lat="43.59491875711503" lon="1.6935012270489418"><ele>206.0</ele><time>2026-04-06T08:53:25Z</time></trkpt><trkpt lat="43.595144092340234" lon="1.6935594833280778"><ele>206.0</ele><time>2026-04-06T08:53:26Z</time></trkpt><trkpt lat="43.5953772051862" lon="1.6935682018691247"><ele>201.5</ele><time>2026-04-06T08:53:27Z</time></trkpt><trkpt lat="43.59561073685323" lon="1.693524707502555"><ele>197.0</ele><time>2026-04-06T08:53:28Z</time></trkpt><trkpt lat="43.595837161720326" lon="1.693442748428016"><ele>197.0</ele><time>2026-04-06T08:53:29Z</time></trkpt><trkpt lat="43.596063754421856" lon="1.6933483137067917"><ele>197.0</ele><time>2026-04-06T08:53:30Z</time></trkpt><trkpt lat="43.59629765332608" lon="1.6932935497541823"><ele>194.5</ele><time>2026-04-06T08:53:31Z</time></trkpt><trkpt lat="43.59653150633986" lon="1.6933072489729726"><ele>192.0</ele><time>2026-04-06T08:53:32Z</time></trkpt><trkpt lat="43.59676034347778" lon="1.6933709677471536"><ele>192.0</ele><time>2026-04-06T08:53:33Z</time></trkpt><trkpt lat="43.59698668404176" lon="1.693470194905158"><ele>192.0</ele><time>2026-04-06T08:53:34Z</time></trkpt><trkpt lat="43.59720044645163" lon="1.6936181735939175"><ele>187.5</ele><time>2026-04-06T08:53:35Z</time></trkpt><trkpt lat="43.5973963011794" lon="1.6938102516156643"><ele>183.0</ele><time>2026-04-06T08:53:36Z</time></trkpt><trkpt lat="43.5975752944329" lon="1.6940318699446342"><ele>183.0</ele><time>2026-04-06T08:53:37Z</time></trkpt><trkpt lat="43.59773639938308" lon="1.6942780434980886"><ele>183.0</ele><time>2026-04-06T08:53:38Z</time></trkpt><trkpt lat="43.59785923798678" lon="1.6945571930898113"><ele>181.0</ele><time>2026-04-06T08:53:39Z</time></trkpt><trkpt lat="43.59793013254708" lon="1.694870327789842"><ele>179.0</ele><time>2026-04-06T08:53:40Z</time></trkpt><trkpt lat="43.59794988897204" lon="1.695195400578213"><ele>180.0</ele><time>2026-04-06T08:53:41Z</time></trkpt><trkpt lat="43.59793960142635" lon="1.6955237780101111"><ele>181.0</ele><time>2026-04-06T08:53:42Z</time></trkpt><trkpt lat="43.59790730980466" lon="1.6958521030348308"><ele>180.0</ele><time>2026-04-06T08:53:43Z</time></trkpt><trkpt lat="43.597850632470696" lon="1.6961768775937074"><ele>179.0</ele><time>2026-04-06T08:53:44Z</time></trkpt><trkpt lat="43.597754748152425" lon="1.6964841384070732"><ele>179.0</ele><time>2026-04-06T08:53:45Z</time></trkpt><trkpt lat="43.59763797649372" lon="1.6967782051281224"><ele>179.0</ele><time>2026-04-06T08:53:46Z</time></trkpt><trkpt lat="43.59752766750265" lon="1.6970718665149453"><ele>181.5</ele><time>2026-04-06T08:53:47Z</time></trkpt><trkpt lat="43.597426984786836" lon="1.6973611749418818"><ele>184.0</ele><time>2026-04-06T08:53:48Z</time></trkpt><trkpt lat="43.59732076004422" lon="1.697657115195403"><ele>187.0</ele><time>2026-04-06T08:53:49Z</time></trkpt><trkpt lat="43.59720802106235" lon="1.697946531599962"><ele>190.0</ele><time>2026-04-06T08:53:50Z</time></trkpt><trkpt lat="43.59709602072548" lon="1.6982397371511249"><ele>188.0</ele><time>2026-04-06T08:53:51Z</time></trkpt><trkpt lat="43.59698605070457" lon="1.6985300447216933"><ele>186.0</ele><time>2026-04-06T08:53:52Z</time></trkpt><trkpt lat="43.59687929053077" lon="1.698816631424795"><ele>186.0</ele><time>2026-04-06T08:53:53Z</time></trkpt><trkpt lat="43.59677388157657" lon="1.6991056677252583"><ele>186.0</ele><time>2026-04-06T08:53:54Z</time></trkpt><trkpt lat="43.59666838826673" lon="1.6993910693888123"><ele>189.5</ele><time>2026-04-06T08:53:55Z</time></trkpt><trkpt lat="43.59656397652464" lon="1.6996762405963648"><ele>193.0</ele><time>2026-04-06T08:53:56Z</time></trkpt><trkpt lat="43.59645966214697" lon="1.699958091263739"><ele>193.0</ele><time>2026-04-06T08:53:57Z</time></trkpt><trkpt lat="43.59635702334739" lon="1.700239619988803"><ele>193.0</ele><time>2026-04-06T08:53:58Z</time></trkpt><trkpt lat="43.59625371861928" lon="1.7005161541545821"><ele>192.0</ele><time>2026-04-06T08:53:59Z</time></trkpt><trkpt lat="43.59614834246921" lon="1.700791072226987"><ele>191.0</ele><time>2026-04-06T08:54:00Z</time></trkpt><trkpt lat="43.596044463228104" lon="1.7010641006792602"><ele>190.0</ele><time>2026-04-06T08:54:01Z</time></trkpt><trkpt lat="43.59594288454475" lon="1.701337784606038"><ele>192.33333333333334</ele><time>2026-04-06T08:54:02Z</time></trkpt><trkpt lat="43.59583741822521" lon="1.7016109775174049"><ele>194.66666666666669</ele><time>2026-04-06T08:54:03Z</time></trkpt><trkpt lat="43.595734150816284" lon="1.7018858805604509"><ele>197.0</ele><time>2026-04-06T08:54:04Z</time></trkpt><trkpt lat="43.595633305075246" lon="1.7021609183063569"><ele>199.66666666666669</ele><time>2026-04-06T08:54:05Z</time></trkpt><trkpt lat="43.59553759077453" lon="1.7024394172077186"><ele>202.33333333333331</ele><time>2026-04-06T08:54:06Z</time></trkpt><trkpt lat="43.595447232785205" lon="1.7027223771643059"><ele>205.0</ele><time>2026-04-06T08:54:07Z</time></trkpt><trkpt lat="43.59536464114288" lon="1.7030067188875788"><ele>202.66666666666666</ele><time>2026-04-06T08:54:08Z</time></trkpt><trkpt lat="43.59528718414578" lon="1.7032972485699707"><ele>200.33333333333331</ele><time>2026-04-06T08:54:09Z</time></trkpt><trkpt lat="43.59521897124453" lon="1.7035933703151496"><ele>198.0</ele><time>2026-04-06T08:54:10Z</time></trkpt><trkpt lat="43.5951543237363" lon="1.7038948679195363"><ele>198.0</ele><time>2026-04-06T08:54:11Z</time></trkpt><trkpt lat="43.59508987337673" lon="1.704199141353167"><ele>198.0</ele><time>2026-04-06T08:54:12Z</time></trkpt><trkpt lat="43.59502470117746" lon="1.7044983919601557"><ele>201.0</ele><time>2026-04-06T08:54:13Z</time></trkpt><trkpt lat="43.594967801541095" lon="1.704801021878908"><ele>204.0</ele><time>2026-04-06T08:54:14Z</time></trkpt><trkpt lat="43.594913926772406" lon="1.7051025005658755"><ele>206.5</ele><time>2026-04-06T08:54:15Z</time></trkpt><trkpt lat="43.59485380605926" lon="1.7054065030861436"><ele>209.0</ele><time>2026-04-06T08:54:16Z</time></trkpt><trkpt lat="43.59480042213212" lon="1.705712724264444"><ele>209.0</ele><time>2026-04-06T08:54:17Z</time></trkpt><trkpt lat="43.59474507871232" lon="1.7060218433469092"><ele>209.0</ele><time>2026-04-06T08:54:18Z</time></trkpt><trkpt lat="43.59468652706884" lon="1.7063321818439323"><ele>211.0</ele><time>2026-04-06T08:54:19Z</time></trkpt><trkpt lat="43.594630308718884" lon="1.7066323419767722"><ele>213.0</ele><time>2026-04-06T08:54:20Z</time></trkpt><trkpt lat="43.59457641507501" lon="1.7069355114450415"><ele>216.5</ele><time>2026-04-06T08:54:21Z</time></trkpt><trkpt lat="43.59452130939998" lon="1.7072422569981247"><ele>220.0</ele><time>2026-04-06T08:54:22Z</time></trkpt><trkpt lat="43.5944622444617" lon="1.7075463987583142"><ele>214.5</ele><time>2026-04-06T08:54:23Z</time></trkpt><trkpt lat="43.594404356740135" lon="1.7078507228990454"><ele>209.0</ele><time>2026-04-06T08:54:24Z</time></trkpt><trkpt lat="43.59434394353505" lon="1.7081576166910715"><ele>209.0</ele><time>2026-04-06T08:54:25Z</time></trkpt><trkpt lat="43.59428101900455" lon="1.7084647797995145"><ele>209.0</ele><time>2026-04-06T08:54:26Z</time></trkpt><trkpt lat="43.59421148981987" lon="1.7087694801094966"><ele>212.0</ele><time>2026-04-06T08:54:27Z</time></trkpt><trkpt lat="43.594140643775525" lon="1.709075926476461"><ele>215.0</ele><time>2026-04-06T08:54:28Z</time></trkpt><trkpt lat="43.594065233980864" lon="1.70937996852979"><ele>216.5</ele><time>2026-04-06T08:54:29Z</time></trkpt><trkpt lat="43.5939799977999" lon="1.7096865905237693"><ele>218.0</ele><time>2026-04-06T08:54:30Z</time></trkpt><trkpt lat="43.593887891055125" lon="1.7099865738491606"><ele>221.0</ele><time>2026-04-06T08:54:31Z</time></trkpt><trkpt lat="43.59379002229595" lon="1.7102873992701555"><ele>224.0</ele><time>2026-04-06T08:54:32Z</time></trkpt><trkpt lat="43.59369187735256" lon="1.7105893182373826"><ele>219.0</ele><time>2026-04-06T08:54:33Z</time></trkpt><trkpt lat="43.59359035362148" lon="1.7108849725382214"><ele>214.0</ele><time>2026-04-06T08:54:34Z</time></trkpt><trkpt lat="43.5934908517897" lon="1.711174864274679"><ele>214.0</ele><time>2026-04-06T08:54:35Z</time></trkpt><trkpt lat="43.59339246156024" lon="1.7114700593281746"><ele>214.0</ele><time>2026-04-06T08:54:36Z</time></trkpt><trkpt lat="43.5932988454064" lon="1.7117643528741373"><ele>218.5</ele><time>2026-04-06T08:54:37Z</time></trkpt><trkpt lat="43.59320731407889" lon="1.712051974410356"><ele>223.0</ele><time>2026-04-06T08:54:38Z</time></trkpt><trkpt lat="43.59311413591449" lon="1.712337361704275"><ele>223.0</ele><time>2026-04-06T08:54:39Z</time></trkpt><trkpt lat="43.59301749805436" lon="1.7126218686987646"><ele>223.0</ele><time>2026-04-06T08:54:40Z</time></trkpt><trkpt lat="43.5929221642683" lon="1.7129125385786195"><ele>216.5</ele><time>2026-04-06T08:54:41Z</time></trkpt><trkpt lat="43.59282820611775" lon="1.7132015410108268"><ele>210.0</ele><time>2026-04-06T08:54:42Z</time></trkpt><trkpt lat="43.59273428069782" lon="1.7134936217354186"><ele>213.5</ele><time>2026-04-06T08:54:43Z</time></trkpt><trkpt lat="43.59263659520231" lon="1.7137852242745137"><ele>217.0</ele><time>2026-04-06T08:54:44Z</time></trkpt><trkpt lat="43.5925389409581" lon="1.7140797870552889"><ele>217.0</ele><time>2026-04-06T08:54:45Z</time></trkpt><trkpt lat="43.59244514087787" lon="1.714374467224037"><ele>217.0</ele><time>2026-04-06T08:54:46Z</time></trkpt><trkpt lat="43.59234847078914" lon="1.7146708688915497"><ele>221.5</ele><time>2026-04-06T08:54:47Z</time></trkpt><trkpt lat="43.59225356762854" lon="1.7149708330143831"><ele>226.0</ele><time>2026-04-06T08:54:48Z</time></trkpt><trkpt lat="43.59215686530764" lon="1.715268367731382"><ele>228.0</ele><time>2026-04-06T08:54:49Z</time></trkpt><trkpt lat="43.59205667224431" lon="1.7155696212770741"><ele>230.0</ele><time>2026-04-06T08:54:50Z</time></trkpt><trkpt lat="43.591956988272294" lon="1.7158678430050005"><ele>224.5</ele><time>2026-04-06T08:54:51Z</time></trkpt><trkpt lat="43.59186287164993" lon="1.716170629434748"><ele>219.0</ele><time>2026-04-06T08:54:52Z</time></trkpt><trkpt lat="43.59176959471568" lon="1.7164696025101367"><ele>219.0</ele><time>2026-04-06T08:54:53Z</time></trkpt><trkpt lat="43.59167520461904" lon="1.716767362955973"><ele>219.0</ele><time>2026-04-06T08:54:54Z</time></trkpt><trkpt lat="43.591577926004746" lon="1.7170632461302224"><ele>223.5</ele><time>2026-04-06T08:54:55Z</time></trkpt><trkpt lat="43.591476702892706" lon="1.717355546256444"><ele>228.0</ele><time>2026-04-06T08:54:56Z</time></trkpt><trkpt lat="43.59136653850603" lon="1.717640228625806"><ele>227.0</ele><time>2026-04-06T08:54:57Z</time></trkpt><trkpt lat="43.59124912325566" lon="1.7179182302518943"><ele>226.0</ele><time>2026-04-06T08:54:58Z</time></trkpt><trkpt lat="43.59112559840931" lon="1.7181869637303966"><ele>226.0</ele><time>2026-04-06T08:54:59Z</time></trkpt><trkpt lat="43.59099337406924" lon="1.7184493542167985"><ele>226.0</ele><time>2026-04-06T08:55:00Z</time></trkpt><trkpt lat="43.59085539342522" lon="1.7186993731541775"><ele>230.0</ele><time>2026-04-06T08:55:01Z</time></trkpt><trkpt lat="43.59071068526501" lon="1.7189424390333818"><ele>234.0</ele><time>2026-04-06T08:55:02Z</time></trkpt><trkpt lat="43.59056360641857" lon="1.7191853410548497"><ele>232.0</ele><time>2026-04-06T08:55:03Z</time></trkpt><trkpt lat="43.590419437822355" lon="1.7194261966015039"><ele>230.0</ele><time>2026-04-06T08:55:04Z</time></trkpt><trkpt lat="43.590274555500095" lon="1.7196722715948372"><ele>230.0</ele><time>2026-04-06T08:55:05Z</time></trkpt><trkpt lat="43.59012360960484" lon="1.7199086246020165"><ele>230.0</ele><time>2026-04-06T08:55:06Z</time></trkpt><trkpt lat="43.58997128912716" lon="1.7201261732558852"><ele>230.0</ele><time>2026-04-06T08:55:07Z</time></trkpt><trkpt lat="43.58981307015664" lon="1.720319819971102"><ele>230.33333333333334</ele><time>2026-04-06T08:55:08Z</time></trkpt><trkpt lat="43.589656038797585" lon="1.7204892349994387"><ele>230.66666666666669</ele><time>2026-04-06T08:55:09Z</time></trkpt><trkpt lat="43.58950209384906" lon="1.720639616614233"><ele>231.0</ele><time>2026-04-06T08:55:10Z</time></trkpt><trkpt lat="43.589353589879096" lon="1.7207665887026182"><ele>231.0</ele><time>2026-04-06T08:55:11Z</time></trkpt><trkpt lat="43.58919021847135" lon="1.7209003943591807"><ele>231.0</ele><time>2026-04-06T08:55:12Z</time></trkpt><trkpt lat="43.589070883316836" lon="1.7209881219875969"><ele>231.0</ele><time>2026-04-06T08:55:13Z</time></trkpt><trkpt lat="43.588944257014084" lon="1.7210754610968675"><ele>232.25</ele><time>2026-04-06T08:55:14Z</time></trkpt><trkpt lat="43.58881460959275" lon="1.721160443135797"><ele>233.5</ele><time>2026-04-06T08:55:15Z</time></trkpt><trkpt lat="43.58868636038256" lon="1.7212382303417177"><ele>234.75</ele><time>2026-04-06T08:55:16Z</time></trkpt><trkpt lat="43.58855689090635" lon="1.7213076736870476"><ele>236.0</ele><time>2026-04-06T08:55:17.001Z</time></trkpt><trkpt lat="43.5884355399703" lon="1.7213718683932233"><ele>236.0</ele><time>2026-04-06T08:55:18.001Z</time></trkpt><trkpt lat="43.58831365451683" lon="1.7214392167052863"><ele>236.0</ele><time>2026-04-06T08:55:19.001Z</time></trkpt><trkpt lat="43.588208971111776" lon="1.7214988216444305"><ele>236.0</ele><time>2026-04-06T08:55:20.001Z</time></trkpt><trkpt lat="43.58810414606634" lon="1.7215514287930578"><ele>236.0</ele><time>2026-04-06T08:55:21.001Z</time></trkpt><trkpt lat="43.58799928454368" lon="1.7216060218516862"><ele>236.0</ele><time>2026-04-06T08:55:22.001Z</time></trkpt><trkpt lat="43.58789348481791" lon="1.7216547003725695"><ele>236.00000000000003</ele><time>2026-04-06T08:55:23.001Z</time></trkpt><trkpt lat="43.58779378717433" lon="1.721712800704225"><ele>236.00000000000003</ele><time>2026-04-06T08:55:24.001Z</time></trkpt><trkpt lat="43.58770449872615" lon="1.7217773313452136"><ele>236.0</ele><time>2026-04-06T08:55:25.001Z</time></trkpt><trkpt lat="43.58761897397318" lon="1.7218422147861567"><ele>236.0</ele><time>2026-04-06T08:55:26.001Z</time></trkpt><trkpt lat="43.5875447680417" lon="1.7219194214881302"><ele>237.4</ele><time>2026-04-06T08:55:27.001Z</time></trkpt><trkpt lat="43.587480292355224" lon="1.7220126910316333"><ele>238.8</ele><time>2026-04-06T08:55:28.001Z</time></trkpt><trkpt lat="43.58741775097409" lon="1.722113036942948"><ele>240.20000000000002</ele><time>2026-04-06T08:55:29.001Z</time></trkpt><trkpt lat="43.587354455423196" lon="1.722198738445446"><ele>241.60000000000002</ele><time>2026-04-06T08:55:30.001Z</time></trkpt><trkpt lat="43.58729304350703" lon="1.722310860190386"><ele>243.0</ele><time>2026-04-06T08:55:31.001Z</time></trkpt><trkpt lat="43.587222514698425" lon="1.7224204161694816"><ele>243.0</ele><time>2026-04-06T08:55:32.001Z</time></trkpt><trkpt lat="43.58715154461541" lon="1.722526722163484"><ele>243.0</ele><time>2026-04-06T08:55:33.001Z</time></trkpt><trkpt lat="43.587091567389685" lon="1.7226482727488863"><ele>243.0</ele><time>2026-04-06T08:55:34.001Z</time></trkpt><trkpt lat="43.58702163254009" lon="1.7227662146598421"><ele>243.0</ele><time>2026-04-06T08:55:35.001Z</time></trkpt><trkpt lat="43.586952995355645" lon="1.722891887907197"><ele>243.0</ele><time>2026-04-06T08:55:36.001Z</time></trkpt><trkpt lat="43.58688107895789" lon="1.7230237430649555"><ele>242.5</ele><time>2026-04-06T08:55:37Z</time></trkpt><trkpt lat="43.586805264561015" lon="1.7231634985852577"><ele>242.0</ele><time>2026-04-06T08:55:38Z</time></trkpt><trkpt lat="43.58672340728843" lon="1.7233044572150265"><ele>241.5</ele><time>2026-04-06T08:55:39Z</time></trkpt><trkpt lat="43.586638445561206" lon="1.7234553727802715"><ele>241.0</ele><time>2026-04-06T08:55:40Z</time></trkpt><trkpt lat="43.586547793465236" lon="1.7236118038366361"><ele>243.33333333333331</ele><time>2026-04-06T08:55:41Z</time></trkpt><trkpt lat="43.5864573505454" lon="1.7237760895657257"><ele>245.66666666666669</ele><time>2026-04-06T08:55:42Z</time></trkpt><trkpt lat="43.58636576212905" lon="1.7239477041385696"><ele>248.0</ele><time>2026-04-06T08:55:43Z</time></trkpt><trkpt lat="43.58626935368551" lon="1.724124527155679"><ele>247.33333333333334</ele><time>2026-04-06T08:55:44Z</time></trkpt><trkpt lat="43.58616651220866" lon="1.72430499708111"><ele>246.66666666666669</ele><time>2026-04-06T08:55:45Z</time></trkpt><trkpt lat="43.58606360290685" lon="1.7244823209426938"><ele>246.0</ele><time>2026-04-06T08:55:46Z</time></trkpt><trkpt lat="43.58595290916719" lon="1.7246704110059157"><ele>246.0</ele><time>2026-04-06T08:55:47Z</time></trkpt><trkpt lat="43.58584931526321" lon="1.7248608623613844"><ele>246.0</ele><time>2026-04-06T08:55:48Z</time></trkpt><trkpt lat="43.585741238863775" lon="1.7250579425319499"><ele>246.0</ele><time>2026-04-06T08:55:49Z</time></trkpt><trkpt lat="43.58563060680894" lon="1.7252573596761085"><ele>248.0</ele><time>2026-04-06T08:55:50Z</time></trkpt><trkpt lat="43.58551871728694" lon="1.7254593472562352"><ele>250.0</ele><time>2026-04-06T08:55:51Z</time></trkpt><trkpt lat="43.58540861441681" lon="1.7256758863625412"><ele>252.0</ele><time>2026-04-06T08:55:52Z</time></trkpt><trkpt lat="43.585302529810576" lon="1.7259035786222519"><ele>250.66666666666669</ele><time>2026-04-06T08:55:53Z</time></trkpt><trkpt lat="43.58520206023629" lon="1.726140926753263"><ele>249.33333333333334</ele><time>2026-04-06T08:55:54Z</time></trkpt><trkpt lat="43.58509692443378" lon="1.7263861035892423"><ele>248.0</ele><time>2026-04-06T08:55:55Z</time></trkpt><trkpt lat="43.584994482222186" lon="1.7266313520424672"><ele>248.0</ele><time>2026-04-06T08:55:56Z</time></trkpt><trkpt lat="43.58489314811511" lon="1.726873621605859"><ele>248.0</ele><time>2026-04-06T08:55:57Z</time></trkpt><trkpt lat="43.58478794948569" lon="1.7271144197095798"><ele>248.0</ele><time>2026-04-06T08:55:58Z</time></trkpt><trkpt lat="43.58468095018606" lon="1.7273660334300383"><ele>247.33333333333334</ele><time>2026-04-06T08:55:59Z</time></trkpt><trkpt lat="43.584577309282224" lon="1.7276262961658755"><ele>246.66666666666669</ele><time>2026-04-06T08:56:00Z</time></trkpt><trkpt lat="43.584468543660115" lon="1.727887952360809"><ele>246.0</ele><time>2026-04-06T08:56:01Z</time></trkpt><trkpt lat="43.58435990881026" lon="1.728147539202155"><ele>246.0</ele><time>2026-04-06T08:56:02Z</time></trkpt><trkpt lat="43.58425078108628" lon="1.7284165102521145"><ele>246.0</ele><time>2026-04-06T08:56:03Z</time></trkpt><trkpt lat="43.58413998374219" lon="1.728688079210985"><ele>246.0</ele><time>2026-04-06T08:56:04Z</time></trkpt><trkpt lat="43.58402672724953" lon="1.728960410969476"><ele>250.5</ele><time>2026-04-06T08:56:05Z</time></trkpt><trkpt lat="43.58391121757315" lon="1.7292326732459067"><ele>255.0</ele><time>2026-04-06T08:56:06Z</time></trkpt><trkpt lat="43.58379599157009" lon="1.729503015968107"><ele>254.5</ele><time>2026-04-06T08:56:07Z</time></trkpt><trkpt lat="43.58367444763601" lon="1.729770873951945"><ele>254.0</ele><time>2026-04-06T08:56:08Z</time></trkpt><trkpt lat="43.58353885732725" lon="1.7300269840988123"><ele>257.0</ele><time>2026-04-06T08:56:09Z</time></trkpt><trkpt lat="43.58338727900575" lon="1.7302638519501912"><ele>260.0</ele><time>2026-04-06T08:56:10Z</time></trkpt><trkpt lat="43.583228731690866" lon="1.7304797909571419"><ele>260.0</ele><time>2026-04-06T08:56:11Z</time></trkpt><trkpt lat="43.583062989317604" lon="1.7306855088964042"><ele>260.0</ele><time>2026-04-06T08:56:12Z</time></trkpt><trkpt lat="43.582893704263775" lon="1.7308929634534505"><ele>260.0</ele><time>2026-04-06T08:56:13Z</time></trkpt><trkpt lat="43.58272327637708" lon="1.731100227369173"><ele>257.5</ele><time>2026-04-06T08:56:14Z</time></trkpt><trkpt lat="43.582551888863605" lon="1.7313101930019674"><ele>255.0</ele><time>2026-04-06T08:56:15Z</time></trkpt><trkpt lat="43.58238259683604" lon="1.731520683084514"><ele>255.0</ele><time>2026-04-06T08:56:16Z</time></trkpt><trkpt lat="43.58221993713362" lon="1.7317294685402687"><ele>255.0</ele><time>2026-04-06T08:56:17Z</time></trkpt><trkpt lat="43.582070181884255" lon="1.7319542308010079"><ele>255.0</ele><time>2026-04-06T08:56:18Z</time></trkpt><trkpt lat="43.58194540880321" lon="1.7322015437932956"><ele>255.33333333333331</ele><time>2026-04-06T08:56:19Z</time></trkpt><trkpt lat="43.58184289858291" lon="1.7324698745031837"><ele>255.66666666666666</ele><time>2026-04-06T08:56:20Z</time></trkpt><trkpt lat="43.58176044847984" lon="1.7327527529887576"><ele>256.0</ele><time>2026-04-06T08:56:21Z</time></trkpt><trkpt lat="43.581685766590226" lon="1.7330386431758935"><ele>255.33333333333331</ele><time>2026-04-06T08:56:22Z</time></trkpt><trkpt lat="43.58160486431654" lon="1.7333235224298973"><ele>254.66666666666669</ele><time>2026-04-06T08:56:23Z</time></trkpt><trkpt lat="43.581521062150095" lon="1.7336066734398772"><ele>254.0</ele><time>2026-04-06T08:56:24Z</time></trkpt><trkpt lat="43.581440376626276" lon="1.7338883355559103"><ele>253.66666666666669</ele><time>2026-04-06T08:56:25Z</time></trkpt><trkpt lat="43.581360680188126" lon="1.7341716077720155"><ele>253.33333333333331</ele><time>2026-04-06T08:56:26Z</time></trkpt><trkpt lat="43.581276148413394" lon="1.7344554774410024"><ele>253.0</ele><time>2026-04-06T08:56:27Z</time></trkpt><trkpt lat="43.58119163126972" lon="1.7347423991779634"><ele>253.0</ele><time>2026-04-06T08:56:28Z</time></trkpt><trkpt lat="43.581111098223815" lon="1.735026262820335"><ele>253.0</ele><time>2026-04-06T08:56:29Z</time></trkpt><trkpt lat="43.581033231677615" lon="1.7353098611658924"><ele>253.0</ele><time>2026-04-06T08:56:30Z</time></trkpt><trkpt lat="43.580967800347786" lon="1.735587908628635"><ele>254.33333333333331</ele><time>2026-04-06T08:56:31Z</time></trkpt><trkpt lat="43.58090989257416" lon="1.735878110894184"><ele>255.66666666666669</ele><time>2026-04-06T08:56:32Z</time></trkpt><trkpt lat="43.58086248494584" lon="1.7361728325205905"><ele>257.0</ele><time>2026-04-06T08:56:33Z</time></trkpt><trkpt lat="43.58082256846039" lon="1.7364560215268492"><ele>258.33333333333337</ele><time>2026-04-06T08:56:34Z</time></trkpt><trkpt lat="43.58077390789542" lon="1.7367347820107006"><ele>259.6666666666667</ele><time>2026-04-06T08:56:35Z</time></trkpt><trkpt lat="43.58072223051382" lon="1.7370214903042478"><ele>261.0</ele><time>2026-04-06T08:56:36Z</time></trkpt><trkpt lat="43.5806724950653" lon="1.7373069444710472"><ele>261.3333333333333</ele><time>2026-04-06T08:56:37Z</time></trkpt><trkpt lat="43.58062136575244" lon="1.737594389438174"><ele>261.66666666666663</ele><time>2026-04-06T08:56:38Z</time></trkpt><trkpt lat="43.580569667899496" lon="1.7378813427002453"><ele>262.0</ele><time>2026-04-06T08:56:39Z</time></trkpt><trkpt lat="43.5805187205747" lon="1.7381684421136179"><ele>262.0</ele><time>2026-04-06T08:56:40Z</time></trkpt><trkpt lat="43.58046845239146" lon="1.738456538858716"><ele>262.0</ele><time>2026-04-06T08:56:41Z</time></trkpt><trkpt lat="43.58043058347271" lon="1.7387472955568284"><ele>262.0</ele><time>2026-04-06T08:56:42Z</time></trkpt><trkpt lat="43.580402750121124" lon="1.7390454200003889"><ele>261.3333333333333</ele><time>2026-04-06T08:56:43Z</time></trkpt><trkpt lat="43.58039120681312" lon="1.7393420741291508"><ele>260.6666666666667</ele><time>2026-04-06T08:56:44Z</time></trkpt><trkpt lat="43.58039435170843" lon="1.7396395098529247"><ele>260.0</ele><time>2026-04-06T08:56:45Z</time></trkpt><trkpt lat="43.580403183847935" lon="1.739942846520631"><ele>256.6666666666667</ele><time>2026-04-06T08:56:46Z</time></trkpt><trkpt lat="43.580411756650804" lon="1.740247562135038"><ele>253.33333333333331</ele><time>2026-04-06T08:56:47Z</time></trkpt><trkpt lat="43.580425098320966" lon="1.7405527517907293"><ele>250.0</ele><time>2026-04-06T08:56:48Z</time></trkpt><trkpt lat="43.58044708819513" lon="1.740862942659832"><ele>249.0</ele><time>2026-04-06T08:56:49Z</time></trkpt><trkpt lat="43.58048306208721" lon="1.7411731639514325"><ele>248.0</ele><time>2026-04-06T08:56:50Z</time></trkpt><trkpt lat="43.58052976675749" lon="1.7414844965522593"><ele>248.0</ele><time>2026-04-06T08:56:51Z</time></trkpt><trkpt lat="43.580584247231606" lon="1.741791849046572"><ele>248.0</ele><time>2026-04-06T08:56:52Z</time></trkpt><trkpt lat="43.58064399781565" lon="1.742102767984153"><ele>246.5</ele><time>2026-04-06T08:56:53Z</time></trkpt><trkpt lat="43.580703929151014" lon="1.7424142545483023"><ele>245.0</ele><time>2026-04-06T08:56:54Z</time></trkpt><trkpt lat="43.580762558971244" lon="1.7427229129305042"><ele>244.5</ele><time>2026-04-06T08:56:55Z</time></trkpt><trkpt lat="43.5808216466163" lon="1.7430321068641037"><ele>244.0</ele><time>2026-04-06T08:56:56Z</time></trkpt><trkpt lat="43.580882840953954" lon="1.7433372677143593"><ele>244.66666666666666</ele><time>2026-04-06T08:56:57Z</time></trkpt><trkpt lat="43.58094333612458" lon="1.7436409795728633"><ele>245.33333333333331</ele><time>2026-04-06T08:56:58Z</time></trkpt><trkpt lat="43.58100007700415" lon="1.743935130081558"><ele>246.0</ele><time>2026-04-06T08:56:59Z</time></trkpt><trkpt lat="43.58105447115968" lon="1.7442293095132206"><ele>246.0</ele><time>2026-04-06T08:57:00Z</time></trkpt><trkpt lat="43.581108182178994" lon="1.7445271135818197"><ele>246.0</ele><time>2026-04-06T08:57:01Z</time></trkpt><trkpt lat="43.58116981059297" lon="1.7448259731136078"><ele>246.0</ele><time>2026-04-06T08:57:02Z</time></trkpt><trkpt lat="43.58122861544083" lon="1.7451291660190746"><ele>246.0</ele><time>2026-04-06T08:57:03Z</time></trkpt><trkpt lat="43.581290115929285" lon="1.7454310319929265"><ele>246.0</ele><time>2026-04-06T08:57:04Z</time></trkpt><trkpt lat="43.581346812835086" lon="1.745733677070379"><ele>246.0</ele><time>2026-04-06T08:57:05Z</time></trkpt><trkpt lat="43.58140641121766" lon="1.7460427726105439"><ele>246.0</ele><time>2026-04-06T08:57:06Z</time></trkpt><trkpt lat="43.581459142961165" lon="1.7463542770385403"><ele>245.5</ele><time>2026-04-06T08:57:07Z</time></trkpt><trkpt lat="43.581505523379654" lon="1.7466701037732393"><ele>245.0</ele><time>2026-04-06T08:57:08Z</time></trkpt><trkpt lat="43.5815493448029" lon="1.7469909286686938"><ele>243.0</ele><time>2026-04-06T08:57:09Z</time></trkpt><trkpt lat="43.58159102878538" lon="1.747313617204533"><ele>241.0</ele><time>2026-04-06T08:57:10Z</time></trkpt><trkpt lat="43.58162233960232" lon="1.7476366524524887"><ele>240.0</ele><time>2026-04-06T08:57:11Z</time></trkpt><trkpt lat="43.58164639245004" lon="1.747968944907403"><ele>239.0</ele><time>2026-04-06T08:57:11.999Z</time></trkpt><trkpt lat="43.581661277666576" lon="1.7483104550316058"><ele>237.0</ele><time>2026-04-06T08:57:12.999Z</time></trkpt><trkpt lat="43.58167063608219" lon="1.748624612331946"><ele>235.0</ele><time>2026-04-06T08:57:13.999Z</time></trkpt><trkpt lat="43.581667631026434" lon="1.7489619963034262"><ele>235.0</ele><time>2026-04-06T08:57:14.999Z</time></trkpt><trkpt lat="43.5816652782047" lon="1.7492995515800203"><ele>235.0</ele><time>2026-04-06T08:57:15.999Z</time></trkpt><trkpt lat="43.581656032180994" lon="1.7496368974284033"><ele>233.5</ele><time>2026-04-06T08:57:16.999Z</time></trkpt><trkpt lat="43.581648391375005" lon="1.749975701493834"><ele>232.0</ele><time>2026-04-06T08:57:17.999Z</time></trkpt><trkpt lat="43.58163935469577" lon="1.7503082005775803"><ele>231.5</ele><time>2026-04-06T08:57:18.999Z</time></trkpt><trkpt lat="43.58163041362657" lon="1.7506411033403881"><ele>231.0</ele><time>2026-04-06T08:57:19.999Z</time></trkpt><trkpt lat="43.58162664260892" lon="1.750971316744575"><ele>229.0</ele><time>2026-04-06T08:57:20.999Z</time></trkpt><trkpt lat="43.581624383025904" lon="1.7513020328983793"><ele>227.0</ele><time>2026-04-06T08:57:21.999Z</time></trkpt><trkpt lat="43.58162262147787" lon="1.7516299201709802"><ele>226.0</ele><time>2026-04-06T08:57:23Z</time></trkpt><trkpt lat="43.581618440662" lon="1.7519566963773472"><ele>225.0</ele><time>2026-04-06T08:57:24Z</time></trkpt><trkpt lat="43.58161200155605" lon="1.7522819890981014"><ele>225.0</ele><time>2026-04-06T08:57:25Z</time></trkpt><trkpt lat="43.58160572714681" lon="1.7526084631885135"><ele>225.0</ele><time>2026-04-06T08:57:26Z</time></trkpt><trkpt lat="43.58160128363638" lon="1.7529324200223966"><ele>223.5</ele><time>2026-04-06T08:57:27Z</time></trkpt><trkpt lat="43.58159766725591" lon="1.7532580662432098"><ele>222.0</ele><time>2026-04-06T08:57:28Z</time></trkpt><trkpt lat="43.58158968941397" lon="1.7535814453734913"><ele>220.0</ele><time>2026-04-06T08:57:29Z</time></trkpt><trkpt lat="43.581584182145804" lon="1.753909139452706"><ele>218.0</ele><time>2026-04-06T08:57:30Z</time></trkpt><trkpt lat="43.581575923054054" lon="1.7542371241338564"><ele>215.0</ele><time>2026-04-06T08:57:31Z</time></trkpt><trkpt lat="43.581571914766975" lon="1.7545632296038425"><ele>212.0</ele><time>2026-04-06T08:57:32Z</time></trkpt><trkpt lat="43.581566309475406" lon="1.7548925294063873"><ele>209.5</ele><time>2026-04-06T08:57:33Z</time></trkpt><trkpt lat="43.5815625626343" lon="1.7552234135819997"><ele>207.0</ele><time>2026-04-06T08:57:34Z</time></trkpt><trkpt lat="43.58155822190455" lon="1.7555529166198856"><ele>207.0</ele><time>2026-04-06T08:57:35Z</time></trkpt><trkpt lat="43.58155558792105" lon="1.7558774820324539"><ele>207.0</ele><time>2026-04-06T08:57:36Z</time></trkpt><trkpt lat="43.58154918403958" lon="1.7562068285715666"><ele>205.0</ele><time>2026-04-06T08:57:37Z</time></trkpt><trkpt lat="43.581544252888044" lon="1.7565396140989666"><ele>203.0</ele><time>2026-04-06T08:57:38Z</time></trkpt><trkpt lat="43.581533509273434" lon="1.756866751174294"><ele>201.0</ele><time>2026-04-06T08:57:39Z</time></trkpt><trkpt lat="43.58152447356568" lon="1.7571953926714712"><ele>199.0</ele><time>2026-04-06T08:57:40Z</time></trkpt><trkpt lat="43.58151929573155" lon="1.7575237625938933"><ele>197.0</ele><time>2026-04-06T08:57:41Z</time></trkpt><trkpt lat="43.581515096467015" lon="1.7578527610047552"><ele>195.0</ele><time>2026-04-06T08:57:42Z</time></trkpt><trkpt lat="43.581508507389316" lon="1.758183937882298"><ele>195.0</ele><time>2026-04-06T08:57:43Z</time></trkpt><trkpt lat="43.5815035164641" lon="1.7585164572216503"><ele>195.0</ele><time>2026-04-06T08:57:44Z</time></trkpt><trkpt lat="43.58149838351467" lon="1.7588444236918606"><ele>193.0</ele><time>2026-04-06T08:57:45Z</time></trkpt><trkpt lat="43.58149593076397" lon="1.7591768241711645"><ele>191.0</ele><time>2026-04-06T08:57:46Z</time></trkpt><trkpt lat="43.581492409989124" lon="1.759510663343206"><ele>189.5</ele><time>2026-04-06T08:57:47Z</time></trkpt><trkpt lat="43.58148936020442" lon="1.7598446071172107"><ele>188.0</ele><time>2026-04-06T08:57:48Z</time></trkpt><trkpt lat="43.58148560393103" lon="1.7601801005624993"><ele>187.0</ele><time>2026-04-06T08:57:49Z</time></trkpt><trkpt lat="43.581479771786476" lon="1.7605133989237067"><ele>186.0</ele><time>2026-04-06T08:57:50Z</time></trkpt><trkpt lat="43.58147282078761" lon="1.7608431841911862"><ele>185.0</ele><time>2026-04-06T08:57:51Z</time></trkpt><trkpt lat="43.581463786093316" lon="1.7611698637671507"><ele>184.0</ele><time>2026-04-06T08:57:52Z</time></trkpt><trkpt lat="43.58145621473366" lon="1.7615015818929838"><ele>184.0</ele><time>2026-04-06T08:57:53Z</time></trkpt><trkpt lat="43.58145162829284" lon="1.7618309063995548"><ele>184.0</ele><time>2026-04-06T08:57:54Z</time></trkpt><trkpt lat="43.581449461278844" lon="1.762157364934178"><ele>183.0</ele><time>2026-04-06T08:57:55Z</time></trkpt><trkpt lat="43.58144549907649" lon="1.762483564716324"><ele>182.0</ele><time>2026-04-06T08:57:56Z</time></trkpt><trkpt lat="43.58143986894478" lon="1.76280297005989"><ele>181.66666666666666</ele><time>2026-04-06T08:57:57Z</time></trkpt><trkpt lat="43.581431691390584" lon="1.7631158353889334"><ele>181.33333333333334</ele><time>2026-04-06T08:57:58Z</time></trkpt><trkpt lat="43.581427762629296" lon="1.7634205647165277"><ele>181.0</ele><time>2026-04-06T08:57:59Z</time></trkpt><trkpt lat="43.58142186809593" lon="1.7637179380716803"><ele>181.0</ele><time>2026-04-06T08:58:00Z</time></trkpt><trkpt lat="43.58141549315635" lon="1.7640072597998921"><ele>181.0</ele><time>2026-04-06T08:58:01Z</time></trkpt><trkpt lat="43.58141176188445" lon="1.7642913358475287"><ele>181.0</ele><time>2026-04-06T08:58:02Z</time></trkpt><trkpt lat="43.58140836196195" lon="1.7645739303452013"><ele>180.66666666666669</ele><time>2026-04-06T08:58:03Z</time></trkpt><trkpt lat="43.58140378254981" lon="1.7648633897933785"><ele>180.33333333333334</ele><time>2026-04-06T08:58:04Z</time></trkpt><trkpt lat="43.581397934032516" lon="1.7651516394078584"><ele>180.0</ele><time>2026-04-06T08:58:05Z</time></trkpt><trkpt lat="43.58139186249938" lon="1.7654399441902906"><ele>179.0</ele><time>2026-04-06T08:58:06Z</time></trkpt><trkpt lat="43.581387523201215" lon="1.7657321769659162"><ele>178.0</ele><time>2026-04-06T08:58:07Z</time></trkpt><trkpt lat="43.58137902094174" lon="1.7660261565638837"><ele>177.0</ele><time>2026-04-06T08:58:08Z</time></trkpt><trkpt lat="43.5813712985954" lon="1.7663170151952563"><ele>176.66666666666666</ele><time>2026-04-06T08:58:09Z</time></trkpt><trkpt lat="43.581368055591234" lon="1.7666093002716818"><ele>176.33333333333331</ele><time>2026-04-06T08:58:10Z</time></trkpt><trkpt lat="43.58137030029892" lon="1.7669046600515566"><ele>176.0</ele><time>2026-04-06T08:58:11Z</time></trkpt><trkpt lat="43.58137167045929" lon="1.767201066253562"><ele>175.0</ele><time>2026-04-06T08:58:12Z</time></trkpt><trkpt lat="43.58136829435311" lon="1.767501683224632"><ele>174.0</ele><time>2026-04-06T08:58:13Z</time></trkpt><trkpt lat="43.58136316087225" lon="1.767802332168756"><ele>173.0</ele><time>2026-04-06T08:58:14Z</time></trkpt><trkpt lat="43.58135687527505" lon="1.7681049933791755"><ele>172.66666666666666</ele><time>2026-04-06T08:58:15Z</time></trkpt><trkpt lat="43.581354478087604" lon="1.7684094172793496"><ele>172.33333333333334</ele><time>2026-04-06T08:58:16Z</time></trkpt><trkpt lat="43.581353815007496" lon="1.7687138108197233"><ele>172.0</ele><time>2026-04-06T08:58:17Z</time></trkpt><trkpt lat="43.58135139328004" lon="1.7690138552975654"><ele>171.66666666666669</ele><time>2026-04-06T08:58:18Z</time></trkpt><trkpt lat="43.58135607545189" lon="1.7693144442122601"><ele>171.33333333333334</ele><time>2026-04-06T08:58:19Z</time></trkpt><trkpt lat="43.58135615228115" lon="1.769614187457121"><ele>171.0</ele><time>2026-04-06T08:58:20Z</time></trkpt><trkpt lat="43.58135861746689" lon="1.7699138171780922"><ele>171.66666666666666</ele><time>2026-04-06T08:58:21Z</time></trkpt><trkpt lat="43.58135938715413" lon="1.7702113191049886"><ele>172.33333333333331</ele><time>2026-04-06T08:58:22Z</time></trkpt><trkpt lat="43.58135835090731" lon="1.7705069890742613"><ele>173.0</ele><time>2026-04-06T08:58:23Z</time></trkpt><trkpt lat="43.5813452084324" lon="1.770803544146522"><ele>173.0</ele><time>2026-04-06T08:58:24Z</time></trkpt><trkpt lat="43.58133922045771" lon="1.7710953708186707"><ele>173.0</ele><time>2026-04-06T08:58:25Z</time></trkpt><trkpt lat="43.58133339220077" lon="1.7713771125737898"><ele>173.0</ele><time>2026-04-06T08:58:26Z</time></trkpt><trkpt lat="43.58132536293053" lon="1.7716628720332281"><ele>173.0</ele><time>2026-04-06T08:58:27Z</time></trkpt><trkpt lat="43.5813193875091" lon="1.7719519500043004"><ele>173.0</ele><time>2026-04-06T08:58:28Z</time></trkpt><trkpt lat="43.58131123725881" lon="1.7722328268031946"><ele>173.0</ele><time>2026-04-06T08:58:29Z</time></trkpt><trkpt lat="43.58130227710147" lon="1.7725104147956203"><ele>173.33333333333331</ele><time>2026-04-06T08:58:30Z</time></trkpt><trkpt lat="43.58130056747534" lon="1.7727974212548407"><ele>173.66666666666666</ele><time>2026-04-06T08:58:31Z</time></trkpt><trkpt lat="43.58129623106303" lon="1.7730771390141344"><ele>174.0</ele><time>2026-04-06T08:58:32Z</time></trkpt><trkpt lat="43.58128922126618" lon="1.7733524865490653"><ele>175.0</ele><time>2026-04-06T08:58:33Z</time></trkpt><trkpt lat="43.581286734037015" lon="1.7736272583433965"><ele>176.0</ele><time>2026-04-06T08:58:34Z</time></trkpt><trkpt lat="43.58128367357731" lon="1.7739010761921374"><ele>177.0</ele><time>2026-04-06T08:58:35Z</time></trkpt><trkpt lat="43.581282633465655" lon="1.7741771720589454"><ele>178.0</ele><time>2026-04-06T08:58:36Z</time></trkpt><trkpt lat="43.581279316424634" lon="1.7744550963912633"><ele>179.0</ele><time>2026-04-06T08:58:37Z</time></trkpt><trkpt lat="43.58127516139737" lon="1.7747343924843613"><ele>180.0</ele><time>2026-04-06T08:58:38Z</time></trkpt><trkpt lat="43.581270030095304" lon="1.7750175297445834"><ele>181.0</ele><time>2026-04-06T08:58:39Z</time></trkpt><trkpt lat="43.58126667240912" lon="1.7752955250080864"><ele>182.0</ele><time>2026-04-06T08:58:40Z</time></trkpt><trkpt lat="43.581263357913585" lon="1.775558355443232"><ele>183.0</ele><time>2026-04-06T08:58:41Z</time></trkpt><trkpt lat="43.58126121795794" lon="1.7757876184088268"><ele>183.0</ele><time>2026-04-06T08:58:42Z</time></trkpt><trkpt lat="43.58125808346491" lon="1.7759778849944783"><ele>183.0</ele><time>2026-04-06T08:58:43Z</time></trkpt><trkpt lat="43.581256343783856" lon="1.7761295661817773"><ele>183.0</ele><time>2026-04-06T08:58:44Z</time></trkpt><trkpt lat="43.581253552948816" lon="1.7762625076070888"><ele>183.0</ele><time>2026-04-06T08:58:45Z</time></trkpt><trkpt lat="43.58124891621567" lon="1.7763844230928438"><ele>183.0</ele><time>2026-04-06T08:58:46Z</time></trkpt><trkpt lat="43.58124784034308" lon="1.77651341085227"><ele>183.2</ele><time>2026-04-06T08:58:47Z</time></trkpt><trkpt lat="43.58124578442222" lon="1.7766479959988406"><ele>183.4</ele><time>2026-04-06T08:58:48Z</time></trkpt><trkpt lat="43.581242544759654" lon="1.7767886079057438"><ele>183.6</ele><time>2026-04-06T08:58:49Z</time></trkpt><trkpt lat="43.581238587609654" lon="1.7769418391277965"><ele>183.79999999999998</ele><time>2026-04-06T08:58:50Z</time></trkpt><trkpt lat="43.58123626736704" lon="1.7771101558591937"><ele>184.0</ele><time>2026-04-06T08:58:51Z</time></trkpt><trkpt lat="43.58123645932519" lon="1.7772744487908398"><ele>184.0</ele><time>2026-04-06T08:58:51.999Z</time></trkpt><trkpt lat="43.58123587714785" lon="1.7774740638511812"><ele>184.0</ele><time>2026-04-06T08:58:52.999Z</time></trkpt><trkpt lat="43.581236558106674" lon="1.777681852351367"><ele>184.0</ele><time>2026-04-06T08:58:53.999Z</time></trkpt><trkpt lat="43.58123267840782" lon="1.7779011409891794"><ele>184.33333333333334</ele><time>2026-04-06T08:58:54.999Z</time></trkpt><trkpt lat="43.58123010365895" lon="1.778125300523082"><ele>184.66666666666666</ele><time>2026-04-06T08:58:55.999Z</time></trkpt><trkpt lat="43.5812250534223" lon="1.7783613637649396"><ele>185.0</ele><time>2026-04-06T08:58:56.999Z</time></trkpt><trkpt lat="43.58121692070526" lon="1.778602414134252"><ele>185.0</ele><time>2026-04-06T08:58:57.999Z</time></trkpt><trkpt lat="43.581210591420614" lon="1.7788406158394758"><ele>185.0</ele><time>2026-04-06T08:58:58.999Z</time></trkpt><trkpt lat="43.581210906663934" lon="1.779082825949045"><ele>185.0</ele><time>2026-04-06T08:58:59.999Z</time></trkpt><trkpt lat="43.58121145871021" lon="1.7793350078426167"><ele>184.33333333333331</ele><time>2026-04-06T08:59:00.999Z</time></trkpt><trkpt lat="43.58120862092845" lon="1.779592827182667"><ele>183.66666666666666</ele><time>2026-04-06T08:59:01.999Z</time></trkpt><trkpt lat="43.58120284002211" lon="1.7798543408217553"><ele>183.0</ele><time>2026-04-06T08:59:02.999Z</time></trkpt><trkpt lat="43.58119610222012" lon="1.7801268606368315"><ele>183.33333333333334</ele><time>2026-04-06T08:59:03.999Z</time></trkpt><trkpt lat="43.58118986689778" lon="1.7804049648558753"><ele>183.66666666666669</ele><time>2026-04-06T08:59:04.999Z</time></trkpt><trkpt lat="43.58118443778696" lon="1.7806563627246204"><ele>184.0</ele><time>2026-04-06T08:59:05.999Z</time></trkpt><trkpt lat="43.581179202256294" lon="1.780903101741034"><ele>184.33333333333334</ele><time>2026-04-06T08:59:06.999Z</time></trkpt><trkpt lat="43.581173178282306" lon="1.7811636214554882"><ele>184.66666666666666</ele><time>2026-04-06T08:59:07.999Z</time></trkpt><trkpt lat="43.58116606258476" lon="1.7814247751397574"><ele>185.0</ele><time>2026-04-06T08:59:08.999Z</time></trkpt><trkpt lat="43.581162781791214" lon="1.7816856092558868"><ele>185.0</ele><time>2026-04-06T08:59:09.999Z</time></trkpt><trkpt lat="43.58116087510467" lon="1.7819475248321173"><ele>185.0</ele><time>2026-04-06T08:59:10.999Z</time></trkpt><trkpt lat="43.58115888441198" lon="1.7822148094440367"><ele>185.0</ele><time>2026-04-06T08:59:11.999Z</time></trkpt><trkpt lat="43.58115547773325" lon="1.782483055058979"><ele>185.0</ele><time>2026-04-06T08:59:12.999Z</time></trkpt><trkpt lat="43.58115121772944" lon="1.7827498425469022"><ele>185.0</ele><time>2026-04-06T08:59:13.999Z</time></trkpt><trkpt lat="43.58114480787981" lon="1.783022409071461"><ele>185.0</ele><time>2026-04-06T08:59:14.999Z</time></trkpt><trkpt lat="43.58113914312052" lon="1.7832978357857185"><ele>184.66666666666666</ele><time>2026-04-06T08:59:15.999Z</time></trkpt><trkpt lat="43.58113467948298" lon="1.7835774173121144"><ele>184.33333333333334</ele><time>2026-04-06T08:59:16.999Z</time></trkpt><trkpt lat="43.58113251788321" lon="1.783859886949584"><ele>184.0</ele><time>2026-04-06T08:59:17.999Z</time></trkpt><trkpt lat="43.58112937325435" lon="1.784146502723573"><ele>184.33333333333334</ele><time>2026-04-06T08:59:18.999Z</time></trkpt><trkpt lat="43.58112295730327" lon="1.7844319911364894"><ele>184.66666666666666</ele><time>2026-04-06T08:59:19.999Z</time></trkpt><trkpt lat="43.58111845228869" lon="1.7847177562974041"><ele>185.0</ele><time>2026-04-06T08:59:20.999Z</time></trkpt><trkpt lat="43.58111410755549" lon="1.7850058085119331"><ele>185.66666666666666</ele><time>2026-04-06T08:59:21.999Z</time></trkpt><trkpt lat="43.58111233355235" lon="1.7852894148053895"><ele>186.33333333333334</ele><time>2026-04-06T08:59:22.999Z</time></trkpt><trkpt lat="43.58110907566941" lon="1.785569809199277"><ele>187.0</ele><time>2026-04-06T08:59:23.999Z</time></trkpt><trkpt lat="43.58110518304398" lon="1.7858473035923819"><ele>186.33333333333334</ele><time>2026-04-06T08:59:24.999Z</time></trkpt><trkpt lat="43.58110174984055" lon="1.786128468369124"><ele>185.66666666666666</ele><time>2026-04-06T08:59:25.999Z</time></trkpt><trkpt lat="43.5810965417289" lon="1.78640565900835"><ele>185.0</ele><time>2026-04-06T08:59:26.999Z</time></trkpt><trkpt lat="43.581091839119175" lon="1.786684304176848"><ele>184.0</ele><time>2026-04-06T08:59:27.999Z</time></trkpt><trkpt lat="43.58108827608281" lon="1.786962030472653"><ele>183.0</ele><time>2026-04-06T08:59:29Z</time></trkpt><trkpt lat="43.581088976310376" lon="1.7872419857046593"><ele>182.0</ele><time>2026-04-06T08:59:30Z</time></trkpt><trkpt lat="43.5810884848326" lon="1.787520584568229"><ele>181.66666666666666</ele><time>2026-04-06T08:59:31Z</time></trkpt><trkpt lat="43.58108500351059" lon="1.7877811535933283"><ele>181.33333333333334</ele><time>2026-04-06T08:59:32Z</time></trkpt><trkpt lat="43.58108448583324" lon="1.7880608518718195"><ele>181.0</ele><time>2026-04-06T08:59:33Z</time></trkpt><trkpt lat="43.58107982349068" lon="1.7883414667107127"><ele>180.66666666666669</ele><time>2026-04-06T08:59:34Z</time></trkpt><trkpt lat="43.58106832303258" lon="1.7886301833034803"><ele>180.33333333333334</ele><time>2026-04-06T08:59:35Z</time></trkpt><trkpt lat="43.581061471297105" lon="1.7889169413412502"><ele>180.0</ele><time>2026-04-06T08:59:36Z</time></trkpt><trkpt lat="43.581052952766306" lon="1.7891960488886423"><ele>178.66666666666666</ele><time>2026-04-06T08:59:37Z</time></trkpt><trkpt lat="43.58104558868434" lon="1.7894780097555851"><ele>177.33333333333331</ele><time>2026-04-06T08:59:38Z</time></trkpt><trkpt lat="43.58104258535562" lon="1.7897581067208643"><ele>176.0</ele><time>2026-04-06T08:59:39Z</time></trkpt><trkpt lat="43.581043633254964" lon="1.790033358219242"><ele>175.33333333333331</ele><time>2026-04-06T08:59:40Z</time></trkpt><trkpt lat="43.58104260518632" lon="1.790311101910413"><ele>174.66666666666666</ele><time>2026-04-06T08:59:41Z</time></trkpt><trkpt lat="43.58104216155299" lon="1.7905947766354064"><ele>174.0</ele><time>2026-04-06T08:59:42Z</time></trkpt><trkpt lat="43.58103635141024" lon="1.7908862212780599"><ele>174.66666666666666</ele><time>2026-04-06T08:59:43Z</time></trkpt><trkpt lat="43.5810269175857" lon="1.7911753781735709"><ele>175.33333333333331</ele><time>2026-04-06T08:59:44Z</time></trkpt><trkpt lat="43.5810171209867" lon="1.7914648342712443"><ele>176.0</ele><time>2026-04-06T08:59:45Z</time></trkpt><trkpt lat="43.58101531087534" lon="1.7917404703729356"><ele>176.0</ele><time>2026-04-06T08:59:46Z</time></trkpt><trkpt lat="43.581016878151516" lon="1.7920122100835687"><ele>176.0</ele><time>2026-04-06T08:59:47Z</time></trkpt><trkpt lat="43.58101130133735" lon="1.792293202246101"><ele>176.0</ele><time>2026-04-06T08:59:48Z</time></trkpt><trkpt lat="43.581002915270155" lon="1.792593525335723"><ele>176.33333333333331</ele><time>2026-04-06T08:59:49Z</time></trkpt><trkpt lat="43.58100021717578" lon="1.7928901671698714"><ele>176.66666666666666</ele><time>2026-04-06T08:59:50Z</time></trkpt><trkpt lat="43.58099972786338" lon="1.7931739577099803"><ele>177.0</ele><time>2026-04-06T08:59:51Z</time></trkpt><trkpt lat="43.5809971325802" lon="1.7934576823997352"><ele>176.66666666666666</ele><time>2026-04-06T08:59:52Z</time></trkpt><trkpt lat="43.58098924653065" lon="1.7937439071104135"><ele>176.33333333333331</ele><time>2026-04-06T08:59:53Z</time></trkpt><trkpt lat="43.58098324813235" lon="1.7940207379633168"><ele>176.0</ele><time>2026-04-06T08:59:54Z</time></trkpt><trkpt lat="43.58097857412997" lon="1.7943036086308295"><ele>176.0</ele><time>2026-04-06T08:59:55Z</time></trkpt><trkpt lat="43.58097365285906" lon="1.7945884868218343"><ele>176.0</ele><time>2026-04-06T08:59:56Z</time></trkpt><trkpt lat="43.580968776422495" lon="1.7948688164497282"><ele>176.0</ele><time>2026-04-06T08:59:57Z</time></trkpt><trkpt lat="43.58096530928122" lon="1.7951510840865301"><ele>176.0</ele><time>2026-04-06T08:59:58Z</time></trkpt><trkpt lat="43.58096105836593" lon="1.7954313750866815"><ele>176.0</ele><time>2026-04-06T08:59:59Z</time></trkpt><trkpt lat="43.58096245818704" lon="1.7957125646616265"><ele>176.0</ele><time>2026-04-06T09:00:00Z</time></trkpt><trkpt lat="43.58095696274291" lon="1.7959924402532843"><ele>175.33333333333331</ele><time>2026-04-06T09:00:01Z</time></trkpt><trkpt lat="43.58095011396887" lon="1.796276279609031"><ele>174.66666666666666</ele><time>2026-04-06T09:00:02Z</time></trkpt><trkpt lat="43.58094487059579" lon="1.796561718839937"><ele>174.0</ele><time>2026-04-06T09:00:03Z</time></trkpt><trkpt lat="43.58094143327888" lon="1.7968499950529213"><ele>174.0</ele><time>2026-04-06T09:00:04Z</time></trkpt><trkpt lat="43.5809394985202" lon="1.7971371011551736"><ele>174.0</ele><time>2026-04-06T09:00:05Z</time></trkpt><trkpt lat="43.580937395688885" lon="1.7974125196455626"><ele>174.0</ele><time>2026-04-06T09:00:06Z</time></trkpt><trkpt lat="43.58093808526482" lon="1.7976851095164885"><ele>174.0</ele><time>2026-04-06T09:00:07Z</time></trkpt><trkpt lat="43.58093428278425" lon="1.797965897686854"><ele>174.0</ele><time>2026-04-06T09:00:08Z</time></trkpt><trkpt lat="43.58093590382646" lon="1.7982499002368961"><ele>174.0</ele><time>2026-04-06T09:00:09Z</time></trkpt><trkpt lat="43.58093242010785" lon="1.7985290553020277"><ele>173.66666666666666</ele><time>2026-04-06T09:00:10Z</time></trkpt><trkpt lat="43.58091661004568" lon="1.798810557920781"><ele>173.33333333333331</ele><time>2026-04-06T09:00:11Z</time></trkpt><trkpt lat="43.58090674816005" lon="1.799089945872051"><ele>173.0</ele><time>2026-04-06T09:00:12Z</time></trkpt><trkpt lat="43.58090674261639" lon="1.7993601936466899"><ele>173.0</ele><time>2026-04-06T09:00:13Z</time></trkpt><trkpt lat="43.58090159548002" lon="1.799634925189362"><ele>173.0</ele><time>2026-04-06T09:00:14Z</time></trkpt><trkpt lat="43.58089363659376" lon="1.799915420156455"><ele>173.0</ele><time>2026-04-06T09:00:15Z</time></trkpt><trkpt lat="43.58088595556533" lon="1.80019240036313"><ele>173.33333333333331</ele><time>2026-04-06T09:00:16Z</time></trkpt><trkpt lat="43.58088298276159" lon="1.8004703128718584"><ele>173.66666666666666</ele><time>2026-04-06T09:00:17Z</time></trkpt><trkpt lat="43.580881431068654" lon="1.8007429372823391"><ele>174.0</ele><time>2026-04-06T09:00:18Z</time></trkpt><trkpt lat="43.58087782264881" lon="1.8010169591174598"><ele>174.0</ele><time>2026-04-06T09:00:19Z</time></trkpt><trkpt lat="43.580874545684125" lon="1.8012869856032363"><ele>174.0</ele><time>2026-04-06T09:00:20Z</time></trkpt><trkpt lat="43.58087141006768" lon="1.8015565755186072"><ele>174.0</ele><time>2026-04-06T09:00:21Z</time></trkpt><trkpt lat="43.58086683792514" lon="1.801828200711531"><ele>174.0</ele><time>2026-04-06T09:00:22Z</time></trkpt><trkpt lat="43.58086938500871" lon="1.802100821478265"><ele>174.0</ele><time>2026-04-06T09:00:23Z</time></trkpt><trkpt lat="43.58087906663083" lon="1.802381195893639"><ele>174.0</ele><time>2026-04-06T09:00:24Z</time></trkpt><trkpt lat="43.580897086243965" lon="1.8026541409413066"><ele>175.0</ele><time>2026-04-06T09:00:25Z</time></trkpt><trkpt lat="43.58092145527152" lon="1.802923259178821"><ele>176.0</ele><time>2026-04-06T09:00:26Z</time></trkpt><trkpt lat="43.5809549723497" lon="1.8031850107326945"><ele>177.0</ele><time>2026-04-06T09:00:27Z</time></trkpt><trkpt lat="43.58099253029706" lon="1.803454514353567"><ele>178.33333333333334</ele><time>2026-04-06T09:00:28Z</time></trkpt><trkpt lat="43.58103790795072" lon="1.803709740435637"><ele>179.66666666666669</ele><time>2026-04-06T09:00:29Z</time></trkpt><trkpt lat="43.581088609889676" lon="1.8039641484535427"><ele>181.0</ele><time>2026-04-06T09:00:30Z</time></trkpt><trkpt lat="43.58114099490194" lon="1.8042162636908705"><ele>179.0</ele><time>2026-04-06T09:00:31Z</time></trkpt><trkpt lat="43.581194823157986" lon="1.804470953931727"><ele>177.0</ele><time>2026-04-06T09:00:32Z</time></trkpt><trkpt lat="43.581255047440855" lon="1.8047154507979686"><ele>175.0</ele><time>2026-04-06T09:00:33Z</time></trkpt><trkpt lat="43.58131969122131" lon="1.8049659883444509"><ele>175.66666666666669</ele><time>2026-04-06T09:00:34Z</time></trkpt><trkpt lat="43.581390357028226" lon="1.8052027281543928"><ele>176.33333333333334</ele><time>2026-04-06T09:00:35Z</time></trkpt><trkpt lat="43.58146232107864" lon="1.805435867694398"><ele>177.0</ele><time>2026-04-06T09:00:36Z</time></trkpt><trkpt lat="43.58153532742432" lon="1.8056596873157025"><ele>177.0</ele><time>2026-04-06T09:00:37Z</time></trkpt><trkpt lat="43.581606970916226" lon="1.8058827088271558"><ele>177.0</ele><time>2026-04-06T09:00:38Z</time></trkpt><trkpt lat="43.58168063584543" lon="1.806093753591314"><ele>177.0</ele><time>2026-04-06T09:00:39Z</time></trkpt><trkpt lat="43.58175209168887" lon="1.806288217208398"><ele>178.0</ele><time>2026-04-06T09:00:40Z</time></trkpt><trkpt lat="43.5818308769087" lon="1.80653168134463"><ele>179.0</ele><time>2026-04-06T09:00:41Z</time></trkpt><trkpt lat="43.581911139097265" lon="1.8067461452447715"><ele>180.0</ele><time>2026-04-06T09:00:42Z</time></trkpt><trkpt lat="43.5819938790493" lon="1.8069412496360866"><ele>179.33333333333334</ele><time>2026-04-06T09:00:43Z</time></trkpt><trkpt lat="43.58208040528623" lon="1.8071263958425288"><ele>178.66666666666669</ele><time>2026-04-06T09:00:44Z</time></trkpt><trkpt lat="43.58217660785832" lon="1.8072912641622725"><ele>178.0</ele><time>2026-04-06T09:00:45Z</time></trkpt><trkpt lat="43.582304408509714" lon="1.8074639691514114"><ele>178.0</ele><time>2026-04-06T09:00:46Z</time></trkpt><trkpt lat="43.582405746562884" lon="1.8075466377064253"><ele>178.0</ele><time>2026-04-06T09:00:47Z</time></trkpt><trkpt lat="43.58253971582845" lon="1.8076103826322052"><ele>178.0</ele><time>2026-04-06T09:00:47.999Z</time></trkpt><trkpt lat="43.58266706888076" lon="1.8076520982533824"><ele>178.0</ele><time>2026-04-06T09:00:48.999Z</time></trkpt><trkpt lat="43.582798381447866" lon="1.8076938522890587"><ele>176.75</ele><time>2026-04-06T09:00:49.999Z</time></trkpt><trkpt lat="43.582932301388716" lon="1.8077259254322895"><ele>175.5</ele><time>2026-04-06T09:00:50.999Z</time></trkpt><trkpt lat="43.58306568783714" lon="1.8077633775848632"><ele>174.25</ele><time>2026-04-06T09:00:51.999Z</time></trkpt><trkpt lat="43.58320016397799" lon="1.8078123103537944"><ele>173.0</ele><time>2026-04-06T09:00:52.999Z</time></trkpt><trkpt lat="43.583342178490774" lon="1.807889862518105"><ele>173.0</ele><time>2026-04-06T09:00:53.999Z</time></trkpt><trkpt lat="43.58347398438755" lon="1.8079782402610647"><ele>173.0</ele><time>2026-04-06T09:00:54.999Z</time></trkpt><trkpt lat="43.58360230100625" lon="1.8080883299493071"><ele>173.0</ele><time>2026-04-06T09:00:55.999Z</time></trkpt><trkpt lat="43.58372319839159" lon="1.8082104142349236"><ele>173.0</ele><time>2026-04-06T09:00:56.999Z</time></trkpt><trkpt lat="43.583830128674194" lon="1.8083492074804042"><ele>173.5</ele><time>2026-04-06T09:00:57.999Z</time></trkpt><trkpt lat="43.58392187500257" lon="1.8085090477036603"><ele>174.0</ele><time>2026-04-06T09:00:58.999Z</time></trkpt><trkpt lat="43.58400074420072" lon="1.8086806583902069"><ele>174.5</ele><time>2026-04-06T09:00:59.999Z</time></trkpt><trkpt lat="43.584069413027784" lon="1.8088483520068213"><ele>175.0</ele><time>2026-04-06T09:01:00.999Z</time></trkpt><trkpt lat="43.58412981264527" lon="1.809014204037843"><ele>175.0</ele><time>2026-04-06T09:01:01.999Z</time></trkpt><trkpt lat="43.584182191937145" lon="1.8091721378533077"><ele>175.0</ele><time>2026-04-06T09:01:02.999Z</time></trkpt><trkpt lat="43.58422068199227" lon="1.8093326587194183"><ele>175.0</ele><time>2026-04-06T09:01:03.999Z</time></trkpt><trkpt lat="43.58425387721467" lon="1.8094777362761398"><ele>175.0</ele><time>2026-04-06T09:01:04.999Z</time></trkpt><trkpt lat="43.58427582477407" lon="1.8096098688963402"><ele>174.83333333333334</ele><time>2026-04-06T09:01:05.999Z</time></trkpt><trkpt lat="43.58429403926813" lon="1.8097210736685252"><ele>174.66666666666669</ele><time>2026-04-06T09:01:06.999Z</time></trkpt><trkpt lat="43.58430451524651" lon="1.8098086994004454"><ele>174.5</ele><time>2026-04-06T09:01:07.999Z</time></trkpt><trkpt lat="43.584318920540895" lon="1.8099247667390892"><ele>174.33333333333334</ele><time>2026-04-06T09:01:09.999Z</time></trkpt><trkpt lat="43.58432032454707" lon="1.810015349293258"><ele>174.16666666666666</ele><time>2026-04-06T09:01:11.999Z</time></trkpt><trkpt lat="43.58432950641686" lon="1.8101103643018002"><ele>174.0</ele><time>2026-04-06T09:01:13.999Z</time></trkpt><trkpt lat="43.58436361287968" lon="1.8102288461680531"><ele>173.83333333333334</ele><time>2026-04-06T09:01:16.999Z</time></trkpt><trkpt lat="43.58440534821197" lon="1.8103130746892733"><ele>173.66666666666666</ele><time>2026-04-06T09:01:20.999Z</time></trkpt><trkpt lat="43.58445616428148" lon="1.810386287211682"><ele>173.5</ele><time>2026-04-06T09:01:25.999Z</time></trkpt><trkpt lat="43.5844955311415" lon="1.8104924042290422"><ele>173.33333333333331</ele><time>2026-04-06T09:01:28.999Z</time></trkpt><trkpt lat="43.58448100485198" lon="1.8106457524021171"><ele>173.16666666666666</ele><time>2026-04-06T09:01:30.999Z</time></trkpt><trkpt lat="43.584448966847546" lon="1.8107324540185041"><ele>173.0</ele><time>2026-04-06T09:01:31.999Z</time></trkpt><trkpt lat="43.58441289098445" lon="1.8108314943365824"><ele>173.0</ele><time>2026-04-06T09:01:32.999Z</time></trkpt><trkpt lat="43.584373776054555" lon="1.8109515542463857"><ele>173.0</ele><time>2026-04-06T09:01:33.999Z</time></trkpt><trkpt lat="43.58433605956091" lon="1.8110879323595697"><ele>173.0</ele><time>2026-04-06T09:01:35Z</time></trkpt><trkpt lat="43.58429816841294" lon="1.8112365088535913"><ele>173.0</ele><time>2026-04-06T09:01:36Z</time></trkpt><trkpt lat="43.58426570740162" lon="1.8113891321263047"><ele>173.0</ele><time>2026-04-06T09:01:37Z</time></trkpt><trkpt lat="43.584233930877616" lon="1.811562268502814"><ele>173.66666666666666</ele><time>2026-04-06T09:01:38Z</time></trkpt><trkpt lat="43.58420245286208" lon="1.8117543235605245"><ele>174.33333333333334</ele><time>2026-04-06T09:01:39Z</time></trkpt><trkpt lat="43.58417544032557" lon="1.8119640961328305"><ele>175.0</ele><time>2026-04-06T09:01:40Z</time></trkpt><trkpt lat="43.58414738342048" lon="1.8121853824744396"><ele>175.66666666666669</ele><time>2026-04-06T09:01:41Z</time></trkpt><trkpt lat="43.58411950154732" lon="1.8124093905590095"><ele>176.33333333333334</ele><time>2026-04-06T09:01:42Z</time></trkpt><trkpt lat="43.58409009926171" lon="1.8126416400728411"><ele>177.0</ele><time>2026-04-06T09:01:43Z</time></trkpt><trkpt lat="43.584058130389046" lon="1.8128867977404481"><ele>177.66666666666666</ele><time>2026-04-06T09:01:44Z</time></trkpt><trkpt lat="43.58402583131329" lon="1.8131411493704173"><ele>178.33333333333331</ele><time>2026-04-06T09:01:45Z</time></trkpt><trkpt lat="43.58399165494467" lon="1.8134040858073284"><ele>179.0</ele><time>2026-04-06T09:01:46Z</time></trkpt><trkpt lat="43.58395657876455" lon="1.81367735751586"><ele>179.0</ele><time>2026-04-06T09:01:47Z</time></trkpt><trkpt lat="43.58392492036074" lon="1.813950765399407"><ele>179.0</ele><time>2026-04-06T09:01:48Z</time></trkpt><trkpt lat="43.58389091505368" lon="1.8142199555945449"><ele>179.0</ele><time>2026-04-06T09:01:49Z</time></trkpt><trkpt lat="43.583859083897046" lon="1.8144898421387419"><ele>178.66666666666666</ele><time>2026-04-06T09:01:50Z</time></trkpt><trkpt lat="43.58382302216744" lon="1.814762052274286"><ele>178.33333333333334</ele><time>2026-04-06T09:01:51Z</time></trkpt><trkpt lat="43.58378915420647" lon="1.8150320821790988"><ele>178.0</ele><time>2026-04-06T09:01:52Z</time></trkpt><trkpt lat="43.583758832461875" lon="1.8152979247587664"><ele>177.33333333333334</ele><time>2026-04-06T09:01:53Z</time></trkpt><trkpt lat="43.58372458689736" lon="1.8155661157929102"><ele>176.66666666666666</ele><time>2026-04-06T09:01:54Z</time></trkpt><trkpt lat="43.58369221340768" lon="1.8158348728768696"><ele>176.0</ele><time>2026-04-06T09:01:55Z</time></trkpt><trkpt lat="43.58366069808376" lon="1.8161027166173456"><ele>176.0</ele><time>2026-04-06T09:01:56Z</time></trkpt><trkpt lat="43.58362887520836" lon="1.816374088781324"><ele>176.0</ele><time>2026-04-06T09:01:57Z</time></trkpt><trkpt lat="43.58359650902671" lon="1.8166510652453058"><ele>176.0</ele><time>2026-04-06T09:01:58Z</time></trkpt><trkpt lat="43.583560961624855" lon="1.8169352034610302"><ele>176.0</ele><time>2026-04-06T09:01:59Z</time></trkpt><trkpt lat="43.583526580533395" lon="1.8172222578855939"><ele>176.0</ele><time>2026-04-06T09:02:00Z</time></trkpt><trkpt lat="43.58349246398259" lon="1.8175097902662236"><ele>176.0</ele><time>2026-04-06T09:02:01Z</time></trkpt><trkpt lat="43.58345788810237" lon="1.8177970171600373"><ele>176.0</ele><time>2026-04-06T09:02:02Z</time></trkpt><trkpt lat="43.58342429993399" lon="1.8180780663966842"><ele>176.0</ele><time>2026-04-06T09:02:03Z</time></trkpt><trkpt lat="43.58338837365686" lon="1.8183629570554758"><ele>176.0</ele><time>2026-04-06T09:02:04Z</time></trkpt><trkpt lat="43.58335562645504" lon="1.8186506427353726"><ele>176.0</ele><time>2026-04-06T09:02:05Z</time></trkpt><trkpt lat="43.58332342848196" lon="1.8189363094817121"><ele>176.0</ele><time>2026-04-06T09:02:06Z</time></trkpt><trkpt lat="43.58328934073624" lon="1.8192225526644779"><ele>176.0</ele><time>2026-04-06T09:02:07Z</time></trkpt><trkpt lat="43.58325221785397" lon="1.819505361379219"><ele>176.33333333333331</ele><time>2026-04-06T09:02:08Z</time></trkpt><trkpt lat="43.58321634205579" lon="1.8197918252801668"><ele>176.66666666666666</ele><time>2026-04-06T09:02:09Z</time></trkpt><trkpt lat="43.58318053452832" lon="1.8200823774012065"><ele>177.0</ele><time>2026-04-06T09:02:10Z</time></trkpt><trkpt lat="43.5831428242147" lon="1.8203721444508525"><ele>177.33333333333334</ele><time>2026-04-06T09:02:11Z</time></trkpt><trkpt lat="43.58310536536908" lon="1.8206655657071562"><ele>177.66666666666669</ele><time>2026-04-06T09:02:12Z</time></trkpt><trkpt lat="43.58307088889634" lon="1.8209565835798631"><ele>178.0</ele><time>2026-04-06T09:02:13Z</time></trkpt><trkpt lat="43.58303469207528" lon="1.821249593950801"><ele>178.33333333333334</ele><time>2026-04-06T09:02:14Z</time></trkpt><trkpt lat="43.582999059114314" lon="1.821544334197698"><ele>178.66666666666666</ele><time>2026-04-06T09:02:15Z</time></trkpt><trkpt lat="43.58296351589912" lon="1.821843538329242"><ele>179.0</ele><time>2026-04-06T09:02:16Z</time></trkpt><trkpt lat="43.582928896407886" lon="1.8221412800698116"><ele>179.33333333333331</ele><time>2026-04-06T09:02:17Z</time></trkpt><trkpt lat="43.58289579601239" lon="1.822437153809057"><ele>179.66666666666666</ele><time>2026-04-06T09:02:18Z</time></trkpt><trkpt lat="43.582862158774944" lon="1.8227309788946862"><ele>180.0</ele><time>2026-04-06T09:02:19Z</time></trkpt><trkpt lat="43.58282581620655" lon="1.823022273892295"><ele>178.66666666666666</ele><time>2026-04-06T09:02:20Z</time></trkpt><trkpt lat="43.582790039723285" lon="1.823313735525906"><ele>177.33333333333331</ele><time>2026-04-06T09:02:21Z</time></trkpt><trkpt lat="43.58275480420797" lon="1.8236061103034538"><ele>176.0</ele><time>2026-04-06T09:02:22Z</time></trkpt><trkpt lat="43.582720441245975" lon="1.8239006734503347"><ele>176.0</ele><time>2026-04-06T09:02:23Z</time></trkpt><trkpt lat="43.582684192083875" lon="1.8241957435114045"><ele>176.0</ele><time>2026-04-06T09:02:24Z</time></trkpt><trkpt lat="43.58264843256092" lon="1.8244924336444202"><ele>176.0</ele><time>2026-04-06T09:02:25Z</time></trkpt><trkpt lat="43.582614966515955" lon="1.82478722101159"><ele>176.33333333333331</ele><time>2026-04-06T09:02:26Z</time></trkpt><trkpt lat="43.582582290120754" lon="1.8250826029839655"><ele>176.66666666666666</ele><time>2026-04-06T09:02:27Z</time></trkpt><trkpt lat="43.58254967725639" lon="1.825377048740042"><ele>177.0</ele><time>2026-04-06T09:02:28Z</time></trkpt><trkpt lat="43.58251627051624" lon="1.8256671187246807"><ele>177.0</ele><time>2026-04-06T09:02:29Z</time></trkpt><trkpt lat="43.5824829818605" lon="1.8259598637994146"><ele>177.0</ele><time>2026-04-06T09:02:30Z</time></trkpt><trkpt lat="43.58245024331691" lon="1.8262532169251975"><ele>177.0</ele><time>2026-04-06T09:02:31Z</time></trkpt><trkpt lat="43.58241515572773" lon="1.8265472489016907"><ele>178.0</ele><time>2026-04-06T09:02:32Z</time></trkpt><trkpt lat="43.582379035499414" lon="1.8268403832709144"><ele>179.0</ele><time>2026-04-06T09:02:33Z</time></trkpt><trkpt lat="43.582344310510344" lon="1.827136434025313"><ele>180.0</ele><time>2026-04-06T09:02:34Z</time></trkpt><trkpt lat="43.58230884732615" lon="1.8274297001357176"><ele>179.66666666666666</ele><time>2026-04-06T09:02:35Z</time></trkpt><trkpt lat="43.58227404249824" lon="1.827724654314724"><ele>179.33333333333331</ele><time>2026-04-06T09:02:36Z</time></trkpt><trkpt lat="43.58224207041462" lon="1.828019386114129"><ele>179.0</ele><time>2026-04-06T09:02:37Z</time></trkpt><trkpt lat="43.58221056819315" lon="1.8283134806109342"><ele>179.0</ele><time>2026-04-06T09:02:38Z</time></trkpt><trkpt lat="43.58217880069276" lon="1.8286082581298397"><ele>179.0</ele><time>2026-04-06T09:02:39Z</time></trkpt><trkpt lat="43.582141626326056" lon="1.8289015370028263"><ele>179.0</ele><time>2026-04-06T09:02:40Z</time></trkpt><trkpt lat="43.582103228770876" lon="1.8291970257298014"><ele>178.66666666666666</ele><time>2026-04-06T09:02:41Z</time></trkpt><trkpt lat="43.58206903350066" lon="1.8294929277673415"><ele>178.33333333333334</ele><time>2026-04-06T09:02:42Z</time></trkpt><trkpt lat="43.58203548015898" lon="1.8297886585716876"><ele>178.0</ele><time>2026-04-06T09:02:43Z</time></trkpt><trkpt lat="43.5820025373356" lon="1.8300805611702855"><ele>178.0</ele><time>2026-04-06T09:02:44Z</time></trkpt><trkpt lat="43.58196147185351" lon="1.8303681193778913"><ele>178.0</ele><time>2026-04-06T09:02:45Z</time></trkpt><trkpt lat="43.58191616016977" lon="1.8306562058675657"><ele>178.0</ele><time>2026-04-06T09:02:46Z</time></trkpt><trkpt lat="43.58186743941527" lon="1.8309446897318293"><ele>178.0</ele><time>2026-04-06T09:02:47Z</time></trkpt><trkpt lat="43.58181444575483" lon="1.8312194647099127"><ele>178.0</ele><time>2026-04-06T09:02:48Z</time></trkpt><trkpt lat="43.581757891518116" lon="1.831488768769451"><ele>178.0</ele><time>2026-04-06T09:02:48.999Z</time></trkpt><trkpt lat="43.58169071422716" lon="1.831765721432194"><ele>179.0</ele><time>2026-04-06T09:02:49.999Z</time></trkpt><trkpt lat="43.58161895722642" lon="1.832026205031314"><ele>180.0</ele><time>2026-04-06T09:02:50.999Z</time></trkpt><trkpt lat="43.58153879962456" lon="1.8322784627067454"><ele>181.0</ele><time>2026-04-06T09:02:51.999Z</time></trkpt><trkpt lat="43.58145301117189" lon="1.8325245170971114"><ele>181.66666666666669</ele><time>2026-04-06T09:02:52.999Z</time></trkpt><trkpt lat="43.58136214423373" lon="1.8327834333009396"><ele>182.33333333333334</ele><time>2026-04-06T09:02:53.999Z</time></trkpt><trkpt lat="43.58127311398821" lon="1.8330829270788473"><ele>183.0</ele><time>2026-04-06T09:02:54.999Z</time></trkpt><trkpt lat="43.58118083983845" lon="1.833412362446663"><ele>182.0</ele><time>2026-04-06T09:02:55.999Z</time></trkpt><trkpt lat="43.581094028300264" lon="1.8336776414013727"><ele>181.0</ele><time>2026-04-06T09:02:56.999Z</time></trkpt><trkpt lat="43.58102166773184" lon="1.833925995706428"><ele>180.0</ele><time>2026-04-06T09:02:57.999Z</time></trkpt><trkpt lat="43.58094442128751" lon="1.8341710506966593"><ele>180.66666666666666</ele><time>2026-04-06T09:02:58.999Z</time></trkpt><trkpt lat="43.5808625119822" lon="1.8344191294513532"><ele>181.33333333333331</ele><time>2026-04-06T09:02:59.999Z</time></trkpt><trkpt lat="43.58077395688285" lon="1.8346670932548457"><ele>182.0</ele><time>2026-04-06T09:03:00.999Z</time></trkpt><trkpt lat="43.58069373519262" lon="1.834911405640651"><ele>183.33333333333331</ele><time>2026-04-06T09:03:01.999Z</time></trkpt><trkpt lat="43.580611573081164" lon="1.8351599251788817"><ele>184.66666666666666</ele><time>2026-04-06T09:03:02.999Z</time></trkpt><trkpt lat="43.580527808112166" lon="1.835408573757"><ele>186.0</ele><time>2026-04-06T09:03:03.999Z</time></trkpt><trkpt lat="43.58044446704864" lon="1.8356587946073861"><ele>186.0</ele><time>2026-04-06T09:03:04.999Z</time></trkpt><trkpt lat="43.58036214108668" lon="1.8359094442703783"><ele>186.0</ele><time>2026-04-06T09:03:05.999Z</time></trkpt><trkpt lat="43.58028510543375" lon="1.8361667648584608"><ele>186.0</ele><time>2026-04-06T09:03:06.999Z</time></trkpt><trkpt lat="43.580218437452814" lon="1.8364275421919098"><ele>185.0</ele><time>2026-04-06T09:03:07.999Z</time></trkpt><trkpt lat="43.580142495286964" lon="1.8366758738213997"><ele>184.0</ele><time>2026-04-06T09:03:08.999Z</time></trkpt><trkpt lat="43.58007690990589" lon="1.8369503796674664"><ele>183.0</ele><time>2026-04-06T09:03:09.999Z</time></trkpt><trkpt lat="43.580011629992214" lon="1.8372300555335197"><ele>183.0</ele><time>2026-04-06T09:03:10.999Z</time></trkpt><trkpt lat="43.57994741939411" lon="1.8375078094220314"><ele>183.0</ele><time>2026-04-06T09:03:11.999Z</time></trkpt><trkpt lat="43.57988766761304" lon="1.8377852910937285"><ele>183.0</ele><time>2026-04-06T09:03:12.999Z</time></trkpt><trkpt lat="43.579825242933175" lon="1.8380635744770757"><ele>183.0</ele><time>2026-04-06T09:03:13.999Z</time></trkpt><trkpt lat="43.57976955460726" lon="1.8383424211335928"><ele>183.0</ele><time>2026-04-06T09:03:14.999Z</time></trkpt><trkpt lat="43.579720481229465" lon="1.8386215412992541"><ele>183.0</ele><time>2026-04-06T09:03:15.999Z</time></trkpt><trkpt lat="43.57966996619608" lon="1.8388996529825883"><ele>183.0</ele><time>2026-04-06T09:03:16.999Z</time></trkpt><trkpt lat="43.579618082642924" lon="1.8391757283724128"><ele>183.0</ele><time>2026-04-06T09:03:17.999Z</time></trkpt><trkpt lat="43.579569464567506" lon="1.8394553568823206"><ele>183.0</ele><time>2026-04-06T09:03:18.999Z</time></trkpt><trkpt lat="43.57952044652044" lon="1.8397376512800123"><ele>182.66666666666666</ele><time>2026-04-06T09:03:19.999Z</time></trkpt><trkpt lat="43.57947282066547" lon="1.8400211097870194"><ele>182.33333333333331</ele><time>2026-04-06T09:03:20.999Z</time></trkpt><trkpt lat="43.57942716815075" lon="1.8403020324647064"><ele>182.0</ele><time>2026-04-06T09:03:21.999Z</time></trkpt><trkpt lat="43.579378741376" lon="1.840590719521022"><ele>182.0</ele><time>2026-04-06T09:03:22.999Z</time></trkpt><trkpt lat="43.579326415336794" lon="1.8408719358699974"><ele>182.0</ele><time>2026-04-06T09:03:23.999Z</time></trkpt><trkpt lat="43.57927881932538" lon="1.8411529847359696"><ele>182.0</ele><time>2026-04-06T09:03:24.999Z</time></trkpt><trkpt lat="43.579231915595436" lon="1.8414380135703532"><ele>182.33333333333331</ele><time>2026-04-06T09:03:25.999Z</time></trkpt><trkpt lat="43.5791889084741" lon="1.8417208942450565"><ele>182.66666666666666</ele><time>2026-04-06T09:03:26.999Z</time></trkpt><trkpt lat="43.57914475584639" lon="1.8420009163367543"><ele>183.0</ele><time>2026-04-06T09:03:27.999Z</time></trkpt><trkpt lat="43.57910135723537" lon="1.8422820970911873"><ele>183.0</ele><time>2026-04-06T09:03:28.999Z</time></trkpt><trkpt lat="43.579048542645886" lon="1.842563488284382"><ele>183.0</ele><time>2026-04-06T09:03:29.999Z</time></trkpt><trkpt lat="43.57899680995049" lon="1.8428499896617632"><ele>183.0</ele><time>2026-04-06T09:03:30.999Z</time></trkpt><trkpt lat="43.57895234107806" lon="1.843143055877089"><ele>183.0</ele><time>2026-04-06T09:03:31.999Z</time></trkpt><trkpt lat="43.57890727760036" lon="1.8434301027877278"><ele>183.0</ele><time>2026-04-06T09:03:32.999Z</time></trkpt><trkpt lat="43.57886181089763" lon="1.8437122964779695"><ele>183.0</ele><time>2026-04-06T09:03:33.999Z</time></trkpt><trkpt lat="43.578814793759506" lon="1.8439908107212866"><ele>182.66666666666666</ele><time>2026-04-06T09:03:34.999Z</time></trkpt><trkpt lat="43.57875881329121" lon="1.8442755184396427"><ele>182.33333333333331</ele><time>2026-04-06T09:03:35.999Z</time></trkpt><trkpt lat="43.57870932544941" lon="1.8445514597819874"><ele>182.0</ele><time>2026-04-06T09:03:36.999Z</time></trkpt><trkpt lat="43.57866069929253" lon="1.8448279090135429"><ele>182.0</ele><time>2026-04-06T09:03:37.999Z</time></trkpt><trkpt lat="43.578614236502645" lon="1.8451044730112238"><ele>182.0</ele><time>2026-04-06T09:03:38.999Z</time></trkpt><trkpt lat="43.57856768894877" lon="1.8453820944745134"><ele>182.0</ele><time>2026-04-06T09:03:39.999Z</time></trkpt><trkpt lat="43.578523588841016" lon="1.8456558424941527"><ele>182.33333333333331</ele><time>2026-04-06T09:03:41Z</time></trkpt><trkpt lat="43.57848191266468" lon="1.8459306115548404"><ele>182.66666666666666</ele><time>2026-04-06T09:03:42Z</time></trkpt><trkpt lat="43.578443738855185" lon="1.846209538043001"><ele>183.0</ele><time>2026-04-06T09:03:43Z</time></trkpt><trkpt lat="43.57839857472464" lon="1.8464852669100216"><ele>183.0</ele><time>2026-04-06T09:03:44Z</time></trkpt><trkpt lat="43.57835399015591" lon="1.846757071771901"><ele>183.0</ele><time>2026-04-06T09:03:45Z</time></trkpt><trkpt lat="43.578309083069044" lon="1.847023413922208"><ele>183.0</ele><time>2026-04-06T09:03:46Z</time></trkpt><trkpt lat="43.57826015947419" lon="1.8473038204526728"><ele>183.0</ele><time>2026-04-06T09:03:47Z</time></trkpt><trkpt lat="43.57820595112706" lon="1.8475804233556075"><ele>183.0</ele><time>2026-04-06T09:03:48Z</time></trkpt><trkpt lat="43.57815453141269" lon="1.8478476884471031"><ele>183.0</ele><time>2026-04-06T09:03:49Z</time></trkpt><trkpt lat="43.57810947849891" lon="1.8481015494418864"><ele>183.33333333333334</ele><time>2026-04-06T09:03:50Z</time></trkpt><trkpt lat="43.578060693854475" lon="1.8483549246782187"><ele>183.66666666666669</ele><time>2026-04-06T09:03:51Z</time></trkpt><trkpt lat="43.57802118727549" lon="1.848590768819486"><ele>184.0</ele><time>2026-04-06T09:03:52Z</time></trkpt><trkpt lat="43.57798009692994" lon="1.8488237185243388"><ele>184.0</ele><time>2026-04-06T09:03:53Z</time></trkpt><trkpt lat="43.5779374159369" lon="1.8490538427103835"><ele>184.0</ele><time>2026-04-06T09:03:54Z</time></trkpt><trkpt lat="43.57789612746457" lon="1.8492800998025882"><ele>184.0</ele><time>2026-04-06T09:03:55Z</time></trkpt><trkpt lat="43.57786075741403" lon="1.8495038862170934"><ele>184.0</ele><time>2026-04-06T09:03:56Z</time></trkpt><trkpt lat="43.57782083631097" lon="1.8497229036454095"><ele>184.0</ele><time>2026-04-06T09:03:57Z</time></trkpt><trkpt lat="43.577782954500954" lon="1.849938033335157"><ele>184.0</ele><time>2026-04-06T09:03:58Z</time></trkpt><trkpt lat="43.57774589828498" lon="1.8501543811409518"><ele>184.0</ele><time>2026-04-06T09:03:59Z</time></trkpt><trkpt lat="43.57770831303284" lon="1.8503722371111566"><ele>184.0</ele><time>2026-04-06T09:04:00Z</time></trkpt><trkpt lat="43.57767045310221" lon="1.8505895548775082"><ele>184.0</ele><time>2026-04-06T09:04:01Z</time></trkpt><trkpt lat="43.57763349299709" lon="1.8508083038385568"><ele>184.0</ele><time>2026-04-06T09:04:02Z</time></trkpt><trkpt lat="43.57759877486792" lon="1.8510260007135568"><ele>184.0</ele><time>2026-04-06T09:04:03Z</time></trkpt><trkpt lat="43.57756221891333" lon="1.851252246317903"><ele>184.0</ele><time>2026-04-06T09:04:04Z</time></trkpt><trkpt lat="43.57752213314856" lon="1.8514876011700072"><ele>184.0</ele><time>2026-04-06T09:04:05Z</time></trkpt><trkpt lat="43.57748240790497" lon="1.851719531648826"><ele>184.0</ele><time>2026-04-06T09:04:06Z</time></trkpt><trkpt lat="43.57743984708441" lon="1.851967958134729"><ele>184.0</ele><time>2026-04-06T09:04:07Z</time></trkpt><trkpt lat="43.57740009357367" lon="1.8522211268661466"><ele>184.66666666666669</ele><time>2026-04-06T09:04:08Z</time></trkpt><trkpt lat="43.57735469980469" lon="1.8524753940729408"><ele>185.33333333333334</ele><time>2026-04-06T09:04:09Z</time></trkpt><trkpt lat="43.57730711443441" lon="1.8527290071862854"><ele>186.0</ele><time>2026-04-06T09:04:10Z</time></trkpt><trkpt lat="43.57725929032513" lon="1.8529854642442765"><ele>186.0</ele><time>2026-04-06T09:04:11Z</time></trkpt><trkpt lat="43.57721245043785" lon="1.8532420044341404"><ele>186.0</ele><time>2026-04-06T09:04:12Z</time></trkpt><trkpt lat="43.57716743193933" lon="1.853494833852166"><ele>186.0</ele><time>2026-04-06T09:04:13Z</time></trkpt><trkpt lat="43.577122699789896" lon="1.8537336045306896"><ele>185.33333333333334</ele><time>2026-04-06T09:04:14Z</time></trkpt><trkpt lat="43.57707396659092" lon="1.8539531958251452"><ele>184.66666666666669</ele><time>2026-04-06T09:04:15Z</time></trkpt><trkpt lat="43.57702521286276" lon="1.8541630013478938"><ele>184.0</ele><time>2026-04-06T09:04:16Z</time></trkpt><trkpt lat="43.57697433243488" lon="1.8543700113622283"><ele>183.66666666666669</ele><time>2026-04-06T09:04:17Z</time></trkpt><trkpt lat="43.576924896061556" lon="1.8545800285047778"><ele>183.33333333333334</ele><time>2026-04-06T09:04:18Z</time></trkpt><trkpt lat="43.57687053535448" lon="1.8547988208587232"><ele>183.0</ele><time>2026-04-06T09:04:19Z</time></trkpt><trkpt lat="43.57681454070265" lon="1.8550227347465258"><ele>183.33333333333334</ele><time>2026-04-06T09:04:20Z</time></trkpt><trkpt lat="43.576757348794644" lon="1.8552442925704975"><ele>183.66666666666669</ele><time>2026-04-06T09:04:21Z</time></trkpt><trkpt lat="43.57670036046324" lon="1.8554630832544425"><ele>184.0</ele><time>2026-04-06T09:04:22Z</time></trkpt><trkpt lat="43.57664090705716" lon="1.855686086467316"><ele>184.0</ele><time>2026-04-06T09:04:23Z</time></trkpt><trkpt lat="43.57658381842696" lon="1.855916058455268"><ele>184.0</ele><time>2026-04-06T09:04:24Z</time></trkpt><trkpt lat="43.57652804517394" lon="1.8561485503533006"><ele>184.0</ele><time>2026-04-06T09:04:25Z</time></trkpt><trkpt lat="43.57647055909011" lon="1.8563865100090904"><ele>184.0</ele><time>2026-04-06T09:04:26Z</time></trkpt><trkpt lat="43.57641179677501" lon="1.8566268897851865"><ele>184.0</ele><time>2026-04-06T09:04:27Z</time></trkpt><trkpt lat="43.57635228328371" lon="1.8568656790327411"><ele>184.0</ele><time>2026-04-06T09:04:28Z</time></trkpt><trkpt lat="43.57629078934724" lon="1.8571019693347235"><ele>184.0</ele><time>2026-04-06T09:04:29Z</time></trkpt><trkpt lat="43.576225732963564" lon="1.8573434564336724"><ele>184.0</ele><time>2026-04-06T09:04:30Z</time></trkpt><trkpt lat="43.57616261003692" lon="1.8575874652623932"><ele>184.0</ele><time>2026-04-06T09:04:31Z</time></trkpt><trkpt lat="43.576098409286715" lon="1.857836710385278"><ele>184.33333333333334</ele><time>2026-04-06T09:04:32Z</time></trkpt><trkpt lat="43.576036809206194" lon="1.8580869501407677"><ele>184.66666666666666</ele><time>2026-04-06T09:04:33Z</time></trkpt><trkpt lat="43.575974384222505" lon="1.858338705994907"><ele>185.0</ele><time>2026-04-06T09:04:34Z</time></trkpt><trkpt lat="43.57590998412158" lon="1.8585913032888135"><ele>185.66666666666666</ele><time>2026-04-06T09:04:35Z</time></trkpt><trkpt lat="43.57584536760589" lon="1.8588441850352588"><ele>186.33333333333334</ele><time>2026-04-06T09:04:36Z</time></trkpt><trkpt lat="43.57577856917059" lon="1.8590988129983033"><ele>187.0</ele><time>2026-04-06T09:04:37Z</time></trkpt><trkpt lat="43.57571112044383" lon="1.8593503876994746"><ele>187.0</ele><time>2026-04-06T09:04:38Z</time></trkpt><trkpt lat="43.57564300784123" lon="1.8596005902420012"><ele>187.0</ele><time>2026-04-06T09:04:39Z</time></trkpt><trkpt lat="43.57557462312574" lon="1.8598497067693414"><ele>187.0</ele><time>2026-04-06T09:04:40Z</time></trkpt><trkpt lat="43.57550694598651" lon="1.8600957474810182"><ele>187.0</ele><time>2026-04-06T09:04:41Z</time></trkpt><trkpt lat="43.5754431698472" lon="1.8603372454867524"><ele>187.0</ele><time>2026-04-06T09:04:42Z</time></trkpt><trkpt lat="43.57538471738104" lon="1.8605773255043772"><ele>187.0</ele><time>2026-04-06T09:04:43Z</time></trkpt><trkpt lat="43.57533242216886" lon="1.8608141590035108"><ele>187.33333333333334</ele><time>2026-04-06T09:04:44Z</time></trkpt><trkpt lat="43.57527962615621" lon="1.8610471164957856"><ele>187.66666666666666</ele><time>2026-04-06T09:04:44.999Z</time></trkpt><trkpt lat="43.575220294164154" lon="1.8612729080698127"><ele>188.0</ele><time>2026-04-06T09:04:45.999Z</time></trkpt><trkpt lat="43.57516322604069" lon="1.8614992049625128"><ele>188.0</ele><time>2026-04-06T09:04:46.999Z</time></trkpt><trkpt lat="43.575107409637205" lon="1.861723427959695"><ele>188.0</ele><time>2026-04-06T09:04:47.999Z</time></trkpt><trkpt lat="43.57505161448715" lon="1.8619472912569237"><ele>188.0</ele><time>2026-04-06T09:04:48.999Z</time></trkpt><trkpt lat="43.5749975719058" lon="1.862169333120632"><ele>188.0</ele><time>2026-04-06T09:04:49.999Z</time></trkpt><trkpt lat="43.574942458335926" lon="1.8623918304549927"><ele>188.0</ele><time>2026-04-06T09:04:50.999Z</time></trkpt><trkpt lat="43.57488401620529" lon="1.8626118676927044"><ele>188.0</ele><time>2026-04-06T09:04:51.999Z</time></trkpt><trkpt lat="43.57482485388375" lon="1.8628339606985973"><ele>187.33333333333331</ele><time>2026-04-06T09:04:52.999Z</time></trkpt><trkpt lat="43.57476559507531" lon="1.8630590409859817"><ele>186.66666666666666</ele><time>2026-04-06T09:04:53.999Z</time></trkpt><trkpt lat="43.574707389791385" lon="1.8632936080895206"><ele>186.0</ele><time>2026-04-06T09:04:54.999Z</time></trkpt><trkpt lat="43.57464915688247" lon="1.8635295454750165"><ele>186.0</ele><time>2026-04-06T09:04:55.999Z</time></trkpt><trkpt lat="43.57458878715397" lon="1.863764585088421"><ele>186.0</ele><time>2026-04-06T09:04:56.999Z</time></trkpt><trkpt lat="43.57452937654964" lon="1.863998787529384"><ele>186.0</ele><time>2026-04-06T09:04:57.999Z</time></trkpt><trkpt lat="43.57447021013671" lon="1.86423099552928"><ele>186.0</ele><time>2026-04-06T09:04:58.999Z</time></trkpt><trkpt lat="43.57441260094387" lon="1.8644671211379102"><ele>186.0</ele><time>2026-04-06T09:04:59.999Z</time></trkpt><trkpt lat="43.57435385966796" lon="1.8647097894712361"><ele>186.0</ele><time>2026-04-06T09:05:00.999Z</time></trkpt><trkpt lat="43.57429371495305" lon="1.8649543784509397"><ele>186.66666666666666</ele><time>2026-04-06T09:05:01.999Z</time></trkpt><trkpt lat="43.574231724284225" lon="1.8651964435678745"><ele>187.33333333333331</ele><time>2026-04-06T09:05:02.999Z</time></trkpt><trkpt lat="43.574169093876" lon="1.8654370009599253"><ele>188.0</ele><time>2026-04-06T09:05:03.999Z</time></trkpt><trkpt lat="43.57410678908429" lon="1.865675555542504"><ele>188.0</ele><time>2026-04-06T09:05:04.999Z</time></trkpt><trkpt lat="43.57404683301633" lon="1.8659165540620635"><ele>188.0</ele><time>2026-04-06T09:05:05.999Z</time></trkpt><trkpt lat="43.5739875801587" lon="1.8661578841099946"><ele>188.0</ele><time>2026-04-06T09:05:06.999Z</time></trkpt><trkpt lat="43.57392676267345" lon="1.8663994530825012"><ele>188.66666666666666</ele><time>2026-04-06T09:05:07.999Z</time></trkpt><trkpt lat="43.573864343797716" lon="1.866642575490438"><ele>189.33333333333334</ele><time>2026-04-06T09:05:08.999Z</time></trkpt><trkpt lat="43.573801269578574" lon="1.8668876072975438"><ele>190.0</ele><time>2026-04-06T09:05:09.999Z</time></trkpt><trkpt lat="43.573739757822956" lon="1.8671335912654095"><ele>189.66666666666669</ele><time>2026-04-06T09:05:10.999Z</time></trkpt><trkpt lat="43.573677444013626" lon="1.867384630607025"><ele>189.33333333333334</ele><time>2026-04-06T09:05:11.999Z</time></trkpt><trkpt lat="43.5736131448363" lon="1.8676394233564027"><ele>189.0</ele><time>2026-04-06T09:05:12.999Z</time></trkpt><trkpt lat="43.573547341269446" lon="1.8678975143918601"><ele>189.0</ele><time>2026-04-06T09:05:13.999Z</time></trkpt><trkpt lat="43.57348083632236" lon="1.868158568923584"><ele>189.0</ele><time>2026-04-06T09:05:14.999Z</time></trkpt><trkpt lat="43.57341630276225" lon="1.8684190625189956"><ele>189.0</ele><time>2026-04-06T09:05:15.999Z</time></trkpt><trkpt lat="43.57335023262842" lon="1.8686764171558532"><ele>189.33333333333334</ele><time>2026-04-06T09:05:16.999Z</time></trkpt><trkpt lat="43.57328540870957" lon="1.8689341738229208"><ele>189.66666666666669</ele><time>2026-04-06T09:05:17.999Z</time></trkpt><trkpt lat="43.5732196545092" lon="1.8691883830886367"><ele>190.0</ele><time>2026-04-06T09:05:18.999Z</time></trkpt><trkpt lat="43.573154279114156" lon="1.8694438480359081"><ele>190.33333333333334</ele><time>2026-04-06T09:05:19.999Z</time></trkpt><trkpt lat="43.57308902545554" lon="1.8697012281447327"><ele>190.66666666666666</ele><time>2026-04-06T09:05:20.999Z</time></trkpt><trkpt lat="43.57302453632411" lon="1.8699579399898576"><ele>191.0</ele><time>2026-04-06T09:05:21.999Z</time></trkpt><trkpt lat="43.57296091166585" lon="1.8702184406425173"><ele>191.0</ele><time>2026-04-06T09:05:22.999Z</time></trkpt><trkpt lat="43.57289608544181" lon="1.870477139642409"><ele>191.0</ele><time>2026-04-06T09:05:23.999Z</time></trkpt><trkpt lat="43.57283050252024" lon="1.8707337250410307"><ele>191.0</ele><time>2026-04-06T09:05:24.999Z</time></trkpt><trkpt lat="43.572766410143224" lon="1.8709891956555729"><ele>191.0</ele><time>2026-04-06T09:05:25.999Z</time></trkpt><trkpt lat="43.57270382792186" lon="1.8712458926762274"><ele>191.0</ele><time>2026-04-06T09:05:26.999Z</time></trkpt><trkpt lat="43.57263857824332" lon="1.8715040376676113"><ele>191.0</ele><time>2026-04-06T09:05:27.999Z</time></trkpt><trkpt lat="43.572572008532774" lon="1.8717601712083356"><ele>191.66666666666666</ele><time>2026-04-06T09:05:28.999Z</time></trkpt><trkpt lat="43.57250683744943" lon="1.872010893786967"><ele>192.33333333333331</ele><time>2026-04-06T09:05:29.999Z</time></trkpt><trkpt lat="43.57244384443826" lon="1.8722576905877477"><ele>193.0</ele><time>2026-04-06T09:05:30.999Z</time></trkpt><trkpt lat="43.57238256253145" lon="1.872502483140536"><ele>193.66666666666666</ele><time>2026-04-06T09:05:31.999Z</time></trkpt><trkpt lat="43.57232159335526" lon="1.8727443724336403"><ele>194.33333333333331</ele><time>2026-04-06T09:05:32.999Z</time></trkpt><trkpt lat="43.572261552901644" lon="1.8729873571129203"><ele>195.0</ele><time>2026-04-06T09:05:33.999Z</time></trkpt><trkpt lat="43.57220234958256" lon="1.8732300414772889"><ele>195.0</ele><time>2026-04-06T09:05:34.999Z</time></trkpt><trkpt lat="43.57214233848709" lon="1.8734632694762865"><ele>195.0</ele><time>2026-04-06T09:05:35.999Z</time></trkpt><trkpt lat="43.572081578462594" lon="1.8736977804473494"><ele>195.0</ele><time>2026-04-06T09:05:36.999Z</time></trkpt><trkpt lat="43.57202130465238" lon="1.8739347610242554"><ele>195.0</ele><time>2026-04-06T09:05:37.999Z</time></trkpt><trkpt lat="43.5719620768068" lon="1.8741723979722653"><ele>195.0</ele><time>2026-04-06T09:05:38.999Z</time></trkpt><trkpt lat="43.57190110727552" lon="1.8744125533934213"><ele>195.0</ele><time>2026-04-06T09:05:39.999Z</time></trkpt><trkpt lat="43.57183977169016" lon="1.8746546739885217"><ele>196.0</ele><time>2026-04-06T09:05:40.999Z</time></trkpt><trkpt lat="43.57177857404194" lon="1.8748965501851769"><ele>197.0</ele><time>2026-04-06T09:05:41.999Z</time></trkpt><trkpt lat="43.57171896464953" lon="1.8751347788663992"><ele>198.0</ele><time>2026-04-06T09:05:42.999Z</time></trkpt><trkpt lat="43.571658471075054" lon="1.8753745045143737"><ele>199.0</ele><time>2026-04-06T09:05:43.999Z</time></trkpt><trkpt lat="43.57159688759625" lon="1.87560819269148"><ele>200.0</ele><time>2026-04-06T09:05:44.999Z</time></trkpt><trkpt lat="43.571538688584724" lon="1.875844881396709"><ele>201.0</ele><time>2026-04-06T09:05:45.999Z</time></trkpt><trkpt lat="43.57147864808168" lon="1.876084240033737"><ele>203.0</ele><time>2026-04-06T09:05:47Z</time></trkpt><trkpt lat="43.57141965461834" lon="1.8763227283590467"><ele>205.0</ele><time>2026-04-06T09:05:48Z</time></trkpt><trkpt lat="43.57135952283102" lon="1.876560901239166"><ele>207.0</ele><time>2026-04-06T09:05:49Z</time></trkpt><trkpt lat="43.57130084315942" lon="1.876793110945045"><ele>205.66666666666669</ele><time>2026-04-06T09:05:50Z</time></trkpt><trkpt lat="43.57124843686086" lon="1.8770178251687772"><ele>204.33333333333334</ele><time>2026-04-06T09:05:51Z</time></trkpt><trkpt lat="43.57119483104361" lon="1.8772365635675259"><ele>203.0</ele><time>2026-04-06T09:05:52Z</time></trkpt><trkpt lat="43.57114200385618" lon="1.8774513631903216"><ele>204.66666666666669</ele><time>2026-04-06T09:05:53Z</time></trkpt><trkpt lat="43.57108741454045" lon="1.8776652410702444"><ele>206.33333333333331</ele><time>2026-04-06T09:05:54Z</time></trkpt><trkpt lat="43.57103505123175" lon="1.8778709660392716"><ele>208.0</ele><time>2026-04-06T09:05:55Z</time></trkpt><trkpt lat="43.57098449901975" lon="1.8780732484423783"><ele>208.0</ele><time>2026-04-06T09:05:56Z</time></trkpt><trkpt lat="43.570935376298614" lon="1.8782668655612742"><ele>208.0</ele><time>2026-04-06T09:05:57Z</time></trkpt><trkpt lat="43.57088704793675" lon="1.8784526204833143"><ele>208.0</ele><time>2026-04-06T09:05:58Z</time></trkpt><trkpt lat="43.57083865555742" lon="1.878631081495642"><ele>208.0</ele><time>2026-04-06T09:05:59Z</time></trkpt><trkpt lat="43.57079221385039" lon="1.8788011662001085"><ele>209.25</ele><time>2026-04-06T09:06:00Z</time></trkpt><trkpt lat="43.57075121112695" lon="1.8789677978376016"><ele>210.5</ele><time>2026-04-06T09:06:01Z</time></trkpt><trkpt lat="43.57071577234019" lon="1.879122542921047"><ele>211.75</ele><time>2026-04-06T09:06:02Z</time></trkpt><trkpt lat="43.570677572954125" lon="1.8792708208439572"><ele>213.0</ele><time>2026-04-06T09:06:03Z</time></trkpt><trkpt lat="43.57064247038266" lon="1.8794095929690486"><ele>213.16666666666666</ele><time>2026-04-06T09:06:04Z</time></trkpt><trkpt lat="43.57060869398083" lon="1.8795376572905946"><ele>213.33333333333331</ele><time>2026-04-06T09:06:05Z</time></trkpt><trkpt lat="43.570574679819075" lon="1.8796614932642408"><ele>213.5</ele><time>2026-04-06T09:06:06Z</time></trkpt><trkpt lat="43.57054715535554" lon="1.8797732418216047"><ele>213.66666666666666</ele><time>2026-04-06T09:06:07Z</time></trkpt><trkpt lat="43.570523494798586" lon="1.8798775554853127"><ele>213.83333333333331</ele><time>2026-04-06T09:06:08Z</time></trkpt><trkpt lat="43.57050210747601" lon="1.8799699058981505"><ele>214.0</ele><time>2026-04-06T09:06:09Z</time></trkpt><trkpt lat="43.57046893432856" lon="1.88011769656657"><ele>214.2</ele><time>2026-04-06T09:06:11Z</time></trkpt><trkpt lat="43.570437307393206" lon="1.8802410581912752"><ele>214.39999999999998</ele><time>2026-04-06T09:06:13Z</time></trkpt><trkpt lat="43.57040319871091" lon="1.8803814568025592"><ele>214.6</ele><time>2026-04-06T09:06:15Z</time></trkpt><trkpt lat="43.570360291594184" lon="1.8805513645960166"><ele>214.8</ele><time>2026-04-06T09:06:17Z</time></trkpt><trkpt lat="43.57033488690616" lon="1.880656192611539"><ele>215.0</ele><time>2026-04-06T09:06:18Z</time></trkpt><trkpt lat="43.57030615265441" lon="1.880773169497008"><ele>213.8</ele><time>2026-04-06T09:06:19Z</time></trkpt><trkpt lat="43.570272318404726" lon="1.8808948067963254"><ele>212.6</ele><time>2026-04-06T09:06:20Z</time></trkpt><trkpt lat="43.570243074347644" lon="1.8810124842265212"><ele>211.39999999999998</ele><time>2026-04-06T09:06:21Z</time></trkpt><trkpt lat="43.57021302815013" lon="1.8811317596610364"><ele>210.2</ele><time>2026-04-06T09:06:22Z</time></trkpt><trkpt lat="43.570182626096305" lon="1.8812546006200181"><ele>209.0</ele><time>2026-04-06T09:06:23Z</time></trkpt><trkpt lat="43.57015068553079" lon="1.8813775349634945"><ele>209.0</ele><time>2026-04-06T09:06:24Z</time></trkpt><trkpt lat="43.57011830475935" lon="1.8815023242711653"><ele>209.0</ele><time>2026-04-06T09:06:25Z</time></trkpt><trkpt lat="43.570088134566554" lon="1.8816227391343505"><ele>209.0</ele><time>2026-04-06T09:06:26Z</time></trkpt><trkpt lat="43.57005790218526" lon="1.8817422879820342"><ele>209.0</ele><time>2026-04-06T09:06:27Z</time></trkpt><trkpt lat="43.570028095811104" lon="1.8818602861395122"><ele>209.0</ele><time>2026-04-06T09:06:28Z</time></trkpt><trkpt lat="43.56999917681949" lon="1.8819802610883756"><ele>209.39999999999998</ele><time>2026-04-06T09:06:29Z</time></trkpt><trkpt lat="43.56996823152285" lon="1.882102941475154"><ele>209.8</ele><time>2026-04-06T09:06:30Z</time></trkpt><trkpt lat="43.56993391073895" lon="1.8822303017295217"><ele>210.2</ele><time>2026-04-06T09:06:31Z</time></trkpt><trkpt lat="43.56989879902653" lon="1.8823629161705047"><ele>210.60000000000002</ele><time>2026-04-06T09:06:32Z</time></trkpt><trkpt lat="43.569865445273756" lon="1.8825021731415117"><ele>211.0</ele><time>2026-04-06T09:06:33Z</time></trkpt><trkpt lat="43.56983030107324" lon="1.882643685316859"><ele>211.60000000000002</ele><time>2026-04-06T09:06:34Z</time></trkpt><trkpt lat="43.569794423208705" lon="1.882788927319262"><ele>212.2</ele><time>2026-04-06T09:06:35Z</time></trkpt><trkpt lat="43.56975741309796" lon="1.88293525451504"><ele>212.79999999999998</ele><time>2026-04-06T09:06:36Z</time></trkpt><trkpt lat="43.56972008220903" lon="1.883080247687265"><ele>213.39999999999998</ele><time>2026-04-06T09:06:37Z</time></trkpt><trkpt lat="43.56968532686063" lon="1.8832262218858218"><ele>214.0</ele><time>2026-04-06T09:06:38Z</time></trkpt><trkpt lat="43.56964963936674" lon="1.883373391560877"><ele>214.0</ele><time>2026-04-06T09:06:39Z</time></trkpt><trkpt lat="43.56961009652541" lon="1.8835222970681282"><ele>213.99999999999997</ele><time>2026-04-06T09:06:40Z</time></trkpt><trkpt lat="43.56957135104975" lon="1.8836655268734324"><ele>213.99999999999997</ele><time>2026-04-06T09:06:41Z</time></trkpt><trkpt lat="43.5695368543761" lon="1.8838035697976745"><ele>214.0</ele><time>2026-04-06T09:06:42Z</time></trkpt><trkpt lat="43.56950505581624" lon="1.8839320880246972"><ele>214.0</ele><time>2026-04-06T09:06:43Z</time></trkpt><trkpt lat="43.56947438255044" lon="1.8840555843690974"><ele>213.0</ele><time>2026-04-06T09:06:44Z</time></trkpt><trkpt lat="43.569443570698816" lon="1.8841751467246437"><ele>211.99999999999997</ele><time>2026-04-06T09:06:45Z</time></trkpt><trkpt lat="43.56941276017674" lon="1.884295788533062"><ele>211.0</ele><time>2026-04-06T09:06:45.999Z</time></trkpt><trkpt lat="43.56937903070033" lon="1.8844214156122316"><ele>210.0</ele><time>2026-04-06T09:06:46.999Z</time></trkpt><trkpt lat="43.569347702093545" lon="1.884545264070598"><ele>209.0</ele><time>2026-04-06T09:06:47.999Z</time></trkpt><trkpt lat="43.5693165216135" lon="1.8846685217158963"><ele>209.0</ele><time>2026-04-06T09:06:48.999Z</time></trkpt><trkpt lat="43.56928550118226" lon="1.8847915445799222"><ele>209.0</ele><time>2026-04-06T09:06:49.999Z</time></trkpt><trkpt lat="43.56925432765694" lon="1.8849132855935025"><ele>209.0</ele><time>2026-04-06T09:06:50.999Z</time></trkpt><trkpt lat="43.569223965483566" lon="1.8850400311441993"><ele>209.0</ele><time>2026-04-06T09:06:51.999Z</time></trkpt><trkpt lat="43.569190956074365" lon="1.8851712335764585"><ele>209.0</ele><time>2026-04-06T09:06:52.999Z</time></trkpt><trkpt lat="43.56915675048752" lon="1.8853119807111445"><ele>208.25</ele><time>2026-04-06T09:06:53.999Z</time></trkpt><trkpt lat="43.56911860038247" lon="1.8854590199964534"><ele>207.5</ele><time>2026-04-06T09:06:54.999Z</time></trkpt><trkpt lat="43.56907832480254" lon="1.8856110342912555"><ele>206.75</ele><time>2026-04-06T09:06:55.999Z</time></trkpt><trkpt lat="43.5690398710481" lon="1.885771071330294"><ele>206.0</ele><time>2026-04-06T09:06:56.999Z</time></trkpt><trkpt lat="43.569001899044125" lon="1.8859353947030026"><ele>206.0</ele><time>2026-04-06T09:06:57.999Z</time></trkpt><trkpt lat="43.568962431472656" lon="1.8861043746106638"><ele>206.0</ele><time>2026-04-06T09:06:58.999Z</time></trkpt><trkpt lat="43.568918140603486" lon="1.8862787542344417"><ele>206.0</ele><time>2026-04-06T09:06:59.999Z</time></trkpt><trkpt lat="43.568868875490736" lon="1.8864623555250017"><ele>206.0</ele><time>2026-04-06T09:07:00.999Z</time></trkpt><trkpt lat="43.56881919929515" lon="1.8866557042396408"><ele>206.0</ele><time>2026-04-06T09:07:01.999Z</time></trkpt><trkpt lat="43.56876360810435" lon="1.8868602449770004"><ele>206.0</ele><time>2026-04-06T09:07:02.999Z</time></trkpt><trkpt lat="43.568706828402256" lon="1.8870703059152938"><ele>206.0</ele><time>2026-04-06T09:07:03.999Z</time></trkpt><trkpt lat="43.56865345306582" lon="1.887280723063065"><ele>206.0</ele><time>2026-04-06T09:07:04.999Z</time></trkpt><trkpt lat="43.5685969579091" lon="1.887502435943089"><ele>206.0</ele><time>2026-04-06T09:07:05.999Z</time></trkpt><trkpt lat="43.56854134621461" lon="1.8877219694226712"><ele>206.0</ele><time>2026-04-06T09:07:06.999Z</time></trkpt><trkpt lat="43.568488868453805" lon="1.8879410295505075"><ele>207.66666666666669</ele><time>2026-04-06T09:07:07.999Z</time></trkpt><trkpt lat="43.56843364430386" lon="1.888159678252766"><ele>209.33333333333331</ele><time>2026-04-06T09:07:08.999Z</time></trkpt><trkpt lat="43.56837836400171" lon="1.888379431366005"><ele>211.0</ele><time>2026-04-06T09:07:09.999Z</time></trkpt><trkpt lat="43.568320692665075" lon="1.8886065106040442"><ele>212.33333333333331</ele><time>2026-04-06T09:07:10.999Z</time></trkpt><trkpt lat="43.568262498150645" lon="1.8888363399244805"><ele>213.66666666666669</ele><time>2026-04-06T09:07:11.999Z</time></trkpt><trkpt lat="43.56820277059709" lon="1.8890665335964631"><ele>215.0</ele><time>2026-04-06T09:07:12.999Z</time></trkpt><trkpt lat="43.56814359772988" lon="1.8892939651809881"><ele>216.0</ele><time>2026-04-06T09:07:13.999Z</time></trkpt><trkpt lat="43.568085484928616" lon="1.8895232523038212"><ele>217.0</ele><time>2026-04-06T09:07:14.999Z</time></trkpt><trkpt lat="43.56802493960748" lon="1.8897481801429221"><ele>218.0</ele><time>2026-04-06T09:07:15.999Z</time></trkpt><trkpt lat="43.567966323475325" lon="1.8899746972623657"><ele>218.33333333333334</ele><time>2026-04-06T09:07:16.999Z</time></trkpt><trkpt lat="43.567908628388864" lon="1.890200614128928"><ele>218.66666666666669</ele><time>2026-04-06T09:07:17.999Z</time></trkpt><trkpt lat="43.5678474411001" lon="1.8904267320279655"><ele>219.0</ele><time>2026-04-06T09:07:18.999Z</time></trkpt><trkpt lat="43.56779039745985" lon="1.8906412432663189"><ele>219.0</ele><time>2026-04-06T09:07:19.999Z</time></trkpt><trkpt lat="43.56773762917177" lon="1.890843524140267"><ele>219.0</ele><time>2026-04-06T09:07:20.999Z</time></trkpt><trkpt lat="43.56768346530785" lon="1.8910583129495622"><ele>219.0</ele><time>2026-04-06T09:07:21.999Z</time></trkpt><trkpt lat="43.56763285692589" lon="1.891305972058317"><ele>219.0</ele><time>2026-04-06T09:07:22.999Z</time></trkpt><trkpt lat="43.56758404971472" lon="1.8915242566665265"><ele>219.0</ele><time>2026-04-06T09:07:23.999Z</time></trkpt><trkpt lat="43.56752750444649" lon="1.8917390139359622"><ele>219.0</ele><time>2026-04-06T09:07:24.999Z</time></trkpt><trkpt lat="43.56747714183454" lon="1.891938335780318"><ele>219.66666666666669</ele><time>2026-04-06T09:07:25.999Z</time></trkpt><trkpt lat="43.567424504081664" lon="1.8921377804197677"><ele>220.33333333333334</ele><time>2026-04-06T09:07:26.999Z</time></trkpt><trkpt lat="43.56737029359828" lon="1.8923391673103958"><ele>221.0</ele><time>2026-04-06T09:07:27.999Z</time></trkpt><trkpt lat="43.56731936329307" lon="1.8925408649013475"><ele>221.33333333333334</ele><time>2026-04-06T09:07:28.999Z</time></trkpt><trkpt lat="43.56726996513743" lon="1.8927393611065495"><ele>221.66666666666669</ele><time>2026-04-06T09:07:29.999Z</time></trkpt><trkpt lat="43.56721982514876" lon="1.892942082219935"><ele>222.0</ele><time>2026-04-06T09:07:30.999Z</time></trkpt><trkpt lat="43.56717104024849" lon="1.8931434222267045"><ele>222.0</ele><time>2026-04-06T09:07:31.999Z</time></trkpt><trkpt lat="43.567119229688544" lon="1.893349314022244"><ele>222.0</ele><time>2026-04-06T09:07:32.999Z</time></trkpt><trkpt lat="43.56706793550799" lon="1.8935508853567433"><ele>222.0</ele><time>2026-04-06T09:07:33.999Z</time></trkpt><trkpt lat="43.56701668301159" lon="1.8937512327214663"><ele>221.0</ele><time>2026-04-06T09:07:34.999Z</time></trkpt><trkpt lat="43.566965663072" lon="1.8939549169550591"><ele>220.0</ele><time>2026-04-06T09:07:35.999Z</time></trkpt><trkpt lat="43.56690694775675" lon="1.8941674518123293"><ele>219.0</ele><time>2026-04-06T09:07:36.999Z</time></trkpt><trkpt lat="43.566853476799324" lon="1.894377829305687"><ele>219.0</ele><time>2026-04-06T09:07:37.999Z</time></trkpt><trkpt lat="43.566798082480055" lon="1.8945991129249309"><ele>219.0</ele><time>2026-04-06T09:07:38.999Z</time></trkpt><trkpt lat="43.566739074579345" lon="1.8948243430517098"><ele>219.0</ele><time>2026-04-06T09:07:39.999Z</time></trkpt><trkpt lat="43.56668101561211" lon="1.895051945540662"><ele>219.66666666666669</ele><time>2026-04-06T09:07:40.999Z</time></trkpt><trkpt lat="43.56663228275687" lon="1.895265361460333"><ele>220.33333333333334</ele><time>2026-04-06T09:07:41.999Z</time></trkpt><trkpt lat="43.56658093360042" lon="1.8954955422629827"><ele>221.0</ele><time>2026-04-06T09:07:42.999Z</time></trkpt><trkpt lat="43.56652089747718" lon="1.8957202203858512"><ele>221.33333333333334</ele><time>2026-04-06T09:07:43.999Z</time></trkpt><trkpt lat="43.56646555602746" lon="1.8959411706131561"><ele>221.66666666666669</ele><time>2026-04-06T09:07:44.999Z</time></trkpt><trkpt lat="43.566407616824584" lon="1.8961611822969076"><ele>222.0</ele><time>2026-04-06T09:07:45.999Z</time></trkpt><trkpt lat="43.566354061075245" lon="1.8963846274112903"><ele>222.0</ele><time>2026-04-06T09:07:46.999Z</time></trkpt><trkpt lat="43.566297924327685" lon="1.8966104651163078"><ele>222.0</ele><time>2026-04-06T09:07:47.999Z</time></trkpt><trkpt lat="43.56623985953959" lon="1.8968428417165022"><ele>222.0</ele><time>2026-04-06T09:07:48.999Z</time></trkpt><trkpt lat="43.56617935948672" lon="1.8970775250183045"><ele>222.33333333333331</ele><time>2026-04-06T09:07:49.999Z</time></trkpt><trkpt lat="43.56611314556365" lon="1.897326669522607"><ele>222.66666666666666</ele><time>2026-04-06T09:07:50.999Z</time></trkpt><trkpt lat="43.566047391335566" lon="1.8975861227774966"><ele>223.0</ele><time>2026-04-06T09:07:51.999Z</time></trkpt><trkpt lat="43.56598235304349" lon="1.8978520859715857"><ele>222.0</ele><time>2026-04-06T09:07:53Z</time></trkpt><trkpt lat="43.56591585268017" lon="1.8981131040804664"><ele>221.0</ele><time>2026-04-06T09:07:54Z</time></trkpt><trkpt lat="43.56585226741954" lon="1.8983822978423952"><ele>220.0</ele><time>2026-04-06T09:07:55Z</time></trkpt><trkpt lat="43.56579095700952" lon="1.8986549769563725"><ele>219.66666666666666</ele><time>2026-04-06T09:07:56Z</time></trkpt><trkpt lat="43.56573681999389" lon="1.898926036427795"><ele>219.33333333333331</ele><time>2026-04-06T09:07:57Z</time></trkpt><trkpt lat="43.56568656379669" lon="1.8991998192042319"><ele>219.0</ele><time>2026-04-06T09:07:58Z</time></trkpt><trkpt lat="43.56564616389947" lon="1.899479867423632"><ele>218.66666666666669</ele><time>2026-04-06T09:07:59Z</time></trkpt><trkpt lat="43.565619218826654" lon="1.899764002293519"><ele>218.33333333333334</ele><time>2026-04-06T09:08:00Z</time></trkpt><trkpt lat="43.565604147628775" lon="1.9000490494784714"><ele>218.0</ele><time>2026-04-06T09:08:01Z</time></trkpt><trkpt lat="43.56559836665187" lon="1.9003323763449482"><ele>219.0</ele><time>2026-04-06T09:08:02Z</time></trkpt><trkpt lat="43.56560001805289" lon="1.900615314631302"><ele>220.0</ele><time>2026-04-06T09:08:03Z</time></trkpt><trkpt lat="43.56560356359316" lon="1.900902222176961"><ele>221.0</ele><time>2026-04-06T09:08:04Z</time></trkpt><trkpt lat="43.56561136293883" lon="1.9011833524565234"><ele>221.33333333333334</ele><time>2026-04-06T09:08:05Z</time></trkpt><trkpt lat="43.56562055736327" lon="1.9014664458178339"><ele>221.66666666666669</ele><time>2026-04-06T09:08:06Z</time></trkpt><trkpt lat="43.56563559904036" lon="1.9017459685148852"><ele>222.0</ele><time>2026-04-06T09:08:07Z</time></trkpt><trkpt lat="43.56564756409692" lon="1.9020203290066346"><ele>220.66666666666669</ele><time>2026-04-06T09:08:08Z</time></trkpt><trkpt lat="43.56566000620299" lon="1.9022909710193732"><ele>219.33333333333334</ele><time>2026-04-06T09:08:09Z</time></trkpt><trkpt lat="43.56567016491459" lon="1.9025577537564051"><ele>218.0</ele><time>2026-04-06T09:08:10Z</time></trkpt><trkpt lat="43.56567909053526" lon="1.9028261116518044"><ele>217.66666666666669</ele><time>2026-04-06T09:08:11Z</time></trkpt><trkpt lat="43.56568811300485" lon="1.9030950101723103"><ele>217.33333333333331</ele><time>2026-04-06T09:08:12Z</time></trkpt><trkpt lat="43.56569690258804" lon="1.9033659792956612"><ele>217.0</ele><time>2026-04-06T09:08:13Z</time></trkpt><trkpt lat="43.56570588906591" lon="1.903640995173032"><ele>217.66666666666666</ele><time>2026-04-06T09:08:14Z</time></trkpt><trkpt lat="43.565710901944364" lon="1.903911782054922"><ele>218.33333333333331</ele><time>2026-04-06T09:08:15Z</time></trkpt><trkpt lat="43.565711377831214" lon="1.9041828586789022"><ele>219.0</ele><time>2026-04-06T09:08:16Z</time></trkpt><trkpt lat="43.565714704286414" lon="1.9044540802085725"><ele>219.0</ele><time>2026-04-06T09:08:17Z</time></trkpt><trkpt lat="43.56571622097907" lon="1.904729100258507"><ele>219.0</ele><time>2026-04-06T09:08:18Z</time></trkpt><trkpt lat="43.56572062311138" lon="1.905000560356562"><ele>219.0</ele><time>2026-04-06T09:08:19Z</time></trkpt><trkpt lat="43.56572796400873" lon="1.9052695632702608"><ele>218.0</ele><time>2026-04-06T09:08:20Z</time></trkpt><trkpt lat="43.56573415122636" lon="1.9055424552781726"><ele>217.0</ele><time>2026-04-06T09:08:21Z</time></trkpt><trkpt lat="43.565742265269236" lon="1.9058170858537355"><ele>216.0</ele><time>2026-04-06T09:08:22Z</time></trkpt><trkpt lat="43.56575181658882" lon="1.9060928064799059"><ele>215.33333333333331</ele><time>2026-04-06T09:08:23Z</time></trkpt><trkpt lat="43.56575952024556" lon="1.9063724146153818"><ele>214.66666666666666</ele><time>2026-04-06T09:08:24Z</time></trkpt><trkpt lat="43.56576558593658" lon="1.9066521082458927"><ele>214.0</ele><time>2026-04-06T09:08:25Z</time></trkpt><trkpt lat="43.56577414499391" lon="1.906934814004824"><ele>213.33333333333331</ele><time>2026-04-06T09:08:26Z</time></trkpt><trkpt lat="43.5657850489853" lon="1.9072156990562568"><ele>212.66666666666669</ele><time>2026-04-06T09:08:27Z</time></trkpt><trkpt lat="43.5657962597278" lon="1.907502110902427"><ele>212.0</ele><time>2026-04-06T09:08:28Z</time></trkpt><trkpt lat="43.565807979046006" lon="1.9077885370167795"><ele>211.33333333333334</ele><time>2026-04-06T09:08:29Z</time></trkpt><trkpt lat="43.56581707218231" lon="1.908079556125759"><ele>210.66666666666669</ele><time>2026-04-06T09:08:30Z</time></trkpt><trkpt lat="43.565828687698826" lon="1.9083732387977197"><ele>210.0</ele><time>2026-04-06T09:08:31Z</time></trkpt><trkpt lat="43.56583798092078" lon="1.908667525649165"><ele>209.66666666666669</ele><time>2026-04-06T09:08:32Z</time></trkpt><trkpt lat="43.56585003301524" lon="1.9089698540080704"><ele>209.33333333333334</ele><time>2026-04-06T09:08:33Z</time></trkpt><trkpt lat="43.565861811014564" lon="1.9092703613633006"><ele>209.0</ele><time>2026-04-06T09:08:34Z</time></trkpt><trkpt lat="43.56587618892474" lon="1.909575614934393"><ele>210.0</ele><time>2026-04-06T09:08:35Z</time></trkpt><trkpt lat="43.56588727058203" lon="1.9098718984311522"><ele>211.0</ele><time>2026-04-06T09:08:36Z</time></trkpt><trkpt lat="43.565899452131525" lon="1.9101686137198743"><ele>212.0</ele><time>2026-04-06T09:08:37Z</time></trkpt><trkpt lat="43.56590539159013" lon="1.9104653900750406"><ele>212.66666666666669</ele><time>2026-04-06T09:08:38Z</time></trkpt><trkpt lat="43.56591504218025" lon="1.9107523124059331"><ele>213.33333333333331</ele><time>2026-04-06T09:08:39Z</time></trkpt><trkpt lat="43.56592732231198" lon="1.911043282449691"><ele>214.0</ele><time>2026-04-06T09:08:40Z</time></trkpt><trkpt lat="43.56593602989782" lon="1.9113313513631283"><ele>214.66666666666666</ele><time>2026-04-06T09:08:41Z</time></trkpt><trkpt lat="43.56594891659394" lon="1.9116223468928688"><ele>215.33333333333331</ele><time>2026-04-06T09:08:42Z</time></trkpt><trkpt lat="43.565962958145924" lon="1.9119128412903759"><ele>216.0</ele><time>2026-04-06T09:08:43Z</time></trkpt><trkpt lat="43.565972650441516" lon="1.9122040175983375"><ele>217.0</ele><time>2026-04-06T09:08:44Z</time></trkpt><trkpt lat="43.565981100974724" lon="1.9125046067160634"><ele>218.0</ele><time>2026-04-06T09:08:45Z</time></trkpt><trkpt lat="43.565992925337035" lon="1.9127986849746754"><ele>219.0</ele><time>2026-04-06T09:08:46Z</time></trkpt><trkpt lat="43.566000893439366" lon="1.913109851264118"><ele>219.33333333333331</ele><time>2026-04-06T09:08:47Z</time></trkpt><trkpt lat="43.56601519736027" lon="1.9134199197721213"><ele>219.66666666666666</ele><time>2026-04-06T09:08:48Z</time></trkpt><trkpt lat="43.566030123469204" lon="1.9137144052393158"><ele>220.0</ele><time>2026-04-06T09:08:49Z</time></trkpt><trkpt lat="43.56604650633685" lon="1.9140103776090318"><ele>221.33333333333331</ele><time>2026-04-06T09:08:50Z</time></trkpt><trkpt lat="43.566060594912045" lon="1.914307638348975"><ele>222.66666666666669</ele><time>2026-04-06T09:08:51Z</time></trkpt><trkpt lat="43.566075156073374" lon="1.914603570748376"><ele>224.0</ele><time>2026-04-06T09:08:52Z</time></trkpt><trkpt lat="43.566081799800386" lon="1.914897806115316"><ele>224.66666666666669</ele><time>2026-04-06T09:08:53Z</time></trkpt><trkpt lat="43.5660898891866" lon="1.915191938449049"><ele>225.33333333333331</ele><time>2026-04-06T09:08:53.999Z</time></trkpt><trkpt lat="43.56609462382145" lon="1.915487819819723"><ele>226.0</ele><time>2026-04-06T09:08:54.999Z</time></trkpt><trkpt lat="43.566105473609035" lon="1.9157829799404797"><ele>226.33333333333331</ele><time>2026-04-06T09:08:55.999Z</time></trkpt><trkpt lat="43.56611879891422" lon="1.9160785388797414"><ele>226.66666666666669</ele><time>2026-04-06T09:08:56.999Z</time></trkpt><trkpt lat="43.56613160757145" lon="1.916376056976413"><ele>227.0</ele><time>2026-04-06T09:08:57.999Z</time></trkpt><trkpt lat="43.5661424394918" lon="1.916669089384576"><ele>227.0</ele><time>2026-04-06T09:08:58.999Z</time></trkpt><trkpt lat="43.56615399672035" lon="1.9169656945569145"><ele>227.0</ele><time>2026-04-06T09:08:59.999Z</time></trkpt><trkpt lat="43.56616983460971" lon="1.9172500506635992"><ele>227.0</ele><time>2026-04-06T09:09:00.999Z</time></trkpt><trkpt lat="43.56618005639844" lon="1.9175349923715275"><ele>227.0</ele><time>2026-04-06T09:09:01.999Z</time></trkpt><trkpt lat="43.566195957903844" lon="1.9178245459612817"><ele>227.0</ele><time>2026-04-06T09:09:02.999Z</time></trkpt><trkpt lat="43.56620922350143" lon="1.9181170603028592"><ele>227.0</ele><time>2026-04-06T09:09:03.999Z</time></trkpt><trkpt lat="43.56622147812056" lon="1.9184057637299397"><ele>227.0</ele><time>2026-04-06T09:09:04.999Z</time></trkpt><trkpt lat="43.566232575524495" lon="1.91869036574241"><ele>227.0</ele><time>2026-04-06T09:09:05.999Z</time></trkpt><trkpt lat="43.56624251517557" lon="1.9189717367261647"><ele>227.0</ele><time>2026-04-06T09:09:06.999Z</time></trkpt><trkpt lat="43.566252624617945" lon="1.9192402927292471"><ele>227.0</ele><time>2026-04-06T09:09:07.999Z</time></trkpt><trkpt lat="43.56626093532849" lon="1.9195152107329834"><ele>227.0</ele><time>2026-04-06T09:09:08.999Z</time></trkpt><trkpt lat="43.56626988800923" lon="1.919790822582673"><ele>227.0</ele><time>2026-04-06T09:09:09.999Z</time></trkpt><trkpt lat="43.56628645550616" lon="1.9200769104645221"><ele>228.5</ele><time>2026-04-06T09:09:10.999Z</time></trkpt><trkpt lat="43.56630732794018" lon="1.920382721423538"><ele>230.0</ele><time>2026-04-06T09:09:11.999Z</time></trkpt><trkpt lat="43.56632216409095" lon="1.9207051240914732"><ele>230.0</ele><time>2026-04-06T09:09:12.999Z</time></trkpt><trkpt lat="43.566330395114136" lon="1.921038729851337"><ele>230.0</ele><time>2026-04-06T09:09:13.999Z</time></trkpt><trkpt lat="43.566341487890135" lon="1.9213928222926693"><ele>230.5</ele><time>2026-04-06T09:09:14.999Z</time></trkpt><trkpt lat="43.5663508163751" lon="1.9217561546828863"><ele>231.0</ele><time>2026-04-06T09:09:15.999Z</time></trkpt><trkpt lat="43.566367874150146" lon="1.922115482434565"><ele>231.0</ele><time>2026-04-06T09:09:16.999Z</time></trkpt><trkpt lat="43.56638820085898" lon="1.9224770580461035"><ele>231.0</ele><time>2026-04-06T09:09:17.999Z</time></trkpt><trkpt lat="43.566403360519466" lon="1.9228506745611615"><ele>231.5</ele><time>2026-04-06T09:09:18.999Z</time></trkpt><trkpt lat="43.56641384630132" lon="1.923217329075389"><ele>232.0</ele><time>2026-04-06T09:09:19.999Z</time></trkpt><trkpt lat="43.56642666042381" lon="1.9235870822280827"><ele>232.0</ele><time>2026-04-06T09:09:20.999Z</time></trkpt><trkpt lat="43.5664487513403" lon="1.9239584323993328"><ele>232.0</ele><time>2026-04-06T09:09:21.999Z</time></trkpt><trkpt lat="43.56645979783718" lon="1.9243411230891017"><ele>232.0</ele><time>2026-04-06T09:09:22.999Z</time></trkpt><trkpt lat="43.56647440992693" lon="1.9247317195142422"><ele>232.0</ele><time>2026-04-06T09:09:23.999Z</time></trkpt><trkpt lat="43.566494323736464" lon="1.925126058292947"><ele>232.5</ele><time>2026-04-06T09:09:24.999Z</time></trkpt><trkpt lat="43.56651589253039" lon="1.9255091130220936"><ele>233.0</ele><time>2026-04-06T09:09:25.999Z</time></trkpt><trkpt lat="43.56652871672003" lon="1.9258607331246158"><ele>233.0</ele><time>2026-04-06T09:09:26.999Z</time></trkpt><trkpt lat="43.56653389184668" lon="1.9262228549036504"><ele>233.0</ele><time>2026-04-06T09:09:27.999Z</time></trkpt><trkpt lat="43.56654537223323" lon="1.926600373495352"><ele>233.0</ele><time>2026-04-06T09:09:28.999Z</time></trkpt><trkpt lat="43.56655903979968" lon="1.9269801794116133"><ele>233.0</ele><time>2026-04-06T09:09:29.999Z</time></trkpt><trkpt lat="43.566576440756734" lon="1.9273720880403828"><ele>232.5</ele><time>2026-04-06T09:09:30.999Z</time></trkpt><trkpt lat="43.56659469315294" lon="1.9277790739617084"><ele>232.0</ele><time>2026-04-06T09:09:31.999Z</time></trkpt><trkpt lat="43.56661406538864" lon="1.9282058425626183"><ele>232.0</ele><time>2026-04-06T09:09:32.999Z</time></trkpt><trkpt lat="43.5666265592463" lon="1.9286278779999364"><ele>232.0</ele><time>2026-04-06T09:09:33.999Z</time></trkpt><trkpt lat="43.56663283101931" lon="1.9290217830899299"><ele>231.5</ele><time>2026-04-06T09:09:34.999Z</time></trkpt><trkpt lat="43.56664569152172" lon="1.9293943144130488"><ele>231.0</ele><time>2026-04-06T09:09:35.999Z</time></trkpt><trkpt lat="43.56665501249792" lon="1.92975034917053"><ele>231.0</ele><time>2026-04-06T09:09:36.999Z</time></trkpt><trkpt lat="43.566667082295105" lon="1.930094791288649"><ele>231.0</ele><time>2026-04-06T09:09:37.999Z</time></trkpt><trkpt lat="43.566679746853126" lon="1.9304238757416659"><ele>231.0</ele><time>2026-04-06T09:09:38.999Z</time></trkpt><trkpt lat="43.566696194022896" lon="1.9307480315516266"><ele>231.0</ele><time>2026-04-06T09:09:39.999Z</time></trkpt><trkpt lat="43.56670756485719" lon="1.9310573913092364"><ele>230.33333333333331</ele><time>2026-04-06T09:09:40.999Z</time></trkpt><trkpt lat="43.56671756522122" lon="1.9313505615806428"><ele>229.66666666666666</ele><time>2026-04-06T09:09:41.999Z</time></trkpt><trkpt lat="43.56672721296054" lon="1.9316305492962313"><ele>229.0</ele><time>2026-04-06T09:09:42.999Z</time></trkpt><trkpt lat="43.56673445200088" lon="1.931901712065672"><ele>229.0</ele><time>2026-04-06T09:09:43.999Z</time></trkpt><trkpt lat="43.56674315153594" lon="1.9321700304579186"><ele>229.0</ele><time>2026-04-06T09:09:44.999Z</time></trkpt><trkpt lat="43.566752325441406" lon="1.9324433680519195"><ele>229.0</ele><time>2026-04-06T09:09:45.999Z</time></trkpt><trkpt lat="43.56676319320451" lon="1.932722523851522"><ele>229.33333333333331</ele><time>2026-04-06T09:09:46.999Z</time></trkpt><trkpt lat="43.56677527134441" lon="1.932999978975108"><ele>229.66666666666669</ele><time>2026-04-06T09:09:47.999Z</time></trkpt><trkpt lat="43.56678111416305" lon="1.9332732800955923"><ele>230.0</ele><time>2026-04-06T09:09:48.999Z</time></trkpt><trkpt lat="43.56678566615749" lon="1.9335434807285818"><ele>230.0</ele><time>2026-04-06T09:09:49.999Z</time></trkpt><trkpt lat="43.56679124069058" lon="1.9338112496931599"><ele>230.0</ele><time>2026-04-06T09:09:50.999Z</time></trkpt><trkpt lat="43.566797406294846" lon="1.9340805976931048"><ele>230.0</ele><time>2026-04-06T09:09:51.999Z</time></trkpt><trkpt lat="43.566804952195724" lon="1.9343497892442318"><ele>230.0</ele><time>2026-04-06T09:09:52.999Z</time></trkpt><trkpt lat="43.56681465050315" lon="1.934617885215655"><ele>230.0</ele><time>2026-04-06T09:09:53.999Z</time></trkpt><trkpt lat="43.566823233638075" lon="1.934883226616007"><ele>230.0</ele><time>2026-04-06T09:09:54.999Z</time></trkpt><trkpt lat="43.566831127002" lon="1.9351418964990816"><ele>231.0</ele><time>2026-04-06T09:09:55.999Z</time></trkpt><trkpt lat="43.56684205003934" lon="1.9353996726178821"><ele>232.0</ele><time>2026-04-06T09:09:56.999Z</time></trkpt><trkpt lat="43.56685186946049" lon="1.9356561132467307"><ele>233.0</ele><time>2026-04-06T09:09:57.999Z</time></trkpt><trkpt lat="43.56686548678034" lon="1.9359164206594068"><ele>233.33333333333334</ele><time>2026-04-06T09:09:59Z</time></trkpt><trkpt lat="43.566875576373256" lon="1.936170336594698"><ele>233.66666666666669</ele><time>2026-04-06T09:10:00Z</time></trkpt><trkpt lat="43.5668857686589" lon="1.9364232755208248"><ele>234.0</ele><time>2026-04-06T09:10:01Z</time></trkpt><trkpt lat="43.566893991427776" lon="1.936674519736676"><ele>234.66666666666669</ele><time>2026-04-06T09:10:02Z</time></trkpt><trkpt lat="43.56689782808427" lon="1.9369173077046065"><ele>235.33333333333334</ele><time>2026-04-06T09:10:03Z</time></trkpt><trkpt lat="43.56690595738706" lon="1.937157464135793"><ele>236.0</ele><time>2026-04-06T09:10:04Z</time></trkpt><trkpt lat="43.56692018104471" lon="1.93740756974664"><ele>236.33333333333334</ele><time>2026-04-06T09:10:05Z</time></trkpt><trkpt lat="43.56693242693817" lon="1.937656103255267"><ele>236.66666666666669</ele><time>2026-04-06T09:10:06Z</time></trkpt><trkpt lat="43.566941989585914" lon="1.9379060590155435"><ele>237.0</ele><time>2026-04-06T09:10:07Z</time></trkpt><trkpt lat="43.56695261527895" lon="1.9381516923986275"><ele>238.0</ele><time>2026-04-06T09:10:08Z</time></trkpt><trkpt lat="43.56695974330744" lon="1.9384018226322477"><ele>239.0</ele><time>2026-04-06T09:10:09Z</time></trkpt><trkpt lat="43.56697074022773" lon="1.938652139547072"><ele>240.0</ele><time>2026-04-06T09:10:10Z</time></trkpt><trkpt lat="43.566980563029894" lon="1.9389020451747365"><ele>240.0</ele><time>2026-04-06T09:10:11Z</time></trkpt><trkpt lat="43.566987963802944" lon="1.9391533386656679"><ele>240.0</ele><time>2026-04-06T09:10:12Z</time></trkpt><trkpt lat="43.56699470727423" lon="1.9394144177369308"><ele>240.0</ele><time>2026-04-06T09:10:13Z</time></trkpt><trkpt lat="43.56700426535092" lon="1.9396768446574706"><ele>241.33333333333331</ele><time>2026-04-06T09:10:14Z</time></trkpt><trkpt lat="43.567014158382136" lon="1.9399373006194296"><ele>242.66666666666666</ele><time>2026-04-06T09:10:15Z</time></trkpt><trkpt lat="43.5670201214421" lon="1.940200804865229"><ele>244.0</ele><time>2026-04-06T09:10:16Z</time></trkpt><trkpt lat="43.56702930086745" lon="1.9404609326701157"><ele>246.0</ele><time>2026-04-06T09:10:17Z</time></trkpt><trkpt lat="43.567035683847855" lon="1.9407333114173644"><ele>248.0</ele><time>2026-04-06T09:10:18Z</time></trkpt><trkpt lat="43.56704350714129" lon="1.9410093814835374"><ele>250.0</ele><time>2026-04-06T09:10:19Z</time></trkpt><trkpt lat="43.56704928731002" lon="1.9412920477546538"><ele>250.0</ele><time>2026-04-06T09:10:20Z</time></trkpt><trkpt lat="43.56705779195278" lon="1.9415797001255395"><ele>250.0</ele><time>2026-04-06T09:10:21Z</time></trkpt><trkpt lat="43.56707517722572" lon="1.9418784979685872"><ele>250.0</ele><time>2026-04-06T09:10:22Z</time></trkpt><trkpt lat="43.56708989193254" lon="1.9421831780403778"><ele>249.66666666666666</ele><time>2026-04-06T09:10:23Z</time></trkpt><trkpt lat="43.56710383420021" lon="1.9424806575089277"><ele>249.33333333333331</ele><time>2026-04-06T09:10:24Z</time></trkpt><trkpt lat="43.56711473569576" lon="1.9427943247447337"><ele>249.0</ele><time>2026-04-06T09:10:25Z</time></trkpt><trkpt lat="43.56712853760766" lon="1.943096057761589"><ele>248.33333333333331</ele><time>2026-04-06T09:10:26Z</time></trkpt><trkpt lat="43.56714236050995" lon="1.9433988341924624"><ele>247.66666666666666</ele><time>2026-04-06T09:10:27Z</time></trkpt><trkpt lat="43.56715694631291" lon="1.9436944368253233"><ele>247.0</ele><time>2026-04-06T09:10:28Z</time></trkpt><trkpt lat="43.567166836323125" lon="1.9439873872648108"><ele>247.33333333333331</ele><time>2026-04-06T09:10:29Z</time></trkpt><trkpt lat="43.567178823446746" lon="1.9442803921475191"><ele>247.66666666666669</ele><time>2026-04-06T09:10:30Z</time></trkpt><trkpt lat="43.567190942148834" lon="1.944571807882179"><ele>248.0</ele><time>2026-04-06T09:10:31Z</time></trkpt><trkpt lat="43.56720184449984" lon="1.944863925778729"><ele>249.33333333333334</ele><time>2026-04-06T09:10:32Z</time></trkpt><trkpt lat="43.567210689085925" lon="1.9451512218819533"><ele>250.66666666666669</ele><time>2026-04-06T09:10:33Z</time></trkpt><trkpt lat="43.56722032447043" lon="1.94543793297627"><ele>252.0</ele><time>2026-04-06T09:10:34Z</time></trkpt><trkpt lat="43.567236727638466" lon="1.9457147834908866"><ele>252.33333333333331</ele><time>2026-04-06T09:10:35Z</time></trkpt><trkpt lat="43.56725255174173" lon="1.9459803311875512"><ele>252.66666666666666</ele><time>2026-04-06T09:10:36Z</time></trkpt><trkpt lat="43.56726761361867" lon="1.9462302841308385"><ele>253.0</ele><time>2026-04-06T09:10:37Z</time></trkpt><trkpt lat="43.56728144839047" lon="1.9464647926215057"><ele>253.0</ele><time>2026-04-06T09:10:38Z</time></trkpt><trkpt lat="43.56729037041063" lon="1.946689592399001"><ele>253.0</ele><time>2026-04-06T09:10:39Z</time></trkpt><trkpt lat="43.567301091625026" lon="1.9469003269814107"><ele>253.0</ele><time>2026-04-06T09:10:40Z</time></trkpt><trkpt lat="43.567295361897564" lon="1.9470916435758852"><ele>253.25</ele><time>2026-04-06T09:10:41Z</time></trkpt><trkpt lat="43.56729420891815" lon="1.9472712192038004"><ele>253.5</ele><time>2026-04-06T09:10:42Z</time></trkpt><trkpt lat="43.56729165256722" lon="1.9474449172355204"><ele>253.75</ele><time>2026-04-06T09:10:43Z</time></trkpt><trkpt lat="43.567291570563484" lon="1.9476215035674476"><ele>254.0</ele><time>2026-04-06T09:10:44Z</time></trkpt><trkpt lat="43.567277600808055" lon="1.9477827077762424"><ele>254.39999999999998</ele><time>2026-04-06T09:10:45Z</time></trkpt><trkpt lat="43.567264706496985" lon="1.9479359011048663"><ele>254.79999999999998</ele><time>2026-04-06T09:10:46Z</time></trkpt><trkpt lat="43.56724801556292" lon="1.9480772860755124"><ele>255.20000000000002</ele><time>2026-04-06T09:10:47Z</time></trkpt><trkpt lat="43.56723248889465" lon="1.9482073743205741"><ele>255.60000000000002</ele><time>2026-04-06T09:10:48Z</time></trkpt><trkpt lat="43.56720945358067" lon="1.9483265757555273"><ele>256.0</ele><time>2026-04-06T09:10:48.999Z</time></trkpt><trkpt lat="43.56718514861264" lon="1.9484398908213312"><ele>255.83333333333331</ele><time>2026-04-06T09:10:49.999Z</time></trkpt><trkpt lat="43.56714404684964" lon="1.9485317130387914"><ele>255.66666666666666</ele><time>2026-04-06T09:10:50.999Z</time></trkpt><trkpt lat="43.56709135033274" lon="1.9486113250147372"><ele>255.5</ele><time>2026-04-06T09:10:51.999Z</time></trkpt><trkpt lat="43.5670287551615" lon="1.9486765305759222"><ele>255.33333333333331</ele><time>2026-04-06T09:10:52.999Z</time></trkpt><trkpt lat="43.56699978693849" lon="1.94875760714625"><ele>255.16666666666666</ele><time>2026-04-06T09:10:53.999Z</time></trkpt><trkpt lat="43.566979402169984" lon="1.9488611333978063"><ele>255.0</ele><time>2026-04-06T09:10:54.999Z</time></trkpt><trkpt lat="43.56704859346313" lon="1.9489535931281559"><ele>255.8</ele><time>2026-04-06T09:10:56.999Z</time></trkpt><trkpt lat="43.56715390773966" lon="1.948986924383578"><ele>256.6</ele><time>2026-04-06T09:10:58.999Z</time></trkpt><trkpt lat="43.56726930219337" lon="1.9489119067521998"><ele>257.4</ele><time>2026-04-06T09:11:00.999Z</time></trkpt><trkpt lat="43.56732998611614" lon="1.9488477587461863"><ele>258.2</ele><time>2026-04-06T09:11:01.999Z</time></trkpt><trkpt lat="43.56741159025159" lon="1.9488142129436774"><ele>259.0</ele><time>2026-04-06T09:11:02.999Z</time></trkpt><trkpt lat="43.56749925237944" lon="1.9488010580831614"><ele>259.0</ele><time>2026-04-06T09:11:03.999Z</time></trkpt><trkpt lat="43.56759563538415" lon="1.9487884746577129"><ele>259.0</ele><time>2026-04-06T09:11:04.999Z</time></trkpt><trkpt lat="43.56768608682603" lon="1.9487997319151729"><ele>259.0</ele><time>2026-04-06T09:11:05.999Z</time></trkpt><trkpt lat="43.56777999565223" lon="1.9488010868346533"><ele>259.0</ele><time>2026-04-06T09:11:06.999Z</time></trkpt><trkpt lat="43.567870746063605" lon="1.9487991368311035"><ele>259.0</ele><time>2026-04-06T09:11:07.999Z</time></trkpt><trkpt lat="43.567961396023" lon="1.9487966664536531"><ele>259.0</ele><time>2026-04-06T09:11:08.999Z</time></trkpt><trkpt lat="43.568053833464774" lon="1.948793722853032"><ele>259.0</ele><time>2026-04-06T09:11:09.999Z</time></trkpt><trkpt lat="43.56814098801263" lon="1.9487962036365583"><ele>259.0</ele><time>2026-04-06T09:11:10.999Z</time></trkpt><trkpt lat="43.56821102694529" lon="1.9488067473778325"><ele>259.0</ele><time>2026-04-06T09:11:11.999Z</time></trkpt><trkpt lat="43.568304713339" lon="1.9488367063223855"><ele>259.0</ele><time>2026-04-06T09:11:13.999Z</time></trkpt><trkpt lat="43.568378745293835" lon="1.948923323265875"><ele>259.0</ele><time>2026-04-06T09:11:15.999Z</time></trkpt><trkpt lat="43.56839422737309" lon="1.949107242839156"><ele>259.75</ele><time>2026-04-06T09:11:17.999Z</time></trkpt><trkpt lat="43.568369076207844" lon="1.9492400375634205"><ele>260.5</ele><time>2026-04-06T09:11:18.999Z</time></trkpt><trkpt lat="43.56833379159532" lon="1.9493888393369938"><ele>261.25</ele><time>2026-04-06T09:11:19.999Z</time></trkpt><trkpt lat="43.56829484450852" lon="1.9495386358861877"><ele>262.0</ele><time>2026-04-06T09:11:20.999Z</time></trkpt><trkpt lat="43.56825274139091" lon="1.9497050724338227"><ele>262.0</ele><time>2026-04-06T09:11:21.999Z</time></trkpt><trkpt lat="43.5682081285933" lon="1.9498848101482653"><ele>262.0</ele><time>2026-04-06T09:11:22.999Z</time></trkpt><trkpt lat="43.56816355377226" lon="1.9500887570961032"><ele>262.0</ele><time>2026-04-06T09:11:23.999Z</time></trkpt><trkpt lat="43.568101822171876" lon="1.9502933584843587"><ele>262.66666666666663</ele><time>2026-04-06T09:11:24.999Z</time></trkpt><trkpt lat="43.56804199630818" lon="1.9505197841711746"><ele>263.3333333333333</ele><time>2026-04-06T09:11:25.999Z</time></trkpt><trkpt lat="43.56797525026363" lon="1.950746271701326"><ele>264.0</ele><time>2026-04-06T09:11:26.999Z</time></trkpt><trkpt lat="43.567912989939046" lon="1.9509948923105784"><ele>263.6666666666667</ele><time>2026-04-06T09:11:27.999Z</time></trkpt><trkpt lat="43.56786213544111" lon="1.9512348470181924"><ele>263.33333333333337</ele><time>2026-04-06T09:11:28.999Z</time></trkpt><trkpt lat="43.56782709694621" lon="1.951485123208567"><ele>263.0</ele><time>2026-04-06T09:11:29.999Z</time></trkpt><trkpt lat="43.56780093949199" lon="1.9517387745424768"><ele>262.6666666666667</ele><time>2026-04-06T09:11:30.999Z</time></trkpt><trkpt lat="43.56778337630656" lon="1.9519751659949476"><ele>262.3333333333333</ele><time>2026-04-06T09:11:31.999Z</time></trkpt><trkpt lat="43.56777031468743" lon="1.952214496740867"><ele>262.0</ele><time>2026-04-06T09:11:32.999Z</time></trkpt><trkpt lat="43.567758239168775" lon="1.9524560231603356"><ele>262.0</ele><time>2026-04-06T09:11:33.999Z</time></trkpt><trkpt lat="43.56773928460954" lon="1.9526944422080916"><ele>262.0</ele><time>2026-04-06T09:11:34.999Z</time></trkpt><trkpt lat="43.56770543477691" lon="1.9529266708523838"><ele>262.0</ele><time>2026-04-06T09:11:35.999Z</time></trkpt><trkpt lat="43.56768357368087" lon="1.9531704250180122"><ele>262.66666666666663</ele><time>2026-04-06T09:11:36.999Z</time></trkpt><trkpt lat="43.567665131419815" lon="1.953412728734441"><ele>263.3333333333333</ele><time>2026-04-06T09:11:37.999Z</time></trkpt><trkpt lat="43.56764942103483" lon="1.953648465891317"><ele>264.0</ele><time>2026-04-06T09:11:38.999Z</time></trkpt><trkpt lat="43.56763759032665" lon="1.9538789357071091"><ele>264.0</ele><time>2026-04-06T09:11:39.999Z</time></trkpt><trkpt lat="43.56763194960023" lon="1.9541164821702015"><ele>264.0</ele><time>2026-04-06T09:11:40.999Z</time></trkpt><trkpt lat="43.56763847423766" lon="1.9543510571490865"><ele>264.0</ele><time>2026-04-06T09:11:41.999Z</time></trkpt><trkpt lat="43.56765527817109" lon="1.9545738968753799"><ele>262.6666666666667</ele><time>2026-04-06T09:11:42.999Z</time></trkpt><trkpt lat="43.567683761596314" lon="1.954788986387939"><ele>261.33333333333337</ele><time>2026-04-06T09:11:43.999Z</time></trkpt><trkpt lat="43.567698332867124" lon="1.9549871994983978"><ele>260.0</ele><time>2026-04-06T09:11:44.999Z</time></trkpt><trkpt lat="43.56771926067505" lon="1.9551949667825343"><ele>258.6666666666667</ele><time>2026-04-06T09:11:45.999Z</time></trkpt><trkpt lat="43.567743284645836" lon="1.9554086218012403"><ele>257.3333333333333</ele><time>2026-04-06T09:11:46.999Z</time></trkpt><trkpt lat="43.567773066945264" lon="1.9556271752815664"><ele>256.0</ele><time>2026-04-06T09:11:47.999Z</time></trkpt><trkpt lat="43.56780527126211" lon="1.9558444027383934"><ele>254.33333333333331</ele><time>2026-04-06T09:11:48.999Z</time></trkpt><trkpt lat="43.567837609398424" lon="1.9560581280088725"><ele>252.66666666666669</ele><time>2026-04-06T09:11:49.999Z</time></trkpt><trkpt lat="43.567873404410946" lon="1.9562703137773405"><ele>251.0</ele><time>2026-04-06T09:11:50.999Z</time></trkpt><trkpt lat="43.56790967583728" lon="1.9564809861829788"><ele>254.0</ele><time>2026-04-06T09:11:51.999Z</time></trkpt><trkpt lat="43.56794446032289" lon="1.9567009024485356"><ele>257.0</ele><time>2026-04-06T09:11:52.999Z</time></trkpt><trkpt lat="43.56798034895355" lon="1.9569162546184513"><ele>260.0</ele><time>2026-04-06T09:11:53.999Z</time></trkpt><trkpt lat="43.56801381597543" lon="1.9571355722889232"><ele>260.0</ele><time>2026-04-06T09:11:54.999Z</time></trkpt><trkpt lat="43.56805222152693" lon="1.957355078032854"><ele>260.0</ele><time>2026-04-06T09:11:55.999Z</time></trkpt><trkpt lat="43.5680882204444" lon="1.9575825188064924"><ele>260.0</ele><time>2026-04-06T09:11:56.999Z</time></trkpt><trkpt lat="43.568121079769305" lon="1.957799887075197"><ele>259.33333333333337</ele><time>2026-04-06T09:11:57.999Z</time></trkpt><trkpt lat="43.56815823172221" lon="1.9580157860966825"><ele>258.6666666666667</ele><time>2026-04-06T09:11:58.999Z</time></trkpt><trkpt lat="43.56819140462648" lon="1.958234040058382"><ele>258.0</ele><time>2026-04-06T09:11:59.999Z</time></trkpt><trkpt lat="43.568223362205586" lon="1.9584513438201516"><ele>258.0</ele><time>2026-04-06T09:12:00.999Z</time></trkpt><trkpt lat="43.568258959787855" lon="1.95866383473119"><ele>258.0</ele><time>2026-04-06T09:12:01.999Z</time></trkpt><trkpt lat="43.56829496441664" lon="1.9588865302789509"><ele>258.0</ele><time>2026-04-06T09:12:02.999Z</time></trkpt><trkpt lat="43.568330807515025" lon="1.9591187221499906"><ele>257.3333333333333</ele><time>2026-04-06T09:12:03.999Z</time></trkpt><trkpt lat="43.56837100900141" lon="1.9593590394500542"><ele>256.66666666666663</ele><time>2026-04-06T09:12:05Z</time></trkpt><trkpt lat="43.56839843197598" lon="1.9596235194922393"><ele>256.0</ele><time>2026-04-06T09:12:06Z</time></trkpt><trkpt lat="43.568442668949075" lon="1.9599034708400898"><ele>254.0</ele><time>2026-04-06T09:12:07Z</time></trkpt><trkpt lat="43.568524903861324" lon="1.9602095207910533"><ele>252.0</ele><time>2026-04-06T09:12:08Z</time></trkpt><trkpt lat="43.56857867655575" lon="1.9605474793011242"><ele>250.0</ele><time>2026-04-06T09:12:09Z</time></trkpt><trkpt lat="43.56863003402247" lon="1.960885403302417"><ele>248.0</ele><time>2026-04-06T09:12:10Z</time></trkpt><trkpt lat="43.568688241098855" lon="1.9612499606578384"><ele>248.5</ele><time>2026-04-06T09:12:11Z</time></trkpt><trkpt lat="43.56871586785548" lon="1.9616265433551863"><ele>249.0</ele><time>2026-04-06T09:12:12Z</time></trkpt><trkpt lat="43.56877585669708" lon="1.9620036570945512"><ele>250.0</ele><time>2026-04-06T09:12:13Z</time></trkpt><trkpt lat="43.568834360153865" lon="1.9623714331022597"><ele>251.0</ele><time>2026-04-06T09:12:14Z</time></trkpt><trkpt lat="43.56890143749967" lon="1.962715297684951"><ele>252.5</ele><time>2026-04-06T09:12:15Z</time></trkpt><trkpt lat="43.56894429843076" lon="1.9630464121378166"><ele>254.0</ele><time>2026-04-06T09:12:16Z</time></trkpt><trkpt lat="43.56898556806323" lon="1.9633582913395435"><ele>255.33333333333334</ele><time>2026-04-06T09:12:17Z</time></trkpt><trkpt lat="43.56903397159106" lon="1.9636575419799878"><ele>256.6666666666667</ele><time>2026-04-06T09:12:18Z</time></trkpt><trkpt lat="43.569078784599924" lon="1.9639340192541774"><ele>258.0</ele><time>2026-04-06T09:12:19Z</time></trkpt><trkpt lat="43.56911778050879" lon="1.9641926197147117"><ele>259.0</ele><time>2026-04-06T09:12:20Z</time></trkpt><trkpt lat="43.569153802821994" lon="1.964432107113099"><ele>260.0</ele><time>2026-04-06T09:12:21Z</time></trkpt><trkpt lat="43.569188134419996" lon="1.9646578509757335"><ele>261.0</ele><time>2026-04-06T09:12:22Z</time></trkpt><trkpt lat="43.56922254704863" lon="1.9648753545607816"><ele>261.6666666666667</ele><time>2026-04-06T09:12:23Z</time></trkpt><trkpt lat="43.56925932525584" lon="1.9650961322789342"><ele>262.33333333333337</ele><time>2026-04-06T09:12:24Z</time></trkpt><trkpt lat="43.56929628275633" lon="1.9653173265602544"><ele>263.0</ele><time>2026-04-06T09:12:25Z</time></trkpt><trkpt lat="43.569330953756946" lon="1.9655358405611973"><ele>263.0</ele><time>2026-04-06T09:12:26Z</time></trkpt><trkpt lat="43.569365110155054" lon="1.9657575144931227"><ele>263.0</ele><time>2026-04-06T09:12:27Z</time></trkpt><trkpt lat="43.56939948336136" lon="1.965982939527693"><ele>263.0</ele><time>2026-04-06T09:12:28Z</time></trkpt><trkpt lat="43.56943594165541" lon="1.9662086644569117"><ele>263.33333333333337</ele><time>2026-04-06T09:12:29Z</time></trkpt><trkpt lat="43.56947205777213" lon="1.9664334776603398"><ele>263.6666666666667</ele><time>2026-04-06T09:12:30Z</time></trkpt><trkpt lat="43.56950685766998" lon="1.9666568767479564"><ele>264.0</ele><time>2026-04-06T09:12:31Z</time></trkpt><trkpt lat="43.569542003639384" lon="1.966884503427506"><ele>264.0</ele><time>2026-04-06T09:12:32Z</time></trkpt><trkpt lat="43.569575538997086" lon="1.9671144502010356"><ele>264.0</ele><time>2026-04-06T09:12:33Z</time></trkpt><trkpt lat="43.56960943127223" lon="1.967345918066473"><ele>264.0</ele><time>2026-04-06T09:12:34Z</time></trkpt><trkpt lat="43.56964742106517" lon="1.9675802980597152"><ele>262.6666666666667</ele><time>2026-04-06T09:12:35Z</time></trkpt><trkpt lat="43.56968504458091" lon="1.9678175425934805"><ele>261.33333333333337</ele><time>2026-04-06T09:12:36Z</time></trkpt><trkpt lat="43.56972298214405" lon="1.968060516352619"><ele>260.0</ele><time>2026-04-06T09:12:37Z</time></trkpt><trkpt lat="43.569759892442825" lon="1.9683042746661823"><ele>260.0</ele><time>2026-04-06T09:12:38Z</time></trkpt><trkpt lat="43.569793542804156" lon="1.968544854830798"><ele>260.0</ele><time>2026-04-06T09:12:39Z</time></trkpt><trkpt lat="43.569830061729874" lon="1.9687870867789734"><ele>260.0</ele><time>2026-04-06T09:12:40Z</time></trkpt><trkpt lat="43.569868569578205" lon="1.9690297739558544"><ele>259.33333333333337</ele><time>2026-04-06T09:12:41Z</time></trkpt><trkpt lat="43.56990682641181" lon="1.9692718404987857"><ele>258.6666666666667</ele><time>2026-04-06T09:12:42Z</time></trkpt><trkpt lat="43.569943733508104" lon="1.9695119304398916"><ele>258.0</ele><time>2026-04-06T09:12:43Z</time></trkpt><trkpt lat="43.56998154294867" lon="1.9697474861017645"><ele>258.0</ele><time>2026-04-06T09:12:44Z</time></trkpt><trkpt lat="43.570019017711815" lon="1.969985559952084"><ele>258.0</ele><time>2026-04-06T09:12:45Z</time></trkpt><trkpt lat="43.570055709887214" lon="1.9702208300022175"><ele>258.0</ele><time>2026-04-06T09:12:46Z</time></trkpt><trkpt lat="43.57009143104563" lon="1.9704582638865238"><ele>257.3333333333333</ele><time>2026-04-06T09:12:47Z</time></trkpt><trkpt lat="43.57012763241331" lon="1.9706953401739653"><ele>256.66666666666663</ele><time>2026-04-06T09:12:48Z</time></trkpt><trkpt lat="43.57016688373118" lon="1.9709342083646564"><ele>256.0</ele><time>2026-04-06T09:12:49Z</time></trkpt><trkpt lat="43.57020596319004" lon="1.9711737511571414"><ele>255.0</ele><time>2026-04-06T09:12:50Z</time></trkpt><trkpt lat="43.57024638212357" lon="1.971414461189447"><ele>254.0</ele><time>2026-04-06T09:12:51Z</time></trkpt><trkpt lat="43.57029055011205" lon="1.9716571180996258"><ele>253.0</ele><time>2026-04-06T09:12:52Z</time></trkpt><trkpt lat="43.57033369257655" lon="1.971895899049309"><ele>254.0</ele><time>2026-04-06T09:12:53Z</time></trkpt><trkpt lat="43.57037778742954" lon="1.9721408188088072"><ele>255.0</ele><time>2026-04-06T09:12:54Z</time></trkpt><trkpt lat="43.570415334089866" lon="1.9723774065405628"><ele>256.0</ele><time>2026-04-06T09:12:55Z</time></trkpt><trkpt lat="43.57045533356969" lon="1.9726146078165614"><ele>256.66666666666663</ele><time>2026-04-06T09:12:56Z</time></trkpt><trkpt lat="43.57049410633381" lon="1.9728416267175477"><ele>257.3333333333333</ele><time>2026-04-06T09:12:56.999Z</time></trkpt><trkpt lat="43.570530931478224" lon="1.973059218404616"><ele>258.0</ele><time>2026-04-06T09:12:57.999Z</time></trkpt><trkpt lat="43.57056224820533" lon="1.9732652887653876"><ele>258.25</ele><time>2026-04-06T09:12:58.999Z</time></trkpt><trkpt lat="43.570587853269586" lon="1.9734597603873785"><ele>258.5</ele><time>2026-04-06T09:12:59.999Z</time></trkpt><trkpt lat="43.57060477052857" lon="1.973642105232127"><ele>258.75</ele><time>2026-04-06T09:13:00.999Z</time></trkpt><trkpt lat="43.57061349217143" lon="1.9738146221256296"><ele>259.0</ele><time>2026-04-06T09:13:01.999Z</time></trkpt><trkpt lat="43.57061233706466" lon="1.973977077983105"><ele>259.0</ele><time>2026-04-06T09:13:02.999Z</time></trkpt><trkpt lat="43.57060411179085" lon="1.974123483145811"><ele>259.0</ele><time>2026-04-06T09:13:03.999Z</time></trkpt><trkpt lat="43.57058277995426" lon="1.9742529316329993"><ele>259.0</ele><time>2026-04-06T09:13:04.999Z</time></trkpt><trkpt lat="43.57054426402914" lon="1.974370948619077"><ele>259.0</ele><time>2026-04-06T09:13:05.999Z</time></trkpt><trkpt lat="43.570482515951724" lon="1.9744589481249883"><ele>259.0</ele><time>2026-04-06T09:13:06.999Z</time></trkpt><trkpt lat="43.57042264231462" lon="1.9745553689958255"><ele>258.4</ele><time>2026-04-06T09:13:07.999Z</time></trkpt><trkpt lat="43.570388959038425" lon="1.9746719397633352"><ele>257.79999999999995</ele><time>2026-04-06T09:13:08.999Z</time></trkpt><trkpt lat="43.57038070084396" lon="1.97479314771418"><ele>257.20000000000005</ele><time>2026-04-06T09:13:09.999Z</time></trkpt><trkpt lat="43.57039053925051" lon="1.9749252061250888"><ele>256.6</ele><time>2026-04-06T09:13:10.999Z</time></trkpt><trkpt lat="43.570394449355454" lon="1.9750803352194184"><ele>256.0</ele><time>2026-04-06T09:13:11.999Z</time></trkpt><trkpt lat="43.570349655897544" lon="1.9752448409065984"><ele>256.0</ele><time>2026-04-06T09:13:12.999Z</time></trkpt><trkpt lat="43.5702690663138" lon="1.9754084839256185"><ele>256.0</ele><time>2026-04-06T09:13:13.999Z</time></trkpt><trkpt lat="43.570191128923696" lon="1.9756104036511388"><ele>256.0</ele><time>2026-04-06T09:13:14.999Z</time></trkpt><trkpt lat="43.57011415030937" lon="1.9758611433554114"><ele>256.0</ele><time>2026-04-06T09:13:15.999Z</time></trkpt><trkpt lat="43.57003175578699" lon="1.9761129512580522"><ele>256.0</ele><time>2026-04-06T09:13:16.999Z</time></trkpt><trkpt lat="43.569948212430056" lon="1.9763848607452053"><ele>256.0</ele><time>2026-04-06T09:13:17.999Z</time></trkpt><trkpt lat="43.56986383248925" lon="1.9766804571065546"><ele>258.0</ele><time>2026-04-06T09:13:18.999Z</time></trkpt><trkpt lat="43.56978374816703" lon="1.9769949983503736"><ele>260.0</ele><time>2026-04-06T09:13:19.999Z</time></trkpt><trkpt lat="43.5697040611539" lon="1.9773192080891144"><ele>263.5</ele><time>2026-04-06T09:13:20.999Z</time></trkpt><trkpt lat="43.56962498489816" lon="1.9776488171764008"><ele>267.0</ele><time>2026-04-06T09:13:21.999Z</time></trkpt><trkpt lat="43.5695459272429" lon="1.9779735283968525"><ele>266.5</ele><time>2026-04-06T09:13:22.999Z</time></trkpt><trkpt lat="43.569463004138946" lon="1.9782901137242017"><ele>266.0</ele><time>2026-04-06T09:13:23.999Z</time></trkpt><trkpt lat="43.56937928835716" lon="1.9786029228047475"><ele>266.0</ele><time>2026-04-06T09:13:24.999Z</time></trkpt><trkpt lat="43.56929638092019" lon="1.978915815037093"><ele>266.0</ele><time>2026-04-06T09:13:25.999Z</time></trkpt><trkpt lat="43.56921161760006" lon="1.9792259369632625"><ele>266.0</ele><time>2026-04-06T09:13:26.999Z</time></trkpt><trkpt lat="43.56912402746916" lon="1.9795350336782438"><ele>266.0</ele><time>2026-04-06T09:13:27.999Z</time></trkpt><trkpt lat="43.56902693150639" lon="1.9798363722467278"><ele>265.0</ele><time>2026-04-06T09:13:28.999Z</time></trkpt><trkpt lat="43.56892845558484" lon="1.9801332911229517"><ele>264.0</ele><time>2026-04-06T09:13:29.999Z</time></trkpt><trkpt lat="43.56883145753485" lon="1.9804337787386417"><ele>264.0</ele><time>2026-04-06T09:13:30.999Z</time></trkpt><trkpt lat="43.56873822538693" lon="1.9807375284504023"><ele>264.0</ele><time>2026-04-06T09:13:31.999Z</time></trkpt><trkpt lat="43.56865770435233" lon="1.9810432350682967"><ele>263.0</ele><time>2026-04-06T09:13:32.999Z</time></trkpt><trkpt lat="43.56858245528367" lon="1.9813500449138743"><ele>262.0</ele><time>2026-04-06T09:13:33.999Z</time></trkpt><trkpt lat="43.56850480375177" lon="1.9816596493453267"><ele>263.0</ele><time>2026-04-06T09:13:34.999Z</time></trkpt><trkpt lat="43.5684208690781" lon="1.981969047093829"><ele>264.0</ele><time>2026-04-06T09:13:35.999Z</time></trkpt><trkpt lat="43.56833167874065" lon="1.9822732454224168"><ele>266.0</ele><time>2026-04-06T09:13:36.999Z</time></trkpt><trkpt lat="43.56823841759731" lon="1.9825768141158724"><ele>268.0</ele><time>2026-04-06T09:13:37.999Z</time></trkpt><trkpt lat="43.56813782780269" lon="1.9828826824269692"><ele>268.0</ele><time>2026-04-06T09:13:38.999Z</time></trkpt><trkpt lat="43.56803278219972" lon="1.9831810447805027"><ele>268.0</ele><time>2026-04-06T09:13:39.999Z</time></trkpt><trkpt lat="43.56792353890414" lon="1.9834867561132763"><ele>268.0</ele><time>2026-04-06T09:13:40.999Z</time></trkpt><trkpt lat="43.56780974632142" lon="1.9837930053154162"><ele>268.0</ele><time>2026-04-06T09:13:41.999Z</time></trkpt><trkpt lat="43.567689484798144" lon="1.9840983869614282"><ele>269.5</ele><time>2026-04-06T09:13:42.999Z</time></trkpt><trkpt lat="43.56756659528764" lon="1.9843979396558717"><ele>271.0</ele><time>2026-04-06T09:13:43.999Z</time></trkpt><trkpt lat="43.56744058215812" lon="1.9846916410060744"><ele>271.0</ele><time>2026-04-06T09:13:44.999Z</time></trkpt><trkpt lat="43.56731212867196" lon="1.9849830356561957"><ele>271.0</ele><time>2026-04-06T09:13:45.999Z</time></trkpt><trkpt lat="43.56718095895817" lon="1.9852753580305729"><ele>272.5</ele><time>2026-04-06T09:13:46.999Z</time></trkpt><trkpt lat="43.56704549385112" lon="1.9855661076625168"><ele>274.0</ele><time>2026-04-06T09:13:47.999Z</time></trkpt><trkpt lat="43.566905044684944" lon="1.985852762810804"><ele>275.5</ele><time>2026-04-06T09:13:48.999Z</time></trkpt><trkpt lat="43.566758787981286" lon="1.9861354760748882"><ele>277.0</ele><time>2026-04-06T09:13:49.999Z</time></trkpt><trkpt lat="43.56660842156947" lon="1.9864140488613256"><ele>277.5</ele><time>2026-04-06T09:13:50.999Z</time></trkpt><trkpt lat="43.56645817502551" lon="1.9866929036904057"><ele>278.0</ele><time>2026-04-06T09:13:51.999Z</time></trkpt><trkpt lat="43.56630490045245" lon="1.986972619113467"><ele>279.0</ele><time>2026-04-06T09:13:52.999Z</time></trkpt><trkpt lat="43.566144033448445" lon="1.9872492864873377"><ele>280.0</ele><time>2026-04-06T09:13:53.999Z</time></trkpt><trkpt lat="43.56597656468317" lon="1.987517299883305"><ele>282.0</ele><time>2026-04-06T09:13:54.999Z</time></trkpt><trkpt lat="43.56580608144393" lon="1.9877830398580925"><ele>284.0</ele><time>2026-04-06T09:13:55.999Z</time></trkpt><trkpt lat="43.56563159715028" lon="1.988047840268105"><ele>284.0</ele><time>2026-04-06T09:13:56.999Z</time></trkpt><trkpt lat="43.565457285361475" lon="1.9883092067208465"><ele>284.0</ele><time>2026-04-06T09:13:57.999Z</time></trkpt><trkpt lat="43.56528160536112" lon="1.9885598320128275"><ele>287.0</ele><time>2026-04-06T09:13:58.999Z</time></trkpt><trkpt lat="43.56510756845064" lon="1.9888022584907339"><ele>290.0</ele><time>2026-04-06T09:13:59.999Z</time></trkpt><trkpt lat="43.56493050019151" lon="1.9890325272493277"><ele>288.5</ele><time>2026-04-06T09:14:00.999Z</time></trkpt><trkpt lat="43.56475219717902" lon="1.9892509692100244"><ele>287.0</ele><time>2026-04-06T09:14:01.999Z</time></trkpt><trkpt lat="43.56457311472859" lon="1.989464326423839"><ele>286.5</ele><time>2026-04-06T09:14:02.999Z</time></trkpt><trkpt lat="43.564398939004384" lon="1.989673294319688"><ele>286.0</ele><time>2026-04-06T09:14:03.999Z</time></trkpt><trkpt lat="43.564225979676614" lon="1.989875794807569"><ele>284.66666666666663</ele><time>2026-04-06T09:14:04.999Z</time></trkpt><trkpt lat="43.564054216367616" lon="1.9900722627148089"><ele>283.3333333333333</ele><time>2026-04-06T09:14:05.999Z</time></trkpt><trkpt lat="43.56388381032608" lon="1.9902625959824791"><ele>282.0</ele><time>2026-04-06T09:14:06.999Z</time></trkpt><trkpt lat="43.5637124135961" lon="1.990447882420403"><ele>282.6666666666667</ele><time>2026-04-06T09:14:07.999Z</time></trkpt><trkpt lat="43.56354222105591" lon="1.9906332383623164"><ele>283.33333333333337</ele><time>2026-04-06T09:14:08.999Z</time></trkpt><trkpt lat="43.5633719720516" lon="1.9908165707091343"><ele>284.0</ele><time>2026-04-06T09:14:09.999Z</time></trkpt><trkpt lat="43.563202975484835" lon="1.990995928866779"><ele>284.0</ele><time>2026-04-06T09:14:11Z</time></trkpt><trkpt lat="43.56303217601678" lon="1.9911804833347193"><ele>284.0</ele><time>2026-04-06T09:14:12Z</time></trkpt><trkpt lat="43.562860078529646" lon="1.9913650857483387"><ele>284.0</ele><time>2026-04-06T09:14:13Z</time></trkpt><trkpt lat="43.562692123330585" lon="1.991544928306958"><ele>285.0</ele><time>2026-04-06T09:14:14Z</time></trkpt><trkpt lat="43.56252211033551" lon="1.9917255236279132"><ele>286.0</ele><time>2026-04-06T09:14:15Z</time></trkpt><trkpt lat="43.562351982598386" lon="1.9919030353338791"><ele>287.0</ele><time>2026-04-06T09:14:16Z</time></trkpt><trkpt lat="43.562182376651634" lon="1.9920806122432622"><ele>287.0</ele><time>2026-04-06T09:14:17Z</time></trkpt><trkpt lat="43.56201382488691" lon="1.992257958925903"><ele>287.0</ele><time>2026-04-06T09:14:18Z</time></trkpt><trkpt lat="43.56184576370011" lon="1.992436968472861"><ele>287.0</ele><time>2026-04-06T09:14:19Z</time></trkpt><trkpt lat="43.5616806021745" lon="1.9926176226094792"><ele>287.0</ele><time>2026-04-06T09:14:20Z</time></trkpt><trkpt lat="43.56152070696806" lon="1.9927801891730266"><ele>287.0</ele><time>2026-04-06T09:14:21Z</time></trkpt><trkpt lat="43.5613578734802" lon="1.9929485132194416"><ele>287.0</ele><time>2026-04-06T09:14:22Z</time></trkpt><trkpt lat="43.561193922027805" lon="1.993119819082875"><ele>286.6666666666667</ele><time>2026-04-06T09:14:23Z</time></trkpt><trkpt lat="43.56103041067529" lon="1.9932921523914304"><ele>286.3333333333333</ele><time>2026-04-06T09:14:24Z</time></trkpt><trkpt lat="43.560868296705124" lon="1.993465631741431"><ele>286.0</ele><time>2026-04-06T09:14:25Z</time></trkpt><trkpt lat="43.56070402047211" lon="1.9936377876206626"><ele>286.0</ele><time>2026-04-06T09:14:26Z</time></trkpt><trkpt lat="43.56054146673497" lon="1.9938119426509378"><ele>286.0</ele><time>2026-04-06T09:14:27Z</time></trkpt><trkpt lat="43.56037748092626" lon="1.9939831889770738"><ele>286.0</ele><time>2026-04-06T09:14:28Z</time></trkpt><trkpt lat="43.560215729681865" lon="1.9941527267409844"><ele>287.0</ele><time>2026-04-06T09:14:29Z</time></trkpt><trkpt lat="43.560051771160715" lon="1.9943238348419514"><ele>288.0</ele><time>2026-04-06T09:14:30Z</time></trkpt><trkpt lat="43.55988943829361" lon="1.9944968198659208"><ele>289.0</ele><time>2026-04-06T09:14:31Z</time></trkpt><trkpt lat="43.55972625962216" lon="1.9946700643683868"><ele>289.0</ele><time>2026-04-06T09:14:32Z</time></trkpt><trkpt lat="43.55956122841822" lon="1.9948465026490287"><ele>289.0</ele><time>2026-04-06T09:14:33Z</time></trkpt><trkpt lat="43.55939488745398" lon="1.9950234484560372"><ele>289.0</ele><time>2026-04-06T09:14:34Z</time></trkpt><trkpt lat="43.55922858333708" lon="1.9952031489542243"><ele>289.0</ele><time>2026-04-06T09:14:35Z</time></trkpt><trkpt lat="43.5590638910047" lon="1.9953901944559354"><ele>289.0</ele><time>2026-04-06T09:14:36Z</time></trkpt><trkpt lat="43.55890262020632" lon="1.9955825123894237"><ele>289.0</ele><time>2026-04-06T09:14:37Z</time></trkpt><trkpt lat="43.558744703263685" lon="1.995775947730218"><ele>288.0</ele><time>2026-04-06T09:14:38Z</time></trkpt><trkpt lat="43.55858883178226" lon="1.9959694034842452"><ele>287.0</ele><time>2026-04-06T09:14:39Z</time></trkpt><trkpt lat="43.55843477484394" lon="1.9961636624114314"><ele>286.0</ele><time>2026-04-06T09:14:40Z</time></trkpt><trkpt lat="43.55828298964384" lon="1.996362748346886"><ele>286.0</ele><time>2026-04-06T09:14:41Z</time></trkpt><trkpt lat="43.55813331408971" lon="1.9965659110303513"><ele>286.0</ele><time>2026-04-06T09:14:42Z</time></trkpt><trkpt lat="43.557985193063054" lon="1.9967738656649483"><ele>286.0</ele><time>2026-04-06T09:14:43Z</time></trkpt><trkpt lat="43.557839013195746" lon="1.9969851668198455"><ele>285.0</ele><time>2026-04-06T09:14:44Z</time></trkpt><trkpt lat="43.55769423191119" lon="1.997202272532105"><ele>284.0</ele><time>2026-04-06T09:14:45Z</time></trkpt><trkpt lat="43.557550692537355" lon="1.9974203083665025"><ele>283.0</ele><time>2026-04-06T09:14:46Z</time></trkpt><trkpt lat="43.55741107115537" lon="1.997637771667737"><ele>283.0</ele><time>2026-04-06T09:14:47Z</time></trkpt><trkpt lat="43.557274246467585" lon="1.9978587179140386"><ele>283.0</ele><time>2026-04-06T09:14:48Z</time></trkpt><trkpt lat="43.557143768884245" lon="1.9980783701564016"><ele>283.0</ele><time>2026-04-06T09:14:49Z</time></trkpt><trkpt lat="43.55701584210889" lon="1.9982963598054713"><ele>284.0</ele><time>2026-04-06T09:14:50Z</time></trkpt><trkpt lat="43.55688402799859" lon="1.9985240362096925"><ele>285.0</ele><time>2026-04-06T09:14:51Z</time></trkpt><trkpt lat="43.55674826780888" lon="1.9987566304626054"><ele>286.0</ele><time>2026-04-06T09:14:52Z</time></trkpt><trkpt lat="43.55660218677411" lon="1.9990159183673786"><ele>287.0</ele><time>2026-04-06T09:14:53Z</time></trkpt><trkpt lat="43.55646397130907" lon="1.9992751312121035"><ele>288.0</ele><time>2026-04-06T09:14:54Z</time></trkpt><trkpt lat="43.556315821867244" lon="1.9995552798389657"><ele>287.5</ele><time>2026-04-06T09:14:55Z</time></trkpt><trkpt lat="43.55616054785503" lon="1.9998466952465035"><ele>287.0</ele><time>2026-04-06T09:14:56Z</time></trkpt><trkpt lat="43.55600030344972" lon="2.0001429971168445"><ele>287.0</ele><time>2026-04-06T09:14:57Z</time></trkpt><trkpt lat="43.55583704865699" lon="2.0004433977277234"><ele>287.0</ele><time>2026-04-06T09:14:58Z</time></trkpt><trkpt lat="43.55570820292415" lon="2.0006966369378456"><ele>283.0</ele><time>2026-04-06T09:14:59Z</time></trkpt><trkpt lat="43.555585086436366" lon="2.0009584747256772"><ele>279.0</ele><time>2026-04-06T09:15:00Z</time></trkpt><trkpt lat="43.555460545311114" lon="2.0012459671719447"><ele>280.0</ele><time>2026-04-06T09:15:01Z</time></trkpt><trkpt lat="43.55532977335751" lon="2.0015348743986787"><ele>281.0</ele><time>2026-04-06T09:15:02Z</time></trkpt><trkpt lat="43.55519234066493" lon="2.0018162774901653"><ele>281.0</ele><time>2026-04-06T09:15:03Z</time></trkpt><trkpt lat="43.55505165590404" lon="2.0021124461273794"><ele>281.0</ele><time>2026-04-06T09:15:04Z</time></trkpt><trkpt lat="43.55490805054259" lon="2.002406740644389"><ele>273.5</ele><time>2026-04-06T09:15:05Z</time></trkpt><trkpt lat="43.55476845434033" lon="2.0026952594120377"><ele>266.0</ele><time>2026-04-06T09:15:05.999Z</time></trkpt><trkpt lat="43.55463144522715" lon="2.0029833168070152"><ele>269.0</ele><time>2026-04-06T09:15:06.999Z</time></trkpt><trkpt lat="43.55449036336789" lon="2.0032662880802916"><ele>272.0</ele><time>2026-04-06T09:15:07.999Z</time></trkpt><trkpt lat="43.5543501400695" lon="2.003547285847476"><ele>266.0</ele><time>2026-04-06T09:15:08.999Z</time></trkpt><trkpt lat="43.55420110035679" lon="2.0038362637570972"><ele>260.0</ele><time>2026-04-06T09:15:09.999Z</time></trkpt><trkpt lat="43.55406147802546" lon="2.0041166784061417"><ele>256.5</ele><time>2026-04-06T09:15:10.999Z</time></trkpt><trkpt lat="43.55392046930278" lon="2.0043993528515873"><ele>253.0</ele><time>2026-04-06T09:15:11.999Z</time></trkpt><trkpt lat="43.55377838310289" lon="2.0046808883982807"><ele>253.5</ele><time>2026-04-06T09:15:12.999Z</time></trkpt><trkpt lat="43.55363448414849" lon="2.0049631695725822"><ele>254.0</ele><time>2026-04-06T09:15:13.999Z</time></trkpt><trkpt lat="43.55348927706946" lon="2.0052509203466524"><ele>249.0</ele><time>2026-04-06T09:15:14.999Z</time></trkpt><trkpt lat="43.553347422634324" lon="2.0055424590171596"><ele>244.0</ele><time>2026-04-06T09:15:15.999Z</time></trkpt><trkpt lat="43.55320722405827" lon="2.005832736418012"><ele>240.5</ele><time>2026-04-06T09:15:16.999Z</time></trkpt><trkpt lat="43.553067004260384" lon="2.006123865562002"><ele>237.0</ele><time>2026-04-06T09:15:17.999Z</time></trkpt><trkpt lat="43.55292723112484" lon="2.006409372682997"><ele>236.5</ele><time>2026-04-06T09:15:18.999Z</time></trkpt><trkpt lat="43.552784624181214" lon="2.0066895632069324"><ele>236.0</ele><time>2026-04-06T09:15:19.999Z</time></trkpt><trkpt lat="43.55264023491567" lon="2.006972832814275"><ele>236.0</ele><time>2026-04-06T09:15:20.999Z</time></trkpt><trkpt lat="43.55249764062149" lon="2.0072561492486263"><ele>236.0</ele><time>2026-04-06T09:15:21.999Z</time></trkpt><trkpt lat="43.552354933736254" lon="2.0075395458918623"><ele>239.0</ele><time>2026-04-06T09:15:22.999Z</time></trkpt><trkpt lat="43.55221494920709" lon="2.0078241639261627"><ele>242.0</ele><time>2026-04-06T09:15:23.999Z</time></trkpt><trkpt lat="43.55207268203955" lon="2.0081088309158517"><ele>240.0</ele><time>2026-04-06T09:15:24.999Z</time></trkpt><trkpt lat="43.55193425630546" lon="2.0083872795623194"><ele>238.0</ele><time>2026-04-06T09:15:25.999Z</time></trkpt><trkpt lat="43.55179442411888" lon="2.0086686729272274"><ele>238.0</ele><time>2026-04-06T09:15:26.999Z</time></trkpt><trkpt lat="43.551647796746394" lon="2.008966738159377"><ele>238.0</ele><time>2026-04-06T09:15:27.999Z</time></trkpt><trkpt lat="43.55150965273529" lon="2.0092642296003604"><ele>241.5</ele><time>2026-04-06T09:15:28.999Z</time></trkpt><trkpt lat="43.55137885449708" lon="2.009564860065087"><ele>245.0</ele><time>2026-04-06T09:15:29.999Z</time></trkpt><trkpt lat="43.5512570693425" lon="2.0098705057422146"><ele>238.5</ele><time>2026-04-06T09:15:30.999Z</time></trkpt><trkpt lat="43.5511402284286" lon="2.0101784979388517"><ele>232.0</ele><time>2026-04-06T09:15:31.999Z</time></trkpt><trkpt lat="43.55103070281022" lon="2.01049044776498"><ele>232.0</ele><time>2026-04-06T09:15:32.999Z</time></trkpt><trkpt lat="43.55092941534227" lon="2.0108032385966514"><ele>232.0</ele><time>2026-04-06T09:15:33.999Z</time></trkpt><trkpt lat="43.550834437919136" lon="2.011121490041844"><ele>231.5</ele><time>2026-04-06T09:15:34.999Z</time></trkpt><trkpt lat="43.55074488208789" lon="2.01144161214292"><ele>231.0</ele><time>2026-04-06T09:15:35.999Z</time></trkpt><trkpt lat="43.55066470312277" lon="2.011769069962145"><ele>230.5</ele><time>2026-04-06T09:15:36.999Z</time></trkpt><trkpt lat="43.55059161938939" lon="2.012091806004821"><ele>230.0</ele><time>2026-04-06T09:15:37.999Z</time></trkpt><trkpt lat="43.550521779782706" lon="2.0124281595587488"><ele>229.5</ele><time>2026-04-06T09:15:38.999Z</time></trkpt><trkpt lat="43.55045509538146" lon="2.012777033234039"><ele>229.0</ele><time>2026-04-06T09:15:39.999Z</time></trkpt><trkpt lat="43.550393759776156" lon="2.0131130473695182"><ele>227.0</ele><time>2026-04-06T09:15:40.999Z</time></trkpt><trkpt lat="43.550340741860396" lon="2.0134548454589773"><ele>225.0</ele><time>2026-04-06T09:15:41.999Z</time></trkpt><trkpt lat="43.55029612929149" lon="2.0137973049122393"><ele>225.0</ele><time>2026-04-06T09:15:42.999Z</time></trkpt><trkpt lat="43.550263256615644" lon="2.0141345459124844"><ele>225.0</ele><time>2026-04-06T09:15:43.999Z</time></trkpt><trkpt lat="43.55023676093302" lon="2.014479246525217"><ele>224.0</ele><time>2026-04-06T09:15:44.999Z</time></trkpt><trkpt lat="43.550218496086586" lon="2.01482059326173"><ele>223.0</ele><time>2026-04-06T09:15:45.999Z</time></trkpt><trkpt lat="43.550205383832484" lon="2.0151647557879877"><ele>222.0</ele><time>2026-04-06T09:15:46.999Z</time></trkpt><trkpt lat="43.55020188973537" lon="2.015508049257768"><ele>221.0</ele><time>2026-04-06T09:15:47.999Z</time></trkpt><trkpt lat="43.55020410091657" lon="2.015854209777389"><ele>220.0</ele><time>2026-04-06T09:15:48.999Z</time></trkpt><trkpt lat="43.55021287984839" lon="2.016202002974448"><ele>219.0</ele><time>2026-04-06T09:15:49.999Z</time></trkpt><trkpt lat="43.55022582356299" lon="2.016551381943603"><ele>218.5</ele><time>2026-04-06T09:15:50.999Z</time></trkpt><trkpt lat="43.55024623516683" lon="2.0168981808405055"><ele>218.0</ele><time>2026-04-06T09:15:51.999Z</time></trkpt><trkpt lat="43.550273101713636" lon="2.017242796678275"><ele>217.5</ele><time>2026-04-06T09:15:52.999Z</time></trkpt><trkpt lat="43.55030550654607" lon="2.0175852220369994"><ele>217.0</ele><time>2026-04-06T09:15:53.999Z</time></trkpt><trkpt lat="43.550345906409476" lon="2.017926631360602"><ele>218.0</ele><time>2026-04-06T09:15:54.999Z</time></trkpt><trkpt lat="43.55039317743013" lon="2.0182644490376536"><ele>219.0</ele><time>2026-04-06T09:15:55.999Z</time></trkpt><trkpt lat="43.55044687852847" lon="2.018600400362304"><ele>219.0</ele><time>2026-04-06T09:15:56.999Z</time></trkpt><trkpt lat="43.55050549035469" lon="2.0189375346584373"><ele>219.0</ele><time>2026-04-06T09:15:57.999Z</time></trkpt><trkpt lat="43.55057227744523" lon="2.019270950834524"><ele>219.0</ele><time>2026-04-06T09:15:58.999Z</time></trkpt><trkpt lat="43.5506423766338" lon="2.019603975551976"><ele>219.0</ele><time>2026-04-06T09:15:59.999Z</time></trkpt><trkpt lat="43.5507176059998" lon="2.0199388199174355"><ele>219.0</ele><time>2026-04-06T09:16:00.999Z</time></trkpt><trkpt lat="43.55079093731924" lon="2.0202654078458195"><ele>219.0</ele><time>2026-04-06T09:16:01.999Z</time></trkpt><trkpt lat="43.55086232487315" lon="2.0205915401803125"><ele>218.5</ele><time>2026-04-06T09:16:02.999Z</time></trkpt><trkpt lat="43.550934138443516" lon="2.020919423490169"><ele>218.0</ele><time>2026-04-06T09:16:03.999Z</time></trkpt><trkpt lat="43.55100952209441" lon="2.0212534218274536"><ele>218.0</ele><time>2026-04-06T09:16:04.999Z</time></trkpt><trkpt lat="43.55108665308456" lon="2.0215872061893596"><ele>218.0</ele><time>2026-04-06T09:16:05.999Z</time></trkpt><trkpt lat="43.55116454756204" lon="2.0219181146995227"><ele>220.0</ele><time>2026-04-06T09:16:06.999Z</time></trkpt><trkpt lat="43.55124070910295" lon="2.022249990432618"><ele>222.0</ele><time>2026-04-06T09:16:07.999Z</time></trkpt><trkpt lat="43.551316569798324" lon="2.0225778629362012"><ele>224.5</ele><time>2026-04-06T09:16:08.999Z</time></trkpt><trkpt lat="43.55139154530778" lon="2.022910644201772"><ele>227.0</ele><time>2026-04-06T09:16:09.999Z</time></trkpt><trkpt lat="43.551467590253615" lon="2.0232459974942376"><ele>227.5</ele><time>2026-04-06T09:16:10.999Z</time></trkpt><trkpt lat="43.551541805648284" lon="2.023578992058814"><ele>228.0</ele><time>2026-04-06T09:16:11.999Z</time></trkpt><trkpt lat="43.551616996306834" lon="2.023912907538207"><ele>227.0</ele><time>2026-04-06T09:16:12.999Z</time></trkpt><trkpt lat="43.55169259495383" lon="2.0242449830179248"><ele>226.0</ele><time>2026-04-06T09:16:13.999Z</time></trkpt><trkpt lat="43.5517651525843" lon="2.024580284405318"><ele>226.0</ele><time>2026-04-06T09:16:14.999Z</time></trkpt><trkpt lat="43.55184078909027" lon="2.024919311752489"><ele>226.0</ele><time>2026-04-06T09:16:15.999Z</time></trkpt><trkpt lat="43.551917501486535" lon="2.0252564567856433"><ele>225.0</ele><time>2026-04-06T09:16:17Z</time></trkpt><trkpt lat="43.55199220799199" lon="2.025583401078698"><ele>224.0</ele><time>2026-04-06T09:16:18Z</time></trkpt><trkpt lat="43.55206623379495" lon="2.025908696656688"><ele>223.5</ele><time>2026-04-06T09:16:19Z</time></trkpt><trkpt lat="43.5521424216761" lon="2.026241135434053"><ele>223.0</ele><time>2026-04-06T09:16:20Z</time></trkpt><trkpt lat="43.55220655786962" lon="2.0265796761481343"><ele>222.0</ele><time>2026-04-06T09:16:21Z</time></trkpt><trkpt lat="43.552265782673764" lon="2.0269147315692178"><ele>221.0</ele><time>2026-04-06T09:16:22Z</time></trkpt><trkpt lat="43.55232193883082" lon="2.0272511392345467"><ele>220.0</ele><time>2026-04-06T09:16:23Z</time></trkpt><trkpt lat="43.55237426624965" lon="2.027590369205889"><ele>219.0</ele><time>2026-04-06T09:16:24Z</time></trkpt><trkpt lat="43.55242078965441" lon="2.0279300349000544"><ele>219.0</ele><time>2026-04-06T09:16:25Z</time></trkpt><trkpt lat="43.5524684981418" lon="2.0282706121991407"><ele>219.0</ele><time>2026-04-06T09:16:26Z</time></trkpt><trkpt lat="43.552508884948175" lon="2.028611407920667"><ele>219.0</ele><time>2026-04-06T09:16:27Z</time></trkpt><trkpt lat="43.55254621783662" lon="2.0289509608202456"><ele>219.0</ele><time>2026-04-06T09:16:28Z</time></trkpt><trkpt lat="43.552576464983424" lon="2.0292951677737467"><ele>220.0</ele><time>2026-04-06T09:16:29Z</time></trkpt><trkpt lat="43.55260124896998" lon="2.0296428652456844"><ele>221.0</ele><time>2026-04-06T09:16:30Z</time></trkpt><trkpt lat="43.55262370205113" lon="2.029990560140861"><ele>221.0</ele><time>2026-04-06T09:16:31Z</time></trkpt><trkpt lat="43.55264113458667" lon="2.0303362904625977"><ele>221.0</ele><time>2026-04-06T09:16:32Z</time></trkpt><trkpt lat="43.552655680678384" lon="2.0306842616878105"><ele>220.5</ele><time>2026-04-06T09:16:33Z</time></trkpt><trkpt lat="43.55266613553094" lon="2.0310299697092065"><ele>220.0</ele><time>2026-04-06T09:16:34Z</time></trkpt><trkpt lat="43.55267063082709" lon="2.0313747200785546"><ele>218.5</ele><time>2026-04-06T09:16:35Z</time></trkpt><trkpt lat="43.55267052108817" lon="2.0317193896257035"><ele>217.0</ele><time>2026-04-06T09:16:36Z</time></trkpt><trkpt lat="43.55267007027229" lon="2.0320666486969152"><ele>217.0</ele><time>2026-04-06T09:16:37Z</time></trkpt><trkpt lat="43.55266938298943" lon="2.032416986451017"><ele>217.0</ele><time>2026-04-06T09:16:38Z</time></trkpt><trkpt lat="43.55267006383804" lon="2.032767640141241"><ele>216.5</ele><time>2026-04-06T09:16:39Z</time></trkpt><trkpt lat="43.55267084845832" lon="2.033115791076553"><ele>216.0</ele><time>2026-04-06T09:16:40Z</time></trkpt><trkpt lat="43.552674080121456" lon="2.0334668807832"><ele>216.0</ele><time>2026-04-06T09:16:41Z</time></trkpt><trkpt lat="43.552675535218704" lon="2.0338144716465507"><ele>216.0</ele><time>2026-04-06T09:16:42Z</time></trkpt><trkpt lat="43.55267352077354" lon="2.034162789649665"><ele>218.0</ele><time>2026-04-06T09:16:43Z</time></trkpt><trkpt lat="43.55267673624248" lon="2.0345089369319007"><ele>220.0</ele><time>2026-04-06T09:16:44Z</time></trkpt><trkpt lat="43.552679375778304" lon="2.034858786084268"><ele>220.5</ele><time>2026-04-06T09:16:45Z</time></trkpt><trkpt lat="43.55268404033394" lon="2.035209105183557"><ele>221.0</ele><time>2026-04-06T09:16:46Z</time></trkpt><trkpt lat="43.55268422146161" lon="2.0355520460246375"><ele>221.5</ele><time>2026-04-06T09:16:47Z</time></trkpt><trkpt lat="43.55268594943896" lon="2.035899046898754"><ele>222.0</ele><time>2026-04-06T09:16:48Z</time></trkpt><trkpt lat="43.552688407241234" lon="2.0362438567100116"><ele>222.0</ele><time>2026-04-06T09:16:49Z</time></trkpt><trkpt lat="43.552693804093444" lon="2.036588816363549"><ele>222.0</ele><time>2026-04-06T09:16:50Z</time></trkpt><trkpt lat="43.55270744979881" lon="2.0369360456753802"><ele>222.0</ele><time>2026-04-06T09:16:51Z</time></trkpt><trkpt lat="43.552723889940516" lon="2.0372841103019472"><ele>222.0</ele><time>2026-04-06T09:16:52Z</time></trkpt><trkpt lat="43.55274453914772" lon="2.037628669826977"><ele>221.5</ele><time>2026-04-06T09:16:53Z</time></trkpt><trkpt lat="43.552769033211604" lon="2.0379732052548842"><ele>221.0</ele><time>2026-04-06T09:16:54Z</time></trkpt><trkpt lat="43.55279897988797" lon="2.038316674639421"><ele>221.0</ele><time>2026-04-06T09:16:55Z</time></trkpt><trkpt lat="43.552834523789734" lon="2.038659020541037"><ele>221.0</ele><time>2026-04-06T09:16:56Z</time></trkpt><trkpt lat="43.5528748724016" lon="2.039002508078698"><ele>226.5</ele><time>2026-04-06T09:16:57Z</time></trkpt><trkpt lat="43.55291856113898" lon="2.0393421316863"><ele>232.0</ele><time>2026-04-06T09:16:58Z</time></trkpt><trkpt lat="43.55296304248879" lon="2.039686041334113"><ele>235.0</ele><time>2026-04-06T09:16:59Z</time></trkpt><trkpt lat="43.55301402765475" lon="2.0400232079110894"><ele>238.0</ele><time>2026-04-06T09:17:00Z</time></trkpt><trkpt lat="43.55307215089644" lon="2.040357367677763"><ele>238.0</ele><time>2026-04-06T09:17:01Z</time></trkpt><trkpt lat="43.55312937648933" lon="2.040694652100454"><ele>238.0</ele><time>2026-04-06T09:17:02Z</time></trkpt><trkpt lat="43.55319463369756" lon="2.041026914664638"><ele>233.0</ele><time>2026-04-06T09:17:03Z</time></trkpt><trkpt lat="43.55326867019425" lon="2.041361612507304"><ele>228.0</ele><time>2026-04-06T09:17:04Z</time></trkpt><trkpt lat="43.55334357602059" lon="2.0416956465247615"><ele>224.5</ele><time>2026-04-06T09:17:05Z</time></trkpt><trkpt lat="43.553422013674" lon="2.0420216313113353"><ele>221.0</ele><time>2026-04-06T09:17:06Z</time></trkpt><trkpt lat="43.553506423361895" lon="2.0423448649817946"><ele>222.0</ele><time>2026-04-06T09:17:07Z</time></trkpt><trkpt lat="43.55359245020667" lon="2.0426685027457805"><ele>223.0</ele><time>2026-04-06T09:17:08Z</time></trkpt><trkpt lat="43.553681673546215" lon="2.0429911974133894"><ele>226.5</ele><time>2026-04-06T09:17:09Z</time></trkpt><trkpt lat="43.55377471591873" lon="2.043314370720062"><ele>230.0</ele><time>2026-04-06T09:17:10Z</time></trkpt><trkpt lat="43.55387109183134" lon="2.043633391195449"><ele>230.0</ele><time>2026-04-06T09:17:11Z</time></trkpt><trkpt lat="43.553973553844486" lon="2.0439497815671412"><ele>230.0</ele><time>2026-04-06T09:17:12Z</time></trkpt><trkpt lat="43.55408036876499" lon="2.044263746484476"><ele>231.0</ele><time>2026-04-06T09:17:13Z</time></trkpt><trkpt lat="43.55419049039624" lon="2.0445770152478175"><ele>232.0</ele><time>2026-04-06T09:17:14Z</time></trkpt><trkpt lat="43.55430382445106" lon="2.0448858299648935"><ele>232.5</ele><time>2026-04-06T09:17:15Z</time></trkpt><trkpt lat="43.55441952984977" lon="2.0451902090446548"><ele>233.0</ele><time>2026-04-06T09:17:16Z</time></trkpt><trkpt lat="43.55454022751669" lon="2.0454924864454838"><ele>232.0</ele><time>2026-04-06T09:17:17Z</time></trkpt><trkpt lat="43.55466412307034" lon="2.045793181036367"><ele>231.0</ele><time>2026-04-06T09:17:18Z</time></trkpt><trkpt lat="43.554792135842305" lon="2.0460896142457607"><ele>230.5</ele><time>2026-04-06T09:17:19Z</time></trkpt><trkpt lat="43.55492052729848" lon="2.0463846274343807"><ele>230.0</ele><time>2026-04-06T09:17:20Z</time></trkpt><trkpt lat="43.555054019328175" lon="2.0466799387052"><ele>229.5</ele><time>2026-04-06T09:17:21Z</time></trkpt><trkpt lat="43.55518982674456" lon="2.0469706681128748"><ele>229.0</ele><time>2026-04-06T09:17:22Z</time></trkpt><trkpt lat="43.55532374236345" lon="2.047253412467924"><ele>228.33333333333331</ele><time>2026-04-06T09:17:22.999Z</time></trkpt><trkpt lat="43.5554521837792" lon="2.047516324619789"><ele>227.66666666666669</ele><time>2026-04-06T09:17:23.999Z</time></trkpt><trkpt lat="43.55557389067203" lon="2.0477664175395653"><ele>227.0</ele><time>2026-04-06T09:17:24.999Z</time></trkpt><trkpt lat="43.5556883581079" lon="2.0480060716777113"><ele>227.0</ele><time>2026-04-06T09:17:25.999Z</time></trkpt><trkpt lat="43.55580150000562" lon="2.0482373821092135"><ele>227.0</ele><time>2026-04-06T09:17:26.999Z</time></trkpt><trkpt lat="43.555913786126354" lon="2.048465242125239"><ele>227.0</ele><time>2026-04-06T09:17:27.999Z</time></trkpt><trkpt lat="43.556023211760944" lon="2.0486881822862815"><ele>227.33333333333334</ele><time>2026-04-06T09:17:28.999Z</time></trkpt><trkpt lat="43.556130976717995" lon="2.048908862964695"><ele>227.66666666666669</ele><time>2026-04-06T09:17:29.999Z</time></trkpt><trkpt lat="43.55623763858624" lon="2.049125182047589"><ele>228.0</ele><time>2026-04-06T09:17:30.999Z</time></trkpt><trkpt lat="43.5563384491039" lon="2.049329608615491"><ele>230.0</ele><time>2026-04-06T09:17:31.999Z</time></trkpt><trkpt lat="43.55643782773905" lon="2.0495283575644305"><ele>232.0</ele><time>2026-04-06T09:17:32.999Z</time></trkpt><trkpt lat="43.556532986411206" lon="2.049711981598056"><ele>234.0</ele><time>2026-04-06T09:17:33.999Z</time></trkpt><trkpt lat="43.556628608675545" lon="2.0498960942256366"><ele>234.25</ele><time>2026-04-06T09:17:34.999Z</time></trkpt><trkpt lat="43.55671436074104" lon="2.0500711581373188"><ele>234.5</ele><time>2026-04-06T09:17:35.999Z</time></trkpt><trkpt lat="43.556798625219216" lon="2.050238978177393"><ele>234.75</ele><time>2026-04-06T09:17:36.999Z</time></trkpt><trkpt lat="43.556877629477896" lon="2.050391765404547"><ele>235.0</ele><time>2026-04-06T09:17:37.999Z</time></trkpt><trkpt lat="43.55695544828973" lon="2.050541886240047"><ele>235.0</ele><time>2026-04-06T09:17:38.999Z</time></trkpt><trkpt lat="43.55702874491804" lon="2.050686379421871"><ele>235.0</ele><time>2026-04-06T09:17:39.999Z</time></trkpt><trkpt lat="43.55709817396447" lon="2.050826434963622"><ele>235.0</ele><time>2026-04-06T09:17:40.999Z</time></trkpt><trkpt lat="43.557160245964106" lon="2.05095637332871"><ele>235.0</ele><time>2026-04-06T09:17:41.999Z</time></trkpt><trkpt lat="43.55721955664815" lon="2.051077309594488"><ele>236.99999999999997</ele><time>2026-04-06T09:17:42.999Z</time></trkpt><trkpt lat="43.55727570143547" lon="2.05119389062651"><ele>239.0</ele><time>2026-04-06T09:17:43.999Z</time></trkpt><trkpt lat="43.55732574991553" lon="2.0512986183628454"><ele>241.0</ele><time>2026-04-06T09:17:44.999Z</time></trkpt><trkpt lat="43.55737428693522" lon="2.0513935092763593"><ele>243.0</ele><time>2026-04-06T09:17:45.999Z</time></trkpt><trkpt lat="43.55741864037896" lon="2.0514805857425893"><ele>244.99999999999997</ele><time>2026-04-06T09:17:46.999Z</time></trkpt><trkpt lat="43.55745459851953" lon="2.0515587743559975"><ele>247.0</ele><time>2026-04-06T09:17:47.999Z</time></trkpt><trkpt lat="43.55748666104525" lon="2.051636499801119"><ele>247.49999999999997</ele><time>2026-04-06T09:17:48.999Z</time></trkpt><trkpt lat="43.557514828105596" lon="2.051722065468821"><ele>248.0</ele><time>2026-04-06T09:17:49.999Z</time></trkpt><trkpt lat="43.55752671763329" lon="2.051819759000935"><ele>248.5</ele><time>2026-04-06T09:17:50.999Z</time></trkpt><trkpt lat="43.55752924198708" lon="2.0519205263000693"><ele>249.0</ele><time>2026-04-06T09:17:51.999Z</time></trkpt><trkpt lat="43.55746094372302" lon="2.052017671569126"><ele>249.49999999999997</ele><time>2026-04-06T09:17:52.999Z</time></trkpt><trkpt lat="43.55739171131618" lon="2.0520904019921846"><ele>250.0</ele><time>2026-04-06T09:17:53.999Z</time></trkpt><trkpt lat="43.557305371686354" lon="2.0521462207619043"><ele>250.0</ele><time>2026-04-06T09:17:54.999Z</time></trkpt><trkpt lat="43.55720806968516" lon="2.0521952312926786"><ele>250.0</ele><time>2026-04-06T09:17:55.999Z</time></trkpt><trkpt lat="43.557109256052925" lon="2.0522384074676325"><ele>250.0</ele><time>2026-04-06T09:17:56.999Z</time></trkpt><trkpt lat="43.55690767319989" lon="2.052321981608651"><ele>250.0</ele><time>2026-04-06T09:17:58.999Z</time></trkpt><trkpt lat="43.556811852171215" lon="2.052364417837634"><ele>249.4</ele><time>2026-04-06T09:17:59.999Z</time></trkpt><trkpt lat="43.55671508114304" lon="2.0524042749815434"><ele>248.8</ele><time>2026-04-06T09:18:00.999Z</time></trkpt><trkpt lat="43.55662469181235" lon="2.052436871129678"><ele>248.2</ele><time>2026-04-06T09:18:01.999Z</time></trkpt><trkpt lat="43.556548340435235" lon="2.0524530490687387"><ele>247.6</ele><time>2026-04-06T09:18:02.999Z</time></trkpt><trkpt lat="43.55643732149765" lon="2.0524326956674708"><ele>247.0</ele><time>2026-04-06T09:18:04.999Z</time></trkpt><trkpt lat="43.55634796588153" lon="2.0523821108730775"><ele>246.99999999999997</ele><time>2026-04-06T09:18:06.999Z</time></trkpt><trkpt lat="43.55623925688656" lon="2.052400923099076"><ele>247.0</ele><time>2026-04-06T09:18:08.999Z</time></trkpt><trkpt lat="43.55616297216833" lon="2.0525276291260983"><ele>247.0</ele><time>2026-04-06T09:18:10.999Z</time></trkpt><trkpt lat="43.556157588050986" lon="2.0526154091520494"><ele>247.0</ele><time>2026-04-06T09:18:11.999Z</time></trkpt><trkpt lat="43.55617749134808" lon="2.0526992764196255"><ele>246.99999999999997</ele><time>2026-04-06T09:18:12.999Z</time></trkpt><trkpt lat="43.55622271100571" lon="2.052769755523631"><ele>247.0</ele><time>2026-04-06T09:18:13.999Z</time></trkpt><trkpt lat="43.55628347770316" lon="2.0528278607403"><ele>247.0</ele><time>2026-04-06T09:18:14.999Z</time></trkpt><trkpt lat="43.5563466409705" lon="2.052893717824454"><ele>247.0</ele><time>2026-04-06T09:18:15.999Z</time></trkpt><trkpt lat="43.55640625554808" lon="2.052995499431272"><ele>247.0</ele><time>2026-04-06T09:18:16.999Z</time></trkpt><trkpt lat="43.55646221501746" lon="2.0531334970522512"><ele>247.0</ele><time>2026-04-06T09:18:17.999Z</time></trkpt><trkpt lat="43.55651740421387" lon="2.053292831209361"><ele>247.0</ele><time>2026-04-06T09:18:18.999Z</time></trkpt><trkpt lat="43.55656742559257" lon="2.0534561777666536"><ele>247.0</ele><time>2026-04-06T09:18:19.999Z</time></trkpt><trkpt lat="43.55662024486006" lon="2.0536374710493894"><ele>247.0</ele><time>2026-04-06T09:18:20.999Z</time></trkpt><trkpt lat="43.55667173908924" lon="2.0538318428822357"><ele>247.0</ele><time>2026-04-06T09:18:21.999Z</time></trkpt><trkpt lat="43.556726798458925" lon="2.0540380898930475"><ele>246.33333333333331</ele><time>2026-04-06T09:18:23Z</time></trkpt><trkpt lat="43.55678705183369" lon="2.0542700380756718"><ele>245.66666666666669</ele><time>2026-04-06T09:18:24Z</time></trkpt><trkpt lat="43.556847532702605" lon="2.054537096983711"><ele>245.0</ele><time>2026-04-06T09:18:25Z</time></trkpt><trkpt lat="43.5569004099334" lon="2.054826738272242"><ele>246.0</ele><time>2026-04-06T09:18:26Z</time></trkpt><trkpt lat="43.556950962673014" lon="2.0551423095342916"><ele>247.0</ele><time>2026-04-06T09:18:27Z</time></trkpt><trkpt lat="43.55699380815923" lon="2.055478441546133"><ele>249.0</ele><time>2026-04-06T09:18:28Z</time></trkpt><trkpt lat="43.557039163162884" lon="2.0558037776046527"><ele>251.0</ele><time>2026-04-06T09:18:29Z</time></trkpt><trkpt lat="43.55707457178446" lon="2.0561080845847886"><ele>251.0</ele><time>2026-04-06T09:18:30Z</time></trkpt><trkpt lat="43.557126951786195" lon="2.056436930205014"><ele>251.0</ele><time>2026-04-06T09:18:31Z</time></trkpt><trkpt lat="43.557181172244725" lon="2.0567690781286907"><ele>249.5</ele><time>2026-04-06T09:18:32Z</time></trkpt><trkpt lat="43.55723120559945" lon="2.0570960171240866"><ele>248.0</ele><time>2026-04-06T09:18:33Z</time></trkpt><trkpt lat="43.55728083145612" lon="2.0574169599688252"><ele>246.5</ele><time>2026-04-06T09:18:34Z</time></trkpt><trkpt lat="43.55733194519348" lon="2.057734446912515"><ele>245.0</ele><time>2026-04-06T09:18:35Z</time></trkpt><trkpt lat="43.557379432875145" lon="2.0580452316406914"><ele>244.66666666666669</ele><time>2026-04-06T09:18:36Z</time></trkpt><trkpt lat="43.55742653450354" lon="2.0583500434267963"><ele>244.33333333333331</ele><time>2026-04-06T09:18:37Z</time></trkpt><trkpt lat="43.55747378475157" lon="2.0586514461182275"><ele>244.0</ele><time>2026-04-06T09:18:38Z</time></trkpt><trkpt lat="43.55752237500597" lon="2.058950308509663"><ele>243.0</ele><time>2026-04-06T09:18:39Z</time></trkpt><trkpt lat="43.5575708241109" lon="2.059245826342471"><ele>242.0</ele><time>2026-04-06T09:18:40Z</time></trkpt><trkpt lat="43.55762067036097" lon="2.0595410946901165"><ele>241.0</ele><time>2026-04-06T09:18:41Z</time></trkpt><trkpt lat="43.55766820145573" lon="2.059837605737422"><ele>241.0</ele><time>2026-04-06T09:18:42Z</time></trkpt><trkpt lat="43.557713658397866" lon="2.0601315634601454"><ele>241.0</ele><time>2026-04-06T09:18:43Z</time></trkpt><trkpt lat="43.55775328902589" lon="2.0604193513772686"><ele>241.0</ele><time>2026-04-06T09:18:44Z</time></trkpt><trkpt lat="43.55778535551464" lon="2.0607002574287234"><ele>240.66666666666666</ele><time>2026-04-06T09:18:45Z</time></trkpt><trkpt lat="43.55781237038934" lon="2.0609802386122373"><ele>240.33333333333331</ele><time>2026-04-06T09:18:46Z</time></trkpt><trkpt lat="43.557834684555516" lon="2.061258181178926"><ele>240.0</ele><time>2026-04-06T09:18:47Z</time></trkpt><trkpt lat="43.55784978616706" lon="2.061527920550973"><ele>239.0</ele><time>2026-04-06T09:18:48Z</time></trkpt><trkpt lat="43.55786114498403" lon="2.061796590605715"><ele>238.0</ele><time>2026-04-06T09:18:49Z</time></trkpt><trkpt lat="43.55787705141445" lon="2.0620720047010956"><ele>237.0</ele><time>2026-04-06T09:18:50Z</time></trkpt><trkpt lat="43.557892906089826" lon="2.0623465465592434"><ele>233.0</ele><time>2026-04-06T09:18:51Z</time></trkpt><trkpt lat="43.55790587984452" lon="2.0626145147419472"><ele>229.0</ele><time>2026-04-06T09:18:52Z</time></trkpt><trkpt lat="43.55791163948054" lon="2.0628821333956946"><ele>225.0</ele><time>2026-04-06T09:18:53Z</time></trkpt><trkpt lat="43.55790953110101" lon="2.06314172641479"><ele>224.0</ele><time>2026-04-06T09:18:54Z</time></trkpt><trkpt lat="43.557903092365386" lon="2.063400643870299"><ele>223.0</ele><time>2026-04-06T09:18:55Z</time></trkpt><trkpt lat="43.557906514645914" lon="2.0636398939577374"><ele>222.0</ele><time>2026-04-06T09:18:56Z</time></trkpt><trkpt lat="43.55793774447343" lon="2.0638586315387464"><ele>222.0</ele><time>2026-04-06T09:18:57Z</time></trkpt><trkpt lat="43.55799652287617" lon="2.0640786733679137"><ele>222.0</ele><time>2026-04-06T09:18:58Z</time></trkpt><trkpt lat="43.55803994975387" lon="2.064313850092396"><ele>222.0</ele><time>2026-04-06T09:18:59Z</time></trkpt><trkpt lat="43.55804623844622" lon="2.064574943783676"><ele>221.66666666666669</ele><time>2026-04-06T09:19:00Z</time></trkpt><trkpt lat="43.558104545172775" lon="2.064815370437375"><ele>221.33333333333334</ele><time>2026-04-06T09:19:01Z</time></trkpt><trkpt lat="43.55802560340093" lon="2.065120656957253"><ele>221.0</ele><time>2026-04-06T09:19:02Z</time></trkpt><trkpt lat="43.558019653421084" lon="2.0654020863618565"><ele>220.33333333333334</ele><time>2026-04-06T09:19:03Z</time></trkpt><trkpt lat="43.558026469827276" lon="2.065686712568882"><ele>219.66666666666669</ele><time>2026-04-06T09:19:04Z</time></trkpt><trkpt lat="43.558017416681935" lon="2.065973776648429"><ele>219.0</ele><time>2026-04-06T09:19:05Z</time></trkpt><trkpt lat="43.55801102903231" lon="2.0662560823183114"><ele>218.0</ele><time>2026-04-06T09:19:06Z</time></trkpt><trkpt lat="43.55800830010758" lon="2.0665389168719996"><ele>217.0</ele><time>2026-04-06T09:19:07Z</time></trkpt><trkpt lat="43.55800539269193" lon="2.0668221459268867"><ele>216.0</ele><time>2026-04-06T09:19:08Z</time></trkpt><trkpt lat="43.55800369105367" lon="2.067096462505724"><ele>215.0</ele><time>2026-04-06T09:19:09Z</time></trkpt><trkpt lat="43.55800050445519" lon="2.0673631260955547"><ele>214.0</ele><time>2026-04-06T09:19:10Z</time></trkpt><trkpt lat="43.55799611963148" lon="2.067627891277874"><ele>213.0</ele><time>2026-04-06T09:19:11Z</time></trkpt><trkpt lat="43.55799075369122" lon="2.067892644540841"><ele>212.33333333333331</ele><time>2026-04-06T09:19:12Z</time></trkpt><trkpt lat="43.557986631678006" lon="2.0681573417983503"><ele>211.66666666666666</ele><time>2026-04-06T09:19:13Z</time></trkpt><trkpt lat="43.557980284891265" lon="2.0684198735606927"><ele>211.0</ele><time>2026-04-06T09:19:14Z</time></trkpt><trkpt lat="43.5579761782809" lon="2.068686826403188"><ele>209.66666666666666</ele><time>2026-04-06T09:19:15Z</time></trkpt><trkpt lat="43.557971284533615" lon="2.0689553670469256"><ele>208.33333333333331</ele><time>2026-04-06T09:19:16Z</time></trkpt><trkpt lat="43.55796446975786" lon="2.0692221129897104"><ele>207.0</ele><time>2026-04-06T09:19:17Z</time></trkpt><trkpt lat="43.55795836620461" lon="2.0694941963820446"><ele>206.66666666666669</ele><time>2026-04-06T09:19:18Z</time></trkpt><trkpt lat="43.55795379177483" lon="2.069772765662931"><ele>206.33333333333334</ele><time>2026-04-06T09:19:19Z</time></trkpt><trkpt lat="43.55795292164159" lon="2.070043855227627"><ele>206.0</ele><time>2026-04-06T09:19:20Z</time></trkpt><trkpt lat="43.55794687773181" lon="2.070317102556291"><ele>205.66666666666669</ele><time>2026-04-06T09:19:21Z</time></trkpt><trkpt lat="43.55793675014907" lon="2.0705801891177624"><ele>205.33333333333331</ele><time>2026-04-06T09:19:22Z</time></trkpt><trkpt lat="43.55793189917122" lon="2.0708581354726494"><ele>205.0</ele><time>2026-04-06T09:19:23Z</time></trkpt><trkpt lat="43.557932029435634" lon="2.0711354379618085"><ele>204.33333333333331</ele><time>2026-04-06T09:19:24Z</time></trkpt><trkpt lat="43.557929393832545" lon="2.071411787939204"><ele>203.66666666666669</ele><time>2026-04-06T09:19:25Z</time></trkpt><trkpt lat="43.55792509696058" lon="2.0716931442796542"><ele>203.0</ele><time>2026-04-06T09:19:26Z</time></trkpt><trkpt lat="43.55791898980221" lon="2.071966800561826"><ele>203.33333333333334</ele><time>2026-04-06T09:19:27Z</time></trkpt><trkpt lat="43.55791834483597" lon="2.0722405827329813"><ele>203.66666666666669</ele><time>2026-04-06T09:19:28Z</time></trkpt><trkpt lat="43.55791288530273" lon="2.072518077422413"><ele>204.0</ele><time>2026-04-06T09:19:29Z</time></trkpt><trkpt lat="43.55791085975979" lon="2.072797227530481"><ele>204.0</ele><time>2026-04-06T09:19:30Z</time></trkpt><trkpt lat="43.55790651509045" lon="2.0730753866987905"><ele>204.0</ele><time>2026-04-06T09:19:31Z</time></trkpt><trkpt lat="43.55790406564252" lon="2.0733556155241444"><ele>204.0</ele><time>2026-04-06T09:19:32Z</time></trkpt><trkpt lat="43.557900215552486" lon="2.0736324368157093"><ele>203.66666666666669</ele><time>2026-04-06T09:19:33Z</time></trkpt><trkpt lat="43.55789735451182" lon="2.073911525229345"><ele>203.33333333333334</ele><time>2026-04-06T09:19:34Z</time></trkpt><trkpt lat="43.55789682837258" lon="2.074186832369827"><ele>203.0</ele><time>2026-04-06T09:19:35Z</time></trkpt><trkpt lat="43.557892719445" lon="2.0744655129228815"><ele>201.66666666666669</ele><time>2026-04-06T09:19:36Z</time></trkpt><trkpt lat="43.5578910457169" lon="2.074743264998132"><ele>200.33333333333331</ele><time>2026-04-06T09:19:37Z</time></trkpt><trkpt lat="43.557887057339975" lon="2.0750153543294063"><ele>199.0</ele><time>2026-04-06T09:19:37.999Z</time></trkpt><trkpt lat="43.55788711697285" lon="2.0752911664585656"><ele>198.66666666666666</ele><time>2026-04-06T09:19:38.999Z</time></trkpt><trkpt lat="43.557888810228334" lon="2.0755674879956754"><ele>198.33333333333331</ele><time>2026-04-06T09:19:39.999Z</time></trkpt><trkpt lat="43.557887934466514" lon="2.0758460612958305"><ele>198.0</ele><time>2026-04-06T09:19:40.999Z</time></trkpt><trkpt lat="43.557879495703155" lon="2.076131198591621"><ele>198.0</ele><time>2026-04-06T09:19:41.999Z</time></trkpt><trkpt lat="43.5578772293343" lon="2.0764150556629013"><ele>198.0</ele><time>2026-04-06T09:19:42.999Z</time></trkpt><trkpt lat="43.55786629915717" lon="2.0766924464420455"><ele>198.0</ele><time>2026-04-06T09:19:43.999Z</time></trkpt><trkpt lat="43.557862573949265" lon="2.076973831944769"><ele>196.0</ele><time>2026-04-06T09:19:44.999Z</time></trkpt><trkpt lat="43.55785737970042" lon="2.0772516500305893"><ele>194.0</ele><time>2026-04-06T09:19:45.999Z</time></trkpt><trkpt lat="43.55785051578059" lon="2.077532991951282"><ele>192.0</ele><time>2026-04-06T09:19:46.999Z</time></trkpt><trkpt lat="43.5578445832445" lon="2.077825366906091"><ele>191.66666666666666</ele><time>2026-04-06T09:19:47.999Z</time></trkpt><trkpt lat="43.55784042562496" lon="2.0781066119882214"><ele>191.33333333333331</ele><time>2026-04-06T09:19:48.999Z</time></trkpt><trkpt lat="43.55783701557015" lon="2.078395220213592"><ele>191.0</ele><time>2026-04-06T09:19:49.999Z</time></trkpt><trkpt lat="43.55783418019302" lon="2.07867603988246"><ele>191.0</ele><time>2026-04-06T09:19:50.999Z</time></trkpt><trkpt lat="43.557830779152404" lon="2.07895897586219"><ele>191.0</ele><time>2026-04-06T09:19:51.999Z</time></trkpt><trkpt lat="43.55782880639992" lon="2.0792405648730434"><ele>191.0</ele><time>2026-04-06T09:19:52.999Z</time></trkpt><trkpt lat="43.55782221250374" lon="2.079526273634554"><ele>190.66666666666666</ele><time>2026-04-06T09:19:53.999Z</time></trkpt><trkpt lat="43.55781737881463" lon="2.0798093287765806"><ele>190.33333333333334</ele><time>2026-04-06T09:19:54.999Z</time></trkpt><trkpt lat="43.55781384477517" lon="2.08009169865658"><ele>190.0</ele><time>2026-04-06T09:19:55.999Z</time></trkpt><trkpt lat="43.55780986329184" lon="2.0803768163400194"><ele>189.66666666666669</ele><time>2026-04-06T09:19:56.999Z</time></trkpt><trkpt lat="43.55780358608733" lon="2.080665919454373"><ele>189.33333333333334</ele><time>2026-04-06T09:19:57.999Z</time></trkpt><trkpt lat="43.55779918070611" lon="2.0809576694111347"><ele>189.0</ele><time>2026-04-06T09:19:58.999Z</time></trkpt><trkpt lat="43.55779394015661" lon="2.0812433242457065"><ele>188.66666666666666</ele><time>2026-04-06T09:19:59.999Z</time></trkpt><trkpt lat="43.55779073923295" lon="2.0815312809780804"><ele>188.33333333333331</ele><time>2026-04-06T09:20:00.999Z</time></trkpt><trkpt lat="43.55778599038427" lon="2.0818227408106087"><ele>188.0</ele><time>2026-04-06T09:20:01.999Z</time></trkpt><trkpt lat="43.557785129899095" lon="2.082112939985841"><ele>188.0</ele><time>2026-04-06T09:20:02.999Z</time></trkpt><trkpt lat="43.557784756047546" lon="2.0824029142889895"><ele>188.0</ele><time>2026-04-06T09:20:03.999Z</time></trkpt><trkpt lat="43.55778061203177" lon="2.0826917275760315"><ele>188.0</ele><time>2026-04-06T09:20:04.999Z</time></trkpt><trkpt lat="43.5577773163728" lon="2.082980546448266"><ele>188.33333333333331</ele><time>2026-04-06T09:20:05.999Z</time></trkpt><trkpt lat="43.55777212747837" lon="2.0832695876121132"><ele>188.66666666666666</ele><time>2026-04-06T09:20:06.999Z</time></trkpt><trkpt lat="43.55776121042234" lon="2.0835606410980003"><ele>189.0</ele><time>2026-04-06T09:20:07.999Z</time></trkpt><trkpt lat="43.557754456275056" lon="2.0838512877844724"><ele>189.0</ele><time>2026-04-06T09:20:08.999Z</time></trkpt><trkpt lat="43.55774784843956" lon="2.0841439003106297"><ele>189.0</ele><time>2026-04-06T09:20:09.999Z</time></trkpt><trkpt lat="43.55774339946771" lon="2.0844367071491563"><ele>189.0</ele><time>2026-04-06T09:20:10.999Z</time></trkpt><trkpt lat="43.55773885552351" lon="2.084725902119558"><ele>189.0</ele><time>2026-04-06T09:20:11.999Z</time></trkpt><trkpt lat="43.55773455015135" lon="2.085017593660309"><ele>189.0</ele><time>2026-04-06T09:20:12.999Z</time></trkpt><trkpt lat="43.55772929641725" lon="2.085311037385129"><ele>189.0</ele><time>2026-04-06T09:20:13.999Z</time></trkpt><trkpt lat="43.55772740216143" lon="2.085604014656487"><ele>189.0</ele><time>2026-04-06T09:20:14.999Z</time></trkpt><trkpt lat="43.55772134088117" lon="2.085894235294411"><ele>189.0</ele><time>2026-04-06T09:20:15.999Z</time></trkpt><trkpt lat="43.557715624400984" lon="2.0861888553514083"><ele>189.0</ele><time>2026-04-06T09:20:16.999Z</time></trkpt><trkpt lat="43.557710799787365" lon="2.0864817003031964"><ele>189.33333333333334</ele><time>2026-04-06T09:20:17.999Z</time></trkpt><trkpt lat="43.55770729444649" lon="2.086774497069602"><ele>189.66666666666669</ele><time>2026-04-06T09:20:18.999Z</time></trkpt><trkpt lat="43.5577069350661" lon="2.0870696889700615"><ele>190.0</ele><time>2026-04-06T09:20:19.999Z</time></trkpt><trkpt lat="43.55770619658689" lon="2.087364419419678"><ele>191.33333333333334</ele><time>2026-04-06T09:20:20.999Z</time></trkpt><trkpt lat="43.55770270917407" lon="2.0876561183057727"><ele>192.66666666666669</ele><time>2026-04-06T09:20:21.999Z</time></trkpt><trkpt lat="43.5576979949103" lon="2.0879442930939267"><ele>194.0</ele><time>2026-04-06T09:20:22.999Z</time></trkpt><trkpt lat="43.55769632622442" lon="2.088231963375223"><ele>194.33333333333334</ele><time>2026-04-06T09:20:23.999Z</time></trkpt><trkpt lat="43.557698829739635" lon="2.0885233238209846"><ele>194.66666666666669</ele><time>2026-04-06T09:20:24.999Z</time></trkpt><trkpt lat="43.55769710650205" lon="2.0888142475978055"><ele>195.0</ele><time>2026-04-06T09:20:25.999Z</time></trkpt><trkpt lat="43.55769501097478" lon="2.089100624981295"><ele>195.0</ele><time>2026-04-06T09:20:26.999Z</time></trkpt><trkpt lat="43.55769216416908" lon="2.0893883299507667"><ele>195.0</ele><time>2026-04-06T09:20:27.999Z</time></trkpt><trkpt lat="43.55768967552651" lon="2.0896769637976123"><ele>195.0</ele><time>2026-04-06T09:20:29Z</time></trkpt><trkpt lat="43.557677059255894" lon="2.0899762432768845"><ele>195.0</ele><time>2026-04-06T09:20:30Z</time></trkpt><trkpt lat="43.55768247010583" lon="2.0902714993017897"><ele>195.0</ele><time>2026-04-06T09:20:31Z</time></trkpt><trkpt lat="43.55768646087558" lon="2.090553715686269"><ele>195.0</ele><time>2026-04-06T09:20:32Z</time></trkpt><trkpt lat="43.55767748589585" lon="2.0908446141020405"><ele>195.0</ele><time>2026-04-06T09:20:33Z</time></trkpt><trkpt lat="43.557671533632686" lon="2.091133348831244"><ele>195.0</ele><time>2026-04-06T09:20:34Z</time></trkpt><trkpt lat="43.557668965887665" lon="2.091412660531656"><ele>195.0</ele><time>2026-04-06T09:20:35Z</time></trkpt><trkpt lat="43.5576674823563" lon="2.0916830776584248"><ele>195.0</ele><time>2026-04-06T09:20:36Z</time></trkpt><trkpt lat="43.55766659664441" lon="2.0919305284033456"><ele>195.0</ele><time>2026-04-06T09:20:37Z</time></trkpt><trkpt lat="43.557663267823926" lon="2.092170003753951"><ele>195.0</ele><time>2026-04-06T09:20:38Z</time></trkpt><trkpt lat="43.55766149367863" lon="2.0924042022482428"><ele>194.66666666666669</ele><time>2026-04-06T09:20:39Z</time></trkpt><trkpt lat="43.5576557944437" lon="2.092626748129327"><ele>194.33333333333334</ele><time>2026-04-06T09:20:40Z</time></trkpt><trkpt lat="43.557651678218996" lon="2.0928428781745296"><ele>194.0</ele><time>2026-04-06T09:20:41Z</time></trkpt><trkpt lat="43.55764784395141" lon="2.0930413046914986"><ele>194.0</ele><time>2026-04-06T09:20:42Z</time></trkpt><trkpt lat="43.557643604719054" lon="2.0932149295127926"><ele>194.0</ele><time>2026-04-06T09:20:43Z</time></trkpt><trkpt lat="43.557639575150695" lon="2.0933635820921026"><ele>194.0</ele><time>2026-04-06T09:20:44Z</time></trkpt><trkpt lat="43.5576307432044" lon="2.0934841183942825"><ele>194.0</ele><time>2026-04-06T09:20:45Z</time></trkpt><trkpt lat="43.557622589687085" lon="2.093582594715854"><ele>194.0</ele><time>2026-04-06T09:20:46Z</time></trkpt><trkpt lat="43.55758963513327" lon="2.0937346612290635"><ele>193.83333333333334</ele><time>2026-04-06T09:20:48Z</time></trkpt><trkpt lat="43.55755143266208" lon="2.093814886934662"><ele>193.66666666666669</ele><time>2026-04-06T09:20:49Z</time></trkpt><trkpt lat="43.55749868544349" lon="2.0938908466053356"><ele>193.5</ele><time>2026-04-06T09:20:50Z</time></trkpt><trkpt lat="43.557442228237385" lon="2.0939773712723517"><ele>193.33333333333331</ele><time>2026-04-06T09:20:51Z</time></trkpt><trkpt lat="43.55740780104692" lon="2.0940907779618567"><ele>193.16666666666666</ele><time>2026-04-06T09:20:52Z</time></trkpt><trkpt lat="43.557396285129386" lon="2.0942099086537156"><ele>193.0</ele><time>2026-04-06T09:20:53Z</time></trkpt><trkpt lat="43.55742430987749" lon="2.0943619205562003"><ele>193.0</ele><time>2026-04-06T09:20:54Z</time></trkpt><trkpt lat="43.55748603342646" lon="2.094494821747853"><ele>193.0</ele><time>2026-04-06T09:20:55Z</time></trkpt><trkpt lat="43.55759082209042" lon="2.0946214155213667"><ele>193.0</ele><time>2026-04-06T09:20:56Z</time></trkpt><trkpt lat="43.557649175916076" lon="2.0947599259179577"><ele>193.0</ele><time>2026-04-06T09:20:57Z</time></trkpt><trkpt lat="43.557684736320844" lon="2.095103412677719"><ele>192.75</ele><time>2026-04-06T09:20:59Z</time></trkpt><trkpt lat="43.557714197171144" lon="2.09528589858054"><ele>192.5</ele><time>2026-04-06T09:21:00Z</time></trkpt><trkpt lat="43.55775751120869" lon="2.0954712017469994"><ele>192.25</ele><time>2026-04-06T09:21:01Z</time></trkpt><trkpt lat="43.55779383330161" lon="2.095661837023353"><ele>192.0</ele><time>2026-04-06T09:21:02Z</time></trkpt><trkpt lat="43.557822220720446" lon="2.0958643271416246"><ele>191.33333333333334</ele><time>2026-04-06T09:21:03Z</time></trkpt><trkpt lat="43.55784866305876" lon="2.0960789716596007"><ele>190.66666666666669</ele><time>2026-04-06T09:21:04Z</time></trkpt><trkpt lat="43.5578838768036" lon="2.096305479628679"><ele>190.0</ele><time>2026-04-06T09:21:05Z</time></trkpt><trkpt lat="43.55792661274488" lon="2.0965432943489937"><ele>189.66666666666669</ele><time>2026-04-06T09:21:06Z</time></trkpt><trkpt lat="43.55797503565682" lon="2.096792547847363"><ele>189.33333333333334</ele><time>2026-04-06T09:21:07Z</time></trkpt><trkpt lat="43.55802793801292" lon="2.0970413420530933"><ele>189.0</ele><time>2026-04-06T09:21:08Z</time></trkpt><trkpt lat="43.558088637285124" lon="2.097297138589682"><ele>188.66666666666666</ele><time>2026-04-06T09:21:09Z</time></trkpt><trkpt lat="43.558158222670436" lon="2.0975691377597037"><ele>188.33333333333331</ele><time>2026-04-06T09:21:10Z</time></trkpt><trkpt lat="43.558235833690674" lon="2.0978503310397874"><ele>188.0</ele><time>2026-04-06T09:21:11Z</time></trkpt><trkpt lat="43.55832088104119" lon="2.098133597810146"><ele>188.0</ele><time>2026-04-06T09:21:12Z</time></trkpt><trkpt lat="43.55841207588263" lon="2.098420438357918"><ele>188.0</ele><time>2026-04-06T09:21:13Z</time></trkpt><trkpt lat="43.55850596811531" lon="2.0986974927766533"><ele>188.0</ele><time>2026-04-06T09:21:14Z</time></trkpt><trkpt lat="43.55860658221402" lon="2.098968938959522"><ele>189.0</ele><time>2026-04-06T09:21:15Z</time></trkpt><trkpt lat="43.558712414038816" lon="2.099238470839409"><ele>190.0</ele><time>2026-04-06T09:21:16Z</time></trkpt><trkpt lat="43.55882255312196" lon="2.099510519479376"><ele>191.0</ele><time>2026-04-06T09:21:17Z</time></trkpt><trkpt lat="43.558936609767244" lon="2.099784684493516"><ele>191.5</ele><time>2026-04-06T09:21:18Z</time></trkpt><trkpt lat="43.55905201152492" lon="2.100059946562216"><ele>192.0</ele><time>2026-04-06T09:21:19Z</time></trkpt><trkpt lat="43.559170066898474" lon="2.100341465094721"><ele>192.0</ele><time>2026-04-06T09:21:20Z</time></trkpt><trkpt lat="43.5592878800168" lon="2.10062554197107"><ele>192.0</ele><time>2026-04-06T09:21:21Z</time></trkpt><trkpt lat="43.55940694407229" lon="2.1009120278186044"><ele>192.0</ele><time>2026-04-06T09:21:22Z</time></trkpt><trkpt lat="43.55952648343738" lon="2.101202692167821"><ele>192.0</ele><time>2026-04-06T09:21:23Z</time></trkpt><trkpt lat="43.55964354641814" lon="2.1014890724489357"><ele>195.0</ele><time>2026-04-06T09:21:24Z</time></trkpt><trkpt lat="43.55975475699406" lon="2.1017679735660915"><ele>198.0</ele><time>2026-04-06T09:21:25Z</time></trkpt><trkpt lat="43.55986717796832" lon="2.102036865046391"><ele>198.0</ele><time>2026-04-06T09:21:26Z</time></trkpt><trkpt lat="43.55998207419524" lon="2.102305611663226"><ele>198.0</ele><time>2026-04-06T09:21:27Z</time></trkpt><trkpt lat="43.56008400537857" lon="2.1025561654323313"><ele>198.0</ele><time>2026-04-06T09:21:28Z</time></trkpt><trkpt lat="43.56018243702202" lon="2.102803453839215"><ele>198.66666666666669</ele><time>2026-04-06T09:21:29Z</time></trkpt><trkpt lat="43.56028207617396" lon="2.1030488171180535"><ele>199.33333333333334</ele><time>2026-04-06T09:21:30Z</time></trkpt><trkpt lat="43.560384705041464" lon="2.103293001036945"><ele>200.0</ele><time>2026-04-06T09:21:31Z</time></trkpt><trkpt lat="43.56048488927188" lon="2.103539374376194"><ele>201.33333333333334</ele><time>2026-04-06T09:21:32Z</time></trkpt><trkpt lat="43.56058624251853" lon="2.1037872632449592"><ele>202.66666666666669</ele><time>2026-04-06T09:21:33Z</time></trkpt><trkpt lat="43.560687208248716" lon="2.104034112656204"><ele>204.0</ele><time>2026-04-06T09:21:34Z</time></trkpt><trkpt lat="43.56078890699546" lon="2.104278112710442"><ele>204.0</ele><time>2026-04-06T09:21:35Z</time></trkpt><trkpt lat="43.56088855996359" lon="2.104522106737667"><ele>204.0</ele><time>2026-04-06T09:21:36Z</time></trkpt><trkpt lat="43.560986733161094" lon="2.1047641385243794"><ele>204.0</ele><time>2026-04-06T09:21:37Z</time></trkpt><trkpt lat="43.56108768657221" lon="2.1050078814737287"><ele>203.66666666666669</ele><time>2026-04-06T09:21:38Z</time></trkpt><trkpt lat="43.56118607885006" lon="2.105250478366639"><ele>203.33333333333334</ele><time>2026-04-06T09:21:39Z</time></trkpt><trkpt lat="43.56129057045845" lon="2.105475137067178"><ele>203.0</ele><time>2026-04-06T09:21:40Z</time></trkpt><trkpt lat="43.56137993395411" lon="2.1057128858396617"><ele>201.0</ele><time>2026-04-06T09:21:41Z</time></trkpt><trkpt lat="43.56147915089859" lon="2.105942173075339"><ele>199.0</ele><time>2026-04-06T09:21:42Z</time></trkpt><trkpt lat="43.561580443501256" lon="2.10618197528063"><ele>197.0</ele><time>2026-04-06T09:21:43Z</time></trkpt><trkpt lat="43.56167672112516" lon="2.1064412706328386"><ele>197.33333333333334</ele><time>2026-04-06T09:21:44Z</time></trkpt><trkpt lat="43.561777919803454" lon="2.1066853945702686"><ele>197.66666666666669</ele><time>2026-04-06T09:21:45Z</time></trkpt><trkpt lat="43.56187979350707" lon="2.1069330668958117"><ele>198.0</ele><time>2026-04-06T09:21:46Z</time></trkpt><trkpt lat="43.561981627388704" lon="2.1071805988145798"><ele>197.0</ele><time>2026-04-06T09:21:47Z</time></trkpt><trkpt lat="43.56208367303993" lon="2.1074331091176037"><ele>196.0</ele><time>2026-04-06T09:21:48Z</time></trkpt><trkpt lat="43.56218408199277" lon="2.1076866282455704"><ele>195.0</ele><time>2026-04-06T09:21:49Z</time></trkpt><trkpt lat="43.56228319975424" lon="2.107941211036017"><ele>195.0</ele><time>2026-04-06T09:21:50Z</time></trkpt><trkpt lat="43.56237812476884" lon="2.108199206344786"><ele>195.0</ele><time>2026-04-06T09:21:51Z</time></trkpt><trkpt lat="43.56247067013307" lon="2.1084589437022023"><ele>195.0</ele><time>2026-04-06T09:21:52Z</time></trkpt><trkpt lat="43.562561419288386" lon="2.1087236590381244"><ele>194.66666666666669</ele><time>2026-04-06T09:21:53Z</time></trkpt><trkpt lat="43.56263520209137" lon="2.108983667296239"><ele>194.33333333333334</ele><time>2026-04-06T09:21:53.999Z</time></trkpt><trkpt lat="43.562705725723795" lon="2.109249291792056"><ele>194.0</ele><time>2026-04-06T09:21:54.999Z</time></trkpt><trkpt lat="43.56277224262828" lon="2.10951833238301"><ele>194.0</ele><time>2026-04-06T09:21:55.999Z</time></trkpt><trkpt lat="43.562831322180244" lon="2.109793813413887"><ele>194.0</ele><time>2026-04-06T09:21:56.999Z</time></trkpt><trkpt lat="43.562879108310064" lon="2.110068074573573"><ele>194.0</ele><time>2026-04-06T09:21:57.999Z</time></trkpt><trkpt lat="43.56292095884384" lon="2.110336119691885"><ele>190.0</ele><time>2026-04-06T09:21:58.999Z</time></trkpt><trkpt lat="43.562964815869265" lon="2.1106243344732363"><ele>186.0</ele><time>2026-04-06T09:21:59.999Z</time></trkpt><trkpt lat="43.56299281287858" lon="2.110909735657401"><ele>182.0</ele><time>2026-04-06T09:22:00.999Z</time></trkpt><trkpt lat="43.563010023779746" lon="2.1111869084450996"><ele>181.33333333333331</ele><time>2026-04-06T09:22:01.999Z</time></trkpt><trkpt lat="43.56301881125218" lon="2.111469735184235"><ele>180.66666666666666</ele><time>2026-04-06T09:22:02.999Z</time></trkpt><trkpt lat="43.56304123301102" lon="2.1117617202596244"><ele>180.0</ele><time>2026-04-06T09:22:03.999Z</time></trkpt><trkpt lat="43.56304529591764" lon="2.1120482597211496"><ele>179.66666666666666</ele><time>2026-04-06T09:22:04.999Z</time></trkpt><trkpt lat="43.56304049292538" lon="2.1123353099793354"><ele>179.33333333333331</ele><time>2026-04-06T09:22:05.999Z</time></trkpt><trkpt lat="43.56302856001438" lon="2.1126228476412554"><ele>179.0</ele><time>2026-04-06T09:22:06.999Z</time></trkpt><trkpt lat="43.56300704312577" lon="2.112910070246297"><ele>178.66666666666666</ele><time>2026-04-06T09:22:07.999Z</time></trkpt><trkpt lat="43.56297869516916" lon="2.113194157531042"><ele>178.33333333333334</ele><time>2026-04-06T09:22:08.999Z</time></trkpt><trkpt lat="43.56294306851486" lon="2.1134769154791218"><ele>178.0</ele><time>2026-04-06T09:22:09.999Z</time></trkpt><trkpt lat="43.562902490867145" lon="2.113758821158599"><ele>178.0</ele><time>2026-04-06T09:22:10.999Z</time></trkpt><trkpt lat="43.56285529964241" lon="2.114041490374363"><ele>178.0</ele><time>2026-04-06T09:22:11.999Z</time></trkpt><trkpt lat="43.56280147332774" lon="2.114320696658084"><ele>178.0</ele><time>2026-04-06T09:22:12.999Z</time></trkpt><trkpt lat="43.562741372373516" lon="2.1145997810957837"><ele>176.66666666666669</ele><time>2026-04-06T09:22:13.999Z</time></trkpt><trkpt lat="43.56267963616977" lon="2.1148787280661283"><ele>175.33333333333334</ele><time>2026-04-06T09:22:14.999Z</time></trkpt><trkpt lat="43.5626159963779" lon="2.1151589588490385"><ele>174.0</ele><time>2026-04-06T09:22:15.999Z</time></trkpt><trkpt lat="43.56255615812853" lon="2.1154369669956417"><ele>172.66666666666666</ele><time>2026-04-06T09:22:16.999Z</time></trkpt><trkpt lat="43.5624960774622" lon="2.1157140416946127"><ele>171.33333333333331</ele><time>2026-04-06T09:22:17.999Z</time></trkpt><trkpt lat="43.56243692115344" lon="2.1159842488139926"><ele>170.0</ele><time>2026-04-06T09:22:18.999Z</time></trkpt><trkpt lat="43.56237878172893" lon="2.11625187399399"><ele>170.0</ele><time>2026-04-06T09:22:19.999Z</time></trkpt><trkpt lat="43.56232710582032" lon="2.116530972312545"><ele>170.0</ele><time>2026-04-06T09:22:20.999Z</time></trkpt><trkpt lat="43.562282735840384" lon="2.116810682499733"><ele>170.0</ele><time>2026-04-06T09:22:21.999Z</time></trkpt><trkpt lat="43.56224461789551" lon="2.117072703409347"><ele>169.66666666666666</ele><time>2026-04-06T09:22:22.999Z</time></trkpt><trkpt lat="43.5622148973179" lon="2.117347460668168"><ele>169.33333333333334</ele><time>2026-04-06T09:22:23.999Z</time></trkpt><trkpt lat="43.56218936425552" lon="2.117622685230706"><ele>169.0</ele><time>2026-04-06T09:22:24.999Z</time></trkpt><trkpt lat="43.56215782345411" lon="2.117878652453614"><ele>167.33333333333334</ele><time>2026-04-06T09:22:25.999Z</time></trkpt><trkpt lat="43.56213843693807" lon="2.1181565386121983"><ele>165.66666666666666</ele><time>2026-04-06T09:22:26.999Z</time></trkpt><trkpt lat="43.56212807975408" lon="2.118426354333937"><ele>164.0</ele><time>2026-04-06T09:22:27.999Z</time></trkpt><trkpt lat="43.56212652170586" lon="2.118702296033689"><ele>163.33333333333331</ele><time>2026-04-06T09:22:28.999Z</time></trkpt><trkpt lat="43.56213276905603" lon="2.1189813831153526"><ele>162.66666666666666</ele><time>2026-04-06T09:22:29.999Z</time></trkpt><trkpt lat="43.56214309135109" lon="2.119254386734078"><ele>162.0</ele><time>2026-04-06T09:22:30.999Z</time></trkpt><trkpt lat="43.562163671365916" lon="2.119528088153729"><ele>163.66666666666666</ele><time>2026-04-06T09:22:31.999Z</time></trkpt><trkpt lat="43.562189965416174" lon="2.1197974929711716"><ele>165.33333333333331</ele><time>2026-04-06T09:22:32.999Z</time></trkpt><trkpt lat="43.56222159143701" lon="2.1200688994232277"><ele>167.0</ele><time>2026-04-06T09:22:33.999Z</time></trkpt><trkpt lat="43.562260104780506" lon="2.1203422343539886"><ele>167.0</ele><time>2026-04-06T09:22:35Z</time></trkpt><trkpt lat="43.5623036187555" lon="2.120614718246374"><ele>167.0</ele><time>2026-04-06T09:22:36Z</time></trkpt><trkpt lat="43.562354285409" lon="2.1208863894024073"><ele>167.0</ele><time>2026-04-06T09:22:37Z</time></trkpt><trkpt lat="43.56241073844322" lon="2.121157391330518"><ele>167.0</ele><time>2026-04-06T09:22:38Z</time></trkpt><trkpt lat="43.562478400487706" lon="2.1214268790807416"><ele>167.0</ele><time>2026-04-06T09:22:39Z</time></trkpt><trkpt lat="43.562555340126494" lon="2.1216920196271865"><ele>167.0</ele><time>2026-04-06T09:22:40Z</time></trkpt><trkpt lat="43.562638251917356" lon="2.121959046118694"><ele>167.0</ele><time>2026-04-06T09:22:41Z</time></trkpt><trkpt lat="43.562723051359356" lon="2.122223405523522"><ele>167.0</ele><time>2026-04-06T09:22:42Z</time></trkpt><trkpt lat="43.562822129059874" lon="2.122483222204685"><ele>167.0</ele><time>2026-04-06T09:22:43Z</time></trkpt><trkpt lat="43.56292373101921" lon="2.122732389786561"><ele>167.0</ele><time>2026-04-06T09:22:44Z</time></trkpt><trkpt lat="43.56302760242653" lon="2.1229796847938216"><ele>167.0</ele><time>2026-04-06T09:22:45Z</time></trkpt><trkpt lat="43.563143985766686" lon="2.1232236151972956"><ele>167.0</ele><time>2026-04-06T09:22:46Z</time></trkpt><trkpt lat="43.56325938042003" lon="2.1234485619900165"><ele>167.0</ele><time>2026-04-06T09:22:47Z</time></trkpt><trkpt lat="43.56338453588297" lon="2.1236673349823776"><ele>167.0</ele><time>2026-04-06T09:22:48Z</time></trkpt><trkpt lat="43.56353175646576" lon="2.1238652267425673"><ele>167.0</ele><time>2026-04-06T09:22:49Z</time></trkpt><trkpt lat="43.56365507228051" lon="2.12407758284363"><ele>166.66666666666666</ele><time>2026-04-06T09:22:50Z</time></trkpt><trkpt lat="43.56379036667943" lon="2.124287297999513"><ele>166.33333333333334</ele><time>2026-04-06T09:22:51Z</time></trkpt><trkpt lat="43.563924186987975" lon="2.1244974443494358"><ele>166.0</ele><time>2026-04-06T09:22:52Z</time></trkpt><trkpt lat="43.56404959943721" lon="2.124680052801511"><ele>166.0</ele><time>2026-04-06T09:22:53Z</time></trkpt><trkpt lat="43.56415725373644" lon="2.1248481675323716"><ele>166.0</ele><time>2026-04-06T09:22:54Z</time></trkpt><trkpt lat="43.564270934936246" lon="2.1250094080700994"><ele>166.0</ele><time>2026-04-06T09:22:55Z</time></trkpt><trkpt lat="43.56437764729525" lon="2.125178851128241"><ele>165.66666666666669</ele><time>2026-04-06T09:22:56Z</time></trkpt><trkpt lat="43.56447605621968" lon="2.1253392124432557"><ele>165.33333333333334</ele><time>2026-04-06T09:22:57Z</time></trkpt><trkpt lat="43.56457805021501" lon="2.1254905064175897"><ele>165.0</ele><time>2026-04-06T09:22:58Z</time></trkpt><trkpt lat="43.56467902583376" lon="2.125639830212613"><ele>165.25</ele><time>2026-04-06T09:22:59Z</time></trkpt><trkpt lat="43.564770466227685" lon="2.125774252317577"><ele>165.5</ele><time>2026-04-06T09:23:00Z</time></trkpt><trkpt lat="43.56484907781207" lon="2.12588481593715"><ele>165.75</ele><time>2026-04-06T09:23:01Z</time></trkpt><trkpt lat="43.56491255251115" lon="2.12599686492142"><ele>166.0</ele><time>2026-04-06T09:23:02Z</time></trkpt><trkpt lat="43.564974390246434" lon="2.1261133989668344"><ele>166.0</ele><time>2026-04-06T09:23:03Z</time></trkpt><trkpt lat="43.56501802045455" lon="2.126244106144961"><ele>166.0</ele><time>2026-04-06T09:23:04Z</time></trkpt><trkpt lat="43.565059299941275" lon="2.126377508951022"><ele>166.0</ele><time>2026-04-06T09:23:05Z</time></trkpt><trkpt lat="43.5650959119886" lon="2.126506734025074"><ele>166.0</ele><time>2026-04-06T09:23:06Z</time></trkpt><trkpt lat="43.56513960731133" lon="2.126633223763533"><ele>166.0</ele><time>2026-04-06T09:23:07Z</time></trkpt><trkpt lat="43.56519020219059" lon="2.126759044638528"><ele>165.8</ele><time>2026-04-06T09:23:08Z</time></trkpt><trkpt lat="43.56524822884449" lon="2.1268801618808792"><ele>165.60000000000002</ele><time>2026-04-06T09:23:09Z</time></trkpt><trkpt lat="43.56530796369264" lon="2.1270088545289623"><ele>165.4</ele><time>2026-04-06T09:23:10Z</time></trkpt><trkpt lat="43.565367340054394" lon="2.127140986293016"><ele>165.2</ele><time>2026-04-06T09:23:11Z</time></trkpt><trkpt lat="43.565426986322635" lon="2.1272697997955725"><ele>165.0</ele><time>2026-04-06T09:23:12Z</time></trkpt><trkpt lat="43.56548688858053" lon="2.127400066351536"><ele>165.0</ele><time>2026-04-06T09:23:13Z</time></trkpt><trkpt lat="43.56554942369506" lon="2.127517292058771"><ele>165.0</ele><time>2026-04-06T09:23:14Z</time></trkpt><trkpt lat="43.56561237750953" lon="2.1276313065700356"><ele>165.0</ele><time>2026-04-06T09:23:15Z</time></trkpt><trkpt lat="43.565672204048795" lon="2.127743463285399"><ele>165.0</ele><time>2026-04-06T09:23:16Z</time></trkpt><trkpt lat="43.56572954359328" lon="2.127852080582512"><ele>165.0</ele><time>2026-04-06T09:23:17Z</time></trkpt><trkpt lat="43.56578159986775" lon="2.1279550648562306"><ele>165.0</ele><time>2026-04-06T09:23:18Z</time></trkpt><trkpt lat="43.565825238375474" lon="2.128062298180074"><ele>165.0</ele><time>2026-04-06T09:23:19Z</time></trkpt><trkpt lat="43.56585508711192" lon="2.1281471014480755"><ele>165.0</ele><time>2026-04-06T09:23:20Z</time></trkpt><trkpt lat="43.56588825474173" lon="2.128296225496213"><ele>165.0</ele><time>2026-04-06T09:23:22Z</time></trkpt><trkpt lat="43.56588661557918" lon="2.1284042706117767"><ele>165.0</ele><time>2026-04-06T09:23:25Z</time></trkpt><trkpt lat="43.56586909495004" lon="2.1285213155468576"><ele>165.0</ele><time>2026-04-06T09:23:28Z</time></trkpt><trkpt lat="43.565806784966036" lon="2.1286738145931037"><ele>165.14285714285717</ele><time>2026-04-06T09:23:30Z</time></trkpt><trkpt lat="43.56577854435703" lon="2.1287645165736797"><ele>165.28571428571428</ele><time>2026-04-06T09:23:31Z</time></trkpt><trkpt lat="43.565780485106906" lon="2.1288570644483906"><ele>165.42857142857144</ele><time>2026-04-06T09:23:32Z</time></trkpt><trkpt lat="43.565797089421714" lon="2.1289427993073256"><ele>165.57142857142858</ele><time>2026-04-06T09:23:33Z</time></trkpt><trkpt lat="43.56585913329471" lon="2.1290105875981684"><ele>165.71428571428572</ele><time>2026-04-06T09:23:34Z</time></trkpt><trkpt lat="43.56593042665815" lon="2.1290423594380905"><ele>165.85714285714286</ele><time>2026-04-06T09:23:35Z</time></trkpt><trkpt lat="43.566005028176164" lon="2.129016059701754"><ele>166.0</ele><time>2026-04-06T09:23:36Z</time></trkpt><trkpt lat="43.56610376229783" lon="2.129010779315767"><ele>166.0</ele><time>2026-04-06T09:23:37Z</time></trkpt><trkpt lat="43.56618690552634" lon="2.12905078438538"><ele>166.0</ele><time>2026-04-06T09:23:38Z</time></trkpt><trkpt lat="43.56626232220813" lon="2.1291360518241107"><ele>166.0</ele><time>2026-04-06T09:23:39Z</time></trkpt><trkpt lat="43.56633683245932" lon="2.1292514450569318"><ele>166.0</ele><time>2026-04-06T09:23:40Z</time></trkpt><trkpt lat="43.56640820588815" lon="2.129380795003841"><ele>166.0</ele><time>2026-04-06T09:23:41Z</time></trkpt><trkpt lat="43.56646914839418" lon="2.1295217428434348"><ele>165.75</ele><time>2026-04-06T09:23:42Z</time></trkpt><trkpt lat="43.566516970297705" lon="2.1296755264754514"><ele>165.5</ele><time>2026-04-06T09:23:43Z</time></trkpt><trkpt lat="43.566550682629156" lon="2.1298499712659082"><ele>165.25</ele><time>2026-04-06T09:23:44Z</time></trkpt><trkpt lat="43.566568310757326" lon="2.1300384904956737"><ele>165.0</ele><time>2026-04-06T09:23:45Z</time></trkpt><trkpt lat="43.56658516336998" lon="2.130225088748161"><ele>165.0</ele><time>2026-04-06T09:23:46Z</time></trkpt><trkpt lat="43.56660329735773" lon="2.130401139094086"><ele>165.0</ele><time>2026-04-06T09:23:47Z</time></trkpt><trkpt lat="43.56662143108084" lon="2.1305714780861846"><ele>165.0</ele><time>2026-04-06T09:23:48Z</time></trkpt><trkpt lat="43.566639867260136" lon="2.1307390897083187"><ele>165.0</ele><time>2026-04-06T09:23:49Z</time></trkpt><trkpt lat="43.56665960228164" lon="2.130903735140747"><ele>165.0</ele><time>2026-04-06T09:23:50Z</time></trkpt><trkpt lat="43.56668132700147" lon="2.1310724833102066"><ele>165.0</ele><time>2026-04-06T09:23:51Z</time></trkpt><trkpt lat="43.56670426245524" lon="2.1312525037215977"><ele>165.0</ele><time>2026-04-06T09:23:52Z</time></trkpt><trkpt lat="43.566715747841116" lon="2.1314472571193477"><ele>165.0</ele><time>2026-04-06T09:23:53Z</time></trkpt><trkpt lat="43.56670837336428" lon="2.1316584885047436"><ele>165.0</ele><time>2026-04-06T09:23:54Z</time></trkpt><trkpt lat="43.56667852439566" lon="2.1318717653813346"><ele>165.0</ele><time>2026-04-06T09:23:55Z</time></trkpt><trkpt lat="43.566613019587066" lon="2.1320853959869095"><ele>165.0</ele><time>2026-04-06T09:23:56Z</time></trkpt><trkpt lat="43.566539303026325" lon="2.132282180402717"><ele>165.0</ele><time>2026-04-06T09:23:57Z</time></trkpt><trkpt lat="43.566458734085124" lon="2.1324627504133566"><ele>165.0</ele><time>2026-04-06T09:23:58Z</time></trkpt><trkpt lat="43.566386295872455" lon="2.132638783234402"><ele>165.0</ele><time>2026-04-06T09:23:59Z</time></trkpt><trkpt lat="43.56632479068858" lon="2.1328045330134744"><ele>165.0</ele><time>2026-04-06T09:24:00Z</time></trkpt><trkpt lat="43.5662749991074" lon="2.1329713383843174"><ele>165.0</ele><time>2026-04-06T09:24:01Z</time></trkpt><trkpt lat="43.56626553754884" lon="2.133132720282173"><ele>165.0</ele><time>2026-04-06T09:24:02Z</time></trkpt><trkpt lat="43.566254628464655" lon="2.1333113568872135"><ele>165.0</ele><time>2026-04-06T09:24:03Z</time></trkpt><trkpt lat="43.56625369868119" lon="2.133479047345372"><ele>165.0</ele><time>2026-04-06T09:24:04Z</time></trkpt><trkpt lat="43.566270155717234" lon="2.133640133786973"><ele>165.25</ele><time>2026-04-06T09:24:05Z</time></trkpt><trkpt lat="43.56630089676486" lon="2.1337949894391968"><ele>165.5</ele><time>2026-04-06T09:24:06Z</time></trkpt><trkpt lat="43.566338490427356" lon="2.1339543310224975"><ele>165.75</ele><time>2026-04-06T09:24:07Z</time></trkpt><trkpt lat="43.566373357831225" lon="2.134120434628148"><ele>166.0</ele><time>2026-04-06T09:24:07.999Z</time></trkpt><trkpt lat="43.56644125423064" lon="2.134266719469414"><ele>166.0</ele><time>2026-04-06T09:24:08.999Z</time></trkpt><trkpt lat="43.56651820770655" lon="2.1343953580778243"><ele>166.0</ele><time>2026-04-06T09:24:09.999Z</time></trkpt><trkpt lat="43.566599775184" lon="2.1345054603640974"><ele>166.0</ele><time>2026-04-06T09:24:10.999Z</time></trkpt><trkpt lat="43.56667991273736" lon="2.134592520063962"><ele>166.0</ele><time>2026-04-06T09:24:11.999Z</time></trkpt><trkpt lat="43.56674446783755" lon="2.1346594434090247"><ele>166.0</ele><time>2026-04-06T09:24:12.999Z</time></trkpt><trkpt lat="43.566848776314735" lon="2.1347380835609733"><ele>166.0</ele><time>2026-04-06T09:24:14.999Z</time></trkpt><trkpt lat="43.566929638586004" lon="2.1348769455530343"><ele>166.0</ele><time>2026-04-06T09:24:16.999Z</time></trkpt><trkpt lat="43.56696614818364" lon="2.1349602558531564"><ele>166.0</ele><time>2026-04-06T09:24:17.999Z</time></trkpt><trkpt lat="43.567006862840095" lon="2.1350501545283023"><ele>166.0</ele><time>2026-04-06T09:24:18.999Z</time></trkpt><trkpt lat="43.56713397321687" lon="2.135143008382055"><ele>166.0</ele><time>2026-04-06T09:24:20.999Z</time></trkpt><trkpt lat="43.567222317739805" lon="2.135082079352092"><ele>165.75</ele><time>2026-04-06T09:24:21.999Z</time></trkpt><trkpt lat="43.56731300710833" lon="2.1350073551789754"><ele>165.5</ele><time>2026-04-06T09:24:22.999Z</time></trkpt><trkpt lat="43.56738149960971" lon="2.1348908346010895"><ele>165.25</ele><time>2026-04-06T09:24:23.999Z</time></trkpt><trkpt lat="43.56747027636925" lon="2.1347997155506353"><ele>165.0</ele><time>2026-04-06T09:24:24.999Z</time></trkpt><trkpt lat="43.5675937849456" lon="2.1347745251163057"><ele>164.75</ele><time>2026-04-06T09:24:25.999Z</time></trkpt><trkpt lat="43.56772053568349" lon="2.1347359060391544"><ele>164.5</ele><time>2026-04-06T09:24:26.999Z</time></trkpt><trkpt lat="43.56785074267457" lon="2.1346962338972375"><ele>164.25</ele><time>2026-04-06T09:24:27.999Z</time></trkpt><trkpt lat="43.56797800566701" lon="2.1346439630920564"><ele>164.0</ele><time>2026-04-06T09:24:28.999Z</time></trkpt><trkpt lat="43.56810827171243" lon="2.1345975164382307"><ele>164.0</ele><time>2026-04-06T09:24:29.999Z</time></trkpt><trkpt lat="43.5682359641867" lon="2.134559682423389"><ele>164.0</ele><time>2026-04-06T09:24:30.999Z</time></trkpt><trkpt lat="43.56836267473409" lon="2.1345203030887623"><ele>164.0</ele><time>2026-04-06T09:24:31.999Z</time></trkpt><trkpt lat="43.56848665103187" lon="2.1344857959692423"><ele>164.0</ele><time>2026-04-06T09:24:32.999Z</time></trkpt><trkpt lat="43.56861116879885" lon="2.134451700651824"><ele>164.0</ele><time>2026-04-06T09:24:33.999Z</time></trkpt><trkpt lat="43.56873284291262" lon="2.134427899850246"><ele>164.0</ele><time>2026-04-06T09:24:34.999Z</time></trkpt><trkpt lat="43.568841956618115" lon="2.1343726100685045"><ele>164.0</ele><time>2026-04-06T09:24:35.999Z</time></trkpt><trkpt lat="43.56895009418053" lon="2.134356910953166"><ele>164.0</ele><time>2026-04-06T09:24:36.999Z</time></trkpt><trkpt lat="43.569048548931484" lon="2.134373746366981"><ele>164.0</ele><time>2026-04-06T09:24:37.999Z</time></trkpt><trkpt lat="43.569138510722546" lon="2.1344078400966024"><ele>164.0</ele><time>2026-04-06T09:24:38.999Z</time></trkpt><trkpt lat="43.56922035338526" lon="2.134442530351245"><ele>164.0</ele><time>2026-04-06T09:24:39.999Z</time></trkpt><trkpt lat="43.56929808787878" lon="2.1344727914085224"><ele>164.0</ele><time>2026-04-06T09:24:41Z</time></trkpt><trkpt lat="43.56938172896267" lon="2.1344055643331674"><ele>164.0</ele><time>2026-04-06T09:24:42Z</time></trkpt><trkpt lat="43.569467207125086" lon="2.1343011459322017"><ele>164.0</ele><time>2026-04-06T09:24:43Z</time></trkpt><trkpt lat="43.56956418193585" lon="2.1342278736497526"><ele>164.0</ele><time>2026-04-06T09:24:44Z</time></trkpt><trkpt lat="43.569681157969505" lon="2.1342047820943613"><ele>164.0</ele><time>2026-04-06T09:24:45Z</time></trkpt><trkpt lat="43.5698076703514" lon="2.134214575739618"><ele>164.0</ele><time>2026-04-06T09:24:46Z</time></trkpt><trkpt lat="43.56993879248659" lon="2.1342392480753842"><ele>164.0</ele><time>2026-04-06T09:24:47Z</time></trkpt><trkpt lat="43.57007575353097" lon="2.1342897905961555"><ele>164.0</ele><time>2026-04-06T09:24:48Z</time></trkpt><trkpt lat="43.57021402003143" lon="2.1343646222489614"><ele>164.0</ele><time>2026-04-06T09:24:49Z</time></trkpt><trkpt lat="43.570346339507594" lon="2.134468581297914"><ele>164.0</ele><time>2026-04-06T09:24:50Z</time></trkpt><trkpt lat="43.5704707457003" lon="2.134608135519387"><ele>164.33333333333331</ele><time>2026-04-06T09:24:51Z</time></trkpt><trkpt lat="43.57058589905561" lon="2.1347705444992204"><ele>164.66666666666666</ele><time>2026-04-06T09:24:52Z</time></trkpt><trkpt lat="43.57070688860621" lon="2.1349392240045146"><ele>165.0</ele><time>2026-04-06T09:24:53Z</time></trkpt><trkpt lat="43.57081275936038" lon="2.1351209665831172"><ele>165.0</ele><time>2026-04-06T09:24:54Z</time></trkpt><trkpt lat="43.57092182237073" lon="2.1352986345859453"><ele>165.0</ele><time>2026-04-06T09:24:55Z</time></trkpt><trkpt lat="43.57102703182404" lon="2.135470846639597"><ele>165.0</ele><time>2026-04-06T09:24:56Z</time></trkpt><trkpt lat="43.57112999357633" lon="2.13563527622323"><ele>165.25</ele><time>2026-04-06T09:24:57Z</time></trkpt><trkpt lat="43.571229222556525" lon="2.1357865901706257"><ele>165.5</ele><time>2026-04-06T09:24:58Z</time></trkpt><trkpt lat="43.57132213412704" lon="2.135929120420376"><ele>165.75</ele><time>2026-04-06T09:24:59Z</time></trkpt><trkpt lat="43.57141239710942" lon="2.136071534280549"><ele>166.0</ele><time>2026-04-06T09:25:00Z</time></trkpt><trkpt lat="43.571499263090956" lon="2.1362117293155087"><ele>166.0</ele><time>2026-04-06T09:25:01Z</time></trkpt><trkpt lat="43.57158524043649" lon="2.1363452561705634"><ele>166.0</ele><time>2026-04-06T09:25:02Z</time></trkpt><trkpt lat="43.57167090598617" lon="2.136470922147039"><ele>166.0</ele><time>2026-04-06T09:25:03Z</time></trkpt><trkpt lat="43.571755810218626" lon="2.136592400216871"><ele>166.0</ele><time>2026-04-06T09:25:04Z</time></trkpt><trkpt lat="43.5718365106698" lon="2.1367149283291096"><ele>166.0</ele><time>2026-04-06T09:25:05Z</time></trkpt><trkpt lat="43.57191720298025" lon="2.136838881502868"><ele>166.0</ele><time>2026-04-06T09:25:06Z</time></trkpt><trkpt lat="43.572003813611396" lon="2.1369768569841057"><ele>166.0</ele><time>2026-04-06T09:25:07Z</time></trkpt><trkpt lat="43.57209595537826" lon="2.1371285515819376"><ele>166.0</ele><time>2026-04-06T09:25:08Z</time></trkpt><trkpt lat="43.572196835916465" lon="2.1372807824513935"><ele>166.66666666666669</ele><time>2026-04-06T09:25:09Z</time></trkpt><trkpt lat="43.57230352509345" lon="2.137437567016447"><ele>167.33333333333334</ele><time>2026-04-06T09:25:10Z</time></trkpt><trkpt lat="43.57241754834886" lon="2.1376112728195"><ele>168.0</ele><time>2026-04-06T09:25:11Z</time></trkpt><trkpt lat="43.57252954340368" lon="2.137790025671815"><ele>168.0</ele><time>2026-04-06T09:25:12Z</time></trkpt><trkpt lat="43.572649285035205" lon="2.1379757323979582"><ele>168.0</ele><time>2026-04-06T09:25:13Z</time></trkpt><trkpt lat="43.572769058184264" lon="2.1381543479857874"><ele>168.0</ele><time>2026-04-06T09:25:14Z</time></trkpt><trkpt lat="43.5728797162098" lon="2.1383201335933384"><ele>167.66666666666666</ele><time>2026-04-06T09:25:15Z</time></trkpt><trkpt lat="43.572998103772555" lon="2.13849591953343"><ele>167.33333333333331</ele><time>2026-04-06T09:25:16Z</time></trkpt><trkpt lat="43.57311386611861" lon="2.1386755973331235"><ele>167.0</ele><time>2026-04-06T09:25:17Z</time></trkpt><trkpt lat="43.57322720399829" lon="2.1388545661528924"><ele>167.0</ele><time>2026-04-06T09:25:18Z</time></trkpt><trkpt lat="43.57333946805779" lon="2.1390310574214375"><ele>167.0</ele><time>2026-04-06T09:25:19Z</time></trkpt><trkpt lat="43.57345014989929" lon="2.1392089914136054"><ele>167.0</ele><time>2026-04-06T09:25:20Z</time></trkpt><trkpt lat="43.5735652628205" lon="2.1393847908189865"><ele>167.0</ele><time>2026-04-06T09:25:21Z</time></trkpt><trkpt lat="43.573678578259425" lon="2.139552265294275"><ele>167.0</ele><time>2026-04-06T09:25:22Z</time></trkpt><trkpt lat="43.57379238534533" lon="2.139726582046013"><ele>167.0</ele><time>2026-04-06T09:25:23Z</time></trkpt><trkpt lat="43.573911229757414" lon="2.139904069004878"><ele>167.33333333333331</ele><time>2026-04-06T09:25:24Z</time></trkpt><trkpt lat="43.5740254508477" lon="2.1400837464710496"><ele>167.66666666666666</ele><time>2026-04-06T09:25:25Z</time></trkpt><trkpt lat="43.57414186889537" lon="2.1402662300280384"><ele>168.0</ele><time>2026-04-06T09:25:26Z</time></trkpt><trkpt lat="43.57425391018033" lon="2.1404495458232975"><ele>168.0</ele><time>2026-04-06T09:25:27Z</time></trkpt><trkpt lat="43.57436364627921" lon="2.1406333984845483"><ele>168.0</ele><time>2026-04-06T09:25:28Z</time></trkpt><trkpt lat="43.57447050735297" lon="2.1408139808775286"><ele>168.0</ele><time>2026-04-06T09:25:29Z</time></trkpt><trkpt lat="43.57457595380012" lon="2.1409920424855895"><ele>168.0</ele><time>2026-04-06T09:25:30Z</time></trkpt><trkpt lat="43.574683918731566" lon="2.1411645947827656"><ele>168.0</ele><time>2026-04-06T09:25:31Z</time></trkpt><trkpt lat="43.57479257475475" lon="2.1413343867949215"><ele>168.0</ele><time>2026-04-06T09:25:32Z</time></trkpt><trkpt lat="43.574903731432435" lon="2.1415026037371256"><ele>167.66666666666666</ele><time>2026-04-06T09:25:33Z</time></trkpt><trkpt lat="43.575015111502566" lon="2.141672537555756"><ele>167.33333333333331</ele><time>2026-04-06T09:25:34Z</time></trkpt><trkpt lat="43.57512641028133" lon="2.1418393091672265"><ele>167.0</ele><time>2026-04-06T09:25:35Z</time></trkpt><trkpt lat="43.57523610608242" lon="2.1420076698476223"><ele>167.0</ele><time>2026-04-06T09:25:36Z</time></trkpt><trkpt lat="43.575340736003554" lon="2.1421753925631424"><ele>167.0</ele><time>2026-04-06T09:25:37Z</time></trkpt><trkpt lat="43.57544850088775" lon="2.1423407649275625"><ele>167.0</ele><time>2026-04-06T09:25:38Z</time></trkpt><trkpt lat="43.575557921458376" lon="2.1425032739100813"><ele>167.66666666666666</ele><time>2026-04-06T09:25:39Z</time></trkpt><trkpt lat="43.57567344457092" lon="2.1426602315231094"><ele>168.33333333333334</ele><time>2026-04-06T09:25:40Z</time></trkpt><trkpt lat="43.57579591205768" lon="2.1428194173921433"><ele>169.0</ele><time>2026-04-06T09:25:41Z</time></trkpt><trkpt lat="43.57591054271806" lon="2.1429886727057137"><ele>169.0</ele><time>2026-04-06T09:25:42Z</time></trkpt><trkpt lat="43.57602161158579" lon="2.1431590545060137"><ele>169.0</ele><time>2026-04-06T09:25:43Z</time></trkpt><trkpt lat="43.57612850704836" lon="2.1433268559435668"><ele>169.0</ele><time>2026-04-06T09:25:44Z</time></trkpt><trkpt lat="43.57623595571455" lon="2.1434904745637104"><ele>168.0</ele><time>2026-04-06T09:25:45Z</time></trkpt><trkpt lat="43.576347152976226" lon="2.1436540832517004"><ele>167.0</ele><time>2026-04-06T09:25:46Z</time></trkpt><trkpt lat="43.57645179221052" lon="2.1438130682888987"><ele>166.0</ele><time>2026-04-06T09:25:47Z</time></trkpt><trkpt lat="43.57655435117179" lon="2.143969803167975"><ele>166.0</ele><time>2026-04-06T09:25:48Z</time></trkpt><trkpt lat="43.57665808317721" lon="2.144123682755777"><ele>166.0</ele><time>2026-04-06T09:25:49Z</time></trkpt><trkpt lat="43.57676069897176" lon="2.1442750612584556"><ele>166.0</ele><time>2026-04-06T09:25:50Z</time></trkpt><trkpt lat="43.57686329029236" lon="2.1444281991435123"><ele>166.0</ele><time>2026-04-06T09:25:51Z</time></trkpt><trkpt lat="43.57696563912554" lon="2.1445849776609838"><ele>166.0</ele><time>2026-04-06T09:25:52Z</time></trkpt><trkpt lat="43.577066337135136" lon="2.144741293984015"><ele>166.0</ele><time>2026-04-06T09:25:53Z</time></trkpt><trkpt lat="43.57716751660524" lon="2.144897142467452"><ele>166.25</ele><time>2026-04-06T09:25:54Z</time></trkpt><trkpt lat="43.57726469055963" lon="2.1450539813370892"><ele>166.5</ele><time>2026-04-06T09:25:55Z</time></trkpt><trkpt lat="43.577356659488096" lon="2.1452031011581765"><ele>166.75</ele><time>2026-04-06T09:25:56Z</time></trkpt><trkpt lat="43.57744571833776" lon="2.145343559481581"><ele>167.0</ele><time>2026-04-06T09:25:56.999Z</time></trkpt><trkpt lat="43.57753722653111" lon="2.1454751836356922"><ele>167.0</ele><time>2026-04-06T09:25:57.999Z</time></trkpt><trkpt lat="43.577635339525855" lon="2.145571666457564"><ele>167.0</ele><time>2026-04-06T09:25:58.999Z</time></trkpt><trkpt lat="43.577688541193055" lon="2.145681072720092"><ele>167.0</ele><time>2026-04-06T09:25:59.999Z</time></trkpt><trkpt lat="43.57776215175736" lon="2.1457936966827393"><ele>167.0</ele><time>2026-04-06T09:26:00.999Z</time></trkpt><trkpt lat="43.577840061412076" lon="2.1459136503527008"><ele>167.0</ele><time>2026-04-06T09:26:01.999Z</time></trkpt><trkpt lat="43.577937763601895" lon="2.146064440674176"><ele>167.0</ele><time>2026-04-06T09:26:02.999Z</time></trkpt><trkpt lat="43.5780306154096" lon="2.1462083903630056"><ele>167.0</ele><time>2026-04-06T09:26:03.999Z</time></trkpt><trkpt lat="43.578115815066894" lon="2.1463404768593954"><ele>167.0</ele><time>2026-04-06T09:26:04.999Z</time></trkpt><trkpt lat="43.57820302560655" lon="2.146475680865064"><ele>167.0</ele><time>2026-04-06T09:26:05.999Z</time></trkpt><trkpt lat="43.57828914837718" lon="2.1466091984219453"><ele>167.0</ele><time>2026-04-06T09:26:06.999Z</time></trkpt><trkpt lat="43.57837784242404" lon="2.1467493032684537"><ele>167.0</ele><time>2026-04-06T09:26:07.999Z</time></trkpt><trkpt lat="43.57846818796011" lon="2.146892176576759"><ele>167.0</ele><time>2026-04-06T09:26:08.999Z</time></trkpt><trkpt lat="43.57855622161109" lon="2.14703139388235"><ele>167.0</ele><time>2026-04-06T09:26:09.999Z</time></trkpt><trkpt lat="43.57864703788034" lon="2.14717399013162"><ele>167.25</ele><time>2026-04-06T09:26:10.999Z</time></trkpt><trkpt lat="43.57874017202821" lon="2.1473183231142157"><ele>167.5</ele><time>2026-04-06T09:26:11.999Z</time></trkpt><trkpt lat="43.57883724398474" lon="2.147468758682762"><ele>167.75</ele><time>2026-04-06T09:26:12.999Z</time></trkpt><trkpt lat="43.57893716220206" lon="2.1476225279299914"><ele>168.0</ele><time>2026-04-06T09:26:13.999Z</time></trkpt><trkpt lat="43.57903999937351" lon="2.1477800783982115"><ele>168.0</ele><time>2026-04-06T09:26:14.999Z</time></trkpt><trkpt lat="43.57914455940757" lon="2.14794026843796"><ele>168.0</ele><time>2026-04-06T09:26:15.999Z</time></trkpt><trkpt lat="43.5792492481279" lon="2.1481030480601566"><ele>168.0</ele><time>2026-04-06T09:26:16.999Z</time></trkpt><trkpt lat="43.5793560207649" lon="2.1482706188857628"><ele>169.0</ele><time>2026-04-06T09:26:17.999Z</time></trkpt><trkpt lat="43.57946144787855" lon="2.1484328607778544"><ele>170.0</ele><time>2026-04-06T09:26:18.999Z</time></trkpt><trkpt lat="43.57956647652974" lon="2.1485928803312806"><ele>171.0</ele><time>2026-04-06T09:26:19.999Z</time></trkpt><trkpt lat="43.57967394849863" lon="2.148756622497025"><ele>171.0</ele><time>2026-04-06T09:26:20.999Z</time></trkpt><trkpt lat="43.57978021152833" lon="2.1489219605710304"><ele>171.0</ele><time>2026-04-06T09:26:21.999Z</time></trkpt><trkpt lat="43.57988633912154" lon="2.1490873259180434"><ele>171.0</ele><time>2026-04-06T09:26:22.999Z</time></trkpt><trkpt lat="43.57998548888233" lon="2.1492389734942585"><ele>171.5</ele><time>2026-04-06T09:26:23.999Z</time></trkpt><trkpt lat="43.580079993534746" lon="2.14938053648713"><ele>172.0</ele><time>2026-04-06T09:26:24.999Z</time></trkpt><trkpt lat="43.58016279312982" lon="2.1495045658473204"><ele>172.5</ele><time>2026-04-06T09:26:25.999Z</time></trkpt><trkpt lat="43.58023871456028" lon="2.14961829215474"><ele>173.0</ele><time>2026-04-06T09:26:26.999Z</time></trkpt><trkpt lat="43.580318609402084" lon="2.149742851757147"><ele>173.5</ele><time>2026-04-06T09:26:27.999Z</time></trkpt><trkpt lat="43.58038608402347" lon="2.149890977937505"><ele>174.0</ele><time>2026-04-06T09:26:28.999Z</time></trkpt><trkpt lat="43.58046218254927" lon="2.1500384038114144"><ele>174.5</ele><time>2026-04-06T09:26:29.999Z</time></trkpt><trkpt lat="43.58054816309491" lon="2.150181831679468"><ele>175.0</ele><time>2026-04-06T09:26:30.999Z</time></trkpt><trkpt lat="43.580636138062125" lon="2.150323041907349"><ele>175.0</ele><time>2026-04-06T09:26:31.999Z</time></trkpt><trkpt lat="43.58072499428236" lon="2.1504625607236907"><ele>175.0</ele><time>2026-04-06T09:26:32.999Z</time></trkpt><trkpt lat="43.58081797212187" lon="2.150604221677218"><ele>175.0</ele><time>2026-04-06T09:26:33.999Z</time></trkpt><trkpt lat="43.58091263762036" lon="2.15074646207873"><ele>175.0</ele><time>2026-04-06T09:26:34.999Z</time></trkpt><trkpt lat="43.58100751316619" lon="2.150889376619463"><ele>175.0</ele><time>2026-04-06T09:26:35.999Z</time></trkpt><trkpt lat="43.58110237365359" lon="2.1510360330976375"><ele>175.0</ele><time>2026-04-06T09:26:36.999Z</time></trkpt><trkpt lat="43.58119567536283" lon="2.1511812225783333"><ele>175.0</ele><time>2026-04-06T09:26:37.999Z</time></trkpt><trkpt lat="43.581288009838865" lon="2.151329815307832"><ele>175.0</ele><time>2026-04-06T09:26:38.999Z</time></trkpt><trkpt lat="43.581381442799255" lon="2.151476381716111"><ele>175.5</ele><time>2026-04-06T09:26:39.999Z</time></trkpt><trkpt lat="43.58147555277901" lon="2.1516217286111785"><ele>176.0</ele><time>2026-04-06T09:26:40.999Z</time></trkpt><trkpt lat="43.58157008680893" lon="2.1517654880375234"><ele>176.5</ele><time>2026-04-06T09:26:41.999Z</time></trkpt><trkpt lat="43.58166384129668" lon="2.151906195113798"><ele>177.0</ele><time>2026-04-06T09:26:42.999Z</time></trkpt><trkpt lat="43.58175683049572" lon="2.1520450699636036"><ele>177.0</ele><time>2026-04-06T09:26:43.999Z</time></trkpt><trkpt lat="43.581849562259244" lon="2.1521831243260428"><ele>177.0</ele><time>2026-04-06T09:26:44.999Z</time></trkpt><trkpt lat="43.581940828566836" lon="2.1523261624315912"><ele>177.0</ele><time>2026-04-06T09:26:45.999Z</time></trkpt><trkpt lat="43.58203196462913" lon="2.1524727177402605"><ele>177.0</ele><time>2026-04-06T09:26:46.999Z</time></trkpt><trkpt lat="43.58212303752683" lon="2.1526210803798147"><ele>177.5</ele><time>2026-04-06T09:26:47.999Z</time></trkpt><trkpt lat="43.58221355306309" lon="2.1527685627246895"><ele>178.0</ele><time>2026-04-06T09:26:48.999Z</time></trkpt><trkpt lat="43.58230135831663" lon="2.152919766462286"><ele>178.5</ele><time>2026-04-06T09:26:49.999Z</time></trkpt><trkpt lat="43.58238615791175" lon="2.1530718789986714"><ele>179.0</ele><time>2026-04-06T09:26:50.999Z</time></trkpt><trkpt lat="43.5824660932475" lon="2.153225844859464"><ele>179.5</ele><time>2026-04-06T09:26:52Z</time></trkpt><trkpt lat="43.58253853297494" lon="2.1533831773931906"><ele>180.0</ele><time>2026-04-06T09:26:53Z</time></trkpt><trkpt lat="43.582605811098205" lon="2.1535439805182306"><ele>180.5</ele><time>2026-04-06T09:26:54Z</time></trkpt><trkpt lat="43.58267424117418" lon="2.153706733615398"><ele>181.0</ele><time>2026-04-06T09:26:55Z</time></trkpt><trkpt lat="43.58274192520464" lon="2.153875560545887"><ele>181.5</ele><time>2026-04-06T09:26:56Z</time></trkpt><trkpt lat="43.58280847604604" lon="2.154048819462988"><ele>182.0</ele><time>2026-04-06T09:26:57Z</time></trkpt><trkpt lat="43.582869974793304" lon="2.1542227656115305"><ele>182.5</ele><time>2026-04-06T09:26:58Z</time></trkpt><trkpt lat="43.5829290987563" lon="2.154398745461852"><ele>183.0</ele><time>2026-04-06T09:26:59Z</time></trkpt><trkpt lat="43.582984844526095" lon="2.154575001267397"><ele>183.0</ele><time>2026-04-06T09:27:00Z</time></trkpt><trkpt lat="43.58303842518452" lon="2.154752703177263"><ele>183.0</ele><time>2026-04-06T09:27:01Z</time></trkpt><trkpt lat="43.58309053201812" lon="2.1549300822828545"><ele>183.0</ele><time>2026-04-06T09:27:02Z</time></trkpt><trkpt lat="43.583141155495625" lon="2.1551100813461614"><ele>183.0</ele><time>2026-04-06T09:27:03Z</time></trkpt><trkpt lat="43.58318915916624" lon="2.1552906038197595"><ele>183.0</ele><time>2026-04-06T09:27:04Z</time></trkpt><trkpt lat="43.583232854131936" lon="2.1554735570158363"><ele>183.0</ele><time>2026-04-06T09:27:05Z</time></trkpt><trkpt lat="43.583273768350345" lon="2.1556664864530406"><ele>183.0</ele><time>2026-04-06T09:27:06Z</time></trkpt><trkpt lat="43.583313587118276" lon="2.1558707255604563"><ele>183.0</ele><time>2026-04-06T09:27:07Z</time></trkpt><trkpt lat="43.583354749911216" lon="2.1560834128823037"><ele>183.33333333333334</ele><time>2026-04-06T09:27:08Z</time></trkpt><trkpt lat="43.58339718126651" lon="2.156304460008196"><ele>183.66666666666669</ele><time>2026-04-06T09:27:09Z</time></trkpt><trkpt lat="43.58343534915399" lon="2.1565321566889337"><ele>184.0</ele><time>2026-04-06T09:27:10Z</time></trkpt><trkpt lat="43.58346992200455" lon="2.156750683923211"><ele>184.33333333333334</ele><time>2026-04-06T09:27:11Z</time></trkpt><trkpt lat="43.583505762628796" lon="2.156973800266767"><ele>184.66666666666666</ele><time>2026-04-06T09:27:12Z</time></trkpt><trkpt lat="43.58354148250822" lon="2.15719544533932"><ele>185.0</ele><time>2026-04-06T09:27:13Z</time></trkpt><trkpt lat="43.58357694628391" lon="2.1574170306626135"><ele>185.0</ele><time>2026-04-06T09:27:14Z</time></trkpt><trkpt lat="43.58361380807277" lon="2.1576376094372445"><ele>185.0</ele><time>2026-04-06T09:27:15Z</time></trkpt><trkpt lat="43.58364680406258" lon="2.1578615316192074"><ele>185.0</ele><time>2026-04-06T09:27:16Z</time></trkpt><trkpt lat="43.58368102539525" lon="2.1580811471385166"><ele>184.0</ele><time>2026-04-06T09:27:17Z</time></trkpt><trkpt lat="43.583715701202244" lon="2.158302658363897"><ele>183.0</ele><time>2026-04-06T09:27:18Z</time></trkpt><trkpt lat="43.583748187108384" lon="2.1585206978262304"><ele>182.0</ele><time>2026-04-06T09:27:19Z</time></trkpt><trkpt lat="43.58378012347567" lon="2.158735172079447"><ele>182.0</ele><time>2026-04-06T09:27:20Z</time></trkpt><trkpt lat="43.58381228547531" lon="2.158953911779421"><ele>182.0</ele><time>2026-04-06T09:27:21Z</time></trkpt><trkpt lat="43.58384456703144" lon="2.1591738967050635"><ele>182.0</ele><time>2026-04-06T09:27:22Z</time></trkpt><trkpt lat="43.58387704599645" lon="2.1593932048361384"><ele>182.33333333333331</ele><time>2026-04-06T09:27:23Z</time></trkpt><trkpt lat="43.58391012408524" lon="2.1596113845512845"><ele>182.66666666666666</ele><time>2026-04-06T09:27:24Z</time></trkpt><trkpt lat="43.58394490204782" lon="2.1598313980792754"><ele>183.0</ele><time>2026-04-06T09:27:25Z</time></trkpt><trkpt lat="43.58398218818018" lon="2.1600554107563394"><ele>183.33333333333334</ele><time>2026-04-06T09:27:26Z</time></trkpt><trkpt lat="43.58402011288564" lon="2.160279314648537"><ele>183.66666666666669</ele><time>2026-04-06T09:27:27Z</time></trkpt><trkpt lat="43.58405488180471" lon="2.1605027706853828"><ele>184.0</ele><time>2026-04-06T09:27:28Z</time></trkpt><trkpt lat="43.58408761562836" lon="2.1607292051981273"><ele>184.33333333333334</ele><time>2026-04-06T09:27:29Z</time></trkpt><trkpt lat="43.584122584756486" lon="2.160959200551829"><ele>184.66666666666666</ele><time>2026-04-06T09:27:30Z</time></trkpt><trkpt lat="43.58415809676685" lon="2.16118839112394"><ele>185.0</ele><time>2026-04-06T09:27:31Z</time></trkpt><trkpt lat="43.58419215925277" lon="2.1614188033808994"><ele>185.33333333333331</ele><time>2026-04-06T09:27:32Z</time></trkpt><trkpt lat="43.58422702378756" lon="2.1616472521613206"><ele>185.66666666666666</ele><time>2026-04-06T09:27:33Z</time></trkpt><trkpt lat="43.58426162586227" lon="2.161875206759932"><ele>186.0</ele><time>2026-04-06T09:27:34Z</time></trkpt><trkpt lat="43.58429737596137" lon="2.162103747943331"><ele>186.0</ele><time>2026-04-06T09:27:35Z</time></trkpt><trkpt lat="43.584334208354505" lon="2.162334919964182"><ele>186.0</ele><time>2026-04-06T09:27:36Z</time></trkpt><trkpt lat="43.58437060834299" lon="2.162566708273722"><ele>186.0</ele><time>2026-04-06T09:27:37Z</time></trkpt><trkpt lat="43.584404708159354" lon="2.1627981025870584"><ele>185.66666666666666</ele><time>2026-04-06T09:27:38Z</time></trkpt><trkpt lat="43.58443822797313" lon="2.1630302538294472"><ele>185.33333333333331</ele><time>2026-04-06T09:27:39Z</time></trkpt><trkpt lat="43.58447106560729" lon="2.163260565730329"><ele>185.0</ele><time>2026-04-06T09:27:40Z</time></trkpt><trkpt lat="43.584505404634754" lon="2.163490374218189"><ele>184.66666666666666</ele><time>2026-04-06T09:27:41Z</time></trkpt><trkpt lat="43.5845424556718" lon="2.163720520906796"><ele>184.33333333333334</ele><time>2026-04-06T09:27:42Z</time></trkpt><trkpt lat="43.58457980898599" lon="2.16395144896511"><ele>184.0</ele><time>2026-04-06T09:27:43Z</time></trkpt><trkpt lat="43.58461262268562" lon="2.164179652824737"><ele>184.0</ele><time>2026-04-06T09:27:44Z</time></trkpt><trkpt lat="43.584643959790746" lon="2.1644125309933333"><ele>184.0</ele><time>2026-04-06T09:27:45Z</time></trkpt><trkpt lat="43.584677567564654" lon="2.164643366906038"><ele>184.0</ele><time>2026-04-06T09:27:46Z</time></trkpt><trkpt lat="43.584711237900834" lon="2.164873018584336"><ele>184.33333333333334</ele><time>2026-04-06T09:27:46.999Z</time></trkpt><trkpt lat="43.5847457115039" lon="2.165096279407851"><ele>184.66666666666666</ele><time>2026-04-06T09:27:47.999Z</time></trkpt><trkpt lat="43.584780083733285" lon="2.165304299832421"><ele>185.0</ele><time>2026-04-06T09:27:48.999Z</time></trkpt><trkpt lat="43.584812122540995" lon="2.1655026220003157"><ele>185.0</ele><time>2026-04-06T09:27:49.999Z</time></trkpt><trkpt lat="43.58484120820127" lon="2.1656812801798284"><ele>185.0</ele><time>2026-04-06T09:27:50.999Z</time></trkpt><trkpt lat="43.58486372887113" lon="2.165855127367481"><ele>185.0</ele><time>2026-04-06T09:27:51.999Z</time></trkpt><trkpt lat="43.584850808509586" lon="2.1660188174996167"><ele>185.0</ele><time>2026-04-06T09:27:52.999Z</time></trkpt><trkpt lat="43.58481974547906" lon="2.1661813406449504"><ele>185.5</ele><time>2026-04-06T09:27:53.999Z</time></trkpt><trkpt lat="43.58482300856901" lon="2.1663380547856135"><ele>186.0</ele><time>2026-04-06T09:27:54.999Z</time></trkpt><trkpt lat="43.58488043581677" lon="2.16649438691773"><ele>186.5</ele><time>2026-04-06T09:27:55.999Z</time></trkpt><trkpt lat="43.58496719908718" lon="2.1666397298510147"><ele>187.0</ele><time>2026-04-06T09:27:56.999Z</time></trkpt><trkpt lat="43.58502614893844" lon="2.1668163050918334"><ele>187.0</ele><time>2026-04-06T09:27:57.999Z</time></trkpt><trkpt lat="43.58505938845042" lon="2.1670144026647993"><ele>187.0</ele><time>2026-04-06T09:27:58.999Z</time></trkpt><trkpt lat="43.58508654487298" lon="2.167235871636269"><ele>187.0</ele><time>2026-04-06T09:27:59.999Z</time></trkpt><trkpt lat="43.58511430143316" lon="2.167462212217806"><ele>187.0</ele><time>2026-04-06T09:28:00.999Z</time></trkpt><trkpt lat="43.58514804276552" lon="2.1676871792622006"><ele>187.0</ele><time>2026-04-06T09:28:01.999Z</time></trkpt><trkpt lat="43.585183521899346" lon="2.167918252278336"><ele>187.0</ele><time>2026-04-06T09:28:02.999Z</time></trkpt><trkpt lat="43.58521844563026" lon="2.168155199187538"><ele>185.33333333333334</ele><time>2026-04-06T09:28:03.999Z</time></trkpt><trkpt lat="43.58525291247554" lon="2.16839249430009"><ele>183.66666666666666</ele><time>2026-04-06T09:28:04.999Z</time></trkpt><trkpt lat="43.58528856589804" lon="2.1686316623045507"><ele>182.0</ele><time>2026-04-06T09:28:05.999Z</time></trkpt><trkpt lat="43.585321297633854" lon="2.1688706534598947"><ele>181.0</ele><time>2026-04-06T09:28:06.999Z</time></trkpt><trkpt lat="43.58535457599321" lon="2.169110860884759"><ele>180.0</ele><time>2026-04-06T09:28:07.999Z</time></trkpt><trkpt lat="43.585391378677116" lon="2.1693555442782637"><ele>179.0</ele><time>2026-04-06T09:28:08.999Z</time></trkpt><trkpt lat="43.58542929432415" lon="2.1696003637870103"><ele>179.0</ele><time>2026-04-06T09:28:09.999Z</time></trkpt><trkpt lat="43.58546544030009" lon="2.1698386347043823"><ele>179.0</ele><time>2026-04-06T09:28:10.999Z</time></trkpt><trkpt lat="43.58550231427922" lon="2.1700837692395063"><ele>179.0</ele><time>2026-04-06T09:28:11.999Z</time></trkpt><trkpt lat="43.58553774609547" lon="2.170326698898748"><ele>178.66666666666666</ele><time>2026-04-06T09:28:12.999Z</time></trkpt><trkpt lat="43.585574407138715" lon="2.170568190451586"><ele>178.33333333333334</ele><time>2026-04-06T09:28:13.999Z</time></trkpt><trkpt lat="43.58560947483825" lon="2.170807280378474"><ele>178.0</ele><time>2026-04-06T09:28:14.999Z</time></trkpt><trkpt lat="43.585646093914335" lon="2.1710449859217835"><ele>178.0</ele><time>2026-04-06T09:28:15.999Z</time></trkpt><trkpt lat="43.58568325497079" lon="2.1712784142471366"><ele>178.0</ele><time>2026-04-06T09:28:16.999Z</time></trkpt><trkpt lat="43.58572083596732" lon="2.1715078804864882"><ele>178.0</ele><time>2026-04-06T09:28:17.999Z</time></trkpt><trkpt lat="43.58575640833764" lon="2.171736634619825"><ele>178.0</ele><time>2026-04-06T09:28:18.999Z</time></trkpt><trkpt lat="43.58579049908685" lon="2.1719667185873486"><ele>178.0</ele><time>2026-04-06T09:28:19.999Z</time></trkpt><trkpt lat="43.585823322133386" lon="2.172197185045701"><ele>178.0</ele><time>2026-04-06T09:28:20.999Z</time></trkpt><trkpt lat="43.58585756139333" lon="2.1724272020655793"><ele>178.33333333333334</ele><time>2026-04-06T09:28:21.999Z</time></trkpt><trkpt lat="43.585893345299155" lon="2.1726593462812365"><ele>178.66666666666666</ele><time>2026-04-06T09:28:22.999Z</time></trkpt><trkpt lat="43.58592914786892" lon="2.1728942304915444"><ele>179.0</ele><time>2026-04-06T09:28:23.999Z</time></trkpt><trkpt lat="43.585964535334774" lon="2.173132255987822"><ele>179.0</ele><time>2026-04-06T09:28:24.999Z</time></trkpt><trkpt lat="43.586003189128355" lon="2.1733729515217015"><ele>179.0</ele><time>2026-04-06T09:28:25.999Z</time></trkpt><trkpt lat="43.58604088418335" lon="2.1736149519186965"><ele>179.0</ele><time>2026-04-06T09:28:26.999Z</time></trkpt><trkpt lat="43.586078330973876" lon="2.173852861208336"><ele>179.0</ele><time>2026-04-06T09:28:27.999Z</time></trkpt><trkpt lat="43.58611472785765" lon="2.174085785356611"><ele>179.0</ele><time>2026-04-06T09:28:28.999Z</time></trkpt><trkpt lat="43.5861509417668" lon="2.1743021968153604"><ele>179.0</ele><time>2026-04-06T09:28:29.999Z</time></trkpt><trkpt lat="43.58618854393266" lon="2.1745083569538535"><ele>179.0</ele><time>2026-04-06T09:28:30.999Z</time></trkpt><trkpt lat="43.58622668794602" lon="2.1747002647217735"><ele>179.0</ele><time>2026-04-06T09:28:31.999Z</time></trkpt><trkpt lat="43.586261875384984" lon="2.17486941335877"><ele>179.0</ele><time>2026-04-06T09:28:32.999Z</time></trkpt><trkpt lat="43.58628835975267" lon="2.1750204012247285"><ele>179.0</ele><time>2026-04-06T09:28:33.999Z</time></trkpt><trkpt lat="43.586308352715136" lon="2.175150954391263"><ele>179.00000000000003</ele><time>2026-04-06T09:28:34.999Z</time></trkpt><trkpt lat="43.58632271827783" lon="2.175253018093379"><ele>179.0</ele><time>2026-04-06T09:28:35.999Z</time></trkpt><trkpt lat="43.58633536541992" lon="2.1753767232251056"><ele>179.0</ele><time>2026-04-06T09:28:37.999Z</time></trkpt><trkpt lat="43.586347899269086" lon="2.175466000471057"><ele>179.0</ele><time>2026-04-06T09:29:28Z</time></trkpt><trkpt lat="43.58635892383284" lon="2.1755547138376934"><ele>179.0</ele><time>2026-04-06T09:29:29Z</time></trkpt><trkpt lat="43.58637401965231" lon="2.1756533173780896"><ele>179.00000000000003</ele><time>2026-04-06T09:29:30Z</time></trkpt><trkpt lat="43.58638652987775" lon="2.1757463795879297"><ele>179.0</ele><time>2026-04-06T09:29:31Z</time></trkpt><trkpt lat="43.58639853960446" lon="2.1758371091932394"><ele>179.0</ele><time>2026-04-06T09:29:32Z</time></trkpt><trkpt lat="43.58641861686243" lon="2.1759949402496908"><ele>179.0</ele><time>2026-04-06T09:29:34Z</time></trkpt><trkpt lat="43.586438700872584" lon="2.1761346249825935"><ele>179.0</ele><time>2026-04-06T09:29:36Z</time></trkpt><trkpt lat="43.58646267789079" lon="2.1763279598265743"><ele>179.0</ele><time>2026-04-06T09:29:38Z</time></trkpt><trkpt lat="43.58647683029965" lon="2.176452302472564"><ele>178.75</ele><time>2026-04-06T09:29:39Z</time></trkpt><trkpt lat="43.586499216253124" lon="2.1765907743917605"><ele>178.5</ele><time>2026-04-06T09:29:40Z</time></trkpt><trkpt lat="43.58652279171073" lon="2.176740999330526"><ele>178.25</ele><time>2026-04-06T09:29:41Z</time></trkpt><trkpt lat="43.586544514243975" lon="2.176901230878983"><ele>178.0</ele><time>2026-04-06T09:29:42Z</time></trkpt><trkpt lat="43.58656844735845" lon="2.177079998955429"><ele>178.0</ele><time>2026-04-06T09:29:43Z</time></trkpt><trkpt lat="43.58659846224126" lon="2.177276851469376"><ele>178.0</ele><time>2026-04-06T09:29:44Z</time></trkpt><trkpt lat="43.58663516590493" lon="2.1774918486028256"><ele>178.0</ele><time>2026-04-06T09:29:45Z</time></trkpt><trkpt lat="43.586671293396364" lon="2.1777320439324286"><ele>178.0</ele><time>2026-04-06T09:29:46Z</time></trkpt><trkpt lat="43.586706251164834" lon="2.177961537827004"><ele>178.0</ele><time>2026-04-06T09:29:47Z</time></trkpt><trkpt lat="43.586743226841115" lon="2.178191549937936"><ele>178.0</ele><time>2026-04-06T09:29:48Z</time></trkpt><trkpt lat="43.58677628344274" lon="2.1784197507543497"><ele>178.0</ele><time>2026-04-06T09:29:49Z</time></trkpt><trkpt lat="43.58680603810472" lon="2.1786470984849178"><ele>178.0</ele><time>2026-04-06T09:29:50Z</time></trkpt><trkpt lat="43.586845041843" lon="2.1789011657856987"><ele>178.0</ele><time>2026-04-06T09:29:51Z</time></trkpt><trkpt lat="43.586884339421644" lon="2.1791583952737232"><ele>178.0</ele><time>2026-04-06T09:29:52Z</time></trkpt><trkpt lat="43.586927283061854" lon="2.179421055001735"><ele>178.0</ele><time>2026-04-06T09:29:53Z</time></trkpt><trkpt lat="43.586968658307654" lon="2.179689353473412"><ele>178.0</ele><time>2026-04-06T09:29:54Z</time></trkpt><trkpt lat="43.58701100034338" lon="2.1799541101443833"><ele>177.33333333333334</ele><time>2026-04-06T09:29:55Z</time></trkpt><trkpt lat="43.58705205046037" lon="2.180221409374379"><ele>176.66666666666666</ele><time>2026-04-06T09:29:56Z</time></trkpt><trkpt lat="43.58709366546763" lon="2.180487021349726"><ele>176.0</ele><time>2026-04-06T09:29:57Z</time></trkpt><trkpt lat="43.587133298020035" lon="2.180749596841651"><ele>174.0</ele><time>2026-04-06T09:29:58Z</time></trkpt><trkpt lat="43.587170482161405" lon="2.1810117171162102"><ele>172.0</ele><time>2026-04-06T09:29:59Z</time></trkpt><trkpt lat="43.58720372715521" lon="2.1812718595011598"><ele>170.0</ele><time>2026-04-06T09:30:00Z</time></trkpt><trkpt lat="43.587242048774684" lon="2.1815293756750647"><ele>167.66666666666666</ele><time>2026-04-06T09:30:01Z</time></trkpt><trkpt lat="43.587280144996676" lon="2.181783964609445"><ele>165.33333333333334</ele><time>2026-04-06T09:30:02Z</time></trkpt><trkpt lat="43.58731588492792" lon="2.182040197263749"><ele>163.0</ele><time>2026-04-06T09:30:03Z</time></trkpt><trkpt lat="43.58735108135579" lon="2.1822929885743694"><ele>163.0</ele><time>2026-04-06T09:30:04Z</time></trkpt><trkpt lat="43.58738611697058" lon="2.1825416300227327"><ele>163.0</ele><time>2026-04-06T09:30:05Z</time></trkpt><trkpt lat="43.58741953942296" lon="2.1827913785779507"><ele>163.0</ele><time>2026-04-06T09:30:06Z</time></trkpt><trkpt lat="43.587449984757505" lon="2.1830395095863664"><ele>163.66666666666669</ele><time>2026-04-06T09:30:07Z</time></trkpt><trkpt lat="43.58747597167607" lon="2.1832879845615456"><ele>164.33333333333334</ele><time>2026-04-06T09:30:08Z</time></trkpt><trkpt lat="43.587497858829565" lon="2.1835321596082795"><ele>165.0</ele><time>2026-04-06T09:30:09Z</time></trkpt><trkpt lat="43.5875206738005" lon="2.1837704504150155"><ele>165.0</ele><time>2026-04-06T09:30:10Z</time></trkpt><trkpt lat="43.58754180174819" lon="2.184000169328459"><ele>165.0</ele><time>2026-04-06T09:30:11Z</time></trkpt><trkpt lat="43.58756246127929" lon="2.18422057399947"><ele>165.0</ele><time>2026-04-06T09:30:12Z</time></trkpt><trkpt lat="43.58758354244785" lon="2.1844311667386354"><ele>165.0</ele><time>2026-04-06T09:30:13Z</time></trkpt><trkpt lat="43.58760493218891" lon="2.1846297407092217"><ele>165.0</ele><time>2026-04-06T09:30:14Z</time></trkpt><trkpt lat="43.58762216434648" lon="2.184809343419448"><ele>165.0</ele><time>2026-04-06T09:30:15Z</time></trkpt><trkpt lat="43.587639820377" lon="2.18495664513389"><ele>165.0</ele><time>2026-04-06T09:30:16Z</time></trkpt><trkpt lat="43.5876511178524" lon="2.1850843051851716"><ele>165.0</ele><time>2026-04-06T09:30:17Z</time></trkpt><trkpt lat="43.58765698518953" lon="2.1852043745137286"><ele>165.0</ele><time>2026-04-06T09:30:18Z</time></trkpt><trkpt lat="43.58764084038946" lon="2.185327179445621"><ele>165.0</ele><time>2026-04-06T09:30:19Z</time></trkpt><trkpt lat="43.58760475332387" lon="2.1854597701120615"><ele>165.0</ele><time>2026-04-06T09:30:20Z</time></trkpt><trkpt lat="43.58754492761363" lon="2.1855890271795153"><ele>165.0</ele><time>2026-04-06T09:30:21Z</time></trkpt><trkpt lat="43.58750036936445" lon="2.1857257019294702"><ele>165.2</ele><time>2026-04-06T09:30:22Z</time></trkpt><trkpt lat="43.58749537785817" lon="2.185877463330155"><ele>165.4</ele><time>2026-04-06T09:30:22.999Z</time></trkpt><trkpt lat="43.58752989395902" lon="2.186020267406194"><ele>165.60000000000002</ele><time>2026-04-06T09:30:23.999Z</time></trkpt><trkpt lat="43.58759282228828" lon="2.1861440539566943"><ele>165.8</ele><time>2026-04-06T09:30:24.999Z</time></trkpt><trkpt lat="43.58768143588235" lon="2.1862463084105728"><ele>166.0</ele><time>2026-04-06T09:30:25.999Z</time></trkpt><trkpt lat="43.587783735452795" lon="2.186347102029151"><ele>165.66666666666669</ele><time>2026-04-06T09:30:26.999Z</time></trkpt><trkpt lat="43.58787999861379" lon="2.186487166757158"><ele>165.33333333333334</ele><time>2026-04-06T09:30:27.999Z</time></trkpt><trkpt lat="43.58795177454496" lon="2.1866698715183737"><ele>165.0</ele><time>2026-04-06T09:30:28.999Z</time></trkpt><trkpt lat="43.58799797685191" lon="2.1868935721837914"><ele>165.0</ele><time>2026-04-06T09:30:29.999Z</time></trkpt><trkpt lat="43.58804099201903" lon="2.1871618678041167"><ele>165.0</ele><time>2026-04-06T09:30:30.999Z</time></trkpt><trkpt lat="43.58808325115658" lon="2.187458240598602"><ele>165.0</ele><time>2026-04-06T09:30:31.999Z</time></trkpt><trkpt lat="43.5881215212029" lon="2.1877589033420746"><ele>165.0</ele><time>2026-04-06T09:30:32.999Z</time></trkpt><trkpt lat="43.588156566917505" lon="2.1880684678032933"><ele>165.0</ele><time>2026-04-06T09:30:33.999Z</time></trkpt><trkpt lat="43.588188847454155" lon="2.1883992871914617"><ele>165.0</ele><time>2026-04-06T09:30:34.999Z</time></trkpt><trkpt lat="43.58822458619729" lon="2.1887453820234732"><ele>165.0</ele><time>2026-04-06T09:30:35.999Z</time></trkpt><trkpt lat="43.58825651723563" lon="2.1890832867145313"><ele>165.5</ele><time>2026-04-06T09:30:36.999Z</time></trkpt><trkpt lat="43.58829288775711" lon="2.1894199542032378"><ele>166.0</ele><time>2026-04-06T09:30:37.999Z</time></trkpt><trkpt lat="43.58832598518455" lon="2.189752162658291"><ele>166.0</ele><time>2026-04-06T09:30:38.999Z</time></trkpt><trkpt lat="43.58835424488942" lon="2.1900886022542294"><ele>166.0</ele><time>2026-04-06T09:30:39.999Z</time></trkpt><trkpt lat="43.588385493128115" lon="2.1904244202648937"><ele>166.0</ele><time>2026-04-06T09:30:40.999Z</time></trkpt><trkpt lat="43.588421274657364" lon="2.1907898847908305"><ele>166.0</ele><time>2026-04-06T09:30:41.999Z</time></trkpt><trkpt lat="43.588470387859765" lon="2.191185686995867"><ele>165.0</ele><time>2026-04-06T09:30:42.999Z</time></trkpt><trkpt lat="43.58850549266638" lon="2.19151568325274"><ele>164.0</ele><time>2026-04-06T09:30:43.999Z</time></trkpt><trkpt lat="43.58854546463146" lon="2.1918236880081663"><ele>164.0</ele><time>2026-04-06T09:30:44.999Z</time></trkpt><trkpt lat="43.5885857472765" lon="2.192119944348367"><ele>164.0</ele><time>2026-04-06T09:30:45.999Z</time></trkpt><trkpt lat="43.58862898355956" lon="2.1924108147062022"><ele>164.0</ele><time>2026-04-06T09:30:46.999Z</time></trkpt><trkpt lat="43.588670173981754" lon="2.1926995986972093"><ele>164.66666666666666</ele><time>2026-04-06T09:30:47.999Z</time></trkpt><trkpt lat="43.58871234939495" lon="2.192988446068796"><ele>165.33333333333334</ele><time>2026-04-06T09:30:48.999Z</time></trkpt><trkpt lat="43.58875437873452" lon="2.193281630456943"><ele>166.0</ele><time>2026-04-06T09:30:49.999Z</time></trkpt><trkpt lat="43.58879668021222" lon="2.193575037655114"><ele>166.33333333333334</ele><time>2026-04-06T09:30:50.999Z</time></trkpt><trkpt lat="43.588841532358934" lon="2.193859732252301"><ele>166.66666666666666</ele><time>2026-04-06T09:30:51.999Z</time></trkpt><trkpt lat="43.58888913817212" lon="2.194142924550424"><ele>167.0</ele><time>2026-04-06T09:30:52.999Z</time></trkpt><trkpt lat="43.58893111828927" lon="2.1944271271109246"><ele>167.33333333333331</ele><time>2026-04-06T09:30:53.999Z</time></trkpt><trkpt lat="43.58897547675282" lon="2.194712456107816"><ele>167.66666666666666</ele><time>2026-04-06T09:30:54.999Z</time></trkpt><trkpt lat="43.58901743413984" lon="2.19499789590285"><ele>168.0</ele><time>2026-04-06T09:30:55.999Z</time></trkpt><trkpt lat="43.58906059367472" lon="2.1952840947644776"><ele>168.0</ele><time>2026-04-06T09:30:56.999Z</time></trkpt><trkpt lat="43.58910910361612" lon="2.1955658586928815"><ele>168.0</ele><time>2026-04-06T09:30:57.999Z</time></trkpt><trkpt lat="43.58916067752326" lon="2.195856578233943"><ele>168.0</ele><time>2026-04-06T09:30:59Z</time></trkpt><trkpt lat="43.589214607127204" lon="2.1961486122592886"><ele>168.33333333333334</ele><time>2026-04-06T09:31:00Z</time></trkpt><trkpt lat="43.58927148495617" lon="2.1964382206687127"><ele>168.66666666666669</ele><time>2026-04-06T09:31:01Z</time></trkpt><trkpt lat="43.58933494996528" lon="2.1967255856102827"><ele>169.0</ele><time>2026-04-06T09:31:02Z</time></trkpt><trkpt lat="43.58940062643037" lon="2.1970092154768697"><ele>168.0</ele><time>2026-04-06T09:31:03Z</time></trkpt><trkpt lat="43.5894687062812" lon="2.197293840873123"><ele>167.0</ele><time>2026-04-06T09:31:04Z</time></trkpt><trkpt lat="43.58953898450386" lon="2.1975761058556778"><ele>166.0</ele><time>2026-04-06T09:31:05Z</time></trkpt><trkpt lat="43.58961147505893" lon="2.1978592488376423"><ele>166.0</ele><time>2026-04-06T09:31:06Z</time></trkpt><trkpt lat="43.58968421266786" lon="2.1981464544798444"><ele>166.0</ele><time>2026-04-06T09:31:07Z</time></trkpt><trkpt lat="43.589754583310594" lon="2.1984428208493942"><ele>166.0</ele><time>2026-04-06T09:31:08Z</time></trkpt><trkpt lat="43.5898269168011" lon="2.198736540696743"><ele>165.5</ele><time>2026-04-06T09:31:09Z</time></trkpt><trkpt lat="43.5898990777969" lon="2.1990339377427874"><ele>165.0</ele><time>2026-04-06T09:31:10Z</time></trkpt><trkpt lat="43.58996834129771" lon="2.1993276163640525"><ele>165.0</ele><time>2026-04-06T09:31:11Z</time></trkpt><trkpt lat="43.59003523606693" lon="2.199618433919097"><ele>165.0</ele><time>2026-04-06T09:31:12Z</time></trkpt><trkpt lat="43.59010025650678" lon="2.199908183668178"><ele>165.0</ele><time>2026-04-06T09:31:13Z</time></trkpt><trkpt lat="43.59016508371638" lon="2.2002036409985077"><ele>164.66666666666666</ele><time>2026-04-06T09:31:14Z</time></trkpt><trkpt lat="43.59022521089265" lon="2.2004947606197764"><ele>164.33333333333331</ele><time>2026-04-06T09:31:15Z</time></trkpt><trkpt lat="43.59028417063193" lon="2.2007882358345836"><ele>164.0</ele><time>2026-04-06T09:31:16Z</time></trkpt><trkpt lat="43.590340737600755" lon="2.2010810432004186"><ele>165.0</ele><time>2026-04-06T09:31:17Z</time></trkpt><trkpt lat="43.590395794347046" lon="2.2013731726164254"><ele>166.0</ele><time>2026-04-06T09:31:18Z</time></trkpt><trkpt lat="43.590451010270705" lon="2.2016643201354382"><ele>167.0</ele><time>2026-04-06T09:31:19Z</time></trkpt><trkpt lat="43.590509781813275" lon="2.201952595881777"><ele>167.0</ele><time>2026-04-06T09:31:20Z</time></trkpt><trkpt lat="43.59056730161289" lon="2.202239456520315"><ele>167.0</ele><time>2026-04-06T09:31:21Z</time></trkpt><trkpt lat="43.59062401071794" lon="2.2025240705015423"><ele>167.0</ele><time>2026-04-06T09:31:22Z</time></trkpt><trkpt lat="43.59068113042002" lon="2.2028086487784355"><ele>167.0</ele><time>2026-04-06T09:31:23Z</time></trkpt><trkpt lat="43.59073581434602" lon="2.2030904759063015"><ele>167.0</ele><time>2026-04-06T09:31:24Z</time></trkpt><trkpt lat="43.59078802331324" lon="2.2033707379599026"><ele>167.0</ele><time>2026-04-06T09:31:25Z</time></trkpt><trkpt lat="43.5908406504544" lon="2.2036460318941202"><ele>167.0</ele><time>2026-04-06T09:31:26Z</time></trkpt><trkpt lat="43.59089447462846" lon="2.2039153943050063"><ele>167.0</ele><time>2026-04-06T09:31:27Z</time></trkpt><trkpt lat="43.590947799648156" lon="2.2041789715326265"><ele>167.0</ele><time>2026-04-06T09:31:28Z</time></trkpt><trkpt lat="43.590997980444556" lon="2.204430851250577"><ele>167.0</ele><time>2026-04-06T09:31:29Z</time></trkpt><trkpt lat="43.59104606069747" lon="2.2046754379206153"><ele>167.0</ele><time>2026-04-06T09:31:30Z</time></trkpt><trkpt lat="43.591089778025726" lon="2.204905325136043"><ele>167.0</ele><time>2026-04-06T09:31:31Z</time></trkpt><trkpt lat="43.59112754121404" lon="2.2051122422085374"><ele>167.0</ele><time>2026-04-06T09:31:32Z</time></trkpt><trkpt lat="43.59115811144038" lon="2.205306976657815"><ele>167.0</ele><time>2026-04-06T09:31:33Z</time></trkpt><trkpt lat="43.59115188059074" lon="2.205474664638652"><ele>167.0</ele><time>2026-04-06T09:31:34Z</time></trkpt><trkpt lat="43.591160717788576" lon="2.205617721850939"><ele>167.0</ele><time>2026-04-06T09:31:35Z</time></trkpt><trkpt lat="43.5911727011329" lon="2.205751374261159"><ele>167.25</ele><time>2026-04-06T09:31:36Z</time></trkpt><trkpt lat="43.59107165285419" lon="2.205926466651555"><ele>167.5</ele><time>2026-04-06T09:31:37Z</time></trkpt><trkpt lat="43.59113654577584" lon="2.206066982521235"><ele>167.75</ele><time>2026-04-06T09:31:38Z</time></trkpt><trkpt lat="43.59123444304317" lon="2.2061689240353606"><ele>168.0</ele><time>2026-04-06T09:31:39Z</time></trkpt><trkpt lat="43.59132041402527" lon="2.2062910870511976"><ele>168.75</ele><time>2026-04-06T09:31:40Z</time></trkpt><trkpt lat="43.591376354217566" lon="2.206446245174412"><ele>169.5</ele><time>2026-04-06T09:31:41Z</time></trkpt><trkpt lat="43.59141443008729" lon="2.206621783343999"><ele>170.25</ele><time>2026-04-06T09:31:42Z</time></trkpt><trkpt lat="43.591452775662965" lon="2.206805296123208"><ele>171.0</ele><time>2026-04-06T09:31:43Z</time></trkpt><trkpt lat="43.59149260567326" lon="2.206995507262772"><ele>171.0</ele><time>2026-04-06T09:31:44Z</time></trkpt><trkpt lat="43.59153141263258" lon="2.2071892926112278"><ele>171.0</ele><time>2026-04-06T09:31:45Z</time></trkpt><trkpt lat="43.59156803335671" lon="2.2073761658580096"><ele>171.0</ele><time>2026-04-06T09:31:46Z</time></trkpt><trkpt lat="43.59160281029943" lon="2.207543552242283"><ele>171.0</ele><time>2026-04-06T09:31:47Z</time></trkpt><trkpt lat="43.59163175314844" lon="2.207686093446214"><ele>171.0</ele><time>2026-04-06T09:31:48Z</time></trkpt><trkpt lat="43.591626625971855" lon="2.207815019491706"><ele>171.0</ele><time>2026-04-06T09:31:49Z</time></trkpt><trkpt lat="43.59159370744129" lon="2.2079152500102444"><ele>171.0</ele><time>2026-04-06T09:31:50Z</time></trkpt><trkpt lat="43.59157207620677" lon="2.208004165505395"><ele>171.0</ele><time>2026-04-06T09:31:51Z</time></trkpt><trkpt lat="43.59156481432705" lon="2.2081620760837923"><ele>171.0</ele><time>2026-04-06T09:31:53Z</time></trkpt><trkpt lat="43.59157505103725" lon="2.2082696744388994"><ele>171.0</ele><time>2026-04-06T09:31:55Z</time></trkpt><trkpt lat="43.59155227931295" lon="2.2083552814869654"><ele>171.16666666666666</ele><time>2026-04-06T09:34:50Z</time></trkpt><trkpt lat="43.591617553841694" lon="2.2084750022778556"><ele>171.33333333333334</ele><time>2026-04-06T09:45:23Z</time></trkpt><trkpt lat="43.59164064010216" lon="2.208562498629016"><ele>171.5</ele><time>2026-04-06T09:45:24Z</time></trkpt><trkpt lat="43.59166682129013" lon="2.208645204784785"><ele>171.66666666666669</ele><time>2026-04-06T09:45:25Z</time></trkpt><trkpt lat="43.591717315853806" lon="2.2087956554070463"><ele>171.83333333333334</ele><time>2026-04-06T09:45:27Z</time></trkpt><trkpt lat="43.59176292445332" lon="2.2088959752293365"><ele>172.0</ele><time>2026-04-06T09:45:29Z</time></trkpt><trkpt lat="43.591791575939425" lon="2.208979788618405"><ele>172.0</ele><time>2026-04-06T09:45:32Z</time></trkpt><trkpt lat="43.591830884183715" lon="2.209053822857723"><ele>172.0</ele><time>2026-04-06T09:45:36Z</time></trkpt><trkpt lat="43.591882985003984" lon="2.2091420164803464"><ele>172.0</ele><time>2026-04-06T09:45:40Z</time></trkpt><trkpt lat="43.591942767444095" lon="2.209294518966338"><ele>172.0</ele><time>2026-04-06T09:45:42Z</time></trkpt><trkpt lat="43.5919648435821" lon="2.209398854049102"><ele>172.0</ele><time>2026-04-06T09:45:43Z</time></trkpt><trkpt lat="43.59198599667741" lon="2.20951250050689"><ele>172.0</ele><time>2026-04-06T09:45:44Z</time></trkpt><trkpt lat="43.592009630538456" lon="2.2096457056290246"><ele>172.0</ele><time>2026-04-06T09:45:45Z</time></trkpt><trkpt lat="43.59203790390775" lon="2.2097957536166497"><ele>172.0</ele><time>2026-04-06T09:45:46Z</time></trkpt><trkpt lat="43.59207134871643" lon="2.209953607313319"><ele>172.0</ele><time>2026-04-06T09:45:47Z</time></trkpt><trkpt lat="43.59210154508228" lon="2.2101008152253523"><ele>172.0</ele><time>2026-04-06T09:45:48Z</time></trkpt><trkpt lat="43.59212885615358" lon="2.2102413143050645"><ele>172.0</ele><time>2026-04-06T09:45:49Z</time></trkpt><trkpt lat="43.59215358658393" lon="2.210359985179546"><ele>172.0</ele><time>2026-04-06T09:45:50Z</time></trkpt><trkpt lat="43.592178725580474" lon="2.2104730815884017"><ele>172.0</ele><time>2026-04-06T09:45:51Z</time></trkpt><trkpt lat="43.59220226453645" lon="2.2105823150192756"><ele>172.0</ele><time>2026-04-06T09:45:52Z</time></trkpt><trkpt lat="43.59222559240441" lon="2.2106875024939954"><ele>172.0</ele><time>2026-04-06T09:45:53Z</time></trkpt><trkpt lat="43.59225183361747" lon="2.210798252638095"><ele>172.0</ele><time>2026-04-06T09:45:54Z</time></trkpt><trkpt lat="43.59226851605773" lon="2.210910550512996"><ele>172.0</ele><time>2026-04-06T09:45:55Z</time></trkpt><trkpt lat="43.59229014952137" lon="2.211015222944951"><ele>172.0</ele><time>2026-04-06T09:45:56Z</time></trkpt><trkpt lat="43.59231390389718" lon="2.211121929761742"><ele>172.0</ele><time>2026-04-06T09:45:57Z</time></trkpt><trkpt lat="43.59233295359354" lon="2.211208749387181"><ele>172.0</ele><time>2026-04-06T09:45:58Z</time></trkpt><trkpt lat="43.59236279260106" lon="2.2113148258468556"><ele>172.0</ele><time>2026-04-06T09:46:03Z</time></trkpt><trkpt lat="43.592383180950655" lon="2.211426833487983"><ele>172.0</ele><time>2026-04-06T09:46:05Z</time></trkpt><trkpt lat="43.59241308077967" lon="2.2115715882450595"><ele>172.0</ele><time>2026-04-06T09:46:07Z</time></trkpt><trkpt lat="43.5924309194835" lon="2.2116581989239594"><ele>172.0</ele><time>2026-04-06T09:46:08Z</time></trkpt><trkpt lat="43.59245059598943" lon="2.21175486720218"><ele>172.0</ele><time>2026-04-06T09:46:09Z</time></trkpt><trkpt lat="43.59247303019559" lon="2.211866341929468"><ele>172.0</ele><time>2026-04-06T09:46:10Z</time></trkpt><trkpt lat="43.592495539397596" lon="2.211993031290276"><ele>172.0</ele><time>2026-04-06T09:46:11Z</time></trkpt><trkpt lat="43.59251605865354" lon="2.2121156336745993"><ele>172.0</ele><time>2026-04-06T09:46:12Z</time></trkpt><trkpt lat="43.5925373306809" lon="2.2122435505691174"><ele>172.0</ele><time>2026-04-06T09:46:13Z</time></trkpt><trkpt lat="43.59256071910081" lon="2.2123727436758927"><ele>172.0</ele><time>2026-04-06T09:46:14Z</time></trkpt><trkpt lat="43.5925843809273" lon="2.212497836108492"><ele>172.0</ele><time>2026-04-06T09:46:15Z</time></trkpt><trkpt lat="43.592604020493376" lon="2.2126292959644034"><ele>172.0</ele><time>2026-04-06T09:46:16Z</time></trkpt><trkpt lat="43.592623648793506" lon="2.2127546134333667"><ele>172.0</ele><time>2026-04-06T09:46:17Z</time></trkpt><trkpt lat="43.59264193480902" lon="2.2128743540356925"><ele>172.0</ele><time>2026-04-06T09:46:18Z</time></trkpt><trkpt lat="43.59266067241527" lon="2.2129948147147074"><ele>172.0</ele><time>2026-04-06T09:46:19Z</time></trkpt><trkpt lat="43.59267952038619" lon="2.2131165108077737"><ele>172.0</ele><time>2026-04-06T09:46:20Z</time></trkpt><trkpt lat="43.59269798629427" lon="2.2132319543361016"><ele>172.0</ele><time>2026-04-06T09:46:21Z</time></trkpt><trkpt lat="43.59271661546069" lon="2.2133507038348323"><ele>172.0</ele><time>2026-04-06T09:46:22Z</time></trkpt><trkpt lat="43.592733949378015" lon="2.213464312832055"><ele>172.0</ele><time>2026-04-06T09:46:23Z</time></trkpt><trkpt lat="43.59274985638036" lon="2.213574371645042"><ele>172.0</ele><time>2026-04-06T09:46:24Z</time></trkpt><trkpt lat="43.59276867032538" lon="2.2136907059208433"><ele>172.0</ele><time>2026-04-06T09:46:25Z</time></trkpt><trkpt lat="43.5927848602897" lon="2.2137999850525745"><ele>172.0</ele><time>2026-04-06T09:46:26Z</time></trkpt><trkpt lat="43.59279739145543" lon="2.21391233118258"><ele>172.0</ele><time>2026-04-06T09:46:27Z</time></trkpt><trkpt lat="43.59281352107372" lon="2.214028888963373"><ele>172.0</ele><time>2026-04-06T09:46:28Z</time></trkpt><trkpt lat="43.59282889024065" lon="2.2141410506096957"><ele>172.0</ele><time>2026-04-06T09:46:29Z</time></trkpt><trkpt lat="43.59284643859564" lon="2.2142497646987818"><ele>172.0</ele><time>2026-04-06T09:46:30Z</time></trkpt><trkpt lat="43.592861728914805" lon="2.214360460950727"><ele>172.0</ele><time>2026-04-06T09:46:31Z</time></trkpt><trkpt lat="43.592874919087976" lon="2.2144709638609807"><ele>172.0</ele><time>2026-04-06T09:46:32Z</time></trkpt><trkpt lat="43.592889492631734" lon="2.214585439352059"><ele>172.0</ele><time>2026-04-06T09:46:33Z</time></trkpt><trkpt lat="43.592902947223024" lon="2.214694113865967"><ele>172.0</ele><time>2026-04-06T09:46:34Z</time></trkpt><trkpt lat="43.59291282152843" lon="2.21480971384346"><ele>172.0</ele><time>2026-04-06T09:46:35Z</time></trkpt><trkpt lat="43.59292415847873" lon="2.21493261573137"><ele>172.0</ele><time>2026-04-06T09:46:36Z</time></trkpt><trkpt lat="43.592930338968785" lon="2.2150581510483525"><ele>172.0</ele><time>2026-04-06T09:46:37Z</time></trkpt><trkpt lat="43.592935712164966" lon="2.215173636973118"><ele>172.0</ele><time>2026-04-06T09:46:38Z</time></trkpt><trkpt lat="43.59294246176455" lon="2.2152857491563505"><ele>172.0</ele><time>2026-04-06T09:46:39Z</time></trkpt><trkpt lat="43.592949835049694" lon="2.2153900906103847"><ele>172.0</ele><time>2026-04-06T09:46:40Z</time></trkpt><trkpt lat="43.592956104525065" lon="2.21549399615194"><ele>172.0</ele><time>2026-04-06T09:46:41Z</time></trkpt><trkpt lat="43.592964347646884" lon="2.215601461013581"><ele>172.0</ele><time>2026-04-06T09:46:42Z</time></trkpt><trkpt lat="43.59296747718643" lon="2.2157137377449865"><ele>172.0</ele><time>2026-04-06T09:46:43Z</time></trkpt><trkpt lat="43.59297442425274" lon="2.2158366765159543"><ele>172.0</ele><time>2026-04-06T09:46:44Z</time></trkpt><trkpt lat="43.592985200089046" lon="2.215966478759534"><ele>172.0</ele><time>2026-04-06T09:46:45Z</time></trkpt><trkpt lat="43.59299548643535" lon="2.2161000445466423"><ele>172.0</ele><time>2026-04-06T09:46:46Z</time></trkpt><trkpt lat="43.59301093929834" lon="2.2162334959379435"><ele>172.0</ele><time>2026-04-06T09:46:47Z</time></trkpt><trkpt lat="43.59302383758172" lon="2.216369160203186"><ele>172.16666666666669</ele><time>2026-04-06T09:46:48Z</time></trkpt><trkpt lat="43.59303259235339" lon="2.2164973005596473"><ele>172.33333333333334</ele><time>2026-04-06T09:46:49Z</time></trkpt><trkpt lat="43.59304190425751" lon="2.216619933322071"><ele>172.5</ele><time>2026-04-06T09:46:50Z</time></trkpt><trkpt lat="43.59305107364455" lon="2.2167432443791744"><ele>172.66666666666666</ele><time>2026-04-06T09:46:51Z</time></trkpt><trkpt lat="43.593061133092505" lon="2.2168642824580598"><ele>172.83333333333331</ele><time>2026-04-06T09:46:52Z</time></trkpt><trkpt lat="43.59307080068764" lon="2.2169852018880367"><ele>173.0</ele><time>2026-04-06T09:46:53Z</time></trkpt><trkpt lat="43.59308171981424" lon="2.2171012318678147"><ele>173.0</ele><time>2026-04-06T09:46:54Z</time></trkpt><trkpt lat="43.59309118080274" lon="2.217217559651045"><ele>173.0</ele><time>2026-04-06T09:46:55Z</time></trkpt><trkpt lat="43.593100579208404" lon="2.217328384707951"><ele>173.0</ele><time>2026-04-06T09:46:56Z</time></trkpt><trkpt lat="43.59310973857283" lon="2.2174404650577872"><ele>173.0</ele><time>2026-04-06T09:46:57Z</time></trkpt><trkpt lat="43.593117356524665" lon="2.2175557337331835"><ele>173.0</ele><time>2026-04-06T09:46:58Z</time></trkpt><trkpt lat="43.59312189439574" lon="2.217673699789302"><ele>173.0</ele><time>2026-04-06T09:46:59Z</time></trkpt><trkpt lat="43.59311009393313" lon="2.2177894591566862"><ele>172.83333333333331</ele><time>2026-04-06T09:47:00Z</time></trkpt><trkpt lat="43.5930663887199" lon="2.217893812400093"><ele>172.66666666666666</ele><time>2026-04-06T09:47:01Z</time></trkpt><trkpt lat="43.59298525771418" lon="2.217957444447856"><ele>172.5</ele><time>2026-04-06T09:47:02Z</time></trkpt><trkpt lat="43.59291056397912" lon="2.218031943885766"><ele>172.33333333333334</ele><time>2026-04-06T09:47:03Z</time></trkpt><trkpt lat="43.59286801610765" lon="2.2181296243255595"><ele>172.16666666666669</ele><time>2026-04-06T09:47:04Z</time></trkpt><trkpt lat="43.59285872318707" lon="2.218246074615033"><ele>172.0</ele><time>2026-04-06T09:47:05Z</time></trkpt><trkpt lat="43.59287876161527" lon="2.2183611671412393"><ele>171.83333333333334</ele><time>2026-04-06T09:47:06Z</time></trkpt><trkpt lat="43.59291908661573" lon="2.218462532123683"><ele>171.66666666666669</ele><time>2026-04-06T09:47:07Z</time></trkpt><trkpt lat="43.59298141585798" lon="2.2185422720575096"><ele>171.5</ele><time>2026-04-06T09:47:08Z</time></trkpt><trkpt lat="43.5930564866572" lon="2.2186022330045465"><ele>171.33333333333334</ele><time>2026-04-06T09:47:09Z</time></trkpt><trkpt lat="43.59313302284377" lon="2.218663332186871"><ele>171.16666666666666</ele><time>2026-04-06T09:47:10Z</time></trkpt><trkpt lat="43.5932188439712" lon="2.218722389772876"><ele>171.0</ele><time>2026-04-06T09:47:11Z</time></trkpt><trkpt lat="43.59326820976732" lon="2.218845485564838"><ele>171.0</ele><time>2026-04-06T09:47:12Z</time></trkpt><trkpt lat="43.593305518832835" lon="2.2189737661307434"><ele>171.0</ele><time>2026-04-06T09:47:13Z</time></trkpt><trkpt lat="43.59334182393489" lon="2.21909856481101"><ele>171.0</ele><time>2026-04-06T09:47:14Z</time></trkpt><trkpt lat="43.59337719326837" lon="2.219225108070251"><ele>171.0</ele><time>2026-04-06T09:47:15Z</time></trkpt><trkpt lat="43.59341299324742" lon="2.2193485990899315"><ele>171.0</ele><time>2026-04-06T09:47:16Z</time></trkpt><trkpt lat="43.593449614338276" lon="2.2194741845318853"><ele>170.60000000000002</ele><time>2026-04-06T09:47:17Z</time></trkpt><trkpt lat="43.59348560708116" lon="2.219597614976315"><ele>170.2</ele><time>2026-04-06T09:47:18Z</time></trkpt><trkpt lat="43.59352234101666" lon="2.2197148519222973"><ele>169.8</ele><time>2026-04-06T09:47:19Z</time></trkpt><trkpt lat="43.59356670680792" lon="2.219824728008642"><ele>169.39999999999998</ele><time>2026-04-06T09:47:20Z</time></trkpt><trkpt lat="43.593617462987595" lon="2.2199377509251397"><ele>169.0</ele><time>2026-04-06T09:47:21Z</time></trkpt><trkpt lat="43.593615292178384" lon="2.2201060464733158"><ele>168.79999999999998</ele><time>2026-04-06T09:47:22Z</time></trkpt><trkpt lat="43.59366037802524" lon="2.2202381724837426"><ele>168.6</ele><time>2026-04-06T09:47:23Z</time></trkpt><trkpt lat="43.59370492089235" lon="2.2203703382868554"><ele>168.4</ele><time>2026-04-06T09:47:24Z</time></trkpt><trkpt lat="43.59375100480441" lon="2.220501252685145"><ele>168.2</ele><time>2026-04-06T09:47:25Z</time></trkpt><trkpt lat="43.59379663883403" lon="2.2206370356740037"><ele>168.0</ele><time>2026-04-06T09:47:26Z</time></trkpt><trkpt lat="43.59384116885384" lon="2.220772569075001"><ele>168.60000000000002</ele><time>2026-04-06T09:47:27Z</time></trkpt><trkpt lat="43.59388763722798" lon="2.2209083754691856"><ele>169.20000000000002</ele><time>2026-04-06T09:47:28Z</time></trkpt><trkpt lat="43.59393124303801" lon="2.2210404833677155"><ele>169.8</ele><time>2026-04-06T09:47:29Z</time></trkpt><trkpt lat="43.59397430455309" lon="2.2211680436223076"><ele>170.4</ele><time>2026-04-06T09:47:30Z</time></trkpt><trkpt lat="43.59401103637307" lon="2.221287978669054"><ele>171.0</ele><time>2026-04-06T09:47:31Z</time></trkpt><trkpt lat="43.59405584040186" lon="2.2214196155523354"><ele>170.4</ele><time>2026-04-06T09:47:32Z</time></trkpt><trkpt lat="43.59409565097833" lon="2.2215455597389546"><ele>169.8</ele><time>2026-04-06T09:47:33Z</time></trkpt><trkpt lat="43.59414263404117" lon="2.2216704612269025"><ele>169.20000000000002</ele><time>2026-04-06T09:47:34Z</time></trkpt><trkpt lat="43.59418347003728" lon="2.2217919193515066"><ele>168.60000000000002</ele><time>2026-04-06T09:47:35Z</time></trkpt><trkpt lat="43.594222916448835" lon="2.2219113700013953"><ele>168.0</ele><time>2026-04-06T09:47:36Z</time></trkpt><trkpt lat="43.59426512089145" lon="2.2220286392839035"><ele>168.0</ele><time>2026-04-06T09:47:37Z</time></trkpt><trkpt lat="43.59430602752258" lon="2.2221431129824616"><ele>168.0</ele><time>2026-04-06T09:47:38Z</time></trkpt><trkpt lat="43.594347002189" lon="2.2222585677671103"><ele>168.0</ele><time>2026-04-06T09:47:39Z</time></trkpt><trkpt lat="43.59439040335081" lon="2.222371484336561"><ele>168.0</ele><time>2026-04-06T09:47:40Z</time></trkpt><trkpt lat="43.594427974814515" lon="2.2224860559133996"><ele>168.0</ele><time>2026-04-06T09:47:41Z</time></trkpt><trkpt lat="43.59446759307824" lon="2.2226007757726607"><ele>168.8</ele><time>2026-04-06T09:47:42Z</time></trkpt><trkpt lat="43.59450990794805" lon="2.222711896263495"><ele>169.60000000000002</ele><time>2026-04-06T09:47:43Z</time></trkpt><trkpt lat="43.59455081861505" lon="2.222822704161875"><ele>170.39999999999998</ele><time>2026-04-06T09:47:44Z</time></trkpt><trkpt lat="43.59459542498818" lon="2.22293382200461"><ele>171.2</ele><time>2026-04-06T09:47:45Z</time></trkpt><trkpt lat="43.594642983388304" lon="2.22304271286674"><ele>172.0</ele><time>2026-04-06T09:47:46Z</time></trkpt><trkpt lat="43.59469150987296" lon="2.2231550530233983"><ele>172.0</ele><time>2026-04-06T09:47:46.999Z</time></trkpt><trkpt lat="43.59473895113319" lon="2.223261967894495"><ele>172.0</ele><time>2026-04-06T09:47:47.999Z</time></trkpt><trkpt lat="43.594786354703935" lon="2.2233735165487745"><ele>172.0</ele><time>2026-04-06T09:47:48.999Z</time></trkpt><trkpt lat="43.59483145934849" lon="2.223484144796734"><ele>172.0</ele><time>2026-04-06T09:47:49.999Z</time></trkpt><trkpt lat="43.59488106294193" lon="2.2235868124132385"><ele>172.0</ele><time>2026-04-06T09:47:50.999Z</time></trkpt><trkpt lat="43.59492455975388" lon="2.2236943669722393"><ele>172.0</ele><time>2026-04-06T09:47:51.999Z</time></trkpt><trkpt lat="43.59496991939304" lon="2.223803017396449"><ele>172.0</ele><time>2026-04-06T09:47:52.999Z</time></trkpt><trkpt lat="43.59502067564661" lon="2.223909752716297"><ele>172.0</ele><time>2026-04-06T09:47:53.999Z</time></trkpt><trkpt lat="43.595073855668076" lon="2.2240223031039967"><ele>172.0</ele><time>2026-04-06T09:47:54.999Z</time></trkpt><trkpt lat="43.595124948650835" lon="2.22413339858554"><ele>172.0</ele><time>2026-04-06T09:47:55.999Z</time></trkpt><trkpt lat="43.595174470102364" lon="2.2242443788388675"><ele>172.0</ele><time>2026-04-06T09:47:56.999Z</time></trkpt><trkpt lat="43.59522767586365" lon="2.224353377210481"><ele>172.0</ele><time>2026-04-06T09:47:57.999Z</time></trkpt><trkpt lat="43.595275023430084" lon="2.2244658727156703"><ele>172.0</ele><time>2026-04-06T09:47:58.999Z</time></trkpt><trkpt lat="43.59532382583284" lon="2.224587706003211"><ele>172.0</ele><time>2026-04-06T09:47:59.999Z</time></trkpt><trkpt lat="43.595384650234784" lon="2.2247151451512432"><ele>172.0</ele><time>2026-04-06T09:48:00.999Z</time></trkpt><trkpt lat="43.59545441574543" lon="2.224844090669851"><ele>172.0</ele><time>2026-04-06T09:48:01.999Z</time></trkpt><trkpt lat="43.59552144223441" lon="2.2249808280683223"><ele>172.0</ele><time>2026-04-06T09:48:02.999Z</time></trkpt><trkpt lat="43.59558311816104" lon="2.2251187028674346"><ele>172.0</ele><time>2026-04-06T09:48:03.999Z</time></trkpt><trkpt lat="43.59564336364562" lon="2.225255256250047"><ele>172.0</ele><time>2026-04-06T09:48:04.999Z</time></trkpt><trkpt lat="43.595703103424476" lon="2.2253904486241542"><ele>172.0</ele><time>2026-04-06T09:48:05.999Z</time></trkpt><trkpt lat="43.59576370984226" lon="2.22552777193158"><ele>172.0</ele><time>2026-04-06T09:48:06.999Z</time></trkpt><trkpt lat="43.5958211915539" lon="2.225657469690438"><ele>172.0</ele><time>2026-04-06T09:48:07.999Z</time></trkpt><trkpt lat="43.59587556817345" lon="2.2257810906712"><ele>172.0</ele><time>2026-04-06T09:48:08.999Z</time></trkpt><trkpt lat="43.59592458077381" lon="2.2258962409455623"><ele>172.0</ele><time>2026-04-06T09:48:09.999Z</time></trkpt><trkpt lat="43.59597244220151" lon="2.226003713287718"><ele>172.0</ele><time>2026-04-06T09:48:10.999Z</time></trkpt><trkpt lat="43.59601752077874" lon="2.226100591563889"><ele>172.0</ele><time>2026-04-06T09:48:11.999Z</time></trkpt><trkpt lat="43.59605747368624" lon="2.226186655004253"><ele>172.0</ele><time>2026-04-06T09:48:12.999Z</time></trkpt><trkpt lat="43.59609185579229" lon="2.22626116784597"><ele>172.0</ele><time>2026-04-06T09:48:13.999Z</time></trkpt><trkpt lat="43.59615223507839" lon="2.2263962126642256"><ele>172.0</ele><time>2026-04-06T09:48:15.999Z</time></trkpt><trkpt lat="43.59620471983531" lon="2.2265300268145616"><ele>172.0</ele><time>2026-04-06T09:48:17.999Z</time></trkpt><trkpt lat="43.59623928825978" lon="2.2266072176349136"><ele>172.0</ele><time>2026-04-06T09:48:18.999Z</time></trkpt><trkpt lat="43.59627682377024" lon="2.226692527677257"><ele>172.0</ele><time>2026-04-06T09:48:19.999Z</time></trkpt><trkpt lat="43.596312455759566" lon="2.2267880924436203"><ele>172.0</ele><time>2026-04-06T09:48:20.999Z</time></trkpt><trkpt lat="43.59635298507655" lon="2.2268933368273234"><ele>172.0</ele><time>2026-04-06T09:48:21.999Z</time></trkpt><trkpt lat="43.59639743191212" lon="2.2270071099813786"><ele>172.0</ele><time>2026-04-06T09:48:22.999Z</time></trkpt><trkpt lat="43.596449212822634" lon="2.2271258398572047"><ele>172.0</ele><time>2026-04-06T09:48:23.999Z</time></trkpt><trkpt lat="43.59650877876851" lon="2.2272513974282453"><ele>172.25</ele><time>2026-04-06T09:48:24.999Z</time></trkpt><trkpt lat="43.596566771236226" lon="2.2273785757799756"><ele>172.5</ele><time>2026-04-06T09:48:25.999Z</time></trkpt><trkpt lat="43.596629744091295" lon="2.2275188312827923"><ele>172.75</ele><time>2026-04-06T09:48:26.999Z</time></trkpt><trkpt lat="43.5966931044757" lon="2.2276613150856037"><ele>173.0</ele><time>2026-04-06T09:48:27.999Z</time></trkpt><trkpt lat="43.59676074870275" lon="2.2278049759849465"><ele>173.0</ele><time>2026-04-06T09:48:28.999Z</time></trkpt><trkpt lat="43.5968297367985" lon="2.227951882470578"><ele>173.0</ele><time>2026-04-06T09:48:29.999Z</time></trkpt><trkpt lat="43.596905454844965" lon="2.2280976225818088"><ele>173.0</ele><time>2026-04-06T09:48:30.999Z</time></trkpt><trkpt lat="43.596979544742815" lon="2.2282467359742095"><ele>173.0</ele><time>2026-04-06T09:48:31.999Z</time></trkpt><trkpt lat="43.597051596812776" lon="2.2283952435866246"><ele>172.75</ele><time>2026-04-06T09:48:32.999Z</time></trkpt><trkpt lat="43.59712683893446" lon="2.228538429086066"><ele>172.5</ele><time>2026-04-06T09:48:33.999Z</time></trkpt><trkpt lat="43.597202922301065" lon="2.228680800569795"><ele>172.25</ele><time>2026-04-06T09:48:34.999Z</time></trkpt><trkpt lat="43.597279970713245" lon="2.2288232168057136"><ele>172.0</ele><time>2026-04-06T09:48:35.999Z</time></trkpt><trkpt lat="43.597356423743506" lon="2.2289640353673574"><ele>172.25</ele><time>2026-04-06T09:48:36.999Z</time></trkpt><trkpt lat="43.597433155169654" lon="2.2291040128046005"><ele>172.5</ele><time>2026-04-06T09:48:37.999Z</time></trkpt><trkpt lat="43.597508366911114" lon="2.2292463148927437"><ele>172.75</ele><time>2026-04-06T09:48:38.999Z</time></trkpt><trkpt lat="43.59758229690458" lon="2.2293837288142706"><ele>173.0</ele><time>2026-04-06T09:48:39.999Z</time></trkpt><trkpt lat="43.59765625788728" lon="2.2295187936572063"><ele>173.0</ele><time>2026-04-06T09:48:40.999Z</time></trkpt><trkpt lat="43.59772873073854" lon="2.229650187436766"><ele>173.0</ele><time>2026-04-06T09:48:41.999Z</time></trkpt><trkpt lat="43.597796927650364" lon="2.229773060167925"><ele>173.0</ele><time>2026-04-06T09:48:42.999Z</time></trkpt><trkpt lat="43.59786254027456" lon="2.229888497872088"><ele>173.0</ele><time>2026-04-06T09:48:43.999Z</time></trkpt><trkpt lat="43.59792024379876" lon="2.229993350957703"><ele>173.0</ele><time>2026-04-06T09:48:45Z</time></trkpt><trkpt lat="43.597978510952885" lon="2.2300869709541145"><ele>172.83333333333331</ele><time>2026-04-06T09:48:45.999Z</time></trkpt><trkpt lat="43.598031943018746" lon="2.230180868778897"><ele>172.66666666666666</ele><time>2026-04-06T09:48:46.999Z</time></trkpt><trkpt lat="43.598078092830605" lon="2.230261937860279"><ele>172.5</ele><time>2026-04-06T09:48:47.999Z</time></trkpt><trkpt lat="43.59814883891788" lon="2.2303766297400607"><ele>172.33333333333334</ele><time>2026-04-06T09:48:49.999Z</time></trkpt><trkpt lat="43.59819895530151" lon="2.230453948177634"><ele>172.16666666666669</ele><time>2026-04-06T09:48:52.999Z</time></trkpt><trkpt lat="43.598241077054126" lon="2.2305259299840237"><ele>172.0</ele><time>2026-04-06T09:48:55.999Z</time></trkpt><trkpt lat="43.59829925598355" lon="2.2306371315509526"><ele>172.0</ele><time>2026-04-06T09:48:57.999Z</time></trkpt><trkpt lat="43.59833849537382" lon="2.2307095666096988"><ele>172.0</ele><time>2026-04-06T09:48:58.999Z</time></trkpt><trkpt lat="43.59838202756889" lon="2.230786247736131"><ele>172.0</ele><time>2026-04-06T09:48:59.999Z</time></trkpt><trkpt lat="43.59843379826918" lon="2.2308719280874545"><ele>172.0</ele><time>2026-04-06T09:49:00.999Z</time></trkpt><trkpt lat="43.598490978048424" lon="2.230968775151294"><ele>172.0</ele><time>2026-04-06T09:49:01.999Z</time></trkpt><trkpt lat="43.598549090084944" lon="2.231072318909142"><ele>172.0</ele><time>2026-04-06T09:49:02.999Z</time></trkpt><trkpt lat="43.59860774313943" lon="2.231178969078083"><ele>172.0</ele><time>2026-04-06T09:49:03.999Z</time></trkpt><trkpt lat="43.59866934837053" lon="2.231289096872773"><ele>172.0</ele><time>2026-04-06T09:49:04.999Z</time></trkpt><trkpt lat="43.59873168407492" lon="2.2313994550916196"><ele>172.0</ele><time>2026-04-06T09:49:05.999Z</time></trkpt><trkpt lat="43.5987940379825" lon="2.231512104442654"><ele>172.0</ele><time>2026-04-06T09:49:06.999Z</time></trkpt><trkpt lat="43.598856626007" lon="2.231626461544492"><ele>172.0</ele><time>2026-04-06T09:49:07.999Z</time></trkpt><trkpt lat="43.598920233788036" lon="2.2317455129254005"><ele>172.25</ele><time>2026-04-06T09:49:08.999Z</time></trkpt><trkpt lat="43.59898604216647" lon="2.2318655160020997"><ele>172.5</ele><time>2026-04-06T09:49:09.999Z</time></trkpt><trkpt lat="43.599053781166845" lon="2.231989442764139"><ele>172.75</ele><time>2026-04-06T09:49:10.999Z</time></trkpt><trkpt lat="43.599122066477705" lon="2.232113121765066"><ele>173.0</ele><time>2026-04-06T09:49:11.999Z</time></trkpt><trkpt lat="43.59919439239869" lon="2.2322418453328496"><ele>173.0</ele><time>2026-04-06T09:49:12.999Z</time></trkpt><trkpt lat="43.59926883043994" lon="2.232370148449362"><ele>173.0</ele><time>2026-04-06T09:49:13.999Z</time></trkpt><trkpt lat="43.59934528036702" lon="2.2325012785125358"><ele>173.0</ele><time>2026-04-06T09:49:14.999Z</time></trkpt><trkpt lat="43.59942068225829" lon="2.2326361687465037"><ele>173.0</ele><time>2026-04-06T09:49:15.999Z</time></trkpt><trkpt lat="43.599495996567654" lon="2.2327714188232775"><ele>173.25</ele><time>2026-04-06T09:49:16.999Z</time></trkpt><trkpt lat="43.59957036883791" lon="2.2329048265366374"><ele>173.5</ele><time>2026-04-06T09:49:17.999Z</time></trkpt><trkpt lat="43.59964409807432" lon="2.2330415321166788"><ele>173.75</ele><time>2026-04-06T09:49:18.999Z</time></trkpt><trkpt lat="43.59971903775527" lon="2.2331717129421875"><ele>174.0</ele><time>2026-04-06T09:49:19.999Z</time></trkpt><trkpt lat="43.59979302339108" lon="2.233303355678396"><ele>174.25</ele><time>2026-04-06T09:49:20.999Z</time></trkpt><trkpt lat="43.59986891642172" lon="2.233433035747014"><ele>174.5</ele><time>2026-04-06T09:49:21.999Z</time></trkpt><trkpt lat="43.59994138688198" lon="2.2335644468095985"><ele>174.75</ele><time>2026-04-06T09:49:22.999Z</time></trkpt><trkpt lat="43.60001132139256" lon="2.2336936674650185"><ele>175.0</ele><time>2026-04-06T09:49:23.999Z</time></trkpt><trkpt lat="43.600083943445576" lon="2.233825422479014"><ele>175.0</ele><time>2026-04-06T09:49:24.999Z</time></trkpt><trkpt lat="43.60015878982052" lon="2.2339572424871803"><ele>175.0</ele><time>2026-04-06T09:49:25.999Z</time></trkpt><trkpt lat="43.60023511643599" lon="2.234090466280487"><ele>175.0</ele><time>2026-04-06T09:49:26.999Z</time></trkpt><trkpt lat="43.60030881515135" lon="2.2342229009669676"><ele>175.0</ele><time>2026-04-06T09:49:27.999Z</time></trkpt><trkpt lat="43.600382701010986" lon="2.2343510917652822"><ele>175.0</ele><time>2026-04-06T09:49:28.999Z</time></trkpt><trkpt lat="43.60045754175794" lon="2.234481609060897"><ele>175.0</ele><time>2026-04-06T09:49:29.999Z</time></trkpt><trkpt lat="43.60052669667848" lon="2.234611323046076"><ele>175.0</ele><time>2026-04-06T09:49:30.999Z</time></trkpt><trkpt lat="43.60060534169921" lon="2.2347261153049054"><ele>175.0</ele><time>2026-04-06T09:49:31.999Z</time></trkpt><trkpt lat="43.600638355402836" lon="2.2348664827671447"><ele>175.2</ele><time>2026-04-06T09:49:32.999Z</time></trkpt><trkpt lat="43.60064898100522" lon="2.2350152036333846"><ele>175.4</ele><time>2026-04-06T09:49:33.999Z</time></trkpt><trkpt lat="43.60067597196908" lon="2.235165557981145"><ele>175.60000000000002</ele><time>2026-04-06T09:49:34.999Z</time></trkpt><trkpt lat="43.600694021687254" lon="2.23531395528211"><ele>175.8</ele><time>2026-04-06T09:49:35.999Z</time></trkpt><trkpt lat="43.60072995566249" lon="2.23547059148696"><ele>176.0</ele><time>2026-04-06T09:49:36.999Z</time></trkpt><trkpt lat="43.60075613848027" lon="2.2356308954208552"><ele>176.25</ele><time>2026-04-06T09:49:37.999Z</time></trkpt><trkpt lat="43.600782851693666" lon="2.2357997390376765"><ele>176.5</ele><time>2026-04-06T09:49:38.999Z</time></trkpt><trkpt lat="43.60081420863761" lon="2.2359664592751587"><ele>176.75</ele><time>2026-04-06T09:49:39.999Z</time></trkpt><trkpt lat="43.60085123275371" lon="2.2361418188368662"><ele>177.0</ele><time>2026-04-06T09:49:40.999Z</time></trkpt><trkpt lat="43.600886765435064" lon="2.2363137348382973"><ele>176.75</ele><time>2026-04-06T09:49:41.999Z</time></trkpt><trkpt lat="43.60092181753911" lon="2.2364868944012666"><ele>176.5</ele><time>2026-04-06T09:49:42.999Z</time></trkpt><trkpt lat="43.60095667247596" lon="2.2366590796295824"><ele>176.25</ele><time>2026-04-06T09:49:43.999Z</time></trkpt><trkpt lat="43.60099093300671" lon="2.236828328635613"><ele>176.0</ele><time>2026-04-06T09:49:44.999Z</time></trkpt><trkpt lat="43.60101058994047" lon="2.2369990924940826"><ele>176.0</ele><time>2026-04-06T09:49:45.999Z</time></trkpt><trkpt lat="43.60104309006839" lon="2.237159838252385"><ele>176.0</ele><time>2026-04-06T09:49:46.999Z</time></trkpt><trkpt lat="43.60107948275992" lon="2.2373223281049714"><ele>176.0</ele><time>2026-04-06T09:49:47.999Z</time></trkpt><trkpt lat="43.60111510296223" lon="2.237476107679661"><ele>176.0</ele><time>2026-04-06T09:49:48.999Z</time></trkpt><trkpt lat="43.60114710559736" lon="2.237634252153349"><ele>176.0</ele><time>2026-04-06T09:49:49.999Z</time></trkpt><trkpt lat="43.6011803982924" lon="2.2377935315377533"><ele>176.0</ele><time>2026-04-06T09:49:50.999Z</time></trkpt><trkpt lat="43.60121436103376" lon="2.2379556284042295"><ele>176.0</ele><time>2026-04-06T09:49:51.999Z</time></trkpt><trkpt lat="43.601245494788955" lon="2.238118903778665"><ele>176.0</ele><time>2026-04-06T09:49:52.999Z</time></trkpt><trkpt lat="43.6012777239067" lon="2.238265081542891"><ele>176.0</ele><time>2026-04-06T09:49:53.999Z</time></trkpt><trkpt lat="43.60130956231548" lon="2.238408148556125"><ele>176.0</ele><time>2026-04-06T09:49:54.999Z</time></trkpt><trkpt lat="43.60133439275236" lon="2.238544208139441"><ele>176.0</ele><time>2026-04-06T09:49:55.999Z</time></trkpt><trkpt lat="43.60136125996547" lon="2.2386811555875186"><ele>176.0</ele><time>2026-04-06T09:49:56.999Z</time></trkpt><trkpt lat="43.60138636686728" lon="2.2388262329796995"><ele>176.0</ele><time>2026-04-06T09:49:57.999Z</time></trkpt><trkpt lat="43.60141174407685" lon="2.238975105963306"><ele>176.0</ele><time>2026-04-06T09:49:58.999Z</time></trkpt><trkpt lat="43.601447240293346" lon="2.239122893715153"><ele>176.0</ele><time>2026-04-06T09:49:59.999Z</time></trkpt><trkpt lat="43.60147890614323" lon="2.2392542437777827"><ele>176.0</ele><time>2026-04-06T09:50:00.999Z</time></trkpt><trkpt lat="43.601508155807274" lon="2.23937707492017"><ele>176.0</ele><time>2026-04-06T09:50:01.999Z</time></trkpt><trkpt lat="43.60153028225892" lon="2.2394907333014915"><ele>176.0</ele><time>2026-04-06T09:50:02.999Z</time></trkpt><trkpt lat="43.6015539444844" lon="2.2396002714716143"><ele>176.0</ele><time>2026-04-06T09:50:03.999Z</time></trkpt><trkpt lat="43.60157262742923" lon="2.23969947254271"><ele>176.0</ele><time>2026-04-06T09:50:04.999Z</time></trkpt><trkpt lat="43.60159178665919" lon="2.2397936437426194"><ele>176.0</ele><time>2026-04-06T09:50:05.999Z</time></trkpt><trkpt lat="43.601605851124084" lon="2.2398820410839875"><ele>176.0</ele><time>2026-04-06T09:50:06.999Z</time></trkpt><trkpt lat="43.60161461857021" lon="2.2399689175186843"><ele>176.0</ele><time>2026-04-06T09:50:07.999Z</time></trkpt><trkpt lat="43.601626031722446" lon="2.2400704147174384"><ele>176.0</ele><time>2026-04-06T09:50:08.999Z</time></trkpt><trkpt lat="43.60165817329639" lon="2.2401816228299807"><ele>176.0</ele><time>2026-04-06T09:50:09.999Z</time></trkpt><trkpt lat="43.601688392704766" lon="2.2403198250961993"><ele>176.0</ele><time>2026-04-06T09:50:10.999Z</time></trkpt><trkpt lat="43.601721926191615" lon="2.240487433311415"><ele>176.0</ele><time>2026-04-06T09:50:11.999Z</time></trkpt><trkpt lat="43.60175689101964" lon="2.240666373794849"><ele>176.0</ele><time>2026-04-06T09:50:12.999Z</time></trkpt><trkpt lat="43.601795111920566" lon="2.240858456683447"><ele>176.0</ele><time>2026-04-06T09:50:13.999Z</time></trkpt><trkpt lat="43.601831578694224" lon="2.241035162656525"><ele>176.0</ele><time>2026-04-06T09:50:14.999Z</time></trkpt><trkpt lat="43.60186791123573" lon="2.241211218560085"><ele>176.0</ele><time>2026-04-06T09:50:15.999Z</time></trkpt><trkpt lat="43.60190463116638" lon="2.2413824545082273"><ele>176.0</ele><time>2026-04-06T09:50:16.999Z</time></trkpt><trkpt lat="43.60194169133833" lon="2.2415556286649454"><ele>176.0</ele><time>2026-04-06T09:50:17.999Z</time></trkpt><trkpt lat="43.601969899724985" lon="2.241737445976391"><ele>176.25</ele><time>2026-04-06T09:50:18.999Z</time></trkpt><trkpt lat="43.60200127498017" lon="2.2419170545152367"><ele>176.5</ele><time>2026-04-06T09:50:19.999Z</time></trkpt><trkpt lat="43.60202037108916" lon="2.242106445668288"><ele>176.75</ele><time>2026-04-06T09:50:20.999Z</time></trkpt><trkpt lat="43.60205493638494" lon="2.2422706654985496"><ele>177.0</ele><time>2026-04-06T09:50:21.999Z</time></trkpt><trkpt lat="43.60208062067783" lon="2.2424285576589105"><ele>175.8</ele><time>2026-04-06T09:50:22.999Z</time></trkpt><trkpt lat="43.602104382780404" lon="2.2425795472505605"><ele>174.6</ele><time>2026-04-06T09:50:23.999Z</time></trkpt><trkpt lat="43.60212905918993" lon="2.2427341682640924"><ele>173.4</ele><time>2026-04-06T09:50:24.999Z</time></trkpt><trkpt lat="43.60215349959307" lon="2.242882216133242"><ele>172.20000000000002</ele><time>2026-04-06T09:50:25.999Z</time></trkpt><trkpt lat="43.60217878458667" lon="2.243020899571365"><ele>171.0</ele><time>2026-04-06T09:50:26.999Z</time></trkpt><trkpt lat="43.6022033448275" lon="2.24316205019753"><ele>170.60000000000002</ele><time>2026-04-06T09:50:27.999Z</time></trkpt><trkpt lat="43.602232734660895" lon="2.2432959293356394"><ele>170.2</ele><time>2026-04-06T09:50:28.999Z</time></trkpt><trkpt lat="43.60227284075228" lon="2.2434155379704976"><ele>169.8</ele><time>2026-04-06T09:50:29.999Z</time></trkpt><trkpt lat="43.60233308496449" lon="2.2435164350481682"><ele>169.39999999999998</ele><time>2026-04-06T09:50:30.999Z</time></trkpt><trkpt lat="43.60241222885564" lon="2.2435926054699995"><ele>169.0</ele><time>2026-04-06T09:50:31.999Z</time></trkpt><trkpt lat="43.60251276937398" lon="2.2436399533606908"><ele>169.0</ele><time>2026-04-06T09:50:32.999Z</time></trkpt><trkpt lat="43.60261499452807" lon="2.2436895258305127"><ele>169.0</ele><time>2026-04-06T09:50:33.999Z</time></trkpt><trkpt lat="43.60272670029294" lon="2.2437461574814486"><ele>169.0</ele><time>2026-04-06T09:50:34.999Z</time></trkpt><trkpt lat="43.602854041444715" lon="2.243810620202922"><ele>169.0</ele><time>2026-04-06T09:50:35.999Z</time></trkpt><trkpt lat="43.60298198212765" lon="2.2438728241899204"><ele>169.6</ele><time>2026-04-06T09:50:36.999Z</time></trkpt><trkpt lat="43.60309518246602" lon="2.243932984652618"><ele>170.2</ele><time>2026-04-06T09:50:37.999Z</time></trkpt><trkpt lat="43.603196968008945" lon="2.2439858914325366"><ele>170.79999999999998</ele><time>2026-04-06T09:50:38.999Z</time></trkpt><trkpt lat="43.603295605914404" lon="2.244037810449125"><ele>171.39999999999998</ele><time>2026-04-06T09:50:39.999Z</time></trkpt><trkpt lat="43.603375179064315" lon="2.244078408232049"><ele>172.0</ele><time>2026-04-06T09:50:40.999Z</time></trkpt><trkpt lat="43.60343689690435" lon="2.244109048199383"><ele>172.6</ele><time>2026-04-06T09:50:41.999Z</time></trkpt><trkpt lat="43.60350046904369" lon="2.2441427543481463"><ele>173.2</ele><time>2026-04-06T09:50:43.999Z</time></trkpt><trkpt lat="43.60359046268916" lon="2.2442007135082007"><ele>173.8</ele><time>2026-04-06T09:51:03Z</time></trkpt><trkpt lat="43.60368618795409" lon="2.2442614926521003"><ele>174.4</ele><time>2026-04-06T09:51:05Z</time></trkpt><trkpt lat="43.60377710378811" lon="2.2443117855534007"><ele>175.0</ele><time>2026-04-06T09:51:07Z</time></trkpt><trkpt lat="43.60385769755" lon="2.24436599573315"><ele>175.5</ele><time>2026-04-06T09:51:09Z</time></trkpt><trkpt lat="43.60392418755061" lon="2.2444143660976485"><ele>176.0</ele><time>2026-04-06T09:51:11Z</time></trkpt><trkpt lat="43.60398485593889" lon="2.2444600419432175"><ele>176.5</ele><time>2026-04-06T09:51:14Z</time></trkpt><trkpt lat="43.60404567793087" lon="2.244493783460188"><ele>177.0</ele><time>2026-04-06T09:51:36Z</time></trkpt><trkpt lat="43.604131642573336" lon="2.2445922373290847"><ele>177.5</ele><time>2026-04-06T09:51:38Z</time></trkpt><trkpt lat="43.604207303020196" lon="2.2446991500214923"><ele>178.0</ele><time>2026-04-06T09:51:40Z</time></trkpt><trkpt lat="43.604280733929826" lon="2.2448155648606454"><ele>178.16666666666669</ele><time>2026-04-06T09:51:42Z</time></trkpt><trkpt lat="43.60434039732598" lon="2.2448673791712346"><ele>178.33333333333334</ele><time>2026-04-06T09:51:43Z</time></trkpt><trkpt lat="43.60442018836921" lon="2.244901833643466"><ele>178.5</ele><time>2026-04-06T09:51:44Z</time></trkpt><trkpt lat="43.604508718215904" lon="2.2449203358590304"><ele>178.66666666666666</ele><time>2026-04-06T09:51:45Z</time></trkpt><trkpt lat="43.60459331917833" lon="2.2449418498310534"><ele>178.83333333333331</ele><time>2026-04-06T09:51:46Z</time></trkpt><trkpt lat="43.60467361522753" lon="2.244965246056789"><ele>179.0</ele><time>2026-04-06T09:51:47Z</time></trkpt><trkpt lat="43.6047490842903" lon="2.2449794103060237"><ele>179.00000000000003</ele><time>2026-04-06T09:51:48Z</time></trkpt><trkpt lat="43.6048142220833" lon="2.2449948007723135"><ele>179.0</ele><time>2026-04-06T09:51:49Z</time></trkpt><trkpt lat="43.60487767780105" lon="2.245010514812707"><ele>179.0</ele><time>2026-04-06T09:51:50Z</time></trkpt><trkpt lat="43.604941149803935" lon="2.2450255111312964"><ele>179.0</ele><time>2026-04-06T09:51:51Z</time></trkpt><trkpt lat="43.60500881920674" lon="2.2450426059717685"><ele>179.0</ele><time>2026-04-06T09:51:52Z</time></trkpt><trkpt lat="43.60507897102504" lon="2.2450662568503885"><ele>179.00000000000003</ele><time>2026-04-06T09:51:53Z</time></trkpt><trkpt lat="43.60515061179398" lon="2.245088988839734"><ele>179.0</ele><time>2026-04-06T09:51:54Z</time></trkpt><trkpt lat="43.60522282882675" lon="2.245102504268878"><ele>179.0</ele><time>2026-04-06T09:51:55Z</time></trkpt><trkpt lat="43.60528339011274" lon="2.2451273316140363"><ele>179.0</ele><time>2026-04-06T09:51:56Z</time></trkpt><trkpt lat="43.60539969702064" lon="2.2451735293801116"><ele>179.0</ele><time>2026-04-06T09:51:58Z</time></trkpt><trkpt lat="43.60546734320229" lon="2.2451924219020487"><ele>179.0</ele><time>2026-04-06T09:51:58.999Z</time></trkpt><trkpt lat="43.60554210808663" lon="2.245206559721695"><ele>179.0</ele><time>2026-04-06T09:51:59.999Z</time></trkpt><trkpt lat="43.60565988383655" lon="2.2452270042924596"><ele>179.0</ele><time>2026-04-06T09:52:01.999Z</time></trkpt><trkpt lat="43.60572694017792" lon="2.2454582408843677"><ele>178.6</ele><time>2026-04-06T09:52:03.999Z</time></trkpt><trkpt lat="43.605756498407274" lon="2.2455714169654613"><ele>178.2</ele><time>2026-04-06T09:52:04.999Z</time></trkpt><trkpt lat="43.60578794949559" lon="2.2456968833661284"><ele>177.79999999999998</ele><time>2026-04-06T09:52:05.999Z</time></trkpt><trkpt lat="43.60581934940974" lon="2.2458271451961562"><ele>177.39999999999998</ele><time>2026-04-06T09:52:06.999Z</time></trkpt><trkpt lat="43.605850829853274" lon="2.2459557954798166"><ele>177.0</ele><time>2026-04-06T09:52:07.999Z</time></trkpt><trkpt lat="43.605882383585794" lon="2.2460835620640625"><ele>177.0</ele><time>2026-04-06T09:52:08.999Z</time></trkpt><trkpt lat="43.6059127391783" lon="2.246209595766569"><ele>177.0</ele><time>2026-04-06T09:52:09.999Z</time></trkpt><trkpt lat="43.6059443886842" lon="2.246336372897542"><ele>177.0</ele><time>2026-04-06T09:52:10.999Z</time></trkpt><trkpt lat="43.60597832474813" lon="2.2464609735383316"><ele>177.0</ele><time>2026-04-06T09:52:11.999Z</time></trkpt><trkpt lat="43.606012167917704" lon="2.2465760782466764"><ele>177.0</ele><time>2026-04-06T09:52:12.999Z</time></trkpt><trkpt lat="43.60605095560088" lon="2.2466943154388375"><ele>177.39999999999998</ele><time>2026-04-06T09:52:13.999Z</time></trkpt><trkpt lat="43.60607985913428" lon="2.246826117405922"><ele>177.79999999999998</ele><time>2026-04-06T09:52:14.999Z</time></trkpt><trkpt lat="43.6060975610957" lon="2.2469607510551763"><ele>178.2</ele><time>2026-04-06T09:52:15.999Z</time></trkpt><trkpt lat="43.606123017456284" lon="2.2470849687390357"><ele>178.6</ele><time>2026-04-06T09:52:16.999Z</time></trkpt><trkpt lat="43.60615703985742" lon="2.247202643064651"><ele>179.0</ele><time>2026-04-06T09:52:17.999Z</time></trkpt><trkpt lat="43.60619184548669" lon="2.247326925582773"><ele>179.0</ele><time>2026-04-06T09:52:18.999Z</time></trkpt><trkpt lat="43.60622629031154" lon="2.247465686053161"><ele>179.0</ele><time>2026-04-06T09:52:19.999Z</time></trkpt><trkpt lat="43.60626458273255" lon="2.247605369549721"><ele>179.0</ele><time>2026-04-06T09:52:20.999Z</time></trkpt><trkpt lat="43.60629738053746" lon="2.247752027083713"><ele>179.0</ele><time>2026-04-06T09:52:21.999Z</time></trkpt><trkpt lat="43.60633658117325" lon="2.247887701305366"><ele>179.0</ele><time>2026-04-06T09:52:22.999Z</time></trkpt><trkpt lat="43.60637107902869" lon="2.248025710254573"><ele>179.2</ele><time>2026-04-06T09:52:23.999Z</time></trkpt><trkpt lat="43.60640483465905" lon="2.24815878985201"><ele>179.39999999999998</ele><time>2026-04-06T09:52:24.999Z</time></trkpt><trkpt lat="43.60643832242606" lon="2.248291473311045"><ele>179.6</ele><time>2026-04-06T09:52:25.999Z</time></trkpt><trkpt lat="43.60646553552888" lon="2.248425597575299"><ele>179.8</ele><time>2026-04-06T09:52:26.999Z</time></trkpt><trkpt lat="43.606492216102076" lon="2.2485553692557474"><ele>180.0</ele><time>2026-04-06T09:52:27.999Z</time></trkpt><trkpt lat="43.60652117627664" lon="2.248686133621517"><ele>180.0</ele><time>2026-04-06T09:52:28.999Z</time></trkpt><trkpt lat="43.60655347024369" lon="2.248814743865152"><ele>180.0</ele><time>2026-04-06T09:52:29.999Z</time></trkpt><trkpt lat="43.60659223744608" lon="2.2489701865223943"><ele>180.0</ele><time>2026-04-06T09:52:30.999Z</time></trkpt><trkpt lat="43.60662977375028" lon="2.249119277150403"><ele>180.0</ele><time>2026-04-06T09:52:31.999Z</time></trkpt><trkpt lat="43.606665890933854" lon="2.2492703031517105"><ele>180.0</ele><time>2026-04-06T09:52:32.999Z</time></trkpt><trkpt lat="43.60669853310082" lon="2.2494260528973014"><ele>180.75</ele><time>2026-04-06T09:52:33.999Z</time></trkpt><trkpt lat="43.60673497685691" lon="2.249575467410967"><ele>181.5</ele><time>2026-04-06T09:52:34.999Z</time></trkpt><trkpt lat="43.606772673845" lon="2.2497259280442004"><ele>182.25</ele><time>2026-04-06T09:52:35.999Z</time></trkpt><trkpt lat="43.606810324676104" lon="2.249875580005273"><ele>183.0</ele><time>2026-04-06T09:52:36.999Z</time></trkpt><trkpt lat="43.6068365922303" lon="2.2500231800444634"><ele>183.16666666666666</ele><time>2026-04-06T09:52:37.999Z</time></trkpt><trkpt lat="43.60686540474377" lon="2.2501530307146993"><ele>183.33333333333334</ele><time>2026-04-06T09:52:38.999Z</time></trkpt><trkpt lat="43.606893831737494" lon="2.2502702882871244"><ele>183.5</ele><time>2026-04-06T09:52:39.999Z</time></trkpt><trkpt lat="43.60691601791132" lon="2.2503687833576205"><ele>183.66666666666669</ele><time>2026-04-06T09:52:40.999Z</time></trkpt><trkpt lat="43.60693331436921" lon="2.250457121707008"><ele>183.83333333333334</ele><time>2026-04-06T09:52:41.999Z</time></trkpt><trkpt lat="43.606953589206896" lon="2.2505439202037456"><ele>184.0</ele><time>2026-04-06T09:52:42.999Z</time></trkpt><trkpt lat="43.60697456310845" lon="2.2506332046236794"><ele>183.6</ele><time>2026-04-06T09:52:43.999Z</time></trkpt><trkpt lat="43.606995108913125" lon="2.250730407752501"><ele>183.2</ele><time>2026-04-06T09:52:44.999Z</time></trkpt><trkpt lat="43.607018969897304" lon="2.2508323600118154"><ele>182.79999999999998</ele><time>2026-04-06T09:52:45.999Z</time></trkpt><trkpt lat="43.60703909045476" lon="2.2509527053634963"><ele>182.39999999999998</ele><time>2026-04-06T09:52:46.999Z</time></trkpt><trkpt lat="43.60706399523648" lon="2.251082952712343"><ele>182.0</ele><time>2026-04-06T09:52:47.999Z</time></trkpt><trkpt lat="43.60710965293794" lon="2.2512252128565344"><ele>182.0</ele><time>2026-04-06T09:52:48.999Z</time></trkpt><trkpt lat="43.60713006700663" lon="2.2513832469757618"><ele>182.0</ele><time>2026-04-06T09:52:49.999Z</time></trkpt><trkpt lat="43.60716595423483" lon="2.2515418857837246"><ele>182.0</ele><time>2026-04-06T09:52:51Z</time></trkpt><trkpt lat="43.60720431868936" lon="2.2517027745044484"><ele>182.0</ele><time>2026-04-06T09:52:52Z</time></trkpt><trkpt lat="43.60724142348587" lon="2.251868948203534"><ele>182.5</ele><time>2026-04-06T09:52:53Z</time></trkpt><trkpt lat="43.60727858147841" lon="2.252041391591575"><ele>183.0</ele><time>2026-04-06T09:52:54Z</time></trkpt><trkpt lat="43.607315983889904" lon="2.2522089082918715"><ele>183.5</ele><time>2026-04-06T09:52:55Z</time></trkpt><trkpt lat="43.60735558933747" lon="2.252379032566616"><ele>184.0</ele><time>2026-04-06T09:52:56Z</time></trkpt><trkpt lat="43.60739955827669" lon="2.2525512096723412"><ele>184.0</ele><time>2026-04-06T09:52:57Z</time></trkpt><trkpt lat="43.60744082395815" lon="2.2527254320332206"><ele>184.0</ele><time>2026-04-06T09:52:58Z</time></trkpt><trkpt lat="43.607478283440464" lon="2.2529001820130325"><ele>184.0</ele><time>2026-04-06T09:52:59Z</time></trkpt><trkpt lat="43.60752216189096" lon="2.2530747672590468"><ele>184.0</ele><time>2026-04-06T09:53:00Z</time></trkpt><trkpt lat="43.60756433636639" lon="2.2532509779114243"><ele>184.75</ele><time>2026-04-06T09:53:01Z</time></trkpt><trkpt lat="43.607610242362206" lon="2.2534215756966334"><ele>185.5</ele><time>2026-04-06T09:53:02Z</time></trkpt><trkpt lat="43.60764911141198" lon="2.253596527455165"><ele>186.25</ele><time>2026-04-06T09:53:03Z</time></trkpt><trkpt lat="43.6076924305641" lon="2.253770081704949"><ele>187.0</ele><time>2026-04-06T09:53:04Z</time></trkpt><trkpt lat="43.60773331931785" lon="2.2539432850322534"><ele>187.25</ele><time>2026-04-06T09:53:05Z</time></trkpt><trkpt lat="43.6077746612805" lon="2.254112205520349"><ele>187.5</ele><time>2026-04-06T09:53:06Z</time></trkpt><trkpt lat="43.607813847306225" lon="2.2542793581529663"><ele>187.75</ele><time>2026-04-06T09:53:07Z</time></trkpt><trkpt lat="43.607852979861605" lon="2.2544420458686405"><ele>188.0</ele><time>2026-04-06T09:53:08Z</time></trkpt><trkpt lat="43.607890397333755" lon="2.2546035585103708"><ele>188.0</ele><time>2026-04-06T09:53:09Z</time></trkpt><trkpt lat="43.60792754446319" lon="2.2547664853492573"><ele>188.0</ele><time>2026-04-06T09:53:10Z</time></trkpt><trkpt lat="43.607963752758224" lon="2.2549286545919"><ele>188.0</ele><time>2026-04-06T09:53:11Z</time></trkpt><trkpt lat="43.608002208287616" lon="2.2550858296884693"><ele>188.0</ele><time>2026-04-06T09:53:12Z</time></trkpt><trkpt lat="43.60803205253769" lon="2.25522951810304"><ele>187.83333333333331</ele><time>2026-04-06T09:53:13Z</time></trkpt><trkpt lat="43.60805735305193" lon="2.255347234406797"><ele>187.66666666666666</ele><time>2026-04-06T09:53:14Z</time></trkpt><trkpt lat="43.608080044841316" lon="2.2554556491895914"><ele>187.5</ele><time>2026-04-06T09:53:15Z</time></trkpt><trkpt lat="43.608103565116025" lon="2.25555365619323"><ele>187.33333333333334</ele><time>2026-04-06T09:53:16Z</time></trkpt><trkpt lat="43.608127546895325" lon="2.255645885581856"><ele>187.16666666666669</ele><time>2026-04-06T09:53:17Z</time></trkpt><trkpt lat="43.60815066578" lon="2.255738130103132"><ele>187.0</ele><time>2026-04-06T09:53:18Z</time></trkpt><trkpt lat="43.608173002964335" lon="2.2558315182326285"><ele>187.0</ele><time>2026-04-06T09:53:19Z</time></trkpt><trkpt lat="43.60819572166735" lon="2.25592516936227"><ele>187.0</ele><time>2026-04-06T09:53:20Z</time></trkpt><trkpt lat="43.60822269615743" lon="2.256025871079184"><ele>187.0</ele><time>2026-04-06T09:53:21Z</time></trkpt><trkpt lat="43.608251176299355" lon="2.2561323279194143"><ele>187.0</ele><time>2026-04-06T09:53:22Z</time></trkpt><trkpt lat="43.608275815393824" lon="2.256246087750494"><ele>187.0</ele><time>2026-04-06T09:53:23Z</time></trkpt><trkpt lat="43.60828309301483" lon="2.2563610569991392"><ele>187.0</ele><time>2026-04-06T09:53:24Z</time></trkpt><trkpt lat="43.608272224348795" lon="2.2564734783819635"><ele>187.16666666666669</ele><time>2026-04-06T09:53:25Z</time></trkpt><trkpt lat="43.60824881070557" lon="2.256575857154979"><ele>187.33333333333334</ele><time>2026-04-06T09:53:26Z</time></trkpt><trkpt lat="43.608209531324334" lon="2.256661528425141"><ele>187.5</ele><time>2026-04-06T09:53:27Z</time></trkpt><trkpt lat="43.608148257060414" lon="2.2567367515762196"><ele>187.66666666666666</ele><time>2026-04-06T09:53:28Z</time></trkpt><trkpt lat="43.6080692274779" lon="2.2568066098445962"><ele>187.83333333333331</ele><time>2026-04-06T09:53:29Z</time></trkpt><trkpt lat="43.60798122656796" lon="2.256871230916479"><ele>188.0</ele><time>2026-04-06T09:53:30Z</time></trkpt><trkpt lat="43.607893136520346" lon="2.256926905478091"><ele>188.2</ele><time>2026-04-06T09:53:31Z</time></trkpt><trkpt lat="43.60780347548683" lon="2.256988466516854"><ele>188.4</ele><time>2026-04-06T09:53:32Z</time></trkpt><trkpt lat="43.60771964233671" lon="2.257075315215934"><ele>188.6</ele><time>2026-04-06T09:53:33Z</time></trkpt><trkpt lat="43.60766436006571" lon="2.257186633737996"><ele>188.79999999999998</ele><time>2026-04-06T09:53:34Z</time></trkpt><trkpt lat="43.60763265697311" lon="2.257321217699521"><ele>189.0</ele><time>2026-04-06T09:53:35Z</time></trkpt><trkpt lat="43.60762978446312" lon="2.2574625859168957"><ele>189.25</ele><time>2026-04-06T09:53:36Z</time></trkpt><trkpt lat="43.60770557674873" lon="2.25774452927747"><ele>189.5</ele><time>2026-04-06T09:53:38Z</time></trkpt><trkpt lat="43.60775914805291" lon="2.2578729530493318"><ele>189.75</ele><time>2026-04-06T09:53:39Z</time></trkpt><trkpt lat="43.60783431199101" lon="2.2579784816161936"><ele>190.0</ele><time>2026-04-06T09:53:40Z</time></trkpt><trkpt lat="43.60793178086254" lon="2.258041302796561"><ele>190.0</ele><time>2026-04-06T09:53:41Z</time></trkpt><trkpt lat="43.608039780294654" lon="2.2580592266975774"><ele>190.0</ele><time>2026-04-06T09:53:42Z</time></trkpt><trkpt lat="43.60814653115186" lon="2.2580346202698034"><ele>190.0</ele><time>2026-04-06T09:53:43Z</time></trkpt><trkpt lat="43.608239800640945" lon="2.2579911760660187"><ele>190.0</ele><time>2026-04-06T09:53:44Z</time></trkpt><trkpt lat="43.60832722824253" lon="2.257945148735774"><ele>190.0</ele><time>2026-04-06T09:53:45Z</time></trkpt><trkpt lat="43.60840854571564" lon="2.257900644326492"><ele>190.0</ele><time>2026-04-06T09:53:46Z</time></trkpt><trkpt lat="43.60848927312054" lon="2.2578564515932507"><ele>190.0</ele><time>2026-04-06T09:53:47Z</time></trkpt><trkpt lat="43.60854760303899" lon="2.2578106069051835"><ele>190.0</ele><time>2026-04-06T09:53:48Z</time></trkpt><trkpt lat="43.60865443412594" lon="2.2579262779589824"><ele>190.0</ele><time>2026-04-06T09:53:49Z</time></trkpt><trkpt lat="43.608705486390804" lon="2.258021417962191"><ele>190.0</ele><time>2026-04-06T09:53:50Z</time></trkpt><trkpt lat="43.608745900762365" lon="2.258120798182919"><ele>190.16666666666669</ele><time>2026-04-06T09:53:51Z</time></trkpt><trkpt lat="43.60878468186539" lon="2.258211252736353"><ele>190.33333333333334</ele><time>2026-04-06T09:53:52Z</time></trkpt><trkpt lat="43.608818161741794" lon="2.258298607164145"><ele>190.5</ele><time>2026-04-06T09:53:53Z</time></trkpt><trkpt lat="43.6088509049303" lon="2.2583894368459103"><ele>190.66666666666666</ele><time>2026-04-06T09:53:54Z</time></trkpt><trkpt lat="43.60888847779295" lon="2.2584923531776346"><ele>190.83333333333331</ele><time>2026-04-06T09:53:55Z</time></trkpt><trkpt lat="43.60892695187431" lon="2.258603249302726"><ele>191.0</ele><time>2026-04-06T09:53:56Z</time></trkpt><trkpt lat="43.608965612085186" lon="2.2587145709962786"><ele>191.0</ele><time>2026-04-06T09:53:57Z</time></trkpt><trkpt lat="43.6090048413416" lon="2.2588348226855914"><ele>191.0</ele><time>2026-04-06T09:53:58Z</time></trkpt><trkpt lat="43.60904693775874" lon="2.258965231026101"><ele>191.0</ele><time>2026-04-06T09:53:59Z</time></trkpt><trkpt lat="43.609093298684556" lon="2.259097624569142"><ele>191.0</ele><time>2026-04-06T09:54:00Z</time></trkpt><trkpt lat="43.60913842619078" lon="2.259224725918404"><ele>191.0</ele><time>2026-04-06T09:54:01Z</time></trkpt><trkpt lat="43.60918337730553" lon="2.259347648386555"><ele>190.60000000000002</ele><time>2026-04-06T09:54:02Z</time></trkpt><trkpt lat="43.60922528390283" lon="2.259468417320185"><ele>190.2</ele><time>2026-04-06T09:54:03Z</time></trkpt><trkpt lat="43.60926548157135" lon="2.259586252765582"><ele>189.8</ele><time>2026-04-06T09:54:04Z</time></trkpt><trkpt lat="43.60930870253602" lon="2.259707383756146"><ele>189.39999999999998</ele><time>2026-04-06T09:54:04.999Z</time></trkpt><trkpt lat="43.609353397143764" lon="2.259838284387288"><ele>189.0</ele><time>2026-04-06T09:54:05.999Z</time></trkpt><trkpt lat="43.609396699839" lon="2.259980580994931"><ele>189.0</ele><time>2026-04-06T09:54:06.999Z</time></trkpt><trkpt lat="43.60944468265403" lon="2.2601325393273393"><ele>189.0</ele><time>2026-04-06T09:54:07.999Z</time></trkpt><trkpt lat="43.609494392815705" lon="2.2602869680079674"><ele>189.0</ele><time>2026-04-06T09:54:08.999Z</time></trkpt><trkpt lat="43.609546847171785" lon="2.2604317659068895"><ele>189.0</ele><time>2026-04-06T09:54:09.999Z</time></trkpt><trkpt lat="43.609595803497236" lon="2.2605734555908867"><ele>188.25</ele><time>2026-04-06T09:54:10.999Z</time></trkpt><trkpt lat="43.60965051129415" lon="2.260711873680047"><ele>187.5</ele><time>2026-04-06T09:54:11.999Z</time></trkpt><trkpt lat="43.60970733191042" lon="2.2608544417200824"><ele>186.75</ele><time>2026-04-06T09:54:12.999Z</time></trkpt><trkpt lat="43.609758493457164" lon="2.261000576272701"><ele>186.0</ele><time>2026-04-06T09:54:13.999Z</time></trkpt><trkpt lat="43.6098056220914" lon="2.261152001792661"><ele>186.0</ele><time>2026-04-06T09:54:14.999Z</time></trkpt><trkpt lat="43.6098587198029" lon="2.2612978811800506"><ele>186.0</ele><time>2026-04-06T09:54:15.999Z</time></trkpt><trkpt lat="43.6099142656908" lon="2.2614418576390207"><ele>186.0</ele><time>2026-04-06T09:54:16.999Z</time></trkpt><trkpt lat="43.609968723335804" lon="2.26158889745643"><ele>186.0</ele><time>2026-04-06T09:54:17.999Z</time></trkpt><trkpt lat="43.61002436306064" lon="2.2617361005907166"><ele>186.0</ele><time>2026-04-06T09:54:18.999Z</time></trkpt><trkpt lat="43.61007867178954" lon="2.2618887611425302"><ele>186.0</ele><time>2026-04-06T09:54:19.999Z</time></trkpt><trkpt lat="43.61013229853002" lon="2.2620473323217953"><ele>186.0</ele><time>2026-04-06T09:54:20.999Z</time></trkpt><trkpt lat="43.61018673293704" lon="2.2622040418786984"><ele>186.0</ele><time>2026-04-06T09:54:21.999Z</time></trkpt><trkpt lat="43.610238637320315" lon="2.2623640657012007"><ele>186.5</ele><time>2026-04-06T09:54:22.999Z</time></trkpt><trkpt lat="43.61028897624585" lon="2.2625202504442483"><ele>187.0</ele><time>2026-04-06T09:54:23.999Z</time></trkpt><trkpt lat="43.61033827042897" lon="2.262672045768587"><ele>187.5</ele><time>2026-04-06T09:54:24.999Z</time></trkpt><trkpt lat="43.610391442136034" lon="2.262825766317035"><ele>188.0</ele><time>2026-04-06T09:54:25.999Z</time></trkpt><trkpt lat="43.610448370619004" lon="2.262987829563548"><ele>187.5</ele><time>2026-04-06T09:54:26.999Z</time></trkpt><trkpt lat="43.6105111812798" lon="2.2631490074274465"><ele>187.0</ele><time>2026-04-06T09:54:27.999Z</time></trkpt><trkpt lat="43.61057569828374" lon="2.2633093928133095"><ele>186.5</ele><time>2026-04-06T09:54:28.999Z</time></trkpt><trkpt lat="43.61063928081644" lon="2.2634745544543837"><ele>186.0</ele><time>2026-04-06T09:54:30Z</time></trkpt><trkpt lat="43.6106943544127" lon="2.2636441782354275"><ele>186.0</ele><time>2026-04-06T09:54:31Z</time></trkpt><trkpt lat="43.61074620853023" lon="2.263802023581749"><ele>186.0</ele><time>2026-04-06T09:54:32Z</time></trkpt><trkpt lat="43.61079449243069" lon="2.263942946428114"><ele>186.0</ele><time>2026-04-06T09:54:33Z</time></trkpt><trkpt lat="43.61084353449022" lon="2.2640766253814"><ele>186.0</ele><time>2026-04-06T09:54:34Z</time></trkpt><trkpt lat="43.610891991410114" lon="2.2642115887463654"><ele>187.0</ele><time>2026-04-06T09:54:35Z</time></trkpt><trkpt lat="43.610942138376906" lon="2.264357726147954"><ele>188.0</ele><time>2026-04-06T09:54:36Z</time></trkpt><trkpt lat="43.61098995238827" lon="2.26449612985923"><ele>189.0</ele><time>2026-04-06T09:54:37Z</time></trkpt><trkpt lat="43.61103880849101" lon="2.2646552799109547"><ele>190.0</ele><time>2026-04-06T09:54:38Z</time></trkpt><trkpt lat="43.61109415396632" lon="2.264814171762722"><ele>190.0</ele><time>2026-04-06T09:54:39Z</time></trkpt><trkpt lat="43.61115204266745" lon="2.2649698385077093"><ele>190.0</ele><time>2026-04-06T09:54:40Z</time></trkpt><trkpt lat="43.61121402793556" lon="2.26514439412319"><ele>190.0</ele><time>2026-04-06T09:54:41Z</time></trkpt><trkpt lat="43.61127082733106" lon="2.2653096438933003"><ele>190.0</ele><time>2026-04-06T09:54:42Z</time></trkpt><trkpt lat="43.611335774264035" lon="2.2654709733095992"><ele>189.25</ele><time>2026-04-06T09:54:43Z</time></trkpt><trkpt lat="43.61140233121237" lon="2.2656234454995388"><ele>188.5</ele><time>2026-04-06T09:54:44Z</time></trkpt><trkpt lat="43.61147123981094" lon="2.2657618279990936"><ele>187.75</ele><time>2026-04-06T09:54:45Z</time></trkpt><trkpt lat="43.61154167857494" lon="2.2658794031175935"><ele>187.0</ele><time>2026-04-06T09:54:46Z</time></trkpt><trkpt lat="43.611608225638705" lon="2.265971454887001"><ele>187.0</ele><time>2026-04-06T09:54:47Z</time></trkpt><trkpt lat="43.611670355518974" lon="2.266042062595227"><ele>187.0</ele><time>2026-04-06T09:54:48Z</time></trkpt><trkpt lat="43.61176574696679" lon="2.2661290854687115"><ele>187.0</ele><time>2026-04-06T09:54:50Z</time></trkpt><trkpt lat="43.61184240445767" lon="2.26620092582471"><ele>187.0</ele><time>2026-04-06T09:54:52Z</time></trkpt><trkpt lat="43.611928967923006" lon="2.266270291246279"><ele>187.0</ele><time>2026-04-06T09:54:54Z</time></trkpt><trkpt lat="43.61203433178894" lon="2.266339475121598"><ele>187.8</ele><time>2026-04-06T09:54:56Z</time></trkpt><trkpt lat="43.61209495774639" lon="2.2663734933199358"><ele>188.6</ele><time>2026-04-06T09:54:57Z</time></trkpt><trkpt lat="43.61218815003133" lon="2.266418713602851"><ele>189.4</ele><time>2026-04-06T09:54:58Z</time></trkpt><trkpt lat="43.61229563793097" lon="2.266477643859337"><ele>190.20000000000002</ele><time>2026-04-06T09:54:59Z</time></trkpt><trkpt lat="43.61241030549344" lon="2.266546757408995"><ele>191.0</ele><time>2026-04-06T09:55:00Z</time></trkpt><trkpt lat="43.6125266654532" lon="2.2666247746935793"><ele>191.33333333333331</ele><time>2026-04-06T09:55:01Z</time></trkpt><trkpt lat="43.612657133907085" lon="2.2667275555348194"><ele>191.66666666666666</ele><time>2026-04-06T09:55:02Z</time></trkpt><trkpt lat="43.61280503000041" lon="2.2668230759946395"><ele>192.0</ele><time>2026-04-06T09:55:03Z</time></trkpt><trkpt lat="43.61295993109666" lon="2.2669012992361575"><ele>192.0</ele><time>2026-04-06T09:55:04Z</time></trkpt><trkpt lat="43.61309765902628" lon="2.2669986314948103"><ele>192.0</ele><time>2026-04-06T09:55:05Z</time></trkpt><trkpt lat="43.61323008088909" lon="2.267091009622293"><ele>192.0</ele><time>2026-04-06T09:55:06Z</time></trkpt><trkpt lat="43.61335493349133" lon="2.2671726970927892"><ele>192.0</ele><time>2026-04-06T09:55:07Z</time></trkpt><trkpt lat="43.61347257351583" lon="2.267253963493461"><ele>192.0</ele><time>2026-04-06T09:55:08Z</time></trkpt><trkpt lat="43.61358973357855" lon="2.2673335376092756"><ele>192.0</ele><time>2026-04-06T09:55:09Z</time></trkpt><trkpt lat="43.61370764912071" lon="2.2674148061203447"><ele>192.0</ele><time>2026-04-06T09:55:10Z</time></trkpt><trkpt lat="43.61382259863171" lon="2.2674924038940216"><ele>192.0</ele><time>2026-04-06T09:55:11Z</time></trkpt><trkpt lat="43.613935450685865" lon="2.2675643557314378"><ele>192.0</ele><time>2026-04-06T09:55:12Z</time></trkpt><trkpt lat="43.61405170040424" lon="2.26764009961977"><ele>192.0</ele><time>2026-04-06T09:55:13Z</time></trkpt><trkpt lat="43.61417057191128" lon="2.2677178679334538"><ele>192.0</ele><time>2026-04-06T09:55:14Z</time></trkpt><trkpt lat="43.61428708478149" lon="2.267795303810908"><ele>192.0</ele><time>2026-04-06T09:55:15Z</time></trkpt><trkpt lat="43.614409884445905" lon="2.26787662881685"><ele>192.25</ele><time>2026-04-06T09:55:16Z</time></trkpt><trkpt lat="43.61453063890442" lon="2.267956195652996"><ele>192.5</ele><time>2026-04-06T09:55:17Z</time></trkpt><trkpt lat="43.61466342414048" lon="2.268040294551062"><ele>192.75</ele><time>2026-04-06T09:55:18Z</time></trkpt><trkpt lat="43.61479226008772" lon="2.268124292934809"><ele>193.0</ele><time>2026-04-06T09:55:19Z</time></trkpt><trkpt lat="43.61492275598898" lon="2.2682076401537485"><ele>193.0</ele><time>2026-04-06T09:55:20Z</time></trkpt><trkpt lat="43.61505566658575" lon="2.2682889963681876"><ele>193.0</ele><time>2026-04-06T09:55:21Z</time></trkpt><trkpt lat="43.61519221109541" lon="2.2683683125762544"><ele>193.0</ele><time>2026-04-06T09:55:22Z</time></trkpt><trkpt lat="43.615337369115764" lon="2.2684551955119123"><ele>192.66666666666666</ele><time>2026-04-06T09:55:23Z</time></trkpt><trkpt lat="43.61547896158008" lon="2.268533901001747"><ele>192.33333333333331</ele><time>2026-04-06T09:55:24Z</time></trkpt><trkpt lat="43.615622280367106" lon="2.2686134720607036"><ele>192.0</ele><time>2026-04-06T09:55:25Z</time></trkpt><trkpt lat="43.615766794920404" lon="2.268691952001031"><ele>192.0</ele><time>2026-04-06T09:55:26Z</time></trkpt><trkpt lat="43.61591014930273" lon="2.268769074846473"><ele>192.0</ele><time>2026-04-06T09:55:27Z</time></trkpt><trkpt lat="43.61605592375993" lon="2.2688453891942584"><ele>192.0</ele><time>2026-04-06T09:55:28Z</time></trkpt><trkpt lat="43.616202981372524" lon="2.268925042959377"><ele>192.0</ele><time>2026-04-06T09:55:29Z</time></trkpt><trkpt lat="43.61635015188902" lon="2.2690098134913783"><ele>192.0</ele><time>2026-04-06T09:55:30Z</time></trkpt><trkpt lat="43.61649524250921" lon="2.269090270093931"><ele>192.0</ele><time>2026-04-06T09:55:31Z</time></trkpt><trkpt lat="43.61663193581922" lon="2.269166783359942"><ele>192.0</ele><time>2026-04-06T09:55:32Z</time></trkpt><trkpt lat="43.61676774038747" lon="2.2692426418558127"><ele>192.0</ele><time>2026-04-06T09:55:33Z</time></trkpt><trkpt lat="43.61690347956822" lon="2.269316061450103"><ele>192.0</ele><time>2026-04-06T09:55:34Z</time></trkpt><trkpt lat="43.617042958256505" lon="2.2693912196230968"><ele>192.0</ele><time>2026-04-06T09:55:35Z</time></trkpt><trkpt lat="43.617181152807696" lon="2.26946846805775"><ele>191.33333333333334</ele><time>2026-04-06T09:55:36Z</time></trkpt><trkpt lat="43.61732046008836" lon="2.269549691246659"><ele>190.66666666666669</ele><time>2026-04-06T09:55:37Z</time></trkpt><trkpt lat="43.617462243506935" lon="2.2696307943541725"><ele>190.0</ele><time>2026-04-06T09:55:38Z</time></trkpt><trkpt lat="43.6176034462426" lon="2.2697069516501567"><ele>190.25</ele><time>2026-04-06T09:55:39Z</time></trkpt><trkpt lat="43.61774438431907" lon="2.2697826113303035"><ele>190.5</ele><time>2026-04-06T09:55:40Z</time></trkpt><trkpt lat="43.61788320990132" lon="2.2698541000682475"><ele>190.75</ele><time>2026-04-06T09:55:41Z</time></trkpt><trkpt lat="43.61802100113101" lon="2.2699247645402174"><ele>191.0</ele><time>2026-04-06T09:55:42Z</time></trkpt><trkpt lat="43.6181586172646" lon="2.269996608955658"><ele>191.0</ele><time>2026-04-06T09:55:43Z</time></trkpt><trkpt lat="43.61829456332004" lon="2.2700681201790567"><ele>191.0</ele><time>2026-04-06T09:55:44Z</time></trkpt><trkpt lat="43.6184289281082" lon="2.2701371453079116"><ele>191.0</ele><time>2026-04-06T09:55:45Z</time></trkpt><trkpt lat="43.618561963725085" lon="2.2701950901210215"><ele>191.0</ele><time>2026-04-06T09:55:46Z</time></trkpt><trkpt lat="43.618688034684816" lon="2.2702498452357593"><ele>190.8</ele><time>2026-04-06T09:55:47Z</time></trkpt><trkpt lat="43.61880302775597" lon="2.2702868159986136"><ele>190.60000000000002</ele><time>2026-04-06T09:55:48Z</time></trkpt><trkpt lat="43.6189087431795" lon="2.270317620451037"><ele>190.4</ele><time>2026-04-06T09:55:49Z</time></trkpt><trkpt lat="43.619012866775144" lon="2.270334973054238"><ele>190.2</ele><time>2026-04-06T09:55:50Z</time></trkpt><trkpt lat="43.61911079727894" lon="2.2703481652082282"><ele>190.0</ele><time>2026-04-06T09:55:51Z</time></trkpt><trkpt lat="43.6192027527847" lon="2.2703831002557426"><ele>190.0</ele><time>2026-04-06T09:55:52Z</time></trkpt><trkpt lat="43.61930339841706" lon="2.2704612821094656"><ele>190.0</ele><time>2026-04-06T09:55:53Z</time></trkpt><trkpt lat="43.61940395997091" lon="2.270541320823448"><ele>190.0</ele><time>2026-04-06T09:55:54Z</time></trkpt><trkpt lat="43.6195159984286" lon="2.270617259853964"><ele>190.0</ele><time>2026-04-06T09:55:55Z</time></trkpt><trkpt lat="43.61964512220691" lon="2.270695056118226"><ele>193.33333333333334</ele><time>2026-04-06T09:55:56Z</time></trkpt><trkpt lat="43.61978730407117" lon="2.2707675300524337"><ele>196.66666666666669</ele><time>2026-04-06T09:55:57Z</time></trkpt><trkpt lat="43.619935276685226" lon="2.2708385121192247"><ele>200.0</ele><time>2026-04-06T09:55:58Z</time></trkpt><trkpt lat="43.6200930872816" lon="2.2709156303919564"><ele>200.0</ele><time>2026-04-06T09:55:59Z</time></trkpt><trkpt lat="43.620246639958964" lon="2.2709771921445525"><ele>200.0</ele><time>2026-04-06T09:56:00Z</time></trkpt><trkpt lat="43.62039772394344" lon="2.271052532095462"><ele>200.0</ele><time>2026-04-06T09:56:01Z</time></trkpt><trkpt lat="43.620545182399994" lon="2.271137894292004"><ele>198.66666666666669</ele><time>2026-04-06T09:56:02Z</time></trkpt><trkpt lat="43.620686080718" lon="2.271239859543429"><ele>197.33333333333331</ele><time>2026-04-06T09:56:03Z</time></trkpt><trkpt lat="43.62080444531956" lon="2.271374868715516"><ele>196.0</ele><time>2026-04-06T09:56:04Z</time></trkpt><trkpt lat="43.62089824313124" lon="2.271522589730301"><ele>198.20000000000002</ele><time>2026-04-06T09:56:05Z</time></trkpt><trkpt lat="43.620964052485974" lon="2.271662939421467"><ele>200.4</ele><time>2026-04-06T09:56:06Z</time></trkpt><trkpt lat="43.62100903465145" lon="2.271782074450527"><ele>202.6</ele><time>2026-04-06T09:56:07Z</time></trkpt><trkpt lat="43.621046860680586" lon="2.2718915886800204"><ele>204.8</ele><time>2026-04-06T09:56:08Z</time></trkpt><trkpt lat="43.62107991203117" lon="2.2719943412924546"><ele>207.0</ele><time>2026-04-06T09:56:09Z</time></trkpt><trkpt lat="43.62111401030075" lon="2.272098194878458"><ele>206.39999999999998</ele><time>2026-04-06T09:56:10Z</time></trkpt><trkpt lat="43.6211504273378" lon="2.2722082119099576"><ele>205.79999999999998</ele><time>2026-04-06T09:56:10.999Z</time></trkpt><trkpt lat="43.62119078772167" lon="2.2723218780084724"><ele>205.2</ele><time>2026-04-06T09:56:11.999Z</time></trkpt><trkpt lat="43.62122561817918" lon="2.2724433808535864"><ele>204.6</ele><time>2026-04-06T09:56:12.999Z</time></trkpt><trkpt lat="43.62126339762735" lon="2.2725593144965717"><ele>204.0</ele><time>2026-04-06T09:56:13.999Z</time></trkpt><trkpt lat="43.6212999963659" lon="2.2726767178615277"><ele>205.2</ele><time>2026-04-06T09:56:14.999Z</time></trkpt><trkpt lat="43.621334721872174" lon="2.272785504954251"><ele>206.39999999999998</ele><time>2026-04-06T09:56:15.999Z</time></trkpt><trkpt lat="43.62137304170702" lon="2.2729004680258464"><ele>207.6</ele><time>2026-04-06T09:56:16.999Z</time></trkpt><trkpt lat="43.62141503123268" lon="2.273029685787127"><ele>208.8</ele><time>2026-04-06T09:56:17.999Z</time></trkpt><trkpt lat="43.62144481556388" lon="2.273174562943768"><ele>210.0</ele><time>2026-04-06T09:56:19Z</time></trkpt><trkpt lat="43.62146970258167" lon="2.273331915607721"><ele>210.0</ele><time>2026-04-06T09:56:20Z</time></trkpt><trkpt lat="43.621486872143024" lon="2.2735017903433707"><ele>210.0</ele><time>2026-04-06T09:56:21Z</time></trkpt><trkpt lat="43.62149365527779" lon="2.2736723299830395"><ele>210.0</ele><time>2026-04-06T09:56:22Z</time></trkpt><trkpt lat="43.62149095152915" lon="2.2738591866664453"><ele>210.0</ele><time>2026-04-06T09:56:23Z</time></trkpt><trkpt lat="43.6214889475577" lon="2.2740686755372566"><ele>210.0</ele><time>2026-04-06T09:56:24Z</time></trkpt><trkpt lat="43.6214868686254" lon="2.2742848598330028"><ele>210.0</ele><time>2026-04-06T09:56:25Z</time></trkpt><trkpt lat="43.621476353132664" lon="2.274502345199024"><ele>210.0</ele><time>2026-04-06T09:56:26Z</time></trkpt><trkpt lat="43.6214666160314" lon="2.2747288726264503"><ele>210.0</ele><time>2026-04-06T09:56:27Z</time></trkpt><trkpt lat="43.62145203417316" lon="2.2749607374994385"><ele>210.0</ele><time>2026-04-06T09:56:28Z</time></trkpt><trkpt lat="43.621440690127365" lon="2.2751983660778206"><ele>210.0</ele><time>2026-04-06T09:56:29Z</time></trkpt><trkpt lat="43.62142829806882" lon="2.275432491998646"><ele>209.66666666666669</ele><time>2026-04-06T09:56:30Z</time></trkpt><trkpt lat="43.621412045914425" lon="2.275662438007134"><ele>209.33333333333334</ele><time>2026-04-06T09:56:31Z</time></trkpt><trkpt lat="43.621398587763636" lon="2.275885168394418"><ele>209.0</ele><time>2026-04-06T09:56:32Z</time></trkpt><trkpt lat="43.621389216531355" lon="2.2760942504145762"><ele>209.0</ele><time>2026-04-06T09:56:33Z</time></trkpt><trkpt lat="43.621382340578734" lon="2.2763030690772625"><ele>209.0</ele><time>2026-04-06T09:56:34Z</time></trkpt><trkpt lat="43.621354585357025" lon="2.2765234126077187"><ele>209.0</ele><time>2026-04-06T09:56:35Z</time></trkpt><trkpt lat="43.621353662449685" lon="2.276752386915604"><ele>208.25</ele><time>2026-04-06T09:56:36Z</time></trkpt><trkpt lat="43.621346997082846" lon="2.2769568650099297"><ele>207.5</ele><time>2026-04-06T09:56:37Z</time></trkpt><trkpt lat="43.62133625280952" lon="2.2771563732537916"><ele>206.75</ele><time>2026-04-06T09:56:38Z</time></trkpt><trkpt lat="43.62132868584111" lon="2.277356271738807"><ele>206.0</ele><time>2026-04-06T09:56:39Z</time></trkpt><trkpt lat="43.62132168337074" lon="2.277559168143935"><ele>206.0</ele><time>2026-04-06T09:56:40Z</time></trkpt><trkpt lat="43.621313266655015" lon="2.2777604724843092"><ele>206.0</ele><time>2026-04-06T09:56:41Z</time></trkpt><trkpt lat="43.62130347792224" lon="2.2779580106447694"><ele>206.0</ele><time>2026-04-06T09:56:42Z</time></trkpt><trkpt lat="43.62129304141854" lon="2.278156466875619"><ele>206.0</ele><time>2026-04-06T09:56:43Z</time></trkpt><trkpt lat="43.62128343306524" lon="2.2783557081483807"><ele>206.0</ele><time>2026-04-06T09:56:44Z</time></trkpt><trkpt lat="43.62127634620054" lon="2.2785604423632027"><ele>206.0</ele><time>2026-04-06T09:56:45Z</time></trkpt><trkpt lat="43.621267852385486" lon="2.2787709781495513"><ele>206.0</ele><time>2026-04-06T09:56:46Z</time></trkpt><trkpt lat="43.62125836891116" lon="2.278984357131568"><ele>206.0</ele><time>2026-04-06T09:56:47Z</time></trkpt><trkpt lat="43.62125000241535" lon="2.27919806841473"><ele>206.0</ele><time>2026-04-06T09:56:48Z</time></trkpt><trkpt lat="43.62123914313652" lon="2.279410305495507"><ele>206.0</ele><time>2026-04-06T09:56:49Z</time></trkpt><trkpt lat="43.621231616637644" lon="2.27962701578011"><ele>206.33333333333334</ele><time>2026-04-06T09:56:50Z</time></trkpt><trkpt lat="43.62121748153104" lon="2.279868868496973"><ele>206.66666666666669</ele><time>2026-04-06T09:56:51Z</time></trkpt><trkpt lat="43.62121073025681" lon="2.2800894971410024"><ele>207.0</ele><time>2026-04-06T09:56:52Z</time></trkpt><trkpt lat="43.62119912941927" lon="2.2802947482093225"><ele>207.0</ele><time>2026-04-06T09:56:53Z</time></trkpt><trkpt lat="43.621184873289344" lon="2.280495689219283"><ele>207.0</ele><time>2026-04-06T09:56:54Z</time></trkpt><trkpt lat="43.621175748022274" lon="2.2806895614157665"><ele>207.0</ele><time>2026-04-06T09:56:55Z</time></trkpt><trkpt lat="43.621165921615535" lon="2.280878921961972"><ele>207.0</ele><time>2026-04-06T09:56:56Z</time></trkpt><trkpt lat="43.621156466510556" lon="2.281069383096719"><ele>207.25</ele><time>2026-04-06T09:56:57Z</time></trkpt><trkpt lat="43.62115031664462" lon="2.2812632752496036"><ele>207.5</ele><time>2026-04-06T09:56:58Z</time></trkpt><trkpt lat="43.62114349583464" lon="2.281454725413697"><ele>207.75</ele><time>2026-04-06T09:56:59Z</time></trkpt><trkpt lat="43.62114077806151" lon="2.2816530637870374"><ele>208.0</ele><time>2026-04-06T09:57:00Z</time></trkpt><trkpt lat="43.62113194938608" lon="2.281859020477194"><ele>208.33333333333331</ele><time>2026-04-06T09:57:01Z</time></trkpt><trkpt lat="43.62113334765655" lon="2.28207830459719"><ele>208.66666666666669</ele><time>2026-04-06T09:57:02Z</time></trkpt><trkpt lat="43.62113162402255" lon="2.2823061266311666"><ele>209.0</ele><time>2026-04-06T09:57:03Z</time></trkpt><trkpt lat="43.621122072385745" lon="2.2825423489970884"><ele>209.0</ele><time>2026-04-06T09:57:04Z</time></trkpt><trkpt lat="43.621101761005235" lon="2.282779847203022"><ele>209.0</ele><time>2026-04-06T09:57:05Z</time></trkpt><trkpt lat="43.621085516344394" lon="2.2830216972244926"><ele>209.0</ele><time>2026-04-06T09:57:06Z</time></trkpt><trkpt lat="43.62107370190229" lon="2.2832616517554833"><ele>209.0</ele><time>2026-04-06T09:57:07Z</time></trkpt><trkpt lat="43.62106217902559" lon="2.2834978495663494"><ele>209.0</ele><time>2026-04-06T09:57:08Z</time></trkpt><trkpt lat="43.621048652647495" lon="2.283728833832635"><ele>209.0</ele><time>2026-04-06T09:57:09Z</time></trkpt><trkpt lat="43.621034647996254" lon="2.2839583952017897"><ele>208.66666666666669</ele><time>2026-04-06T09:57:10Z</time></trkpt><trkpt lat="43.62102279012117" lon="2.2841881916916043"><ele>208.33333333333331</ele><time>2026-04-06T09:57:11Z</time></trkpt><trkpt lat="43.62101311191693" lon="2.2844159371645594"><ele>208.0</ele><time>2026-04-06T09:57:12Z</time></trkpt><trkpt lat="43.62100224406255" lon="2.2846447792937465"><ele>208.0</ele><time>2026-04-06T09:57:13Z</time></trkpt><trkpt lat="43.62098930429284" lon="2.2848716169298093"><ele>208.0</ele><time>2026-04-06T09:57:14Z</time></trkpt><trkpt lat="43.62097852881237" lon="2.285087047661295"><ele>208.0</ele><time>2026-04-06T09:57:15Z</time></trkpt><trkpt lat="43.62096820706373" lon="2.2852982817648666"><ele>208.0</ele><time>2026-04-06T09:57:16Z</time></trkpt><trkpt lat="43.620956164762525" lon="2.285504815802849"><ele>208.0</ele><time>2026-04-06T09:57:17Z</time></trkpt><trkpt lat="43.62094349305622" lon="2.2857036566405946"><ele>208.0</ele><time>2026-04-06T09:57:18Z</time></trkpt><trkpt lat="43.62093390278091" lon="2.2858952047445946"><ele>208.0</ele><time>2026-04-06T09:57:19Z</time></trkpt><trkpt lat="43.62092987269556" lon="2.2860741496177273"><ele>208.0</ele><time>2026-04-06T09:57:20Z</time></trkpt><trkpt lat="43.62091599005482" lon="2.286252550060273"><ele>208.0</ele><time>2026-04-06T09:57:21Z</time></trkpt><trkpt lat="43.6209285818846" lon="2.2864289181616138"><ele>208.0</ele><time>2026-04-06T09:57:22Z</time></trkpt><trkpt lat="43.62094370436674" lon="2.286590142846"><ele>208.0</ele><time>2026-04-06T09:57:23Z</time></trkpt><trkpt lat="43.62095936591688" lon="2.286769106824696"><ele>207.25</ele><time>2026-04-06T09:57:24Z</time></trkpt><trkpt lat="43.62099190343141" lon="2.2869481311464823"><ele>206.5</ele><time>2026-04-06T09:57:25Z</time></trkpt><trkpt lat="43.62102654916139" lon="2.2871360104615404"><ele>205.75</ele><time>2026-04-06T09:57:26Z</time></trkpt><trkpt lat="43.62106546209274" lon="2.2873274773185757"><ele>205.0</ele><time>2026-04-06T09:57:27Z</time></trkpt><trkpt lat="43.62111173301781" lon="2.2875249691792217"><ele>203.66666666666666</ele><time>2026-04-06T09:57:28Z</time></trkpt><trkpt lat="43.62116877681604" lon="2.287731322155348"><ele>202.33333333333331</ele><time>2026-04-06T09:57:29Z</time></trkpt><trkpt lat="43.6212284693731" lon="2.2879334730758503"><ele>201.0</ele><time>2026-04-06T09:57:30Z</time></trkpt><trkpt lat="43.62129376167086" lon="2.288154782321267"><ele>201.0</ele><time>2026-04-06T09:57:31Z</time></trkpt><trkpt lat="43.62136139445977" lon="2.2883882446115456"><ele>201.0</ele><time>2026-04-06T09:57:32Z</time></trkpt><trkpt lat="43.62143398719535" lon="2.2886383506735144"><ele>201.0</ele><time>2026-04-06T09:57:33Z</time></trkpt><trkpt lat="43.62150688917834" lon="2.2888801935091427"><ele>201.33333333333331</ele><time>2026-04-06T09:57:34Z</time></trkpt><trkpt lat="43.62158498978748" lon="2.289122832291062"><ele>201.66666666666666</ele><time>2026-04-06T09:57:35Z</time></trkpt><trkpt lat="43.621646635583474" lon="2.2893488992601934"><ele>202.0</ele><time>2026-04-06T09:57:36Z</time></trkpt><trkpt lat="43.6217158580117" lon="2.2895714585996365"><ele>202.0</ele><time>2026-04-06T09:57:37Z</time></trkpt><trkpt lat="43.621777408464844" lon="2.289787630409006"><ele>202.0</ele><time>2026-04-06T09:57:38Z</time></trkpt><trkpt lat="43.621830541408464" lon="2.2899993523896973"><ele>202.0</ele><time>2026-04-06T09:57:39Z</time></trkpt><trkpt lat="43.62188804116071" lon="2.29021308715445"><ele>202.0</ele><time>2026-04-06T09:57:40Z</time></trkpt><trkpt lat="43.6219422868425" lon="2.290430222092314"><ele>202.0</ele><time>2026-04-06T09:57:41Z</time></trkpt><trkpt lat="43.62197951648851" lon="2.2906653616316075"><ele>202.0</ele><time>2026-04-06T09:57:42Z</time></trkpt><trkpt lat="43.621982100517954" lon="2.2909029022547656"><ele>202.66666666666666</ele><time>2026-04-06T09:57:43Z</time></trkpt><trkpt lat="43.62194884645099" lon="2.2911283431257123"><ele>203.33333333333331</ele><time>2026-04-06T09:57:44Z</time></trkpt><trkpt lat="43.6219141537829" lon="2.291354343163945"><ele>204.0</ele><time>2026-04-06T09:57:45Z</time></trkpt><trkpt lat="43.62187921234199" lon="2.2915785809389804"><ele>205.0</ele><time>2026-04-06T09:57:46Z</time></trkpt><trkpt lat="43.621855795947376" lon="2.2918244544782294"><ele>206.0</ele><time>2026-04-06T09:57:47Z</time></trkpt><trkpt lat="43.621878716173136" lon="2.2920777659641547"><ele>207.0</ele><time>2026-04-06T09:57:48Z</time></trkpt><trkpt lat="43.621921688879915" lon="2.2923339129511846"><ele>208.0</ele><time>2026-04-06T09:57:49Z</time></trkpt><trkpt lat="43.62197733327079" lon="2.2925838796998432"><ele>209.0</ele><time>2026-04-06T09:57:50.001Z</time></trkpt><trkpt lat="43.62204735613487" lon="2.292852092737778"><ele>210.0</ele><time>2026-04-06T09:57:51.001Z</time></trkpt><trkpt lat="43.62213252308033" lon="2.2931333595024856"><ele>220.0</ele><time>2026-04-06T09:57:52.001Z</time></trkpt><trkpt lat="43.62221509446522" lon="2.2934298203342065"><ele>230.0</ele><time>2026-04-06T09:57:53.001Z</time></trkpt><trkpt lat="43.62231209277764" lon="2.29374822563011"><ele>231.0</ele><time>2026-04-06T09:57:54.001Z</time></trkpt><trkpt lat="43.62239096903816" lon="2.2940862831101514"><ele>232.0</ele><time>2026-04-06T09:57:55.001Z</time></trkpt><trkpt lat="43.622460432430366" lon="2.294448410840598"><ele>231.5</ele><time>2026-04-06T09:57:56.001Z</time></trkpt><trkpt lat="43.622511975652635" lon="2.294818162085638"><ele>231.0</ele><time>2026-04-06T09:57:57.001Z</time></trkpt><trkpt lat="43.62254910262863" lon="2.295223556241638"><ele>232.0</ele><time>2026-04-06T09:57:58.001Z</time></trkpt><trkpt lat="43.622578646282264" lon="2.2956474661906547"><ele>233.0</ele><time>2026-04-06T09:57:59.001Z</time></trkpt><trkpt lat="43.622602300091636" lon="2.296075732900144"><ele>234.5</ele><time>2026-04-06T09:58:00.001Z</time></trkpt><trkpt lat="43.62263439184308" lon="2.2964975058456685"><ele>236.0</ele><time>2026-04-06T09:58:01.001Z</time></trkpt><trkpt lat="43.62267148759409" lon="2.2969116505795557"><ele>237.5</ele><time>2026-04-06T09:58:02.001Z</time></trkpt><trkpt lat="43.62270273277204" lon="2.2973183441439993"><ele>239.0</ele><time>2026-04-06T09:58:03.001Z</time></trkpt><trkpt lat="43.62273557658881" lon="2.297717324017876"><ele>241.0</ele><time>2026-04-06T09:58:04.001Z</time></trkpt><trkpt lat="43.62277471762376" lon="2.2981200170428253"><ele>243.0</ele><time>2026-04-06T09:58:05.001Z</time></trkpt><trkpt lat="43.62278453942576" lon="2.298527057667696"><ele>246.5</ele><time>2026-04-06T09:58:06.001Z</time></trkpt><trkpt lat="43.622796897885756" lon="2.2989440859755423"><ele>250.0</ele><time>2026-04-06T09:58:07.001Z</time></trkpt><trkpt lat="43.62280461630892" lon="2.2993556489306926"><ele>253.5</ele><time>2026-04-06T09:58:08.001Z</time></trkpt><trkpt lat="43.62280069281785" lon="2.2997888260877906"><ele>257.0</ele><time>2026-04-06T09:58:09.001Z</time></trkpt><trkpt lat="43.62277209305073" lon="2.3001782228843592"><ele>257.0</ele><time>2026-04-06T09:58:10.001Z</time></trkpt><trkpt lat="43.622772521017986" lon="2.300569677590983"><ele>257.0</ele><time>2026-04-06T09:58:11.001Z</time></trkpt><trkpt lat="43.62276895727595" lon="2.300948126487972"><ele>260.0</ele><time>2026-04-06T09:58:12.001Z</time></trkpt><trkpt lat="43.6227613826574" lon="2.3013345210039273"><ele>263.0</ele><time>2026-04-06T09:58:13.001Z</time></trkpt><trkpt lat="43.622748999912794" lon="2.3017090107219675"><ele>267.0</ele><time>2026-04-06T09:58:14.001Z</time></trkpt><trkpt lat="43.62275829705316" lon="2.3020813587815163"><ele>271.0</ele><time>2026-04-06T09:58:15.001Z</time></trkpt><trkpt lat="43.62278010726698" lon="2.3024351891670296"><ele>282.5</ele><time>2026-04-06T09:58:16.001Z</time></trkpt><trkpt lat="43.62282012755648" lon="2.302756003639638"><ele>294.0</ele><time>2026-04-06T09:58:17Z</time></trkpt><trkpt lat="43.62286591569282" lon="2.3030623683155405"><ele>294.3333333333333</ele><time>2026-04-06T09:58:18Z</time></trkpt><trkpt lat="43.62290604919294" lon="2.303349327629052"><ele>294.66666666666663</ele><time>2026-04-06T09:58:19Z</time></trkpt><trkpt lat="43.62292409316057" lon="2.303656111121764"><ele>295.0</ele><time>2026-04-06T09:58:20Z</time></trkpt><trkpt lat="43.622895559163226" lon="2.3039509062720636"><ele>295.66666666666663</ele><time>2026-04-06T09:58:21Z</time></trkpt><trkpt lat="43.62283088938573" lon="2.3042439224975046"><ele>296.3333333333333</ele><time>2026-04-06T09:58:22Z</time></trkpt><trkpt lat="43.62274012208631" lon="2.304514928570011"><ele>297.0</ele><time>2026-04-06T09:58:23Z</time></trkpt><trkpt lat="43.62261372623628" lon="2.3047754572978905"><ele>297.0</ele><time>2026-04-06T09:58:24Z</time></trkpt><trkpt lat="43.62245604121236" lon="2.3050000065816216"><ele>297.0</ele><time>2026-04-06T09:58:25Z</time></trkpt><trkpt lat="43.622301440916836" lon="2.305188066512687"><ele>297.0</ele><time>2026-04-06T09:58:26Z</time></trkpt><trkpt lat="43.62214861552435" lon="2.305363716805164"><ele>297.3333333333333</ele><time>2026-04-06T09:58:27Z</time></trkpt><trkpt lat="43.62201194595736" lon="2.3055846930651334"><ele>297.66666666666663</ele><time>2026-04-06T09:58:28Z</time></trkpt><trkpt lat="43.62190484455399" lon="2.3058655467868947"><ele>298.0</ele><time>2026-04-06T09:58:29Z</time></trkpt><trkpt lat="43.62182275917598" lon="2.306184131268835"><ele>300.0</ele><time>2026-04-06T09:58:30Z</time></trkpt><trkpt lat="43.62177389100991" lon="2.306529684927781"><ele>302.0</ele><time>2026-04-06T09:58:31Z</time></trkpt><trkpt lat="43.62175795848746" lon="2.306841691985631"><ele>302.0</ele><time>2026-04-06T09:58:32Z</time></trkpt><trkpt lat="43.62171510563115" lon="2.307181786773347"><ele>302.0</ele><time>2026-04-06T09:58:33Z</time></trkpt><trkpt lat="43.62166770225382" lon="2.3075221317262136"><ele>302.5</ele><time>2026-04-06T09:58:34Z</time></trkpt><trkpt lat="43.6216341843631" lon="2.307859164161204"><ele>303.0</ele><time>2026-04-06T09:58:35Z</time></trkpt><trkpt lat="43.62160410379488" lon="2.3081858104329793"><ele>303.3333333333333</ele><time>2026-04-06T09:58:36Z</time></trkpt><trkpt lat="43.62158068545891" lon="2.30841744861757"><ele>303.66666666666663</ele><time>2026-04-06T09:58:37Z</time></trkpt><trkpt lat="43.621552407916624" lon="2.308689372785649"><ele>304.0</ele><time>2026-04-06T09:58:38Z</time></trkpt><trkpt lat="43.62153063456206" lon="2.3089489248196977"><ele>304.66666666666663</ele><time>2026-04-06T09:58:39Z</time></trkpt><trkpt lat="43.62149997573377" lon="2.3091925898726267"><ele>305.3333333333333</ele><time>2026-04-06T09:58:40Z</time></trkpt><trkpt lat="43.621467808953774" lon="2.3094456676395945"><ele>306.0</ele><time>2026-04-06T09:58:41Z</time></trkpt><trkpt lat="43.62144220097407" lon="2.3097101038230683"><ele>307.3333333333333</ele><time>2026-04-06T09:58:42Z</time></trkpt><trkpt lat="43.62141767416804" lon="2.309965122344014"><ele>308.66666666666663</ele><time>2026-04-06T09:58:43Z</time></trkpt><trkpt lat="43.621398264364004" lon="2.3101972876567154"><ele>310.0</ele><time>2026-04-06T09:58:44Z</time></trkpt><trkpt lat="43.62137587038499" lon="2.3104216613165054"><ele>310.66666666666663</ele><time>2026-04-06T09:58:45Z</time></trkpt><trkpt lat="43.6213518219453" lon="2.3106308123971324"><ele>311.3333333333333</ele><time>2026-04-06T09:58:46Z</time></trkpt><trkpt lat="43.621322498929" lon="2.310850424301851"><ele>312.0</ele><time>2026-04-06T09:58:47Z</time></trkpt><trkpt lat="43.62131147531195" lon="2.31107441759411"><ele>312.0</ele><time>2026-04-06T09:58:48Z</time></trkpt><trkpt lat="43.6213025650197" lon="2.3112827148594395"><ele>312.0</ele><time>2026-04-06T09:58:49Z</time></trkpt><trkpt lat="43.62129256725892" lon="2.311486493636555"><ele>312.0</ele><time>2026-04-06T09:58:50Z</time></trkpt><trkpt lat="43.62129242658655" lon="2.3116784901280667"><ele>312.0</ele><time>2026-04-06T09:58:51Z</time></trkpt><trkpt lat="43.62129181817722" lon="2.3118794390962436"><ele>312.3333333333333</ele><time>2026-04-06T09:58:52Z</time></trkpt><trkpt lat="43.621226631135805" lon="2.3121931321084084"><ele>312.66666666666663</ele><time>2026-04-06T09:58:53Z</time></trkpt><trkpt lat="43.62123312226063" lon="2.312427699740672"><ele>313.0</ele><time>2026-04-06T09:58:54Z</time></trkpt><trkpt lat="43.62125290675882" lon="2.31269221351285"><ele>314.3333333333333</ele><time>2026-04-06T09:58:55Z</time></trkpt><trkpt lat="43.62129553315184" lon="2.3129540224166516"><ele>315.6666666666667</ele><time>2026-04-06T09:58:56Z</time></trkpt><trkpt lat="43.62134718562177" lon="2.3132227739899798"><ele>317.0</ele><time>2026-04-06T09:58:57Z</time></trkpt><trkpt lat="43.6214346264675" lon="2.313488751238922"><ele>318.33333333333337</ele><time>2026-04-06T09:58:58Z</time></trkpt><trkpt lat="43.621544581862146" lon="2.3137520348143426"><ele>319.6666666666667</ele><time>2026-04-06T09:58:59Z</time></trkpt><trkpt lat="43.62166974089242" lon="2.3140057738115556"><ele>321.0</ele><time>2026-04-06T09:59:00Z</time></trkpt><trkpt lat="43.621827190630704" lon="2.314259932202337"><ele>329.0</ele><time>2026-04-06T09:59:01Z</time></trkpt><trkpt lat="43.621998303688635" lon="2.3145168360558324"><ele>337.0</ele><time>2026-04-06T09:59:02Z</time></trkpt><trkpt lat="43.62218585414613" lon="2.3147747028372323"><ele>338.0</ele><time>2026-04-06T09:59:03Z</time></trkpt><trkpt lat="43.622368714102" lon="2.3150259062014897"><ele>339.0</ele><time>2026-04-06T09:59:04Z</time></trkpt><trkpt lat="43.622537478273976" lon="2.315270771068935"><ele>339.0</ele><time>2026-04-06T09:59:05Z</time></trkpt><trkpt lat="43.622669620233275" lon="2.3155281676719284"><ele>339.0</ele><time>2026-04-06T09:59:06Z</time></trkpt><trkpt lat="43.6227663710432" lon="2.315823069770821"><ele>350.5</ele><time>2026-04-06T09:59:07Z</time></trkpt><trkpt lat="43.6228543798383" lon="2.3161224711754222"><ele>362.0</ele><time>2026-04-06T09:59:08Z</time></trkpt><trkpt lat="43.62291891886251" lon="2.316427114200883"><ele>363.5</ele><time>2026-04-06T09:59:09Z</time></trkpt><trkpt lat="43.62297647091918" lon="2.316768687188579"><ele>365.0</ele><time>2026-04-06T09:59:10Z</time></trkpt><trkpt lat="43.62305287147891" lon="2.3171476616831104"><ele>365.0</ele><time>2026-04-06T09:59:11Z</time></trkpt><trkpt lat="43.623101530851294" lon="2.317472927179129"><ele>365.0</ele><time>2026-04-06T09:59:12Z</time></trkpt><trkpt lat="43.62315271570273" lon="2.317779049526925"><ele>365.0</ele><time>2026-04-06T09:59:13Z</time></trkpt><trkpt lat="43.62320718119241" lon="2.318060625997564"><ele>365.0</ele><time>2026-04-06T09:59:14.001Z</time></trkpt><trkpt lat="43.6232349104569" lon="2.3183329987442933"><ele>365.0</ele><time>2026-04-06T09:59:15.001Z</time></trkpt><trkpt lat="43.623255224959806" lon="2.318603678987913"><ele>366.0</ele><time>2026-04-06T09:59:16.001Z</time></trkpt><trkpt lat="43.62328274142649" lon="2.318867200068855"><ele>367.0</ele><time>2026-04-06T09:59:17.001Z</time></trkpt><trkpt lat="43.62331198638799" lon="2.3191105731939388"><ele>368.0</ele><time>2026-04-06T09:59:18.001Z</time></trkpt><trkpt lat="43.62334386740165" lon="2.319328492271741"><ele>369.0</ele><time>2026-04-06T09:59:19.001Z</time></trkpt><trkpt lat="43.62336614477902" lon="2.3195527139601797"><ele>370.0</ele><time>2026-04-06T09:59:20.001Z</time></trkpt><trkpt lat="43.62339528664571" lon="2.3197604888507404"><ele>371.0</ele><time>2026-04-06T09:59:21.001Z</time></trkpt><trkpt lat="43.62343109792306" lon="2.319947123866977"><ele>372.25</ele><time>2026-04-06T09:59:22.001Z</time></trkpt><trkpt lat="43.6234613799555" lon="2.320109005315543"><ele>373.5</ele><time>2026-04-06T09:59:23.001Z</time></trkpt><trkpt lat="43.62348507063861" lon="2.320268484490553"><ele>374.75</ele><time>2026-04-06T09:59:24.001Z</time></trkpt><trkpt lat="43.623479008596405" lon="2.3204413257140315"><ele>376.0</ele><time>2026-04-06T09:59:25.001Z</time></trkpt><trkpt lat="43.623467579511185" lon="2.320609798495327"><ele>378.0</ele><time>2026-04-06T09:59:26.001Z</time></trkpt><trkpt lat="43.623512606360556" lon="2.3207834956562765"><ele>380.0</ele><time>2026-04-06T09:59:27.001Z</time></trkpt><trkpt lat="43.62358722805149" lon="2.3209770080918037"><ele>382.0</ele><time>2026-04-06T09:59:28.001Z</time></trkpt><trkpt lat="43.62361851222167" lon="2.321208659498848"><ele>384.0</ele><time>2026-04-06T09:59:29.001Z</time></trkpt><trkpt lat="43.62359104056138" lon="2.321475704369817"><ele>386.0</ele><time>2026-04-06T09:59:30.001Z</time></trkpt><trkpt lat="43.623547917323855" lon="2.3217725294908504"><ele>388.0</ele><time>2026-04-06T09:59:31.001Z</time></trkpt><trkpt lat="43.623491810473546" lon="2.3220862839899543"><ele>389.0</ele><time>2026-04-06T09:59:32.001Z</time></trkpt><trkpt lat="43.62343393237547" lon="2.322398835552892"><ele>390.0</ele><time>2026-04-06T09:59:33.001Z</time></trkpt><trkpt lat="43.6234074704318" lon="2.322728635091831"><ele>390.5</ele><time>2026-04-06T09:59:34.001Z</time></trkpt><trkpt lat="43.623421796252444" lon="2.323088878847207"><ele>391.0</ele><time>2026-04-06T09:59:35.001Z</time></trkpt><trkpt lat="43.62348929629176" lon="2.3234277114959183"><ele>391.0</ele><time>2026-04-06T09:59:36.001Z</time></trkpt><trkpt lat="43.62358528901321" lon="2.323757333464447"><ele>391.0</ele><time>2026-04-06T09:59:37.001Z</time></trkpt><trkpt lat="43.62372344596995" lon="2.3240676740795903"><ele>388.5</ele><time>2026-04-06T09:59:38.001Z</time></trkpt><trkpt lat="43.623892365064414" lon="2.3243599920903146"><ele>386.0</ele><time>2026-04-06T09:59:39.001Z</time></trkpt><trkpt lat="43.62404280269838" lon="2.32465203603745"><ele>390.5</ele><time>2026-04-06T09:59:40.001Z</time></trkpt><trkpt lat="43.62418586240004" lon="2.3249444810911992"><ele>395.0</ele><time>2026-04-06T09:59:41.001Z</time></trkpt><trkpt lat="43.62432626579817" lon="2.325225317130744"><ele>395.0</ele><time>2026-04-06T09:59:42.001Z</time></trkpt><trkpt lat="43.62445214718422" lon="2.32549926020461"><ele>395.0</ele><time>2026-04-06T09:59:43.001Z</time></trkpt><trkpt lat="43.62455786405304" lon="2.3257628236961563"><ele>397.3333333333333</ele><time>2026-04-06T09:59:44.001Z</time></trkpt><trkpt lat="43.62465069154037" lon="2.3260182032558516"><ele>399.66666666666663</ele><time>2026-04-06T09:59:45.001Z</time></trkpt><trkpt lat="43.62473098160721" lon="2.3262581821044903"><ele>402.0</ele><time>2026-04-06T09:59:46.001Z</time></trkpt><trkpt lat="43.62479952662409" lon="2.326475389735406"><ele>404.25</ele><time>2026-04-06T09:59:47.001Z</time></trkpt><trkpt lat="43.62486577553305" lon="2.3266687003436823"><ele>406.5</ele><time>2026-04-06T09:59:48.001Z</time></trkpt><trkpt lat="43.6249325877156" lon="2.326839540751003"><ele>408.75</ele><time>2026-04-06T09:59:49.001Z</time></trkpt><trkpt lat="43.62499093274447" lon="2.3269759179990954"><ele>411.0</ele><time>2026-04-06T09:59:50.001Z</time></trkpt><trkpt lat="43.62503605566371" lon="2.3270937375461034"><ele>411.0</ele><time>2026-04-06T09:59:51.001Z</time></trkpt><trkpt lat="43.62509766428708" lon="2.327204036105812"><ele>411.0</ele><time>2026-04-06T09:59:52.001Z</time></trkpt><trkpt lat="43.625120405542866" lon="2.3273160291491313"><ele>411.0</ele><time>2026-04-06T09:59:53.001Z</time></trkpt><trkpt lat="43.625128080921755" lon="2.3274572560394047"><ele>411.0</ele><time>2026-04-06T09:59:54.001Z</time></trkpt><trkpt lat="43.625298760027405" lon="2.3276058541946436"><ele>415.66666666666663</ele><time>2026-04-06T09:59:56.001Z</time></trkpt><trkpt lat="43.62546714415478" lon="2.327616426142372"><ele>420.3333333333333</ele><time>2026-04-06T09:59:57.001Z</time></trkpt><trkpt lat="43.62561483045296" lon="2.327652023415721"><ele>425.0</ele><time>2026-04-06T09:59:58.001Z</time></trkpt><trkpt lat="43.62577487245915" lon="2.327776496309236"><ele>425.0</ele><time>2026-04-06T09:59:59.001Z</time></trkpt><trkpt lat="43.62594313036421" lon="2.3278875935512007"><ele>425.0</ele><time>2026-04-06T10:00:00.001Z</time></trkpt><trkpt lat="43.626121943463254" lon="2.328009030670657"><ele>425.0</ele><time>2026-04-06T10:00:01.001Z</time></trkpt><trkpt lat="43.62630473358656" lon="2.328154972690224"><ele>427.66666666666663</ele><time>2026-04-06T10:00:02.001Z</time></trkpt><trkpt lat="43.626483196061265" lon="2.328334672855393"><ele>430.33333333333337</ele><time>2026-04-06T10:00:03.001Z</time></trkpt><trkpt lat="43.62665676795519" lon="2.328533261114701"><ele>433.0</ele><time>2026-04-06T10:00:04.001Z</time></trkpt><trkpt lat="43.62683877079375" lon="2.3287391269326365"><ele>436.0</ele><time>2026-04-06T10:00:05.001Z</time></trkpt><trkpt lat="43.62701608761013" lon="2.3289329285848126"><ele>439.0</ele><time>2026-04-06T10:00:06.001Z</time></trkpt><trkpt lat="43.627178540868286" lon="2.329112178016381"><ele>442.0</ele><time>2026-04-06T10:00:07.001Z</time></trkpt><trkpt lat="43.62732432945627" lon="2.3292786726123578"><ele>442.0</ele><time>2026-04-06T10:00:08.001Z</time></trkpt><trkpt lat="43.627458435722524" lon="2.329432238001177"><ele>442.0</ele><time>2026-04-06T10:00:09.001Z</time></trkpt><trkpt lat="43.62757730259757" lon="2.329569870695787"><ele>442.0</ele><time>2026-04-06T10:00:10.001Z</time></trkpt><trkpt lat="43.627689749682915" lon="2.329700927022925"><ele>446.0</ele><time>2026-04-06T10:00:11.001Z</time></trkpt><trkpt lat="43.62808320562025" lon="2.330102577673675"><ele>446.0</ele><time>2026-04-06T10:00:12.001Z</time></trkpt><trkpt lat="43.62821874156439" lon="2.3303267756529196"><ele>446.0</ele><time>2026-04-06T10:00:13.001Z</time></trkpt><trkpt lat="43.628325497332526" lon="2.3305670561041265"><ele>446.0</ele><time>2026-04-06T10:00:14.001Z</time></trkpt><trkpt lat="43.62841129928348" lon="2.330831421393259"><ele>446.66666666666663</ele><time>2026-04-06T10:00:15.001Z</time></trkpt><trkpt lat="43.628482227127684" lon="2.33111602446491"><ele>447.33333333333337</ele><time>2026-04-06T10:00:16.001Z</time></trkpt><trkpt lat="43.62853289087879" lon="2.331401516442784"><ele>448.0</ele><time>2026-04-06T10:00:17.001Z</time></trkpt><trkpt lat="43.62857556473607" lon="2.3317305882120625"><ele>449.5</ele><time>2026-04-06T10:00:18.001Z</time></trkpt><trkpt lat="43.62861507875572" lon="2.3320600933536775"><ele>451.0</ele><time>2026-04-06T10:00:19.001Z</time></trkpt><trkpt lat="43.62864984322355" lon="2.3323699010201424"><ele>453.0</ele><time>2026-04-06T10:00:20.001Z</time></trkpt><trkpt lat="43.62868187200325" lon="2.332685012236867"><ele>455.0</ele><time>2026-04-06T10:00:21.001Z</time></trkpt><trkpt lat="43.62870120514071" lon="2.333021396491669"><ele>456.3333333333333</ele><time>2026-04-06T10:00:22.001Z</time></trkpt><trkpt lat="43.62870032773502" lon="2.333316384199524"><ele>457.66666666666663</ele><time>2026-04-06T10:00:23Z</time></trkpt><trkpt lat="43.62867811557833" lon="2.333613719635578"><ele>459.0</ele><time>2026-04-06T10:00:24Z</time></trkpt><trkpt lat="43.62863469562917" lon="2.3338993463898596"><ele>463.0</ele><time>2026-04-06T10:00:25Z</time></trkpt><trkpt lat="43.62857095292941" lon="2.334190100390142"><ele>467.0</ele><time>2026-04-06T10:00:26Z</time></trkpt><trkpt lat="43.628495972372235" lon="2.334488621138829"><ele>471.0</ele><time>2026-04-06T10:00:27Z</time></trkpt><trkpt lat="43.628416667786496" lon="2.33479220161776"><ele>473.0</ele><time>2026-04-06T10:00:28Z</time></trkpt><trkpt lat="43.62833704215869" lon="2.33512771441395"><ele>475.0</ele><time>2026-04-06T10:00:29Z</time></trkpt><trkpt lat="43.62828379327347" lon="2.3354617582729795"><ele>477.0</ele><time>2026-04-06T10:00:30Z</time></trkpt><trkpt lat="43.6282290960124" lon="2.3357775040879685"><ele>479.0</ele><time>2026-04-06T10:00:31Z</time></trkpt><trkpt lat="43.62822195564133" lon="2.3361135004241027"><ele>481.0</ele><time>2026-04-06T10:00:32Z</time></trkpt><trkpt lat="43.62824309105588" lon="2.3364373419835114"><ele>483.0</ele><time>2026-04-06T10:00:33Z</time></trkpt><trkpt lat="43.628263163804654" lon="2.3367571550489714"><ele>483.0</ele><time>2026-04-06T10:00:34Z</time></trkpt><trkpt lat="43.6283370091922" lon="2.337085171802874"><ele>483.0</ele><time>2026-04-06T10:00:35Z</time></trkpt><trkpt lat="43.628371885189566" lon="2.3374078022115063"><ele>485.5</ele><time>2026-04-06T10:00:36Z</time></trkpt><trkpt lat="43.62839572523896" lon="2.337729019988549"><ele>488.0</ele><time>2026-04-06T10:00:37Z</time></trkpt><trkpt lat="43.628401174024845" lon="2.3380457027388615"><ele>491.5</ele><time>2026-04-06T10:00:38Z</time></trkpt><trkpt lat="43.628382255721256" lon="2.338381321057777"><ele>495.0</ele><time>2026-04-06T10:00:39Z</time></trkpt><trkpt lat="43.62834954055129" lon="2.3387087331518894"><ele>495.5</ele><time>2026-04-06T10:00:40Z</time></trkpt><trkpt lat="43.628292409557325" lon="2.3390321006383887"><ele>496.0</ele><time>2026-04-06T10:00:41Z</time></trkpt><trkpt lat="43.62821363523637" lon="2.3393640396729243"><ele>496.0</ele><time>2026-04-06T10:00:42Z</time></trkpt><trkpt lat="43.62814342553259" lon="2.339686683704786"><ele>496.0</ele><time>2026-04-06T10:00:43Z</time></trkpt><trkpt lat="43.628069745835234" lon="2.340013403486149"><ele>497.0</ele><time>2026-04-06T10:00:44Z</time></trkpt><trkpt lat="43.62801466323064" lon="2.3403406043262636"><ele>498.0</ele><time>2026-04-06T10:00:45Z</time></trkpt><trkpt lat="43.62793527759877" lon="2.340656335785551"><ele>500.0</ele><time>2026-04-06T10:00:46Z</time></trkpt><trkpt lat="43.62787588329032" lon="2.3409764132147264"><ele>502.0</ele><time>2026-04-06T10:00:47Z</time></trkpt><trkpt lat="43.62793078703645" lon="2.3413496981933437"><ele>503.0</ele><time>2026-04-06T10:00:48Z</time></trkpt><trkpt lat="43.627913946671505" lon="2.3416886971950786"><ele>504.0</ele><time>2026-04-06T10:00:49Z</time></trkpt><trkpt lat="43.627899546912516" lon="2.3420322855775977"><ele>506.0</ele><time>2026-04-06T10:00:50Z</time></trkpt><trkpt lat="43.62788850031627" lon="2.342369039226903"><ele>508.0</ele><time>2026-04-06T10:00:51Z</time></trkpt><trkpt lat="43.627876194763786" lon="2.342704775340628"><ele>508.0</ele><time>2026-04-06T10:00:52Z</time></trkpt><trkpt lat="43.62786692454981" lon="2.3430120742873584"><ele>508.0</ele><time>2026-04-06T10:00:53Z</time></trkpt><trkpt lat="43.627846759692396" lon="2.3433393040252573"><ele>511.0</ele><time>2026-04-06T10:00:54Z</time></trkpt><trkpt lat="43.62782893023948" lon="2.3436646840367295"><ele>514.0</ele><time>2026-04-06T10:00:55Z</time></trkpt><trkpt lat="43.627789665934024" lon="2.3440026978569635"><ele>516.5</ele><time>2026-04-06T10:00:56Z</time></trkpt><trkpt lat="43.62772730617723" lon="2.344329840005957"><ele>519.0</ele><time>2026-04-06T10:00:57Z</time></trkpt><trkpt lat="43.62763999497279" lon="2.3446445387661017"><ele>520.5</ele><time>2026-04-06T10:00:58Z</time></trkpt><trkpt lat="43.62754777141144" lon="2.3449548498342763"><ele>522.0</ele><time>2026-04-06T10:00:59Z</time></trkpt><trkpt lat="43.627456466326684" lon="2.3452696478985278"><ele>522.0</ele><time>2026-04-06T10:01:00Z</time></trkpt><trkpt lat="43.627333884121725" lon="2.3455800660518893"><ele>522.0</ele><time>2026-04-06T10:01:01Z</time></trkpt><trkpt lat="43.627190464385855" lon="2.3458710854468205"><ele>522.0</ele><time>2026-04-06T10:01:02Z</time></trkpt><trkpt lat="43.627078410648664" lon="2.346181760108846"><ele>522.0</ele><time>2026-04-06T10:01:03Z</time></trkpt><trkpt lat="43.62697139454745" lon="2.346483137536391"><ele>528.5</ele><time>2026-04-06T10:01:04Z</time></trkpt><trkpt lat="43.62686546470835" lon="2.3467892969063167"><ele>535.0</ele><time>2026-04-06T10:01:05Z</time></trkpt><trkpt lat="43.626753345601735" lon="2.3470910133712346"><ele>535.0</ele><time>2026-04-06T10:01:06Z</time></trkpt><trkpt lat="43.62665151546533" lon="2.347398546090322"><ele>535.0</ele><time>2026-04-06T10:01:07Z</time></trkpt><trkpt lat="43.62656402820158" lon="2.347715240340199"><ele>535.0</ele><time>2026-04-06T10:01:08Z</time></trkpt><trkpt lat="43.62650588929946" lon="2.348041872987297"><ele>535.0</ele><time>2026-04-06T10:01:09Z</time></trkpt><trkpt lat="43.626488485677406" lon="2.3483922014383474"><ele>535.0</ele><time>2026-04-06T10:01:10Z</time></trkpt><trkpt lat="43.626473981485596" lon="2.3487321479110217"><ele>535.0</ele><time>2026-04-06T10:01:11Z</time></trkpt><trkpt lat="43.62652537922154" lon="2.349070437098586"><ele>536.5</ele><time>2026-04-06T10:01:12Z</time></trkpt><trkpt lat="43.626580779631176" lon="2.3494159784856303"><ele>538.0</ele><time>2026-04-06T10:01:13Z</time></trkpt><trkpt lat="43.62665453779362" lon="2.349748636632714"><ele>539.0</ele><time>2026-04-06T10:01:14Z</time></trkpt><trkpt lat="43.62673345327255" lon="2.350119685328778"><ele>540.0</ele><time>2026-04-06T10:01:15Z</time></trkpt><trkpt lat="43.62681859401508" lon="2.3504511399595334"><ele>540.0</ele><time>2026-04-06T10:01:16Z</time></trkpt><trkpt lat="43.62692754478005" lon="2.3507658529027293"><ele>540.0</ele><time>2026-04-06T10:01:17Z</time></trkpt><trkpt lat="43.62701572241208" lon="2.3510933418309072"><ele>539.5</ele><time>2026-04-06T10:01:18Z</time></trkpt><trkpt lat="43.62710123545775" lon="2.351412823548646"><ele>539.0</ele><time>2026-04-06T10:01:19Z</time></trkpt><trkpt lat="43.62718095901182" lon="2.3517405420529314"><ele>539.0</ele><time>2026-04-06T10:01:20Z</time></trkpt><trkpt lat="43.62726097950266" lon="2.3520561979221495"><ele>539.0</ele><time>2026-04-06T10:01:21Z</time></trkpt><trkpt lat="43.627354455010845" lon="2.352376297698246"><ele>540.5</ele><time>2026-04-06T10:01:22Z</time></trkpt><trkpt lat="43.62744146811438" lon="2.352689646341142"><ele>542.0</ele><time>2026-04-06T10:01:23Z</time></trkpt><trkpt lat="43.62752655152539" lon="2.353008760628752"><ele>542.0</ele><time>2026-04-06T10:01:24Z</time></trkpt><trkpt lat="43.62760566960642" lon="2.353333201834667"><ele>542.0</ele><time>2026-04-06T10:01:25Z</time></trkpt><trkpt lat="43.6276942750874" lon="2.353646013090447"><ele>545.0</ele><time>2026-04-06T10:01:26Z</time></trkpt><trkpt lat="43.62777299615811" lon="2.3539641080410645"><ele>548.0</ele><time>2026-04-06T10:01:27Z</time></trkpt><trkpt lat="43.627855444730734" lon="2.354268948886269"><ele>548.0</ele><time>2026-04-06T10:01:28Z</time></trkpt><trkpt lat="43.62793796657427" lon="2.3545677833949354"><ele>548.0</ele><time>2026-04-06T10:01:29Z</time></trkpt><trkpt lat="43.628023367989826" lon="2.354875207116922"><ele>551.5</ele><time>2026-04-06T10:01:30.001Z</time></trkpt><trkpt lat="43.62810178724961" lon="2.355190009139843"><ele>555.0</ele><time>2026-04-06T10:01:31.001Z</time></trkpt><trkpt lat="43.62817779653658" lon="2.3555273505468035"><ele>558.0</ele><time>2026-04-06T10:01:32.001Z</time></trkpt><trkpt lat="43.62825792355705" lon="2.3558262005948882"><ele>561.0</ele><time>2026-04-06T10:01:33.001Z</time></trkpt><trkpt lat="43.62832711461213" lon="2.35613728014456"><ele>565.0</ele><time>2026-04-06T10:01:34.001Z</time></trkpt><trkpt lat="43.628374735560975" lon="2.3564655574609326"><ele>569.0</ele><time>2026-04-06T10:01:35.001Z</time></trkpt><trkpt lat="43.62839607813685" lon="2.356812692717679"><ele>569.0</ele><time>2026-04-06T10:01:36.001Z</time></trkpt><trkpt lat="43.62840789370424" lon="2.3571570208404475"><ele>569.0</ele><time>2026-04-06T10:01:37.001Z</time></trkpt><trkpt lat="43.62841304311215" lon="2.3574943223512608"><ele>571.0</ele><time>2026-04-06T10:01:38.001Z</time></trkpt><trkpt lat="43.628408378910514" lon="2.3578182989249785"><ele>573.0</ele><time>2026-04-06T10:01:39.001Z</time></trkpt><trkpt lat="43.628335171631946" lon="2.358126913209974"><ele>573.0</ele><time>2026-04-06T10:01:40.001Z</time></trkpt><trkpt lat="43.62823278169586" lon="2.358436239088649"><ele>573.0</ele><time>2026-04-06T10:01:41.001Z</time></trkpt><trkpt lat="43.62812602412939" lon="2.3588314099495507"><ele>575.0</ele><time>2026-04-06T10:01:42.001Z</time></trkpt><trkpt lat="43.627972356082154" lon="2.3591826101889173"><ele>577.0</ele><time>2026-04-06T10:01:43.001Z</time></trkpt><trkpt lat="43.62786872983281" lon="2.3594996824085"><ele>576.0</ele><time>2026-04-06T10:01:44.001Z</time></trkpt><trkpt lat="43.62776585076547" lon="2.3598221967631723"><ele>575.0</ele><time>2026-04-06T10:01:45.001Z</time></trkpt><trkpt lat="43.62767894038456" lon="2.3601484853580756"><ele>575.0</ele><time>2026-04-06T10:01:46.001Z</time></trkpt><trkpt lat="43.62758552533479" lon="2.3604680191535627"><ele>575.0</ele><time>2026-04-06T10:01:47.001Z</time></trkpt><trkpt lat="43.6274993461964" lon="2.3607974745964158"><ele>578.0</ele><time>2026-04-06T10:01:48.001Z</time></trkpt><trkpt lat="43.62742877150262" lon="2.361139320093395"><ele>581.0</ele><time>2026-04-06T10:01:49.001Z</time></trkpt><trkpt lat="43.627382401831106" lon="2.3614877468800737"><ele>582.5</ele><time>2026-04-06T10:01:50.001Z</time></trkpt><trkpt lat="43.62737779289785" lon="2.3618320011898186"><ele>584.0</ele><time>2026-04-06T10:01:51.001Z</time></trkpt><trkpt lat="43.6274122987423" lon="2.3621892509297435"><ele>581.0</ele><time>2026-04-06T10:01:52.001Z</time></trkpt><trkpt lat="43.6274849891487" lon="2.362551269471499"><ele>578.0</ele><time>2026-04-06T10:01:53.001Z</time></trkpt><trkpt lat="43.62756567839719" lon="2.3628959654656927"><ele>574.5</ele><time>2026-04-06T10:01:54.001Z</time></trkpt><trkpt lat="43.62768173132505" lon="2.3632294977180197"><ele>571.0</ele><time>2026-04-06T10:01:55.001Z</time></trkpt><trkpt lat="43.627803432679755" lon="2.3635632471991395"><ele>571.5</ele><time>2026-04-06T10:01:56.001Z</time></trkpt><trkpt lat="43.62792372124754" lon="2.363888532890859"><ele>572.0</ele><time>2026-04-06T10:01:57.001Z</time></trkpt><trkpt lat="43.62804535669739" lon="2.364214261838646"><ele>572.0</ele><time>2026-04-06T10:01:58.001Z</time></trkpt><trkpt lat="43.628155707222334" lon="2.3645463882569033"><ele>572.0</ele><time>2026-04-06T10:01:59.001Z</time></trkpt><trkpt lat="43.6282647105993" lon="2.364865684933678"><ele>571.0</ele><time>2026-04-06T10:02:00.001Z</time></trkpt><trkpt lat="43.62837152141003" lon="2.365183352277711"><ele>570.0</ele><time>2026-04-06T10:02:01.001Z</time></trkpt><trkpt lat="43.62847649033985" lon="2.365499537531723"><ele>572.5</ele><time>2026-04-06T10:02:02.001Z</time></trkpt><trkpt lat="43.62856972420104" lon="2.3658202855045665"><ele>575.0</ele><time>2026-04-06T10:02:03.001Z</time></trkpt><trkpt lat="43.62863602628327" lon="2.3661501009304855"><ele>575.5</ele><time>2026-04-06T10:02:04.001Z</time></trkpt><trkpt lat="43.628677375397196" lon="2.3664976024068545"><ele>576.0</ele><time>2026-04-06T10:02:05.001Z</time></trkpt><trkpt lat="43.628688298457256" lon="2.366856690574836"><ele>579.0</ele><time>2026-04-06T10:02:06.001Z</time></trkpt><trkpt lat="43.62868534763422" lon="2.3672032490346866"><ele>582.0</ele><time>2026-04-06T10:02:07.001Z</time></trkpt><trkpt lat="43.62867146765284" lon="2.3675523260039535"><ele>582.0</ele><time>2026-04-06T10:02:08.001Z</time></trkpt><trkpt lat="43.62865302576995" lon="2.367908465348953"><ele>582.0</ele><time>2026-04-06T10:02:09.001Z</time></trkpt><trkpt lat="43.6286409501975" lon="2.368254815967922"><ele>583.5</ele><time>2026-04-06T10:02:10.001Z</time></trkpt><trkpt lat="43.628632796125764" lon="2.36860123253167"><ele>585.0</ele><time>2026-04-06T10:02:11.001Z</time></trkpt><trkpt lat="43.62862125299291" lon="2.3689515328658617"><ele>587.5</ele><time>2026-04-06T10:02:12.001Z</time></trkpt><trkpt lat="43.628613886246434" lon="2.3693039043210318"><ele>590.0</ele><time>2026-04-06T10:02:13.001Z</time></trkpt><trkpt lat="43.62860083584403" lon="2.3696513400185606"><ele>594.5</ele><time>2026-04-06T10:02:14.001Z</time></trkpt><trkpt lat="43.62858518194671" lon="2.369996774722488"><ele>599.0</ele><time>2026-04-06T10:02:15.001Z</time></trkpt><trkpt lat="43.62857026857797" lon="2.370344464913856"><ele>601.5</ele><time>2026-04-06T10:02:16.001Z</time></trkpt><trkpt lat="43.62855808425971" lon="2.3706904314404147"><ele>604.0</ele><time>2026-04-06T10:02:17.001Z</time></trkpt><trkpt lat="43.628549322125515" lon="2.3710427757490518"><ele>606.0</ele><time>2026-04-06T10:02:18.001Z</time></trkpt><trkpt lat="43.62853960963587" lon="2.371395217271706"><ele>608.0</ele><time>2026-04-06T10:02:19.001Z</time></trkpt><trkpt lat="43.62852683974691" lon="2.371743310751419"><ele>608.0</ele><time>2026-04-06T10:02:20.001Z</time></trkpt><trkpt lat="43.6285119121726" lon="2.3720909621883415"><ele>608.0</ele><time>2026-04-06T10:02:21.001Z</time></trkpt><trkpt lat="43.62849832773992" lon="2.3724378539934596"><ele>610.0</ele><time>2026-04-06T10:02:22.001Z</time></trkpt><trkpt lat="43.62848703842524" lon="2.372784689178954"><ele>612.0</ele><time>2026-04-06T10:02:23.001Z</time></trkpt><trkpt lat="43.628478071197904" lon="2.3731323935292115"><ele>613.0</ele><time>2026-04-06T10:02:24.001Z</time></trkpt><trkpt lat="43.6284681162206" lon="2.373482945945153"><ele>614.0</ele><time>2026-04-06T10:02:25.001Z</time></trkpt><trkpt lat="43.628455087283726" lon="2.373834225371745"><ele>617.0</ele><time>2026-04-06T10:02:26.001Z</time></trkpt><trkpt lat="43.62844154667598" lon="2.3741843142563774"><ele>620.0</ele><time>2026-04-06T10:02:27.001Z</time></trkpt><trkpt lat="43.628428692800796" lon="2.374537085891642"><ele>622.0</ele><time>2026-04-06T10:02:28.001Z</time></trkpt><trkpt lat="43.628414620784085" lon="2.374886289531973"><ele>624.0</ele><time>2026-04-06T10:02:29Z</time></trkpt><trkpt lat="43.62840306917698" lon="2.375235486591557"><ele>624.5</ele><time>2026-04-06T10:02:30Z</time></trkpt><trkpt lat="43.62839300143818" lon="2.375587451922608"><ele>625.0</ele><time>2026-04-06T10:02:31Z</time></trkpt><trkpt lat="43.62838571716946" lon="2.375940773443592"><ele>625.0</ele><time>2026-04-06T10:02:32Z</time></trkpt><trkpt lat="43.62837401412448" lon="2.3762985766805738"><ele>625.0</ele><time>2026-04-06T10:02:33Z</time></trkpt><trkpt lat="43.628362978453175" lon="2.3766532010158214"><ele>626.0</ele><time>2026-04-06T10:02:34Z</time></trkpt><trkpt lat="43.628356961696625" lon="2.3770088611532514"><ele>627.0</ele><time>2026-04-06T10:02:35Z</time></trkpt><trkpt lat="43.62835150410076" lon="2.377360376981436"><ele>628.5</ele><time>2026-04-06T10:02:36Z</time></trkpt><trkpt lat="43.62836936904414" lon="2.377705986329055"><ele>630.0</ele><time>2026-04-06T10:02:37Z</time></trkpt><trkpt lat="43.6284107647584" lon="2.378053483503713"><ele>631.5</ele><time>2026-04-06T10:02:38Z</time></trkpt><trkpt lat="43.62846419933512" lon="2.378403453503718"><ele>633.0</ele><time>2026-04-06T10:02:39Z</time></trkpt><trkpt lat="43.62852995888319" lon="2.3787667018047243"><ele>632.5</ele><time>2026-04-06T10:02:40Z</time></trkpt><trkpt lat="43.62860428591091" lon="2.3791388310690045"><ele>632.0</ele><time>2026-04-06T10:02:41Z</time></trkpt><trkpt lat="43.628659448541555" lon="2.37948040184979"><ele>640.0</ele><time>2026-04-06T10:02:42Z</time></trkpt><trkpt lat="43.62871512369258" lon="2.379824304708425"><ele>648.0</ele><time>2026-04-06T10:02:43Z</time></trkpt><trkpt lat="43.62876867618246" lon="2.380177530515597"><ele>647.0</ele><time>2026-04-06T10:02:44Z</time></trkpt><trkpt lat="43.628789375057195" lon="2.3805366113411055"><ele>646.0</ele><time>2026-04-06T10:02:45Z</time></trkpt><trkpt lat="43.62878885434792" lon="2.380890813254571"><ele>646.0</ele><time>2026-04-06T10:02:46Z</time></trkpt><trkpt lat="43.62875795960893" lon="2.381234669551024"><ele>646.0</ele><time>2026-04-06T10:02:47Z</time></trkpt><trkpt lat="43.62869943641646" lon="2.381573832044296"><ele>645.0</ele><time>2026-04-06T10:02:48Z</time></trkpt><trkpt lat="43.62862100733036" lon="2.3819067352650642"><ele>644.0</ele><time>2026-04-06T10:02:49Z</time></trkpt><trkpt lat="43.62852897700102" lon="2.3822315998274664"><ele>644.0</ele><time>2026-04-06T10:02:50Z</time></trkpt><trkpt lat="43.62843710726351" lon="2.382541896420296"><ele>644.0</ele><time>2026-04-06T10:02:51Z</time></trkpt><trkpt lat="43.62836186035018" lon="2.382890263898449"><ele>646.0</ele><time>2026-04-06T10:02:52Z</time></trkpt><trkpt lat="43.628330309166046" lon="2.3832259557215036"><ele>648.0</ele><time>2026-04-06T10:02:53Z</time></trkpt><trkpt lat="43.62833268131662" lon="2.383572767472236"><ele>648.0</ele><time>2026-04-06T10:02:54Z</time></trkpt><trkpt lat="43.628348198821506" lon="2.3839225043298407"><ele>648.0</ele><time>2026-04-06T10:02:55Z</time></trkpt><trkpt lat="43.62838707841757" lon="2.3842738068553895"><ele>648.0</ele><time>2026-04-06T10:02:56Z</time></trkpt><trkpt lat="43.62840905800503" lon="2.3846256261992713"><ele>648.0</ele><time>2026-04-06T10:02:57Z</time></trkpt><trkpt lat="43.6284341237954" lon="2.3849748238262762"><ele>647.5</ele><time>2026-04-06T10:02:58Z</time></trkpt><trkpt lat="43.62852659778364" lon="2.3853208256593526"><ele>647.0</ele><time>2026-04-06T10:02:59Z</time></trkpt><trkpt lat="43.62856743075537" lon="2.385678230057341"><ele>649.0</ele><time>2026-04-06T10:03:00Z</time></trkpt><trkpt lat="43.62859935759842" lon="2.386033535733317"><ele>651.0</ele><time>2026-04-06T10:03:01Z</time></trkpt><trkpt lat="43.62862824979625" lon="2.386393299096979"><ele>654.5</ele><time>2026-04-06T10:03:02Z</time></trkpt><trkpt lat="43.628635017091256" lon="2.3867572726122366"><ele>658.0</ele><time>2026-04-06T10:03:03Z</time></trkpt><trkpt lat="43.62861502250111" lon="2.387114539231508"><ele>659.0</ele><time>2026-04-06T10:03:04Z</time></trkpt><trkpt lat="43.62857089522421" lon="2.387469166314637"><ele>660.0</ele><time>2026-04-06T10:03:05Z</time></trkpt><trkpt lat="43.628512029574686" lon="2.3878148753677007"><ele>658.0</ele><time>2026-04-06T10:03:06Z</time></trkpt><trkpt lat="43.62844518178126" lon="2.388165899078283"><ele>656.0</ele><time>2026-04-06T10:03:07Z</time></trkpt><trkpt lat="43.62837917884771" lon="2.3885046882075023"><ele>656.0</ele><time>2026-04-06T10:03:08Z</time></trkpt><trkpt lat="43.628309916295876" lon="2.3888385915810266"><ele>656.0</ele><time>2026-04-06T10:03:09Z</time></trkpt><trkpt lat="43.628247371205546" lon="2.3891780535406593"><ele>653.5</ele><time>2026-04-06T10:03:10Z</time></trkpt><trkpt lat="43.62818351581104" lon="2.3895141229970367"><ele>651.0</ele><time>2026-04-06T10:03:11Z</time></trkpt><trkpt lat="43.62812861111689" lon="2.389858514080316"><ele>651.0</ele><time>2026-04-06T10:03:12Z</time></trkpt><trkpt lat="43.62810843263063" lon="2.3902034724908807"><ele>651.0</ele><time>2026-04-06T10:03:13Z</time></trkpt><trkpt lat="43.62813277094914" lon="2.3905452870704544"><ele>651.0</ele><time>2026-04-06T10:03:14Z</time></trkpt><trkpt lat="43.628189427126685" lon="2.390875511071091"><ele>651.0</ele><time>2026-04-06T10:03:15Z</time></trkpt><trkpt lat="43.62825586961333" lon="2.391202329446866"><ele>653.0</ele><time>2026-04-06T10:03:16Z</time></trkpt><trkpt lat="43.6283475457689" lon="2.391516610530906"><ele>655.0</ele><time>2026-04-06T10:03:17Z</time></trkpt><trkpt lat="43.628461528669135" lon="2.391818577058017"><ele>655.0</ele><time>2026-04-06T10:03:18Z</time></trkpt><trkpt lat="43.62860347263061" lon="2.39210218647228"><ele>655.0</ele><time>2026-04-06T10:03:19Z</time></trkpt><trkpt lat="43.62876808110969" lon="2.3923576875160584"><ele>655.0</ele><time>2026-04-06T10:03:20Z</time></trkpt><trkpt lat="43.628964164456484" lon="2.3925922069420387"><ele>655.0</ele><time>2026-04-06T10:03:21Z</time></trkpt><trkpt lat="43.6291667529475" lon="2.3927879997538026"><ele>655.0</ele><time>2026-04-06T10:03:22Z</time></trkpt><trkpt lat="43.62939413606596" lon="2.392937073194695"><ele>655.0</ele><time>2026-04-06T10:03:23Z</time></trkpt><trkpt lat="43.62963442767359" lon="2.393053816949361"><ele>657.5</ele><time>2026-04-06T10:03:24Z</time></trkpt><trkpt lat="43.629864815863286" lon="2.3932037812865095"><ele>660.0</ele><time>2026-04-06T10:03:25Z</time></trkpt><trkpt lat="43.630103684283945" lon="2.3933720232587334"><ele>660.5</ele><time>2026-04-06T10:03:26Z</time></trkpt><trkpt lat="43.63034243855618" lon="2.3935302927361994"><ele>661.0</ele><time>2026-04-06T10:03:27Z</time></trkpt><trkpt lat="43.630572796612675" lon="2.3936858085202393"><ele>661.0</ele><time>2026-04-06T10:03:28Z</time></trkpt><trkpt lat="43.6308117836205" lon="2.3938279950252506"><ele>661.0</ele><time>2026-04-06T10:03:29Z</time></trkpt><trkpt lat="43.631041465704065" lon="2.3940023291282104"><ele>663.0</ele><time>2026-04-06T10:03:30Z</time></trkpt><trkpt lat="43.63126735190259" lon="2.394202612043563"><ele>665.0</ele><time>2026-04-06T10:03:31Z</time></trkpt><trkpt lat="43.63148853617665" lon="2.394447354921279"><ele>667.0</ele><time>2026-04-06T10:03:32Z</time></trkpt><trkpt lat="43.63167752175551" lon="2.3947260819465397"><ele>669.0</ele><time>2026-04-06T10:03:33Z</time></trkpt><trkpt lat="43.63183629093504" lon="2.3950323055102265"><ele>671.0</ele><time>2026-04-06T10:03:34Z</time></trkpt><trkpt lat="43.63199218792003" lon="2.3953667120099866"><ele>673.0</ele><time>2026-04-06T10:03:35Z</time></trkpt><trkpt lat="43.63213328278462" lon="2.3957130909391378"><ele>675.0</ele><time>2026-04-06T10:03:36Z</time></trkpt><trkpt lat="43.632220800702875" lon="2.396082732535101"><ele>677.0</ele><time>2026-04-06T10:03:37Z</time></trkpt><trkpt lat="43.632301410639094" lon="2.3964755008648027"><ele>679.0</ele><time>2026-04-06T10:03:38Z</time></trkpt><trkpt lat="43.63208302720247" lon="2.3966555805779493"><ele>681.0</ele><time>2026-04-06T10:03:39Z</time></trkpt><trkpt lat="43.631987911175024" lon="2.3970077761043935"><ele>681.5</ele><time>2026-04-06T10:03:40Z</time></trkpt><trkpt lat="43.631922988614214" lon="2.397362597453864"><ele>682.0</ele><time>2026-04-06T10:03:41Z</time></trkpt><trkpt lat="43.631826321893634" lon="2.3976988619630557"><ele>684.0</ele><time>2026-04-06T10:03:42Z</time></trkpt><trkpt lat="43.63171126017024" lon="2.3980309847358416"><ele>686.0</ele><time>2026-04-06T10:03:43Z</time></trkpt><trkpt lat="43.6315794499765" lon="2.3983514690032743"><ele>686.0</ele><time>2026-04-06T10:03:44Z</time></trkpt><trkpt lat="43.63146650774865" lon="2.3986146978206495"><ele>686.0</ele><time>2026-04-06T10:03:45Z</time></trkpt><trkpt lat="43.63135777129635" lon="2.39894565324121"><ele>686.0</ele><time>2026-04-06T10:03:46Z</time></trkpt><trkpt lat="43.63124290641898" lon="2.399353592111644"><ele>686.0</ele><time>2026-04-06T10:03:47.001Z</time></trkpt><trkpt lat="43.63117406756493" lon="2.399748694714684"><ele>693.0</ele><time>2026-04-06T10:03:48.001Z</time></trkpt><trkpt lat="43.63111754561597" lon="2.40015866558699"><ele>700.0</ele><time>2026-04-06T10:03:49.001Z</time></trkpt><trkpt lat="43.631089972820035" lon="2.400551467509442"><ele>700.0</ele><time>2026-04-06T10:03:50.001Z</time></trkpt><trkpt lat="43.631058929195454" lon="2.4009420795607013"><ele>700.0</ele><time>2026-04-06T10:03:51.001Z</time></trkpt><trkpt lat="43.63101118492002" lon="2.4013282368902438"><ele>698.5</ele><time>2026-04-06T10:03:52.001Z</time></trkpt><trkpt lat="43.63097225001653" lon="2.401679008301059"><ele>697.0</ele><time>2026-04-06T10:03:53.001Z</time></trkpt><trkpt lat="43.630957307089055" lon="2.402000613696567"><ele>696.6666666666667</ele><time>2026-04-06T10:03:54.001Z</time></trkpt><trkpt lat="43.630957185947075" lon="2.402212948375106"><ele>696.3333333333334</ele><time>2026-04-06T10:03:55.001Z</time></trkpt><trkpt lat="43.6309524123657" lon="2.402494875143302"><ele>696.0</ele><time>2026-04-06T10:03:56.001Z</time></trkpt><trkpt lat="43.6309300148464" lon="2.4027960409733873"><ele>695.3333333333334</ele><time>2026-04-06T10:03:57.001Z</time></trkpt><trkpt lat="43.63092936497704" lon="2.403046159835251"><ele>694.6666666666667</ele><time>2026-04-06T10:03:58.001Z</time></trkpt><trkpt lat="43.63091805489533" lon="2.403312597835277"><ele>694.0</ele><time>2026-04-06T10:03:59.001Z</time></trkpt><trkpt lat="43.63089938504327" lon="2.4035750637060715"><ele>694.0</ele><time>2026-04-06T10:04:00.001Z</time></trkpt><trkpt lat="43.630882272909865" lon="2.4038139237312977"><ele>694.0</ele><time>2026-04-06T10:04:01.001Z</time></trkpt><trkpt lat="43.630866755795694" lon="2.4040474275592305"><ele>694.0</ele><time>2026-04-06T10:04:02.001Z</time></trkpt><trkpt lat="43.630844407245995" lon="2.404277941897222"><ele>693.3333333333334</ele><time>2026-04-06T10:04:03.001Z</time></trkpt><trkpt lat="43.63081190485122" lon="2.4045048917177203"><ele>692.6666666666666</ele><time>2026-04-06T10:04:04.001Z</time></trkpt><trkpt lat="43.630773601187286" lon="2.4047344534033948"><ele>692.0</ele><time>2026-04-06T10:04:05.001Z</time></trkpt><trkpt lat="43.63071619477455" lon="2.404961265152781"><ele>689.0</ele><time>2026-04-06T10:04:06.001Z</time></trkpt><trkpt lat="43.63066115217888" lon="2.405181496029867"><ele>686.0</ele><time>2026-04-06T10:04:07.001Z</time></trkpt><trkpt lat="43.630610732341765" lon="2.40541551651543"><ele>683.0</ele><time>2026-04-06T10:04:08.001Z</time></trkpt><trkpt lat="43.63055776308034" lon="2.4056674211454347"><ele>678.3333333333333</ele><time>2026-04-06T10:04:09.001Z</time></trkpt><trkpt lat="43.630500857943936" lon="2.405904770484677"><ele>673.6666666666666</ele><time>2026-04-06T10:04:10.001Z</time></trkpt><trkpt lat="43.63044221872629" lon="2.406156489963173"><ele>669.0</ele><time>2026-04-06T10:04:11.001Z</time></trkpt><trkpt lat="43.63039097028627" lon="2.406416832115068"><ele>665.3333333333334</ele><time>2026-04-06T10:04:12.001Z</time></trkpt><trkpt lat="43.630335806687846" lon="2.406653287049032"><ele>661.6666666666667</ele><time>2026-04-06T10:04:13.001Z</time></trkpt><trkpt lat="43.63028150448587" lon="2.4069016709461697"><ele>658.0</ele><time>2026-04-06T10:04:14.001Z</time></trkpt><trkpt lat="43.630217212155436" lon="2.4071457439337545"><ele>661.3333333333334</ele><time>2026-04-06T10:04:15.001Z</time></trkpt><trkpt lat="43.6301467612421" lon="2.407387322513876"><ele>664.6666666666666</ele><time>2026-04-06T10:04:16.001Z</time></trkpt><trkpt lat="43.630060972021745" lon="2.4076333891571107"><ele>668.0</ele><time>2026-04-06T10:04:17.001Z</time></trkpt><trkpt lat="43.62995481525012" lon="2.407863396186945"><ele>663.3333333333333</ele><time>2026-04-06T10:04:18.001Z</time></trkpt><trkpt lat="43.62983442214698" lon="2.4080735634230153"><ele>658.6666666666666</ele><time>2026-04-06T10:04:19.001Z</time></trkpt><trkpt lat="43.629705781965825" lon="2.408267452839214"><ele>654.0</ele><time>2026-04-06T10:04:20.001Z</time></trkpt><trkpt lat="43.62957365017984" lon="2.4084616624701294"><ele>654.3333333333334</ele><time>2026-04-06T10:04:21.001Z</time></trkpt><trkpt lat="43.62943497753238" lon="2.4086576165733575"><ele>654.6666666666667</ele><time>2026-04-06T10:04:22.001Z</time></trkpt><trkpt lat="43.62930148578876" lon="2.4088530614806873"><ele>655.0</ele><time>2026-04-06T10:04:23.001Z</time></trkpt><trkpt lat="43.62917207329714" lon="2.4090492894330775"><ele>655.0</ele><time>2026-04-06T10:04:24.001Z</time></trkpt><trkpt lat="43.6290509694436" lon="2.4092472267404816"><ele>655.0</ele><time>2026-04-06T10:04:25.001Z</time></trkpt><trkpt lat="43.62894460318348" lon="2.4094534152009763"><ele>655.0</ele><time>2026-04-06T10:04:26.001Z</time></trkpt><trkpt lat="43.62885074921974" lon="2.4096694001016297"><ele>655.6666666666667</ele><time>2026-04-06T10:04:27.001Z</time></trkpt><trkpt lat="43.6287721381061" lon="2.4098976769697757"><ele>656.3333333333334</ele><time>2026-04-06T10:04:28.001Z</time></trkpt><trkpt lat="43.62870371874544" lon="2.4101285504670202"><ele>657.0</ele><time>2026-04-06T10:04:29.001Z</time></trkpt><trkpt lat="43.62864068856213" lon="2.4103645030567256"><ele>654.3333333333334</ele><time>2026-04-06T10:04:30.001Z</time></trkpt><trkpt lat="43.628590956354586" lon="2.4106131325132414"><ele>651.6666666666667</ele><time>2026-04-06T10:04:31.001Z</time></trkpt><trkpt lat="43.62855277117027" lon="2.4108687360166963"><ele>649.0</ele><time>2026-04-06T10:04:32.001Z</time></trkpt><trkpt lat="43.628528384273025" lon="2.4111295567986355"><ele>650.3333333333334</ele><time>2026-04-06T10:04:33.001Z</time></trkpt><trkpt lat="43.62852063753153" lon="2.41139506526123"><ele>651.6666666666666</ele><time>2026-04-06T10:04:34.001Z</time></trkpt><trkpt lat="43.628526702773" lon="2.4116664279093176"><ele>653.0</ele><time>2026-04-06T10:04:35Z</time></trkpt><trkpt lat="43.628554380360065" lon="2.411944620142086"><ele>652.6666666666666</ele><time>2026-04-06T10:04:36Z</time></trkpt><trkpt lat="43.6285846496927" lon="2.412220689141007"><ele>652.3333333333334</ele><time>2026-04-06T10:04:37Z</time></trkpt><trkpt lat="43.62862100807539" lon="2.412498243942524"><ele>652.0</ele><time>2026-04-06T10:04:38Z</time></trkpt><trkpt lat="43.628650579155696" lon="2.4127784469906692"><ele>652.6666666666667</ele><time>2026-04-06T10:04:39Z</time></trkpt><trkpt lat="43.628679558160336" lon="2.4130571575284714"><ele>653.3333333333334</ele><time>2026-04-06T10:04:40Z</time></trkpt><trkpt lat="43.628711355178694" lon="2.4133362296867777"><ele>654.0</ele><time>2026-04-06T10:04:41Z</time></trkpt><trkpt lat="43.62874003691257" lon="2.4136159828403145"><ele>655.0</ele><time>2026-04-06T10:04:42Z</time></trkpt><trkpt lat="43.62876770648448" lon="2.4138935424392334"><ele>656.0</ele><time>2026-04-06T10:04:43Z</time></trkpt><trkpt lat="43.628789909124" lon="2.414175304764802"><ele>657.0</ele><time>2026-04-06T10:04:44Z</time></trkpt><trkpt lat="43.62880109003904" lon="2.414452130449403"><ele>657.6666666666666</ele><time>2026-04-06T10:04:45Z</time></trkpt><trkpt lat="43.6288103474665" lon="2.414730441330378"><ele>658.3333333333333</ele><time>2026-04-06T10:04:46Z</time></trkpt><trkpt lat="43.62882151321921" lon="2.4150095857041087"><ele>659.0</ele><time>2026-04-06T10:04:47Z</time></trkpt><trkpt lat="43.62882688853388" lon="2.415282188222628"><ele>660.0</ele><time>2026-04-06T10:04:48Z</time></trkpt><trkpt lat="43.628825435740644" lon="2.415552894605314"><ele>661.0</ele><time>2026-04-06T10:04:49Z</time></trkpt><trkpt lat="43.62884246329843" lon="2.4158007922132843"><ele>662.0</ele><time>2026-04-06T10:04:50Z</time></trkpt><trkpt lat="43.62884586177888" lon="2.4160311233832896"><ele>662.0</ele><time>2026-04-06T10:04:51Z</time></trkpt><trkpt lat="43.62884638452573" lon="2.4162584050526346"><ele>662.0</ele><time>2026-04-06T10:04:52Z</time></trkpt><trkpt lat="43.628850288159086" lon="2.4164905754928308"><ele>662.0</ele><time>2026-04-06T10:04:53Z</time></trkpt><trkpt lat="43.62884914961111" lon="2.416728746070778"><ele>663.0</ele><time>2026-04-06T10:04:54Z</time></trkpt><trkpt lat="43.628831504686346" lon="2.416973212172954"><ele>664.0</ele><time>2026-04-06T10:04:55Z</time></trkpt><trkpt lat="43.628791335249836" lon="2.4172264570383146"><ele>665.0</ele><time>2026-04-06T10:04:56Z</time></trkpt><trkpt lat="43.628737251216364" lon="2.4174746494339447"><ele>665.3333333333333</ele><time>2026-04-06T10:04:57Z</time></trkpt><trkpt lat="43.628675445579624" lon="2.417718051432691"><ele>665.6666666666666</ele><time>2026-04-06T10:04:58Z</time></trkpt><trkpt lat="43.62860012097268" lon="2.417958057549239"><ele>666.0</ele><time>2026-04-06T10:04:59Z</time></trkpt><trkpt lat="43.628522012764876" lon="2.4181988897333753"><ele>668.0</ele><time>2026-04-06T10:05:00Z</time></trkpt><trkpt lat="43.62844484534505" lon="2.4184484312020467"><ele>670.0</ele><time>2026-04-06T10:05:01Z</time></trkpt><trkpt lat="43.62837601676936" lon="2.418704018942192"><ele>672.0</ele><time>2026-04-06T10:05:02Z</time></trkpt><trkpt lat="43.62830460141667" lon="2.418955443138738"><ele>672.0</ele><time>2026-04-06T10:05:03Z</time></trkpt><trkpt lat="43.62824005895323" lon="2.41920883440021"><ele>672.0</ele><time>2026-04-06T10:05:04Z</time></trkpt><trkpt lat="43.628188429651495" lon="2.4194762759137927"><ele>672.0</ele><time>2026-04-06T10:05:05Z</time></trkpt><trkpt lat="43.62815463625891" lon="2.419743640542303"><ele>672.3333333333334</ele><time>2026-04-06T10:05:06Z</time></trkpt><trkpt lat="43.62814390785824" lon="2.420018039435572"><ele>672.6666666666667</ele><time>2026-04-06T10:05:07Z</time></trkpt><trkpt lat="43.62813935133661" lon="2.4202786530510862"><ele>673.0</ele><time>2026-04-06T10:05:08Z</time></trkpt><trkpt lat="43.628154931273826" lon="2.4205345644099685"><ele>672.3333333333334</ele><time>2026-04-06T10:05:09Z</time></trkpt><trkpt lat="43.62818207920578" lon="2.4207930937223154"><ele>671.6666666666666</ele><time>2026-04-06T10:05:10Z</time></trkpt><trkpt lat="43.62822649328348" lon="2.421047022786974"><ele>671.0</ele><time>2026-04-06T10:05:11Z</time></trkpt><trkpt lat="43.62828624679093" lon="2.4212872169602666"><ele>671.0</ele><time>2026-04-06T10:05:12Z</time></trkpt><trkpt lat="43.6283666065445" lon="2.421524745589729"><ele>671.0</ele><time>2026-04-06T10:05:13Z</time></trkpt><trkpt lat="43.62846890039935" lon="2.4217765568819"><ele>671.0</ele><time>2026-04-06T10:05:14Z</time></trkpt><trkpt lat="43.62856950748314" lon="2.42206318318376"><ele>673.5</ele><time>2026-04-06T10:05:15Z</time></trkpt><trkpt lat="43.62870970721056" lon="2.422354148751637"><ele>676.0</ele><time>2026-04-06T10:05:16Z</time></trkpt><trkpt lat="43.628839998569" lon="2.4226844058840005"><ele>673.5</ele><time>2026-04-06T10:05:17Z</time></trkpt><trkpt lat="43.6289716298879" lon="2.4230745463446657"><ele>671.0</ele><time>2026-04-06T10:05:18Z</time></trkpt><trkpt lat="43.629157186472696" lon="2.4234622971686273"><ele>671.0</ele><time>2026-04-06T10:05:19Z</time></trkpt><trkpt lat="43.62931737700635" lon="2.423851533805067"><ele>671.0</ele><time>2026-04-06T10:05:20Z</time></trkpt><trkpt lat="43.62946286710362" lon="2.424219388895815"><ele>672.5</ele><time>2026-04-06T10:05:21Z</time></trkpt><trkpt lat="43.62958232991275" lon="2.4245581535836873"><ele>674.0</ele><time>2026-04-06T10:05:22Z</time></trkpt><trkpt lat="43.629676848273455" lon="2.4248395080154466"><ele>675.0</ele><time>2026-04-06T10:05:23Z</time></trkpt><trkpt lat="43.62977973816966" lon="2.425091684766947"><ele>676.0</ele><time>2026-04-06T10:05:24Z</time></trkpt><trkpt lat="43.62988505941133" lon="2.4252969903389117"><ele>677.0</ele><time>2026-04-06T10:05:25Z</time></trkpt><trkpt lat="43.62998355432003" lon="2.4255208800934915"><ele>677.3333333333333</ele><time>2026-04-06T10:05:26Z</time></trkpt><trkpt lat="43.630070861981" lon="2.4257289044099823"><ele>677.6666666666666</ele><time>2026-04-06T10:05:27Z</time></trkpt><trkpt lat="43.63015139825967" lon="2.425911302334799"><ele>678.0</ele><time>2026-04-06T10:05:28Z</time></trkpt><trkpt lat="43.63022752469859" lon="2.42608969475191"><ele>678.0</ele><time>2026-04-06T10:05:29Z</time></trkpt><trkpt lat="43.63029175179285" lon="2.426256194390048"><ele>678.0</ele><time>2026-04-06T10:05:30Z</time></trkpt><trkpt lat="43.630354953514164" lon="2.4264339520122733"><ele>678.0</ele><time>2026-04-06T10:05:31Z</time></trkpt><trkpt lat="43.63041553516648" lon="2.4266367862785985"><ele>678.0</ele><time>2026-04-06T10:05:32Z</time></trkpt><trkpt lat="43.630460130772924" lon="2.4268514289766245"><ele>679.3333333333334</ele><time>2026-04-06T10:05:33Z</time></trkpt><trkpt lat="43.63049713110399" lon="2.4270762372672947"><ele>680.6666666666667</ele><time>2026-04-06T10:05:34Z</time></trkpt><trkpt lat="43.630522506082656" lon="2.4273131200848708"><ele>682.0</ele><time>2026-04-06T10:05:35Z</time></trkpt><trkpt lat="43.630531933138606" lon="2.4275556537829126"><ele>683.0</ele><time>2026-04-06T10:05:36Z</time></trkpt><trkpt lat="43.630525324757606" lon="2.4277885197037277"><ele>684.0</ele><time>2026-04-06T10:05:37Z</time></trkpt><trkpt lat="43.630508912428574" lon="2.428066824707371"><ele>685.0</ele><time>2026-04-06T10:05:38Z</time></trkpt><trkpt lat="43.63046034012779" lon="2.4283890465128595"><ele>683.0</ele><time>2026-04-06T10:05:39Z</time></trkpt><trkpt lat="43.63037772516948" lon="2.4287480725839794"><ele>681.0</ele><time>2026-04-06T10:05:40.001Z</time></trkpt><trkpt lat="43.6302926097914" lon="2.4291361270179235"><ele>681.0</ele><time>2026-04-06T10:05:41.001Z</time></trkpt><trkpt lat="43.63014015912695" lon="2.42947112934255"><ele>681.0</ele><time>2026-04-06T10:05:42.001Z</time></trkpt><trkpt lat="43.629951242660006" lon="2.4297811704796572"><ele>683.5</ele><time>2026-04-06T10:05:43.001Z</time></trkpt><trkpt lat="43.629722101941056" lon="2.4300733861610566"><ele>686.0</ele><time>2026-04-06T10:05:44.001Z</time></trkpt><trkpt lat="43.62947737222472" lon="2.43033436675029"><ele>686.5</ele><time>2026-04-06T10:05:45.001Z</time></trkpt><trkpt lat="43.62922301135562" lon="2.4305618128784396"><ele>687.0</ele><time>2026-04-06T10:05:46.001Z</time></trkpt><trkpt lat="43.62897375109591" lon="2.430770362428128"><ele>687.0</ele><time>2026-04-06T10:05:47.001Z</time></trkpt><trkpt lat="43.62873654000848" lon="2.4309837243809107"><ele>687.0</ele><time>2026-04-06T10:05:48.001Z</time></trkpt><trkpt lat="43.62850692985857" lon="2.4311937189379473"><ele>688.0</ele><time>2026-04-06T10:05:49.001Z</time></trkpt><trkpt lat="43.62828399934748" lon="2.431395745304302"><ele>689.0</ele><time>2026-04-06T10:05:50.001Z</time></trkpt><trkpt lat="43.62806349298204" lon="2.431588977207011"><ele>689.0</ele><time>2026-04-06T10:05:51.001Z</time></trkpt><trkpt lat="43.627850451963766" lon="2.431774534274673"><ele>689.0</ele><time>2026-04-06T10:05:52.001Z</time></trkpt><trkpt lat="43.627653704973774" lon="2.4319514620938945"><ele>688.5</ele><time>2026-04-06T10:05:53.001Z</time></trkpt><trkpt lat="43.62746196988557" lon="2.4321273710370863"><ele>688.0</ele><time>2026-04-06T10:05:54.001Z</time></trkpt><trkpt lat="43.62726651216401" lon="2.4322980301663466"><ele>689.3333333333334</ele><time>2026-04-06T10:05:55.001Z</time></trkpt><trkpt lat="43.627081770774325" lon="2.43247164784977"><ele>690.6666666666666</ele><time>2026-04-06T10:05:56.001Z</time></trkpt><trkpt lat="43.62691203459558" lon="2.432668436494257"><ele>692.0</ele><time>2026-04-06T10:05:57.001Z</time></trkpt><trkpt lat="43.62674565150608" lon="2.432885180166025"><ele>687.5</ele><time>2026-04-06T10:05:58.001Z</time></trkpt><trkpt lat="43.626595677637" lon="2.4331189273133833"><ele>683.0</ele><time>2026-04-06T10:05:59.001Z</time></trkpt><trkpt lat="43.626461992636116" lon="2.433371749942824"><ele>683.0</ele><time>2026-04-06T10:06:00.001Z</time></trkpt><trkpt lat="43.62635246154733" lon="2.4336463195763316"><ele>683.0</ele><time>2026-04-06T10:06:01.001Z</time></trkpt><trkpt lat="43.62626392668431" lon="2.4339335862333704"><ele>683.0</ele><time>2026-04-06T10:06:02.001Z</time></trkpt><trkpt lat="43.626195268428695" lon="2.4342179886000226"><ele>683.0</ele><time>2026-04-06T10:06:03.001Z</time></trkpt><trkpt lat="43.6261383852019" lon="2.434496059547744"><ele>683.0</ele><time>2026-04-06T10:06:04.001Z</time></trkpt><trkpt lat="43.62608991293911" lon="2.43476237670708"><ele>676.6666666666666</ele><time>2026-04-06T10:06:05.001Z</time></trkpt><trkpt lat="43.62602419007097" lon="2.435026329091384"><ele>670.3333333333334</ele><time>2026-04-06T10:06:06.001Z</time></trkpt><trkpt lat="43.62593872356337" lon="2.435286517940196"><ele>664.0</ele><time>2026-04-06T10:06:07.001Z</time></trkpt><trkpt lat="43.625844893132054" lon="2.4355364435795566"><ele>664.0</ele><time>2026-04-06T10:06:08.001Z</time></trkpt><trkpt lat="43.625734251751915" lon="2.4357645887613866"><ele>664.0</ele><time>2026-04-06T10:06:09.001Z</time></trkpt><trkpt lat="43.62560811335305" lon="2.43597163037088"><ele>664.0</ele><time>2026-04-06T10:06:10.001Z</time></trkpt><trkpt lat="43.625467523431794" lon="2.4361678906402933"><ele>664.0</ele><time>2026-04-06T10:06:11.001Z</time></trkpt><trkpt lat="43.62531902455361" lon="2.436353014142387"><ele>664.0</ele><time>2026-04-06T10:06:12.001Z</time></trkpt><trkpt lat="43.62516245110184" lon="2.4365312027796757"><ele>664.0</ele><time>2026-04-06T10:06:13.001Z</time></trkpt><trkpt lat="43.62500099521547" lon="2.4366901272130543"><ele>662.3333333333334</ele><time>2026-04-06T10:06:14.001Z</time></trkpt><trkpt lat="43.624838665554904" lon="2.4368333478437774"><ele>660.6666666666666</ele><time>2026-04-06T10:06:15.001Z</time></trkpt><trkpt lat="43.62467373743033" lon="2.4369923140189216"><ele>659.0</ele><time>2026-04-06T10:06:16.001Z</time></trkpt><trkpt lat="43.62450796659875" lon="2.4371532878635285"><ele>659.0</ele><time>2026-04-06T10:06:17.001Z</time></trkpt><trkpt lat="43.62434688112371" lon="2.437313163993616"><ele>659.0</ele><time>2026-04-06T10:06:18.001Z</time></trkpt><trkpt lat="43.62419213523453" lon="2.437465998515771"><ele>659.0</ele><time>2026-04-06T10:06:19.001Z</time></trkpt><trkpt lat="43.62403712119209" lon="2.4376215114694224"><ele>659.0</ele><time>2026-04-06T10:06:20.001Z</time></trkpt><trkpt lat="43.623886764647786" lon="2.437779925318932"><ele>659.0</ele><time>2026-04-06T10:06:21.001Z</time></trkpt><trkpt lat="43.62374290554276" lon="2.4379426928888326"><ele>659.0</ele><time>2026-04-06T10:06:22.001Z</time></trkpt><trkpt lat="43.6236083309959" lon="2.43810562075043"><ele>659.0</ele><time>2026-04-06T10:06:23.001Z</time></trkpt><trkpt lat="43.62347659963959" lon="2.4382649121245255"><ele>659.0</ele><time>2026-04-06T10:06:24.001Z</time></trkpt><trkpt lat="43.62334533622536" lon="2.438425802479426"><ele>659.0</ele><time>2026-04-06T10:06:25.001Z</time></trkpt><trkpt lat="43.62321485356549" lon="2.4385890396278724"><ele>659.0</ele><time>2026-04-06T10:06:26.001Z</time></trkpt><trkpt lat="43.62308607965452" lon="2.4387521622678605"><ele>659.0</ele><time>2026-04-06T10:06:27.001Z</time></trkpt><trkpt lat="43.622959793385014" lon="2.4389170672197817"><ele>659.0</ele><time>2026-04-06T10:06:28.001Z</time></trkpt><trkpt lat="43.62282936771207" lon="2.439086261527473"><ele>660.6666666666666</ele><time>2026-04-06T10:06:29.001Z</time></trkpt><trkpt lat="43.622694627829325" lon="2.439263522576489"><ele>662.3333333333334</ele><time>2026-04-06T10:06:30.001Z</time></trkpt><trkpt lat="43.62255593513754" lon="2.4394405728224555"><ele>664.0</ele><time>2026-04-06T10:06:31.001Z</time></trkpt><trkpt lat="43.62241657636134" lon="2.4396215017795466"><ele>664.6666666666667</ele><time>2026-04-06T10:06:32.001Z</time></trkpt><trkpt lat="43.62226344843649" lon="2.439817351103429"><ele>665.3333333333334</ele><time>2026-04-06T10:06:33.001Z</time></trkpt><trkpt lat="43.622095409251735" lon="2.4400245493272052"><ele>666.0</ele><time>2026-04-06T10:06:34.001Z</time></trkpt><trkpt lat="43.621908923806714" lon="2.4402393758375793"><ele>666.0</ele><time>2026-04-06T10:06:35.001Z</time></trkpt><trkpt lat="43.62174673022971" lon="2.440450524870426"><ele>666.0</ele><time>2026-04-06T10:06:36.001Z</time></trkpt><trkpt lat="43.621593403495346" lon="2.440653562829865"><ele>666.0</ele><time>2026-04-06T10:06:37.001Z</time></trkpt><trkpt lat="43.62143627878531" lon="2.4408665249824706"><ele>667.0</ele><time>2026-04-06T10:06:38.001Z</time></trkpt><trkpt lat="43.62125944146446" lon="2.4411015229542152"><ele>668.0</ele><time>2026-04-06T10:06:39.001Z</time></trkpt><trkpt lat="43.62108415935188" lon="2.4413339853871094"><ele>668.0</ele><time>2026-04-06T10:06:40.001Z</time></trkpt><trkpt lat="43.62090557760721" lon="2.4415496643414585"><ele>668.0</ele><time>2026-04-06T10:06:41.001Z</time></trkpt><trkpt lat="43.62071346297209" lon="2.441773195649425"><ele>668.0</ele><time>2026-04-06T10:06:42.001Z</time></trkpt><trkpt lat="43.62052114496654" lon="2.4420002453785457"><ele>668.0</ele><time>2026-04-06T10:06:43Z</time></trkpt><trkpt lat="43.62034430909797" lon="2.44222532620931"><ele>666.6666666666666</ele><time>2026-04-06T10:06:44Z</time></trkpt><trkpt lat="43.62018047769288" lon="2.4424397534600018"><ele>665.3333333333334</ele><time>2026-04-06T10:06:45Z</time></trkpt><trkpt lat="43.62002204439735" lon="2.4426458022240385"><ele>664.0</ele><time>2026-04-06T10:06:46Z</time></trkpt><trkpt lat="43.619866418692816" lon="2.442840628727513"><ele>663.0</ele><time>2026-04-06T10:06:47Z</time></trkpt><trkpt lat="43.6197063527357" lon="2.4430389379920183"><ele>662.0</ele><time>2026-04-06T10:06:48Z</time></trkpt><trkpt lat="43.619549878406524" lon="2.44322820301802"><ele>661.0</ele><time>2026-04-06T10:06:49Z</time></trkpt><trkpt lat="43.619399253206694" lon="2.443418543226984"><ele>660.6666666666667</ele><time>2026-04-06T10:06:50Z</time></trkpt><trkpt lat="43.619248343609996" lon="2.4436097488631097"><ele>660.3333333333334</ele><time>2026-04-06T10:06:51Z</time></trkpt><trkpt lat="43.619096776007446" lon="2.4438131975716018"><ele>660.0</ele><time>2026-04-06T10:06:52Z</time></trkpt><trkpt lat="43.61895639863876" lon="2.4440250544973474"><ele>659.0</ele><time>2026-04-06T10:06:53Z</time></trkpt><trkpt lat="43.618830396273054" lon="2.444250046963032"><ele>658.0</ele><time>2026-04-06T10:06:54Z</time></trkpt><trkpt lat="43.61871432990387" lon="2.4444741519951734"><ele>657.0</ele><time>2026-04-06T10:06:55Z</time></trkpt><trkpt lat="43.618594512183094" lon="2.4446965017505313"><ele>656.3333333333334</ele><time>2026-04-06T10:06:56Z</time></trkpt><trkpt lat="43.61847192922" lon="2.4449171185917202"><ele>655.6666666666667</ele><time>2026-04-06T10:06:57Z</time></trkpt><trkpt lat="43.618351000396984" lon="2.445133489557776"><ele>655.0</ele><time>2026-04-06T10:06:58Z</time></trkpt><trkpt lat="43.618237491183805" lon="2.445344114319342"><ele>650.3333333333334</ele><time>2026-04-06T10:06:59Z</time></trkpt><trkpt lat="43.61812321637099" lon="2.445536465185634"><ele>645.6666666666666</ele><time>2026-04-06T10:07:00Z</time></trkpt><trkpt lat="43.6179908736479" lon="2.4457024001414256"><ele>641.0</ele><time>2026-04-06T10:07:01Z</time></trkpt><trkpt lat="43.617849488023566" lon="2.445855777304867"><ele>640.3333333333333</ele><time>2026-04-06T10:07:02Z</time></trkpt><trkpt lat="43.617713274968494" lon="2.4460155130740753"><ele>639.6666666666666</ele><time>2026-04-06T10:07:03Z</time></trkpt><trkpt lat="43.61758439167512" lon="2.4461855200836093"><ele>639.0</ele><time>2026-04-06T10:07:04Z</time></trkpt><trkpt lat="43.61746778059866" lon="2.446378128679327"><ele>639.0</ele><time>2026-04-06T10:07:05Z</time></trkpt><trkpt lat="43.61737783558813" lon="2.4465916255409947"><ele>639.0</ele><time>2026-04-06T10:07:06Z</time></trkpt><trkpt lat="43.61731069254587" lon="2.4468149139060293"><ele>639.0</ele><time>2026-04-06T10:07:07Z</time></trkpt><trkpt lat="43.61726929023567" lon="2.4470365405271624"><ele>635.3333333333334</ele><time>2026-04-06T10:07:08Z</time></trkpt><trkpt lat="43.617244756930404" lon="2.4472604640966376"><ele>631.6666666666667</ele><time>2026-04-06T10:07:09Z</time></trkpt><trkpt lat="43.61723979611736" lon="2.4474796421382528"><ele>628.0</ele><time>2026-04-06T10:07:10Z</time></trkpt><trkpt lat="43.617243761189165" lon="2.447697571319657"><ele>628.0</ele><time>2026-04-06T10:07:11Z</time></trkpt><trkpt lat="43.617256416924455" lon="2.4479116734661956"><ele>628.0</ele><time>2026-04-06T10:07:12Z</time></trkpt><trkpt lat="43.61727417958536" lon="2.448123184856753"><ele>628.0</ele><time>2026-04-06T10:07:13Z</time></trkpt><trkpt lat="43.61729278301226" lon="2.4483355823630797"><ele>627.0</ele><time>2026-04-06T10:07:14Z</time></trkpt><trkpt lat="43.61730929594941" lon="2.4485538602495667"><ele>626.0</ele><time>2026-04-06T10:07:15Z</time></trkpt><trkpt lat="43.617326165122655" lon="2.448783874195165"><ele>625.0</ele><time>2026-04-06T10:07:16Z</time></trkpt><trkpt lat="43.61734820846717" lon="2.4490131755200464"><ele>624.6666666666667</ele><time>2026-04-06T10:07:17Z</time></trkpt><trkpt lat="43.61736840463993" lon="2.4492569124520247"><ele>624.3333333333334</ele><time>2026-04-06T10:07:18Z</time></trkpt><trkpt lat="43.617384285444096" lon="2.449509024145806"><ele>624.0</ele><time>2026-04-06T10:07:19Z</time></trkpt><trkpt lat="43.61740020156662" lon="2.4497580635476535"><ele>622.6666666666666</ele><time>2026-04-06T10:07:20Z</time></trkpt><trkpt lat="43.617415025526284" lon="2.4500024366257858"><ele>621.3333333333333</ele><time>2026-04-06T10:07:21Z</time></trkpt><trkpt lat="43.61742893023767" lon="2.4502404687553256"><ele>620.0</ele><time>2026-04-06T10:07:22Z</time></trkpt><trkpt lat="43.617441633984235" lon="2.450474011661903"><ele>619.0</ele><time>2026-04-06T10:07:23Z</time></trkpt><trkpt lat="43.61745382090873" lon="2.4507133972637556"><ele>618.0</ele><time>2026-04-06T10:07:24Z</time></trkpt><trkpt lat="43.617467412272674" lon="2.4509494162112184"><ele>617.0</ele><time>2026-04-06T10:07:25Z</time></trkpt><trkpt lat="43.617486434471" lon="2.4511828729202816"><ele>614.6666666666666</ele><time>2026-04-06T10:07:26Z</time></trkpt><trkpt lat="43.617502931947094" lon="2.4514172228004423"><ele>612.3333333333334</ele><time>2026-04-06T10:07:27Z</time></trkpt><trkpt lat="43.617517339530146" lon="2.451654721047419"><ele>610.0</ele><time>2026-04-06T10:07:28Z</time></trkpt><trkpt lat="43.6175285545051" lon="2.4518924666819353"><ele>608.3333333333334</ele><time>2026-04-06T10:07:29Z</time></trkpt><trkpt lat="43.6175268688413" lon="2.452137064828912"><ele>606.6666666666666</ele><time>2026-04-06T10:07:30Z</time></trkpt><trkpt lat="43.617498690755" lon="2.4523741953305342"><ele>605.0</ele><time>2026-04-06T10:07:31Z</time></trkpt><trkpt lat="43.617448061749585" lon="2.4526068491596447"><ele>605.0</ele><time>2026-04-06T10:07:32Z</time></trkpt><trkpt lat="43.6173954706077" lon="2.4528301447644125"><ele>605.0</ele><time>2026-04-06T10:07:33Z</time></trkpt><trkpt lat="43.61734830505404" lon="2.4530520405994074"><ele>605.0</ele><time>2026-04-06T10:07:34Z</time></trkpt><trkpt lat="43.617310865191556" lon="2.4532787172623176"><ele>605.0</ele><time>2026-04-06T10:07:35Z</time></trkpt><trkpt lat="43.61729214011217" lon="2.4535131663773"><ele>605.0</ele><time>2026-04-06T10:07:36Z</time></trkpt><trkpt lat="43.61729989436976" lon="2.4537521959447868"><ele>605.0</ele><time>2026-04-06T10:07:37Z</time></trkpt><trkpt lat="43.61732071432729" lon="2.4539933955640163"><ele>605.0</ele><time>2026-04-06T10:07:38Z</time></trkpt><trkpt lat="43.61734898259752" lon="2.4542412542254044"><ele>605.0</ele><time>2026-04-06T10:07:39Z</time></trkpt><trkpt lat="43.61738019437283" lon="2.4544919200544544"><ele>605.0</ele><time>2026-04-06T10:07:40Z</time></trkpt><trkpt lat="43.6174116863548" lon="2.4547433675131325"><ele>604.0</ele><time>2026-04-06T10:07:41Z</time></trkpt><trkpt lat="43.617441765708755" lon="2.454995726348174"><ele>603.0</ele><time>2026-04-06T10:07:42Z</time></trkpt><trkpt lat="43.617468684754755" lon="2.4552499780478807"><ele>602.0</ele><time>2026-04-06T10:07:43Z</time></trkpt><trkpt lat="43.617479235669094" lon="2.455511347297535"><ele>600.3333333333333</ele><time>2026-04-06T10:07:44Z</time></trkpt><trkpt lat="43.617462156116694" lon="2.4557784635982594"><ele>598.6666666666666</ele><time>2026-04-06T10:07:45Z</time></trkpt><trkpt lat="43.61743192343872" lon="2.4560351350645875"><ele>597.0</ele><time>2026-04-06T10:07:46Z</time></trkpt><trkpt lat="43.617392830117176" lon="2.4563025560405674"><ele>596.6666666666666</ele><time>2026-04-06T10:07:47Z</time></trkpt><trkpt lat="43.61735797984554" lon="2.456570208576807"><ele>596.3333333333333</ele><time>2026-04-06T10:07:48Z</time></trkpt><trkpt lat="43.61732136870525" lon="2.4568353280112882"><ele>596.0</ele><time>2026-04-06T10:07:49Z</time></trkpt><trkpt lat="43.617281218324706" lon="2.45710385153009"><ele>596.0</ele><time>2026-04-06T10:07:50Z</time></trkpt><trkpt lat="43.61724491025095" lon="2.457367732439416"><ele>596.0</ele><time>2026-04-06T10:07:51Z</time></trkpt><trkpt lat="43.61721637484807" lon="2.4576226169280253"><ele>596.0</ele><time>2026-04-06T10:07:52Z</time></trkpt><trkpt lat="43.617182974922834" lon="2.457870875310274"><ele>595.0</ele><time>2026-04-06T10:07:53Z</time></trkpt><trkpt lat="43.61715276532913" lon="2.45810450503883"><ele>594.0</ele><time>2026-04-06T10:07:54Z</time></trkpt><trkpt lat="43.61712966673976" lon="2.45831517952486"><ele>593.0</ele><time>2026-04-06T10:07:55Z</time></trkpt><trkpt lat="43.61712742247741" lon="2.4585056915889263"><ele>593.0</ele><time>2026-04-06T10:07:56Z</time></trkpt><trkpt lat="43.61715811946134" lon="2.458676747799839"><ele>593.0</ele><time>2026-04-06T10:07:57Z</time></trkpt><trkpt lat="43.617220574666206" lon="2.4588322973865857"><ele>593.0</ele><time>2026-04-06T10:07:58Z</time></trkpt><trkpt lat="43.617298363473715" lon="2.4589683804758433"><ele>593.0</ele><time>2026-04-06T10:07:59Z</time></trkpt><trkpt lat="43.61739275542143" lon="2.4590844895769837"><ele>590.5</ele><time>2026-04-06T10:08:00Z</time></trkpt><trkpt lat="43.61750549555807" lon="2.459177310716825"><ele>588.0</ele><time>2026-04-06T10:08:01Z</time></trkpt><trkpt lat="43.61763676454806" lon="2.4592393201898415"><ele>585.5</ele><time>2026-04-06T10:08:02Z</time></trkpt><trkpt lat="43.6177778415508" lon="2.4592731209149012"><ele>583.0</ele><time>2026-04-06T10:08:03Z</time></trkpt><trkpt lat="43.617927296338955" lon="2.4593093366580163"><ele>583.0</ele><time>2026-04-06T10:08:04Z</time></trkpt><trkpt lat="43.61807290858527" lon="2.459376109650271"><ele>583.0</ele><time>2026-04-06T10:08:05Z</time></trkpt><trkpt lat="43.61820524816128" lon="2.4594771296182354"><ele>583.0</ele><time>2026-04-06T10:08:06Z</time></trkpt><trkpt lat="43.61832257503139" lon="2.4596084220569523"><ele>578.0</ele><time>2026-04-06T10:08:07Z</time></trkpt><trkpt lat="43.618427536903425" lon="2.4597565948846545"><ele>573.0</ele><time>2026-04-06T10:08:08Z</time></trkpt><trkpt lat="43.61851523391379" lon="2.4599380362771948"><ele>568.0</ele><time>2026-04-06T10:08:09Z</time></trkpt><trkpt lat="43.618580263587425" lon="2.4601466995368844"><ele>568.0</ele><time>2026-04-06T10:08:10Z</time></trkpt><trkpt lat="43.61863629948203" lon="2.460364329612294"><ele>568.0</ele><time>2026-04-06T10:08:11Z</time></trkpt><trkpt lat="43.61869717898326" lon="2.460582781787685"><ele>568.0</ele><time>2026-04-06T10:08:12Z</time></trkpt><trkpt lat="43.618757431267795" lon="2.4607963051173587"><ele>567.3333333333334</ele><time>2026-04-06T10:08:13Z</time></trkpt><trkpt lat="43.61881822026196" lon="2.4610082048456774"><ele>566.6666666666666</ele><time>2026-04-06T10:08:14Z</time></trkpt><trkpt lat="43.61888271613704" lon="2.461221811866028"><ele>566.0</ele><time>2026-04-06T10:08:15Z</time></trkpt><trkpt lat="43.61894695269643" lon="2.4614375609957757"><ele>566.0</ele><time>2026-04-06T10:08:16Z</time></trkpt><trkpt lat="43.61900858037126" lon="2.461656179153689"><ele>566.0</ele><time>2026-04-06T10:08:17Z</time></trkpt><trkpt lat="43.61907142502607" lon="2.4618769246041516"><ele>566.0</ele><time>2026-04-06T10:08:18Z</time></trkpt><trkpt lat="43.61913992953921" lon="2.462094941021083"><ele>562.0</ele><time>2026-04-06T10:08:19Z</time></trkpt><trkpt lat="43.61921184491631" lon="2.462315159552553"><ele>558.0</ele><time>2026-04-06T10:08:20Z</time></trkpt><trkpt lat="43.61929553317507" lon="2.462528762752635"><ele>554.0</ele><time>2026-04-06T10:08:21Z</time></trkpt><trkpt lat="43.619400310744574" lon="2.4627115009483256"><ele>553.75</ele><time>2026-04-06T10:08:22.001Z</time></trkpt><trkpt lat="43.61950947275203" lon="2.462858819116227"><ele>553.5</ele><time>2026-04-06T10:08:23.001Z</time></trkpt><trkpt lat="43.619614016232504" lon="2.462994894601869"><ele>553.25</ele><time>2026-04-06T10:08:24.001Z</time></trkpt><trkpt lat="43.61971425528399" lon="2.4631175520889"><ele>553.0</ele><time>2026-04-06T10:08:25.001Z</time></trkpt><trkpt lat="43.619825919187875" lon="2.4632329219326468"><ele>553.0</ele><time>2026-04-06T10:08:26.001Z</time></trkpt><trkpt lat="43.61995010250843" lon="2.463318297575126"><ele>553.0</ele><time>2026-04-06T10:08:27.001Z</time></trkpt><trkpt lat="43.62007922486723" lon="2.4633704936410585"><ele>553.0</ele><time>2026-04-06T10:08:28.001Z</time></trkpt><trkpt lat="43.62021110115231" lon="2.4633986002506103"><ele>553.0</ele><time>2026-04-06T10:08:29.001Z</time></trkpt><trkpt lat="43.62035520371325" lon="2.463438772468905"><ele>554.0</ele><time>2026-04-06T10:08:30.001Z</time></trkpt><trkpt lat="43.620504265100315" lon="2.4634894738623587"><ele>555.0</ele><time>2026-04-06T10:08:31.001Z</time></trkpt><trkpt lat="43.62061627946775" lon="2.4635608240776548"><ele>556.0</ele><time>2026-04-06T10:08:32.001Z</time></trkpt><trkpt lat="43.620725224451135" lon="2.463676934084411"><ele>557.0</ele><time>2026-04-06T10:08:33.001Z</time></trkpt><trkpt lat="43.62083064462823" lon="2.4638168182882096"><ele>551.6666666666666</ele><time>2026-04-06T10:08:34.001Z</time></trkpt><trkpt lat="43.620931387723154" lon="2.4639677433797806"><ele>546.3333333333334</ele><time>2026-04-06T10:08:35.001Z</time></trkpt><trkpt lat="43.621025754729665" lon="2.464144840233274"><ele>541.0</ele><time>2026-04-06T10:08:36.001Z</time></trkpt><trkpt lat="43.62112783014789" lon="2.464350780642993"><ele>541.0</ele><time>2026-04-06T10:08:37.001Z</time></trkpt><trkpt lat="43.621216428221686" lon="2.464554534285121"><ele>541.0</ele><time>2026-04-06T10:08:38.001Z</time></trkpt><trkpt lat="43.621285432648875" lon="2.464742510062368"><ele>541.0</ele><time>2026-04-06T10:08:39.001Z</time></trkpt><trkpt lat="43.62135726045363" lon="2.464928522868985"><ele>541.0</ele><time>2026-04-06T10:08:40.001Z</time></trkpt><trkpt lat="43.621433362131626" lon="2.4651282357783653"><ele>541.0</ele><time>2026-04-06T10:08:41.001Z</time></trkpt><trkpt lat="43.62149775899848" lon="2.465325827527093"><ele>541.0</ele><time>2026-04-06T10:08:42.001Z</time></trkpt><trkpt lat="43.62159129117621" lon="2.4655625891847595"><ele>539.0</ele><time>2026-04-06T10:08:43.001Z</time></trkpt><trkpt lat="43.621706014354515" lon="2.4658016364535147"><ele>537.0</ele><time>2026-04-06T10:08:44.001Z</time></trkpt><trkpt lat="43.621806575177445" lon="2.4659887457906473"><ele>535.0</ele><time>2026-04-06T10:08:45.001Z</time></trkpt><trkpt lat="43.62191317864706" lon="2.4662468481580127"><ele>534.0</ele><time>2026-04-06T10:08:46.001Z</time></trkpt><trkpt lat="43.62206832645239" lon="2.4664923669875063"><ele>533.0</ele><time>2026-04-06T10:08:47.001Z</time></trkpt><trkpt lat="43.62216274546111" lon="2.466685899745323"><ele>532.0</ele><time>2026-04-06T10:08:48.001Z</time></trkpt><trkpt lat="43.622255078325274" lon="2.466885030699445"><ele>532.0</ele><time>2026-04-06T10:08:49.001Z</time></trkpt><trkpt lat="43.62235188319096" lon="2.467082230200582"><ele>532.0</ele><time>2026-04-06T10:08:50.001Z</time></trkpt><trkpt lat="43.62244565149217" lon="2.467270943497017"><ele>532.0</ele><time>2026-04-06T10:08:51.001Z</time></trkpt><trkpt lat="43.6225362031039" lon="2.4674547120939523"><ele>530.6666666666667</ele><time>2026-04-06T10:08:52.001Z</time></trkpt><trkpt lat="43.62262791808212" lon="2.467645924005549"><ele>529.3333333333334</ele><time>2026-04-06T10:08:53.001Z</time></trkpt><trkpt lat="43.622718590893236" lon="2.46783618660811"><ele>528.0</ele><time>2026-04-06T10:08:54.001Z</time></trkpt><trkpt lat="43.622808773990336" lon="2.468033788890596"><ele>529.3333333333334</ele><time>2026-04-06T10:08:55.001Z</time></trkpt><trkpt lat="43.62290175595268" lon="2.4682281562726294"><ele>530.6666666666667</ele><time>2026-04-06T10:08:56.001Z</time></trkpt><trkpt lat="43.62299322588879" lon="2.468415019250413"><ele>532.0</ele><time>2026-04-06T10:08:57.001Z</time></trkpt><trkpt lat="43.623080791312574" lon="2.4685981981330434"><ele>530.6666666666667</ele><time>2026-04-06T10:08:58.001Z</time></trkpt><trkpt lat="43.62316635777052" lon="2.4687845763310743"><ele>529.3333333333334</ele><time>2026-04-06T10:08:59.001Z</time></trkpt><trkpt lat="43.62325130921999" lon="2.4689653056318863"><ele>528.0</ele><time>2026-04-06T10:09:00.001Z</time></trkpt><trkpt lat="43.62333848454079" lon="2.4691450207183174"><ele>528.0</ele><time>2026-04-06T10:09:01.001Z</time></trkpt><trkpt lat="43.62342378587757" lon="2.4693265556212656"><ele>528.0</ele><time>2026-04-06T10:09:02.001Z</time></trkpt><trkpt lat="43.62350954487236" lon="2.469510529587664"><ele>528.0</ele><time>2026-04-06T10:09:03.001Z</time></trkpt><trkpt lat="43.62359786457437" lon="2.4696968491169997"><ele>525.6666666666666</ele><time>2026-04-06T10:09:04.001Z</time></trkpt><trkpt lat="43.62368717127397" lon="2.4698828848208185"><ele>523.3333333333333</ele><time>2026-04-06T10:09:05.001Z</time></trkpt><trkpt lat="43.623776030243526" lon="2.4700716331507637"><ele>521.0</ele><time>2026-04-06T10:09:06.001Z</time></trkpt><trkpt lat="43.623862220387366" lon="2.470253784597558"><ele>521.0</ele><time>2026-04-06T10:09:07Z</time></trkpt><trkpt lat="43.623942385240156" lon="2.4704267800860285"><ele>521.0</ele><time>2026-04-06T10:09:08Z</time></trkpt><trkpt lat="43.62402866132224" lon="2.470597473729987"><ele>521.0</ele><time>2026-04-06T10:09:09Z</time></trkpt><trkpt lat="43.624107937210375" lon="2.4707556257897383"><ele>521.0</ele><time>2026-04-06T10:09:10Z</time></trkpt><trkpt lat="43.62416635027567" lon="2.4709342797333074"><ele>520.0</ele><time>2026-04-06T10:09:11Z</time></trkpt><trkpt lat="43.62420947884488" lon="2.4711117814140335"><ele>519.0</ele><time>2026-04-06T10:09:12Z</time></trkpt><trkpt lat="43.624251757361215" lon="2.4713028188868846"><ele>518.0</ele><time>2026-04-06T10:09:13Z</time></trkpt><trkpt lat="43.62429977888571" lon="2.471520312306808"><ele>517.0</ele><time>2026-04-06T10:09:14Z</time></trkpt><trkpt lat="43.624346629072114" lon="2.4717606849996514"><ele>517.3333333333334</ele><time>2026-04-06T10:09:15Z</time></trkpt><trkpt lat="43.62437715976828" lon="2.471940225636844"><ele>517.6666666666666</ele><time>2026-04-06T10:09:16Z</time></trkpt><trkpt lat="43.62444728326095" lon="2.47223280597785"><ele>518.0</ele><time>2026-04-06T10:09:17Z</time></trkpt><trkpt lat="43.624535928217576" lon="2.4724993508006077"><ele>516.25</ele><time>2026-04-06T10:09:18Z</time></trkpt><trkpt lat="43.624592781748" lon="2.472700448200513"><ele>514.5</ele><time>2026-04-06T10:09:19Z</time></trkpt><trkpt lat="43.624662692503804" lon="2.4728802616248595"><ele>512.75</ele><time>2026-04-06T10:09:20Z</time></trkpt><trkpt lat="43.6247495647661" lon="2.473026581954468"><ele>511.0</ele><time>2026-04-06T10:09:21Z</time></trkpt><trkpt lat="43.624852036128665" lon="2.4731329433775118"><ele>510.75</ele><time>2026-04-06T10:09:22Z</time></trkpt><trkpt lat="43.62496447901133" lon="2.4732239700499035"><ele>510.5</ele><time>2026-04-06T10:09:23Z</time></trkpt><trkpt lat="43.625086658905516" lon="2.4732917923967794"><ele>510.25</ele><time>2026-04-06T10:09:24Z</time></trkpt><trkpt lat="43.625214608785406" lon="2.4733673052805876"><ele>510.0</ele><time>2026-04-06T10:09:25Z</time></trkpt><trkpt lat="43.62534812590406" lon="2.4734099477523115"><ele>509.0</ele><time>2026-04-06T10:09:26Z</time></trkpt><trkpt lat="43.62548377327382" lon="2.4734497715525965"><ele>508.0</ele><time>2026-04-06T10:09:27Z</time></trkpt><trkpt lat="43.62562153192962" lon="2.4734694450588908"><ele>507.0</ele><time>2026-04-06T10:09:28Z</time></trkpt><trkpt lat="43.6257481372972" lon="2.4735204149167247"><ele>506.0</ele><time>2026-04-06T10:09:29Z</time></trkpt><trkpt lat="43.62586783656329" lon="2.4736004244713534"><ele>506.0</ele><time>2026-04-06T10:09:30Z</time></trkpt><trkpt lat="43.62597655749714" lon="2.4737111277488997"><ele>506.0</ele><time>2026-04-06T10:09:31Z</time></trkpt><trkpt lat="43.62606837645404" lon="2.4738465483444116"><ele>506.0</ele><time>2026-04-06T10:09:32Z</time></trkpt><trkpt lat="43.62613241982618" lon="2.474012887381628"><ele>506.0</ele><time>2026-04-06T10:09:33Z</time></trkpt><trkpt lat="43.62617083997853" lon="2.4741982379914598"><ele>506.0</ele><time>2026-04-06T10:09:34Z</time></trkpt><trkpt lat="43.626178297080386" lon="2.474391287093661"><ele>506.0</ele><time>2026-04-06T10:09:35Z</time></trkpt><trkpt lat="43.62616146469781" lon="2.4745720492272785"><ele>506.0</ele><time>2026-04-06T10:09:36Z</time></trkpt><trkpt lat="43.62613188119454" lon="2.474751516279346"><ele>506.0</ele><time>2026-04-06T10:09:37Z</time></trkpt><trkpt lat="43.62609760972508" lon="2.4749338534627023"><ele>507.3333333333333</ele><time>2026-04-06T10:09:38Z</time></trkpt><trkpt lat="43.62607457016498" lon="2.4751302262076504"><ele>508.66666666666663</ele><time>2026-04-06T10:09:39Z</time></trkpt><trkpt lat="43.626083155697295" lon="2.475358671318454"><ele>510.0</ele><time>2026-04-06T10:09:40Z</time></trkpt><trkpt lat="43.62610770642161" lon="2.475609603848205"><ele>513.6666666666666</ele><time>2026-04-06T10:09:41Z</time></trkpt><trkpt lat="43.62615668861114" lon="2.4758881713356993"><ele>517.3333333333333</ele><time>2026-04-06T10:09:42Z</time></trkpt><trkpt lat="43.626221564059826" lon="2.476187215103956"><ele>521.0</ele><time>2026-04-06T10:09:43Z</time></trkpt><trkpt lat="43.626293151799274" lon="2.476483045884252"><ele>522.0</ele><time>2026-04-06T10:09:44Z</time></trkpt><trkpt lat="43.62631761248984" lon="2.476801530246239"><ele>523.0</ele><time>2026-04-06T10:09:45Z</time></trkpt><trkpt lat="43.626314628531205" lon="2.477108119294367"><ele>523.3333333333334</ele><time>2026-04-06T10:09:46Z</time></trkpt><trkpt lat="43.626298640080876" lon="2.4774115801077587"><ele>523.6666666666666</ele><time>2026-04-06T10:09:47Z</time></trkpt><trkpt lat="43.626299693700815" lon="2.477713535685451"><ele>524.0</ele><time>2026-04-06T10:09:48Z</time></trkpt><trkpt lat="43.62632556141246" lon="2.478013986309397"><ele>524.0</ele><time>2026-04-06T10:09:49Z</time></trkpt><trkpt lat="43.62636298253805" lon="2.4783155396626877"><ele>524.0</ele><time>2026-04-06T10:09:50Z</time></trkpt><trkpt lat="43.62644129343032" lon="2.478590022011517"><ele>524.0</ele><time>2026-04-06T10:09:51Z</time></trkpt><trkpt lat="43.62653844655519" lon="2.4788742037896383"><ele>524.0</ele><time>2026-04-06T10:09:52Z</time></trkpt><trkpt lat="43.62663948580251" lon="2.4791457044908065"><ele>524.0</ele><time>2026-04-06T10:09:53Z</time></trkpt><trkpt lat="43.626750711353715" lon="2.4794072568635874"><ele>524.0</ele><time>2026-04-06T10:09:54Z</time></trkpt><trkpt lat="43.626842340652175" lon="2.4796590353128862"><ele>523.6666666666666</ele><time>2026-04-06T10:09:55Z</time></trkpt><trkpt lat="43.62692791811489" lon="2.479779968966385"><ele>523.3333333333334</ele><time>2026-04-06T10:09:56Z</time></trkpt><trkpt lat="43.6270113657515" lon="2.4799715712897576"><ele>523.0</ele><time>2026-04-06T10:09:57Z</time></trkpt><trkpt lat="43.627115391158995" lon="2.480172013139349"><ele>521.6666666666667</ele><time>2026-04-06T10:09:58Z</time></trkpt><trkpt lat="43.62720702595362" lon="2.4803586582592625"><ele>520.3333333333334</ele><time>2026-04-06T10:09:59Z</time></trkpt><trkpt lat="43.627288959937324" lon="2.4805481381322267"><ele>519.0</ele><time>2026-04-06T10:10:00Z</time></trkpt><trkpt lat="43.627379514939435" lon="2.4807719450415564"><ele>519.0</ele><time>2026-04-06T10:10:01Z</time></trkpt><trkpt lat="43.627464225316096" lon="2.4809910049615436"><ele>519.0</ele><time>2026-04-06T10:10:02Z</time></trkpt><trkpt lat="43.627541887616" lon="2.4811974476588436"><ele>519.0</ele><time>2026-04-06T10:10:03Z</time></trkpt><trkpt lat="43.62762270363267" lon="2.4813873681359833"><ele>521.0</ele><time>2026-04-06T10:10:04Z</time></trkpt><trkpt lat="43.62771540711273" lon="2.4815970136098433"><ele>523.0</ele><time>2026-04-06T10:10:05Z</time></trkpt><trkpt lat="43.62781462118269" lon="2.4818153779852623"><ele>525.0</ele><time>2026-04-06T10:10:06Z</time></trkpt><trkpt lat="43.6278989664824" lon="2.4820131069181524"><ele>528.3333333333334</ele><time>2026-04-06T10:10:07Z</time></trkpt><trkpt lat="43.62798434278524" lon="2.4822152916329983"><ele>531.6666666666667</ele><time>2026-04-06T10:10:08Z</time></trkpt><trkpt lat="43.62808654238437" lon="2.4824437049956662"><ele>535.0</ele><time>2026-04-06T10:10:09Z</time></trkpt><trkpt lat="43.62817772860729" lon="2.4826567275359186"><ele>535.0</ele><time>2026-04-06T10:10:10Z</time></trkpt><trkpt lat="43.628267935694865" lon="2.4828895671247024"><ele>535.0</ele><time>2026-04-06T10:10:11Z</time></trkpt><trkpt lat="43.628354623206555" lon="2.4831262654920216"><ele>535.0</ele><time>2026-04-06T10:10:12Z</time></trkpt><trkpt lat="43.628440614310264" lon="2.4833707072676012"><ele>535.0</ele><time>2026-04-06T10:10:13Z</time></trkpt><trkpt lat="43.62852526883585" lon="2.483577875846271"><ele>535.0</ele><time>2026-04-06T10:10:14Z</time></trkpt><trkpt lat="43.62860429916686" lon="2.483802360798101"><ele>535.0</ele><time>2026-04-06T10:10:15Z</time></trkpt><trkpt lat="43.62868388237464" lon="2.484022840260398"><ele>529.3333333333334</ele><time>2026-04-06T10:10:16Z</time></trkpt><trkpt lat="43.6287615896809" lon="2.4842296137146183"><ele>523.6666666666666</ele><time>2026-04-06T10:10:17Z</time></trkpt><trkpt lat="43.628836606989466" lon="2.484439910946014"><ele>518.0</ele><time>2026-04-06T10:10:18Z</time></trkpt><trkpt lat="43.628915728608234" lon="2.484645508704199"><ele>517.3333333333333</ele><time>2026-04-06T10:10:19Z</time></trkpt><trkpt lat="43.62898875597846" lon="2.48484453316808"><ele>516.6666666666666</ele><time>2026-04-06T10:10:20Z</time></trkpt><trkpt lat="43.62905541600756" lon="2.4850280556792805"><ele>516.0</ele><time>2026-04-06T10:10:21Z</time></trkpt><trkpt lat="43.62912119137478" lon="2.4852087841699357"><ele>516.0</ele><time>2026-04-06T10:10:22Z</time></trkpt><trkpt lat="43.62918449712889" lon="2.485376859663444"><ele>516.0</ele><time>2026-04-06T10:10:23Z</time></trkpt><trkpt lat="43.6292445121221" lon="2.4855610690178285"><ele>516.0</ele><time>2026-04-06T10:10:24Z</time></trkpt><trkpt lat="43.62930315478141" lon="2.4857296443500387"><ele>516.0</ele><time>2026-04-06T10:10:25Z</time></trkpt><trkpt lat="43.62936114463933" lon="2.4858843786181284"><ele>515.4</ele><time>2026-04-06T10:10:26Z</time></trkpt><trkpt lat="43.62941048540642" lon="2.4860193567863758"><ele>514.8</ele><time>2026-04-06T10:10:27Z</time></trkpt><trkpt lat="43.629451758460505" lon="2.4861159305603286"><ele>514.1999999999999</ele><time>2026-04-06T10:10:28Z</time></trkpt><trkpt lat="43.629483213802736" lon="2.4862063684972973"><ele>513.6</ele><time>2026-04-06T10:10:29Z</time></trkpt><trkpt lat="43.62950955810262" lon="2.4862895989924017"><ele>513.0</ele><time>2026-04-06T10:10:30Z</time></trkpt><trkpt lat="43.629563097863596" lon="2.4864468576198306"><ele>511.2</ele><time>2026-04-06T10:10:32Z</time></trkpt><trkpt lat="43.629595870627725" lon="2.4865529361134233"><ele>509.4</ele><time>2026-04-06T10:10:33Z</time></trkpt><trkpt lat="43.62963473370991" lon="2.48667732819647"><ele>507.59999999999997</ele><time>2026-04-06T10:10:34Z</time></trkpt><trkpt lat="43.62969080053662" lon="2.4868061176022396"><ele>505.79999999999995</ele><time>2026-04-06T10:10:35Z</time></trkpt><trkpt lat="43.62974493676114" lon="2.4869509714203324"><ele>504.0</ele><time>2026-04-06T10:10:36Z</time></trkpt><trkpt lat="43.629793714530955" lon="2.4870832653496473"><ele>504.0</ele><time>2026-04-06T10:10:37Z</time></trkpt><trkpt lat="43.62983921422163" lon="2.4872079244210052"><ele>504.0</ele><time>2026-04-06T10:10:38Z</time></trkpt><trkpt lat="43.629880184445476" lon="2.4873273191064946"><ele>504.0</ele><time>2026-04-06T10:10:39Z</time></trkpt><trkpt lat="43.62991824386902" lon="2.487430716027679"><ele>504.0</ele><time>2026-04-06T10:10:40Z</time></trkpt><trkpt lat="43.62995126069857" lon="2.4875271263142613"><ele>504.0</ele><time>2026-04-06T10:10:41Z</time></trkpt><trkpt lat="43.62998581691611" lon="2.487618611112491"><ele>504.0</ele><time>2026-04-06T10:10:42Z</time></trkpt><trkpt lat="43.63001899571025" lon="2.48771204948666"><ele>504.0</ele><time>2026-04-06T10:10:43Z</time></trkpt><trkpt lat="43.63005928616945" lon="2.487822916124516"><ele>504.0</ele><time>2026-04-06T10:10:44Z</time></trkpt><trkpt lat="43.63010808883388" lon="2.487957877911365"><ele>504.0</ele><time>2026-04-06T10:10:45Z</time></trkpt><trkpt lat="43.630161122270074" lon="2.488104688159569"><ele>504.0</ele><time>2026-04-06T10:10:46Z</time></trkpt><trkpt lat="43.630218146744596" lon="2.488259241213856"><ele>504.0</ele><time>2026-04-06T10:10:47Z</time></trkpt><trkpt lat="43.63028112676473" lon="2.4884416215435614"><ele>501.25</ele><time>2026-04-06T10:10:48Z</time></trkpt><trkpt lat="43.630337559502415" lon="2.488616351471851"><ele>498.5</ele><time>2026-04-06T10:10:49Z</time></trkpt><trkpt lat="43.63039316866468" lon="2.4888061779369255"><ele>495.75</ele><time>2026-04-06T10:10:50Z</time></trkpt><trkpt lat="43.630436048352045" lon="2.4890070708035856"><ele>493.0</ele><time>2026-04-06T10:10:51.001Z</time></trkpt><trkpt lat="43.63047273827015" lon="2.489212944710316"><ele>493.0</ele><time>2026-04-06T10:10:52.001Z</time></trkpt><trkpt lat="43.63050412210802" lon="2.489426720685271"><ele>493.0</ele><time>2026-04-06T10:10:53Z</time></trkpt><trkpt lat="43.63051864476182" lon="2.489641928587369"><ele>493.0</ele><time>2026-04-06T10:10:54Z</time></trkpt><trkpt lat="43.63052116653543" lon="2.48985734220385"><ele>493.0</ele><time>2026-04-06T10:10:55Z</time></trkpt><trkpt lat="43.63051213526598" lon="2.490068483154996"><ele>493.0</ele><time>2026-04-06T10:10:56Z</time></trkpt><trkpt lat="43.63049112568599" lon="2.490277926849412"><ele>493.0</ele><time>2026-04-06T10:10:57Z</time></trkpt><trkpt lat="43.63046497306766" lon="2.4904866133049497"><ele>492.5</ele><time>2026-04-06T10:10:58Z</time></trkpt><trkpt lat="43.63043416383513" lon="2.49068782806586"><ele>492.0</ele><time>2026-04-06T10:10:59Z</time></trkpt><trkpt lat="43.630398209066364" lon="2.490879174637633"><ele>491.5</ele><time>2026-04-06T10:11:00Z</time></trkpt><trkpt lat="43.630357543302935" lon="2.491069220938062"><ele>491.0</ele><time>2026-04-06T10:11:01Z</time></trkpt><trkpt lat="43.63031100921034" lon="2.4912531273104817"><ele>492.5</ele><time>2026-04-06T10:11:02Z</time></trkpt><trkpt lat="43.63025824986315" lon="2.491434066030536"><ele>494.0</ele><time>2026-04-06T10:11:03Z</time></trkpt><trkpt lat="43.63020629294548" lon="2.4916119688901612"><ele>495.5</ele><time>2026-04-06T10:11:04Z</time></trkpt><trkpt lat="43.63015884839368" lon="2.491787094356165"><ele>497.0</ele><time>2026-04-06T10:11:05Z</time></trkpt><trkpt lat="43.63011101201399" lon="2.491955262331987"><ele>495.25</ele><time>2026-04-06T10:11:06Z</time></trkpt><trkpt lat="43.63005544413914" lon="2.4921239073730295"><ele>493.5</ele><time>2026-04-06T10:11:07Z</time></trkpt><trkpt lat="43.63000956510976" lon="2.4922919760490405"><ele>491.75</ele><time>2026-04-06T10:11:08Z</time></trkpt><trkpt lat="43.62996467672615" lon="2.492454792890696"><ele>490.0</ele><time>2026-04-06T10:11:09Z</time></trkpt><trkpt lat="43.62991892196442" lon="2.4926128223763024"><ele>490.0</ele><time>2026-04-06T10:11:10Z</time></trkpt><trkpt lat="43.62987673553688" lon="2.492769236470561"><ele>490.0</ele><time>2026-04-06T10:11:11Z</time></trkpt><trkpt lat="43.6298283427812" lon="2.492931876193035"><ele>490.0</ele><time>2026-04-06T10:11:12Z</time></trkpt><trkpt lat="43.62978132999441" lon="2.493094305731945"><ele>490.0</ele><time>2026-04-06T10:11:13Z</time></trkpt><trkpt lat="43.629678558583116" lon="2.4934305234808045"><ele>489.75</ele><time>2026-04-06T10:11:15Z</time></trkpt><trkpt lat="43.629621740085305" lon="2.4935928193455603"><ele>489.5</ele><time>2026-04-06T10:11:16Z</time></trkpt><trkpt lat="43.62956790403908" lon="2.4937631376472074"><ele>489.25</ele><time>2026-04-06T10:11:17Z</time></trkpt><trkpt lat="43.629518007093694" lon="2.4939244419173336"><ele>489.0</ele><time>2026-04-06T10:11:18Z</time></trkpt><trkpt lat="43.62946771264084" lon="2.494085060032485"><ele>489.0</ele><time>2026-04-06T10:11:19Z</time></trkpt><trkpt lat="43.6294219671239" lon="2.494257021996384"><ele>489.0</ele><time>2026-04-06T10:11:20Z</time></trkpt><trkpt lat="43.62937564288388" lon="2.494413776832808"><ele>489.0</ele><time>2026-04-06T10:11:21Z</time></trkpt><trkpt lat="43.62932478434713" lon="2.4945736337646047"><ele>489.0</ele><time>2026-04-06T10:11:22Z</time></trkpt><trkpt lat="43.62927391166379" lon="2.4947256835046345"><ele>489.0</ele><time>2026-04-06T10:11:23Z</time></trkpt><trkpt lat="43.62922943078633" lon="2.494870061140812"><ele>489.0</ele><time>2026-04-06T10:11:24Z</time></trkpt><trkpt lat="43.62919251279289" lon="2.494998124755954"><ele>489.0</ele><time>2026-04-06T10:11:25Z</time></trkpt><trkpt lat="43.62916726538033" lon="2.495100220835916"><ele>489.0</ele><time>2026-04-06T10:11:26Z</time></trkpt><trkpt lat="43.629153144853106" lon="2.495185177279521"><ele>489.0</ele><time>2026-04-06T10:11:27Z</time></trkpt><trkpt lat="43.62909836612377" lon="2.495335836382475"><ele>489.2</ele><time>2026-04-06T10:11:30Z</time></trkpt><trkpt lat="43.629071286853204" lon="2.4954266564256615"><ele>489.4</ele><time>2026-04-06T10:11:32Z</time></trkpt><trkpt lat="43.62901900875728" lon="2.4955760710070694"><ele>489.6</ele><time>2026-04-06T10:11:34Z</time></trkpt><trkpt lat="43.628976113178474" lon="2.4956879505340077"><ele>489.8</ele><time>2026-04-06T10:11:35Z</time></trkpt><trkpt lat="43.62895450508828" lon="2.495809892962339"><ele>490.0</ele><time>2026-04-06T10:11:36Z</time></trkpt><trkpt lat="43.62892663546658" lon="2.4959259180980413"><ele>490.00000000000006</ele><time>2026-04-06T10:11:37Z</time></trkpt><trkpt lat="43.62890293517348" lon="2.4960289222217793"><ele>490.0</ele><time>2026-04-06T10:11:38Z</time></trkpt><trkpt lat="43.62887469671799" lon="2.496117951419511"><ele>490.0</ele><time>2026-04-06T10:11:39Z</time></trkpt><trkpt lat="43.62886798829906" lon="2.496208813672601"><ele>490.0</ele><time>2026-04-06T10:11:40Z</time></trkpt><trkpt lat="43.628831455710845" lon="2.4963555580206327"><ele>490.00000000000006</ele><time>2026-04-06T10:11:42Z</time></trkpt><trkpt lat="43.628887413472064" lon="2.496452908284542"><ele>490.0</ele><time>2026-04-06T10:11:44Z</time></trkpt><trkpt lat="43.628965104757874" lon="2.4964915402675425"><ele>489.8</ele><time>2026-04-06T10:11:45Z</time></trkpt><trkpt lat="43.629039821172924" lon="2.496563996509571"><ele>489.6</ele><time>2026-04-06T10:11:46Z</time></trkpt><trkpt lat="43.629113937933155" lon="2.496661109602181"><ele>489.4</ele><time>2026-04-06T10:11:47Z</time></trkpt><trkpt lat="43.629189356942334" lon="2.496782657988777"><ele>489.2</ele><time>2026-04-06T10:11:48Z</time></trkpt><trkpt lat="43.629270849243234" lon="2.4969034934532175"><ele>489.0</ele><time>2026-04-06T10:11:49Z</time></trkpt><trkpt lat="43.62935815142873" lon="2.497024755484609"><ele>489.2</ele><time>2026-04-06T10:11:50Z</time></trkpt><trkpt lat="43.62944154897013" lon="2.4971464219139548"><ele>489.4</ele><time>2026-04-06T10:11:51Z</time></trkpt><trkpt lat="43.629515579463664" lon="2.4972638951097195"><ele>489.6</ele><time>2026-04-06T10:11:52Z</time></trkpt><trkpt lat="43.62957271275077" lon="2.4973943627442883"><ele>489.8</ele><time>2026-04-06T10:11:53Z</time></trkpt><trkpt lat="43.6296226514487" lon="2.4975156049033957"><ele>490.0</ele><time>2026-04-06T10:11:54Z</time></trkpt><trkpt lat="43.629669842920094" lon="2.4976277066610133"><ele>490.0</ele><time>2026-04-06T10:11:55Z</time></trkpt><trkpt lat="43.62971722667272" lon="2.4977298882041765"><ele>490.0</ele><time>2026-04-06T10:11:56Z</time></trkpt><trkpt lat="43.629767737668104" lon="2.4978303148149736"><ele>490.0</ele><time>2026-04-06T10:11:57Z</time></trkpt><trkpt lat="43.62981657702822" lon="2.497937255692653"><ele>490.0</ele><time>2026-04-06T10:11:58Z</time></trkpt><trkpt lat="43.62986561893863" lon="2.498061734101207"><ele>490.0</ele><time>2026-04-06T10:11:59Z</time></trkpt><trkpt lat="43.6299219187458" lon="2.4981931202186094"><ele>490.75</ele><time>2026-04-06T10:12:00Z</time></trkpt><trkpt lat="43.62998019809792" lon="2.498321992609968"><ele>491.5</ele><time>2026-04-06T10:12:01Z</time></trkpt><trkpt lat="43.630043744262146" lon="2.498456875999225"><ele>492.25</ele><time>2026-04-06T10:12:02Z</time></trkpt><trkpt lat="43.63010532787624" lon="2.4985917093314347"><ele>493.0</ele><time>2026-04-06T10:12:03Z</time></trkpt><trkpt lat="43.6301626645732" lon="2.498734180115795"><ele>493.25</ele><time>2026-04-06T10:12:04Z</time></trkpt><trkpt lat="43.630226598469804" lon="2.498869822565088"><ele>493.5</ele><time>2026-04-06T10:12:05Z</time></trkpt><trkpt lat="43.63028194656346" lon="2.4990165051131172"><ele>493.75</ele><time>2026-04-06T10:12:06Z</time></trkpt><trkpt lat="43.63033346810482" lon="2.499167512766244"><ele>494.0</ele><time>2026-04-06T10:12:07Z</time></trkpt><trkpt lat="43.63039843404965" lon="2.499309221329091"><ele>494.0</ele><time>2026-04-06T10:12:08Z</time></trkpt><trkpt lat="43.63046278567747" lon="2.499448277513868"><ele>494.0</ele><time>2026-04-06T10:12:09Z</time></trkpt><trkpt lat="43.630534071218214" lon="2.499586079074929"><ele>494.0</ele><time>2026-04-06T10:12:10Z</time></trkpt><trkpt lat="43.63059096140784" lon="2.499729763058923"><ele>494.0</ele><time>2026-04-06T10:12:11Z</time></trkpt><trkpt lat="43.63064957425385" lon="2.4998671732063045"><ele>494.75</ele><time>2026-04-06T10:12:12Z</time></trkpt><trkpt lat="43.63071502791649" lon="2.500006752191319"><ele>495.5</ele><time>2026-04-06T10:12:13Z</time></trkpt><trkpt lat="43.63077769882499" lon="2.500144657590348"><ele>496.25</ele><time>2026-04-06T10:12:14Z</time></trkpt><trkpt lat="43.6308374006208" lon="2.5002853478568206"><ele>497.0</ele><time>2026-04-06T10:12:15Z</time></trkpt><trkpt lat="43.630892869954124" lon="2.500401819756584"><ele>497.5</ele><time>2026-04-06T10:12:16Z</time></trkpt><trkpt lat="43.63094374143326" lon="2.500590100464109"><ele>498.0</ele><time>2026-04-06T10:12:18Z</time></trkpt><trkpt lat="43.630804291539675" lon="2.500684086656455"><ele>498.5</ele><time>2026-04-06T10:12:21Z</time></trkpt><trkpt lat="43.630724623600074" lon="2.5007211912865643"><ele>499.0</ele><time>2026-04-06T10:12:22Z</time></trkpt><trkpt lat="43.63063892263805" lon="2.5007610230959036"><ele>499.0</ele><time>2026-04-06T10:12:23Z</time></trkpt><trkpt lat="43.630544161036916" lon="2.500804808943276"><ele>499.0</ele><time>2026-04-06T10:12:24Z</time></trkpt><trkpt lat="43.630469485813755" lon="2.5008822058346203"><ele>499.0</ele><time>2026-04-06T10:12:25Z</time></trkpt><trkpt lat="43.630376662203666" lon="2.500960066942242"><ele>499.0</ele><time>2026-04-06T10:12:26Z</time></trkpt><trkpt lat="43.630281520059114" lon="2.5010424996891674"><ele>499.0</ele><time>2026-04-06T10:12:27Z</time></trkpt><trkpt lat="43.630185490495876" lon="2.5011346136135333"><ele>499.5</ele><time>2026-04-06T10:12:28Z</time></trkpt><trkpt lat="43.63008439528373" lon="2.501225638458378"><ele>500.0</ele><time>2026-04-06T10:12:29Z</time></trkpt><trkpt lat="43.62997998150114" lon="2.5013218605449454"><ele>500.5</ele><time>2026-04-06T10:12:30Z</time></trkpt><trkpt lat="43.62987414678478" lon="2.501424004795928"><ele>501.0</ele><time>2026-04-06T10:12:31Z</time></trkpt><trkpt lat="43.62976386493169" lon="2.501530141573451"><ele>501.25</ele><time>2026-04-06T10:12:32Z</time></trkpt><trkpt lat="43.629657533586354" lon="2.501632091846859"><ele>501.5</ele><time>2026-04-06T10:12:33Z</time></trkpt><trkpt lat="43.629554811446155" lon="2.5017433599217194"><ele>501.75</ele><time>2026-04-06T10:12:34Z</time></trkpt><trkpt lat="43.6294538824012" lon="2.5018422086593715"><ele>502.0</ele><time>2026-04-06T10:12:35Z</time></trkpt><trkpt lat="43.62935417072978" lon="2.5019405042289433"><ele>502.0</ele><time>2026-04-06T10:12:36Z</time></trkpt><trkpt lat="43.629257277460084" lon="2.502033388943611"><ele>502.0</ele><time>2026-04-06T10:12:37Z</time></trkpt><trkpt lat="43.62916227976667" lon="2.5021269549567062"><ele>502.0</ele><time>2026-04-06T10:12:38Z</time></trkpt><trkpt lat="43.62905649909607" lon="2.5022047549071385"><ele>502.0</ele><time>2026-04-06T10:12:39Z</time></trkpt><trkpt lat="43.628926746412745" lon="2.502218533905931"><ele>504.0</ele><time>2026-04-06T10:12:40Z</time></trkpt><trkpt lat="43.62878852035002" lon="2.5021767341243706"><ele>506.0</ele><time>2026-04-06T10:12:41Z</time></trkpt><trkpt lat="43.62865342148227" lon="2.5021258073118635"><ele>508.0</ele><time>2026-04-06T10:12:42Z</time></trkpt><trkpt lat="43.628515895733926" lon="2.5021119744682747"><ele>510.0</ele><time>2026-04-06T10:12:43Z</time></trkpt><trkpt lat="43.628360622044674" lon="2.502133649278115"><ele>514.3333333333334</ele><time>2026-04-06T10:12:44Z</time></trkpt><trkpt lat="43.62820302930514" lon="2.5021577298030238"><ele>518.6666666666667</ele><time>2026-04-06T10:12:45Z</time></trkpt><trkpt lat="43.628035386589886" lon="2.502169726249594"><ele>523.0</ele><time>2026-04-06T10:12:46Z</time></trkpt><trkpt lat="43.62787290429125" lon="2.5021713211967125"><ele>519.3333333333334</ele><time>2026-04-06T10:12:47Z</time></trkpt><trkpt lat="43.62773181025225" lon="2.502073718766093"><ele>515.6666666666666</ele><time>2026-04-06T10:12:48Z</time></trkpt><trkpt lat="43.62757719121813" lon="2.5020211535407855"><ele>512.0</ele><time>2026-04-06T10:12:49Z</time></trkpt><trkpt lat="43.62743960872132" lon="2.5019962069671724"><ele>512.0</ele><time>2026-04-06T10:12:50Z</time></trkpt><trkpt lat="43.62729645658155" lon="2.50204184119011"><ele>512.0</ele><time>2026-04-06T10:12:51Z</time></trkpt><trkpt lat="43.62715131916319" lon="2.5020372381140916"><ele>512.0</ele><time>2026-04-06T10:12:52Z</time></trkpt><trkpt lat="43.62701996939369" lon="2.5019417045169656"><ele>512.0</ele><time>2026-04-06T10:12:53Z</time></trkpt><trkpt lat="43.626870264744475" lon="2.5018689172371507"><ele>518.0</ele><time>2026-04-06T10:12:54Z</time></trkpt><trkpt lat="43.62671677883159" lon="2.5017731615236127"><ele>524.0</ele><time>2026-04-06T10:12:55Z</time></trkpt><trkpt lat="43.62656986855881" lon="2.5016907461226667"><ele>530.0</ele><time>2026-04-06T10:12:56Z</time></trkpt><trkpt lat="43.626416598419254" lon="2.5015923764168244"><ele>530.0</ele><time>2026-04-06T10:12:57Z</time></trkpt><trkpt lat="43.62631005456237" lon="2.5014313419325314"><ele>530.0</ele><time>2026-04-06T10:12:58Z</time></trkpt><trkpt lat="43.62619394065752" lon="2.5012802674272305"><ele>530.0</ele><time>2026-04-06T10:12:59Z</time></trkpt><trkpt lat="43.626062294127884" lon="2.5011410163185204"><ele>532.0</ele><time>2026-04-06T10:13:00Z</time></trkpt><trkpt lat="43.62592606064523" lon="2.5009983170060437"><ele>534.0</ele><time>2026-04-06T10:13:01Z</time></trkpt><trkpt lat="43.62577830985716" lon="2.5008760941085804"><ele>536.0</ele><time>2026-04-06T10:13:02Z</time></trkpt><trkpt lat="43.6256264311532" lon="2.500731501757159"><ele>536.0</ele><time>2026-04-06T10:13:03Z</time></trkpt><trkpt lat="43.62545866319359" lon="2.5006286493160497"><ele>536.0</ele><time>2026-04-06T10:13:04Z</time></trkpt><trkpt lat="43.62529870490129" lon="2.5005379406731425"><ele>536.0</ele><time>2026-04-06T10:13:05Z</time></trkpt><trkpt lat="43.625138364618046" lon="2.5004373617895936"><ele>532.6666666666666</ele><time>2026-04-06T10:13:06Z</time></trkpt><trkpt lat="43.62495873528599" lon="2.500384713066421"><ele>529.3333333333334</ele><time>2026-04-06T10:13:07Z</time></trkpt><trkpt lat="43.62477536894338" lon="2.5003327071371997"><ele>526.0</ele><time>2026-04-06T10:13:08Z</time></trkpt><trkpt lat="43.624594373044324" lon="2.500304131896121"><ele>530.0</ele><time>2026-04-06T10:13:09Z</time></trkpt><trkpt lat="43.624407318633295" lon="2.5002970222127288"><ele>534.0</ele><time>2026-04-06T10:13:10Z</time></trkpt><trkpt lat="43.624218955779824" lon="2.500301438753328"><ele>538.0</ele><time>2026-04-06T10:13:11Z</time></trkpt><trkpt lat="43.6240342130568" lon="2.5003332468943738"><ele>538.0</ele><time>2026-04-06T10:13:12Z</time></trkpt><trkpt lat="43.623842183409835" lon="2.5003813914055377"><ele>538.0</ele><time>2026-04-06T10:13:13Z</time></trkpt><trkpt lat="43.623660443861" lon="2.5004697876161948"><ele>538.0</ele><time>2026-04-06T10:13:14Z</time></trkpt><trkpt lat="43.62347520795781" lon="2.5005723046636885"><ele>546.6666666666667</ele><time>2026-04-06T10:13:15Z</time></trkpt><trkpt lat="43.62328946002888" lon="2.5006853055069254"><ele>555.3333333333334</ele><time>2026-04-06T10:13:16Z</time></trkpt><trkpt lat="43.6231075318829" lon="2.5008068215212"><ele>564.0</ele><time>2026-04-06T10:13:17Z</time></trkpt><trkpt lat="43.62292850070285" lon="2.500939651324438"><ele>565.0</ele><time>2026-04-06T10:13:18Z</time></trkpt><trkpt lat="43.622764257368544" lon="2.5010757550828937"><ele>566.0</ele><time>2026-04-06T10:13:19Z</time></trkpt><trkpt lat="43.622615334311035" lon="2.5012337902828397"><ele>567.0</ele><time>2026-04-06T10:13:20Z</time></trkpt><trkpt lat="43.62245980328091" lon="2.5014154312696837"><ele>567.0</ele><time>2026-04-06T10:13:21Z</time></trkpt><trkpt lat="43.6223298412252" lon="2.5016062149240397"><ele>567.0</ele><time>2026-04-06T10:13:22Z</time></trkpt><trkpt lat="43.622225418700644" lon="2.5018182836026694"><ele>567.0</ele><time>2026-04-06T10:13:23Z</time></trkpt><trkpt lat="43.62214654621986" lon="2.5020472716994924"><ele>573.3333333333334</ele><time>2026-04-06T10:13:24Z</time></trkpt><trkpt lat="43.62208808543033" lon="2.502304113634834"><ele>579.6666666666667</ele><time>2026-04-06T10:13:25Z</time></trkpt><trkpt lat="43.62203671811737" lon="2.5025719277097784"><ele>586.0</ele><time>2026-04-06T10:13:26Z</time></trkpt><trkpt lat="43.622001438381176" lon="2.5028255487519524"><ele>588.6666666666667</ele><time>2026-04-06T10:13:27Z</time></trkpt><trkpt lat="43.62199293138933" lon="2.503084786514428"><ele>591.3333333333334</ele><time>2026-04-06T10:13:28Z</time></trkpt><trkpt lat="43.6219897096638" lon="2.5033294955585257"><ele>594.0</ele><time>2026-04-06T10:13:29Z</time></trkpt><trkpt lat="43.62199875125297" lon="2.503617831889142"><ele>595.6666666666666</ele><time>2026-04-06T10:13:30Z</time></trkpt><trkpt lat="43.62201892511732" lon="2.50388488330031"><ele>597.3333333333333</ele><time>2026-04-06T10:13:31Z</time></trkpt><trkpt lat="43.62205478848139" lon="2.5041707810105676"><ele>599.0</ele><time>2026-04-06T10:13:32Z</time></trkpt><trkpt lat="43.62209356159612" lon="2.5044590891859446"><ele>598.6666666666666</ele><time>2026-04-06T10:13:33Z</time></trkpt><trkpt lat="43.62212262538763" lon="2.5047214225329766"><ele>598.3333333333334</ele><time>2026-04-06T10:13:34Z</time></trkpt><trkpt lat="43.622172780000824" lon="2.504995291305076"><ele>598.0</ele><time>2026-04-06T10:13:35Z</time></trkpt><trkpt lat="43.62220595497694" lon="2.5052650701711507"><ele>598.3333333333334</ele><time>2026-04-06T10:13:36Z</time></trkpt><trkpt lat="43.622239106583436" lon="2.505534243801253"><ele>598.6666666666666</ele><time>2026-04-06T10:13:37Z</time></trkpt><trkpt lat="43.62227433846479" lon="2.5058210473047846"><ele>599.0</ele><time>2026-04-06T10:13:38Z</time></trkpt><trkpt lat="43.62231043160246" lon="2.5060911373681436"><ele>600.0</ele><time>2026-04-06T10:13:39Z</time></trkpt><trkpt lat="43.62230239207017" lon="2.5063581431976827"><ele>601.0</ele><time>2026-04-06T10:13:40Z</time></trkpt><trkpt lat="43.62230863132946" lon="2.5066204274075656"><ele>602.0</ele><time>2026-04-06T10:13:41Z</time></trkpt><trkpt lat="43.622300407147705" lon="2.5068874036724353"><ele>604.3333333333333</ele><time>2026-04-06T10:13:42Z</time></trkpt><trkpt lat="43.622288481775946" lon="2.507165251192564"><ele>606.6666666666666</ele><time>2026-04-06T10:13:43Z</time></trkpt><trkpt lat="43.62227929231861" lon="2.5074416294236923"><ele>609.0</ele><time>2026-04-06T10:13:44Z</time></trkpt><trkpt lat="43.62231623012952" lon="2.5077106665099063"><ele>610.3333333333334</ele><time>2026-04-06T10:13:45Z</time></trkpt><trkpt lat="43.622344048941336" lon="2.507977250245208"><ele>611.6666666666667</ele><time>2026-04-06T10:13:46Z</time></trkpt><trkpt lat="43.62236128058673" lon="2.508239767998815"><ele>613.0</ele><time>2026-04-06T10:13:47Z</time></trkpt><trkpt lat="43.6223812470091" lon="2.508491666809967"><ele>612.3333333333334</ele><time>2026-04-06T10:13:48Z</time></trkpt><trkpt lat="43.62242864680655" lon="2.5087546848910924"><ele>611.6666666666666</ele><time>2026-04-06T10:13:49Z</time></trkpt><trkpt lat="43.62250538414328" lon="2.509003036885571"><ele>611.0</ele><time>2026-04-06T10:13:50Z</time></trkpt><trkpt lat="43.62256032427252" lon="2.5092290993628787"><ele>611.0</ele><time>2026-04-06T10:13:51Z</time></trkpt><trkpt lat="43.62259540409037" lon="2.509434594821261"><ele>611.0</ele><time>2026-04-06T10:13:52Z</time></trkpt><trkpt lat="43.622574906068024" lon="2.509624132272895"><ele>611.0</ele><time>2026-04-06T10:13:53Z</time></trkpt><trkpt lat="43.62252272029367" lon="2.50978966380542"><ele>611.0</ele><time>2026-04-06T10:13:54Z</time></trkpt><trkpt lat="43.622452861661685" lon="2.5099303794839094"><ele>613.3333333333333</ele><time>2026-04-06T10:13:55Z</time></trkpt><trkpt lat="43.62231358686563" lon="2.510040760581126"><ele>615.6666666666666</ele><time>2026-04-06T10:13:56Z</time></trkpt><trkpt lat="43.622180966465045" lon="2.510183879437246"><ele>618.0</ele><time>2026-04-06T10:13:57Z</time></trkpt><trkpt lat="43.62205263762714" lon="2.5103973380837408"><ele>617.0</ele><time>2026-04-06T10:13:58Z</time></trkpt><trkpt lat="43.621945183122165" lon="2.5106025484001595"><ele>616.0</ele><time>2026-04-06T10:13:59Z</time></trkpt><trkpt lat="43.621875446090996" lon="2.510834586783396"><ele>615.0</ele><time>2026-04-06T10:14:00Z</time></trkpt><trkpt lat="43.62182538492782" lon="2.5110875884523924"><ele>620.0</ele><time>2026-04-06T10:14:01Z</time></trkpt><trkpt lat="43.62176448388346" lon="2.511340960629878"><ele>625.0</ele><time>2026-04-06T10:14:02Z</time></trkpt><trkpt lat="43.62169277269625" lon="2.5115761643487113"><ele>630.0</ele><time>2026-04-06T10:14:03Z</time></trkpt><trkpt lat="43.621596788604634" lon="2.51179131310335"><ele>630.0</ele><time>2026-04-06T10:14:04Z</time></trkpt><trkpt lat="43.62151592271107" lon="2.5119689301704167"><ele>630.0</ele><time>2026-04-06T10:14:05Z</time></trkpt><trkpt lat="43.62143059530026" lon="2.512113586278263"><ele>630.0</ele><time>2026-04-06T10:14:06Z</time></trkpt><trkpt lat="43.62135580239933" lon="2.512206682133776"><ele>630.0</ele><time>2026-04-06T10:14:07Z</time></trkpt><trkpt lat="43.62125134458531" lon="2.5122395707192138"><ele>630.6</ele><time>2026-04-06T10:14:08Z</time></trkpt><trkpt lat="43.62115492175247" lon="2.512192322953958"><ele>631.2</ele><time>2026-04-06T10:14:09Z</time></trkpt><trkpt lat="43.621096841277364" lon="2.512057931645544"><ele>631.8</ele><time>2026-04-06T10:14:10Z</time></trkpt><trkpt lat="43.621083941356176" lon="2.5119009281696845"><ele>632.4</ele><time>2026-04-06T10:14:11Z</time></trkpt><trkpt lat="43.62102548089878" lon="2.5117693117391617"><ele>633.0</ele><time>2026-04-06T10:14:12Z</time></trkpt><trkpt lat="43.620935868235684" lon="2.5116334291696094"><ele>633.0</ele><time>2026-04-06T10:14:13Z</time></trkpt><trkpt lat="43.62082090491435" lon="2.511504601502869"><ele>633.0</ele><time>2026-04-06T10:14:14Z</time></trkpt><trkpt lat="43.62072309095049" lon="2.5113776887630257"><ele>633.0</ele><time>2026-04-06T10:14:15Z</time></trkpt><trkpt lat="43.62061621211738" lon="2.5112529366129572"><ele>633.0</ele><time>2026-04-06T10:14:16Z</time></trkpt><trkpt lat="43.62048378966032" lon="2.511168328177657"><ele>631.6666666666666</ele><time>2026-04-06T10:14:17Z</time></trkpt><trkpt lat="43.620324638929965" lon="2.5111348609297117"><ele>630.3333333333333</ele><time>2026-04-06T10:14:18Z</time></trkpt><trkpt lat="43.62013679794149" lon="2.5110948122057883"><ele>629.0</ele><time>2026-04-06T10:14:19Z</time></trkpt><trkpt lat="43.61992190133952" lon="2.5110412605354258"><ele>629.0</ele><time>2026-04-06T10:14:20Z</time></trkpt><trkpt lat="43.61975151071101" lon="2.5110122997294972"><ele>629.0</ele><time>2026-04-06T10:14:21Z</time></trkpt><trkpt lat="43.619553676834975" lon="2.5109682035079444"><ele>629.0</ele><time>2026-04-06T10:14:22Z</time></trkpt><trkpt lat="43.61935829277696" lon="2.510959013982198"><ele>632.6666666666666</ele><time>2026-04-06T10:14:23Z</time></trkpt><trkpt lat="43.61915711846367" lon="2.5109474978918436"><ele>636.3333333333334</ele><time>2026-04-06T10:14:24Z</time></trkpt><trkpt lat="43.61897688137966" lon="2.5109372525823206"><ele>640.0</ele><time>2026-04-06T10:14:25Z</time></trkpt><trkpt lat="43.61880258039173" lon="2.5109324569779266"><ele>640.0</ele><time>2026-04-06T10:14:26Z</time></trkpt><trkpt lat="43.618653603659546" lon="2.5109478213193364"><ele>640.0</ele><time>2026-04-06T10:14:27Z</time></trkpt><trkpt lat="43.61850656636945" lon="2.5109904460518693"><ele>640.0</ele><time>2026-04-06T10:14:28Z</time></trkpt><trkpt lat="43.61843985032598" lon="2.5110608925752986"><ele>640.0</ele><time>2026-04-06T10:14:29Z</time></trkpt><trkpt lat="43.61843922397679" lon="2.5112128856461107"><ele>641.5</ele><time>2026-04-06T10:14:30Z</time></trkpt><trkpt lat="43.61841644788151" lon="2.5113719039568023"><ele>643.0</ele><time>2026-04-06T10:14:31Z</time></trkpt><trkpt lat="43.618406457545746" lon="2.511567830400681"><ele>644.5</ele><time>2026-04-06T10:14:32Z</time></trkpt><trkpt lat="43.61839254794771" lon="2.511769889494531"><ele>646.0</ele><time>2026-04-06T10:14:33Z</time></trkpt><trkpt lat="43.618359610875885" lon="2.5119788496739166"><ele>649.3333333333334</ele><time>2026-04-06T10:14:34Z</time></trkpt><trkpt lat="43.61833307245377" lon="2.512202427833736"><ele>652.6666666666666</ele><time>2026-04-06T10:14:35Z</time></trkpt><trkpt lat="43.618300629506244" lon="2.512432982348953"><ele>656.0</ele><time>2026-04-06T10:14:36Z</time></trkpt><trkpt lat="43.61826138645588" lon="2.512671644509593"><ele>660.0</ele><time>2026-04-06T10:14:37Z</time></trkpt><trkpt lat="43.618205684625494" lon="2.5129162317322056"><ele>664.0</ele><time>2026-04-06T10:14:38Z</time></trkpt><trkpt lat="43.6181423805527" lon="2.5131780392066534"><ele>668.0</ele><time>2026-04-06T10:14:39Z</time></trkpt><trkpt lat="43.61807064117714" lon="2.513431700429009"><ele>668.0</ele><time>2026-04-06T10:14:40Z</time></trkpt><trkpt lat="43.61799374502697" lon="2.513673053468995"><ele>668.0</ele><time>2026-04-06T10:14:41Z</time></trkpt><trkpt lat="43.61792853302461" lon="2.513897682664563"><ele>668.0</ele><time>2026-04-06T10:14:42Z</time></trkpt><trkpt lat="43.6178651029902" lon="2.5140960102665635"><ele>667.5999999999999</ele><time>2026-04-06T10:14:43Z</time></trkpt><trkpt lat="43.61781069895057" lon="2.514258907933504"><ele>667.1999999999999</ele><time>2026-04-06T10:14:44Z</time></trkpt><trkpt lat="43.61779415365914" lon="2.514394267280583"><ele>666.8</ele><time>2026-04-06T10:14:45Z</time></trkpt><trkpt lat="43.617834401334896" lon="2.5144882166433513"><ele>666.4</ele><time>2026-04-06T10:14:46Z</time></trkpt><trkpt lat="43.61792012665868" lon="2.5145496620013676"><ele>666.0</ele><time>2026-04-06T10:14:47Z</time></trkpt><trkpt lat="43.61804783845845" lon="2.51459065281394"><ele>666.0</ele><time>2026-04-06T10:14:48Z</time></trkpt><trkpt lat="43.61816982406204" lon="2.5146265061031645"><ele>666.0</ele><time>2026-04-06T10:14:49Z</time></trkpt><trkpt lat="43.61828626983239" lon="2.5147073249635428"><ele>666.0</ele><time>2026-04-06T10:14:50Z</time></trkpt><trkpt lat="43.618415295999164" lon="2.5148171908673014"><ele>666.0</ele><time>2026-04-06T10:14:51Z</time></trkpt><trkpt lat="43.61853206418453" lon="2.5149375668202394"><ele>669.25</ele><time>2026-04-06T10:14:52Z</time></trkpt><trkpt lat="43.618655052094596" lon="2.515039809517969"><ele>672.5</ele><time>2026-04-06T10:14:53Z</time></trkpt><trkpt lat="43.618795279026514" lon="2.515105432328889"><ele>675.75</ele><time>2026-04-06T10:14:54Z</time></trkpt><trkpt lat="43.61893478996252" lon="2.5151582371327974"><ele>679.0</ele><time>2026-04-06T10:14:55Z</time></trkpt><trkpt lat="43.619060666786666" lon="2.515234039600529"><ele>679.0</ele><time>2026-04-06T10:14:56Z</time></trkpt><trkpt lat="43.61917589171585" lon="2.5153350143052147"><ele>679.0</ele><time>2026-04-06T10:14:57Z</time></trkpt><trkpt lat="43.61926238517531" lon="2.51548735640338"><ele>679.0</ele><time>2026-04-06T10:14:58Z</time></trkpt><trkpt lat="43.61936145666624" lon="2.5156314986072914"><ele>679.0</ele><time>2026-04-06T10:14:59Z</time></trkpt><trkpt lat="43.61942950902433" lon="2.5158185749589115"><ele>681.6666666666667</ele><time>2026-04-06T10:15:00Z</time></trkpt><trkpt lat="43.61948910239427" lon="2.5160114649562932"><ele>684.3333333333334</ele><time>2026-04-06T10:15:01Z</time></trkpt><trkpt lat="43.61953876732196" lon="2.5162256248017236"><ele>687.0</ele><time>2026-04-06T10:15:02Z</time></trkpt><trkpt lat="43.61958675417813" lon="2.5164517533918933"><ele>688.0</ele><time>2026-04-06T10:15:03Z</time></trkpt><trkpt lat="43.61962623005812" lon="2.516688403884216"><ele>689.0</ele><time>2026-04-06T10:15:04Z</time></trkpt><trkpt lat="43.619647520627915" lon="2.5169244858034348"><ele>690.0</ele><time>2026-04-06T10:15:05Z</time></trkpt><trkpt lat="43.61965290321044" lon="2.5171711731413717"><ele>691.6666666666666</ele><time>2026-04-06T10:15:06Z</time></trkpt><trkpt lat="43.619642746693465" lon="2.517428734557319"><ele>693.3333333333333</ele><time>2026-04-06T10:15:07Z</time></trkpt><trkpt lat="43.61960037766118" lon="2.5176789591718824"><ele>695.0</ele><time>2026-04-06T10:15:08Z</time></trkpt><trkpt lat="43.61958065193763" lon="2.5179422794598993"><ele>696.3333333333333</ele><time>2026-04-06T10:15:09Z</time></trkpt><trkpt lat="43.619533682896986" lon="2.518189333700089"><ele>697.6666666666666</ele><time>2026-04-06T10:15:10Z</time></trkpt><trkpt lat="43.619486479983344" lon="2.5184268319872305"><ele>699.0</ele><time>2026-04-06T10:15:11Z</time></trkpt><trkpt lat="43.619462352307714" lon="2.518680630944635"><ele>693.6666666666666</ele><time>2026-04-06T10:15:12Z</time></trkpt><trkpt lat="43.61946069731005" lon="2.5189320561336213"><ele>688.3333333333333</ele><time>2026-04-06T10:15:13Z</time></trkpt><trkpt lat="43.6194630558394" lon="2.5191859555537808"><ele>683.0</ele><time>2026-04-06T10:15:14Z</time></trkpt><trkpt lat="43.619469057514095" lon="2.519411628474774"><ele>687.0</ele><time>2026-04-06T10:15:15Z</time></trkpt><trkpt lat="43.619486045989326" lon="2.5195809307364923"><ele>691.0</ele><time>2026-04-06T10:15:16Z</time></trkpt><trkpt lat="43.619535624629826" lon="2.5197071792602266"><ele>695.0</ele><time>2026-04-06T10:15:17Z</time></trkpt><trkpt lat="43.61962384422422" lon="2.5197749549603787"><ele>699.0</ele><time>2026-04-06T10:15:18Z</time></trkpt><trkpt lat="43.619742893920204" lon="2.5198225429137078"><ele>699.0</ele><time>2026-04-06T10:15:19Z</time></trkpt><trkpt lat="43.61985294022856" lon="2.519887238310882"><ele>699.0</ele><time>2026-04-06T10:15:20Z</time></trkpt><trkpt lat="43.619909398143356" lon="2.5200236038456527"><ele>699.0</ele><time>2026-04-06T10:15:21Z</time></trkpt><trkpt lat="43.619935967101576" lon="2.5201637526253684"><ele>699.0</ele><time>2026-04-06T10:15:22Z</time></trkpt><trkpt lat="43.61990523155907" lon="2.5203003227751344"><ele>699.0</ele><time>2026-04-06T10:15:23Z</time></trkpt><trkpt lat="43.61979669072728" lon="2.5203841386927577"><ele>698.75</ele><time>2026-04-06T10:15:24Z</time></trkpt><trkpt lat="43.61970079333433" lon="2.520494510136295"><ele>698.5</ele><time>2026-04-06T10:15:25Z</time></trkpt><trkpt lat="43.61959030210357" lon="2.5206150985863025"><ele>698.25</ele><time>2026-04-06T10:15:26Z</time></trkpt><trkpt lat="43.61952095419034" lon="2.5207887746683046"><ele>698.0</ele><time>2026-04-06T10:15:27Z</time></trkpt><trkpt lat="43.61949317337882" lon="2.521003596625221"><ele>698.0</ele><time>2026-04-06T10:15:28Z</time></trkpt><trkpt lat="43.61948861707067" lon="2.521224912426063"><ele>698.0</ele><time>2026-04-06T10:15:29Z</time></trkpt><trkpt lat="43.61949726856067" lon="2.521460258746285"><ele>698.0</ele><time>2026-04-06T10:15:30Z</time></trkpt><trkpt lat="43.619503110023224" lon="2.521702454985355"><ele>696.6666666666666</ele><time>2026-04-06T10:15:31Z</time></trkpt><trkpt lat="43.61948907595059" lon="2.5219483511669276"><ele>695.3333333333334</ele><time>2026-04-06T10:15:32Z</time></trkpt><trkpt lat="43.61944094922934" lon="2.5221903597420936"><ele>694.0</ele><time>2026-04-06T10:15:33Z</time></trkpt><trkpt lat="43.61941380091117" lon="2.5224365280691967"><ele>694.0</ele><time>2026-04-06T10:15:34Z</time></trkpt><trkpt lat="43.61937936714138" lon="2.52266674933772"><ele>694.0</ele><time>2026-04-06T10:15:35Z</time></trkpt><trkpt lat="43.61935120628986" lon="2.522892588757351"><ele>694.0</ele><time>2026-04-06T10:15:36Z</time></trkpt><trkpt lat="43.619321997242146" lon="2.523102663808183"><ele>694.6</ele><time>2026-04-06T10:15:37Z</time></trkpt><trkpt lat="43.61931496512781" lon="2.5232803139562856"><ele>695.2</ele><time>2026-04-06T10:15:38Z</time></trkpt><trkpt lat="43.619316694904875" lon="2.523421716948163"><ele>695.8000000000001</ele><time>2026-04-06T10:15:39Z</time></trkpt><trkpt lat="43.61935668785389" lon="2.523517739476946"><ele>696.4000000000001</ele><time>2026-04-06T10:15:40Z</time></trkpt><trkpt lat="43.61942829122591" lon="2.5235841885674986"><ele>697.0</ele><time>2026-04-06T10:15:41Z</time></trkpt><trkpt lat="43.61954341402299" lon="2.523634431138726"><ele>698.5</ele><time>2026-04-06T10:15:42Z</time></trkpt><trkpt lat="43.61968057760215" lon="2.523688953018506"><ele>700.0</ele><time>2026-04-06T10:15:43Z</time></trkpt><trkpt lat="43.61981605546811" lon="2.5237338183856024"><ele>701.5</ele><time>2026-04-06T10:15:44Z</time></trkpt><trkpt lat="43.619969128305286" lon="2.5237699212872515"><ele>703.0</ele><time>2026-04-06T10:15:45Z</time></trkpt><trkpt lat="43.62012133866775" lon="2.523809141386932"><ele>703.0</ele><time>2026-04-06T10:15:46Z</time></trkpt><trkpt lat="43.62026585986996" lon="2.5238673721780844"><ele>703.0</ele><time>2026-04-06T10:15:47Z</time></trkpt><trkpt lat="43.620407190952854" lon="2.523990810150634"><ele>703.0</ele><time>2026-04-06T10:15:48Z</time></trkpt><trkpt lat="43.62055680483628" lon="2.5240139589371475"><ele>707.25</ele><time>2026-04-06T10:15:49Z</time></trkpt><trkpt lat="43.62069310773776" lon="2.5240216780598708"><ele>711.5</ele><time>2026-04-06T10:15:50Z</time></trkpt><trkpt lat="43.62082458373435" lon="2.5240905488865883"><ele>715.75</ele><time>2026-04-06T10:15:51Z</time></trkpt><trkpt lat="43.62094265914152" lon="2.5241937615666505"><ele>720.0</ele><time>2026-04-06T10:15:52Z</time></trkpt><trkpt lat="43.621069625913165" lon="2.524297802864898"><ele>722.6666666666666</ele><time>2026-04-06T10:15:53Z</time></trkpt><trkpt lat="43.621186498335575" lon="2.52444501351591"><ele>725.3333333333333</ele><time>2026-04-06T10:15:54Z</time></trkpt><trkpt lat="43.62126194188886" lon="2.5246326785774253"><ele>728.0</ele><time>2026-04-06T10:15:55Z</time></trkpt><trkpt lat="43.62134471172523" lon="2.5248232408379185"><ele>728.0</ele><time>2026-04-06T10:15:56Z</time></trkpt><trkpt lat="43.621430186128904" lon="2.5250103698217545"><ele>728.0</ele><time>2026-04-06T10:15:57Z</time></trkpt><trkpt lat="43.62152493613261" lon="2.525174285545268"><ele>728.0</ele><time>2026-04-06T10:15:58Z</time></trkpt><trkpt lat="43.621620369112314" lon="2.5253079569981627"><ele>728.0</ele><time>2026-04-06T10:15:59Z</time></trkpt><trkpt lat="43.62169868353744" lon="2.525437845167547"><ele>726.8</ele><time>2026-04-06T10:16:00Z</time></trkpt><trkpt lat="43.621752443190466" lon="2.525567754611007"><ele>725.5999999999999</ele><time>2026-04-06T10:16:01Z</time></trkpt><trkpt lat="43.62177442637732" lon="2.5256935779629686"><ele>724.4000000000001</ele><time>2026-04-06T10:16:02Z</time></trkpt><trkpt lat="43.62173932882537" lon="2.5258316348717638"><ele>723.2</ele><time>2026-04-06T10:16:03Z</time></trkpt><trkpt lat="43.62168842438561" lon="2.5259810621380376"><ele>722.0</ele><time>2026-04-06T10:16:04Z</time></trkpt><trkpt lat="43.621609955321404" lon="2.5261073501542537"><ele>722.0</ele><time>2026-04-06T10:16:05Z</time></trkpt><trkpt lat="43.62153406723496" lon="2.5262020063216273"><ele>722.0</ele><time>2026-04-06T10:16:06Z</time></trkpt><trkpt lat="43.621456327453856" lon="2.5262417089769107"><ele>722.0</ele><time>2026-04-06T10:16:07Z</time></trkpt><trkpt lat="43.6213550870929" lon="2.526253169232913"><ele>722.0</ele><time>2026-04-06T10:16:08Z</time></trkpt><trkpt lat="43.62126609576127" lon="2.5261403811185197"><ele>722.0</ele><time>2026-04-06T10:16:09Z</time></trkpt><trkpt lat="43.6211627587768" lon="2.526023788662532"><ele>722.25</ele><time>2026-04-06T10:16:10Z</time></trkpt><trkpt lat="43.621070207772746" lon="2.525926088435554"><ele>722.5</ele><time>2026-04-06T10:16:11Z</time></trkpt><trkpt lat="43.620962871071775" lon="2.52581091415426"><ele>722.75</ele><time>2026-04-06T10:16:12Z</time></trkpt><trkpt lat="43.62087574675079" lon="2.5256900999265266"><ele>723.0</ele><time>2026-04-06T10:16:13Z</time></trkpt><trkpt lat="43.62079356110006" lon="2.525561912630261"><ele>723.0</ele><time>2026-04-06T10:16:14Z</time></trkpt><trkpt lat="43.62070278411938" lon="2.525521406350494"><ele>723.0</ele><time>2026-04-06T10:16:15Z</time></trkpt><trkpt lat="43.62060819510139" lon="2.525551359398506"><ele>723.0</ele><time>2026-04-06T10:16:16Z</time></trkpt><trkpt lat="43.62052666149662" lon="2.525657936838024"><ele>723.0</ele><time>2026-04-06T10:16:17Z</time></trkpt><trkpt lat="43.62045745567651" lon="2.525838780971659"><ele>723.0</ele><time>2026-04-06T10:16:18Z</time></trkpt><trkpt lat="43.6203931063427" lon="2.5260231025587463"><ele>723.0</ele><time>2026-04-06T10:16:19Z</time></trkpt><trkpt lat="43.620309294265255" lon="2.526219206060423"><ele>723.0</ele><time>2026-04-06T10:16:20Z</time></trkpt><trkpt lat="43.62023039134395" lon="2.5264366117985744"><ele>723.0</ele><time>2026-04-06T10:16:21Z</time></trkpt><trkpt lat="43.62015148211086" lon="2.526668217543178"><ele>723.0</ele><time>2026-04-06T10:16:22Z</time></trkpt><trkpt lat="43.62006318537762" lon="2.5269079603637548"><ele>723.0</ele><time>2026-04-06T10:16:23Z</time></trkpt><trkpt lat="43.61996321914831" lon="2.527148604151945"><ele>726.0</ele><time>2026-04-06T10:16:24Z</time></trkpt><trkpt lat="43.61987688694785" lon="2.5273859157387513"><ele>729.0</ele><time>2026-04-06T10:16:25Z</time></trkpt><trkpt lat="43.61980914592181" lon="2.527611730693484"><ele>732.0</ele><time>2026-04-06T10:16:26Z</time></trkpt><trkpt lat="43.6197239256105" lon="2.5278231562779165"><ele>735.0</ele><time>2026-04-06T10:16:27Z</time></trkpt><trkpt lat="43.61962802742345" lon="2.5280364845442596"><ele>738.0</ele><time>2026-04-06T10:16:28Z</time></trkpt><trkpt lat="43.61954194408832" lon="2.5282360832340127"><ele>741.0</ele><time>2026-04-06T10:16:29Z</time></trkpt><trkpt lat="43.619440718139316" lon="2.528419233082395"><ele>741.0</ele><time>2026-04-06T10:16:30Z</time></trkpt><trkpt lat="43.61929410829912" lon="2.5285458571770145"><ele>741.0</ele><time>2026-04-06T10:16:31Z</time></trkpt><trkpt lat="43.619189295355184" lon="2.528738222245426"><ele>741.0</ele><time>2026-04-06T10:16:32Z</time></trkpt><trkpt lat="43.61907646714377" lon="2.5289398720037917"><ele>742.6666666666666</ele><time>2026-04-06T10:16:33Z</time></trkpt><trkpt lat="43.618984982525554" lon="2.529163098813451"><ele>744.3333333333333</ele><time>2026-04-06T10:16:34Z</time></trkpt><trkpt lat="43.61889822964455" lon="2.529386893581345"><ele>746.0</ele><time>2026-04-06T10:16:35Z</time></trkpt><trkpt lat="43.61880788721024" lon="2.529598416368273"><ele>746.6666666666666</ele><time>2026-04-06T10:16:36Z</time></trkpt><trkpt lat="43.61873012460543" lon="2.529796222588412"><ele>747.3333333333334</ele><time>2026-04-06T10:16:37Z</time></trkpt><trkpt lat="43.618675212502076" lon="2.5300186648416467"><ele>748.0</ele><time>2026-04-06T10:16:38Z</time></trkpt><trkpt lat="43.61863258465777" lon="2.530240184310377"><ele>747.5</ele><time>2026-04-06T10:16:39Z</time></trkpt><trkpt lat="43.61860210987236" lon="2.530442868612127"><ele>747.0</ele><time>2026-04-06T10:16:40Z</time></trkpt><trkpt lat="43.61855389423943" lon="2.5306163580447048"><ele>746.5</ele><time>2026-04-06T10:16:41Z</time></trkpt><trkpt lat="43.6184782435978" lon="2.5307648744412248"><ele>746.0</ele><time>2026-04-06T10:16:42Z</time></trkpt><trkpt lat="43.618337000611625" lon="2.530837707103991"><ele>746.0</ele><time>2026-04-06T10:16:43Z</time></trkpt><trkpt lat="43.61820579539036" lon="2.5309516864356234"><ele>746.0</ele><time>2026-04-06T10:16:44Z</time></trkpt><trkpt lat="43.618069841051025" lon="2.5310570384239024"><ele>746.0</ele><time>2026-04-06T10:16:45Z</time></trkpt><trkpt lat="43.61792230767323" lon="2.531184215527427"><ele>744.3333333333333</ele><time>2026-04-06T10:16:46Z</time></trkpt><trkpt lat="43.617776912024596" lon="2.531257111089175"><ele>742.6666666666666</ele><time>2026-04-06T10:16:47Z</time></trkpt><trkpt lat="43.61762096718119" lon="2.531234593784626"><ele>741.0</ele><time>2026-04-06T10:16:48Z</time></trkpt><trkpt lat="43.61745768340263" lon="2.5312112743888404"><ele>741.0</ele><time>2026-04-06T10:16:49Z</time></trkpt><trkpt lat="43.61730777163658" lon="2.531208345125189"><ele>741.0</ele><time>2026-04-06T10:16:50Z</time></trkpt><trkpt lat="43.61717933953788" lon="2.5312302977712777"><ele>741.0</ele><time>2026-04-06T10:16:51Z</time></trkpt><trkpt lat="43.61702569012191" lon="2.531335152211883"><ele>742.3333333333334</ele><time>2026-04-06T10:16:52Z</time></trkpt><trkpt lat="43.616866965153946" lon="2.531490054796397"><ele>743.6666666666667</ele><time>2026-04-06T10:16:53Z</time></trkpt><trkpt lat="43.61672210062856" lon="2.5316425712910404"><ele>745.0</ele><time>2026-04-06T10:16:54Z</time></trkpt><trkpt lat="43.616549090166714" lon="2.5317922950159364"><ele>745.0</ele><time>2026-04-06T10:16:55Z</time></trkpt><trkpt lat="43.61637842146896" lon="2.5319324993327017"><ele>745.0</ele><time>2026-04-06T10:16:56Z</time></trkpt><trkpt lat="43.61622146385915" lon="2.532083065230092"><ele>745.0</ele><time>2026-04-06T10:16:57Z</time></trkpt><trkpt lat="43.6160898388401" lon="2.53224992573538"><ele>744.6666666666667</ele><time>2026-04-06T10:16:58Z</time></trkpt><trkpt lat="43.61596025436487" lon="2.5324664552018397"><ele>744.3333333333334</ele><time>2026-04-06T10:16:59Z</time></trkpt><trkpt lat="43.61584021081328" lon="2.5326909333264243"><ele>744.0</ele><time>2026-04-06T10:17:00Z</time></trkpt><trkpt lat="43.61571581652023" lon="2.5329096966474887"><ele>744.0</ele><time>2026-04-06T10:17:01Z</time></trkpt><trkpt lat="43.61558953094297" lon="2.5331288384409576"><ele>744.0</ele><time>2026-04-06T10:17:02Z</time></trkpt><trkpt lat="43.615458751632936" lon="2.5333424718094997"><ele>744.0</ele><time>2026-04-06T10:17:03Z</time></trkpt><trkpt lat="43.61533443179352" lon="2.5335527456731297"><ele>740.3333333333334</ele><time>2026-04-06T10:17:04Z</time></trkpt><trkpt lat="43.615205244345645" lon="2.5337565382690013"><ele>736.6666666666667</ele><time>2026-04-06T10:17:05Z</time></trkpt><trkpt lat="43.61507701249093" lon="2.5339663885641794"><ele>733.0</ele><time>2026-04-06T10:17:06Z</time></trkpt><trkpt lat="43.61495498649099" lon="2.534175865516824"><ele>733.0</ele><time>2026-04-06T10:17:07Z</time></trkpt><trkpt lat="43.614829882255265" lon="2.5343836657721726"><ele>733.0</ele><time>2026-04-06T10:17:08Z</time></trkpt><trkpt lat="43.614709239327176" lon="2.5345892153613745"><ele>733.0</ele><time>2026-04-06T10:17:09Z</time></trkpt><trkpt lat="43.614581728073645" lon="2.534796468922614"><ele>730.3333333333334</ele><time>2026-04-06T10:17:10Z</time></trkpt><trkpt lat="43.61445830822513" lon="2.534996123011146"><ele>727.6666666666666</ele><time>2026-04-06T10:17:11Z</time></trkpt><trkpt lat="43.61434085174181" lon="2.535200591860524"><ele>725.0</ele><time>2026-04-06T10:17:12Z</time></trkpt><trkpt lat="43.61422296921067" lon="2.535399332155292"><ele>724.6666666666666</ele><time>2026-04-06T10:17:13Z</time></trkpt><trkpt lat="43.61410055652661" lon="2.5355962908050405"><ele>724.3333333333334</ele><time>2026-04-06T10:17:14Z</time></trkpt><trkpt lat="43.613987182509504" lon="2.5358004202890436"><ele>724.0</ele><time>2026-04-06T10:17:15Z</time></trkpt><trkpt lat="43.613894233206224" lon="2.536016669043433"><ele>723.6666666666667</ele><time>2026-04-06T10:17:16Z</time></trkpt><trkpt lat="43.61384766868675" lon="2.5362602282242097"><ele>723.3333333333334</ele><time>2026-04-06T10:17:17Z</time></trkpt><trkpt lat="43.613843556774555" lon="2.5364822588820353"><ele>723.0</ele><time>2026-04-06T10:17:18Z</time></trkpt><trkpt lat="43.61391373620738" lon="2.5366589060267515"><ele>723.0</ele><time>2026-04-06T10:17:19Z</time></trkpt><trkpt lat="43.61399536534769" lon="2.5368039181326747"><ele>723.0</ele><time>2026-04-06T10:17:20Z</time></trkpt><trkpt lat="43.61409600321482" lon="2.536899202238363"><ele>723.0</ele><time>2026-04-06T10:17:21Z</time></trkpt><trkpt lat="43.61421443796755" lon="2.536980091481404"><ele>723.0</ele><time>2026-04-06T10:17:22Z</time></trkpt><trkpt lat="43.61436803307436" lon="2.536962644838398"><ele>722.6666666666666</ele><time>2026-04-06T10:17:23Z</time></trkpt><trkpt lat="43.61449554817457" lon="2.5368857264155005"><ele>722.3333333333333</ele><time>2026-04-06T10:17:24Z</time></trkpt><trkpt lat="43.61465904614805" lon="2.5367691526710248"><ele>722.0</ele><time>2026-04-06T10:17:25Z</time></trkpt><trkpt lat="43.61481057835832" lon="2.536700186409754"><ele>722.0</ele><time>2026-04-06T10:17:26Z</time></trkpt><trkpt lat="43.61495200112247" lon="2.5366694214919163"><ele>722.0</ele><time>2026-04-06T10:17:27Z</time></trkpt><trkpt lat="43.61507976912056" lon="2.5366949419412856"><ele>722.0</ele><time>2026-04-06T10:17:28Z</time></trkpt><trkpt lat="43.615218745215394" lon="2.5367722536744237"><ele>722.0</ele><time>2026-04-06T10:17:29Z</time></trkpt><trkpt lat="43.61532589474631" lon="2.5369502480428503"><ele>721.3333333333333</ele><time>2026-04-06T10:17:30Z</time></trkpt><trkpt lat="43.615429053582815" lon="2.5371383242478878"><ele>720.6666666666666</ele><time>2026-04-06T10:17:31Z</time></trkpt><trkpt lat="43.61554333896879" lon="2.5373367093731463"><ele>720.0</ele><time>2026-04-06T10:17:32Z</time></trkpt><trkpt lat="43.61565979477838" lon="2.5375190866687722"><ele>720.0</ele><time>2026-04-06T10:17:33Z</time></trkpt><trkpt lat="43.61578523797777" lon="2.53769084599675"><ele>720.0</ele><time>2026-04-06T10:17:34Z</time></trkpt><trkpt lat="43.61592353771002" lon="2.537833130823126"><ele>720.0</ele><time>2026-04-06T10:17:35Z</time></trkpt><trkpt lat="43.616057000034196" lon="2.5379807163208756"><ele>717.0</ele><time>2026-04-06T10:17:36Z</time></trkpt><trkpt lat="43.6161779112522" lon="2.538121768707701"><ele>714.0</ele><time>2026-04-06T10:17:37Z</time></trkpt><trkpt lat="43.61629740921795" lon="2.538210223571466"><ele>711.0</ele><time>2026-04-06T10:17:38Z</time></trkpt><trkpt lat="43.61640545196169" lon="2.5382706874703493"><ele>708.0</ele><time>2026-04-06T10:17:39Z</time></trkpt><trkpt lat="43.6165252682204" lon="2.5382714919323153"><ele>708.0</ele><time>2026-04-06T10:17:40Z</time></trkpt><trkpt lat="43.61664786021349" lon="2.53818641992889"><ele>708.0</ele><time>2026-04-06T10:17:41Z</time></trkpt><trkpt lat="43.616764682471135" lon="2.5380793572393583"><ele>708.0</ele><time>2026-04-06T10:17:42Z</time></trkpt><trkpt lat="43.61688539845502" lon="2.537977769050266"><ele>708.0</ele><time>2026-04-06T10:17:43Z</time></trkpt><trkpt lat="43.617000943657494" lon="2.5379130498870923"><ele>710.0</ele><time>2026-04-06T10:17:44Z</time></trkpt><trkpt lat="43.617093639321304" lon="2.5378500723156634"><ele>712.0</ele><time>2026-04-06T10:17:45Z</time></trkpt><trkpt lat="43.61717084389934" lon="2.5378151150680486"><ele>714.0</ele><time>2026-04-06T10:17:46Z</time></trkpt><trkpt lat="43.617255071841605" lon="2.537808838732236"><ele>716.0</ele><time>2026-04-06T10:17:47Z</time></trkpt><trkpt lat="43.61732120119114" lon="2.537915681828604"><ele>718.0</ele><time>2026-04-06T10:17:48Z</time></trkpt><trkpt lat="43.61732311754659" lon="2.5380530907358825"><ele>718.0</ele><time>2026-04-06T10:17:49Z</time></trkpt><trkpt lat="43.617254121104835" lon="2.538187481099099"><ele>718.0</ele><time>2026-04-06T10:17:50Z</time></trkpt><trkpt lat="43.61719135460387" lon="2.5383323971497007"><ele>718.0</ele><time>2026-04-06T10:17:51Z</time></trkpt><trkpt lat="43.61714274074036" lon="2.5385028725098286"><ele>718.0</ele><time>2026-04-06T10:17:52Z</time></trkpt><trkpt lat="43.617100384186955" lon="2.5386762236683436"><ele>719.6666666666667</ele><time>2026-04-06T10:17:53Z</time></trkpt><trkpt lat="43.617055474590416" lon="2.538877081509926"><ele>721.3333333333334</ele><time>2026-04-06T10:17:54Z</time></trkpt><trkpt lat="43.6170242938108" lon="2.5390746858183357"><ele>723.0</ele><time>2026-04-06T10:17:55Z</time></trkpt><trkpt lat="43.61699916150088" lon="2.5392885509146117"><ele>715.6666666666666</ele><time>2026-04-06T10:17:56Z</time></trkpt><trkpt lat="43.616941207673456" lon="2.5394991626480077"><ele>708.3333333333333</ele><time>2026-04-06T10:17:57Z</time></trkpt><trkpt lat="43.61689723882382" lon="2.539714345880288"><ele>701.0</ele><time>2026-04-06T10:17:58Z</time></trkpt><trkpt lat="43.61684304748687" lon="2.5399270857119145"><ele>700.75</ele><time>2026-04-06T10:17:59Z</time></trkpt><trkpt lat="43.6167797268138" lon="2.5401265486536686"><ele>700.5</ele><time>2026-04-06T10:18:00Z</time></trkpt><trkpt lat="43.61671078146463" lon="2.5403131169444806"><ele>700.25</ele><time>2026-04-06T10:18:01Z</time></trkpt><trkpt lat="43.61665845731591" lon="2.5404899006150226"><ele>700.0</ele><time>2026-04-06T10:18:02Z</time></trkpt><trkpt lat="43.61661355062349" lon="2.540679342883887"><ele>700.0</ele><time>2026-04-06T10:18:03Z</time></trkpt><trkpt lat="43.61657274779737" lon="2.5408719927034835"><ele>700.0</ele><time>2026-04-06T10:18:04Z</time></trkpt><trkpt lat="43.616572613658825" lon="2.541080710257278"><ele>700.0</ele><time>2026-04-06T10:18:05Z</time></trkpt><trkpt lat="43.61660194126959" lon="2.541298948306139"><ele>698.0</ele><time>2026-04-06T10:18:06Z</time></trkpt><trkpt lat="43.61660680146092" lon="2.5415194593716017"><ele>696.0</ele><time>2026-04-06T10:18:07Z</time></trkpt><trkpt lat="43.61662228937889" lon="2.5417322978587595"><ele>694.0</ele><time>2026-04-06T10:18:08Z</time></trkpt><trkpt lat="43.616633243836105" lon="2.541932281937884"><ele>693.0</ele><time>2026-04-06T10:18:09Z</time></trkpt><trkpt lat="43.6166374453411" lon="2.5421171797845177"><ele>692.0</ele><time>2026-04-06T10:18:10Z</time></trkpt><trkpt lat="43.61662719593277" lon="2.5422783894543217"><ele>691.0</ele><time>2026-04-06T10:18:11Z</time></trkpt><trkpt lat="43.61663461460761" lon="2.542438873281529"><ele>690.0</ele><time>2026-04-06T10:18:12Z</time></trkpt><trkpt lat="43.616669980107915" lon="2.5426207348455105"><ele>690.0</ele><time>2026-04-06T10:18:13Z</time></trkpt><trkpt lat="43.616739244130514" lon="2.5427782088534925"><ele>690.0</ele><time>2026-04-06T10:18:14Z</time></trkpt><trkpt lat="43.6168168064216" lon="2.54290868084045"><ele>690.0</ele><time>2026-04-06T10:18:15Z</time></trkpt><trkpt lat="43.616903539722166" lon="2.5430148491110285"><ele>690.0</ele><time>2026-04-06T10:18:16Z</time></trkpt><trkpt lat="43.61700911480412" lon="2.543097512020961"><ele>692.5</ele><time>2026-04-06T10:18:17Z</time></trkpt><trkpt lat="43.617132282732335" lon="2.54316648218357"><ele>695.0</ele><time>2026-04-06T10:18:18Z</time></trkpt><trkpt lat="43.61726146751462" lon="2.543222634682198"><ele>697.5</ele><time>2026-04-06T10:18:19Z</time></trkpt><trkpt lat="43.61738469700615" lon="2.543278411027312"><ele>700.0</ele><time>2026-04-06T10:18:20Z</time></trkpt><trkpt lat="43.617499204711606" lon="2.543314822711383"><ele>700.0</ele><time>2026-04-06T10:18:21Z</time></trkpt><trkpt lat="43.61761222791269" lon="2.54332386781843"><ele>700.0</ele><time>2026-04-06T10:18:22Z</time></trkpt><trkpt lat="43.61769811106835" lon="2.5433839867555577"><ele>700.0</ele><time>2026-04-06T10:18:23Z</time></trkpt><trkpt lat="43.61775740774345" lon="2.543446977894716"><ele>700.0</ele><time>2026-04-06T10:18:24Z</time></trkpt><trkpt lat="43.61777593982177" lon="2.543551458983057"><ele>700.0</ele><time>2026-04-06T10:18:25Z</time></trkpt><trkpt lat="43.617736800060634" lon="2.543661693698864"><ele>700.0</ele><time>2026-04-06T10:18:26Z</time></trkpt><trkpt lat="43.61765050976901" lon="2.543717068562762"><ele>700.0</ele><time>2026-04-06T10:18:27Z</time></trkpt><trkpt lat="43.617557727962684" lon="2.5437265925813444"><ele>700.0</ele><time>2026-04-06T10:18:28Z</time></trkpt><trkpt lat="43.617443995389515" lon="2.5437112432657756"><ele>700.0</ele><time>2026-04-06T10:18:29Z</time></trkpt><trkpt lat="43.61731479529853" lon="2.543690467758327"><ele>700.0</ele><time>2026-04-06T10:18:30Z</time></trkpt><trkpt lat="43.61718052350832" lon="2.5436854842370753"><ele>700.0</ele><time>2026-04-06T10:18:31Z</time></trkpt><trkpt lat="43.6170255772666" lon="2.543688079228678"><ele>700.0</ele><time>2026-04-06T10:18:32Z</time></trkpt><trkpt lat="43.61686860390634" lon="2.5436898739070797"><ele>700.0</ele><time>2026-04-06T10:18:33Z</time></trkpt><trkpt lat="43.616714210298674" lon="2.5437153336037324"><ele>699.6666666666667</ele><time>2026-04-06T10:18:34Z</time></trkpt><trkpt lat="43.61654916751473" lon="2.5437289666277776"><ele>699.3333333333334</ele><time>2026-04-06T10:18:35Z</time></trkpt><trkpt lat="43.616386333930684" lon="2.543742475635265"><ele>699.0</ele><time>2026-04-06T10:18:36Z</time></trkpt><trkpt lat="43.61623233569536" lon="2.543720390112319"><ele>693.0</ele><time>2026-04-06T10:18:37Z</time></trkpt><trkpt lat="43.61608267006912" lon="2.543697467461832"><ele>687.0</ele><time>2026-04-06T10:18:38Z</time></trkpt><trkpt lat="43.615937520846046" lon="2.5436738349510546"><ele>681.0</ele><time>2026-04-06T10:18:39Z</time></trkpt><trkpt lat="43.61580047243017" lon="2.543674996577446"><ele>675.0</ele><time>2026-04-06T10:18:40Z</time></trkpt><trkpt lat="43.61568304825837" lon="2.5436732714871884"><ele>675.0</ele><time>2026-04-06T10:18:41Z</time></trkpt><trkpt lat="43.61558469291523" lon="2.543670570075972"><ele>675.0</ele><time>2026-04-06T10:18:42Z</time></trkpt><trkpt lat="43.61546924773839" lon="2.543729894526718"><ele>675.0</ele><time>2026-04-06T10:18:43Z</time></trkpt><trkpt lat="43.615379453272865" lon="2.5438442583860486"><ele>675.0</ele><time>2026-04-06T10:18:44Z</time></trkpt><trkpt lat="43.615300373616606" lon="2.5439709743912875"><ele>675.6666666666666</ele><time>2026-04-06T10:18:45Z</time></trkpt><trkpt lat="43.61522014026783" lon="2.5440144220142957"><ele>676.3333333333334</ele><time>2026-04-06T10:18:46Z</time></trkpt><trkpt lat="43.615145304279544" lon="2.543993043931975"><ele>677.0</ele><time>2026-04-06T10:18:47Z</time></trkpt><trkpt lat="43.61509554291376" lon="2.543911509207013"><ele>677.6666666666667</ele><time>2026-04-06T10:18:48Z</time></trkpt><trkpt lat="43.61505399105831" lon="2.543767975544512"><ele>678.3333333333334</ele><time>2026-04-06T10:18:50Z</time></trkpt><trkpt lat="43.61508263989065" lon="2.543679851772702"><ele>679.0</ele><time>2026-04-06T10:18:51Z</time></trkpt><trkpt lat="43.61508211581583" lon="2.5435353219651344"><ele>679.0</ele><time>2026-04-06T10:18:52Z</time></trkpt><trkpt lat="43.61508112798084" lon="2.5433856867295264"><ele>679.0</ele><time>2026-04-06T10:18:53Z</time></trkpt><trkpt lat="43.615064009755315" lon="2.543164745936726"><ele>679.0</ele><time>2026-04-06T10:18:54Z</time></trkpt><trkpt lat="43.61496894910954" lon="2.5430023266468114"><ele>679.0</ele><time>2026-04-06T10:18:55Z</time></trkpt><trkpt lat="43.61492508619713" lon="2.542863823501776"><ele>675.0</ele><time>2026-04-06T10:18:56Z</time></trkpt><trkpt lat="43.61482073512003" lon="2.5427941836781165"><ele>671.0</ele><time>2026-04-06T10:18:57Z</time></trkpt><trkpt lat="43.614682011317136" lon="2.5427593636769297"><ele>667.0</ele><time>2026-04-06T10:18:58Z</time></trkpt><trkpt lat="43.614488816727885" lon="2.5427200842133217"><ele>669.0</ele><time>2026-04-06T10:18:59Z</time></trkpt><trkpt lat="43.6143577717385" lon="2.5427273935927266"><ele>671.0</ele><time>2026-04-06T10:19:00Z</time></trkpt><trkpt lat="43.6142304427934" lon="2.5426957659178204"><ele>673.0</ele><time>2026-04-06T10:19:01Z</time></trkpt><trkpt lat="43.61411390895925" lon="2.5426471840227745"><ele>675.0</ele><time>2026-04-06T10:19:02Z</time></trkpt><trkpt lat="43.614018480056224" lon="2.542549144318702"><ele>675.0</ele><time>2026-04-06T10:19:03Z</time></trkpt><trkpt lat="43.613896242239804" lon="2.542436322543602"><ele>675.0</ele><time>2026-04-06T10:19:04Z</time></trkpt><trkpt lat="43.613768809598376" lon="2.542335779198182"><ele>675.0</ele><time>2026-04-06T10:19:05Z</time></trkpt><trkpt lat="43.61363952845017" lon="2.542259304854375"><ele>675.0</ele><time>2026-04-06T10:19:06Z</time></trkpt><trkpt lat="43.61351015009763" lon="2.542231302784546"><ele>676.6666666666666</ele><time>2026-04-06T10:19:07Z</time></trkpt><trkpt lat="43.61336285867293" lon="2.5422441375779457"><ele>678.3333333333333</ele><time>2026-04-06T10:19:08Z</time></trkpt><trkpt lat="43.61321129576242" lon="2.542284635290631"><ele>680.0</ele><time>2026-04-06T10:19:09Z</time></trkpt><trkpt lat="43.6130636677371" lon="2.542327513118177"><ele>680.0</ele><time>2026-04-06T10:19:10Z</time></trkpt><trkpt lat="43.61291427694402" lon="2.5423646796951496"><ele>680.0</ele><time>2026-04-06T10:19:11Z</time></trkpt><trkpt lat="43.61276955385516" lon="2.542386731638209"><ele>680.0</ele><time>2026-04-06T10:19:12Z</time></trkpt><trkpt lat="43.6126395421891" lon="2.542346400285464"><ele>680.0</ele><time>2026-04-06T10:19:13Z</time></trkpt><trkpt lat="43.61250915597214" lon="2.5422525547806676"><ele>681.25</ele><time>2026-04-06T10:19:14Z</time></trkpt><trkpt lat="43.61239616519445" lon="2.5421146292978327"><ele>682.5</ele><time>2026-04-06T10:19:15Z</time></trkpt><trkpt lat="43.612284690069465" lon="2.541994043705798"><ele>683.75</ele><time>2026-04-06T10:19:16Z</time></trkpt><trkpt lat="43.61216935533217" lon="2.5419435443926295"><ele>685.0</ele><time>2026-04-06T10:19:17Z</time></trkpt><trkpt lat="43.612070751898564" lon="2.5420123288992515"><ele>682.75</ele><time>2026-04-06T10:19:18Z</time></trkpt><trkpt lat="43.611958413868955" lon="2.542093853737994"><ele>680.5</ele><time>2026-04-06T10:19:19Z</time></trkpt><trkpt lat="43.611840161035744" lon="2.5422317210562784"><ele>678.25</ele><time>2026-04-06T10:19:20Z</time></trkpt><trkpt lat="43.61174502721557" lon="2.5424127363120843"><ele>676.0</ele><time>2026-04-06T10:19:21Z</time></trkpt><trkpt lat="43.61164580934915" lon="2.542597119827453"><ele>676.0</ele><time>2026-04-06T10:19:22Z</time></trkpt><trkpt lat="43.61152859365466" lon="2.5427818736978374"><ele>676.0</ele><time>2026-04-06T10:19:23Z</time></trkpt><trkpt lat="43.61140877098237" lon="2.5429640876030737"><ele>676.0</ele><time>2026-04-06T10:19:24Z</time></trkpt><trkpt lat="43.61128041740799" lon="2.543139139369691"><ele>674.0</ele><time>2026-04-06T10:19:25Z</time></trkpt><trkpt lat="43.61113800298803" lon="2.543313332265319"><ele>672.0</ele><time>2026-04-06T10:19:26Z</time></trkpt><trkpt lat="43.61098926936424" lon="2.543483837170635"><ele>670.0</ele><time>2026-04-06T10:19:27Z</time></trkpt><trkpt lat="43.61084226475122" lon="2.543661268006658"><ele>673.3333333333334</ele><time>2026-04-06T10:19:28Z</time></trkpt><trkpt lat="43.610705670279934" lon="2.543862631745888"><ele>676.6666666666666</ele><time>2026-04-06T10:19:29Z</time></trkpt><trkpt lat="43.61058778876574" lon="2.5440964071648944"><ele>680.0</ele><time>2026-04-06T10:19:30Z</time></trkpt><trkpt lat="43.610476664712365" lon="2.544334547307608"><ele>681.0</ele><time>2026-04-06T10:19:31Z</time></trkpt><trkpt lat="43.610361769899455" lon="2.544563342291053"><ele>682.0</ele><time>2026-04-06T10:19:32Z</time></trkpt><trkpt lat="43.61024356471091" lon="2.5447911444308637"><ele>683.0</ele><time>2026-04-06T10:19:33Z</time></trkpt><trkpt lat="43.61012273046813" lon="2.5450188276512034"><ele>683.0</ele><time>2026-04-06T10:19:34Z</time></trkpt><trkpt lat="43.610005715682036" lon="2.545245035133765"><ele>683.0</ele><time>2026-04-06T10:19:35Z</time></trkpt><trkpt lat="43.609893387777106" lon="2.5454653187475937"><ele>683.0</ele><time>2026-04-06T10:19:36Z</time></trkpt><trkpt lat="43.60976474896269" lon="2.545662618067466"><ele>683.6666666666666</ele><time>2026-04-06T10:19:37Z</time></trkpt><trkpt lat="43.60959210523779" lon="2.545733689392106"><ele>684.3333333333334</ele><time>2026-04-06T10:19:38Z</time></trkpt><trkpt lat="43.60940812495347" lon="2.5458308034657313"><ele>685.0</ele><time>2026-04-06T10:19:39Z</time></trkpt><trkpt lat="43.609267036557014" lon="2.5459570410561594"><ele>683.3333333333334</ele><time>2026-04-06T10:19:40Z</time></trkpt><trkpt lat="43.60915913311111" lon="2.546135191758027"><ele>681.6666666666666</ele><time>2026-04-06T10:19:41Z</time></trkpt><trkpt lat="43.60905876328179" lon="2.5463355024551966"><ele>680.0</ele><time>2026-04-06T10:19:42Z</time></trkpt><trkpt lat="43.60890378769213" lon="2.5464418303829968"><ele>680.0</ele><time>2026-04-06T10:19:43Z</time></trkpt><trkpt lat="43.60873159529039" lon="2.5465266115353264"><ele>680.0</ele><time>2026-04-06T10:19:44Z</time></trkpt><trkpt lat="43.60857611238845" lon="2.5466503225713604"><ele>680.0</ele><time>2026-04-06T10:19:45Z</time></trkpt><trkpt lat="43.60842643396801" lon="2.54677214211147"><ele>681.0</ele><time>2026-04-06T10:19:46Z</time></trkpt><trkpt lat="43.60829613711274" lon="2.546907017291868"><ele>682.0</ele><time>2026-04-06T10:19:47Z</time></trkpt><trkpt lat="43.60818111181" lon="2.5470394794324442"><ele>683.0</ele><time>2026-04-06T10:19:48Z</time></trkpt><trkpt lat="43.608089902612896" lon="2.5471975989070477"><ele>683.3333333333333</ele><time>2026-04-06T10:19:49Z</time></trkpt><trkpt lat="43.60799055185455" lon="2.547398883695528"><ele>683.6666666666666</ele><time>2026-04-06T10:19:50Z</time></trkpt><trkpt lat="43.607895452635276" lon="2.547607650784678"><ele>684.0</ele><time>2026-04-06T10:19:51Z</time></trkpt><trkpt lat="43.60779165122539" lon="2.5478212355717256"><ele>682.6666666666666</ele><time>2026-04-06T10:19:52Z</time></trkpt><trkpt lat="43.60766413261663" lon="2.5480200474305486"><ele>681.3333333333333</ele><time>2026-04-06T10:19:53Z</time></trkpt><trkpt lat="43.607547747106075" lon="2.548251261668846"><ele>680.0</ele><time>2026-04-06T10:19:54Z</time></trkpt><trkpt lat="43.60743890414832" lon="2.5484734680315166"><ele>681.0</ele><time>2026-04-06T10:19:55Z</time></trkpt><trkpt lat="43.60733459296454" lon="2.548711794929088"><ele>682.0</ele><time>2026-04-06T10:19:56Z</time></trkpt><trkpt lat="43.60723551320577" lon="2.548941887871913"><ele>683.0</ele><time>2026-04-06T10:19:57Z</time></trkpt><trkpt lat="43.60714515217757" lon="2.5491731259489616"><ele>683.0</ele><time>2026-04-06T10:19:58Z</time></trkpt><trkpt lat="43.607068205450965" lon="2.5494165038701615"><ele>683.0</ele><time>2026-04-06T10:19:59Z</time></trkpt><trkpt lat="43.607016130560744" lon="2.5496703119734208"><ele>683.0</ele><time>2026-04-06T10:20:00Z</time></trkpt><trkpt lat="43.60697728784038" lon="2.5499329346101196"><ele>683.0</ele><time>2026-04-06T10:20:01Z</time></trkpt><trkpt lat="43.60693993886989" lon="2.5502020688491194"><ele>683.0</ele><time>2026-04-06T10:20:02Z</time></trkpt><trkpt lat="43.60691136309144" lon="2.550470573971538"><ele>683.0</ele><time>2026-04-06T10:20:03Z</time></trkpt><trkpt lat="43.60688837343325" lon="2.55072352436875"><ele>683.0</ele><time>2026-04-06T10:20:04Z</time></trkpt><trkpt lat="43.606860116428095" lon="2.5509676252190467"><ele>683.0</ele><time>2026-04-06T10:20:05Z</time></trkpt><trkpt lat="43.60680205139435" lon="2.5511888075137015"><ele>683.0</ele><time>2026-04-06T10:20:06Z</time></trkpt><trkpt lat="43.606735929711796" lon="2.551386048216275"><ele>682.6666666666666</ele><time>2026-04-06T10:20:07Z</time></trkpt><trkpt lat="43.60659272004336" lon="2.551504366964315"><ele>682.3333333333334</ele><time>2026-04-06T10:20:08Z</time></trkpt><trkpt lat="43.60647480321736" lon="2.5516662398302246"><ele>682.0</ele><time>2026-04-06T10:20:09Z</time></trkpt><trkpt lat="43.60634703393718" lon="2.551822109762732"><ele>682.0</ele><time>2026-04-06T10:20:10Z</time></trkpt><trkpt lat="43.60624692885069" lon="2.551992777946315"><ele>682.0</ele><time>2026-04-06T10:20:11Z</time></trkpt><trkpt lat="43.606159405824606" lon="2.5521742116259976"><ele>682.0</ele><time>2026-04-06T10:20:12Z</time></trkpt><trkpt lat="43.60609746746242" lon="2.5523797262798738"><ele>680.3333333333334</ele><time>2026-04-06T10:20:13Z</time></trkpt><trkpt lat="43.606077294269994" lon="2.552604383392555"><ele>678.6666666666666</ele><time>2026-04-06T10:20:14Z</time></trkpt><trkpt lat="43.60608583394689" lon="2.55281509453711"><ele>677.0</ele><time>2026-04-06T10:20:15Z</time></trkpt><trkpt lat="43.606140408228896" lon="2.553011405430111"><ele>677.6666666666666</ele><time>2026-04-06T10:20:16Z</time></trkpt><trkpt lat="43.6062403107434" lon="2.553189984765244"><ele>678.3333333333334</ele><time>2026-04-06T10:20:17Z</time></trkpt><trkpt lat="43.60638502907318" lon="2.5532648871779684"><ele>679.0</ele><time>2026-04-06T10:20:18Z</time></trkpt><trkpt lat="43.60653352909542" lon="2.5533458788133467"><ele>679.0</ele><time>2026-04-06T10:20:19Z</time></trkpt><trkpt lat="43.60664460235246" lon="2.5534335104242696"><ele>679.0</ele><time>2026-04-06T10:20:20Z</time></trkpt><trkpt lat="43.606739455039985" lon="2.5535728461698946"><ele>679.0</ele><time>2026-04-06T10:20:21Z</time></trkpt><trkpt lat="43.60677490010512" lon="2.553771138477144"><ele>679.0</ele><time>2026-04-06T10:20:22Z</time></trkpt><trkpt lat="43.60679240954859" lon="2.5539919537464524"><ele>673.3333333333334</ele><time>2026-04-06T10:20:23Z</time></trkpt><trkpt lat="43.60681270073316" lon="2.55421532860956"><ele>667.6666666666666</ele><time>2026-04-06T10:20:24Z</time></trkpt><trkpt lat="43.60683839195059" lon="2.55441976412396"><ele>662.0</ele><time>2026-04-06T10:20:25Z</time></trkpt><trkpt lat="43.60689097177871" lon="2.5546120542749446"><ele>664.0</ele><time>2026-04-06T10:20:26Z</time></trkpt><trkpt lat="43.60698119479756" lon="2.5547844364764742"><ele>666.0</ele><time>2026-04-06T10:20:27Z</time></trkpt><trkpt lat="43.60709627504182" lon="2.5549340379487018"><ele>668.0</ele><time>2026-04-06T10:20:28Z</time></trkpt><trkpt lat="43.60720112080199" lon="2.555099718275814"><ele>668.0</ele><time>2026-04-06T10:20:29Z</time></trkpt><trkpt lat="43.60730844355537" lon="2.55526896090414"><ele>668.0</ele><time>2026-04-06T10:20:30Z</time></trkpt><trkpt lat="43.60742641498715" lon="2.555405567490846"><ele>668.0</ele><time>2026-04-06T10:20:31Z</time></trkpt><trkpt lat="43.60755934983122" lon="2.555533070281026"><ele>669.3333333333333</ele><time>2026-04-06T10:20:32Z</time></trkpt><trkpt lat="43.607684938507276" lon="2.555670815881324"><ele>670.6666666666666</ele><time>2026-04-06T10:20:33Z</time></trkpt><trkpt lat="43.6078239935801" lon="2.5557704481492496"><ele>672.0</ele><time>2026-04-06T10:20:34Z</time></trkpt><trkpt lat="43.60794406075307" lon="2.5558797065883385"><ele>672.0</ele><time>2026-04-06T10:20:35Z</time></trkpt><trkpt lat="43.60804747978805" lon="2.555994390436888"><ele>672.0</ele><time>2026-04-06T10:20:36Z</time></trkpt><trkpt lat="43.60808794741637" lon="2.5561508704398928"><ele>672.0</ele><time>2026-04-06T10:20:37Z</time></trkpt><trkpt lat="43.60810748720567" lon="2.556304825448115"><ele>672.0</ele><time>2026-04-06T10:20:38Z</time></trkpt><trkpt lat="43.608029019449965" lon="2.5564409160647434"><ele>669.75</ele><time>2026-04-06T10:20:39Z</time></trkpt><trkpt lat="43.607939758618535" lon="2.556537289231581"><ele>667.5</ele><time>2026-04-06T10:20:40Z</time></trkpt><trkpt lat="43.60786020990078" lon="2.5566538452172387"><ele>665.25</ele><time>2026-04-06T10:20:41Z</time></trkpt><trkpt lat="43.60777718564247" lon="2.5567844060121567"><ele>663.0</ele><time>2026-04-06T10:20:42Z</time></trkpt><trkpt lat="43.60768632444886" lon="2.556890244024099"><ele>657.75</ele><time>2026-04-06T10:20:43Z</time></trkpt><trkpt lat="43.60758458920902" lon="2.556999108328435"><ele>652.5</ele><time>2026-04-06T10:20:44Z</time></trkpt><trkpt lat="43.607476938031255" lon="2.5570993421392947"><ele>647.25</ele><time>2026-04-06T10:20:45Z</time></trkpt><trkpt lat="43.60736132140794" lon="2.5572094098032343"><ele>642.0</ele><time>2026-04-06T10:20:46Z</time></trkpt><trkpt lat="43.60724285730568" lon="2.5573250536056107"><ele>641.75</ele><time>2026-04-06T10:20:47Z</time></trkpt><trkpt lat="43.60712626969023" lon="2.5574478775751563"><ele>641.5</ele><time>2026-04-06T10:20:48Z</time></trkpt><trkpt lat="43.60701532296936" lon="2.557572526505645"><ele>641.25</ele><time>2026-04-06T10:20:49Z</time></trkpt><trkpt lat="43.60690794527875" lon="2.557694866856255"><ele>641.0</ele><time>2026-04-06T10:20:50Z</time></trkpt><trkpt lat="43.60681670376815" lon="2.5578199162412174"><ele>638.25</ele><time>2026-04-06T10:20:51Z</time></trkpt><trkpt lat="43.60675473667233" lon="2.5579799063072093"><ele>635.5</ele><time>2026-04-06T10:20:52Z</time></trkpt><trkpt lat="43.60673351740058" lon="2.558167207588869"><ele>632.75</ele><time>2026-04-06T10:20:53Z</time></trkpt><trkpt lat="43.606750929237904" lon="2.558360197705168"><ele>630.0</ele><time>2026-04-06T10:20:54Z</time></trkpt><trkpt lat="43.60680390240155" lon="2.558534352397067"><ele>630.0</ele><time>2026-04-06T10:20:55Z</time></trkpt><trkpt lat="43.60690114227686" lon="2.5586947459825162"><ele>630.0</ele><time>2026-04-06T10:20:56Z</time></trkpt><trkpt lat="43.60702114681025" lon="2.5588229703030088"><ele>630.0</ele><time>2026-04-06T10:20:57Z</time></trkpt><trkpt lat="43.607141700028336" lon="2.5589153145544166"><ele>630.0</ele><time>2026-04-06T10:20:58Z</time></trkpt><trkpt lat="43.60729198331806" lon="2.558957954077812"><ele>629.25</ele><time>2026-04-06T10:20:59Z</time></trkpt><trkpt lat="43.60743959341021" lon="2.55898550375145"><ele>628.5</ele><time>2026-04-06T10:21:00Z</time></trkpt><trkpt lat="43.60757867259172" lon="2.5590342366787056"><ele>627.75</ele><time>2026-04-06T10:21:01Z</time></trkpt><trkpt lat="43.60770680058948" lon="2.5591424585652276"><ele>627.0</ele><time>2026-04-06T10:21:02Z</time></trkpt><trkpt lat="43.607826275768915" lon="2.5592720561419937"><ele>630.3333333333334</ele><time>2026-04-06T10:21:03Z</time></trkpt><trkpt lat="43.60791141600192" lon="2.5594486235294673"><ele>633.6666666666667</ele><time>2026-04-06T10:21:04Z</time></trkpt><trkpt lat="43.60801294311974" lon="2.559605453233478"><ele>637.0</ele><time>2026-04-06T10:21:05Z</time></trkpt><trkpt lat="43.608097126876395" lon="2.5597807789429194"><ele>637.0</ele><time>2026-04-06T10:21:06Z</time></trkpt><trkpt lat="43.60818976011732" lon="2.559949576351851"><ele>637.0</ele><time>2026-04-06T10:21:07Z</time></trkpt><trkpt lat="43.60827806901681" lon="2.560124684226885"><ele>637.0</ele><time>2026-04-06T10:21:08Z</time></trkpt><trkpt lat="43.608346682274444" lon="2.5603027611016693"><ele>635.4</ele><time>2026-04-06T10:21:09Z</time></trkpt><trkpt lat="43.60837199139116" lon="2.5604641374314525"><ele>633.8000000000001</ele><time>2026-04-06T10:21:10Z</time></trkpt><trkpt lat="43.6083691476164" lon="2.5606000102854445"><ele>632.2</ele><time>2026-04-06T10:21:11Z</time></trkpt><trkpt lat="43.60833712387117" lon="2.5607151308113436"><ele>630.6</ele><time>2026-04-06T10:21:12Z</time></trkpt><trkpt lat="43.608254408483326" lon="2.5607654284448604"><ele>629.0</ele><time>2026-04-06T10:21:13Z</time></trkpt><trkpt lat="43.6081533240753" lon="2.5607852618591327"><ele>629.0</ele><time>2026-04-06T10:21:14Z</time></trkpt><trkpt lat="43.608043876282856" lon="2.560788309274168"><ele>629.0</ele><time>2026-04-06T10:21:15Z</time></trkpt><trkpt lat="43.60791334663134" lon="2.5608031318584366"><ele>629.0</ele><time>2026-04-06T10:21:16Z</time></trkpt><trkpt lat="43.607778439148746" lon="2.560783469418509"><ele>629.0</ele><time>2026-04-06T10:21:17Z</time></trkpt><trkpt lat="43.60763115061844" lon="2.5607876270828744"><ele>629.25</ele><time>2026-04-06T10:21:18Z</time></trkpt><trkpt lat="43.60747515520246" lon="2.560794819203927"><ele>629.5</ele><time>2026-04-06T10:21:19Z</time></trkpt><trkpt lat="43.60732479151475" lon="2.5607637345474243"><ele>629.75</ele><time>2026-04-06T10:21:20Z</time></trkpt><trkpt lat="43.60719050225218" lon="2.5607311411640175"><ele>630.0</ele><time>2026-04-06T10:21:21Z</time></trkpt><trkpt lat="43.60708533360297" lon="2.5606287803049477"><ele>631.75</ele><time>2026-04-06T10:21:22Z</time></trkpt><trkpt lat="43.606938352484626" lon="2.5605578128623456"><ele>633.5</ele><time>2026-04-06T10:21:23Z</time></trkpt><trkpt lat="43.60679486746993" lon="2.5605316804867044"><ele>635.25</ele><time>2026-04-06T10:21:24Z</time></trkpt><trkpt lat="43.60665613098232" lon="2.560554061308607"><ele>637.0</ele><time>2026-04-06T10:21:25Z</time></trkpt><trkpt lat="43.60651480872551" lon="2.560606200768747"><ele>637.0</ele><time>2026-04-06T10:21:26Z</time></trkpt><trkpt lat="43.60637871064315" lon="2.5606823915462633"><ele>637.0</ele><time>2026-04-06T10:21:27Z</time></trkpt><trkpt lat="43.606247622806855" lon="2.560784950839529"><ele>637.0</ele><time>2026-04-06T10:21:28Z</time></trkpt><trkpt lat="43.60611143914699" lon="2.560841674402372"><ele>637.0</ele><time>2026-04-06T10:21:29Z</time></trkpt><trkpt lat="43.60597675509676" lon="2.560852832495535"><ele>636.5</ele><time>2026-04-06T10:21:30Z</time></trkpt><trkpt lat="43.605850441783225" lon="2.5608584333608055"><ele>636.0</ele><time>2026-04-06T10:21:31Z</time></trkpt><trkpt lat="43.605672387009946" lon="2.5608721263064838"><ele>635.5</ele><time>2026-04-06T10:21:32Z</time></trkpt><trkpt lat="43.60552854174632" lon="2.560869978251293"><ele>635.0</ele><time>2026-04-06T10:21:33Z</time></trkpt><trkpt lat="43.605352658184266" lon="2.560890266590555"><ele>634.6666666666666</ele><time>2026-04-06T10:21:34Z</time></trkpt><trkpt lat="43.6052318734723" lon="2.5609587838135317"><ele>634.3333333333334</ele><time>2026-04-06T10:21:35Z</time></trkpt><trkpt lat="43.60512955189834" lon="2.561128606622145"><ele>634.0</ele><time>2026-04-06T10:21:36Z</time></trkpt><trkpt lat="43.605063324359776" lon="2.561338246369362"><ele>634.0</ele><time>2026-04-06T10:21:37Z</time></trkpt><trkpt lat="43.60498636897707" lon="2.5615333183323545"><ele>634.0</ele><time>2026-04-06T10:21:38Z</time></trkpt><trkpt lat="43.60494267042885" lon="2.56175697502982"><ele>634.0</ele><time>2026-04-06T10:21:39Z</time></trkpt><trkpt lat="43.60490464481033" lon="2.5619801239454234"><ele>636.6666666666667</ele><time>2026-04-06T10:21:40Z</time></trkpt><trkpt lat="43.60484513359891" lon="2.5622171970858227"><ele>639.3333333333334</ele><time>2026-04-06T10:21:41Z</time></trkpt><trkpt lat="43.604790846987164" lon="2.562461820675211"><ele>642.0</ele><time>2026-04-06T10:21:42Z</time></trkpt><trkpt lat="43.60475149565335" lon="2.5627182515366704"><ele>644.6666666666666</ele><time>2026-04-06T10:21:43Z</time></trkpt><trkpt lat="43.60472989738323" lon="2.5629785089550507"><ele>647.3333333333333</ele><time>2026-04-06T10:21:44Z</time></trkpt><trkpt lat="43.604719190912625" lon="2.563239259362103"><ele>650.0</ele><time>2026-04-06T10:21:45Z</time></trkpt><trkpt lat="43.604735273828496" lon="2.563498323306067"><ele>652.0</ele><time>2026-04-06T10:21:46Z</time></trkpt><trkpt lat="43.60473483864058" lon="2.5637551039807813"><ele>654.0</ele><time>2026-04-06T10:21:47Z</time></trkpt><trkpt lat="43.60467717941155" lon="2.5639976667567645"><ele>656.0</ele><time>2026-04-06T10:21:48Z</time></trkpt><trkpt lat="43.6046066176481" lon="2.56423677238405"><ele>656.0</ele><time>2026-04-06T10:21:49Z</time></trkpt><trkpt lat="43.60452821492877" lon="2.5644963594860526"><ele>656.0</ele><time>2026-04-06T10:21:50Z</time></trkpt><trkpt lat="43.60445361404189" lon="2.5647521141000924"><ele>656.0</ele><time>2026-04-06T10:21:51Z</time></trkpt><trkpt lat="43.60438665311921" lon="2.5650087111046154"><ele>651.0</ele><time>2026-04-06T10:21:52Z</time></trkpt><trkpt lat="43.60433608093879" lon="2.565255414037186"><ele>646.0</ele><time>2026-04-06T10:21:53Z</time></trkpt><trkpt lat="43.604288281177766" lon="2.565483328857555"><ele>641.0</ele><time>2026-04-06T10:21:54Z</time></trkpt><trkpt lat="43.60426541070026" lon="2.5656846735000194"><ele>641.0</ele><time>2026-04-06T10:21:55Z</time></trkpt><trkpt lat="43.60426367600664" lon="2.5658791664479343"><ele>641.0</ele><time>2026-04-06T10:21:56Z</time></trkpt><trkpt lat="43.60431018018695" lon="2.566055077807726"><ele>641.0</ele><time>2026-04-06T10:21:57Z</time></trkpt><trkpt lat="43.60441407675725" lon="2.5662272045208354"><ele>641.0</ele><time>2026-04-06T10:21:58Z</time></trkpt><trkpt lat="43.60454500456353" lon="2.566388018445108"><ele>646.0</ele><time>2026-04-06T10:21:59Z</time></trkpt><trkpt lat="43.60468454281165" lon="2.5665537059495134"><ele>651.0</ele><time>2026-04-06T10:22:00Z</time></trkpt><trkpt lat="43.604771324559124" lon="2.5667488073958182"><ele>656.0</ele><time>2026-04-06T10:22:01Z</time></trkpt><trkpt lat="43.60482372672613" lon="2.5669283260033198"><ele>654.5</ele><time>2026-04-06T10:22:02Z</time></trkpt><trkpt lat="43.604835262851935" lon="2.5670871964175404"><ele>653.0</ele><time>2026-04-06T10:22:03Z</time></trkpt><trkpt lat="43.60480561692271" lon="2.5672388739808554"><ele>651.5</ele><time>2026-04-06T10:22:04Z</time></trkpt><trkpt lat="43.60471141393913" lon="2.567394253828361"><ele>650.0</ele><time>2026-04-06T10:22:05Z</time></trkpt><trkpt lat="43.604627625558045" lon="2.5675672864529875"><ele>650.0</ele><time>2026-04-06T10:22:06Z</time></trkpt><trkpt lat="43.60452232513769" lon="2.567712656503271"><ele>650.0</ele><time>2026-04-06T10:22:07Z</time></trkpt><trkpt lat="43.60442351825764" lon="2.56787370228956"><ele>650.0</ele><time>2026-04-06T10:22:08Z</time></trkpt><trkpt lat="43.6043283292451" lon="2.5680580715557357"><ele>647.3333333333333</ele><time>2026-04-06T10:22:09Z</time></trkpt><trkpt lat="43.604241117702614" lon="2.5682510814302226"><ele>644.6666666666666</ele><time>2026-04-06T10:22:10Z</time></trkpt><trkpt lat="43.60416710564129" lon="2.5684482723804885"><ele>642.0</ele><time>2026-04-06T10:22:11Z</time></trkpt><trkpt lat="43.60409894261629" lon="2.568644807927053"><ele>643.0</ele><time>2026-04-06T10:22:12Z</time></trkpt><trkpt lat="43.60402394696886" lon="2.5688304773138158"><ele>644.0</ele><time>2026-04-06T10:22:13Z</time></trkpt><trkpt lat="43.603929151262264" lon="2.568985865703211"><ele>645.0</ele><time>2026-04-06T10:22:14Z</time></trkpt><trkpt lat="43.60378073997319" lon="2.569034948305624"><ele>646.5</ele><time>2026-04-06T10:22:15Z</time></trkpt><trkpt lat="43.603634699464685" lon="2.5690698856809076"><ele>648.0</ele><time>2026-04-06T10:22:16Z</time></trkpt><trkpt lat="43.603500706773985" lon="2.5691132175221782"><ele>649.5</ele><time>2026-04-06T10:22:17Z</time></trkpt><trkpt lat="43.603377834305356" lon="2.569013461444886"><ele>651.0</ele><time>2026-04-06T10:22:18Z</time></trkpt><trkpt lat="43.603284999389835" lon="2.5688834905531888"><ele>651.0</ele><time>2026-04-06T10:22:19Z</time></trkpt><trkpt lat="43.60319203355444" lon="2.568736829688629"><ele>651.0</ele><time>2026-04-06T10:22:20Z</time></trkpt><trkpt lat="43.60310666700991" lon="2.5685709549306717"><ele>651.0</ele><time>2026-04-06T10:22:21Z</time></trkpt><trkpt lat="43.60305069179438" lon="2.568386594305661"><ele>651.0</ele><time>2026-04-06T10:22:22Z</time></trkpt><trkpt lat="43.60301835777715" lon="2.5681795047117837"><ele>647.6666666666666</ele><time>2026-04-06T10:22:23Z</time></trkpt><trkpt lat="43.60299701687025" lon="2.567955469719574"><ele>644.3333333333333</ele><time>2026-04-06T10:22:24Z</time></trkpt><trkpt lat="43.60297005360218" lon="2.5677449951135882"><ele>641.0</ele><time>2026-04-06T10:22:25Z</time></trkpt><trkpt lat="43.602948911268754" lon="2.567548070619439"><ele>642.5</ele><time>2026-04-06T10:22:26Z</time></trkpt><trkpt lat="43.60287133587068" lon="2.567386953008086"><ele>644.0</ele><time>2026-04-06T10:22:27Z</time></trkpt><trkpt lat="43.60278685365581" lon="2.5672446795562505"><ele>645.5</ele><time>2026-04-06T10:22:28Z</time></trkpt><trkpt lat="43.602680545165775" lon="2.567158907045869"><ele>647.0</ele><time>2026-04-06T10:22:29Z</time></trkpt><trkpt lat="43.602538513181834" lon="2.567184091221459"><ele>647.0</ele><time>2026-04-06T10:22:30Z</time></trkpt><trkpt lat="43.60240699126536" lon="2.567188767453426"><ele>647.0</ele><time>2026-04-06T10:22:31Z</time></trkpt><trkpt lat="43.60224650347723" lon="2.5672771089101847"><ele>647.0</ele><time>2026-04-06T10:22:32Z</time></trkpt><trkpt lat="43.60211447685033" lon="2.5673393159865365"><ele>647.0</ele><time>2026-04-06T10:22:33Z</time></trkpt><trkpt lat="43.60198445289616" lon="2.567383177946473"><ele>646.25</ele><time>2026-04-06T10:22:34Z</time></trkpt><trkpt lat="43.60185844052118" lon="2.5673450677641227"><ele>645.5</ele><time>2026-04-06T10:22:35Z</time></trkpt><trkpt lat="43.60176281838294" lon="2.5672511883258955"><ele>644.75</ele><time>2026-04-06T10:22:36Z</time></trkpt><trkpt lat="43.601688212344" lon="2.567120858924497"><ele>644.0</ele><time>2026-04-06T10:22:37Z</time></trkpt><trkpt lat="43.60159835728291" lon="2.5669476927482853"><ele>644.0</ele><time>2026-04-06T10:22:38Z</time></trkpt><trkpt lat="43.60150740479208" lon="2.5667546013638565"><ele>644.0</ele><time>2026-04-06T10:22:39Z</time></trkpt><trkpt lat="43.60140204525306" lon="2.5665883977645643"><ele>644.0</ele><time>2026-04-06T10:22:40Z</time></trkpt><trkpt lat="43.6012761169073" lon="2.566480551293232"><ele>648.0</ele><time>2026-04-06T10:22:41Z</time></trkpt><trkpt lat="43.60114405480798" lon="2.5663855185919218"><ele>652.0</ele><time>2026-04-06T10:22:42Z</time></trkpt><trkpt lat="43.600987012453785" lon="2.5663302549975286"><ele>656.0</ele><time>2026-04-06T10:22:43Z</time></trkpt><trkpt lat="43.60082202241185" lon="2.5663482949998513"><ele>656.0</ele><time>2026-04-06T10:22:44Z</time></trkpt><trkpt lat="43.60070317953349" lon="2.5664600580901835"><ele>656.0</ele><time>2026-04-06T10:22:45Z</time></trkpt><trkpt lat="43.600560734176725" lon="2.566581347915812"><ele>656.0</ele><time>2026-04-06T10:22:46Z</time></trkpt><trkpt lat="43.60044213162182" lon="2.566734214677256"><ele>655.6666666666666</ele><time>2026-04-06T10:22:47Z</time></trkpt><trkpt lat="43.60033079385956" lon="2.5668984586991277"><ele>655.3333333333334</ele><time>2026-04-06T10:22:48Z</time></trkpt><trkpt lat="43.600246185503295" lon="2.567078609584538"><ele>655.0</ele><time>2026-04-06T10:22:49Z</time></trkpt><trkpt lat="43.60017700126314" lon="2.5672766518335117"><ele>655.0</ele><time>2026-04-06T10:22:50Z</time></trkpt><trkpt lat="43.600135610942154" lon="2.567476547487233"><ele>655.0</ele><time>2026-04-06T10:22:51Z</time></trkpt><trkpt lat="43.60013529585414" lon="2.567689965099068"><ele>655.0</ele><time>2026-04-06T10:22:52Z</time></trkpt><trkpt lat="43.60011598684406" lon="2.567911732546355"><ele>655.0</ele><time>2026-04-06T10:22:53Z</time></trkpt><trkpt lat="43.600130377571205" lon="2.5681276390527663"><ele>655.0</ele><time>2026-04-06T10:22:54Z</time></trkpt><trkpt lat="43.600139436923115" lon="2.5683353996355422"><ele>655.0</ele><time>2026-04-06T10:22:55Z</time></trkpt><trkpt lat="43.60015788348952" lon="2.568528297678067"><ele>655.0</ele><time>2026-04-06T10:22:56Z</time></trkpt><trkpt lat="43.60020023337138" lon="2.568721714887411"><ele>651.3333333333334</ele><time>2026-04-06T10:22:57Z</time></trkpt><trkpt lat="43.600275852002284" lon="2.568920437702631"><ele>647.6666666666666</ele><time>2026-04-06T10:22:58Z</time></trkpt><trkpt lat="43.6003365079338" lon="2.569130528770181"><ele>644.0</ele><time>2026-04-06T10:22:59Z</time></trkpt><trkpt lat="43.60039091509672" lon="2.569347820072849"><ele>650.6666666666666</ele><time>2026-04-06T10:23:00Z</time></trkpt><trkpt lat="43.60044604131098" lon="2.569565944294197"><ele>657.3333333333334</ele><time>2026-04-06T10:23:01Z</time></trkpt><trkpt lat="43.60053828274751" lon="2.569741187701675"><ele>664.0</ele><time>2026-04-06T10:23:02Z</time></trkpt><trkpt lat="43.600669432440775" lon="2.5698927786509054"><ele>664.0</ele><time>2026-04-06T10:23:03Z</time></trkpt><trkpt lat="43.60074417542757" lon="2.570086407007727"><ele>664.0</ele><time>2026-04-06T10:23:04Z</time></trkpt><trkpt lat="43.60077228350238" lon="2.5703157959802247"><ele>664.0</ele><time>2026-04-06T10:23:05Z</time></trkpt><trkpt lat="43.600791889660556" lon="2.570545908806426"><ele>663.0</ele><time>2026-04-06T10:23:06Z</time></trkpt><trkpt lat="43.60080900994469" lon="2.5708011018885606"><ele>662.0</ele><time>2026-04-06T10:23:07Z</time></trkpt><trkpt lat="43.60082118787222" lon="2.5710790093504214"><ele>661.0</ele><time>2026-04-06T10:23:08Z</time></trkpt><trkpt lat="43.60084670015557" lon="2.5713375555709694"><ele>660.3333333333334</ele><time>2026-04-06T10:23:09Z</time></trkpt><trkpt lat="43.60088048277685" lon="2.5715975645387594"><ele>659.6666666666666</ele><time>2026-04-06T10:23:10Z</time></trkpt><trkpt lat="43.60089973121381" lon="2.571861118163291"><ele>659.0</ele><time>2026-04-06T10:23:11Z</time></trkpt><trkpt lat="43.600934435899156" lon="2.572129732845395"><ele>656.3333333333333</ele><time>2026-04-06T10:23:12Z</time></trkpt><trkpt lat="43.60098017420098" lon="2.572393003981813"><ele>653.6666666666666</ele><time>2026-04-06T10:23:13Z</time></trkpt><trkpt lat="43.601041274460194" lon="2.572650183291183"><ele>651.0</ele><time>2026-04-06T10:23:14Z</time></trkpt><trkpt lat="43.60110622831717" lon="2.5729020370124958"><ele>661.3333333333334</ele><time>2026-04-06T10:23:15Z</time></trkpt><trkpt lat="43.6011681616739" lon="2.573152668853941"><ele>671.6666666666667</ele><time>2026-04-06T10:23:16Z</time></trkpt><trkpt lat="43.60123251848365" lon="2.573395382231503"><ele>682.0</ele><time>2026-04-06T10:23:17Z</time></trkpt><trkpt lat="43.60131828732862" lon="2.5736233151472194"><ele>679.6666666666667</ele><time>2026-04-06T10:23:18Z</time></trkpt><trkpt lat="43.6013856420217" lon="2.5738567511401844"><ele>677.3333333333334</ele><time>2026-04-06T10:23:19Z</time></trkpt><trkpt lat="43.601462569252526" lon="2.574081398484242"><ele>675.0</ele><time>2026-04-06T10:23:20Z</time></trkpt><trkpt lat="43.60150530710266" lon="2.574336928448199"><ele>673.0</ele><time>2026-04-06T10:23:21Z</time></trkpt><trkpt lat="43.60153472721638" lon="2.574601884987069"><ele>671.0</ele><time>2026-04-06T10:23:22Z</time></trkpt><trkpt lat="43.60156008112096" lon="2.574857963918509"><ele>669.0</ele><time>2026-04-06T10:23:23Z</time></trkpt><trkpt lat="43.601591468404564" lon="2.57511494284072"><ele>669.0</ele><time>2026-04-06T10:23:24Z</time></trkpt><trkpt lat="43.60161862217459" lon="2.575372234984152"><ele>669.0</ele><time>2026-04-06T10:23:25Z</time></trkpt><trkpt lat="43.60163956534656" lon="2.575632058336369"><ele>669.0</ele><time>2026-04-06T10:23:26Z</time></trkpt><trkpt lat="43.601636955891856" lon="2.575894222991405"><ele>669.0</ele><time>2026-04-06T10:23:27Z</time></trkpt><trkpt lat="43.6016329283565" lon="2.576162976683037"><ele>669.0</ele><time>2026-04-06T10:23:28Z</time></trkpt><trkpt lat="43.601619586087615" lon="2.5764389419713996"><ele>669.0</ele><time>2026-04-06T10:23:29Z</time></trkpt><trkpt lat="43.60159591123085" lon="2.5767135779631003"><ele>669.0</ele><time>2026-04-06T10:23:30Z</time></trkpt><trkpt lat="43.60155669620536" lon="2.5769967480832716"><ele>669.0</ele><time>2026-04-06T10:23:31Z</time></trkpt><trkpt lat="43.60152245907572" lon="2.5772826956756645"><ele>669.0</ele><time>2026-04-06T10:23:32Z</time></trkpt><trkpt lat="43.60147870457112" lon="2.5775694380508325"><ele>669.6666666666666</ele><time>2026-04-06T10:23:33Z</time></trkpt><trkpt lat="43.601424850392" lon="2.5778672380892926"><ele>670.3333333333333</ele><time>2026-04-06T10:23:34Z</time></trkpt><trkpt lat="43.601379321055056" lon="2.578173554780685"><ele>671.0</ele><time>2026-04-06T10:23:35Z</time></trkpt><trkpt lat="43.601340519376514" lon="2.5784787541627385"><ele>669.6666666666666</ele><time>2026-04-06T10:23:36Z</time></trkpt><trkpt lat="43.60131266454638" lon="2.578782409723541"><ele>668.3333333333334</ele><time>2026-04-06T10:23:37Z</time></trkpt><trkpt lat="43.601304953710454" lon="2.5790881818967275"><ele>667.0</ele><time>2026-04-06T10:23:38Z</time></trkpt><trkpt lat="43.601301720615496" lon="2.5793830223790764"><ele>669.0</ele><time>2026-04-06T10:23:39Z</time></trkpt><trkpt lat="43.60130033441982" lon="2.5796751729077143"><ele>671.0</ele><time>2026-04-06T10:23:40Z</time></trkpt><trkpt lat="43.60129955467389" lon="2.5799608778870744"><ele>673.0</ele><time>2026-04-06T10:23:41Z</time></trkpt><trkpt lat="43.60129564178721" lon="2.5802293383698642"><ele>676.0</ele><time>2026-04-06T10:23:42Z</time></trkpt><trkpt lat="43.60129158658296" lon="2.5804810182530926"><ele>679.0</ele><time>2026-04-06T10:23:43Z</time></trkpt><trkpt lat="43.6012824673752" lon="2.5807177879350975"><ele>682.0</ele><time>2026-04-06T10:23:44Z</time></trkpt><trkpt lat="43.60124727951738" lon="2.580935958847424"><ele>682.0</ele><time>2026-04-06T10:23:45Z</time></trkpt><trkpt lat="43.60121764603393" lon="2.5811556641601867"><ele>682.0</ele><time>2026-04-06T10:23:46Z</time></trkpt><trkpt lat="43.601191957894336" lon="2.5813624138571205"><ele>682.0</ele><time>2026-04-06T10:23:47Z</time></trkpt><trkpt lat="43.60111776006373" lon="2.5815325119315173"><ele>679.6666666666667</ele><time>2026-04-06T10:23:48Z</time></trkpt><trkpt lat="43.60102876172196" lon="2.5816827042092667"><ele>677.3333333333334</ele><time>2026-04-06T10:23:49Z</time></trkpt><trkpt lat="43.600920515704914" lon="2.5818530510253788"><ele>675.0</ele><time>2026-04-06T10:23:50Z</time></trkpt><trkpt lat="43.60082582613721" lon="2.58202574867861"><ele>675.0</ele><time>2026-04-06T10:23:51Z</time></trkpt><trkpt lat="43.600737106828056" lon="2.58217736805663"><ele>675.0</ele><time>2026-04-06T10:23:52Z</time></trkpt><trkpt lat="43.60065315335764" lon="2.5823343480915"><ele>675.0</ele><time>2026-04-06T10:23:53Z</time></trkpt><trkpt lat="43.600569344053575" lon="2.5824545231549534"><ele>675.0</ele><time>2026-04-06T10:23:54Z</time></trkpt><trkpt lat="43.60045313267779" lon="2.5824847269562787"><ele>671.25</ele><time>2026-04-06T10:23:55Z</time></trkpt><trkpt lat="43.60031275391492" lon="2.582520628676498"><ele>667.5</ele><time>2026-04-06T10:23:56Z</time></trkpt><trkpt lat="43.600165019918826" lon="2.5825148179789212"><ele>663.75</ele><time>2026-04-06T10:23:57Z</time></trkpt><trkpt lat="43.6000187369456" lon="2.5824849789582816"><ele>660.0</ele><time>2026-04-06T10:23:58Z</time></trkpt><trkpt lat="43.59985901474743" lon="2.5824999096883356"><ele>660.0</ele><time>2026-04-06T10:23:59Z</time></trkpt><trkpt lat="43.59969645853641" lon="2.582491042616374"><ele>660.0</ele><time>2026-04-06T10:24:00Z</time></trkpt><trkpt lat="43.59952018621576" lon="2.58249644648577"><ele>660.0</ele><time>2026-04-06T10:24:01Z</time></trkpt><trkpt lat="43.599337749184436" lon="2.582464072416421"><ele>663.0</ele><time>2026-04-06T10:24:02Z</time></trkpt><trkpt lat="43.59915369749389" lon="2.5824477406895605"><ele>666.0</ele><time>2026-04-06T10:24:03Z</time></trkpt><trkpt lat="43.59898424279607" lon="2.58242657962601"><ele>669.0</ele><time>2026-04-06T10:24:04Z</time></trkpt><trkpt lat="43.598822165149315" lon="2.582394983091148"><ele>669.0</ele><time>2026-04-06T10:24:05Z</time></trkpt><trkpt lat="43.59867173030451" lon="2.582341193620734"><ele>669.0</ele><time>2026-04-06T10:24:06Z</time></trkpt><trkpt lat="43.59853507112303" lon="2.5822399853986013"><ele>669.0</ele><time>2026-04-06T10:24:07Z</time></trkpt><trkpt lat="43.5983953682195" lon="2.582119230721947"><ele>666.6666666666666</ele><time>2026-04-06T10:24:08Z</time></trkpt><trkpt lat="43.59826412675546" lon="2.58198220817256"><ele>664.3333333333333</ele><time>2026-04-06T10:24:09Z</time></trkpt><trkpt lat="43.59812790947292" lon="2.581827857637392"><ele>662.0</ele><time>2026-04-06T10:24:10Z</time></trkpt><trkpt lat="43.59799743765792" lon="2.5816742115973286"><ele>662.0</ele><time>2026-04-06T10:24:11Z</time></trkpt><trkpt lat="43.59787347319383" lon="2.5815269726296304"><ele>662.0</ele><time>2026-04-06T10:24:12Z</time></trkpt><trkpt lat="43.597755805693616" lon="2.5813762384916177"><ele>662.0</ele><time>2026-04-06T10:24:13Z</time></trkpt><trkpt lat="43.597651241617754" lon="2.5812381736672054"><ele>660.25</ele><time>2026-04-06T10:24:14Z</time></trkpt><trkpt lat="43.59753865173237" lon="2.5811490565534174"><ele>658.5</ele><time>2026-04-06T10:24:15Z</time></trkpt><trkpt lat="43.59743706473679" lon="2.5810511212687826"><ele>656.75</ele><time>2026-04-06T10:24:16Z</time></trkpt><trkpt lat="43.59732183734755" lon="2.5810309549333144"><ele>655.0</ele><time>2026-04-06T10:24:17Z</time></trkpt><trkpt lat="43.597221387016006" lon="2.5810760841126004"><ele>655.0</ele><time>2026-04-06T10:24:18Z</time></trkpt><trkpt lat="43.59712860073703" lon="2.581192626848972"><ele>655.0</ele><time>2026-04-06T10:24:19Z</time></trkpt><trkpt lat="43.597037384298616" lon="2.5813693845423957"><ele>655.0</ele><time>2026-04-06T10:24:20Z</time></trkpt><trkpt lat="43.59696410606217" lon="2.5815545355698655"><ele>655.0</ele><time>2026-04-06T10:24:21Z</time></trkpt><trkpt lat="43.59688834764059" lon="2.5817540560658063"><ele>655.0</ele><time>2026-04-06T10:24:22Z</time></trkpt><trkpt lat="43.59682583698027" lon="2.581964193375948"><ele>655.0</ele><time>2026-04-06T10:24:23Z</time></trkpt><trkpt lat="43.5967732693102" lon="2.582184275939876"><ele>655.0</ele><time>2026-04-06T10:24:24Z</time></trkpt><trkpt lat="43.59672908975249" lon="2.5824195533906926"><ele>658.3333333333334</ele><time>2026-04-06T10:24:25Z</time></trkpt><trkpt lat="43.596685532249836" lon="2.5826693587884595"><ele>661.6666666666666</ele><time>2026-04-06T10:24:26Z</time></trkpt><trkpt lat="43.59665189321126" lon="2.5829307863719775"><ele>665.0</ele><time>2026-04-06T10:24:27Z</time></trkpt><trkpt lat="43.596635503922364" lon="2.583193226135943"><ele>666.0</ele><time>2026-04-06T10:24:28Z</time></trkpt><trkpt lat="43.59664688367617" lon="2.583453083915539"><ele>667.0</ele><time>2026-04-06T10:24:29Z</time></trkpt><trkpt lat="43.59667223524017" lon="2.583715428172012"><ele>668.0</ele><time>2026-04-06T10:24:30Z</time></trkpt><trkpt lat="43.59670903065587" lon="2.5839833325596966"><ele>668.0</ele><time>2026-04-06T10:24:31Z</time></trkpt><trkpt lat="43.5967404970755" lon="2.58425343775865"><ele>668.0</ele><time>2026-04-06T10:24:32Z</time></trkpt><trkpt lat="43.59676536779978" lon="2.5845272973245117"><ele>668.0</ele><time>2026-04-06T10:24:33Z</time></trkpt><trkpt lat="43.59678035379409" lon="2.584797260927496"><ele>666.0</ele><time>2026-04-06T10:24:34Z</time></trkpt><trkpt lat="43.59680571036093" lon="2.585067882004452"><ele>664.0</ele><time>2026-04-06T10:24:35Z</time></trkpt><trkpt lat="43.59683986008308" lon="2.5853331148000764"><ele>662.0</ele><time>2026-04-06T10:24:36Z</time></trkpt><trkpt lat="43.59688557080586" lon="2.5855835523904163"><ele>660.6666666666666</ele><time>2026-04-06T10:24:37Z</time></trkpt><trkpt lat="43.59693047107629" lon="2.5858372174400275"><ele>659.3333333333334</ele><time>2026-04-06T10:24:38Z</time></trkpt><trkpt lat="43.59697030088787" lon="2.586084235492414"><ele>658.0</ele><time>2026-04-06T10:24:39Z</time></trkpt><trkpt lat="43.596993306315724" lon="2.5863477094949623"><ele>658.0</ele><time>2026-04-06T10:24:40Z</time></trkpt><trkpt lat="43.59699897869111" lon="2.586602406425896"><ele>658.0</ele><time>2026-04-06T10:24:41Z</time></trkpt><trkpt lat="43.596985986232085" lon="2.586863274252903"><ele>658.0</ele><time>2026-04-06T10:24:42Z</time></trkpt><trkpt lat="43.59697411370971" lon="2.5871207635694535"><ele>658.0</ele><time>2026-04-06T10:24:43Z</time></trkpt><trkpt lat="43.596943276245575" lon="2.5873901785385827"><ele>658.0</ele><time>2026-04-06T10:24:44Z</time></trkpt><trkpt lat="43.59691964639432" lon="2.587662909704489"><ele>658.0</ele><time>2026-04-06T10:24:45Z</time></trkpt><trkpt lat="43.59688975710046" lon="2.5879243890688386"><ele>658.0</ele><time>2026-04-06T10:24:46Z</time></trkpt><trkpt lat="43.596865838354546" lon="2.5881829282797257"><ele>658.0</ele><time>2026-04-06T10:24:47Z</time></trkpt><trkpt lat="43.59684048197624" lon="2.5884515556011323"><ele>658.0</ele><time>2026-04-06T10:24:48Z</time></trkpt><trkpt lat="43.596812823345374" lon="2.588711949998686"><ele>658.0</ele><time>2026-04-06T10:24:49Z</time></trkpt><trkpt lat="43.59676918841481" lon="2.5889661634189545"><ele>658.0</ele><time>2026-04-06T10:24:50Z</time></trkpt><trkpt lat="43.59670823414278" lon="2.5892147579751668"><ele>658.0</ele><time>2026-04-06T10:24:51Z</time></trkpt><trkpt lat="43.596678334885354" lon="2.5894579391971515"><ele>657.3333333333334</ele><time>2026-04-06T10:24:52Z</time></trkpt><trkpt lat="43.59668823514802" lon="2.5896877515931243"><ele>656.6666666666666</ele><time>2026-04-06T10:24:53Z</time></trkpt><trkpt lat="43.59671972960692" lon="2.589917865163356"><ele>656.0</ele><time>2026-04-06T10:24:54Z</time></trkpt><trkpt lat="43.596758236936665" lon="2.590136686885828"><ele>653.0</ele><time>2026-04-06T10:24:55Z</time></trkpt><trkpt lat="43.59682589433845" lon="2.5903531155269093"><ele>650.0</ele><time>2026-04-06T10:24:56Z</time></trkpt><trkpt lat="43.596896703241484" lon="2.5905729227488714"><ele>647.0</ele><time>2026-04-06T10:24:57Z</time></trkpt><trkpt lat="43.59700469909279" lon="2.59077845546747"><ele>656.6666666666666</ele><time>2026-04-06T10:24:58Z</time></trkpt><trkpt lat="43.597102630248116" lon="2.590991946494658"><ele>666.3333333333334</ele><time>2026-04-06T10:24:59Z</time></trkpt><trkpt lat="43.59719331454443" lon="2.591201609287218"><ele>676.0</ele><time>2026-04-06T10:25:00Z</time></trkpt><trkpt lat="43.59727573704633" lon="2.5914188818740853"><ele>676.0</ele><time>2026-04-06T10:25:01Z</time></trkpt><trkpt lat="43.59734763808568" lon="2.5916375187582834"><ele>676.0</ele><time>2026-04-06T10:25:02Z</time></trkpt><trkpt lat="43.5973983497212" lon="2.5918694024139866"><ele>676.0</ele><time>2026-04-06T10:25:03Z</time></trkpt><trkpt lat="43.59743674398281" lon="2.59209801576441"><ele>673.0</ele><time>2026-04-06T10:25:04Z</time></trkpt><trkpt lat="43.597480838662015" lon="2.5923426158493794"><ele>670.0</ele><time>2026-04-06T10:25:05Z</time></trkpt><trkpt lat="43.597499843707205" lon="2.5925812108221735"><ele>667.0</ele><time>2026-04-06T10:25:06Z</time></trkpt><trkpt lat="43.597503628441466" lon="2.592836089708743"><ele>664.3333333333334</ele><time>2026-04-06T10:25:07Z</time></trkpt><trkpt lat="43.5975462728163" lon="2.593083922304474"><ele>661.6666666666666</ele><time>2026-04-06T10:25:08Z</time></trkpt><trkpt lat="43.597591012365385" lon="2.5933227685606313"><ele>659.0</ele><time>2026-04-06T10:25:09Z</time></trkpt><trkpt lat="43.597637397389896" lon="2.593569248477568"><ele>657.3333333333333</ele><time>2026-04-06T10:25:10Z</time></trkpt><trkpt lat="43.59767904485131" lon="2.5938087833363532"><ele>655.6666666666666</ele><time>2026-04-06T10:25:11Z</time></trkpt><trkpt lat="43.59770972766178" lon="2.5940404856942956"><ele>654.0</ele><time>2026-04-06T10:25:12Z</time></trkpt><trkpt lat="43.59775251965103" lon="2.5942481337520644"><ele>654.0</ele><time>2026-04-06T10:25:13Z</time></trkpt><trkpt lat="43.597795420682715" lon="2.5944387765467862"><ele>654.0</ele><time>2026-04-06T10:25:14Z</time></trkpt><trkpt lat="43.59785881581136" lon="2.5946099117990413"><ele>654.0</ele><time>2026-04-06T10:25:15Z</time></trkpt><trkpt lat="43.597926930152916" lon="2.5947491628658286"><ele>654.0</ele><time>2026-04-06T10:25:16Z</time></trkpt><trkpt lat="43.59801781684366" lon="2.5948525495480896"><ele>659.0</ele><time>2026-04-06T10:25:17Z</time></trkpt><trkpt lat="43.59807758569531" lon="2.5949769826257256"><ele>664.0</ele><time>2026-04-06T10:25:18Z</time></trkpt><trkpt lat="43.598102492799164" lon="2.5950963584946463"><ele>669.0</ele><time>2026-04-06T10:25:19Z</time></trkpt><trkpt lat="43.59804369166517" lon="2.595246701843588"><ele>674.0</ele><time>2026-04-06T10:25:20Z</time></trkpt><trkpt lat="43.597949494774355" lon="2.595355689534043"><ele>679.0</ele><time>2026-04-06T10:25:21Z</time></trkpt><trkpt lat="43.59787309200315" lon="2.5955198575968654"><ele>673.25</ele><time>2026-04-06T10:25:22Z</time></trkpt><trkpt lat="43.5977808963402" lon="2.5956578868714297"><ele>667.5</ele><time>2026-04-06T10:25:23Z</time></trkpt><trkpt lat="43.59770172059745" lon="2.5958180715672388"><ele>661.75</ele><time>2026-04-06T10:25:24Z</time></trkpt><trkpt lat="43.59762016306463" lon="2.5959758792083587"><ele>656.0</ele><time>2026-04-06T10:25:25Z</time></trkpt><trkpt lat="43.59753400998089" lon="2.596131461041237"><ele>660.25</ele><time>2026-04-06T10:25:26Z</time></trkpt><trkpt lat="43.59744110214006" lon="2.596266431579861"><ele>664.5</ele><time>2026-04-06T10:25:27Z</time></trkpt><trkpt lat="43.59731788615935" lon="2.5963522814708955"><ele>668.75</ele><time>2026-04-06T10:25:28Z</time></trkpt><trkpt lat="43.597188891410575" lon="2.596432994092705"><ele>673.0</ele><time>2026-04-06T10:25:29Z</time></trkpt><trkpt lat="43.59705761282378" lon="2.5965071966138864"><ele>670.0</ele><time>2026-04-06T10:25:30Z</time></trkpt><trkpt lat="43.59692980281473" lon="2.596577227416201"><ele>667.0</ele><time>2026-04-06T10:25:31Z</time></trkpt><trkpt lat="43.59680728152413" lon="2.596635059715428"><ele>664.0</ele><time>2026-04-06T10:25:32Z</time></trkpt><trkpt lat="43.596684918453676" lon="2.5966927146102936"><ele>661.0</ele><time>2026-04-06T10:25:33Z</time></trkpt><trkpt lat="43.59656544932822" lon="2.596756153812263"><ele>661.0</ele><time>2026-04-06T10:25:34Z</time></trkpt><trkpt lat="43.596454621251375" lon="2.596814813798458"><ele>661.0</ele><time>2026-04-06T10:25:35Z</time></trkpt><trkpt lat="43.596339986487784" lon="2.5968701316291116"><ele>661.0</ele><time>2026-04-06T10:25:36Z</time></trkpt><trkpt lat="43.59622877452632" lon="2.596919806355483"><ele>661.0</ele><time>2026-04-06T10:25:37Z</time></trkpt><trkpt lat="43.59611754741881" lon="2.596970034742863"><ele>662.8</ele><time>2026-04-06T10:25:38Z</time></trkpt><trkpt lat="43.59602223042191" lon="2.597032630078497"><ele>664.5999999999999</ele><time>2026-04-06T10:25:39Z</time></trkpt><trkpt lat="43.59592403400357" lon="2.59709153794339"><ele>666.4</ele><time>2026-04-06T10:25:40Z</time></trkpt><trkpt lat="43.595836595207814" lon="2.5971541557741475"><ele>668.2</ele><time>2026-04-06T10:25:41Z</time></trkpt><trkpt lat="43.59575113796476" lon="2.597228772870864"><ele>670.0</ele><time>2026-04-06T10:25:42Z</time></trkpt><trkpt lat="43.59566406981735" lon="2.597294073304024"><ele>670.0</ele><time>2026-04-06T10:25:43Z</time></trkpt><trkpt lat="43.595619147481735" lon="2.597443927972064"><ele>670.0</ele><time>2026-04-06T10:25:44Z</time></trkpt><trkpt lat="43.595594529090384" lon="2.5975536732983593"><ele>670.0</ele><time>2026-04-06T10:25:45Z</time></trkpt><trkpt lat="43.59554789278767" lon="2.5976945832923315"><ele>670.0</ele><time>2026-04-06T10:25:47Z</time></trkpt><trkpt lat="43.595502940934836" lon="2.5977760084723505"><ele>670.0</ele><time>2026-04-06T10:25:48Z</time></trkpt><trkpt lat="43.595496727137636" lon="2.597916827597898"><ele>671.75</ele><time>2026-04-06T10:25:49Z</time></trkpt><trkpt lat="43.59548520083081" lon="2.5980778810743077"><ele>673.5</ele><time>2026-04-06T10:25:50Z</time></trkpt><trkpt lat="43.59546323008821" lon="2.5982538304291376"><ele>675.25</ele><time>2026-04-06T10:25:51Z</time></trkpt><trkpt lat="43.59544906901663" lon="2.5984258727813905"><ele>677.0</ele><time>2026-04-06T10:25:52Z</time></trkpt><trkpt lat="43.59544607289203" lon="2.598608024591528"><ele>677.5</ele><time>2026-04-06T10:25:53Z</time></trkpt><trkpt lat="43.595444849592994" lon="2.598800154596504"><ele>678.0</ele><time>2026-04-06T10:25:54Z</time></trkpt><trkpt lat="43.59546088532863" lon="2.599005962069185"><ele>678.5</ele><time>2026-04-06T10:25:55Z</time></trkpt><trkpt lat="43.59550354667784" lon="2.59920680921091"><ele>679.0</ele><time>2026-04-06T10:25:56Z</time></trkpt><trkpt lat="43.59554770398174" lon="2.5994066585908056"><ele>677.3333333333334</ele><time>2026-04-06T10:25:57Z</time></trkpt><trkpt lat="43.5956000646965" lon="2.5996060949856874"><ele>675.6666666666666</ele><time>2026-04-06T10:25:58Z</time></trkpt><trkpt lat="43.59564576987571" lon="2.599812440158248"><ele>674.0</ele><time>2026-04-06T10:25:59Z</time></trkpt><trkpt lat="43.59570302684949" lon="2.600001403280175"><ele>674.0</ele><time>2026-04-06T10:26:00Z</time></trkpt><trkpt lat="43.595783480298685" lon="2.60014860602837"><ele>674.0</ele><time>2026-04-06T10:26:01Z</time></trkpt><trkpt lat="43.59588912999584" lon="2.600257477965115"><ele>674.0</ele><time>2026-04-06T10:26:02Z</time></trkpt><trkpt lat="43.59601947921492" lon="2.6003187274859463"><ele>674.0</ele><time>2026-04-06T10:26:03Z</time></trkpt><trkpt lat="43.59616756751666" lon="2.6003067983852803"><ele>679.6666666666666</ele><time>2026-04-06T10:26:04Z</time></trkpt><trkpt lat="43.59632415592961" lon="2.600199670886042"><ele>685.3333333333334</ele><time>2026-04-06T10:26:05Z</time></trkpt><trkpt lat="43.596465396200045" lon="2.600101034760961"><ele>691.0</ele><time>2026-04-06T10:26:06Z</time></trkpt><trkpt lat="43.59662507321178" lon="2.6001037561788998"><ele>691.0</ele><time>2026-04-06T10:26:07Z</time></trkpt><trkpt lat="43.596791434386816" lon="2.600111392714383"><ele>691.0</ele><time>2026-04-06T10:26:08Z</time></trkpt><trkpt lat="43.59693335243369" lon="2.600070221294676"><ele>691.0</ele><time>2026-04-06T10:26:09Z</time></trkpt><trkpt lat="43.597053515368295" lon="2.600000568467491"><ele>691.0</ele><time>2026-04-06T10:26:10Z</time></trkpt><trkpt lat="43.597143568568164" lon="2.5998319737918574"><ele>693.0</ele><time>2026-04-06T10:26:11Z</time></trkpt><trkpt lat="43.597244113775965" lon="2.5996498216985637"><ele>695.0</ele><time>2026-04-06T10:26:12Z</time></trkpt><trkpt lat="43.597308399586545" lon="2.599423082451708"><ele>697.0</ele><time>2026-04-06T10:26:13Z</time></trkpt><trkpt lat="43.59739035822896" lon="2.5991995812433752"><ele>697.0</ele><time>2026-04-06T10:26:14Z</time></trkpt><trkpt lat="43.597472070003285" lon="2.5989707939412474"><ele>697.0</ele><time>2026-04-06T10:26:15Z</time></trkpt><trkpt lat="43.597557757014215" lon="2.5987415740271675"><ele>697.0</ele><time>2026-04-06T10:26:16Z</time></trkpt><trkpt lat="43.597649126983185" lon="2.5985175877055413"><ele>697.0</ele><time>2026-04-06T10:26:17Z</time></trkpt><trkpt lat="43.59773212913328" lon="2.5983033551844925"><ele>697.0</ele><time>2026-04-06T10:26:18Z</time></trkpt><trkpt lat="43.597807282858334" lon="2.598098164001586"><ele>697.0</ele><time>2026-04-06T10:26:19Z</time></trkpt><trkpt lat="43.59788819927067" lon="2.5979063397983864"><ele>697.0</ele><time>2026-04-06T10:26:20Z</time></trkpt><trkpt lat="43.59799345520246" lon="2.597735820265099"><ele>697.0</ele><time>2026-04-06T10:26:21Z</time></trkpt><trkpt lat="43.598093146496105" lon="2.5976160749321333"><ele>697.0</ele><time>2026-04-06T10:26:22Z</time></trkpt><trkpt lat="43.598218814469654" lon="2.5975266154486967"><ele>697.0</ele><time>2026-04-06T10:26:23Z</time></trkpt><trkpt lat="43.59837322695411" lon="2.5974257611592435"><ele>697.0</ele><time>2026-04-06T10:26:24Z</time></trkpt><trkpt lat="43.59854594194395" lon="2.597416836092444"><ele>697.0</ele><time>2026-04-06T10:26:25Z</time></trkpt><trkpt lat="43.598721025980495" lon="2.5974538273470693"><ele>697.0</ele><time>2026-04-06T10:26:26Z</time></trkpt><trkpt lat="43.59886559666157" lon="2.597598555674874"><ele>698.0</ele><time>2026-04-06T10:26:27Z</time></trkpt><trkpt lat="43.59901200765754" lon="2.597762896246247"><ele>699.0</ele><time>2026-04-06T10:26:28Z</time></trkpt><trkpt lat="43.59912126295461" lon="2.597951861996391"><ele>700.0</ele><time>2026-04-06T10:26:29Z</time></trkpt><trkpt lat="43.5992551061265" lon="2.5981180322567465"><ele>700.0</ele><time>2026-04-06T10:26:30Z</time></trkpt><trkpt lat="43.599412525804645" lon="2.598228090349898"><ele>700.0</ele><time>2026-04-06T10:26:31Z</time></trkpt><trkpt lat="43.59959261432754" lon="2.5983277047490247"><ele>700.0</ele><time>2026-04-06T10:26:32Z</time></trkpt><trkpt lat="43.59978329225702" lon="2.598422193737448"><ele>700.6666666666667</ele><time>2026-04-06T10:26:33Z</time></trkpt><trkpt lat="43.59996442566318" lon="2.5985302351042687"><ele>701.3333333333334</ele><time>2026-04-06T10:26:34Z</time></trkpt><trkpt lat="43.600134720384716" lon="2.5986458757914095"><ele>702.0</ele><time>2026-04-06T10:26:35Z</time></trkpt><trkpt lat="43.60029210301786" lon="2.5987811573626822"><ele>707.3333333333334</ele><time>2026-04-06T10:26:36Z</time></trkpt><trkpt lat="43.60041856316035" lon="2.5989306456047765"><ele>712.6666666666667</ele><time>2026-04-06T10:26:37Z</time></trkpt><trkpt lat="43.600548438566044" lon="2.5990398783764097"><ele>718.0</ele><time>2026-04-06T10:26:38Z</time></trkpt><trkpt lat="43.60068357551783" lon="2.5991235130528767"><ele>718.0</ele><time>2026-04-06T10:26:39Z</time></trkpt><trkpt lat="43.6008446905355" lon="2.599121935150151"><ele>718.0</ele><time>2026-04-06T10:26:40Z</time></trkpt><trkpt lat="43.60102530791814" lon="2.599088787969982"><ele>718.0</ele><time>2026-04-06T10:26:41Z</time></trkpt><trkpt lat="43.60120397395269" lon="2.59906549686008"><ele>721.0</ele><time>2026-04-06T10:26:42Z</time></trkpt><trkpt lat="43.60139140349656" lon="2.5990439009586765"><ele>724.0</ele><time>2026-04-06T10:26:43Z</time></trkpt><trkpt lat="43.601585592667234" lon="2.599017808017531"><ele>727.0</ele><time>2026-04-06T10:26:44Z</time></trkpt><trkpt lat="43.601772900099434" lon="2.5989867735111334"><ele>727.0</ele><time>2026-04-06T10:26:45Z</time></trkpt><trkpt lat="43.601953952243214" lon="2.5989646597167884"><ele>727.0</ele><time>2026-04-06T10:26:46Z</time></trkpt><trkpt lat="43.60212229922252" lon="2.598998360122827"><ele>727.0</ele><time>2026-04-06T10:26:47Z</time></trkpt><trkpt lat="43.60225448643671" lon="2.5990831409512563"><ele>731.3333333333334</ele><time>2026-04-06T10:26:48Z</time></trkpt><trkpt lat="43.60238034741417" lon="2.5992083912489967"><ele>735.6666666666666</ele><time>2026-04-06T10:26:49Z</time></trkpt><trkpt lat="43.60252963094263" lon="2.599339797180673"><ele>740.0</ele><time>2026-04-06T10:26:50Z</time></trkpt><trkpt lat="43.60271367989731" lon="2.5994451449478255"><ele>741.3333333333333</ele><time>2026-04-06T10:26:51Z</time></trkpt><trkpt lat="43.60287215736036" lon="2.5994840204172394"><ele>742.6666666666666</ele><time>2026-04-06T10:26:52Z</time></trkpt><trkpt lat="43.60304255252328" lon="2.599530357264255"><ele>744.0</ele><time>2026-04-06T10:26:53Z</time></trkpt><trkpt lat="43.60321411524468" lon="2.5995429388643143"><ele>744.0</ele><time>2026-04-06T10:26:54Z</time></trkpt><trkpt lat="43.603404312696355" lon="2.5995500727012892"><ele>744.0</ele><time>2026-04-06T10:26:55Z</time></trkpt><trkpt lat="43.60357186224355" lon="2.5995922669029703"><ele>744.0</ele><time>2026-04-06T10:26:56Z</time></trkpt><trkpt lat="43.603706321254684" lon="2.5997292545345276"><ele>744.75</ele><time>2026-04-06T10:26:57Z</time></trkpt><trkpt lat="43.60379916850792" lon="2.599799547777408"><ele>745.5</ele><time>2026-04-06T10:26:58Z</time></trkpt><trkpt lat="43.60394219807648" lon="2.599835606051786"><ele>746.25</ele><time>2026-04-06T10:26:59Z</time></trkpt><trkpt lat="43.60407413413725" lon="2.599772322203991"><ele>747.0</ele><time>2026-04-06T10:27:00Z</time></trkpt><trkpt lat="43.60420360378934" lon="2.5996345241267393"><ele>749.0</ele><time>2026-04-06T10:27:01Z</time></trkpt><trkpt lat="43.60430757890099" lon="2.5994445166059448"><ele>751.0</ele><time>2026-04-06T10:27:02Z</time></trkpt><trkpt lat="43.6044200293142" lon="2.599323795968198"><ele>753.0</ele><time>2026-04-06T10:27:03Z</time></trkpt><trkpt lat="43.604530661065034" lon="2.5991956556950697"><ele>753.0</ele><time>2026-04-06T10:27:04Z</time></trkpt><trkpt lat="43.6046645586063" lon="2.5990722871578265"><ele>753.0</ele><time>2026-04-06T10:27:05Z</time></trkpt><trkpt lat="43.60480061629176" lon="2.5989952850008846"><ele>753.0</ele><time>2026-04-06T10:27:06Z</time></trkpt><trkpt lat="43.604953678155155" lon="2.598995710493741"><ele>753.0</ele><time>2026-04-06T10:27:07Z</time></trkpt><trkpt lat="43.60507877390802" lon="2.5991020815451615"><ele>753.0</ele><time>2026-04-06T10:27:08Z</time></trkpt><trkpt lat="43.60516856955034" lon="2.5991474752432313"><ele>753.0</ele><time>2026-04-06T10:27:09Z</time></trkpt><trkpt lat="43.605311625206426" lon="2.599163468623635"><ele>753.0</ele><time>2026-04-06T10:27:10Z</time></trkpt><trkpt lat="43.60543974771627" lon="2.59917966642139"><ele>752.5</ele><time>2026-04-06T10:27:11Z</time></trkpt><trkpt lat="43.60552333764244" lon="2.5991416886232965"><ele>752.0</ele><time>2026-04-06T10:27:12Z</time></trkpt><trkpt lat="43.60563323929268" lon="2.5991147751518966"><ele>751.5</ele><time>2026-04-06T10:27:14Z</time></trkpt><trkpt lat="43.60568604065548" lon="2.5991622920243915"><ele>751.0</ele><time>2026-04-06T10:27:16Z</time></trkpt><trkpt lat="43.60558751865248" lon="2.5991597374507847"><ele>750.5</ele><time>2026-04-06T10:27:20Z</time></trkpt><trkpt lat="43.60557416763625" lon="2.5992574666547976"><ele>750.0</ele><time>2026-04-06T10:27:21Z</time></trkpt><trkpt lat="43.60550048421347" lon="2.599257044889807"><ele>750.0</ele><time>2026-04-06T10:27:25Z</time></trkpt><trkpt lat="43.605446492720176" lon="2.5991917772460176"><ele>750.0</ele><time>2026-04-06T10:39:16Z</time></trkpt><trkpt lat="43.6053397976692" lon="2.5992461441758175"><ele>750.0</ele><time>2026-04-06T10:39:18Z</time></trkpt><trkpt lat="43.605216039384906" lon="2.5993052241842256"><ele>750.0</ele><time>2026-04-06T10:39:20Z</time></trkpt><trkpt lat="43.60512867337528" lon="2.599288531861238"><ele>750.0</ele><time>2026-04-06T10:39:21Z</time></trkpt><trkpt lat="43.605032020704584" lon="2.5993177121498072"><ele>749.5</ele><time>2026-04-06T10:39:22Z</time></trkpt><trkpt lat="43.604936663262464" lon="2.5994122260098256"><ele>749.0</ele><time>2026-04-06T10:39:23Z</time></trkpt><trkpt lat="43.60482751276507" lon="2.5994827592109826"><ele>748.5</ele><time>2026-04-06T10:39:24Z</time></trkpt><trkpt lat="43.60471261367582" lon="2.599573856075704"><ele>748.0</ele><time>2026-04-06T10:39:25Z</time></trkpt><trkpt lat="43.604595474179305" lon="2.599668904233106"><ele>747.75</ele><time>2026-04-06T10:39:26Z</time></trkpt><trkpt lat="43.6044841764687" lon="2.599767775252585"><ele>747.5</ele><time>2026-04-06T10:39:27Z</time></trkpt><trkpt lat="43.60437175763889" lon="2.5998631946528943"><ele>747.25</ele><time>2026-04-06T10:39:28Z</time></trkpt><trkpt lat="43.604256415906605" lon="2.5999618072343673"><ele>747.0</ele><time>2026-04-06T10:39:29Z</time></trkpt><trkpt lat="43.60412717224048" lon="2.6000446165777507"><ele>747.0</ele><time>2026-04-06T10:39:30Z</time></trkpt><trkpt lat="43.603988594162345" lon="2.6000988471859525"><ele>747.0</ele><time>2026-04-06T10:39:31Z</time></trkpt><trkpt lat="43.60382873466113" lon="2.600130418489658"><ele>747.0</ele><time>2026-04-06T10:39:32Z</time></trkpt><trkpt lat="43.60367757351207" lon="2.6000954622133885"><ele>746.0</ele><time>2026-04-06T10:39:33Z</time></trkpt><trkpt lat="43.60352572629007" lon="2.6000794394424536"><ele>745.0</ele><time>2026-04-06T10:39:34Z</time></trkpt><trkpt lat="43.60337887192464" lon="2.6000148365283007"><ele>744.0</ele><time>2026-04-06T10:39:35Z</time></trkpt><trkpt lat="43.60321515956797" lon="2.599954078056422"><ele>744.0</ele><time>2026-04-06T10:39:36Z</time></trkpt><trkpt lat="43.60304853863166" lon="2.5999290660368306"><ele>744.0</ele><time>2026-04-06T10:39:37Z</time></trkpt><trkpt lat="43.602875478455516" lon="2.599944095103371"><ele>744.0</ele><time>2026-04-06T10:39:38Z</time></trkpt><trkpt lat="43.60271509622403" lon="2.5999714200223876"><ele>741.6666666666666</ele><time>2026-04-06T10:39:39Z</time></trkpt><trkpt lat="43.60254196153463" lon="2.5999811314680197"><ele>739.3333333333333</ele><time>2026-04-06T10:39:40Z</time></trkpt><trkpt lat="43.60236952788704" lon="2.599961588646195"><ele>737.0</ele><time>2026-04-06T10:39:41Z</time></trkpt><trkpt lat="43.6021952811429" lon="2.5999142821202073"><ele>737.0</ele><time>2026-04-06T10:39:42Z</time></trkpt><trkpt lat="43.60202287861961" lon="2.5998560953250203"><ele>737.0</ele><time>2026-04-06T10:39:43Z</time></trkpt><trkpt lat="43.60185174231477" lon="2.599799113623453"><ele>737.0</ele><time>2026-04-06T10:39:44Z</time></trkpt><trkpt lat="43.60167984232328" lon="2.599766793434535"><ele>734.6666666666666</ele><time>2026-04-06T10:39:45Z</time></trkpt><trkpt lat="43.60150405269462" lon="2.5997629756638703"><ele>732.3333333333334</ele><time>2026-04-06T10:39:46Z</time></trkpt><trkpt lat="43.60132911804608" lon="2.599780923842959"><ele>730.0</ele><time>2026-04-06T10:39:47Z</time></trkpt><trkpt lat="43.601160276722375" lon="2.599832998563786"><ele>726.6666666666667</ele><time>2026-04-06T10:39:48Z</time></trkpt><trkpt lat="43.60100215010463" lon="2.599921814227375"><ele>723.3333333333334</ele><time>2026-04-06T10:39:49Z</time></trkpt><trkpt lat="43.60084265098733" lon="2.600021280927003"><ele>720.0</ele><time>2026-04-06T10:39:50Z</time></trkpt><trkpt lat="43.60068830087632" lon="2.600069050766707"><ele>720.0</ele><time>2026-04-06T10:39:51Z</time></trkpt><trkpt lat="43.60053383699032" lon="2.6001203368688204"><ele>720.0</ele><time>2026-04-06T10:39:52Z</time></trkpt><trkpt lat="43.60037071736146" lon="2.600108129741857"><ele>720.0</ele><time>2026-04-06T10:39:53Z</time></trkpt><trkpt lat="43.60020078553697" lon="2.600040288442148"><ele>718.0</ele><time>2026-04-06T10:39:54Z</time></trkpt><trkpt lat="43.60006101762656" lon="2.599954159363263"><ele>716.0</ele><time>2026-04-06T10:39:55Z</time></trkpt><trkpt lat="43.59992008832366" lon="2.5998177303463272"><ele>714.0</ele><time>2026-04-06T10:39:56Z</time></trkpt><trkpt lat="43.59974768265674" lon="2.5997768622076687"><ele>714.0</ele><time>2026-04-06T10:39:57Z</time></trkpt><trkpt lat="43.59958395402889" lon="2.5997507635506083"><ele>714.0</ele><time>2026-04-06T10:39:58Z</time></trkpt><trkpt lat="43.59942004934782" lon="2.5997969556870704"><ele>714.0</ele><time>2026-04-06T10:39:59Z</time></trkpt><trkpt lat="43.59924000739231" lon="2.5998837116199613"><ele>709.0</ele><time>2026-04-06T10:40:00Z</time></trkpt><trkpt lat="43.59907346179184" lon="2.5999405612974598"><ele>704.0</ele><time>2026-04-06T10:40:01Z</time></trkpt><trkpt lat="43.598907992774144" lon="2.5999874027663807"><ele>699.0</ele><time>2026-04-06T10:40:02Z</time></trkpt><trkpt lat="43.59875146203296" lon="2.600046612654955"><ele>696.6666666666666</ele><time>2026-04-06T10:40:03Z</time></trkpt><trkpt lat="43.59860870473692" lon="2.6001677018022926"><ele>694.3333333333333</ele><time>2026-04-06T10:40:04Z</time></trkpt><trkpt lat="43.59849122485372" lon="2.6003393763072022"><ele>692.0</ele><time>2026-04-06T10:40:05Z</time></trkpt><trkpt lat="43.5983841654684" lon="2.600526437439236"><ele>692.0</ele><time>2026-04-06T10:40:06Z</time></trkpt><trkpt lat="43.598293173375986" lon="2.600730048131927"><ele>692.0</ele><time>2026-04-06T10:40:07Z</time></trkpt><trkpt lat="43.59818997431018" lon="2.6009324820540707"><ele>692.0</ele><time>2026-04-06T10:40:08Z</time></trkpt><trkpt lat="43.5980860470867" lon="2.6011327364347947"><ele>688.6666666666666</ele><time>2026-04-06T10:40:09Z</time></trkpt><trkpt lat="43.597971653018874" lon="2.601324688085298"><ele>685.3333333333334</ele><time>2026-04-06T10:40:10Z</time></trkpt><trkpt lat="43.59787405152657" lon="2.6015152939872555"><ele>682.0</ele><time>2026-04-06T10:40:11Z</time></trkpt><trkpt lat="43.597778294815384" lon="2.6017023003598845"><ele>682.0</ele><time>2026-04-06T10:40:12Z</time></trkpt><trkpt lat="43.59768039347087" lon="2.6018592731567143"><ele>682.0</ele><time>2026-04-06T10:40:13Z</time></trkpt><trkpt lat="43.5975913407164" lon="2.602018512615879"><ele>682.0</ele><time>2026-04-06T10:40:14Z</time></trkpt><trkpt lat="43.5975092064283" lon="2.6021677568261707"><ele>682.0</ele><time>2026-04-06T10:40:15Z</time></trkpt><trkpt lat="43.59744132082971" lon="2.6023039825339636"><ele>682.75</ele><time>2026-04-06T10:40:16Z</time></trkpt><trkpt lat="43.597367256555685" lon="2.602435000610947"><ele>683.5</ele><time>2026-04-06T10:40:16.999Z</time></trkpt><trkpt lat="43.597310187600925" lon="2.60256140227416"><ele>684.25</ele><time>2026-04-06T10:40:17.999Z</time></trkpt><trkpt lat="43.59726170642138" lon="2.6027041413889105"><ele>685.0</ele><time>2026-04-06T10:40:18.999Z</time></trkpt><trkpt lat="43.597221641634476" lon="2.602851177441322"><ele>687.25</ele><time>2026-04-06T10:40:19.999Z</time></trkpt><trkpt lat="43.597182003382066" lon="2.603010885786964"><ele>689.5</ele><time>2026-04-06T10:40:20.999Z</time></trkpt><trkpt lat="43.59715971891442" lon="2.6032025513175725"><ele>691.75</ele><time>2026-04-06T10:40:21.999Z</time></trkpt><trkpt lat="43.597148808559474" lon="2.6034011934996446"><ele>694.0</ele><time>2026-04-06T10:40:22.999Z</time></trkpt><trkpt lat="43.59715305904871" lon="2.6036097489763144"><ele>697.0</ele><time>2026-04-06T10:40:23.999Z</time></trkpt><trkpt lat="43.59713666444803" lon="2.603821391846697"><ele>700.0</ele><time>2026-04-06T10:40:24.999Z</time></trkpt><trkpt lat="43.5970974116293" lon="2.604068755617111"><ele>703.0</ele><time>2026-04-06T10:40:25.999Z</time></trkpt><trkpt lat="43.597055570469195" lon="2.604319866074229"><ele>694.6666666666667</ele><time>2026-04-06T10:40:26.999Z</time></trkpt><trkpt lat="43.59700136031996" lon="2.604557528262466"><ele>686.3333333333334</ele><time>2026-04-06T10:40:27.999Z</time></trkpt><trkpt lat="43.59692529470624" lon="2.604797695350739"><ele>678.0</ele><time>2026-04-06T10:40:28.999Z</time></trkpt><trkpt lat="43.59685254660389" lon="2.605028384050054"><ele>678.0</ele><time>2026-04-06T10:40:29.999Z</time></trkpt><trkpt lat="43.59677999016458" lon="2.605261513252469"><ele>678.0</ele><time>2026-04-06T10:40:30.999Z</time></trkpt><trkpt lat="43.596719908270806" lon="2.605493705226392"><ele>678.0</ele><time>2026-04-06T10:40:31.999Z</time></trkpt><trkpt lat="43.596691561138464" lon="2.605724270628457"><ele>679.6666666666666</ele><time>2026-04-06T10:40:32.999Z</time></trkpt><trkpt lat="43.59668450153628" lon="2.6059760098408686"><ele>681.3333333333333</ele><time>2026-04-06T10:40:33.999Z</time></trkpt><trkpt lat="43.59668410266471" lon="2.6062221876463925"><ele>683.0</ele><time>2026-04-06T10:40:34.999Z</time></trkpt><trkpt lat="43.59671915994758" lon="2.606459430520728"><ele>683.0</ele><time>2026-04-06T10:40:35.999Z</time></trkpt><trkpt lat="43.59676507621138" lon="2.6066896982153898"><ele>683.0</ele><time>2026-04-06T10:40:36.999Z</time></trkpt><trkpt lat="43.59683226090986" lon="2.6069112440217226"><ele>683.0</ele><time>2026-04-06T10:40:37.999Z</time></trkpt><trkpt lat="43.59691548754394" lon="2.6071252311179225"><ele>688.6666666666666</ele><time>2026-04-06T10:40:38.999Z</time></trkpt><trkpt lat="43.597014670069065" lon="2.607329809548295"><ele>694.3333333333334</ele><time>2026-04-06T10:40:39.999Z</time></trkpt><trkpt lat="43.59713590859344" lon="2.607509625660981"><ele>700.0</ele><time>2026-04-06T10:40:40.999Z</time></trkpt><trkpt lat="43.597241232006404" lon="2.607704022127336"><ele>695.6666666666667</ele><time>2026-04-06T10:40:41.999Z</time></trkpt><trkpt lat="43.59734388105238" lon="2.6078994073752706"><ele>691.3333333333334</ele><time>2026-04-06T10:40:42.999Z</time></trkpt><trkpt lat="43.59743919881318" lon="2.60809069964266"><ele>687.0</ele><time>2026-04-06T10:40:43.999Z</time></trkpt><trkpt lat="43.59752885421631" lon="2.608277706812121"><ele>687.0</ele><time>2026-04-06T10:40:44.999Z</time></trkpt><trkpt lat="43.59761541399036" lon="2.60848323255081"><ele>687.0</ele><time>2026-04-06T10:40:45.999Z</time></trkpt><trkpt lat="43.597697340891756" lon="2.608688970227986"><ele>687.0</ele><time>2026-04-06T10:40:46.999Z</time></trkpt><trkpt lat="43.5977765233661" lon="2.6088930057461637"><ele>691.3333333333334</ele><time>2026-04-06T10:40:47.999Z</time></trkpt><trkpt lat="43.5978541788574" lon="2.6090873732196687"><ele>695.6666666666667</ele><time>2026-04-06T10:40:48.999Z</time></trkpt><trkpt lat="43.59794333607592" lon="2.6092530598447046"><ele>700.0</ele><time>2026-04-06T10:40:49.999Z</time></trkpt><trkpt lat="43.59806646874424" lon="2.609360556227031"><ele>700.0</ele><time>2026-04-06T10:40:50.999Z</time></trkpt><trkpt lat="43.59820354087176" lon="2.6094698840780377"><ele>700.0</ele><time>2026-04-06T10:40:51.999Z</time></trkpt><trkpt lat="43.598354710358535" lon="2.6094957307170783"><ele>700.0</ele><time>2026-04-06T10:40:52.999Z</time></trkpt><trkpt lat="43.59850770509461" lon="2.609544323492557"><ele>702.75</ele><time>2026-04-06T10:40:53.999Z</time></trkpt><trkpt lat="43.598635320228524" lon="2.609620670056697"><ele>705.5</ele><time>2026-04-06T10:40:54.999Z</time></trkpt><trkpt lat="43.59867106135555" lon="2.609855729242777"><ele>708.25</ele><time>2026-04-06T10:40:55.999Z</time></trkpt><trkpt lat="43.59870156472281" lon="2.6100358910566364"><ele>711.0</ele><time>2026-04-06T10:40:56.999Z</time></trkpt><trkpt lat="43.598682610215" lon="2.6102217969975987"><ele>703.75</ele><time>2026-04-06T10:40:57.999Z</time></trkpt><trkpt lat="43.598657759143514" lon="2.6104068769106417"><ele>696.5</ele><time>2026-04-06T10:40:58.999Z</time></trkpt><trkpt lat="43.59863716280461" lon="2.6105960408539417"><ele>689.25</ele><time>2026-04-06T10:40:59.999Z</time></trkpt><trkpt lat="43.598633007448" lon="2.610798227621291"><ele>682.0</ele><time>2026-04-06T10:41:00.999Z</time></trkpt><trkpt lat="43.598620793210536" lon="2.6110160842600934"><ele>679.6666666666667</ele><time>2026-04-06T10:41:01.999Z</time></trkpt><trkpt lat="43.598630863773536" lon="2.611243934994866"><ele>677.3333333333334</ele><time>2026-04-06T10:41:02.999Z</time></trkpt><trkpt lat="43.59865034696459" lon="2.6114750866259846"><ele>675.0</ele><time>2026-04-06T10:41:03.999Z</time></trkpt><trkpt lat="43.59868900983278" lon="2.611708157963649"><ele>678.3333333333334</ele><time>2026-04-06T10:41:04.999Z</time></trkpt><trkpt lat="43.598724679577465" lon="2.611932517326986"><ele>681.6666666666667</ele><time>2026-04-06T10:41:06Z</time></trkpt><trkpt lat="43.598771791132044" lon="2.612172757536749"><ele>685.0</ele><time>2026-04-06T10:41:07Z</time></trkpt><trkpt lat="43.59883537894396" lon="2.61240046935891"><ele>685.0</ele><time>2026-04-06T10:41:08Z</time></trkpt><trkpt lat="43.59892199120531" lon="2.612604304435778"><ele>685.0</ele><time>2026-04-06T10:41:09Z</time></trkpt><trkpt lat="43.59899851164782" lon="2.6128180904141627"><ele>685.0</ele><time>2026-04-06T10:41:10Z</time></trkpt><trkpt lat="43.599072619738756" lon="2.613033033220183"><ele>683.3333333333334</ele><time>2026-04-06T10:41:11Z</time></trkpt><trkpt lat="43.59914349217453" lon="2.6132429058783515"><ele>681.6666666666666</ele><time>2026-04-06T10:41:12Z</time></trkpt><trkpt lat="43.5991762569324" lon="2.6134762388952937"><ele>680.0</ele><time>2026-04-06T10:41:13Z</time></trkpt><trkpt lat="43.59917927339088" lon="2.6136964531171194"><ele>680.0</ele><time>2026-04-06T10:41:14Z</time></trkpt><trkpt lat="43.59915198860426" lon="2.6139289109583204"><ele>680.0</ele><time>2026-04-06T10:41:15Z</time></trkpt><trkpt lat="43.59911823101152" lon="2.614156773384501"><ele>680.0</ele><time>2026-04-06T10:41:16Z</time></trkpt><trkpt lat="43.599032190586" lon="2.6143693932258962"><ele>682.0</ele><time>2026-04-06T10:41:17Z</time></trkpt><trkpt lat="43.59890185847008" lon="2.6145196102554213"><ele>684.0</ele><time>2026-04-06T10:41:18Z</time></trkpt><trkpt lat="43.598769779102085" lon="2.6146550296015776"><ele>686.0</ele><time>2026-04-06T10:41:19Z</time></trkpt><trkpt lat="43.59862369348156" lon="2.6147837725021597"><ele>686.0</ele><time>2026-04-06T10:41:20Z</time></trkpt><trkpt lat="43.5984772764749" lon="2.614908951957285"><ele>686.0</ele><time>2026-04-06T10:41:21Z</time></trkpt><trkpt lat="43.598326815197325" lon="2.61503622600907"><ele>686.0</ele><time>2026-04-06T10:41:22Z</time></trkpt><trkpt lat="43.59817982184996" lon="2.6151860957442645"><ele>691.0</ele><time>2026-04-06T10:41:23Z</time></trkpt><trkpt lat="43.59803942942895" lon="2.6153277032114945"><ele>696.0</ele><time>2026-04-06T10:41:24Z</time></trkpt><trkpt lat="43.59791863730218" lon="2.615488008091154"><ele>701.0</ele><time>2026-04-06T10:41:25Z</time></trkpt><trkpt lat="43.59786596492202" lon="2.6157076137597866"><ele>701.0</ele><time>2026-04-06T10:41:26Z</time></trkpt><trkpt lat="43.59784252700246" lon="2.615947118299333"><ele>701.0</ele><time>2026-04-06T10:41:27Z</time></trkpt><trkpt lat="43.59782756763449" lon="2.6161842969876536"><ele>701.0</ele><time>2026-04-06T10:41:28Z</time></trkpt><trkpt lat="43.597819625632454" lon="2.616430734041706"><ele>704.3333333333333</ele><time>2026-04-06T10:41:29Z</time></trkpt><trkpt lat="43.59783785587675" lon="2.6166975850031187"><ele>707.6666666666666</ele><time>2026-04-06T10:41:30Z</time></trkpt><trkpt lat="43.59788757495117" lon="2.6169727829067075"><ele>711.0</ele><time>2026-04-06T10:41:31Z</time></trkpt><trkpt lat="43.5979281446225" lon="2.6172433838338836"><ele>712.0</ele><time>2026-04-06T10:41:32Z</time></trkpt><trkpt lat="43.59797512605329" lon="2.617504174059874"><ele>713.0</ele><time>2026-04-06T10:41:33Z</time></trkpt><trkpt lat="43.5980012765434" lon="2.6177768063320164"><ele>714.0</ele><time>2026-04-06T10:41:34Z</time></trkpt><trkpt lat="43.59801076332253" lon="2.6180599889237834"><ele>714.3333333333334</ele><time>2026-04-06T10:41:35Z</time></trkpt><trkpt lat="43.598035847449445" lon="2.618320468227835"><ele>714.6666666666667</ele><time>2026-04-06T10:41:36Z</time></trkpt><trkpt lat="43.59808559948928" lon="2.6185652553124297"><ele>715.0</ele><time>2026-04-06T10:41:37Z</time></trkpt><trkpt lat="43.598170547339365" lon="2.618786625087138"><ele>715.0</ele><time>2026-04-06T10:41:38Z</time></trkpt><trkpt lat="43.598280032011246" lon="2.619001919214386"><ele>715.0</ele><time>2026-04-06T10:41:39Z</time></trkpt><trkpt lat="43.598402021641654" lon="2.619213654796071"><ele>715.0</ele><time>2026-04-06T10:41:40Z</time></trkpt><trkpt lat="43.59852045705597" lon="2.619426735855983"><ele>714.6666666666667</ele><time>2026-04-06T10:41:41Z</time></trkpt><trkpt lat="43.59863778282576" lon="2.619643611383884"><ele>714.3333333333334</ele><time>2026-04-06T10:41:42Z</time></trkpt><trkpt lat="43.59875189887902" lon="2.6198669361591036"><ele>714.0</ele><time>2026-04-06T10:41:43Z</time></trkpt><trkpt lat="43.59885734353004" lon="2.620087405161516"><ele>720.0</ele><time>2026-04-06T10:41:44Z</time></trkpt><trkpt lat="43.598974620431825" lon="2.620292535849163"><ele>726.0</ele><time>2026-04-06T10:41:45Z</time></trkpt><trkpt lat="43.59908278338839" lon="2.620498768908971"><ele>732.0</ele><time>2026-04-06T10:41:46Z</time></trkpt><trkpt lat="43.5991962839735" lon="2.620688988500741"><ele>732.0</ele><time>2026-04-06T10:41:47Z</time></trkpt><trkpt lat="43.599308010212056" lon="2.620870062460452"><ele>732.0</ele><time>2026-04-06T10:41:48Z</time></trkpt><trkpt lat="43.599413567910574" lon="2.6210323688955652"><ele>732.0</ele><time>2026-04-06T10:41:49Z</time></trkpt><trkpt lat="43.599486953205286" lon="2.6211929256829225"><ele>731.0</ele><time>2026-04-06T10:41:50Z</time></trkpt><trkpt lat="43.599486517654896" lon="2.6213627241631117"><ele>730.0</ele><time>2026-04-06T10:41:51Z</time></trkpt><trkpt lat="43.59946771476384" lon="2.6215129607082304"><ele>729.0</ele><time>2026-04-06T10:41:52Z</time></trkpt><trkpt lat="43.599404140134304" lon="2.6216518008119896"><ele>728.0</ele><time>2026-04-06T10:41:53Z</time></trkpt><trkpt lat="43.5992766976092" lon="2.6217535860133916"><ele>728.0</ele><time>2026-04-06T10:41:54Z</time></trkpt><trkpt lat="43.599126761678896" lon="2.6218111618750175"><ele>728.0</ele><time>2026-04-06T10:41:55Z</time></trkpt><trkpt lat="43.59898718238413" lon="2.6219297981321676"><ele>728.0</ele><time>2026-04-06T10:41:56Z</time></trkpt><trkpt lat="43.59887644032429" lon="2.6220609442765794"><ele>728.3333333333333</ele><time>2026-04-06T10:41:57Z</time></trkpt><trkpt lat="43.59877351153935" lon="2.6222530896537193"><ele>728.6666666666666</ele><time>2026-04-06T10:41:58Z</time></trkpt><trkpt lat="43.598678635777055" lon="2.622477678241733"><ele>729.0</ele><time>2026-04-06T10:41:59Z</time></trkpt><trkpt lat="43.598591541182934" lon="2.6227187226322903"><ele>731.0</ele><time>2026-04-06T10:42:00Z</time></trkpt><trkpt lat="43.598491360069474" lon="2.6229705610050082"><ele>733.0</ele><time>2026-04-06T10:42:01Z</time></trkpt><trkpt lat="43.598407721676914" lon="2.623223058348096"><ele>735.0</ele><time>2026-04-06T10:42:02Z</time></trkpt><trkpt lat="43.598342909856406" lon="2.623487044598153"><ele>736.3333333333334</ele><time>2026-04-06T10:42:03Z</time></trkpt><trkpt lat="43.59830207598347" lon="2.6237333888988905"><ele>737.6666666666667</ele><time>2026-04-06T10:42:04Z</time></trkpt><trkpt lat="43.59827398906968" lon="2.6239605204889855"><ele>739.0</ele><time>2026-04-06T10:42:05Z</time></trkpt><trkpt lat="43.598272092014504" lon="2.6241832249400097"><ele>739.0</ele><time>2026-04-06T10:42:06Z</time></trkpt><trkpt lat="43.59830642084576" lon="2.624411790144207"><ele>739.0</ele><time>2026-04-06T10:42:07Z</time></trkpt><trkpt lat="43.59835245106598" lon="2.6246545320381713"><ele>739.0</ele><time>2026-04-06T10:42:08Z</time></trkpt><trkpt lat="43.59839458828323" lon="2.624904368624512"><ele>739.6666666666667</ele><time>2026-04-06T10:42:09Z</time></trkpt><trkpt lat="43.598431722727554" lon="2.625151055553679"><ele>740.3333333333334</ele><time>2026-04-06T10:42:10Z</time></trkpt><trkpt lat="43.59847859349862" lon="2.625409732966929"><ele>741.0</ele><time>2026-04-06T10:42:11Z</time></trkpt><trkpt lat="43.5985141595674" lon="2.625670049265932"><ele>739.6666666666666</ele><time>2026-04-06T10:42:12Z</time></trkpt><trkpt lat="43.59856172021188" lon="2.625927061021439"><ele>738.3333333333333</ele><time>2026-04-06T10:42:13Z</time></trkpt><trkpt lat="43.59860580924551" lon="2.626190685910945"><ele>737.0</ele><time>2026-04-06T10:42:14Z</time></trkpt><trkpt lat="43.59864952074673" lon="2.6264530926878766"><ele>738.3333333333333</ele><time>2026-04-06T10:42:15Z</time></trkpt><trkpt lat="43.59870244882836" lon="2.626719321356092"><ele>739.6666666666666</ele><time>2026-04-06T10:42:16Z</time></trkpt><trkpt lat="43.598763179471966" lon="2.626983784634295"><ele>741.0</ele><time>2026-04-06T10:42:17Z</time></trkpt><trkpt lat="43.59883626629623" lon="2.6272049501166825"><ele>741.0</ele><time>2026-04-06T10:42:18Z</time></trkpt><trkpt lat="43.598905156749744" lon="2.627394821706595"><ele>741.0</ele><time>2026-04-06T10:42:19Z</time></trkpt><trkpt lat="43.59899385745492" lon="2.627521427529491"><ele>741.0</ele><time>2026-04-06T10:42:20Z</time></trkpt><trkpt lat="43.59910361426282" lon="2.6276244764648005"><ele>741.0</ele><time>2026-04-06T10:42:21Z</time></trkpt><trkpt lat="43.59923563339855" lon="2.627649682205773"><ele>741.0</ele><time>2026-04-06T10:42:22Z</time></trkpt><trkpt lat="43.59935982412556" lon="2.6276155553182674"><ele>741.0</ele><time>2026-04-06T10:42:22.999Z</time></trkpt><trkpt lat="43.5995394132932" lon="2.6275476095816424"><ele>741.0</ele><time>2026-04-06T10:42:23.999Z</time></trkpt><trkpt lat="43.59969069253713" lon="2.6275174339316227"><ele>744.6666666666666</ele><time>2026-04-06T10:42:24.999Z</time></trkpt><trkpt lat="43.59985847521209" lon="2.627512392443356"><ele>748.3333333333333</ele><time>2026-04-06T10:42:25.999Z</time></trkpt><trkpt lat="43.600028872498434" lon="2.627537915785889"><ele>752.0</ele><time>2026-04-06T10:42:26.999Z</time></trkpt><trkpt lat="43.60016246820601" lon="2.627610655336161"><ele>752.0</ele><time>2026-04-06T10:42:27.999Z</time></trkpt><trkpt lat="43.60030794834826" lon="2.62769474061631"><ele>752.0</ele><time>2026-04-06T10:42:28.999Z</time></trkpt><trkpt lat="43.600411929260396" lon="2.627851458816293"><ele>752.0</ele><time>2026-04-06T10:42:29.999Z</time></trkpt><trkpt lat="43.6005171428318" lon="2.628057771970143"><ele>750.5</ele><time>2026-04-06T10:42:30.999Z</time></trkpt><trkpt lat="43.60060126358915" lon="2.6282423882607095"><ele>749.0</ele><time>2026-04-06T10:42:31.999Z</time></trkpt><trkpt lat="43.60069151949715" lon="2.6283975536128756"><ele>747.5</ele><time>2026-04-06T10:42:32.999Z</time></trkpt><trkpt lat="43.60081019330762" lon="2.628493211168212"><ele>746.0</ele><time>2026-04-06T10:42:33.999Z</time></trkpt><trkpt lat="43.60094273285103" lon="2.628500743935363"><ele>746.0</ele><time>2026-04-06T10:42:34.999Z</time></trkpt><trkpt lat="43.6010631676731" lon="2.628438004111308"><ele>746.0</ele><time>2026-04-06T10:42:35.999Z</time></trkpt><trkpt lat="43.60123914550001" lon="2.628373952683529"><ele>746.0</ele><time>2026-04-06T10:42:36.999Z</time></trkpt><trkpt lat="43.60138441125802" lon="2.6283352376762474"><ele>745.0</ele><time>2026-04-06T10:42:37.999Z</time></trkpt><trkpt lat="43.60155188964581" lon="2.6283259330256525"><ele>744.0</ele><time>2026-04-06T10:42:38.999Z</time></trkpt><trkpt lat="43.601707228703354" lon="2.6284261238985054"><ele>743.0</ele><time>2026-04-06T10:42:39.999Z</time></trkpt><trkpt lat="43.60184223317646" lon="2.6285514360084967"><ele>743.0</ele><time>2026-04-06T10:42:40.999Z</time></trkpt><trkpt lat="43.6019646580578" lon="2.628720430935952"><ele>743.0</ele><time>2026-04-06T10:42:41.999Z</time></trkpt><trkpt lat="43.60209340748214" lon="2.6288997800833243"><ele>743.0</ele><time>2026-04-06T10:42:42.999Z</time></trkpt><trkpt lat="43.6022349527658" lon="2.629058051407235"><ele>743.0</ele><time>2026-04-06T10:42:43.999Z</time></trkpt><trkpt lat="43.602361389311085" lon="2.6292295174229205"><ele>743.0</ele><time>2026-04-06T10:42:44.999Z</time></trkpt><trkpt lat="43.60243542095306" lon="2.629453717642042"><ele>743.0</ele><time>2026-04-06T10:42:45.999Z</time></trkpt><trkpt lat="43.602521386709746" lon="2.629687573912333"><ele>739.3333333333333</ele><time>2026-04-06T10:42:46.999Z</time></trkpt><trkpt lat="43.602607849823364" lon="2.6299184890842584"><ele>735.6666666666666</ele><time>2026-04-06T10:42:47.999Z</time></trkpt><trkpt lat="43.60269756627776" lon="2.6301464982193705"><ele>732.0</ele><time>2026-04-06T10:42:49Z</time></trkpt><trkpt lat="43.60278219404049" lon="2.630382543847845"><ele>733.3333333333334</ele><time>2026-04-06T10:42:50Z</time></trkpt><trkpt lat="43.60287714244802" lon="2.630612018320801"><ele>734.6666666666667</ele><time>2026-04-06T10:42:51Z</time></trkpt><trkpt lat="43.602964869217985" lon="2.6308362849389035"><ele>736.0</ele><time>2026-04-06T10:42:52Z</time></trkpt><trkpt lat="43.60304830931947" lon="2.6310532871644856"><ele>732.6666666666667</ele><time>2026-04-06T10:42:53Z</time></trkpt><trkpt lat="43.60315306028603" lon="2.631241603576844"><ele>729.3333333333334</ele><time>2026-04-06T10:42:54Z</time></trkpt><trkpt lat="43.60328268035147" lon="2.6314116636065057"><ele>726.0</ele><time>2026-04-06T10:42:55Z</time></trkpt><trkpt lat="43.60343667511342" lon="2.6315581614490577"><ele>726.0</ele><time>2026-04-06T10:42:56Z</time></trkpt><trkpt lat="43.60361026819531" lon="2.631693752667578"><ele>726.0</ele><time>2026-04-06T10:42:57Z</time></trkpt><trkpt lat="43.60376737709753" lon="2.631852973359504"><ele>726.0</ele><time>2026-04-06T10:42:58Z</time></trkpt><trkpt lat="43.6039244581267" lon="2.6320030119805344"><ele>723.3333333333334</ele><time>2026-04-06T10:42:59Z</time></trkpt><trkpt lat="43.60406932183477" lon="2.6321584569743437"><ele>720.6666666666667</ele><time>2026-04-06T10:43:00Z</time></trkpt><trkpt lat="43.604181489384324" lon="2.6323476632354335"><ele>718.0</ele><time>2026-04-06T10:43:01Z</time></trkpt><trkpt lat="43.6042465919292" lon="2.6325866160997053"><ele>716.3333333333334</ele><time>2026-04-06T10:43:02Z</time></trkpt><trkpt lat="43.604295674134505" lon="2.632807305013067"><ele>714.6666666666666</ele><time>2026-04-06T10:43:03Z</time></trkpt><trkpt lat="43.60436530601863" lon="2.6330144626499603"><ele>713.0</ele><time>2026-04-06T10:43:04Z</time></trkpt><trkpt lat="43.60446407567697" lon="2.633172229087113"><ele>716.6666666666666</ele><time>2026-04-06T10:43:05Z</time></trkpt><trkpt lat="43.60460472512371" lon="2.63327578384412"><ele>720.3333333333334</ele><time>2026-04-06T10:43:06Z</time></trkpt><trkpt lat="43.604759040424796" lon="2.6332950303105918"><ele>724.0</ele><time>2026-04-06T10:43:07Z</time></trkpt><trkpt lat="43.60492943625524" lon="2.6333407859709523"><ele>724.0</ele><time>2026-04-06T10:43:08Z</time></trkpt><trkpt lat="43.60509101499569" lon="2.633395383825365"><ele>724.0</ele><time>2026-04-06T10:43:09Z</time></trkpt><trkpt lat="43.605214332637466" lon="2.6335059718244054"><ele>724.0</ele><time>2026-04-06T10:43:10Z</time></trkpt><trkpt lat="43.60528787282121" lon="2.633683790433786"><ele>724.6666666666667</ele><time>2026-04-06T10:43:11Z</time></trkpt><trkpt lat="43.60538176421016" lon="2.633919437121794"><ele>725.3333333333334</ele><time>2026-04-06T10:43:12Z</time></trkpt><trkpt lat="43.60550001426155" lon="2.6341473950465355"><ele>726.0</ele><time>2026-04-06T10:43:13Z</time></trkpt><trkpt lat="43.605631603109636" lon="2.6343033688218136"><ele>726.0</ele><time>2026-04-06T10:43:14Z</time></trkpt><trkpt lat="43.605758802877105" lon="2.6344340222155767"><ele>726.0</ele><time>2026-04-06T10:43:15Z</time></trkpt><trkpt lat="43.60584089246977" lon="2.634617610837937"><ele>726.0</ele><time>2026-04-06T10:43:16Z</time></trkpt><trkpt lat="43.60586575136284" lon="2.6348259422180162"><ele>721.6666666666666</ele><time>2026-04-06T10:43:17Z</time></trkpt><trkpt lat="43.60582921370405" lon="2.635039884994103"><ele>717.3333333333333</ele><time>2026-04-06T10:43:18Z</time></trkpt><trkpt lat="43.60580218472717" lon="2.6353003334466107"><ele>713.0</ele><time>2026-04-06T10:43:19Z</time></trkpt><trkpt lat="43.60577304383226" lon="2.635551480023791"><ele>710.3333333333333</ele><time>2026-04-06T10:43:20Z</time></trkpt><trkpt lat="43.605740676249695" lon="2.635838566367658"><ele>707.6666666666666</ele><time>2026-04-06T10:43:21Z</time></trkpt><trkpt lat="43.60572315091287" lon="2.6361331483174664"><ele>705.0</ele><time>2026-04-06T10:43:22Z</time></trkpt><trkpt lat="43.60567031560683" lon="2.636454599498384"><ele>704.6666666666666</ele><time>2026-04-06T10:43:23Z</time></trkpt><trkpt lat="43.60563510423508" lon="2.636754741667113"><ele>704.3333333333333</ele><time>2026-04-06T10:43:24Z</time></trkpt><trkpt lat="43.6056018931035" lon="2.637052430864698"><ele>704.0</ele><time>2026-04-06T10:43:25Z</time></trkpt><trkpt lat="43.605574137516506" lon="2.637361436830437"><ele>702.6666666666666</ele><time>2026-04-06T10:43:26Z</time></trkpt><trkpt lat="43.605543797820836" lon="2.637666865312406"><ele>701.3333333333334</ele><time>2026-04-06T10:43:27Z</time></trkpt><trkpt lat="43.60553409976943" lon="2.637976672021565"><ele>700.0</ele><time>2026-04-06T10:43:28Z</time></trkpt><trkpt lat="43.605537623555605" lon="2.638281494955894"><ele>700.0</ele><time>2026-04-06T10:43:29Z</time></trkpt><trkpt lat="43.60554938726778" lon="2.638571924105532"><ele>700.0</ele><time>2026-04-06T10:43:30Z</time></trkpt><trkpt lat="43.60553667106527" lon="2.638862611910507"><ele>700.0</ele><time>2026-04-06T10:43:31Z</time></trkpt><trkpt lat="43.60551301122842" lon="2.639140928850805"><ele>700.6666666666667</ele><time>2026-04-06T10:43:32Z</time></trkpt><trkpt lat="43.60547812067738" lon="2.639408524762971"><ele>701.3333333333334</ele><time>2026-04-06T10:43:33Z</time></trkpt><trkpt lat="43.60546074054994" lon="2.639680849369091"><ele>702.0</ele><time>2026-04-06T10:43:34Z</time></trkpt><trkpt lat="43.60544697496312" lon="2.6399426911097787"><ele>703.3333333333334</ele><time>2026-04-06T10:43:35Z</time></trkpt><trkpt lat="43.60545456920185" lon="2.640174729107481"><ele>704.6666666666667</ele><time>2026-04-06T10:43:36Z</time></trkpt><trkpt lat="43.60553966722606" lon="2.6403865930533796"><ele>706.0</ele><time>2026-04-06T10:43:37Z</time></trkpt><trkpt lat="43.60562149596678" lon="2.6405836123361213"><ele>706.0</ele><time>2026-04-06T10:43:38Z</time></trkpt><trkpt lat="43.60573383760218" lon="2.6407286355136153"><ele>706.0</ele><time>2026-04-06T10:43:39Z</time></trkpt><trkpt lat="43.605859774995125" lon="2.640802003811527"><ele>706.0</ele><time>2026-04-06T10:43:40Z</time></trkpt><trkpt lat="43.6060135752363" lon="2.6408726070801523"><ele>708.0</ele><time>2026-04-06T10:43:41Z</time></trkpt><trkpt lat="43.60618720966346" lon="2.640951715315132"><ele>710.0</ele><time>2026-04-06T10:43:42Z</time></trkpt><trkpt lat="43.60635906286472" lon="2.6410511387752504"><ele>712.0</ele><time>2026-04-06T10:43:43Z</time></trkpt><trkpt lat="43.60652660731111" lon="2.641183161775552"><ele>712.0</ele><time>2026-04-06T10:43:44Z</time></trkpt><trkpt lat="43.6066694598985" lon="2.641354890848397"><ele>712.0</ele><time>2026-04-06T10:43:45Z</time></trkpt><trkpt lat="43.606771951352314" lon="2.6415801694773697"><ele>712.0</ele><time>2026-04-06T10:43:46Z</time></trkpt><trkpt lat="43.606831897024875" lon="2.641809573050673"><ele>708.0</ele><time>2026-04-06T10:43:47Z</time></trkpt><trkpt lat="43.60684907385371" lon="2.6420699372880607"><ele>704.0</ele><time>2026-04-06T10:43:48Z</time></trkpt><trkpt lat="43.6068821462087" lon="2.6423312553872136"><ele>700.0</ele><time>2026-04-06T10:43:49Z</time></trkpt><trkpt lat="43.60692246609155" lon="2.642576906122671"><ele>706.0</ele><time>2026-04-06T10:43:50Z</time></trkpt><trkpt lat="43.60702181375783" lon="2.6427780509495475"><ele>712.0</ele><time>2026-04-06T10:43:51Z</time></trkpt><trkpt lat="43.607173891535126" lon="2.6429036317999817"><ele>718.0</ele><time>2026-04-06T10:43:52Z</time></trkpt><trkpt lat="43.60733308424641" lon="2.6430544314028377"><ele>718.0</ele><time>2026-04-06T10:43:53Z</time></trkpt><trkpt lat="43.60746590412704" lon="2.6432381933382563"><ele>718.0</ele><time>2026-04-06T10:43:54Z</time></trkpt><trkpt lat="43.607580211430836" lon="2.643431365824793"><ele>718.0</ele><time>2026-04-06T10:43:55Z</time></trkpt><trkpt lat="43.60764400749996" lon="2.643674249670971"><ele>721.3333333333334</ele><time>2026-04-06T10:43:56Z</time></trkpt><trkpt lat="43.60769099763356" lon="2.6439406324778068"><ele>724.6666666666666</ele><time>2026-04-06T10:43:57Z</time></trkpt><trkpt lat="43.60775574093348" lon="2.6442112762358994"><ele>728.0</ele><time>2026-04-06T10:43:58Z</time></trkpt><trkpt lat="43.60785409524038" lon="2.6445010901351558"><ele>728.0</ele><time>2026-04-06T10:43:59Z</time></trkpt><trkpt lat="43.60797297928422" lon="2.6447478259865087"><ele>728.0</ele><time>2026-04-06T10:44:00Z</time></trkpt><trkpt lat="43.60810142973156" lon="2.6449902411320587"><ele>728.0</ele><time>2026-04-06T10:44:01Z</time></trkpt><trkpt lat="43.60820924039523" lon="2.645238312385974"><ele>722.0</ele><time>2026-04-06T10:44:02Z</time></trkpt><trkpt lat="43.60828457446832" lon="2.6454818612175677"><ele>716.0</ele><time>2026-04-06T10:44:03Z</time></trkpt><trkpt lat="43.60833096380494" lon="2.6457789560522604"><ele>710.0</ele><time>2026-04-06T10:44:04Z</time></trkpt><trkpt lat="43.608373544967016" lon="2.6460641268092364"><ele>707.0</ele><time>2026-04-06T10:44:05Z</time></trkpt><trkpt lat="43.60841402269117" lon="2.6463592193937036"><ele>704.0</ele><time>2026-04-06T10:44:06Z</time></trkpt><trkpt lat="43.608454618068905" lon="2.646664915825833"><ele>701.0</ele><time>2026-04-06T10:44:07Z</time></trkpt><trkpt lat="43.60849674761392" lon="2.6469585938960916"><ele>699.6666666666666</ele><time>2026-04-06T10:44:08Z</time></trkpt><trkpt lat="43.608536565352004" lon="2.647229298312523"><ele>698.3333333333334</ele><time>2026-04-06T10:44:09Z</time></trkpt><trkpt lat="43.60856130436308" lon="2.647480999199746"><ele>697.0</ele><time>2026-04-06T10:44:10Z</time></trkpt><trkpt lat="43.60855899935797" lon="2.6477226780308474"><ele>702.3333333333334</ele><time>2026-04-06T10:44:11Z</time></trkpt><trkpt lat="43.60850307666987" lon="2.6479777616000444"><ele>707.6666666666666</ele><time>2026-04-06T10:44:12Z</time></trkpt><trkpt lat="43.608417042671995" lon="2.6482015101402605"><ele>713.0</ele><time>2026-04-06T10:44:13Z</time></trkpt><trkpt lat="43.6083497257919" lon="2.6484441251311495"><ele>715.0</ele><time>2026-04-06T10:44:14Z</time></trkpt><trkpt lat="43.60829811758003" lon="2.648687440400507"><ele>717.0</ele><time>2026-04-06T10:44:15Z</time></trkpt><trkpt lat="43.6082327679585" lon="2.6489283128556127"><ele>719.0</ele><time>2026-04-06T10:44:16Z</time></trkpt><trkpt lat="43.608195883974716" lon="2.6491840793506944"><ele>719.0</ele><time>2026-04-06T10:44:17Z</time></trkpt><trkpt lat="43.60819680659209" lon="2.649458741914475"><ele>719.0</ele><time>2026-04-06T10:44:18Z</time></trkpt><trkpt lat="43.60821995082478" lon="2.649727661607355"><ele>719.0</ele><time>2026-04-06T10:44:19Z</time></trkpt><trkpt lat="43.60826462999239" lon="2.6499907251612145"><ele>719.0</ele><time>2026-04-06T10:44:20Z</time></trkpt><trkpt lat="43.6083282885321" lon="2.65025386238974"><ele>719.0</ele><time>2026-04-06T10:44:21Z</time></trkpt><trkpt lat="43.60840695529473" lon="2.650516114935616"><ele>719.0</ele><time>2026-04-06T10:44:22Z</time></trkpt><trkpt lat="43.60847529845728" lon="2.650788025625196"><ele>717.3333333333333</ele><time>2026-04-06T10:44:23Z</time></trkpt><trkpt lat="43.60854570803168" lon="2.6510377517869266"><ele>715.6666666666666</ele><time>2026-04-06T10:44:24Z</time></trkpt><trkpt lat="43.60861011228596" lon="2.651309735260689"><ele>714.0</ele><time>2026-04-06T10:44:25Z</time></trkpt><trkpt lat="43.60867708575457" lon="2.6515605593349756"><ele>715.6666666666666</ele><time>2026-04-06T10:44:26Z</time></trkpt><trkpt lat="43.60875853850048" lon="2.651790469808169"><ele>717.3333333333333</ele><time>2026-04-06T10:44:27Z</time></trkpt><trkpt lat="43.60885068029492" lon="2.651981710029725"><ele>719.0</ele><time>2026-04-06T10:44:28Z</time></trkpt><trkpt lat="43.60893573899436" lon="2.6521663032884164"><ele>719.0</ele><time>2026-04-06T10:44:29Z</time></trkpt><trkpt lat="43.60902475699559" lon="2.6523397585647683"><ele>719.0</ele><time>2026-04-06T10:44:30Z</time></trkpt><trkpt lat="43.6091290319872" lon="2.6524835851309305"><ele>719.0</ele><time>2026-04-06T10:44:31Z</time></trkpt><trkpt lat="43.60925213101804" lon="2.652606999754283"><ele>719.0</ele><time>2026-04-06T10:44:32Z</time></trkpt><trkpt lat="43.609377715607735" lon="2.652741873053057"><ele>719.0</ele><time>2026-04-06T10:44:33Z</time></trkpt><trkpt lat="43.60949860624675" lon="2.652869744480994"><ele>719.0</ele><time>2026-04-06T10:44:34Z</time></trkpt><trkpt lat="43.60960088718281" lon="2.6530272474679353"><ele>719.5</ele><time>2026-04-06T10:44:35Z</time></trkpt><trkpt lat="43.60967554063549" lon="2.653194134327635"><ele>720.0</ele><time>2026-04-06T10:44:36Z</time></trkpt><trkpt lat="43.60973775156836" lon="2.653365515245691"><ele>720.5</ele><time>2026-04-06T10:44:37Z</time></trkpt><trkpt lat="43.60977461788756" lon="2.653529518848313"><ele>721.0</ele><time>2026-04-06T10:44:38Z</time></trkpt><trkpt lat="43.60976625497377" lon="2.6536809438485673"><ele>721.0</ele><time>2026-04-06T10:44:39Z</time></trkpt><trkpt lat="43.60973766495637" lon="2.6538387341100584"><ele>721.0</ele><time>2026-04-06T10:44:40Z</time></trkpt><trkpt lat="43.60970367300631" lon="2.6540013612956925"><ele>721.0</ele><time>2026-04-06T10:44:41Z</time></trkpt><trkpt lat="43.60970062559961" lon="2.6541632437900247"><ele>721.0</ele><time>2026-04-06T10:44:42Z</time></trkpt><trkpt lat="43.60974468261084" lon="2.6543250561471194"><ele>721.0</ele><time>2026-04-06T10:44:43Z</time></trkpt><trkpt lat="43.609838507388645" lon="2.654452722104934"><ele>721.0</ele><time>2026-04-06T10:44:44Z</time></trkpt><trkpt lat="43.609969510677494" lon="2.6545383023231452"><ele>721.0</ele><time>2026-04-06T10:44:45Z</time></trkpt><trkpt lat="43.610111690719336" lon="2.6546149371749688"><ele>721.0</ele><time>2026-04-06T10:44:46Z</time></trkpt><trkpt lat="43.61024237198292" lon="2.654734976736636"><ele>720.6666666666667</ele><time>2026-04-06T10:44:47Z</time></trkpt><trkpt lat="43.610352344946364" lon="2.6549180799244376"><ele>720.3333333333334</ele><time>2026-04-06T10:44:48Z</time></trkpt><trkpt lat="43.610449065933096" lon="2.655120486701359"><ele>720.0</ele><time>2026-04-06T10:44:49Z</time></trkpt><trkpt lat="43.610500455386415" lon="2.6553418668565976"><ele>720.0</ele><time>2026-04-06T10:44:50Z</time></trkpt><trkpt lat="43.61053334124577" lon="2.655573687353186"><ele>720.0</ele><time>2026-04-06T10:44:51Z</time></trkpt><trkpt lat="43.61060028875299" lon="2.6557758964518947"><ele>720.0</ele><time>2026-04-06T10:44:52Z</time></trkpt><trkpt lat="43.610690443850935" lon="2.655956117153813"><ele>720.0</ele><time>2026-04-06T10:44:53Z</time></trkpt><trkpt lat="43.610818732376856" lon="2.656112489485899"><ele>720.0</ele><time>2026-04-06T10:44:54Z</time></trkpt><trkpt lat="43.610959328083375" lon="2.656241607618886"><ele>720.0</ele><time>2026-04-06T10:44:55Z</time></trkpt><trkpt lat="43.61109554997906" lon="2.656392154129172"><ele>718.6666666666666</ele><time>2026-04-06T10:44:56Z</time></trkpt><trkpt lat="43.61120022639111" lon="2.6565790992428457"><ele>717.3333333333333</ele><time>2026-04-06T10:44:57Z</time></trkpt><trkpt lat="43.61128522880051" lon="2.6567958720815947"><ele>716.0</ele><time>2026-04-06T10:44:58Z</time></trkpt><trkpt lat="43.61136984853671" lon="2.6570119700811143"><ele>716.0</ele><time>2026-04-06T10:44:59Z</time></trkpt><trkpt lat="43.611450070094534" lon="2.657225053176697"><ele>716.0</ele><time>2026-04-06T10:45:00Z</time></trkpt><trkpt lat="43.61155071770687" lon="2.6574391311617815"><ele>716.0</ele><time>2026-04-06T10:45:01Z</time></trkpt><trkpt lat="43.61167458855651" lon="2.65760294672032"><ele>716.0</ele><time>2026-04-06T10:45:02Z</time></trkpt><trkpt lat="43.61181494621431" lon="2.6577394360150874"><ele>716.0</ele><time>2026-04-06T10:45:03Z</time></trkpt><trkpt lat="43.61198153630239" lon="2.657832218782881"><ele>716.0</ele><time>2026-04-06T10:45:04Z</time></trkpt><trkpt lat="43.61213745310373" lon="2.6579290551848613"><ele>719.3333333333333</ele><time>2026-04-06T10:45:05Z</time></trkpt><trkpt lat="43.61227582101949" lon="2.658065788954062"><ele>722.6666666666666</ele><time>2026-04-06T10:45:06Z</time></trkpt><trkpt lat="43.61239492280332" lon="2.6582384634173364"><ele>726.0</ele><time>2026-04-06T10:45:07Z</time></trkpt><trkpt lat="43.61249865759004" lon="2.6584607768894997"><ele>724.3333333333334</ele><time>2026-04-06T10:45:08Z</time></trkpt><trkpt lat="43.61256725348074" lon="2.6587128704084826"><ele>722.6666666666667</ele><time>2026-04-06T10:45:09Z</time></trkpt><trkpt lat="43.61259434855766" lon="2.6589762885681876"><ele>721.0</ele><time>2026-04-06T10:45:10Z</time></trkpt><trkpt lat="43.61259608479038" lon="2.6592508352754396"><ele>719.0</ele><time>2026-04-06T10:45:11Z</time></trkpt><trkpt lat="43.61258313144874" lon="2.659539380946392"><ele>717.0</ele><time>2026-04-06T10:45:12Z</time></trkpt><trkpt lat="43.61256062563664" lon="2.65982935528188"><ele>715.0</ele><time>2026-04-06T10:45:13Z</time></trkpt><trkpt lat="43.61256624316321" lon="2.6601054598152145"><ele>713.6666666666667</ele><time>2026-04-06T10:45:14Z</time></trkpt><trkpt lat="43.61264298465201" lon="2.6603603997509"><ele>712.3333333333334</ele><time>2026-04-06T10:45:15Z</time></trkpt><trkpt lat="43.612745203078866" lon="2.66058114757913"><ele>711.0</ele><time>2026-04-06T10:45:16Z</time></trkpt><trkpt lat="43.61287719826153" lon="2.660794517046281"><ele>714.3333333333334</ele><time>2026-04-06T10:45:17Z</time></trkpt><trkpt lat="43.612996373283245" lon="2.6610143119808347"><ele>717.6666666666667</ele><time>2026-04-06T10:45:18Z</time></trkpt><trkpt lat="43.61305229055296" lon="2.66126446742163"><ele>721.0</ele><time>2026-04-06T10:45:19Z</time></trkpt><trkpt lat="43.613071152369855" lon="2.6615326345910946"><ele>721.0</ele><time>2026-04-06T10:45:20Z</time></trkpt><trkpt lat="43.61304781566849" lon="2.6618090577487"><ele>721.0</ele><time>2026-04-06T10:45:21Z</time></trkpt><trkpt lat="43.61297996413724" lon="2.6620545193994922"><ele>721.0</ele><time>2026-04-06T10:45:22Z</time></trkpt><trkpt lat="43.61288059515243" lon="2.6622831893510637"><ele>719.6666666666667</ele><time>2026-04-06T10:45:23Z</time></trkpt><trkpt lat="43.61275891010814" lon="2.6624927984664835"><ele>718.3333333333334</ele><time>2026-04-06T10:45:24Z</time></trkpt><trkpt lat="43.612585209218764" lon="2.6626330055025744"><ele>717.0</ele><time>2026-04-06T10:45:25Z</time></trkpt><trkpt lat="43.61241077119956" lon="2.662782834428239"><ele>717.0</ele><time>2026-04-06T10:45:26Z</time></trkpt><trkpt lat="43.612216633950666" lon="2.6628892737749577"><ele>717.0</ele><time>2026-04-06T10:45:27Z</time></trkpt><trkpt lat="43.61201734404731" lon="2.6629969901544683"><ele>717.0</ele><time>2026-04-06T10:45:28Z</time></trkpt><trkpt lat="43.611809562700714" lon="2.663106598605211"><ele>715.0</ele><time>2026-04-06T10:45:29Z</time></trkpt><trkpt lat="43.611588980631076" lon="2.6632094800389767"><ele>713.0</ele><time>2026-04-06T10:45:30Z</time></trkpt><trkpt lat="43.61136457291651" lon="2.6633040739628107"><ele>714.5</ele><time>2026-04-06T10:45:31Z</time></trkpt><trkpt lat="43.61115324175811" lon="2.6634190222715324"><ele>716.0</ele><time>2026-04-06T10:45:32Z</time></trkpt><trkpt lat="43.61095158230938" lon="2.6635611928865845"><ele>715.0</ele><time>2026-04-06T10:45:33Z</time></trkpt><trkpt lat="43.61076442336464" lon="2.6637323097712113"><ele>714.0</ele><time>2026-04-06T10:45:34Z</time></trkpt><trkpt lat="43.61059328596003" lon="2.6639316326993354"><ele>713.0</ele><time>2026-04-06T10:45:35Z</time></trkpt><trkpt lat="43.61043021922736" lon="2.6641395572100173"><ele>714.6666666666666</ele><time>2026-04-06T10:45:36Z</time></trkpt><trkpt lat="43.61028460695094" lon="2.664369858529373"><ele>716.3333333333334</ele><time>2026-04-06T10:45:37Z</time></trkpt><trkpt lat="43.61014595341891" lon="2.664611714665585"><ele>718.0</ele><time>2026-04-06T10:45:38Z</time></trkpt><trkpt lat="43.61000570834434" lon="2.664853960213003"><ele>718.0</ele><time>2026-04-06T10:45:39Z</time></trkpt><trkpt lat="43.60987029876028" lon="2.6650987418409624"><ele>718.0</ele><time>2026-04-06T10:45:40Z</time></trkpt><trkpt lat="43.60973520027004" lon="2.6653430739165587"><ele>718.0</ele><time>2026-04-06T10:45:41Z</time></trkpt><trkpt lat="43.609605659624805" lon="2.6655805604098846"><ele>718.6666666666667</ele><time>2026-04-06T10:45:42Z</time></trkpt><trkpt lat="43.609475811104396" lon="2.6658151264290337"><ele>719.3333333333334</ele><time>2026-04-06T10:45:43Z</time></trkpt><trkpt lat="43.60934967589259" lon="2.6660378059948684"><ele>720.0</ele><time>2026-04-06T10:45:44Z</time></trkpt><trkpt lat="43.609230674294636" lon="2.6662578142203563"><ele>720.0</ele><time>2026-04-06T10:45:45Z</time></trkpt><trkpt lat="43.609106233519626" lon="2.6664771292854605"><ele>720.0</ele><time>2026-04-06T10:45:46Z</time></trkpt><trkpt lat="43.60896522474697" lon="2.66670093101498"><ele>720.0</ele><time>2026-04-06T10:45:47Z</time></trkpt><trkpt lat="43.608827164610666" lon="2.666934044800785"><ele>719.5</ele><time>2026-04-06T10:45:48Z</time></trkpt><trkpt lat="43.60868266976622" lon="2.667175661912511"><ele>719.0</ele><time>2026-04-06T10:45:49Z</time></trkpt><trkpt lat="43.60853461815071" lon="2.6674137357828567"><ele>719.0</ele><time>2026-04-06T10:45:50Z</time></trkpt><trkpt lat="43.60839586727538" lon="2.667657633228542"><ele>719.0</ele><time>2026-04-06T10:45:51Z</time></trkpt><trkpt lat="43.608258372307574" lon="2.6679083485989343"><ele>718.0</ele><time>2026-04-06T10:45:52Z</time></trkpt><trkpt lat="43.608136630887046" lon="2.6681690140992624"><ele>717.0</ele><time>2026-04-06T10:45:53Z</time></trkpt><trkpt lat="43.60802845879302" lon="2.66843852375335"><ele>716.0</ele><time>2026-04-06T10:45:54Z</time></trkpt><trkpt lat="43.6079325372137" lon="2.668710056017987"><ele>713.3333333333333</ele><time>2026-04-06T10:45:55Z</time></trkpt><trkpt lat="43.60784979578932" lon="2.668996184219617"><ele>710.6666666666666</ele><time>2026-04-06T10:45:56Z</time></trkpt><trkpt lat="43.60777625129727" lon="2.6692830456150354"><ele>708.0</ele><time>2026-04-06T10:45:57Z</time></trkpt><trkpt lat="43.60771075685385" lon="2.669577877656945"><ele>716.5</ele><time>2026-04-06T10:45:58Z</time></trkpt><trkpt lat="43.60764317099471" lon="2.669877482895334"><ele>725.0</ele><time>2026-04-06T10:45:59Z</time></trkpt><trkpt lat="43.60756708210084" lon="2.670175546056044"><ele>723.5</ele><time>2026-04-06T10:46:00Z</time></trkpt><trkpt lat="43.60749055074764" lon="2.670474845555903"><ele>722.0</ele><time>2026-04-06T10:46:01Z</time></trkpt><trkpt lat="43.60741476463052" lon="2.6707709325034696"><ele>722.0</ele><time>2026-04-06T10:46:02Z</time></trkpt><trkpt lat="43.60733089905164" lon="2.671068976416157"><ele>722.0</ele><time>2026-04-06T10:46:03Z</time></trkpt><trkpt lat="43.60725525806556" lon="2.671378083228671"><ele>716.0</ele><time>2026-04-06T10:46:04Z</time></trkpt><trkpt lat="43.60718386342736" lon="2.6716839983892706"><ele>710.0</ele><time>2026-04-06T10:46:05Z</time></trkpt><trkpt lat="43.607101620813246" lon="2.671975924710489"><ele>706.3333333333333</ele><time>2026-04-06T10:46:06Z</time></trkpt><trkpt lat="43.60702775902474" lon="2.6722416547313204"><ele>702.6666666666666</ele><time>2026-04-06T10:46:07Z</time></trkpt><trkpt lat="43.60695312970649" lon="2.672516682419458"><ele>699.0</ele><time>2026-04-06T10:46:08Z</time></trkpt><trkpt lat="43.60691150656281" lon="2.6727955173235434"><ele>698.3333333333334</ele><time>2026-04-06T10:46:09Z</time></trkpt><trkpt lat="43.606910409552455" lon="2.6730841401887857"><ele>697.6666666666667</ele><time>2026-04-06T10:46:10Z</time></trkpt><trkpt lat="43.60695620012105" lon="2.673372794762283"><ele>697.0</ele><time>2026-04-06T10:46:11Z</time></trkpt><trkpt lat="43.607031940499446" lon="2.6736540018754322"><ele>697.0</ele><time>2026-04-06T10:46:12Z</time></trkpt><trkpt lat="43.60710622704492" lon="2.673945945124323"><ele>697.0</ele><time>2026-04-06T10:46:13Z</time></trkpt><trkpt lat="43.607173993781416" lon="2.674222689376588"><ele>697.0</ele><time>2026-04-06T10:46:14Z</time></trkpt><trkpt lat="43.607236345463164" lon="2.674491384813942"><ele>696.0</ele><time>2026-04-06T10:46:15Z</time></trkpt><trkpt lat="43.6073077997435" lon="2.6747264102768025"><ele>695.0</ele><time>2026-04-06T10:46:16Z</time></trkpt><trkpt lat="43.60736550167232" lon="2.674964662462806"><ele>694.0</ele><time>2026-04-06T10:46:17Z</time></trkpt><trkpt lat="43.60739437751364" lon="2.675200060283652"><ele>691.0</ele><time>2026-04-06T10:46:18Z</time></trkpt><trkpt lat="43.60737097294465" lon="2.675418619339902"><ele>688.0</ele><time>2026-04-06T10:46:19Z</time></trkpt><trkpt lat="43.607304747271655" lon="2.6756038198940173"><ele>685.0</ele><time>2026-04-06T10:46:20Z</time></trkpt><trkpt lat="43.60720058560656" lon="2.6757167318178556"><ele>682.0</ele><time>2026-04-06T10:46:21Z</time></trkpt><trkpt lat="43.60706950923506" lon="2.675765475022914"><ele>686.0</ele><time>2026-04-06T10:46:22Z</time></trkpt><trkpt lat="43.606917057083045" lon="2.675793974967714"><ele>690.0</ele><time>2026-04-06T10:46:23Z</time></trkpt><trkpt lat="43.606746401337254" lon="2.675788244117937"><ele>694.0</ele><time>2026-04-06T10:46:24Z</time></trkpt><trkpt lat="43.60658131243392" lon="2.6758152365556915"><ele>694.0</ele><time>2026-04-06T10:46:25Z</time></trkpt><trkpt lat="43.60640965416906" lon="2.67587236133557"><ele>694.0</ele><time>2026-04-06T10:46:26Z</time></trkpt><trkpt lat="43.606216402464575" lon="2.6759692406356206"><ele>694.0</ele><time>2026-04-06T10:46:27Z</time></trkpt><trkpt lat="43.6060230586224" lon="2.6760653730291706"><ele>697.0</ele><time>2026-04-06T10:46:28Z</time></trkpt><trkpt lat="43.605845955787544" lon="2.676135467147344"><ele>700.0</ele><time>2026-04-06T10:46:29Z</time></trkpt><trkpt lat="43.60567226811594" lon="2.6761383492581157"><ele>703.0</ele><time>2026-04-06T10:46:30Z</time></trkpt><trkpt lat="43.60551855160794" lon="2.67610222936659"><ele>703.0</ele><time>2026-04-06T10:46:31Z</time></trkpt><trkpt lat="43.605376728701316" lon="2.6760627865888855"><ele>703.0</ele><time>2026-04-06T10:46:32Z</time></trkpt><trkpt lat="43.6052292068849" lon="2.676013901378018"><ele>703.0</ele><time>2026-04-06T10:46:33Z</time></trkpt><trkpt lat="43.605123491291906" lon="2.675952987618246"><ele>703.0</ele><time>2026-04-06T10:46:34Z</time></trkpt><trkpt lat="43.60499757240534" lon="2.675937563991886"><ele>701.2</ele><time>2026-04-06T10:46:35Z</time></trkpt><trkpt lat="43.60489563375075" lon="2.675959860021869"><ele>699.4</ele><time>2026-04-06T10:46:36Z</time></trkpt><trkpt lat="43.60480733192942" lon="2.6760353187584394"><ele>697.6</ele><time>2026-04-06T10:46:37Z</time></trkpt><trkpt lat="43.60472067457121" lon="2.6761396129424906"><ele>695.8000000000001</ele><time>2026-04-06T10:46:39Z</time></trkpt><trkpt lat="43.60467974332298" lon="2.6762489488474706"><ele>694.0</ele><time>2026-04-06T10:46:41Z</time></trkpt><trkpt lat="43.60465198159436" lon="2.6763532985850174"><ele>689.0</ele><time>2026-04-06T10:46:43Z</time></trkpt><trkpt lat="43.60462653715319" lon="2.6764621136996984"><ele>684.0</ele><time>2026-04-06T10:46:45Z</time></trkpt><trkpt lat="43.604597582681095" lon="2.676569975560824"><ele>679.0</ele><time>2026-04-06T10:46:47Z</time></trkpt><trkpt lat="43.604571085808445" lon="2.6767022791736115"><ele>674.0</ele><time>2026-04-06T10:46:49Z</time></trkpt><trkpt lat="43.60453170315987" lon="2.6768504019285113"><ele>669.0</ele><time>2026-04-06T10:46:51Z</time></trkpt><trkpt lat="43.60449154387263" lon="2.677015980674253"><ele>668.8571428571429</ele><time>2026-04-06T10:46:53Z</time></trkpt><trkpt lat="43.60447020198708" lon="2.6771023852931113"><ele>668.7142857142857</ele><time>2026-04-06T10:46:54Z</time></trkpt><trkpt lat="43.604448769006325" lon="2.6771888742550796"><ele>668.5714285714286</ele><time>2026-04-06T10:46:55Z</time></trkpt><trkpt lat="43.604427751080365" lon="2.677278376429788"><ele>668.4285714285714</ele><time>2026-04-06T10:46:56Z</time></trkpt><trkpt lat="43.60439986145921" lon="2.6773675928783933"><ele>668.2857142857143</ele><time>2026-04-06T10:46:57Z</time></trkpt><trkpt lat="43.60435565893933" lon="2.677448266279351"><ele>668.1428571428571</ele><time>2026-04-06T10:46:58Z</time></trkpt><trkpt lat="43.60429818511755" lon="2.6775150678187805"><ele>668.0</ele><time>2026-04-06T10:46:59Z</time></trkpt><trkpt lat="43.60422365819427" lon="2.6775577084094317"><ele>668.0</ele><time>2026-04-06T10:47:00Z</time></trkpt><trkpt lat="43.60414275252753" lon="2.6775848032981373"><ele>668.0</ele><time>2026-04-06T10:47:01Z</time></trkpt><trkpt lat="43.60405717697149" lon="2.6776012404932232"><ele>668.0</ele><time>2026-04-06T10:47:02Z</time></trkpt><trkpt lat="43.603973938977965" lon="2.6776407284855446"><ele>668.0</ele><time>2026-04-06T10:47:03Z</time></trkpt><trkpt lat="43.6038951239455" lon="2.6776956803204524"><ele>668.0</ele><time>2026-04-06T10:47:04Z</time></trkpt><trkpt lat="43.603818522304216" lon="2.67776646487047"><ele>668.0</ele><time>2026-04-06T10:47:05Z</time></trkpt><trkpt lat="43.603752547138846" lon="2.677861524603375"><ele>668.2</ele><time>2026-04-06T10:47:06Z</time></trkpt><trkpt lat="43.60369858827837" lon="2.67797520360765"><ele>668.4</ele><time>2026-04-06T10:47:07Z</time></trkpt><trkpt lat="43.6036508271966" lon="2.678097296473137"><ele>668.6</ele><time>2026-04-06T10:47:08Z</time></trkpt><trkpt lat="43.60360227240413" lon="2.6782250216477776"><ele>668.8000000000001</ele><time>2026-04-06T10:47:09Z</time></trkpt><trkpt lat="43.60355166245104" lon="2.6783461400601967"><ele>669.0</ele><time>2026-04-06T10:47:10Z</time></trkpt><trkpt lat="43.60350906465269" lon="2.6784723851504495"><ele>670.25</ele><time>2026-04-06T10:47:11Z</time></trkpt><trkpt lat="43.60347238249876" lon="2.6786066047493584"><ele>671.5</ele><time>2026-04-06T10:47:12Z</time></trkpt><trkpt lat="43.60344126751015" lon="2.678755111209119"><ele>672.75</ele><time>2026-04-06T10:47:13Z</time></trkpt><trkpt lat="43.60342763841554" lon="2.678916022492175"><ele>674.0</ele><time>2026-04-06T10:47:14Z</time></trkpt><trkpt lat="43.60345152156473" lon="2.679114126328766"><ele>674.0</ele><time>2026-04-06T10:47:15Z</time></trkpt><trkpt lat="43.6034321251934" lon="2.6793234069270015"><ele>674.0</ele><time>2026-04-06T10:47:16Z</time></trkpt><trkpt lat="43.60339605886917" lon="2.679536123408178"><ele>674.0</ele><time>2026-04-06T10:47:17Z</time></trkpt><trkpt lat="43.60344300024722" lon="2.679754695932855"><ele>675.0</ele><time>2026-04-06T10:47:18Z</time></trkpt><trkpt lat="43.60342680408977" lon="2.6799951797017867"><ele>676.0</ele><time>2026-04-06T10:47:19Z</time></trkpt><trkpt lat="43.60342470065779" lon="2.680242395074949"><ele>677.0</ele><time>2026-04-06T10:47:20Z</time></trkpt><trkpt lat="43.603415590460536" lon="2.6804997090027594"><ele>678.0</ele><time>2026-04-06T10:47:21Z</time></trkpt><trkpt lat="43.60342359518212" lon="2.6807663423723733"><ele>679.0</ele><time>2026-04-06T10:47:22Z</time></trkpt><trkpt lat="43.603411482912804" lon="2.6810329308493674"><ele>680.0</ele><time>2026-04-06T10:47:23Z</time></trkpt><trkpt lat="43.60341132782357" lon="2.6813215452505417"><ele>682.0</ele><time>2026-04-06T10:47:24Z</time></trkpt><trkpt lat="43.60341270443224" lon="2.6816158219493644"><ele>684.0</ele><time>2026-04-06T10:47:25Z</time></trkpt><trkpt lat="43.60341523599058" lon="2.6819081946417946"><ele>686.0</ele><time>2026-04-06T10:47:26Z</time></trkpt><trkpt lat="43.603417817068085" lon="2.6822093191906786"><ele>688.5</ele><time>2026-04-06T10:47:27Z</time></trkpt><trkpt lat="43.60341973173629" lon="2.6825192306164927"><ele>691.0</ele><time>2026-04-06T10:47:28Z</time></trkpt><trkpt lat="43.60340529684833" lon="2.683029489370688"><ele>691.3333333333334</ele><time>2026-04-06T10:47:29Z</time></trkpt><trkpt lat="43.60341220493097" lon="2.683310910415491"><ele>691.6666666666666</ele><time>2026-04-06T10:47:30Z</time></trkpt><trkpt lat="43.60342175570025" lon="2.683583398836553"><ele>692.0</ele><time>2026-04-06T10:47:31Z</time></trkpt><trkpt lat="43.60347050524077" lon="2.6838538175462965"><ele>694.0</ele><time>2026-04-06T10:47:32Z</time></trkpt><trkpt lat="43.60352774233023" lon="2.684124143749232"><ele>696.0</ele><time>2026-04-06T10:47:33Z</time></trkpt><trkpt lat="43.60357665932916" lon="2.6843986367086274"><ele>698.0</ele><time>2026-04-06T10:47:34Z</time></trkpt><trkpt lat="43.60364902516786" lon="2.6846602984957517"><ele>703.6666666666666</ele><time>2026-04-06T10:47:35Z</time></trkpt><trkpt lat="43.60371341290264" lon="2.68492053987216"><ele>709.3333333333334</ele><time>2026-04-06T10:47:36Z</time></trkpt><trkpt lat="43.60378148070401" lon="2.6851710118496834"><ele>715.0</ele><time>2026-04-06T10:47:37Z</time></trkpt><trkpt lat="43.60384826164795" lon="2.6854240319796823"><ele>715.3333333333334</ele><time>2026-04-06T10:47:38Z</time></trkpt><trkpt lat="43.60391421793608" lon="2.6856674534250544"><ele>715.6666666666666</ele><time>2026-04-06T10:47:39Z</time></trkpt><trkpt lat="43.60396767706958" lon="2.685900418977021"><ele>716.0</ele><time>2026-04-06T10:47:40Z</time></trkpt><trkpt lat="43.604017615291255" lon="2.6861195071780273"><ele>716.3333333333333</ele><time>2026-04-06T10:47:41Z</time></trkpt><trkpt lat="43.60404331285072" lon="2.6863233401141593"><ele>716.6666666666666</ele><time>2026-04-06T10:47:42Z</time></trkpt><trkpt lat="43.60400808921443" lon="2.686522118322035"><ele>717.0</ele><time>2026-04-06T10:47:43Z</time></trkpt><trkpt lat="43.60397541784062" lon="2.6867312039311373"><ele>717.0</ele><time>2026-04-06T10:47:44Z</time></trkpt><trkpt lat="43.60389989322055" lon="2.6869193036323176"><ele>717.0</ele><time>2026-04-06T10:47:45Z</time></trkpt><trkpt lat="43.60382132908913" lon="2.6870952373878265"><ele>717.0</ele><time>2026-04-06T10:47:46Z</time></trkpt><trkpt lat="43.603762841492085" lon="2.687277981537036"><ele>717.8</ele><time>2026-04-06T10:47:47Z</time></trkpt><trkpt lat="43.6037416802657" lon="2.6874441887442813"><ele>718.6</ele><time>2026-04-06T10:47:48Z</time></trkpt><trkpt lat="43.60372298662851" lon="2.6875831661756653"><ele>719.4</ele><time>2026-04-06T10:47:49Z</time></trkpt><trkpt lat="43.603719999631586" lon="2.6877166728736563"><ele>720.1999999999999</ele><time>2026-04-06T10:47:50Z</time></trkpt><trkpt lat="43.60371915163873" lon="2.6878383578584555"><ele>721.0</ele><time>2026-04-06T10:47:51Z</time></trkpt><trkpt lat="43.60368169325195" lon="2.687956974165545"><ele>721.3333333333334</ele><time>2026-04-06T10:47:52Z</time></trkpt><trkpt lat="43.60372026662315" lon="2.688085521040384"><ele>721.6666666666666</ele><time>2026-04-06T10:47:53Z</time></trkpt><trkpt lat="43.60395116529826" lon="2.688239597864673"><ele>722.0</ele><time>2026-04-06T10:47:55Z</time></trkpt><trkpt lat="43.60406814789945" lon="2.6883404680097818"><ele>722.0</ele><time>2026-04-06T10:47:56Z</time></trkpt><trkpt lat="43.60415741509966" lon="2.6885248945202647"><ele>722.0</ele><time>2026-04-06T10:47:57Z</time></trkpt><trkpt lat="43.60423510769985" lon="2.6887358794746827"><ele>722.0</ele><time>2026-04-06T10:47:58Z</time></trkpt><trkpt lat="43.60432419645238" lon="2.6889578296770806"><ele>722.3333333333333</ele><time>2026-04-06T10:47:59Z</time></trkpt><trkpt lat="43.60440827158789" lon="2.689200574360844"><ele>722.6666666666666</ele><time>2026-04-06T10:48:00Z</time></trkpt><trkpt lat="43.60448872484351" lon="2.689466940608892"><ele>723.0</ele><time>2026-04-06T10:48:01Z</time></trkpt><trkpt lat="43.60456520773849" lon="2.6897503686737734"><ele>723.0</ele><time>2026-04-06T10:48:02Z</time></trkpt><trkpt lat="43.60465001801809" lon="2.690038937273964"><ele>723.0</ele><time>2026-04-06T10:48:03Z</time></trkpt><trkpt lat="43.60474462792695" lon="2.690327002356754"><ele>722.6666666666666</ele><time>2026-04-06T10:48:04Z</time></trkpt><trkpt lat="43.60483568670828" lon="2.6906005575906433"><ele>722.3333333333333</ele><time>2026-04-06T10:48:05Z</time></trkpt><trkpt lat="43.60490448182738" lon="2.6908763557091544"><ele>722.0</ele><time>2026-04-06T10:48:06Z</time></trkpt><trkpt lat="43.60494005220242" lon="2.6911551985438176"><ele>719.6666666666666</ele><time>2026-04-06T10:48:07Z</time></trkpt><trkpt lat="43.60492687301323" lon="2.6914403227997528"><ele>717.3333333333334</ele><time>2026-04-06T10:48:08Z</time></trkpt><trkpt lat="43.60487523424179" lon="2.6917108457501664"><ele>715.0</ele><time>2026-04-06T10:48:09Z</time></trkpt><trkpt lat="43.60477929430636" lon="2.691966082025975"><ele>714.0</ele><time>2026-04-06T10:48:10Z</time></trkpt><trkpt lat="43.604639211217446" lon="2.6921767871775293"><ele>713.0</ele><time>2026-04-06T10:48:11Z</time></trkpt><trkpt lat="43.60445889637339" lon="2.692341859487451"><ele>712.0</ele><time>2026-04-06T10:48:12Z</time></trkpt><trkpt lat="43.604258428893594" lon="2.6924258654318134"><ele>712.0</ele><time>2026-04-06T10:48:13Z</time></trkpt><trkpt lat="43.604065426180156" lon="2.692491556964152"><ele>712.0</ele><time>2026-04-06T10:48:14Z</time></trkpt><trkpt lat="43.60387485410357" lon="2.692552352982963"><ele>712.0</ele><time>2026-04-06T10:48:15Z</time></trkpt><trkpt lat="43.603695917381714" lon="2.6926019969645076"><ele>708.3333333333334</ele><time>2026-04-06T10:48:16Z</time></trkpt><trkpt lat="43.60352385130788" lon="2.692673865342606"><ele>704.6666666666666</ele><time>2026-04-06T10:48:17Z</time></trkpt><trkpt lat="43.60337332437843" lon="2.692785016921613"><ele>701.0</ele><time>2026-04-06T10:48:18Z</time></trkpt><trkpt lat="43.60323542191055" lon="2.692919186714919"><ele>701.0</ele><time>2026-04-06T10:48:19Z</time></trkpt><trkpt lat="43.60310720866703" lon="2.6930709139806988"><ele>701.0</ele><time>2026-04-06T10:48:20Z</time></trkpt><trkpt lat="43.60298425180334" lon="2.693208773972936"><ele>701.0</ele><time>2026-04-06T10:48:21Z</time></trkpt><trkpt lat="43.60286252378493" lon="2.693349906865672"><ele>700.3333333333333</ele><time>2026-04-06T10:48:22Z</time></trkpt><trkpt lat="43.60274124844522" lon="2.693477110647768"><ele>699.6666666666666</ele><time>2026-04-06T10:48:23Z</time></trkpt><trkpt lat="43.602619635987644" lon="2.6936134410523485"><ele>699.0</ele><time>2026-04-06T10:48:24Z</time></trkpt><trkpt lat="43.602488924261316" lon="2.6937391857441164"><ele>699.0</ele><time>2026-04-06T10:48:25Z</time></trkpt><trkpt lat="43.60235682389401" lon="2.693835230443818"><ele>699.0</ele><time>2026-04-06T10:48:26Z</time></trkpt><trkpt lat="43.602229131371004" lon="2.693912898158946"><ele>699.0</ele><time>2026-04-06T10:48:27Z</time></trkpt><trkpt lat="43.602109472514584" lon="2.694007964694383"><ele>699.0</ele><time>2026-04-06T10:48:28Z</time></trkpt><trkpt lat="43.60200837912296" lon="2.694145390851653"><ele>698.3333333333334</ele><time>2026-04-06T10:48:29Z</time></trkpt><trkpt lat="43.60191915713436" lon="2.6943134109378883"><ele>697.6666666666667</ele><time>2026-04-06T10:48:30Z</time></trkpt><trkpt lat="43.6018273709906" lon="2.6944834090612253"><ele>697.0</ele><time>2026-04-06T10:48:31.001Z</time></trkpt><trkpt lat="43.601731461194156" lon="2.694652753039374"><ele>697.0</ele><time>2026-04-06T10:48:32.001Z</time></trkpt><trkpt lat="43.60163644359473" lon="2.6948207159716135"><ele>697.0</ele><time>2026-04-06T10:48:33.001Z</time></trkpt><trkpt lat="43.60154259824999" lon="2.694987448046212"><ele>697.0</ele><time>2026-04-06T10:48:34.001Z</time></trkpt><trkpt lat="43.601455379491405" lon="2.695151418905324"><ele>695.75</ele><time>2026-04-06T10:48:35.001Z</time></trkpt><trkpt lat="43.601364484431215" lon="2.695308036632633"><ele>694.5</ele><time>2026-04-06T10:48:36.001Z</time></trkpt><trkpt lat="43.60127394744245" lon="2.695482923815739"><ele>693.25</ele><time>2026-04-06T10:48:37.001Z</time></trkpt><trkpt lat="43.60119053115553" lon="2.695640999012537"><ele>692.0</ele><time>2026-04-06T10:48:38.001Z</time></trkpt><trkpt lat="43.601102035201635" lon="2.6957995314849423"><ele>692.0</ele><time>2026-04-06T10:48:39.001Z</time></trkpt><trkpt lat="43.60101963934378" lon="2.69593970345033"><ele>692.0</ele><time>2026-04-06T10:48:40.001Z</time></trkpt><trkpt lat="43.600932359739076" lon="2.696084643630293"><ele>692.0</ele><time>2026-04-06T10:48:41Z</time></trkpt><trkpt lat="43.600843454515754" lon="2.6962243210103045"><ele>692.0</ele><time>2026-04-06T10:48:42Z</time></trkpt><trkpt lat="43.6007318971698" lon="2.6963638884807004"><ele>691.6666666666666</ele><time>2026-04-06T10:48:43Z</time></trkpt><trkpt lat="43.600585847062455" lon="2.6964660908232028"><ele>691.3333333333334</ele><time>2026-04-06T10:48:44Z</time></trkpt><trkpt lat="43.60043034538362" lon="2.6965347895471403"><ele>691.0</ele><time>2026-04-06T10:48:45Z</time></trkpt><trkpt lat="43.60028515756643" lon="2.6966225505699795"><ele>691.0</ele><time>2026-04-06T10:48:46Z</time></trkpt><trkpt lat="43.60014927460093" lon="2.696727651613394"><ele>691.0</ele><time>2026-04-06T10:48:47Z</time></trkpt><trkpt lat="43.60003037506857" lon="2.6968495387564793"><ele>691.0</ele><time>2026-04-06T10:48:48Z</time></trkpt><trkpt lat="43.59992570737544" lon="2.696992761269218"><ele>690.6666666666667</ele><time>2026-04-06T10:48:49Z</time></trkpt><trkpt lat="43.599795900192525" lon="2.6973664928633014"><ele>690.3333333333334</ele><time>2026-04-06T10:48:51Z</time></trkpt><trkpt lat="43.599754306063275" lon="2.6975618746750385"><ele>690.0</ele><time>2026-04-06T10:48:52Z</time></trkpt><trkpt lat="43.59972675940985" lon="2.6977325594295976"><ele>690.0</ele><time>2026-04-06T10:48:53Z</time></trkpt><trkpt lat="43.59970568155276" lon="2.6978825711106675"><ele>690.0</ele><time>2026-04-06T10:48:54Z</time></trkpt><trkpt lat="43.59969688205244" lon="2.6980139525932105"><ele>690.0</ele><time>2026-04-06T10:48:55Z</time></trkpt><trkpt lat="43.59969754176414" lon="2.698127291730449"><ele>690.0</ele><time>2026-04-06T10:48:56Z</time></trkpt><trkpt lat="43.59970944050699" lon="2.6982229747119555"><ele>690.0</ele><time>2026-04-06T10:48:57Z</time></trkpt><trkpt lat="43.59971525177769" lon="2.6983108467314985"><ele>690.0</ele><time>2026-04-06T10:48:58Z</time></trkpt><trkpt lat="43.59973130992897" lon="2.6984811736155083"><ele>689.4</ele><time>2026-04-06T10:49:00Z</time></trkpt><trkpt lat="43.59972788699185" lon="2.698597624733386"><ele>688.8</ele><time>2026-04-06T10:49:01Z</time></trkpt><trkpt lat="43.59973257028091" lon="2.6987241344014463"><ele>688.2</ele><time>2026-04-06T10:49:02Z</time></trkpt><trkpt lat="43.59971968380317" lon="2.6988683761953713"><ele>687.6</ele><time>2026-04-06T10:49:03Z</time></trkpt><trkpt lat="43.59968518448498" lon="2.6990314698239595"><ele>687.0</ele><time>2026-04-06T10:49:04Z</time></trkpt><trkpt lat="43.599640047578475" lon="2.6991839110195985"><ele>687.0</ele><time>2026-04-06T10:49:05Z</time></trkpt><trkpt lat="43.599569986745195" lon="2.6993218219885033"><ele>687.0</ele><time>2026-04-06T10:49:06Z</time></trkpt><trkpt lat="43.59948092211848" lon="2.6994492690573826"><ele>687.0</ele><time>2026-04-06T10:49:07Z</time></trkpt><trkpt lat="43.5993812289504" lon="2.6995760562098274"><ele>687.0</ele><time>2026-04-06T10:49:08Z</time></trkpt><trkpt lat="43.59928530770449" lon="2.6996825659041344"><ele>688.75</ele><time>2026-04-06T10:49:09Z</time></trkpt><trkpt lat="43.599185740828794" lon="2.699787738618369"><ele>690.5</ele><time>2026-04-06T10:49:10Z</time></trkpt><trkpt lat="43.59908733177527" lon="2.6998815158339218"><ele>692.25</ele><time>2026-04-06T10:49:11Z</time></trkpt><trkpt lat="43.59899611648804" lon="2.699986785007476"><ele>694.0</ele><time>2026-04-06T10:49:12Z</time></trkpt><trkpt lat="43.59891399563179" lon="2.700119982064765"><ele>691.25</ele><time>2026-04-06T10:49:13Z</time></trkpt><trkpt lat="43.598846224586666" lon="2.7002702616813443"><ele>688.5</ele><time>2026-04-06T10:49:14Z</time></trkpt><trkpt lat="43.59878813873529" lon="2.7004202272133275"><ele>685.75</ele><time>2026-04-06T10:49:15Z</time></trkpt><trkpt lat="43.59873102835175" lon="2.700555986944978"><ele>683.0</ele><time>2026-04-06T10:49:16Z</time></trkpt><trkpt lat="43.59867398640993" lon="2.700685149339782"><ele>686.8</ele><time>2026-04-06T10:49:17Z</time></trkpt><trkpt lat="43.59861586365293" lon="2.700802618446534"><ele>690.5999999999999</ele><time>2026-04-06T10:49:18Z</time></trkpt><trkpt lat="43.59856552388871" lon="2.7008899895696765"><ele>694.4000000000001</ele><time>2026-04-06T10:49:19Z</time></trkpt><trkpt lat="43.59852091146847" lon="2.700969734520334"><ele>698.2</ele><time>2026-04-06T10:49:20Z</time></trkpt><trkpt lat="43.59851001301878" lon="2.701104550287754"><ele>702.0</ele><time>2026-04-06T10:49:22Z</time></trkpt><trkpt lat="43.59863213115277" lon="2.7011988811610372"><ele>699.6</ele><time>2026-04-06T10:49:23Z</time></trkpt><trkpt lat="43.59873676517162" lon="2.7012521583356057"><ele>697.2</ele><time>2026-04-06T10:49:24Z</time></trkpt><trkpt lat="43.59883368171919" lon="2.70131485565181"><ele>694.8</ele><time>2026-04-06T10:49:25Z</time></trkpt><trkpt lat="43.598928836628275" lon="2.7013840957323723"><ele>692.4</ele><time>2026-04-06T10:49:26Z</time></trkpt><trkpt lat="43.599015702114436" lon="2.701449483927995"><ele>690.0</ele><time>2026-04-06T10:49:27Z</time></trkpt><trkpt lat="43.59909305880341" lon="2.7015055332320457"><ele>690.0</ele><time>2026-04-06T10:49:28Z</time></trkpt><trkpt lat="43.59916293280691" lon="2.701557282686512"><ele>690.0</ele><time>2026-04-06T10:49:29Z</time></trkpt><trkpt lat="43.59922284388332" lon="2.701603522259312"><ele>690.0</ele><time>2026-04-06T10:49:30Z</time></trkpt><trkpt lat="43.59933041765247" lon="2.701656785590139"><ele>690.0</ele><time>2026-04-06T10:49:32Z</time></trkpt><trkpt lat="43.599394838150516" lon="2.7015867393485182"><ele>690.0</ele><time>2026-04-06T10:49:33Z</time></trkpt><trkpt lat="43.59947322537146" lon="2.701480262808387"><ele>694.0</ele><time>2026-04-06T10:49:34Z</time></trkpt><trkpt lat="43.59953511711572" lon="2.701355161970324"><ele>698.0</ele><time>2026-04-06T10:49:35Z</time></trkpt><trkpt lat="43.59963581453775" lon="2.7012881088992375"><ele>702.0</ele><time>2026-04-06T10:49:36Z</time></trkpt><trkpt lat="43.59973892552354" lon="2.701218845533767"><ele>706.0</ele><time>2026-04-06T10:49:37Z</time></trkpt><trkpt lat="43.59984680320622" lon="2.7011489131630673"><ele>706.0</ele><time>2026-04-06T10:49:38Z</time></trkpt><trkpt lat="43.599947789903986" lon="2.7010888368198183"><ele>706.0</ele><time>2026-04-06T10:49:39Z</time></trkpt><trkpt lat="43.60003255510362" lon="2.7010358213808"><ele>706.0</ele><time>2026-04-06T10:49:40Z</time></trkpt><trkpt lat="43.600115846371324" lon="2.7010275473139695"><ele>706.0</ele><time>2026-04-06T10:49:41Z</time></trkpt><trkpt lat="43.60019125518592" lon="2.7010703931699864"><ele>706.0</ele><time>2026-04-06T10:49:42Z</time></trkpt><trkpt lat="43.60027845232041" lon="2.701150539113123"><ele>704.0</ele><time>2026-04-06T10:49:43Z</time></trkpt><trkpt lat="43.600374984905706" lon="2.701217696470482"><ele>702.0</ele><time>2026-04-06T10:49:44Z</time></trkpt><trkpt lat="43.600464030945616" lon="2.7013025205141865"><ele>700.0</ele><time>2026-04-06T10:49:45Z</time></trkpt><trkpt lat="43.60055502674" lon="2.701392186392388"><ele>698.0</ele><time>2026-04-06T10:49:46Z</time></trkpt><trkpt lat="43.6006476941641" lon="2.7014774841301334"><ele>696.0</ele><time>2026-04-06T10:49:47Z</time></trkpt><trkpt lat="43.600742490188345" lon="2.7015639433948193"><ele>696.0</ele><time>2026-04-06T10:49:48Z</time></trkpt><trkpt lat="43.60083660962394" lon="2.701651215589015"><ele>696.0</ele><time>2026-04-06T10:49:49Z</time></trkpt><trkpt lat="43.6009377914534" lon="2.701721551023974"><ele>696.0</ele><time>2026-04-06T10:49:50Z</time></trkpt><trkpt lat="43.60104138588562" lon="2.7017888728880464"><ele>696.0</ele><time>2026-04-06T10:49:51Z</time></trkpt><trkpt lat="43.601145562680074" lon="2.701852998306832"><ele>694.0</ele><time>2026-04-06T10:49:52Z</time></trkpt><trkpt lat="43.60124839399057" lon="2.701923760652724"><ele>692.0</ele><time>2026-04-06T10:49:53Z</time></trkpt><trkpt lat="43.6013511501479" lon="2.702001013633073"><ele>690.0</ele><time>2026-04-06T10:49:54Z</time></trkpt><trkpt lat="43.60145166889863" lon="2.7020744741749243"><ele>688.0</ele><time>2026-04-06T10:49:55Z</time></trkpt><trkpt lat="43.60154817579131" lon="2.7021417816861613"><ele>688.0</ele><time>2026-04-06T10:49:56Z</time></trkpt><trkpt lat="43.601625163737054" lon="2.702223721536905"><ele>688.0</ele><time>2026-04-06T10:49:57Z</time></trkpt><trkpt lat="43.601707752819955" lon="2.702286066395701"><ele>688.0</ele><time>2026-04-06T10:49:58Z</time></trkpt><trkpt lat="43.60178926466544" lon="2.7023480895468937"><ele>688.0</ele><time>2026-04-06T10:49:59Z</time></trkpt><trkpt lat="43.601865118558855" lon="2.7024138443313706"><ele>688.0</ele><time>2026-04-06T10:50:00Z</time></trkpt><trkpt lat="43.60194291842264" lon="2.7024754827313577"><ele>688.0</ele><time>2026-04-06T10:50:01Z</time></trkpt><trkpt lat="43.6019718917323" lon="2.7026043261391632"><ele>688.0</ele><time>2026-04-06T10:50:02Z</time></trkpt><trkpt lat="43.602020313344994" lon="2.7027184654656153"><ele>688.0</ele><time>2026-04-06T10:50:03Z</time></trkpt><trkpt lat="43.602095205708146" lon="2.7028260841695033"><ele>688.0</ele><time>2026-04-06T10:50:04Z</time></trkpt><trkpt lat="43.60216638073009" lon="2.7029233690808767"><ele>688.0</ele><time>2026-04-06T10:50:05Z</time></trkpt><trkpt lat="43.602245424603076" lon="2.7030084709783773"><ele>687.2</ele><time>2026-04-06T10:50:06Z</time></trkpt><trkpt lat="43.60231983972751" lon="2.7030867344975427"><ele>686.4</ele><time>2026-04-06T10:50:07Z</time></trkpt><trkpt lat="43.60237316268556" lon="2.7031897395086983"><ele>685.6</ele><time>2026-04-06T10:50:08Z</time></trkpt><trkpt lat="43.60243536667422" lon="2.7032965619138234"><ele>684.8000000000001</ele><time>2026-04-06T10:50:09Z</time></trkpt><trkpt lat="43.60250962755342" lon="2.7034076833456337"><ele>684.0</ele><time>2026-04-06T10:50:10Z</time></trkpt><trkpt lat="43.602570387013536" lon="2.7035310334789338"><ele>683.25</ele><time>2026-04-06T10:50:11Z</time></trkpt><trkpt lat="43.60264095256791" lon="2.7036392064236385"><ele>682.5</ele><time>2026-04-06T10:50:12Z</time></trkpt><trkpt lat="43.60273646987736" lon="2.7037300719519695"><ele>681.75</ele><time>2026-04-06T10:50:13Z</time></trkpt><trkpt lat="43.6028466412717" lon="2.7038168828584803"><ele>681.0</ele><time>2026-04-06T10:50:14Z</time></trkpt><trkpt lat="43.60295775614486" lon="2.7038930429006536"><ele>681.0</ele><time>2026-04-06T10:50:15Z</time></trkpt><trkpt lat="43.603057882097644" lon="2.703972898736433"><ele>681.0</ele><time>2026-04-06T10:50:16Z</time></trkpt><trkpt lat="43.603154950876494" lon="2.7040395898803222"><ele>681.0</ele><time>2026-04-06T10:50:17Z</time></trkpt><trkpt lat="43.603243055092065" lon="2.7041025373505483"><ele>681.0</ele><time>2026-04-06T10:50:18Z</time></trkpt><trkpt lat="43.60332191208201" lon="2.7041662695323807"><ele>681.0</ele><time>2026-04-06T10:50:19Z</time></trkpt><trkpt lat="43.60340936870657" lon="2.7042384465541818"><ele>681.0</ele><time>2026-04-06T10:50:20Z</time></trkpt><trkpt lat="43.60350041848574" lon="2.7043177261148306"><ele>681.0</ele><time>2026-04-06T10:50:21Z</time></trkpt><trkpt lat="43.603605322955296" lon="2.704394954221435"><ele>681.0</ele><time>2026-04-06T10:50:22Z</time></trkpt><trkpt lat="43.60371657718868" lon="2.70447014288374"><ele>681.0</ele><time>2026-04-06T10:50:23Z</time></trkpt><trkpt lat="43.6038238277467" lon="2.704545328384774"><ele>685.0</ele><time>2026-04-06T10:50:24Z</time></trkpt><trkpt lat="43.603936627722724" lon="2.7046000443108595"><ele>689.0</ele><time>2026-04-06T10:50:25Z</time></trkpt><trkpt lat="43.604054687112296" lon="2.704640543748348"><ele>693.0</ele><time>2026-04-06T10:50:26Z</time></trkpt><trkpt lat="43.604177173737675" lon="2.7046550535290805"><ele>697.0</ele><time>2026-04-06T10:50:27Z</time></trkpt><trkpt lat="43.60430517776335" lon="2.70464815869699"><ele>697.0</ele><time>2026-04-06T10:50:28Z</time></trkpt><trkpt lat="43.60443354501681" lon="2.7046250098157922"><ele>697.0</ele><time>2026-04-06T10:50:29Z</time></trkpt><trkpt lat="43.60456804310544" lon="2.704612444418487"><ele>697.0</ele><time>2026-04-06T10:50:30Z</time></trkpt><trkpt lat="43.60469564161444" lon="2.7046082593201297"><ele>697.0</ele><time>2026-04-06T10:50:31Z</time></trkpt><trkpt lat="43.60482218008308" lon="2.7045912518461397"><ele>698.75</ele><time>2026-04-06T10:50:32Z</time></trkpt><trkpt lat="43.60492663079018" lon="2.70453910510797"><ele>700.5</ele><time>2026-04-06T10:50:33.001Z</time></trkpt><trkpt lat="43.60502412053576" lon="2.7044304255909575"><ele>702.25</ele><time>2026-04-06T10:50:34.001Z</time></trkpt><trkpt lat="43.60510216146486" lon="2.7042744706207817"><ele>704.0</ele><time>2026-04-06T10:50:35.001Z</time></trkpt><trkpt lat="43.6051712311585" lon="2.704101932829253"><ele>701.25</ele><time>2026-04-06T10:50:36.001Z</time></trkpt><trkpt lat="43.60521917750634" lon="2.703909951708506"><ele>698.5</ele><time>2026-04-06T10:50:37.001Z</time></trkpt><trkpt lat="43.60524384523601" lon="2.7037223691888355"><ele>695.75</ele><time>2026-04-06T10:50:38.001Z</time></trkpt><trkpt lat="43.60527500800204" lon="2.703550065991134"><ele>693.0</ele><time>2026-04-06T10:50:39.001Z</time></trkpt><trkpt lat="43.605368191337725" lon="2.703430048680256"><ele>693.0</ele><time>2026-04-06T10:50:40.001Z</time></trkpt><trkpt lat="43.605483104495164" lon="2.7032922716701506"><ele>693.0</ele><time>2026-04-06T10:50:41.001Z</time></trkpt><trkpt lat="43.60558616367852" lon="2.7031545006359106"><ele>693.0</ele><time>2026-04-06T10:50:42.001Z</time></trkpt><trkpt lat="43.605722604186965" lon="2.7031027056741426"><ele>693.0</ele><time>2026-04-06T10:50:43.001Z</time></trkpt><trkpt lat="43.605878964216274" lon="2.7030243370029026"><ele>693.0</ele><time>2026-04-06T10:50:44.001Z</time></trkpt><trkpt lat="43.60605004547287" lon="2.7029921784017117"><ele>693.0</ele><time>2026-04-06T10:50:45.001Z</time></trkpt><trkpt lat="43.60624045475035" lon="2.702891803101105"><ele>693.0</ele><time>2026-04-06T10:50:46.001Z</time></trkpt><trkpt lat="43.606413493401426" lon="2.7027493132302447"><ele>693.0</ele><time>2026-04-06T10:50:47Z</time></trkpt><trkpt lat="43.606579803120134" lon="2.7025717898764556"><ele>693.0</ele><time>2026-04-06T10:50:48Z</time></trkpt><trkpt lat="43.60674779291075" lon="2.7024127785054572"><ele>693.0</ele><time>2026-04-06T10:50:49Z</time></trkpt><trkpt lat="43.60692054867256" lon="2.702273151627125"><ele>695.0</ele><time>2026-04-06T10:50:50Z</time></trkpt><trkpt lat="43.60710765587309" lon="2.7021728830730973"><ele>697.0</ele><time>2026-04-06T10:50:51Z</time></trkpt><trkpt lat="43.60730335636771" lon="2.7021217735623604"><ele>699.0</ele><time>2026-04-06T10:50:52Z</time></trkpt><trkpt lat="43.60750389308436" lon="2.7021203665259144"><ele>699.0</ele><time>2026-04-06T10:50:53Z</time></trkpt><trkpt lat="43.60770655552453" lon="2.702150025526929"><ele>699.0</ele><time>2026-04-06T10:50:54Z</time></trkpt><trkpt lat="43.607916592718304" lon="2.702178815226346"><ele>699.0</ele><time>2026-04-06T10:50:55Z</time></trkpt><trkpt lat="43.60813268662971" lon="2.7022219896611683"><ele>696.5</ele><time>2026-04-06T10:50:56Z</time></trkpt><trkpt lat="43.60856424514385" lon="2.702208015582871"><ele>694.0</ele><time>2026-04-06T10:50:58Z</time></trkpt><trkpt lat="43.60877808331969" lon="2.702168754722401"><ele>694.0</ele><time>2026-04-06T10:50:59Z</time></trkpt><trkpt lat="43.60897288844078" lon="2.7021787037045377"><ele>694.0</ele><time>2026-04-06T10:51:00Z</time></trkpt><trkpt lat="43.609165286953136" lon="2.7021952169804475"><ele>694.0</ele><time>2026-04-06T10:51:01Z</time></trkpt><trkpt lat="43.609354186547016" lon="2.7022111957739052"><ele>690.0</ele><time>2026-04-06T10:51:02Z</time></trkpt><trkpt lat="43.60954440907769" lon="2.70222870592417"><ele>686.0</ele><time>2026-04-06T10:51:03Z</time></trkpt><trkpt lat="43.60972988682045" lon="2.7022446213920412"><ele>682.0</ele><time>2026-04-06T10:51:04Z</time></trkpt><trkpt lat="43.6099114050939" lon="2.7022659735902668"><ele>682.0</ele><time>2026-04-06T10:51:05Z</time></trkpt><trkpt lat="43.61008611100281" lon="2.7022838969332557"><ele>682.0</ele><time>2026-04-06T10:51:06Z</time></trkpt><trkpt lat="43.61026068999501" lon="2.702297177617895"><ele>682.0</ele><time>2026-04-06T10:51:07Z</time></trkpt><trkpt lat="43.610437499982964" lon="2.702309549441623"><ele>679.6666666666667</ele><time>2026-04-06T10:51:08Z</time></trkpt><trkpt lat="43.610605731808" lon="2.7023230772215685"><ele>677.3333333333334</ele><time>2026-04-06T10:51:09Z</time></trkpt><trkpt lat="43.61076545302215" lon="2.7023379367455487"><ele>675.0</ele><time>2026-04-06T10:51:10Z</time></trkpt><trkpt lat="43.61091845746501" lon="2.7023518391461363"><ele>675.0</ele><time>2026-04-06T10:51:11Z</time></trkpt><trkpt lat="43.61106689329548" lon="2.702365172703398"><ele>675.0</ele><time>2026-04-06T10:51:12Z</time></trkpt><trkpt lat="43.6112140297536" lon="2.7023905270527866"><ele>675.0</ele><time>2026-04-06T10:51:13Z</time></trkpt><trkpt lat="43.611318460163844" lon="2.702314783617281"><ele>675.0</ele><time>2026-04-06T10:51:14Z</time></trkpt><trkpt lat="43.61150875531336" lon="2.702587108045404"><ele>674.3333333333334</ele><time>2026-04-06T10:51:15Z</time></trkpt><trkpt lat="43.61165623757558" lon="2.702737231259926"><ele>673.6666666666667</ele><time>2026-04-06T10:51:16Z</time></trkpt><trkpt lat="43.6118113104282" lon="2.7028971279442304"><ele>673.0</ele><time>2026-04-06T10:51:17Z</time></trkpt><trkpt lat="43.61198042276642" lon="2.703054764721693"><ele>673.3333333333334</ele><time>2026-04-06T10:51:18Z</time></trkpt><trkpt lat="43.61216251592592" lon="2.703208086167917"><ele>673.6666666666666</ele><time>2026-04-06T10:51:19Z</time></trkpt><trkpt lat="43.612355975935095" lon="2.703365124561466"><ele>674.0</ele><time>2026-04-06T10:51:20Z</time></trkpt><trkpt lat="43.61255320845112" lon="2.703534308207183"><ele>673.5</ele><time>2026-04-06T10:51:21Z</time></trkpt><trkpt lat="43.61275919176781" lon="2.703711185979413"><ele>673.0</ele><time>2026-04-06T10:51:22Z</time></trkpt><trkpt lat="43.61297091901249" lon="2.703888808836642"><ele>672.5</ele><time>2026-04-06T10:51:23Z</time></trkpt><trkpt lat="43.61319060627487" lon="2.704075213495954"><ele>672.0</ele><time>2026-04-06T10:51:24Z</time></trkpt><trkpt lat="43.613417081942664" lon="2.7042690470364485"><ele>672.0</ele><time>2026-04-06T10:51:25Z</time></trkpt><trkpt lat="43.61363953027933" lon="2.704464481952358"><ele>672.0</ele><time>2026-04-06T10:51:26Z</time></trkpt><trkpt lat="43.61385702871818" lon="2.704647983768346"><ele>673.0</ele><time>2026-04-06T10:51:27Z</time></trkpt><trkpt lat="43.614065379221294" lon="2.704818977793958"><ele>674.0</ele><time>2026-04-06T10:51:28Z</time></trkpt><trkpt lat="43.61426128948494" lon="2.7049930812402367"><ele>674.0</ele><time>2026-04-06T10:51:29Z</time></trkpt><trkpt lat="43.614411627272645" lon="2.7052168605556655"><ele>674.0</ele><time>2026-04-06T10:51:30Z</time></trkpt><trkpt lat="43.614550775389674" lon="2.7054526423706964"><ele>674.0</ele><time>2026-04-06T10:51:31Z</time></trkpt><trkpt lat="43.614694159209705" lon="2.7056978800338616"><ele>674.5</ele><time>2026-04-06T10:51:32Z</time></trkpt><trkpt lat="43.614832217431385" lon="2.705953865930388"><ele>675.0</ele><time>2026-04-06T10:51:33Z</time></trkpt><trkpt lat="43.614974469487606" lon="2.706203775479657"><ele>675.0</ele><time>2026-04-06T10:51:34Z</time></trkpt><trkpt lat="43.61511458653413" lon="2.7064565792158994"><ele>675.0</ele><time>2026-04-06T10:51:35Z</time></trkpt><trkpt lat="43.61525440533278" lon="2.7067209159660535"><ele>676.0</ele><time>2026-04-06T10:51:36Z</time></trkpt><trkpt lat="43.61539609553159" lon="2.7069778270966567"><ele>677.0</ele><time>2026-04-06T10:51:37Z</time></trkpt><trkpt lat="43.61554026636057" lon="2.7072387141729894"><ele>677.0</ele><time>2026-04-06T10:51:38Z</time></trkpt><trkpt lat="43.61568256693913" lon="2.7075054510695318"><ele>677.0</ele><time>2026-04-06T10:51:39Z</time></trkpt><trkpt lat="43.615828839944506" lon="2.7077672359109823"><ele>676.5</ele><time>2026-04-06T10:51:40Z</time></trkpt><trkpt lat="43.61598056885922" lon="2.708030561918534"><ele>676.0</ele><time>2026-04-06T10:51:41Z</time></trkpt><trkpt lat="43.61612520254071" lon="2.708292189319556"><ele>677.0</ele><time>2026-04-06T10:51:42Z</time></trkpt><trkpt lat="43.616271502249944" lon="2.7085565109927265"><ele>678.0</ele><time>2026-04-06T10:51:43Z</time></trkpt><trkpt lat="43.616416877934824" lon="2.7088160188287653"><ele>679.0</ele><time>2026-04-06T10:51:44Z</time></trkpt><trkpt lat="43.616561759471274" lon="2.7090720555419514"><ele>680.0</ele><time>2026-04-06T10:51:45Z</time></trkpt><trkpt lat="43.61670256664726" lon="2.7093292431281317"><ele>679.5</ele><time>2026-04-06T10:51:46Z</time></trkpt><trkpt lat="43.61684395815773" lon="2.7095832178080705"><ele>679.0</ele><time>2026-04-06T10:51:47Z</time></trkpt><trkpt lat="43.616974281288606" lon="2.7098349736286016"><ele>679.6666666666667</ele><time>2026-04-06T10:51:48Z</time></trkpt><trkpt lat="43.6171033561931" lon="2.710067155151368"><ele>680.3333333333334</ele><time>2026-04-06T10:51:49Z</time></trkpt><trkpt lat="43.6172236881279" lon="2.710288178168498"><ele>681.0</ele><time>2026-04-06T10:51:50Z</time></trkpt><trkpt lat="43.61732990737165" lon="2.7104981774359773"><ele>681.0</ele><time>2026-04-06T10:51:51Z</time></trkpt><trkpt lat="43.61741175589783" lon="2.7107073585184516"><ele>681.0</ele><time>2026-04-06T10:51:52Z</time></trkpt><trkpt lat="43.617452687691966" lon="2.7109334039941957"><ele>681.0</ele><time>2026-04-06T10:51:53Z</time></trkpt><trkpt lat="43.61752071853345" lon="2.7111675592146574"><ele>681.0</ele><time>2026-04-06T10:51:54Z</time></trkpt><trkpt lat="43.617571836133806" lon="2.7114204054393487"><ele>681.0</ele><time>2026-04-06T10:51:55Z</time></trkpt><trkpt lat="43.617632916023055" lon="2.7116762274340998"><ele>681.0</ele><time>2026-04-06T10:51:56Z</time></trkpt><trkpt lat="43.61770032351526" lon="2.711925371704433"><ele>681.0</ele><time>2026-04-06T10:51:57Z</time></trkpt><trkpt lat="43.61778409614265" lon="2.71215505688637"><ele>681.0</ele><time>2026-04-06T10:51:58Z</time></trkpt><trkpt lat="43.61789768252696" lon="2.712372317389485"><ele>681.0</ele><time>2026-04-06T10:51:59Z</time></trkpt><trkpt lat="43.618015268413245" lon="2.712588185959092"><ele>681.6666666666666</ele><time>2026-04-06T10:52:00Z</time></trkpt><trkpt lat="43.6181241334411" lon="2.712818157228079"><ele>682.3333333333333</ele><time>2026-04-06T10:52:01Z</time></trkpt><trkpt lat="43.618233938506876" lon="2.713048176514654"><ele>683.0</ele><time>2026-04-06T10:52:02Z</time></trkpt><trkpt lat="43.618341644092034" lon="2.713280539402359"><ele>683.0</ele><time>2026-04-06T10:52:03Z</time></trkpt><trkpt lat="43.618444372633085" lon="2.7135057298623835"><ele>683.0</ele><time>2026-04-06T10:52:04Z</time></trkpt><trkpt lat="43.61854924817456" lon="2.7137391991351345"><ele>683.0</ele><time>2026-04-06T10:52:05Z</time></trkpt><trkpt lat="43.618652565717625" lon="2.7139659426422256"><ele>682.6666666666666</ele><time>2026-04-06T10:52:06Z</time></trkpt><trkpt lat="43.61875600974931" lon="2.7141924620862334"><ele>682.3333333333334</ele><time>2026-04-06T10:52:07Z</time></trkpt><trkpt lat="43.61886267327878" lon="2.7144253863365293"><ele>682.0</ele><time>2026-04-06T10:52:08Z</time></trkpt><trkpt lat="43.6189651283519" lon="2.714675631630388"><ele>682.0</ele><time>2026-04-06T10:52:09Z</time></trkpt><trkpt lat="43.61905240914972" lon="2.7149388001097554"><ele>682.0</ele><time>2026-04-06T10:52:10Z</time></trkpt><trkpt lat="43.619130719931306" lon="2.7152162556643127"><ele>682.0</ele><time>2026-04-06T10:52:11Z</time></trkpt><trkpt lat="43.61921474114149" lon="2.715497579194701"><ele>681.3333333333334</ele><time>2026-04-06T10:52:12Z</time></trkpt><trkpt lat="43.61929606010831" lon="2.715780713371895"><ele>680.6666666666666</ele><time>2026-04-06T10:52:13Z</time></trkpt><trkpt lat="43.61936434033447" lon="2.7160701173527637"><ele>680.0</ele><time>2026-04-06T10:52:14Z</time></trkpt><trkpt lat="43.619422712484614" lon="2.7163673029578748"><ele>679.6666666666666</ele><time>2026-04-06T10:52:15Z</time></trkpt><trkpt lat="43.61946099095041" lon="2.7166620010174634"><ele>679.3333333333334</ele><time>2026-04-06T10:52:16Z</time></trkpt><trkpt lat="43.619494900921325" lon="2.716964809806498"><ele>679.0</ele><time>2026-04-06T10:52:17Z</time></trkpt><trkpt lat="43.61951700903015" lon="2.717264527549879"><ele>680.6666666666667</ele><time>2026-04-06T10:52:18Z</time></trkpt><trkpt lat="43.61952941257342" lon="2.7175678431642085"><ele>682.3333333333334</ele><time>2026-04-06T10:52:19Z</time></trkpt><trkpt lat="43.61954112358646" lon="2.717868213303982"><ele>684.0</ele><time>2026-04-06T10:52:20Z</time></trkpt><trkpt lat="43.61955851914047" lon="2.7181602619170757"><ele>684.0</ele><time>2026-04-06T10:52:21Z</time></trkpt><trkpt lat="43.61959397538294" lon="2.7184434431032276"><ele>684.0</ele><time>2026-04-06T10:52:22Z</time></trkpt><trkpt lat="43.619666363923656" lon="2.7187162502914215"><ele>684.0</ele><time>2026-04-06T10:52:23Z</time></trkpt><trkpt lat="43.6197595128598" lon="2.718984922438028"><ele>684.0</ele><time>2026-04-06T10:52:24Z</time></trkpt><trkpt lat="43.61985687046907" lon="2.7192566565944256"><ele>684.0</ele><time>2026-04-06T10:52:25Z</time></trkpt><trkpt lat="43.61993370612264" lon="2.7195451173909344"><ele>684.0</ele><time>2026-04-06T10:52:26Z</time></trkpt><trkpt lat="43.61998378270636" lon="2.7198397923404984"><ele>684.0</ele><time>2026-04-06T10:52:27Z</time></trkpt><trkpt lat="43.62002419013871" lon="2.720130789134786"><ele>684.0</ele><time>2026-04-06T10:52:28Z</time></trkpt><trkpt lat="43.62007175552287" lon="2.7204134474123425"><ele>684.0</ele><time>2026-04-06T10:52:29Z</time></trkpt><trkpt lat="43.62013564815838" lon="2.7206954586235605"><ele>685.3333333333334</ele><time>2026-04-06T10:52:30Z</time></trkpt><trkpt lat="43.620219686613474" lon="2.7209737679963766"><ele>686.6666666666667</ele><time>2026-04-06T10:52:31Z</time></trkpt><trkpt lat="43.62031642780542" lon="2.7212407355797397"><ele>688.0</ele><time>2026-04-06T10:52:32Z</time></trkpt><trkpt lat="43.62043017619055" lon="2.721503101318522"><ele>693.0</ele><time>2026-04-06T10:52:33Z</time></trkpt><trkpt lat="43.62055484770172" lon="2.721759387791786"><ele>698.0</ele><time>2026-04-06T10:52:34Z</time></trkpt><trkpt lat="43.62068374705268" lon="2.7220105855270393"><ele>703.0</ele><time>2026-04-06T10:52:35Z</time></trkpt><trkpt lat="43.6208204952614" lon="2.722250490769562"><ele>704.3333333333334</ele><time>2026-04-06T10:52:36Z</time></trkpt><trkpt lat="43.62095734099595" lon="2.722469044504844"><ele>705.6666666666666</ele><time>2026-04-06T10:52:37Z</time></trkpt><trkpt lat="43.62112010493306" lon="2.722659939102144"><ele>707.0</ele><time>2026-04-06T10:52:38Z</time></trkpt><trkpt lat="43.62131024084451" lon="2.7228220244967365"><ele>703.0</ele><time>2026-04-06T10:52:39Z</time></trkpt><trkpt lat="43.62150349944759" lon="2.722984615557073"><ele>699.0</ele><time>2026-04-06T10:52:40Z</time></trkpt><trkpt lat="43.62169338495603" lon="2.723138887055645"><ele>695.0</ele><time>2026-04-06T10:52:41Z</time></trkpt><trkpt lat="43.62188469494775" lon="2.7232808743298653"><ele>695.6666666666666</ele><time>2026-04-06T10:52:42Z</time></trkpt><trkpt lat="43.62206690378519" lon="2.723406076956667"><ele>696.3333333333334</ele><time>2026-04-06T10:52:43Z</time></trkpt><trkpt lat="43.62223402632841" lon="2.723529616403534"><ele>697.0</ele><time>2026-04-06T10:52:44Z</time></trkpt><trkpt lat="43.622378084576695" lon="2.723666517187225"><ele>697.0</ele><time>2026-04-06T10:52:45Z</time></trkpt><trkpt lat="43.62252154072947" lon="2.7238058993612526"><ele>697.0</ele><time>2026-04-06T10:52:46Z</time></trkpt><trkpt lat="43.622675222754026" lon="2.7239661657691046"><ele>697.0</ele><time>2026-04-06T10:52:47Z</time></trkpt><trkpt lat="43.62282520158949" lon="2.724152300392471"><ele>695.6666666666667</ele><time>2026-04-06T10:52:48Z</time></trkpt><trkpt lat="43.62296788277644" lon="2.7243524060626125"><ele>694.3333333333334</ele><time>2026-04-06T10:52:49Z</time></trkpt><trkpt lat="43.623126672556765" lon="2.7245592258917473"><ele>693.0</ele><time>2026-04-06T10:52:50Z</time></trkpt><trkpt lat="43.623293144798524" lon="2.7247562721888956"><ele>693.0</ele><time>2026-04-06T10:52:51Z</time></trkpt><trkpt lat="43.62348652226788" lon="2.724909978018582"><ele>693.0</ele><time>2026-04-06T10:52:52Z</time></trkpt><trkpt lat="43.623694945627456" lon="2.725044049695845"><ele>692.5</ele><time>2026-04-06T10:52:53Z</time></trkpt><trkpt lat="43.62390690970013" lon="2.7251778130047843"><ele>692.0</ele><time>2026-04-06T10:52:54Z</time></trkpt><trkpt lat="43.62411874355945" lon="2.725320765426298"><ele>692.0</ele><time>2026-04-06T10:52:55Z</time></trkpt><trkpt lat="43.624328669963106" lon="2.725470995294592"><ele>692.0</ele><time>2026-04-06T10:52:56Z</time></trkpt><trkpt lat="43.62453909463087" lon="2.7256142724501804"><ele>693.5</ele><time>2026-04-06T10:52:57Z</time></trkpt><trkpt lat="43.62474973394735" lon="2.72575383300557"><ele>695.0</ele><time>2026-04-06T10:52:58Z</time></trkpt><trkpt lat="43.624959356825634" lon="2.7258917182529863"><ele>695.0</ele><time>2026-04-06T10:52:59Z</time></trkpt><trkpt lat="43.625169228101065" lon="2.7260260571431245"><ele>695.0</ele><time>2026-04-06T10:53:00Z</time></trkpt><trkpt lat="43.625377645091426" lon="2.7261597188119446"><ele>694.0</ele><time>2026-04-06T10:53:01Z</time></trkpt><trkpt lat="43.62558217447127" lon="2.7262930865481505"><ele>693.0</ele><time>2026-04-06T10:53:02Z</time></trkpt><trkpt lat="43.62578993123718" lon="2.72642733145628"><ele>693.0</ele><time>2026-04-06T10:53:03Z</time></trkpt><trkpt lat="43.62599044350895" lon="2.7265640277912597"><ele>693.0</ele><time>2026-04-06T10:53:04Z</time></trkpt><trkpt lat="43.62618686958189" lon="2.7267223183474405"><ele>693.6666666666666</ele><time>2026-04-06T10:53:05Z</time></trkpt><trkpt lat="43.62636195854035" lon="2.7268875106893837"><ele>694.3333333333333</ele><time>2026-04-06T10:53:06Z</time></trkpt><trkpt lat="43.62652891092029" lon="2.7270818738291536"><ele>695.0</ele><time>2026-04-06T10:53:07Z</time></trkpt><trkpt lat="43.62669271651218" lon="2.727290806859486"><ele>695.0</ele><time>2026-04-06T10:53:08Z</time></trkpt><trkpt lat="43.6268525627426" lon="2.727504319273222"><ele>695.0</ele><time>2026-04-06T10:53:09Z</time></trkpt><trkpt lat="43.62701174751711" lon="2.727725173543045"><ele>695.0</ele><time>2026-04-06T10:53:10Z</time></trkpt><trkpt lat="43.627180983590456" lon="2.7279442583764815"><ele>697.5</ele><time>2026-04-06T10:53:11Z</time></trkpt><trkpt lat="43.62735301606741" lon="2.7281665709688427"><ele>700.0</ele><time>2026-04-06T10:53:12Z</time></trkpt><trkpt lat="43.62750944068124" lon="2.7283986999752226"><ele>701.5</ele><time>2026-04-06T10:53:13Z</time></trkpt><trkpt lat="43.62767598309918" lon="2.7286157745353288"><ele>703.0</ele><time>2026-04-06T10:53:14Z</time></trkpt><trkpt lat="43.62783898183929" lon="2.728834595013297"><ele>703.0</ele><time>2026-04-06T10:53:15Z</time></trkpt><trkpt lat="43.62800975383576" lon="2.7290389420201238"><ele>703.0</ele><time>2026-04-06T10:53:16Z</time></trkpt><trkpt lat="43.628165488957514" lon="2.7292796107642845"><ele>702.0</ele><time>2026-04-06T10:53:17Z</time></trkpt><trkpt lat="43.62833991473502" lon="2.729485549275745"><ele>701.0</ele><time>2026-04-06T10:53:18Z</time></trkpt><trkpt lat="43.62848961567819" lon="2.7297149562556333"><ele>702.3333333333333</ele><time>2026-04-06T10:53:19Z</time></trkpt><trkpt lat="43.62864910344256" lon="2.7299216705567604"><ele>703.6666666666666</ele><time>2026-04-06T10:53:20Z</time></trkpt><trkpt lat="43.62882417358743" lon="2.73011962795147"><ele>705.0</ele><time>2026-04-06T10:53:21Z</time></trkpt><trkpt lat="43.628999577720435" lon="2.730305240908609"><ele>705.0</ele><time>2026-04-06T10:53:22Z</time></trkpt><trkpt lat="43.629148168766406" lon="2.7305085181527224"><ele>705.0</ele><time>2026-04-06T10:53:23Z</time></trkpt><trkpt lat="43.62926826832818" lon="2.730745409076674"><ele>705.0</ele><time>2026-04-06T10:53:24Z</time></trkpt><trkpt lat="43.62939374549057" lon="2.7310236081987886"><ele>701.0</ele><time>2026-04-06T10:53:25Z</time></trkpt><trkpt lat="43.629491329918785" lon="2.7313289990473137"><ele>697.0</ele><time>2026-04-06T10:53:26Z</time></trkpt><trkpt lat="43.62960049050803" lon="2.7316257242719986"><ele>696.5</ele><time>2026-04-06T10:53:27Z</time></trkpt><trkpt lat="43.629708861976425" lon="2.7319236956191015"><ele>696.0</ele><time>2026-04-06T10:53:28Z</time></trkpt><trkpt lat="43.62981627742442" lon="2.7322190387650562"><ele>696.0</ele><time>2026-04-06T10:53:29Z</time></trkpt><trkpt lat="43.62992289970448" lon="2.732512200211565"><ele>696.0</ele><time>2026-04-06T10:53:30Z</time></trkpt><trkpt lat="43.63003645266502" lon="2.7328280108117333"><ele>697.0</ele><time>2026-04-06T10:53:31Z</time></trkpt><trkpt lat="43.63014659756442" lon="2.733138207141942"><ele>698.0</ele><time>2026-04-06T10:53:32Z</time></trkpt><trkpt lat="43.630254608910015" lon="2.733442540473713"><ele>700.0</ele><time>2026-04-06T10:53:33Z</time></trkpt><trkpt lat="43.63038646903988" lon="2.733751668128454"><ele>702.0</ele><time>2026-04-06T10:53:34Z</time></trkpt><trkpt lat="43.63049596332825" lon="2.7340537575968575"><ele>702.0</ele><time>2026-04-06T10:53:35Z</time></trkpt><trkpt lat="43.63064255118029" lon="2.7343265745935987"><ele>702.0</ele><time>2026-04-06T10:53:36Z</time></trkpt><trkpt lat="43.63082495989709" lon="2.734553689583111"><ele>703.0</ele><time>2026-04-06T10:53:37Z</time></trkpt><trkpt lat="43.63100076531647" lon="2.7347684855987255"><ele>704.0</ele><time>2026-04-06T10:53:38Z</time></trkpt><trkpt lat="43.631171881591484" lon="2.73497818587094"><ele>704.5</ele><time>2026-04-06T10:53:39Z</time></trkpt><trkpt lat="43.63134339610926" lon="2.735197563303808"><ele>705.0</ele><time>2026-04-06T10:53:40Z</time></trkpt><trkpt lat="43.63151733638897" lon="2.7354057601791433"><ele>703.0</ele><time>2026-04-06T10:53:41Z</time></trkpt><trkpt lat="43.63169007044628" lon="2.735620045998539"><ele>701.0</ele><time>2026-04-06T10:53:42Z</time></trkpt><trkpt lat="43.63186419555147" lon="2.7358398228139746"><ele>702.0</ele><time>2026-04-06T10:53:43Z</time></trkpt><trkpt lat="43.632044821555176" lon="2.736053325175441"><ele>703.0</ele><time>2026-04-06T10:53:44Z</time></trkpt><trkpt lat="43.63222603523866" lon="2.7362659638160247"><ele>703.0</ele><time>2026-04-06T10:53:45Z</time></trkpt><trkpt lat="43.63239802634346" lon="2.736478248303013"><ele>703.0</ele><time>2026-04-06T10:53:46Z</time></trkpt><trkpt lat="43.63257936592186" lon="2.736693388127841"><ele>701.5</ele><time>2026-04-06T10:53:47Z</time></trkpt><trkpt lat="43.63275735981048" lon="2.7369048924011428"><ele>700.0</ele><time>2026-04-06T10:53:48Z</time></trkpt><trkpt lat="43.63293146748194" lon="2.737115242414694"><ele>704.0</ele><time>2026-04-06T10:53:49Z</time></trkpt><trkpt lat="43.63310712172747" lon="2.7373267798194822"><ele>708.0</ele><time>2026-04-06T10:53:50Z</time></trkpt><trkpt lat="43.633285808786816" lon="2.737538312207995"><ele>707.6666666666666</ele><time>2026-04-06T10:53:51Z</time></trkpt><trkpt lat="43.63345586062738" lon="2.737751717271001"><ele>707.3333333333333</ele><time>2026-04-06T10:53:52Z</time></trkpt><trkpt lat="43.63359696557361" lon="2.7379778249309985"><ele>707.0</ele><time>2026-04-06T10:53:53Z</time></trkpt><trkpt lat="43.63371398779082" lon="2.7382272126881566"><ele>708.0</ele><time>2026-04-06T10:53:54Z</time></trkpt><trkpt lat="43.633818192735305" lon="2.7384720797339526"><ele>709.0</ele><time>2026-04-06T10:53:55Z</time></trkpt><trkpt lat="43.633913254377326" lon="2.738701250962718"><ele>710.0</ele><time>2026-04-06T10:53:56Z</time></trkpt><trkpt lat="43.63401799304649" lon="2.738912697362211"><ele>710.0</ele><time>2026-04-06T10:53:57Z</time></trkpt><trkpt lat="43.63414346339045" lon="2.7390779820159987"><ele>710.0</ele><time>2026-04-06T10:53:58Z</time></trkpt><trkpt lat="43.634287335020694" lon="2.7391847706449806"><ele>710.0</ele><time>2026-04-06T10:53:59Z</time></trkpt><trkpt lat="43.63444648775199" lon="2.7392114057700336"><ele>711.2</ele><time>2026-04-06T10:54:00Z</time></trkpt><trkpt lat="43.634552980511344" lon="2.7392250338955635"><ele>712.4</ele><time>2026-04-06T10:54:01Z</time></trkpt><trkpt lat="43.63463843646065" lon="2.739277112436599"><ele>713.5999999999999</ele><time>2026-04-06T10:54:02Z</time></trkpt><trkpt lat="43.63462486055809" lon="2.739439840070631"><ele>714.8</ele><time>2026-04-06T10:54:03Z</time></trkpt><trkpt lat="43.63466389987426" lon="2.73955775598002"><ele>716.0</ele><time>2026-04-06T10:54:04Z</time></trkpt><trkpt lat="43.634662500859214" lon="2.739691758049658"><ele>716.0</ele><time>2026-04-06T10:54:05Z</time></trkpt><trkpt lat="43.634603509718325" lon="2.739798221980395"><ele>716.0</ele><time>2026-04-06T10:54:06Z</time></trkpt><trkpt lat="43.63451282484848" lon="2.7398853669501766"><ele>716.0</ele><time>2026-04-06T10:54:07Z</time></trkpt><trkpt lat="43.634443061087524" lon="2.7400060668200656"><ele>716.0</ele><time>2026-04-06T10:54:08Z</time></trkpt><trkpt lat="43.634436984089135" lon="2.740153910550451"><ele>716.0</ele><time>2026-04-06T10:54:09Z</time></trkpt><trkpt lat="43.63446143487617" lon="2.7403071077948433"><ele>717.25</ele><time>2026-04-06T10:54:10Z</time></trkpt><trkpt lat="43.63451754829053" lon="2.7404675676137114"><ele>718.5</ele><time>2026-04-06T10:54:11Z</time></trkpt><trkpt lat="43.6345724937943" lon="2.7406405905418345"><ele>719.75</ele><time>2026-04-06T10:54:12Z</time></trkpt><trkpt lat="43.63462107185243" lon="2.7408195931355475"><ele>721.0</ele><time>2026-04-06T10:54:13Z</time></trkpt><trkpt lat="43.63467116985867" lon="2.740995869545515"><ele>720.75</ele><time>2026-04-06T10:54:14Z</time></trkpt><trkpt lat="43.6347279728597" lon="2.7411441832321204"><ele>720.5</ele><time>2026-04-06T10:54:15Z</time></trkpt><trkpt lat="43.63481574157511" lon="2.7412635437642536"><ele>720.25</ele><time>2026-04-06T10:54:16Z</time></trkpt><trkpt lat="43.63493297293749" lon="2.741334492907616"><ele>720.0</ele><time>2026-04-06T10:54:17Z</time></trkpt><trkpt lat="43.63503620800489" lon="2.7414041925440578"><ele>720.0</ele><time>2026-04-06T10:54:18Z</time></trkpt><trkpt lat="43.63507199103047" lon="2.741556264977986"><ele>720.0</ele><time>2026-04-06T10:54:19Z</time></trkpt><trkpt lat="43.63506355489488" lon="2.7417017644726616"><ele>720.0</ele><time>2026-04-06T10:54:20Z</time></trkpt><trkpt lat="43.63501001306638" lon="2.7418631632380452"><ele>720.0</ele><time>2026-04-06T10:54:21Z</time></trkpt><trkpt lat="43.634965385820585" lon="2.7420170741782104"><ele>721.5</ele><time>2026-04-06T10:54:22Z</time></trkpt><trkpt lat="43.634973660189885" lon="2.7421905026715856"><ele>723.0</ele><time>2026-04-06T10:54:23Z</time></trkpt><trkpt lat="43.63501651555308" lon="2.742394588648414"><ele>724.5</ele><time>2026-04-06T10:54:24Z</time></trkpt><trkpt lat="43.635084863215646" lon="2.742558296607309"><ele>726.0</ele><time>2026-04-06T10:54:25Z</time></trkpt><trkpt lat="43.635141317840066" lon="2.742698798530585"><ele>728.0</ele><time>2026-04-06T10:54:26Z</time></trkpt><trkpt lat="43.63517630769129" lon="2.7428259190603046"><ele>730.0</ele><time>2026-04-06T10:54:27Z</time></trkpt><trkpt lat="43.63514987976353" lon="2.7429300913616554"><ele>732.0</ele><time>2026-04-06T10:54:28Z</time></trkpt><trkpt lat="43.635056677990505" lon="2.7429819160679543"><ele>734.0</ele><time>2026-04-06T10:54:29Z</time></trkpt><trkpt lat="43.63497420387589" lon="2.742976300182247"><ele>736.0</ele><time>2026-04-06T10:54:30Z</time></trkpt><trkpt lat="43.63486598580755" lon="2.7429388891763726"><ele>736.0</ele><time>2026-04-06T10:54:31Z</time></trkpt><trkpt lat="43.6347604166082" lon="2.742891594336322"><ele>736.0</ele><time>2026-04-06T10:54:32Z</time></trkpt><trkpt lat="43.63462144067981" lon="2.742867039073975"><ele>736.0</ele><time>2026-04-06T10:54:33Z</time></trkpt><trkpt lat="43.634495191702094" lon="2.742840975287302"><ele>736.0</ele><time>2026-04-06T10:54:34Z</time></trkpt><trkpt lat="43.634370191139446" lon="2.742814901431691"><ele>736.75</ele><time>2026-04-06T10:54:35Z</time></trkpt><trkpt lat="43.63425075228767" lon="2.7428092814273004"><ele>737.5</ele><time>2026-04-06T10:54:36Z</time></trkpt><trkpt lat="43.634107640535284" lon="2.7428406958663154"><ele>738.25</ele><time>2026-04-06T10:54:37Z</time></trkpt><trkpt lat="43.633959016035526" lon="2.742899668544415"><ele>739.0</ele><time>2026-04-06T10:54:38Z</time></trkpt><trkpt lat="43.63383932282366" lon="2.7430034266822862"><ele>739.0</ele><time>2026-04-06T10:54:39Z</time></trkpt><trkpt lat="43.633745887957254" lon="2.7431539091786203"><ele>739.0</ele><time>2026-04-06T10:54:40Z</time></trkpt><trkpt lat="43.63365651515929" lon="2.743296784871207"><ele>739.0</ele><time>2026-04-06T10:54:41Z</time></trkpt><trkpt lat="43.63357828674816" lon="2.7434808051407797"><ele>739.0</ele><time>2026-04-06T10:54:42Z</time></trkpt><trkpt lat="43.633504942766265" lon="2.7436895372092027"><ele>738.0</ele><time>2026-04-06T10:54:43Z</time></trkpt><trkpt lat="43.633437225432395" lon="2.743912855059418"><ele>737.0</ele><time>2026-04-06T10:54:44Z</time></trkpt><trkpt lat="43.63335480451885" lon="2.74414680355039"><ele>736.0</ele><time>2026-04-06T10:54:45Z</time></trkpt><trkpt lat="43.63326705850094" lon="2.744356950603597"><ele>741.6666666666667</ele><time>2026-04-06T10:54:46Z</time></trkpt><trkpt lat="43.6331723242645" lon="2.744561114970452"><ele>747.3333333333334</ele><time>2026-04-06T10:54:47Z</time></trkpt><trkpt lat="43.63304422195211" lon="2.744803359939962"><ele>753.0</ele><time>2026-04-06T10:54:48Z</time></trkpt><trkpt lat="43.63292050526614" lon="2.745043397741972"><ele>751.3333333333334</ele><time>2026-04-06T10:54:49Z</time></trkpt><trkpt lat="43.63280301566845" lon="2.7452713398252415"><ele>749.6666666666667</ele><time>2026-04-06T10:54:50Z</time></trkpt><trkpt lat="43.63268940448131" lon="2.7454924436801615"><ele>748.0</ele><time>2026-04-06T10:54:51Z</time></trkpt><trkpt lat="43.63256313960858" lon="2.745690750893282"><ele>748.0</ele><time>2026-04-06T10:54:52Z</time></trkpt><trkpt lat="43.63242188561539" lon="2.7458615851875803"><ele>748.0</ele><time>2026-04-06T10:54:53Z</time></trkpt><trkpt lat="43.63226526443796" lon="2.745997200710806"><ele>748.0</ele><time>2026-04-06T10:54:54Z</time></trkpt><trkpt lat="43.632100876685634" lon="2.7461196791279936"><ele>748.0</ele><time>2026-04-06T10:54:55Z</time></trkpt><trkpt lat="43.63193909132075" lon="2.7462342898527345"><ele>748.0</ele><time>2026-04-06T10:54:56Z</time></trkpt><trkpt lat="43.631770266307015" lon="2.7463557513568833"><ele>748.0</ele><time>2026-04-06T10:54:57Z</time></trkpt><trkpt lat="43.6316093104858" lon="2.7464670519013215"><ele>748.0</ele><time>2026-04-06T10:54:58Z</time></trkpt><trkpt lat="43.631484726077815" lon="2.7465930768502793"><ele>748.0</ele><time>2026-04-06T10:54:59Z</time></trkpt><trkpt lat="43.631377352548256" lon="2.7467261455841054"><ele>748.0</ele><time>2026-04-06T10:55:00Z</time></trkpt><trkpt lat="43.6313243898446" lon="2.746873564217609"><ele>748.0</ele><time>2026-04-06T10:55:01Z</time></trkpt><trkpt lat="43.631326106109924" lon="2.747023728114623"><ele>747.25</ele><time>2026-04-06T10:55:02Z</time></trkpt><trkpt lat="43.63137763636044" lon="2.747172348205644"><ele>746.5</ele><time>2026-04-06T10:55:03Z</time></trkpt><trkpt lat="43.63147286691732" lon="2.747237235876718"><ele>745.75</ele><time>2026-04-06T10:55:04Z</time></trkpt><trkpt lat="43.63158456759648" lon="2.7473014957254698"><ele>745.0</ele><time>2026-04-06T10:55:05Z</time></trkpt><trkpt lat="43.63172815242627" lon="2.7472820254346653"><ele>745.0</ele><time>2026-04-06T10:55:06Z</time></trkpt><trkpt lat="43.631874975537485" lon="2.7472309265313952"><ele>745.0</ele><time>2026-04-06T10:55:07Z</time></trkpt><trkpt lat="43.63203252121859" lon="2.7472101580099966"><ele>745.0</ele><time>2026-04-06T10:55:08Z</time></trkpt><trkpt lat="43.63218679140034" lon="2.7471994657211565"><ele>750.5</ele><time>2026-04-06T10:55:09Z</time></trkpt><trkpt lat="43.63240025903172" lon="2.74716707867071"><ele>756.0</ele><time>2026-04-06T10:55:10Z</time></trkpt><trkpt lat="43.63263379052959" lon="2.7472491881803065"><ele>763.6666666666667</ele><time>2026-04-06T10:55:11Z</time></trkpt><trkpt lat="43.63280775917094" lon="2.747336951865935"><ele>771.3333333333334</ele><time>2026-04-06T10:55:12Z</time></trkpt><trkpt lat="43.6329822645165" lon="2.7474368994622753"><ele>779.0</ele><time>2026-04-06T10:55:13Z</time></trkpt><trkpt lat="43.63317003964182" lon="2.7475714026189646"><ele>779.0</ele><time>2026-04-06T10:55:14Z</time></trkpt><trkpt lat="43.633313235962675" lon="2.747698898052394"><ele>779.0</ele><time>2026-04-06T10:55:15Z</time></trkpt><trkpt lat="43.63344014391803" lon="2.7478554753547977"><ele>779.0</ele><time>2026-04-06T10:55:16Z</time></trkpt><trkpt lat="43.633552652245335" lon="2.748134092163211"><ele>779.0</ele><time>2026-04-06T10:55:17Z</time></trkpt><trkpt lat="43.63367317968603" lon="2.7483615825708663"><ele>779.0</ele><time>2026-04-06T10:55:18Z</time></trkpt><trkpt lat="43.633771021996274" lon="2.748565842248571"><ele>779.0</ele><time>2026-04-06T10:55:19Z</time></trkpt><trkpt lat="43.63384241954932" lon="2.74879361691704"><ele>779.0</ele><time>2026-04-06T10:55:20Z</time></trkpt><trkpt lat="43.633892043237786" lon="2.7490476976546407"><ele>779.0</ele><time>2026-04-06T10:55:21Z</time></trkpt><trkpt lat="43.63394739639945" lon="2.749299162505102"><ele>779.0</ele><time>2026-04-06T10:55:22Z</time></trkpt><trkpt lat="43.634011021710805" lon="2.749554465473275"><ele>774.0</ele><time>2026-04-06T10:55:23Z</time></trkpt><trkpt lat="43.63408309688796" lon="2.7498022361432146"><ele>769.0</ele><time>2026-04-06T10:55:24Z</time></trkpt><trkpt lat="43.63413812786723" lon="2.750037653470912"><ele>764.0</ele><time>2026-04-06T10:55:25Z</time></trkpt><trkpt lat="43.63418945818543" lon="2.7502482731311626"><ele>761.75</ele><time>2026-04-06T10:55:26Z</time></trkpt><trkpt lat="43.63424148324357" lon="2.7504016412814902"><ele>759.5</ele><time>2026-04-06T10:55:27Z</time></trkpt><trkpt lat="43.63431146561677" lon="2.750488665115952"><ele>757.25</ele><time>2026-04-06T10:55:28Z</time></trkpt><trkpt lat="43.63445455934746" lon="2.7504722823233525"><ele>755.0</ele><time>2026-04-06T10:55:29Z</time></trkpt><trkpt lat="43.63455730358476" lon="2.7504242210351206"><ele>755.0</ele><time>2026-04-06T10:55:30Z</time></trkpt><trkpt lat="43.634696515634715" lon="2.7503968088652404"><ele>755.0</ele><time>2026-04-06T10:55:31Z</time></trkpt><trkpt lat="43.634826248950475" lon="2.7503557244217105"><ele>755.0</ele><time>2026-04-06T10:55:32Z</time></trkpt><trkpt lat="43.63496317744771" lon="2.750303266355062"><ele>755.0</ele><time>2026-04-06T10:55:33Z</time></trkpt><trkpt lat="43.63510064927644" lon="2.750216169766198"><ele>759.3333333333333</ele><time>2026-04-06T10:55:34Z</time></trkpt><trkpt lat="43.635220705377954" lon="2.75009901862442"><ele>763.6666666666666</ele><time>2026-04-06T10:55:35Z</time></trkpt><trkpt lat="43.63535160159876" lon="2.7499296091325474"><ele>768.0</ele><time>2026-04-06T10:55:36Z</time></trkpt><trkpt lat="43.635471318458194" lon="2.7497332013891045"><ele>768.0</ele><time>2026-04-06T10:55:37Z</time></trkpt><trkpt lat="43.635602336399195" lon="2.749534955595962"><ele>768.0</ele><time>2026-04-06T10:55:38Z</time></trkpt><trkpt lat="43.6357423087664" lon="2.749329900323364"><ele>768.0</ele><time>2026-04-06T10:55:39Z</time></trkpt><trkpt lat="43.63589267183092" lon="2.749120173780507"><ele>770.0</ele><time>2026-04-06T10:55:40Z</time></trkpt><trkpt lat="43.63604299168785" lon="2.7489264901541186"><ele>772.0</ele><time>2026-04-06T10:55:41Z</time></trkpt><trkpt lat="43.636200644335275" lon="2.748743107611504"><ele>774.0</ele><time>2026-04-06T10:55:42Z</time></trkpt><trkpt lat="43.63636005399494" lon="2.748543546377145"><ele>774.6666666666667</ele><time>2026-04-06T10:55:43Z</time></trkpt><trkpt lat="43.63651366840518" lon="2.7483525623552096"><ele>775.3333333333334</ele><time>2026-04-06T10:55:44Z</time></trkpt><trkpt lat="43.6366718608191" lon="2.7481584744523286"><ele>776.0</ele><time>2026-04-06T10:55:45Z</time></trkpt><trkpt lat="43.63680808684131" lon="2.7480028224509763"><ele>776.0</ele><time>2026-04-06T10:55:46Z</time></trkpt><trkpt lat="43.636966738172326" lon="2.7478974501271085"><ele>776.0</ele><time>2026-04-06T10:55:47Z</time></trkpt><trkpt lat="43.63713890677921" lon="2.7478848889158627"><ele>776.0</ele><time>2026-04-06T10:55:48Z</time></trkpt><trkpt lat="43.63728337461862" lon="2.7478791231889907"><ele>775.0</ele><time>2026-04-06T10:55:49Z</time></trkpt><trkpt lat="43.637408977975376" lon="2.7479022173194143"><ele>774.0</ele><time>2026-04-06T10:55:50Z</time></trkpt><trkpt lat="43.63752281780712" lon="2.747948534470606"><ele>773.0</ele><time>2026-04-06T10:55:51Z</time></trkpt><trkpt lat="43.6375737595625" lon="2.74803991720437"><ele>772.0</ele><time>2026-04-06T10:55:52Z</time></trkpt><trkpt lat="43.63761132348874" lon="2.7481325341267335"><ele>771.0</ele><time>2026-04-06T10:55:53Z</time></trkpt><trkpt lat="43.6375726330681" lon="2.7482633131119214"><ele>771.0</ele><time>2026-04-06T10:55:54Z</time></trkpt><trkpt lat="43.637479904720806" lon="2.748354677257788"><ele>771.0</ele><time>2026-04-06T10:55:55Z</time></trkpt><trkpt lat="43.637401213332986" lon="2.748501985709254"><ele>771.0</ele><time>2026-04-06T10:55:56Z</time></trkpt><trkpt lat="43.637305589503576" lon="2.7486022566994257"><ele>771.0</ele><time>2026-04-06T10:55:57Z</time></trkpt><trkpt lat="43.63716250515951" lon="2.748662383726904"><ele>772.0</ele><time>2026-04-06T10:55:58Z</time></trkpt><trkpt lat="43.637031980201876" lon="2.7487391830145365"><ele>773.0</ele><time>2026-04-06T10:55:59Z</time></trkpt><trkpt lat="43.63690960345267" lon="2.74886746540027"><ele>774.0</ele><time>2026-04-06T10:56:00Z</time></trkpt><trkpt lat="43.63678695759925" lon="2.749013378024928"><ele>774.0</ele><time>2026-04-06T10:56:01Z</time></trkpt><trkpt lat="43.63667437200317" lon="2.749196860144869"><ele>774.0</ele><time>2026-04-06T10:56:02Z</time></trkpt><trkpt lat="43.636570434822964" lon="2.7493991568239298"><ele>774.0</ele><time>2026-04-06T10:56:03Z</time></trkpt><trkpt lat="43.636470033086404" lon="2.7496132440013126"><ele>777.3333333333333</ele><time>2026-04-06T10:56:04Z</time></trkpt><trkpt lat="43.636404810338234" lon="2.7498482285037715"><ele>780.6666666666666</ele><time>2026-04-06T10:56:05Z</time></trkpt><trkpt lat="43.63634394679357" lon="2.7500906639122076"><ele>784.0</ele><time>2026-04-06T10:56:06Z</time></trkpt><trkpt lat="43.6362937671068" lon="2.750338851815662"><ele>788.0</ele><time>2026-04-06T10:56:07Z</time></trkpt><trkpt lat="43.63623023704751" lon="2.750581871312797"><ele>792.0</ele><time>2026-04-06T10:56:08Z</time></trkpt><trkpt lat="43.636159464316414" lon="2.750812536498035"><ele>796.0</ele><time>2026-04-06T10:56:09Z</time></trkpt><trkpt lat="43.636072642711206" lon="2.7510314716634183"><ele>792.0</ele><time>2026-04-06T10:56:10Z</time></trkpt><trkpt lat="43.63597080341258" lon="2.7512303715290822"><ele>788.0</ele><time>2026-04-06T10:56:11Z</time></trkpt><trkpt lat="43.635843343416354" lon="2.7514435761743945"><ele>784.0</ele><time>2026-04-06T10:56:12Z</time></trkpt><trkpt lat="43.63571989989979" lon="2.7516689195612964"><ele>784.0</ele><time>2026-04-06T10:56:13Z</time></trkpt><trkpt lat="43.63558952092688" lon="2.75185665152607"><ele>784.0</ele><time>2026-04-06T10:56:14Z</time></trkpt><trkpt lat="43.63547582456689" lon="2.752031030319106"><ele>784.0</ele><time>2026-04-06T10:56:15Z</time></trkpt><trkpt lat="43.63537428122436" lon="2.752194166822657"><ele>780.3333333333333</ele><time>2026-04-06T10:56:16Z</time></trkpt><trkpt lat="43.6352723893588" lon="2.752359764137094"><ele>776.6666666666667</ele><time>2026-04-06T10:56:17Z</time></trkpt><trkpt lat="43.63517989695711" lon="2.7525243210547123"><ele>773.0</ele><time>2026-04-06T10:56:18Z</time></trkpt><trkpt lat="43.63509058231131" lon="2.752676548082189"><ele>774.0</ele><time>2026-04-06T10:56:19Z</time></trkpt><trkpt lat="43.63501433543085" lon="2.752819685250864"><ele>775.0</ele><time>2026-04-06T10:56:20Z</time></trkpt><trkpt lat="43.63496205122175" lon="2.7529731021864405"><ele>776.0</ele><time>2026-04-06T10:56:21Z</time></trkpt><trkpt lat="43.63492228961932" lon="2.7531448288811946"><ele>777.0</ele><time>2026-04-06T10:56:22Z</time></trkpt><trkpt lat="43.63488917157921" lon="2.7533349219430168"><ele>776.6666666666667</ele><time>2026-04-06T10:56:23Z</time></trkpt><trkpt lat="43.63487138749453" lon="2.753541927515965"><ele>776.3333333333334</ele><time>2026-04-06T10:56:24Z</time></trkpt><trkpt lat="43.63488672760934" lon="2.7537611654712015"><ele>776.0</ele><time>2026-04-06T10:56:25Z</time></trkpt><trkpt lat="43.63493180670191" lon="2.7539725970734334"><ele>776.0</ele><time>2026-04-06T10:56:26Z</time></trkpt><trkpt lat="43.63499573604131" lon="2.7541680126489423"><ele>776.0</ele><time>2026-04-06T10:56:27Z</time></trkpt><trkpt lat="43.63507468153455" lon="2.7543401451021334"><ele>776.0</ele><time>2026-04-06T10:56:28Z</time></trkpt><trkpt lat="43.63512396577214" lon="2.754508676323498"><ele>776.0</ele><time>2026-04-06T10:56:29Z</time></trkpt><trkpt lat="43.63513383145332" lon="2.7546562998150224"><ele>773.25</ele><time>2026-04-06T10:56:30Z</time></trkpt><trkpt lat="43.63511775696185" lon="2.7547995073662146"><ele>770.5</ele><time>2026-04-06T10:56:31Z</time></trkpt><trkpt lat="43.63508227248612" lon="2.75496263266483"><ele>767.75</ele><time>2026-04-06T10:56:32Z</time></trkpt><trkpt lat="43.63503384635416" lon="2.7551384862333665"><ele>765.0</ele><time>2026-04-06T10:56:33Z</time></trkpt><trkpt lat="43.63497665647108" lon="2.7553032707785325"><ele>763.25</ele><time>2026-04-06T10:56:34Z</time></trkpt><trkpt lat="43.63490919679637" lon="2.7554532577349677"><ele>761.5</ele><time>2026-04-06T10:56:35Z</time></trkpt><trkpt lat="43.63484471431353" lon="2.7556046743905243"><ele>759.75</ele><time>2026-04-06T10:56:36Z</time></trkpt><trkpt lat="43.63474728996323" lon="2.7557267782246946"><ele>758.0</ele><time>2026-04-06T10:56:37Z</time></trkpt><trkpt lat="43.63465207170562" lon="2.7558474925959335"><ele>758.0</ele><time>2026-04-06T10:56:38Z</time></trkpt><trkpt lat="43.6345514384247" lon="2.7559523107011135"><ele>758.0</ele><time>2026-04-06T10:56:39Z</time></trkpt><trkpt lat="43.63444562147457" lon="2.7560363224136366"><ele>758.0</ele><time>2026-04-06T10:56:40Z</time></trkpt><trkpt lat="43.63433379568707" lon="2.756104104620209"><ele>758.0</ele><time>2026-04-06T10:56:41Z</time></trkpt><trkpt lat="43.6342104146066" lon="2.7561652035372144"><ele>758.5</ele><time>2026-04-06T10:56:42Z</time></trkpt><trkpt lat="43.63409575288363" lon="2.7562143810932307"><ele>759.0</ele><time>2026-04-06T10:56:43Z</time></trkpt><trkpt lat="43.63397453906807" lon="2.7562452528222896"><ele>759.5</ele><time>2026-04-06T10:56:44Z</time></trkpt><trkpt lat="43.63385262497814" lon="2.7562581494277736"><ele>760.0</ele><time>2026-04-06T10:56:45Z</time></trkpt><trkpt lat="43.63373093039833" lon="2.7562579566909093"><ele>766.8</ele><time>2026-04-06T10:56:46Z</time></trkpt><trkpt lat="43.63361878137578" lon="2.7562464675736496"><ele>773.6</ele><time>2026-04-06T10:56:47Z</time></trkpt><trkpt lat="43.633517688010734" lon="2.7562295643786463"><ele>780.4000000000001</ele><time>2026-04-06T10:56:48Z</time></trkpt><trkpt lat="43.63342336625023" lon="2.756244451869365"><ele>787.2</ele><time>2026-04-06T10:56:49Z</time></trkpt><trkpt lat="43.63335245104617" lon="2.756324994068203"><ele>794.0</ele><time>2026-04-06T10:56:50Z</time></trkpt><trkpt lat="43.63331538445318" lon="2.7564548441088745"><ele>794.0</ele><time>2026-04-06T10:56:51Z</time></trkpt><trkpt lat="43.633315869604964" lon="2.756601162705921"><ele>794.0</ele><time>2026-04-06T10:56:52Z</time></trkpt><trkpt lat="43.63336862146405" lon="2.75673948101077"><ele>794.0</ele><time>2026-04-06T10:56:53Z</time></trkpt><trkpt lat="43.63347232714279" lon="2.7568575989834025"><ele>794.0</ele><time>2026-04-06T10:56:54Z</time></trkpt><trkpt lat="43.633571772385324" lon="2.756995851539676"><ele>790.25</ele><time>2026-04-06T10:56:55Z</time></trkpt><trkpt lat="43.633660032649296" lon="2.757134914807456"><ele>786.5</ele><time>2026-04-06T10:56:56Z</time></trkpt><trkpt lat="43.63375651271357" lon="2.757287002168514"><ele>782.75</ele><time>2026-04-06T10:56:57Z</time></trkpt><trkpt lat="43.633843562588694" lon="2.7574520491448777"><ele>779.0</ele><time>2026-04-06T10:56:58Z</time></trkpt><trkpt lat="43.633911267923274" lon="2.757646359058847"><ele>782.0</ele><time>2026-04-06T10:56:59Z</time></trkpt><trkpt lat="43.63398688442171" lon="2.7578278423543456"><ele>785.0</ele><time>2026-04-06T10:57:00Z</time></trkpt><trkpt lat="43.63407350190208" lon="2.7580134022334524"><ele>788.0</ele><time>2026-04-06T10:57:01Z</time></trkpt><trkpt lat="43.6341370294772" lon="2.7582156644336964"><ele>788.0</ele><time>2026-04-06T10:57:02Z</time></trkpt><trkpt lat="43.634169421491116" lon="2.7584286893674776"><ele>788.0</ele><time>2026-04-06T10:57:03Z</time></trkpt><trkpt lat="43.634188815425254" lon="2.758637086232087"><ele>788.0</ele><time>2026-04-06T10:57:04Z</time></trkpt><trkpt lat="43.634173063541816" lon="2.7588531452590117"><ele>788.3333333333334</ele><time>2026-04-06T10:57:05Z</time></trkpt><trkpt lat="43.6341300860514" lon="2.75903294591397"><ele>788.6666666666667</ele><time>2026-04-06T10:57:06Z</time></trkpt><trkpt lat="43.634048063992225" lon="2.759257520124654"><ele>789.0</ele><time>2026-04-06T10:57:07Z</time></trkpt><trkpt lat="43.6339516021657" lon="2.7594225932660654"><ele>789.5</ele><time>2026-04-06T10:57:08Z</time></trkpt><trkpt lat="43.63384725591274" lon="2.759542143304842"><ele>790.0</ele><time>2026-04-06T10:57:09Z</time></trkpt><trkpt lat="43.63373838646754" lon="2.759623898429972"><ele>790.5</ele><time>2026-04-06T10:57:10Z</time></trkpt><trkpt lat="43.6335910727763" lon="2.7596937861482465"><ele>791.0</ele><time>2026-04-06T10:57:11Z</time></trkpt><trkpt lat="43.63332991994875" lon="2.7597693556349094"><ele>791.0</ele><time>2026-04-06T10:57:12Z</time></trkpt><trkpt lat="43.63309104358025" lon="2.7598327752978116"><ele>791.0</ele><time>2026-04-06T10:57:13Z</time></trkpt><trkpt lat="43.6328759755911" lon="2.7598927679605167"><ele>793.3333333333334</ele><time>2026-04-06T10:57:14Z</time></trkpt><trkpt lat="43.63267269312365" lon="2.7599511271445674"><ele>795.6666666666667</ele><time>2026-04-06T10:57:15Z</time></trkpt><trkpt lat="43.63247087514052" lon="2.7600064861618447"><ele>798.0</ele><time>2026-04-06T10:57:16Z</time></trkpt><trkpt lat="43.63222542557871" lon="2.7600738133677507"><ele>798.0</ele><time>2026-04-06T10:57:17Z</time></trkpt><trkpt lat="43.632002064611854" lon="2.760135081664008"><ele>798.0</ele><time>2026-04-06T10:57:18Z</time></trkpt><trkpt lat="43.63177062370231" lon="2.7601985445681576"><ele>791.0</ele><time>2026-04-06T10:57:19Z</time></trkpt><trkpt lat="43.63152788278993" lon="2.7602649782899347"><ele>784.0</ele><time>2026-04-06T10:57:20Z</time></trkpt><trkpt lat="43.63131633689794" lon="2.76033635859167"><ele>785.6666666666666</ele><time>2026-04-06T10:57:21Z</time></trkpt><trkpt lat="43.63110700594547" lon="2.760397396771801"><ele>787.3333333333333</ele><time>2026-04-06T10:57:22Z</time></trkpt><trkpt lat="43.63090482793564" lon="2.7604567381733496"><ele>789.0</ele><time>2026-04-06T10:57:23Z</time></trkpt><trkpt lat="43.630716049791076" lon="2.7605059813132375"><ele>789.0</ele><time>2026-04-06T10:57:24Z</time></trkpt><trkpt lat="43.63054458494042" lon="2.760546623336189"><ele>789.0</ele><time>2026-04-06T10:57:25Z</time></trkpt><trkpt lat="43.63038655139555" lon="2.7605900117541013"><ele>789.0</ele><time>2026-04-06T10:57:26Z</time></trkpt><trkpt lat="43.630247453978164" lon="2.7606358807798714"><ele>790.25</ele><time>2026-04-06T10:57:27Z</time></trkpt><trkpt lat="43.63012753788278" lon="2.760726207440247"><ele>791.5</ele><time>2026-04-06T10:57:28Z</time></trkpt><trkpt lat="43.630039370569826" lon="2.7608722595113577"><ele>792.75</ele><time>2026-04-06T10:57:29Z</time></trkpt><trkpt lat="43.62998739938657" lon="2.761053299695602"><ele>794.0</ele><time>2026-04-06T10:57:30Z</time></trkpt><trkpt lat="43.629979038651946" lon="2.761249356926989"><ele>793.0</ele><time>2026-04-06T10:57:31Z</time></trkpt><trkpt lat="43.63001962927077" lon="2.761440446420793"><ele>792.0</ele><time>2026-04-06T10:57:32Z</time></trkpt><trkpt lat="43.63010459923242" lon="2.7615979386675935"><ele>791.0</ele><time>2026-04-06T10:57:33Z</time></trkpt><trkpt lat="43.63021689160551" lon="2.76171257720921"><ele>790.0</ele><time>2026-04-06T10:57:34Z</time></trkpt><trkpt lat="43.630357043333674" lon="2.761779891335128"><ele>790.0</ele><time>2026-04-06T10:57:35Z</time></trkpt><trkpt lat="43.63051059728899" lon="2.7618071945159315"><ele>790.0</ele><time>2026-04-06T10:57:36Z</time></trkpt><trkpt lat="43.630662551235105" lon="2.761817757952745"><ele>790.0</ele><time>2026-04-06T10:57:37Z</time></trkpt><trkpt lat="43.63082102078062" lon="2.761848268382392"><ele>795.3333333333333</ele><time>2026-04-06T10:57:38Z</time></trkpt><trkpt lat="43.63099078095007" lon="2.7618709830145893"><ele>800.6666666666667</ele><time>2026-04-06T10:57:39Z</time></trkpt><trkpt lat="43.631178324739594" lon="2.761868025226856"><ele>806.0</ele><time>2026-04-06T10:57:40Z</time></trkpt><trkpt lat="43.631347697203594" lon="2.7618828870369607"><ele>806.0</ele><time>2026-04-06T10:57:41Z</time></trkpt><trkpt lat="43.63150826248283" lon="2.761904000469989"><ele>806.0</ele><time>2026-04-06T10:57:42Z</time></trkpt><trkpt lat="43.631667287176214" lon="2.761928408414103"><ele>806.0</ele><time>2026-04-06T10:57:43Z</time></trkpt><trkpt lat="43.63181765517855" lon="2.761950709115765"><ele>804.75</ele><time>2026-04-06T10:57:44Z</time></trkpt><trkpt lat="43.6319797303243" lon="2.762003476086633"><ele>803.5</ele><time>2026-04-06T10:57:45Z</time></trkpt><trkpt lat="43.63209619431312" lon="2.7620870690024395"><ele>802.25</ele><time>2026-04-06T10:57:46Z</time></trkpt><trkpt lat="43.63220769135359" lon="2.7622041846315057"><ele>801.0</ele><time>2026-04-06T10:57:47Z</time></trkpt><trkpt lat="43.63230472558556" lon="2.7623548396924695"><ele>801.0</ele><time>2026-04-06T10:57:48Z</time></trkpt><trkpt lat="43.6323660163514" lon="2.762533165951169"><ele>801.0</ele><time>2026-04-06T10:57:49Z</time></trkpt><trkpt lat="43.6324014164712" lon="2.76274377554869"><ele>801.0</ele><time>2026-04-06T10:57:50Z</time></trkpt><trkpt lat="43.63242825344391" lon="2.7629600740339155"><ele>804.6666666666667</ele><time>2026-04-06T10:57:51Z</time></trkpt><trkpt lat="43.6324509053364" lon="2.763170588218723"><ele>808.3333333333334</ele><time>2026-04-06T10:57:52Z</time></trkpt><trkpt lat="43.63249188279942" lon="2.763382947395108"><ele>812.0</ele><time>2026-04-06T10:57:53Z</time></trkpt><trkpt lat="43.632526328059626" lon="2.7635882023610336"><ele>814.0</ele><time>2026-04-06T10:57:54Z</time></trkpt><trkpt lat="43.63257187214659" lon="2.763786523677516"><ele>816.0</ele><time>2026-04-06T10:57:55Z</time></trkpt><trkpt lat="43.63265261005439" lon="2.763966936993229"><ele>818.0</ele><time>2026-04-06T10:57:56Z</time></trkpt><trkpt lat="43.63275101064531" lon="2.7641291649463904"><ele>815.6666666666667</ele><time>2026-04-06T10:57:57Z</time></trkpt><trkpt lat="43.632868564757636" lon="2.764248590269182"><ele>813.3333333333333</ele><time>2026-04-06T10:57:58Z</time></trkpt><trkpt lat="43.63299532159798" lon="2.7643625446592006"><ele>811.0</ele><time>2026-04-06T10:57:59Z</time></trkpt><trkpt lat="43.63313095748752" lon="2.7644616272837865"><ele>815.6666666666666</ele><time>2026-04-06T10:58:00Z</time></trkpt><trkpt lat="43.63327626229728" lon="2.7645547307600826"><ele>820.3333333333333</ele><time>2026-04-06T10:58:01Z</time></trkpt><trkpt lat="43.633418773508446" lon="2.764647205472947"><ele>825.0</ele><time>2026-04-06T10:58:02Z</time></trkpt><trkpt lat="43.633558492477725" lon="2.764724218531289"><ele>825.6666666666667</ele><time>2026-04-06T10:58:03Z</time></trkpt><trkpt lat="43.63369426707919" lon="2.764811847183541"><ele>826.3333333333334</ele><time>2026-04-06T10:58:04Z</time></trkpt><trkpt lat="43.63383001058753" lon="2.7648994484240768"><ele>827.0</ele><time>2026-04-06T10:58:05Z</time></trkpt><trkpt lat="43.633967747029715" lon="2.7649830400332687"><ele>827.0</ele><time>2026-04-06T10:58:06Z</time></trkpt><trkpt lat="43.63410273543081" lon="2.7650757807474027"><ele>827.0</ele><time>2026-04-06T10:58:07Z</time></trkpt><trkpt lat="43.634207977070275" lon="2.765201217335635"><ele>827.0</ele><time>2026-04-06T10:58:08Z</time></trkpt><trkpt lat="43.63429440720756" lon="2.7653411271523205"><ele>827.0</ele><time>2026-04-06T10:58:09Z</time></trkpt><trkpt lat="43.6343572769993" lon="2.7655047295958863"><ele>826.75</ele><time>2026-04-06T10:58:10Z</time></trkpt><trkpt lat="43.634419268721345" lon="2.7656832785395498"><ele>826.5</ele><time>2026-04-06T10:58:11Z</time></trkpt><trkpt lat="43.63443266802985" lon="2.76586750968534"><ele>826.25</ele><time>2026-04-06T10:58:12Z</time></trkpt><trkpt lat="43.63442642551113" lon="2.766054669400678"><ele>826.0</ele><time>2026-04-06T10:58:13Z</time></trkpt><trkpt lat="43.63438519468836" lon="2.766230323141121"><ele>824.75</ele><time>2026-04-06T10:58:14Z</time></trkpt><trkpt lat="43.63435381751233" lon="2.7664291673715455"><ele>823.5</ele><time>2026-04-06T10:58:15Z</time></trkpt><trkpt lat="43.634304462975535" lon="2.7666190811237414"><ele>822.25</ele><time>2026-04-06T10:58:16Z</time></trkpt><trkpt lat="43.63426029668704" lon="2.766799578373006"><ele>821.0</ele><time>2026-04-06T10:58:17Z</time></trkpt><trkpt lat="43.63420991939189" lon="2.766963739439332"><ele>818.75</ele><time>2026-04-06T10:58:18Z</time></trkpt><trkpt lat="43.634155567976485" lon="2.767116051076128"><ele>816.5</ele><time>2026-04-06T10:58:19Z</time></trkpt><trkpt lat="43.63409677073945" lon="2.7672577767846698"><ele>814.25</ele><time>2026-04-06T10:58:20Z</time></trkpt><trkpt lat="43.63402572263722" lon="2.767387221209742"><ele>812.0</ele><time>2026-04-06T10:58:21Z</time></trkpt><trkpt lat="43.63394651544535" lon="2.767510501307091"><ele>812.0</ele><time>2026-04-06T10:58:22Z</time></trkpt><trkpt lat="43.63386275324707" lon="2.767613280005014"><ele>812.0</ele><time>2026-04-06T10:58:23Z</time></trkpt><trkpt lat="43.633767939795305" lon="2.7677169990423343"><ele>812.0</ele><time>2026-04-06T10:58:24Z</time></trkpt><trkpt lat="43.63367422324982" lon="2.767808589522563"><ele>812.0</ele><time>2026-04-06T10:58:25Z</time></trkpt><trkpt lat="43.63358890652589" lon="2.767884764863142"><ele>812.0</ele><time>2026-04-06T10:58:26Z</time></trkpt><trkpt lat="43.63352329339181" lon="2.7679427664783818"><ele>812.6</ele><time>2026-04-06T10:58:27Z</time></trkpt><trkpt lat="43.633441219940316" lon="2.7680318931104066"><ele>813.2</ele><time>2026-04-06T10:58:29Z</time></trkpt><trkpt lat="43.63339497382402" lon="2.768092340822855"><ele>813.8</ele><time>2026-04-06T10:58:32Z</time></trkpt><trkpt lat="43.63349005869338" lon="2.7681687674347275"><ele>814.4</ele><time>2026-04-06T10:58:36Z</time></trkpt><trkpt lat="43.63359955650604" lon="2.7681627479717883"><ele>815.0</ele><time>2026-04-06T10:58:38Z</time></trkpt><trkpt lat="43.63370936419266" lon="2.7681634910408928"><ele>811.8</ele><time>2026-04-06T10:58:40Z</time></trkpt><trkpt lat="43.633863245163326" lon="2.7681775476172192"><ele>808.6</ele><time>2026-04-06T10:58:43Z</time></trkpt><trkpt lat="43.63393848154323" lon="2.7682061938886733"><ele>805.4000000000001</ele><time>2026-04-06T10:58:45Z</time></trkpt><trkpt lat="43.634003145195884" lon="2.7682297843217762"><ele>802.2</ele><time>2026-04-06T10:58:47Z</time></trkpt><trkpt lat="43.63406942459322" lon="2.768295063817934"><ele>799.0</ele><time>2026-04-06T10:58:52Z</time></trkpt><trkpt lat="43.63399822630397" lon="2.76822801249178"><ele>799.0</ele><time>2026-04-06T11:01:31.999Z</time></trkpt><trkpt lat="43.63391495014357" lon="2.7682025862230004"><ele>799.0</ele><time>2026-04-06T11:01:33.999Z</time></trkpt><trkpt lat="43.63380541511808" lon="2.768186729424885"><ele>799.0</ele><time>2026-04-06T11:01:35.999Z</time></trkpt><trkpt lat="43.63369258663483" lon="2.768175698132764"><ele>799.0</ele><time>2026-04-06T11:01:37.999Z</time></trkpt><trkpt lat="43.63357992119812" lon="2.768170767799616"><ele>799.0</ele><time>2026-04-06T11:01:39.999Z</time></trkpt><trkpt lat="43.63349461526806" lon="2.7681712212410066"><ele>799.0</ele><time>2026-04-06T11:01:41.999Z</time></trkpt><trkpt lat="43.63342132780182" lon="2.7681724390183686"><ele>799.0</ele><time>2026-04-06T11:01:43.999Z</time></trkpt><trkpt lat="43.633502391274675" lon="2.768170984745011"><ele>799.0</ele><time>2026-04-06T11:01:47.999Z</time></trkpt><trkpt lat="43.63388875887193" lon="2.7681336351109262"><ele>799.0</ele><time>2026-04-06T11:01:53.999Z</time></trkpt><trkpt lat="43.634430188689194" lon="2.767839225567979"><ele>797.75</ele><time>2026-04-06T11:01:55Z</time></trkpt><trkpt lat="43.6344928156579" lon="2.7677427056912185"><ele>796.5</ele><time>2026-04-06T11:01:56Z</time></trkpt><trkpt lat="43.63454766109511" lon="2.7676662961726306"><ele>795.25</ele><time>2026-04-06T11:01:57Z</time></trkpt><trkpt lat="43.63462868033421" lon="2.7675559345785885"><ele>794.0</ele><time>2026-04-06T11:01:58Z</time></trkpt><trkpt lat="43.63476808717161" lon="2.767285896678536"><ele>794.0</ele><time>2026-04-06T11:01:59Z</time></trkpt><trkpt lat="43.6348571942145" lon="2.767109036061636"><ele>794.0</ele><time>2026-04-06T11:02:01Z</time></trkpt><trkpt lat="43.6348929258259" lon="2.766946781378042"><ele>794.0</ele><time>2026-04-06T11:02:02Z</time></trkpt><trkpt lat="43.634433715477506" lon="2.7661618243253563"><ele>800.4000000000001</ele><time>2026-04-06T11:02:04Z</time></trkpt><trkpt lat="43.63445603383252" lon="2.766017392437601"><ele>806.8</ele><time>2026-04-06T11:02:05Z</time></trkpt><trkpt lat="43.63446254325253" lon="2.765887969995051"><ele>813.2</ele><time>2026-04-06T11:02:06Z</time></trkpt><trkpt lat="43.634454697751316" lon="2.7657720701643997"><ele>819.5999999999999</ele><time>2026-04-06T11:02:07Z</time></trkpt><trkpt lat="43.63443641306296" lon="2.765656954762375"><ele>826.0</ele><time>2026-04-06T11:02:08Z</time></trkpt><trkpt lat="43.6344070683738" lon="2.76554192755251"><ele>826.0</ele><time>2026-04-06T11:02:09Z</time></trkpt><trkpt lat="43.63436750276366" lon="2.765421851364281"><ele>826.0</ele><time>2026-04-06T11:02:10Z</time></trkpt><trkpt lat="43.634314187791624" lon="2.7653092159096047"><ele>826.0</ele><time>2026-04-06T11:02:11Z</time></trkpt><trkpt lat="43.63425459227127" lon="2.765214176768465"><ele>826.0</ele><time>2026-04-06T11:02:12Z</time></trkpt><trkpt lat="43.63418563311094" lon="2.7651325330991208"><ele>826.0</ele><time>2026-04-06T11:02:13Z</time></trkpt><trkpt lat="43.63411866944649" lon="2.7650739804256745"><ele>826.1666666666666</ele><time>2026-04-06T11:02:14Z</time></trkpt><trkpt lat="43.63406797073413" lon="2.7650162307409896"><ele>826.3333333333333</ele><time>2026-04-06T11:02:15Z</time></trkpt><trkpt lat="43.63399054168263" lon="2.764961722916336"><ele>826.5</ele><time>2026-04-06T11:02:17Z</time></trkpt><trkpt lat="43.63392458211733" lon="2.76492032479467"><ele>826.6666666666667</ele><time>2026-04-06T11:02:20Z</time></trkpt><trkpt lat="43.63385946687525" lon="2.7649012158932798"><ele>826.8333333333334</ele><time>2026-04-06T11:02:22Z</time></trkpt><trkpt lat="43.63377121242329" lon="2.764836285089424"><ele>827.0</ele><time>2026-04-06T11:02:24Z</time></trkpt><trkpt lat="43.633712325386426" lon="2.7647929217624707"><ele>827.0</ele><time>2026-04-06T11:02:25Z</time></trkpt><trkpt lat="43.63365125655855" lon="2.7647526245604626"><ele>827.0</ele><time>2026-04-06T11:02:26Z</time></trkpt><trkpt lat="43.633585989958085" lon="2.7647055057021293"><ele>827.0</ele><time>2026-04-06T11:02:27Z</time></trkpt><trkpt lat="43.633519026486574" lon="2.7646601903145243"><ele>827.0</ele><time>2026-04-06T11:02:28Z</time></trkpt><trkpt lat="43.63345483984205" lon="2.764614491487442"><ele>827.0</ele><time>2026-04-06T11:02:29Z</time></trkpt><trkpt lat="43.6333898180531" lon="2.764572010990429"><ele>827.0</ele><time>2026-04-06T11:02:30Z</time></trkpt><trkpt lat="43.633322904505135" lon="2.7645326373719943"><ele>827.0</ele><time>2026-04-06T11:02:31Z</time></trkpt><trkpt lat="43.633257763555804" lon="2.764491663108946"><ele>826.7142857142858</ele><time>2026-04-06T11:02:32Z</time></trkpt><trkpt lat="43.63319488946894" lon="2.764450289482543"><ele>826.4285714285713</ele><time>2026-04-06T11:02:33Z</time></trkpt><trkpt lat="43.63313404214477" lon="2.7644109726677613"><ele>826.1428571428571</ele><time>2026-04-06T11:02:34Z</time></trkpt><trkpt lat="43.63307412192024" lon="2.764369352079919"><ele>825.8571428571429</ele><time>2026-04-06T11:02:35Z</time></trkpt><trkpt lat="43.63301432818285" lon="2.764324579799457"><ele>825.5714285714287</ele><time>2026-04-06T11:02:36Z</time></trkpt><trkpt lat="43.63295512051349" lon="2.7642725361780642"><ele>825.2857142857142</ele><time>2026-04-06T11:02:37Z</time></trkpt><trkpt lat="43.6328995619179" lon="2.764221786128254"><ele>825.0</ele><time>2026-04-06T11:02:38Z</time></trkpt><trkpt lat="43.63284321144273" lon="2.764170634452963"><ele>823.6</ele><time>2026-04-06T11:02:39Z</time></trkpt><trkpt lat="43.632787863597166" lon="2.7641147829604034"><ele>822.2</ele><time>2026-04-06T11:02:40Z</time></trkpt><trkpt lat="43.63270812837238" lon="2.7639805224334415"><ele>820.8</ele><time>2026-04-06T11:02:42Z</time></trkpt><trkpt lat="43.63265883009172" lon="2.7638948906443943"><ele>819.4</ele><time>2026-04-06T11:02:43Z</time></trkpt><trkpt lat="43.63261823788754" lon="2.7637930868468596"><ele>818.0</ele><time>2026-04-06T11:02:44Z</time></trkpt><trkpt lat="43.63256813133077" lon="2.7636818156770633"><ele>818.0</ele><time>2026-04-06T11:02:45Z</time></trkpt><trkpt lat="43.6325301324921" lon="2.7635608003162084"><ele>818.0</ele><time>2026-04-06T11:02:46Z</time></trkpt><trkpt lat="43.6324994905657" lon="2.7634212520886012"><ele>818.0</ele><time>2026-04-06T11:02:47Z</time></trkpt><trkpt lat="43.63248226493149" lon="2.763277523242497"><ele>818.0</ele><time>2026-04-06T11:02:48Z</time></trkpt><trkpt lat="43.63247037792219" lon="2.7631338085296577"><ele>818.0</ele><time>2026-04-06T11:02:49Z</time></trkpt><trkpt lat="43.63245729942747" lon="2.7629942950655595"><ele>816.8</ele><time>2026-04-06T11:02:50Z</time></trkpt><trkpt lat="43.63243944780373" lon="2.7628607625388266"><ele>815.5999999999999</ele><time>2026-04-06T11:02:51Z</time></trkpt><trkpt lat="43.63242084439264" lon="2.7627324513582843"><ele>814.4000000000001</ele><time>2026-04-06T11:02:52Z</time></trkpt><trkpt lat="43.632413469358454" lon="2.762595210169183"><ele>813.2</ele><time>2026-04-06T11:02:53Z</time></trkpt><trkpt lat="43.63238293220369" lon="2.7624707351116675"><ele>812.0</ele><time>2026-04-06T11:02:54Z</time></trkpt><trkpt lat="43.632340520076816" lon="2.7623556006700487"><ele>811.0000000000001</ele><time>2026-04-06T11:02:55Z</time></trkpt><trkpt lat="43.63229196021048" lon="2.762253338700364"><ele>810.0</ele><time>2026-04-06T11:02:56Z</time></trkpt><trkpt lat="43.63221828597428" lon="2.7621844708730023"><ele>809.0</ele><time>2026-04-06T11:02:57Z</time></trkpt><trkpt lat="43.63215453278183" lon="2.7621063764379223"><ele>808.0</ele><time>2026-04-06T11:02:58Z</time></trkpt><trkpt lat="43.63208645855293" lon="2.7620438909819933"><ele>807.0000000000001</ele><time>2026-04-06T11:02:59Z</time></trkpt><trkpt lat="43.63201435364788" lon="2.76197603144174"><ele>806.0</ele><time>2026-04-06T11:03:00Z</time></trkpt><trkpt lat="43.63192914750152" lon="2.761935164422339"><ele>806.0000000000001</ele><time>2026-04-06T11:03:01Z</time></trkpt><trkpt lat="43.631841145801346" lon="2.7619157518082873"><ele>806.0</ele><time>2026-04-06T11:03:02Z</time></trkpt><trkpt lat="43.63175579041513" lon="2.7618993264302865"><ele>806.0</ele><time>2026-04-06T11:03:03Z</time></trkpt><trkpt lat="43.631672482560525" lon="2.7618861518483793"><ele>806.0</ele><time>2026-04-06T11:03:04Z</time></trkpt><trkpt lat="43.63158745364731" lon="2.761898628656808"><ele>806.0000000000001</ele><time>2026-04-06T11:03:05Z</time></trkpt><trkpt lat="43.63150191120968" lon="2.7618750900840725"><ele>806.0</ele><time>2026-04-06T11:03:06Z</time></trkpt><trkpt lat="43.63141744366636" lon="2.7618656122454976"><ele>803.0</ele><time>2026-04-06T11:03:07Z</time></trkpt><trkpt lat="43.63133087337928" lon="2.761859258083048"><ele>800.0</ele><time>2026-04-06T11:03:08Z</time></trkpt><trkpt lat="43.631237977275845" lon="2.7618523919634415"><ele>797.0</ele><time>2026-04-06T11:03:09Z</time></trkpt><trkpt lat="43.631149010541534" lon="2.7618397830653567"><ele>794.0</ele><time>2026-04-06T11:03:10Z</time></trkpt><trkpt lat="43.63105268371505" lon="2.7618243334961328"><ele>791.0</ele><time>2026-04-06T11:03:11Z</time></trkpt><trkpt lat="43.63095335253004" lon="2.761805373716803"><ele>790.8</ele><time>2026-04-06T11:03:12Z</time></trkpt><trkpt lat="43.63085759349288" lon="2.761790792473584"><ele>790.5999999999999</ele><time>2026-04-06T11:03:13Z</time></trkpt><trkpt lat="43.63075361690881" lon="2.7617798237373075"><ele>790.4</ele><time>2026-04-06T11:03:14Z</time></trkpt><trkpt lat="43.630651577201576" lon="2.7617645399123503"><ele>790.2</ele><time>2026-04-06T11:03:15Z</time></trkpt><trkpt lat="43.630549699523044" lon="2.7617535941664557"><ele>790.0</ele><time>2026-04-06T11:03:16Z</time></trkpt><trkpt lat="43.63045205121603" lon="2.761737219807767"><ele>790.0</ele><time>2026-04-06T11:03:17Z</time></trkpt><trkpt lat="43.63035819584109" lon="2.7617052011721808"><ele>790.0</ele><time>2026-04-06T11:03:18Z</time></trkpt><trkpt lat="43.63027182600668" lon="2.7616657761101155"><ele>790.0</ele><time>2026-04-06T11:03:19Z</time></trkpt><trkpt lat="43.63019455177406" lon="2.7615961821546957"><ele>790.0</ele><time>2026-04-06T11:03:20Z</time></trkpt><trkpt lat="43.63013374349721" lon="2.7615051537932778"><ele>790.0</ele><time>2026-04-06T11:03:21Z</time></trkpt><trkpt lat="43.630088701897535" lon="2.761387684717616"><ele>790.6666666666666</ele><time>2026-04-06T11:03:22Z</time></trkpt><trkpt lat="43.63006734706785" lon="2.7612760494796156"><ele>791.3333333333333</ele><time>2026-04-06T11:03:23Z</time></trkpt><trkpt lat="43.63004393572825" lon="2.7611629883447444"><ele>792.0</ele><time>2026-04-06T11:03:24Z</time></trkpt><trkpt lat="43.6300559707143" lon="2.7610555359834597"><ele>792.6666666666667</ele><time>2026-04-06T11:03:25Z</time></trkpt><trkpt lat="43.630076524369" lon="2.7609582029350217"><ele>793.3333333333334</ele><time>2026-04-06T11:03:26Z</time></trkpt><trkpt lat="43.630108998421115" lon="2.7608709860692473"><ele>794.0</ele><time>2026-04-06T11:03:27Z</time></trkpt><trkpt lat="43.630161899912196" lon="2.7607911267787144"><ele>794.0000000000001</ele><time>2026-04-06T11:03:28Z</time></trkpt><trkpt lat="43.630218011478696" lon="2.7607223984875624"><ele>794.0</ele><time>2026-04-06T11:03:29Z</time></trkpt><trkpt lat="43.63029021816964" lon="2.7606702501253437"><ele>794.0</ele><time>2026-04-06T11:03:30Z</time></trkpt><trkpt lat="43.63037172573343" lon="2.760627214734983"><ele>794.0</ele><time>2026-04-06T11:03:31Z</time></trkpt><trkpt lat="43.63045141409254" lon="2.760606364434736"><ele>794.0000000000001</ele><time>2026-04-06T11:03:32Z</time></trkpt><trkpt lat="43.63053573439557" lon="2.760581979210704"><ele>794.0</ele><time>2026-04-06T11:03:33Z</time></trkpt><trkpt lat="43.63061567681184" lon="2.760562952126505"><ele>793.1666666666667</ele><time>2026-04-06T11:03:34Z</time></trkpt><trkpt lat="43.63069706932795" lon="2.7605428639299157"><ele>792.3333333333334</ele><time>2026-04-06T11:03:35Z</time></trkpt><trkpt lat="43.630776112694626" lon="2.7605229733200316"><ele>791.5</ele><time>2026-04-06T11:03:36Z</time></trkpt><trkpt lat="43.63084781999872" lon="2.7605008874620256"><ele>790.6666666666667</ele><time>2026-04-06T11:03:37Z</time></trkpt><trkpt lat="43.630919041596506" lon="2.760476841437393"><ele>789.8333333333334</ele><time>2026-04-06T11:03:38Z</time></trkpt><trkpt lat="43.631028434143765" lon="2.760444211780228"><ele>789.0</ele><time>2026-04-06T11:03:40Z</time></trkpt><trkpt lat="43.63109223647473" lon="2.7604406609721868"><ele>789.0</ele><time>2026-04-06T11:03:42Z</time></trkpt><trkpt lat="43.6309677248272" lon="2.7604552806346785"><ele>789.0</ele><time>2026-04-06T11:03:50Z</time></trkpt><trkpt lat="43.630885747955816" lon="2.7604771431692066"><ele>789.0</ele><time>2026-04-06T11:03:51Z</time></trkpt><trkpt lat="43.630762059219805" lon="2.760501586374438"><ele>789.0</ele><time>2026-04-06T11:03:52Z</time></trkpt><trkpt lat="43.630613146180785" lon="2.76054351730992"><ele>789.0</ele><time>2026-04-06T11:03:53Z</time></trkpt><trkpt lat="43.630488714097716" lon="2.760577255519759"><ele>789.0</ele><time>2026-04-06T11:03:54Z</time></trkpt><trkpt lat="43.63035740182406" lon="2.7606178511760184"><ele>789.0</ele><time>2026-04-06T11:03:55Z</time></trkpt><trkpt lat="43.63023233613245" lon="2.7606630468764997"><ele>789.0</ele><time>2026-04-06T11:03:56Z</time></trkpt><trkpt lat="43.630119049495" lon="2.760742137494099"><ele>790.25</ele><time>2026-04-06T11:03:57Z</time></trkpt><trkpt lat="43.63003194308487" lon="2.7608755867336017"><ele>791.5</ele><time>2026-04-06T11:03:58Z</time></trkpt><trkpt lat="43.62997706822506" lon="2.76104048368165"><ele>792.75</ele><time>2026-04-06T11:03:59Z</time></trkpt><trkpt lat="43.62995962977291" lon="2.7612309510507127"><ele>794.0</ele><time>2026-04-06T11:04:00Z</time></trkpt><trkpt lat="43.63000881351495" lon="2.761412064849158"><ele>793.0</ele><time>2026-04-06T11:04:01Z</time></trkpt><trkpt lat="43.63006016902849" lon="2.7615808650455302"><ele>792.0</ele><time>2026-04-06T11:04:02Z</time></trkpt><trkpt lat="43.63018454513938" lon="2.761679067123225"><ele>791.0</ele><time>2026-04-06T11:04:03Z</time></trkpt><trkpt lat="43.63030595639463" lon="2.761786322594763"><ele>790.0</ele><time>2026-04-06T11:04:04Z</time></trkpt><trkpt lat="43.630462920027036" lon="2.761795840870696"><ele>790.0</ele><time>2026-04-06T11:04:05Z</time></trkpt><trkpt lat="43.630628806545026" lon="2.761840684626213"><ele>790.0</ele><time>2026-04-06T11:04:06Z</time></trkpt><trkpt lat="43.630793777642616" lon="2.761845630502367"><ele>790.0</ele><time>2026-04-06T11:04:07Z</time></trkpt><trkpt lat="43.63095233022707" lon="2.76185550452923"><ele>795.3333333333333</ele><time>2026-04-06T11:04:08Z</time></trkpt><trkpt lat="43.63111323814447" lon="2.761867306702822"><ele>800.6666666666667</ele><time>2026-04-06T11:04:09Z</time></trkpt><trkpt lat="43.63127074665683" lon="2.761890314355846"><ele>806.0</ele><time>2026-04-06T11:04:10Z</time></trkpt><trkpt lat="43.63143561498014" lon="2.761910213974877"><ele>806.0</ele><time>2026-04-06T11:04:11Z</time></trkpt><trkpt lat="43.63159619142865" lon="2.7619332575565267"><ele>806.0</ele><time>2026-04-06T11:04:12Z</time></trkpt><trkpt lat="43.63175199587497" lon="2.7619457334868476"><ele>806.0</ele><time>2026-04-06T11:04:13Z</time></trkpt><trkpt lat="43.63190878814087" lon="2.761969964312096"><ele>804.3333333333334</ele><time>2026-04-06T11:04:14Z</time></trkpt><trkpt lat="43.63205505616184" lon="2.762056911233209"><ele>802.6666666666667</ele><time>2026-04-06T11:04:15Z</time></trkpt><trkpt lat="43.63217822699595" lon="2.7621730416415344"><ele>801.0</ele><time>2026-04-06T11:04:16Z</time></trkpt><trkpt lat="43.63228142904259" lon="2.762311095338178"><ele>801.0</ele><time>2026-04-06T11:04:17Z</time></trkpt><trkpt lat="43.63234884262629" lon="2.762466125409839"><ele>801.0</ele><time>2026-04-06T11:04:18Z</time></trkpt><trkpt lat="43.632398403272134" lon="2.762638138738001"><ele>801.0</ele><time>2026-04-06T11:04:19Z</time></trkpt><trkpt lat="43.632411105490505" lon="2.762816979485463"><ele>801.0</ele><time>2026-04-06T11:04:20Z</time></trkpt><trkpt lat="43.63243435941513" lon="2.763010059388675"><ele>804.6666666666667</ele><time>2026-04-06T11:04:21Z</time></trkpt><trkpt lat="43.632464604107454" lon="2.7633004069989853"><ele>808.3333333333334</ele><time>2026-04-06T11:04:22Z</time></trkpt><trkpt lat="43.632502946645936" lon="2.763540204533787"><ele>812.0</ele><time>2026-04-06T11:04:23Z</time></trkpt><trkpt lat="43.632566850650754" lon="2.763772063105305"><ele>811.6666666666667</ele><time>2026-04-06T11:04:24Z</time></trkpt><trkpt lat="43.63265622838734" lon="2.7639745897465438"><ele>811.3333333333333</ele><time>2026-04-06T11:04:25Z</time></trkpt><trkpt lat="43.632772935479686" lon="2.7641577484966717"><ele>811.0</ele><time>2026-04-06T11:04:26Z</time></trkpt><trkpt lat="43.63291775518877" lon="2.764313689372658"><ele>815.6666666666666</ele><time>2026-04-06T11:04:27Z</time></trkpt><trkpt lat="43.633073817546595" lon="2.7644332692584865"><ele>820.3333333333333</ele><time>2026-04-06T11:04:28Z</time></trkpt><trkpt lat="43.63323363847653" lon="2.764539668902606"><ele>825.0</ele><time>2026-04-06T11:04:29Z</time></trkpt><trkpt lat="43.63337788202519" lon="2.764629988051295"><ele>825.0</ele><time>2026-04-06T11:04:30Z</time></trkpt><trkpt lat="43.63351877703851" lon="2.7647168825881043"><ele>825.0</ele><time>2026-04-06T11:04:31Z</time></trkpt><trkpt lat="43.633659489560685" lon="2.764801646210899"><ele>825.0</ele><time>2026-04-06T11:04:32Z</time></trkpt><trkpt lat="43.63379271119233" lon="2.7648577714510094"><ele>825.0</ele><time>2026-04-06T11:04:33Z</time></trkpt><trkpt lat="43.63389829037114" lon="2.764956410308032"><ele>825.2</ele><time>2026-04-06T11:04:34Z</time></trkpt><trkpt lat="43.63400472552772" lon="2.7650197095988265"><ele>825.4</ele><time>2026-04-06T11:04:35Z</time></trkpt><trkpt lat="43.63409301129939" lon="2.7650870039770865"><ele>825.5999999999999</ele><time>2026-04-06T11:04:36Z</time></trkpt><trkpt lat="43.63417091354233" lon="2.7651577509752956"><ele>825.8</ele><time>2026-04-06T11:04:37Z</time></trkpt><trkpt lat="43.63423037100933" lon="2.7652324658428302"><ele>826.0</ele><time>2026-04-06T11:04:38Z</time></trkpt><trkpt lat="43.63428011672836" lon="2.765316965245816"><ele>825.9999999999999</ele><time>2026-04-06T11:04:39Z</time></trkpt><trkpt lat="43.63432128819997" lon="2.7654084616161487"><ele>826.0</ele><time>2026-04-06T11:04:40Z</time></trkpt><trkpt lat="43.634366475073556" lon="2.765531597724559"><ele>826.0</ele><time>2026-04-06T11:04:42Z</time></trkpt><trkpt lat="43.634398151211855" lon="2.7656379446183195"><ele>826.0</ele><time>2026-04-06T11:04:44Z</time></trkpt><trkpt lat="43.63441621340505" lon="2.7657229181897582"><ele>825.9999999999999</ele><time>2026-04-06T11:04:46Z</time></trkpt><trkpt lat="43.63443029692222" lon="2.765815908922207"><ele>826.0</ele><time>2026-04-06T11:04:48.001Z</time></trkpt><trkpt lat="43.634446532858824" lon="2.7659596166863096"><ele>825.1666666666666</ele><time>2026-04-06T11:04:50.001Z</time></trkpt><trkpt lat="43.634421428939426" lon="2.7660503634661695"><ele>824.3333333333333</ele><time>2026-04-06T11:04:51.001Z</time></trkpt><trkpt lat="43.634403157117724" lon="2.7661484058253514"><ele>823.5</ele><time>2026-04-06T11:04:52.001Z</time></trkpt><trkpt lat="43.6343805220097" lon="2.766251116841028"><ele>822.6666666666667</ele><time>2026-04-06T11:04:53.001Z</time></trkpt><trkpt lat="43.63437001610072" lon="2.766359343653719"><ele>821.8333333333334</ele><time>2026-04-06T11:04:54.001Z</time></trkpt><trkpt lat="43.63433081750735" lon="2.7664711613266477"><ele>821.0</ele><time>2026-04-06T11:04:55.001Z</time></trkpt><trkpt lat="43.63431532699813" lon="2.7665934516250834"><ele>821.0</ele><time>2026-04-06T11:04:56.001Z</time></trkpt><trkpt lat="43.63426981558425" lon="2.7667114911232966"><ele>821.0</ele><time>2026-04-06T11:04:57.001Z</time></trkpt><trkpt lat="43.63423372196259" lon="2.7668421216416808"><ele>821.0</ele><time>2026-04-06T11:04:58.001Z</time></trkpt><trkpt lat="43.63419313618262" lon="2.7669721752691587"><ele>821.0</ele><time>2026-04-06T11:04:59.001Z</time></trkpt><trkpt lat="43.634148548826744" lon="2.7671022102858633"><ele>821.0</ele><time>2026-04-06T11:05:00.001Z</time></trkpt><trkpt lat="43.63409431447972" lon="2.767230530502889"><ele>819.1999999999999</ele><time>2026-04-06T11:05:01.001Z</time></trkpt><trkpt lat="43.63404766272154" lon="2.767362839616533"><ele>817.4</ele><time>2026-04-06T11:05:02.001Z</time></trkpt><trkpt lat="43.633973930995914" lon="2.767481859823479"><ele>815.6</ele><time>2026-04-06T11:05:03.001Z</time></trkpt><trkpt lat="43.63389744185664" lon="2.767584561320103"><ele>813.8</ele><time>2026-04-06T11:05:04.001Z</time></trkpt><trkpt lat="43.63380931050357" lon="2.7676904182104605"><ele>812.0</ele><time>2026-04-06T11:05:05.001Z</time></trkpt><trkpt lat="43.63369604267892" lon="2.767774791033072"><ele>812.75</ele><time>2026-04-06T11:05:06.001Z</time></trkpt><trkpt lat="43.63360094946157" lon="2.767864791531651"><ele>813.5</ele><time>2026-04-06T11:05:07.001Z</time></trkpt><trkpt lat="43.63350693584553" lon="2.7679581357566354"><ele>814.25</ele><time>2026-04-06T11:05:08.001Z</time></trkpt><trkpt lat="43.63341136608031" lon="2.7680530251875974"><ele>815.0</ele><time>2026-04-06T11:05:09.001Z</time></trkpt><trkpt lat="43.63331361415299" lon="2.7681470583371293"><ele>815.0</ele><time>2026-04-06T11:05:10.001Z</time></trkpt><trkpt lat="43.63321248798515" lon="2.7682359025504932"><ele>815.0</ele><time>2026-04-06T11:05:11.001Z</time></trkpt><trkpt lat="43.63311433645411" lon="2.768317016621109"><ele>815.0</ele><time>2026-04-06T11:05:12.001Z</time></trkpt><trkpt lat="43.63301350904966" lon="2.7683961868670397"><ele>815.0</ele><time>2026-04-06T11:05:13.001Z</time></trkpt><trkpt lat="43.63290845954722" lon="2.76847632597496"><ele>812.8</ele><time>2026-04-06T11:05:14.001Z</time></trkpt><trkpt lat="43.632806149282885" lon="2.768553470915682"><ele>810.6</ele><time>2026-04-06T11:05:15.001Z</time></trkpt><trkpt lat="43.6327125587164" lon="2.7686480367262822"><ele>808.4000000000001</ele><time>2026-04-06T11:05:16.001Z</time></trkpt><trkpt lat="43.63261123721939" lon="2.768704430042014"><ele>806.2</ele><time>2026-04-06T11:05:17.001Z</time></trkpt><trkpt lat="43.632521582855176" lon="2.768774704096592"><ele>804.0</ele><time>2026-04-06T11:05:18.001Z</time></trkpt><trkpt lat="43.63242453042891" lon="2.7688394436676202"><ele>804.0</ele><time>2026-04-06T11:05:19.001Z</time></trkpt><trkpt lat="43.63231982923957" lon="2.768883073290584"><ele>804.0</ele><time>2026-04-06T11:05:20.001Z</time></trkpt><trkpt lat="43.632212182048605" lon="2.7689136079629457"><ele>804.0</ele><time>2026-04-06T11:05:21.001Z</time></trkpt><trkpt lat="43.63210043998871" lon="2.7688979787576775"><ele>804.0</ele><time>2026-04-06T11:05:22.001Z</time></trkpt><trkpt lat="43.63198353955811" lon="2.768880478761121"><ele>804.0</ele><time>2026-04-06T11:05:23.001Z</time></trkpt><trkpt lat="43.63186828705416" lon="2.7688804787630845"><ele>806.0</ele><time>2026-04-06T11:05:24.001Z</time></trkpt><trkpt lat="43.63175516612537" lon="2.768896654314444"><ele>808.0</ele><time>2026-04-06T11:05:25.001Z</time></trkpt><trkpt lat="43.63165474521389" lon="2.768924088777492"><ele>810.0</ele><time>2026-04-06T11:05:26.001Z</time></trkpt><trkpt lat="43.631514128857944" lon="2.769100714104678"><ele>812.0</ele><time>2026-04-06T11:05:28.001Z</time></trkpt><trkpt lat="43.63149969215626" lon="2.7692158953219246"><ele>812.0</ele><time>2026-04-06T11:05:29.001Z</time></trkpt><trkpt lat="43.6315184062698" lon="2.769319627491968"><ele>812.0</ele><time>2026-04-06T11:05:30.001Z</time></trkpt><trkpt lat="43.63156912868974" lon="2.7694117920757795"><ele>812.0</ele><time>2026-04-06T11:05:31.001Z</time></trkpt><trkpt lat="43.63163238758582" lon="2.7694773831272843"><ele>812.0</ele><time>2026-04-06T11:05:32.001Z</time></trkpt><trkpt lat="43.631665852346224" lon="2.7695575167190634"><ele>812.0</ele><time>2026-04-06T11:05:33.001Z</time></trkpt><trkpt lat="43.63168726328512" lon="2.769647197853633"><ele>812.0</ele><time>2026-04-06T11:05:34.001Z</time></trkpt><trkpt lat="43.63170458008425" lon="2.7697385919015893"><ele>812.0</ele><time>2026-04-06T11:05:35.001Z</time></trkpt><trkpt lat="43.631671022523285" lon="2.769825100772245"><ele>811.6</ele><time>2026-04-06T11:05:36.001Z</time></trkpt><trkpt lat="43.63161267158587" lon="2.769865738117921"><ele>811.2</ele><time>2026-04-06T11:05:37.001Z</time></trkpt><trkpt lat="43.63156929304834" lon="2.769957513094113"><ele>810.8</ele><time>2026-04-06T11:05:39.001Z</time></trkpt><trkpt lat="43.631561528517416" lon="2.770048708917459"><ele>810.4</ele><time>2026-04-06T11:05:42.001Z</time></trkpt><trkpt lat="43.631564603435386" lon="2.770154815046048"><ele>810.0</ele><time>2026-04-06T11:05:44.001Z</time></trkpt><trkpt lat="43.63161872365015" lon="2.769917462722159"><ele>810.0</ele><time>2026-04-06T11:06:23.001Z</time></trkpt><trkpt lat="43.63162801009276" lon="2.7700243962804145"><ele>810.0</ele><time>2026-04-06T11:06:24.001Z</time></trkpt><trkpt lat="43.63165679722849" lon="2.769928289649994"><ele>810.0</ele><time>2026-04-06T11:06:25.001Z</time></trkpt><trkpt lat="43.63168608350501" lon="2.769845480473412"><ele>810.0</ele><time>2026-04-06T11:06:26.001Z</time></trkpt><trkpt lat="43.63171416612321" lon="2.7697407136091243"><ele>810.0</ele><time>2026-04-06T11:06:27.001Z</time></trkpt><trkpt lat="43.63170278038803" lon="2.7696162590999953"><ele>810.0</ele><time>2026-04-06T11:06:28.001Z</time></trkpt><trkpt lat="43.63166910075379" lon="2.7695106056676964"><ele>810.0</ele><time>2026-04-06T11:06:29.001Z</time></trkpt><trkpt lat="43.63161720393138" lon="2.7694228475881566"><ele>810.0</ele><time>2026-04-06T11:06:30.001Z</time></trkpt><trkpt lat="43.63156008894211" lon="2.7693290775621358"><ele>810.0</ele><time>2026-04-06T11:06:31.001Z</time></trkpt><trkpt lat="43.63152506134314" lon="2.7692381921307785"><ele>810.0</ele><time>2026-04-06T11:06:32.001Z</time></trkpt><trkpt lat="43.63153746586861" lon="2.7691260451366437"><ele>810.0</ele><time>2026-04-06T11:06:33.001Z</time></trkpt><trkpt lat="43.631596977625435" lon="2.769037341302451"><ele>810.0</ele><time>2026-04-06T11:06:34.001Z</time></trkpt><trkpt lat="43.631670420788346" lon="2.7689812087019643"><ele>810.4</ele><time>2026-04-06T11:06:35.001Z</time></trkpt><trkpt lat="43.631742704194686" lon="2.7689326492464987"><ele>810.8</ele><time>2026-04-06T11:06:36.001Z</time></trkpt><trkpt lat="43.631880064157606" lon="2.7689099393000185"><ele>811.2</ele><time>2026-04-06T11:06:38.001Z</time></trkpt><trkpt lat="43.63196165592289" lon="2.768925835445348"><ele>811.6</ele><time>2026-04-06T11:06:39.001Z</time></trkpt><trkpt lat="43.63204641282346" lon="2.768933918258975"><ele>812.0</ele><time>2026-04-06T11:06:40.001Z</time></trkpt><trkpt lat="43.632131905591756" lon="2.7689325174714234"><ele>810.6666666666667</ele><time>2026-04-06T11:06:41.001Z</time></trkpt><trkpt lat="43.63221263518945" lon="2.768927279079604"><ele>809.3333333333334</ele><time>2026-04-06T11:06:42.001Z</time></trkpt><trkpt lat="43.632289681857245" lon="2.7689144682638753"><ele>808.0</ele><time>2026-04-06T11:06:43.001Z</time></trkpt><trkpt lat="43.632395361897885" lon="2.7689177542312864"><ele>806.6666666666667</ele><time>2026-04-06T11:06:45.001Z</time></trkpt><trkpt lat="43.63247503917179" lon="2.7688892963748852"><ele>805.3333333333334</ele><time>2026-04-06T11:06:48.001Z</time></trkpt><trkpt lat="43.63254125448305" lon="2.7688824438921538"><ele>804.0</ele><time>2026-04-06T11:07:49.001Z</time></trkpt><trkpt lat="43.63264763593395" lon="2.768760677195527"><ele>804.0</ele><time>2026-04-06T11:07:51.001Z</time></trkpt><trkpt lat="43.6327184243235" lon="2.7686982287102757"><ele>804.0</ele><time>2026-04-06T11:07:52.001Z</time></trkpt><trkpt lat="43.63279856483614" lon="2.7686419019473516"><ele>804.0</ele><time>2026-04-06T11:07:53.001Z</time></trkpt><trkpt lat="43.632889550130855" lon="2.768576231517327"><ele>804.0</ele><time>2026-04-06T11:07:54.001Z</time></trkpt><trkpt lat="43.63298789833783" lon="2.7685072617828292"><ele>804.0</ele><time>2026-04-06T11:07:55.001Z</time></trkpt><trkpt lat="43.63308239348899" lon="2.768433851989369"><ele>806.75</ele><time>2026-04-06T11:07:56.001Z</time></trkpt><trkpt lat="43.63318023405654" lon="2.768352400489943"><ele>809.5</ele><time>2026-04-06T11:07:57.001Z</time></trkpt><trkpt lat="43.633285349897356" lon="2.768257594457171"><ele>812.25</ele><time>2026-04-06T11:07:58.001Z</time></trkpt><trkpt lat="43.63339093894109" lon="2.7681605975935506"><ele>815.0</ele><time>2026-04-06T11:07:59.001Z</time></trkpt><trkpt lat="43.633504141914905" lon="2.768044541923961"><ele>815.0</ele><time>2026-04-06T11:08:00.001Z</time></trkpt><trkpt lat="43.633609203012035" lon="2.7679217202036104"><ele>815.0</ele><time>2026-04-06T11:08:01.001Z</time></trkpt><trkpt lat="43.63371274492128" lon="2.7678112327648097"><ele>815.0</ele><time>2026-04-06T11:08:02.001Z</time></trkpt><trkpt lat="43.63380247514957" lon="2.7677086911609106"><ele>815.0</ele><time>2026-04-06T11:08:03.001Z</time></trkpt><trkpt lat="43.63390793859495" lon="2.7676114069931"><ele>814.25</ele><time>2026-04-06T11:08:04.001Z</time></trkpt><trkpt lat="43.63400061421135" lon="2.767479534984432"><ele>813.5</ele><time>2026-04-06T11:08:05.001Z</time></trkpt><trkpt lat="43.63409112920509" lon="2.7673232652118602"><ele>812.75</ele><time>2026-04-06T11:08:06.001Z</time></trkpt><trkpt lat="43.63417876405702" lon="2.7671215121297044"><ele>812.0</ele><time>2026-04-06T11:08:07.001Z</time></trkpt><trkpt lat="43.63425405674596" lon="2.7668931555788197"><ele>815.0</ele><time>2026-04-06T11:08:08.001Z</time></trkpt><trkpt lat="43.63431662690618" lon="2.7666683244869286"><ele>818.0</ele><time>2026-04-06T11:08:09.001Z</time></trkpt><trkpt lat="43.63437318837526" lon="2.7664388572483514"><ele>821.0</ele><time>2026-04-06T11:08:10.001Z</time></trkpt><trkpt lat="43.63442080782342" lon="2.766226947654386"><ele>822.6666666666667</ele><time>2026-04-06T11:08:11.001Z</time></trkpt><trkpt lat="43.63446054156984" lon="2.7659995234572503"><ele>824.3333333333333</ele><time>2026-04-06T11:08:12.001Z</time></trkpt><trkpt lat="43.63445932581007" lon="2.765769799626269"><ele>826.0</ele><time>2026-04-06T11:08:13.001Z</time></trkpt><trkpt lat="43.63441249832857" lon="2.765546266378282"><ele>826.0</ele><time>2026-04-06T11:08:14.001Z</time></trkpt><trkpt lat="43.63432081650435" lon="2.7653580194893568"><ele>826.0</ele><time>2026-04-06T11:08:15.001Z</time></trkpt><trkpt lat="43.63423940311266" lon="2.7651774027404064"><ele>826.0</ele><time>2026-04-06T11:08:16.001Z</time></trkpt><trkpt lat="43.63413066275099" lon="2.7650140223662514"><ele>826.3333333333333</ele><time>2026-04-06T11:08:17.001Z</time></trkpt><trkpt lat="43.63399029792426" lon="2.7649323167456847"><ele>826.6666666666667</ele><time>2026-04-06T11:08:18.001Z</time></trkpt><trkpt lat="43.63384792637879" lon="2.7648462696671774"><ele>827.0</ele><time>2026-04-06T11:08:19.001Z</time></trkpt><trkpt lat="43.63370084455363" lon="2.7647532051776516"><ele>826.3333333333334</ele><time>2026-04-06T11:08:20.001Z</time></trkpt><trkpt lat="43.63353208693428" lon="2.764688826245419"><ele>825.6666666666667</ele><time>2026-04-06T11:08:21.001Z</time></trkpt><trkpt lat="43.63337160465324" lon="2.764588674396474"><ele>825.0</ele><time>2026-04-06T11:08:22.001Z</time></trkpt><trkpt lat="43.63320559670119" lon="2.7644788071983566"><ele>825.0</ele><time>2026-04-06T11:08:23.001Z</time></trkpt><trkpt lat="43.63304222242577" lon="2.7643648240750935"><ele>825.0</ele><time>2026-04-06T11:08:24.001Z</time></trkpt><trkpt lat="43.6328870436053" lon="2.7642399879020125"><ele>825.0</ele><time>2026-04-06T11:08:25.001Z</time></trkpt><trkpt lat="43.632764001765246" lon="2.7641066110280685"><ele>822.6666666666667</ele><time>2026-04-06T11:08:26.001Z</time></trkpt><trkpt lat="43.63266200991044" lon="2.763930875881955"><ele>820.3333333333334</ele><time>2026-04-06T11:08:27.001Z</time></trkpt><trkpt lat="43.632577016861894" lon="2.763747320393953"><ele>818.0</ele><time>2026-04-06T11:08:28.001Z</time></trkpt><trkpt lat="43.632536073950675" lon="2.763542510098119"><ele>816.0</ele><time>2026-04-06T11:08:29.001Z</time></trkpt><trkpt lat="43.63250227752875" lon="2.7633399598788126"><ele>814.0</ele><time>2026-04-06T11:08:30.001Z</time></trkpt><trkpt lat="43.63247937289342" lon="2.7631151079704503"><ele>812.0</ele><time>2026-04-06T11:08:31.001Z</time></trkpt><trkpt lat="43.632451350322334" lon="2.7628727401249473"><ele>808.3333333333334</ele><time>2026-04-06T11:08:32.001Z</time></trkpt><trkpt lat="43.63242008349726" lon="2.7626338437590374"><ele>804.6666666666667</ele><time>2026-04-06T11:08:33.001Z</time></trkpt><trkpt lat="43.632357899474194" lon="2.7623973918109583"><ele>801.0</ele><time>2026-04-06T11:08:34.001Z</time></trkpt><trkpt lat="43.63225273838574" lon="2.7621985453404387"><ele>801.0</ele><time>2026-04-06T11:08:35.001Z</time></trkpt><trkpt lat="43.63210439332201" lon="2.7620449532622957"><ele>801.0</ele><time>2026-04-06T11:08:36.001Z</time></trkpt><trkpt lat="43.631950621314424" lon="2.7619426040110615"><ele>801.0</ele><time>2026-04-06T11:08:37.001Z</time></trkpt><trkpt lat="43.631773232695735" lon="2.7619012784682755"><ele>802.6666666666667</ele><time>2026-04-06T11:08:38.001Z</time></trkpt><trkpt lat="43.6316092274017" lon="2.761889924635241"><ele>804.3333333333334</ele><time>2026-04-06T11:08:39.001Z</time></trkpt><trkpt lat="43.631430544909" lon="2.7618665863231646"><ele>806.0</ele><time>2026-04-06T11:08:40.001Z</time></trkpt><trkpt lat="43.63126585745667" lon="2.7618382572652638"><ele>800.6666666666667</ele><time>2026-04-06T11:08:41.001Z</time></trkpt><trkpt lat="43.63108076560664" lon="2.7618199886940515"><ele>795.3333333333333</ele><time>2026-04-06T11:08:42.001Z</time></trkpt><trkpt lat="43.63088998783012" lon="2.76179605548994"><ele>790.0</ele><time>2026-04-06T11:08:43.001Z</time></trkpt><trkpt lat="43.630705974709706" lon="2.7617660639030035"><ele>790.0</ele><time>2026-04-06T11:08:44.001Z</time></trkpt><trkpt lat="43.63052462319878" lon="2.7617474514411198"><ele>790.0</ele><time>2026-04-06T11:08:45.001Z</time></trkpt><trkpt lat="43.63035155664147" lon="2.761715237719644"><ele>790.0</ele><time>2026-04-06T11:08:46.001Z</time></trkpt><trkpt lat="43.630220475971285" lon="2.761643801853493"><ele>793.5</ele><time>2026-04-06T11:08:47.001Z</time></trkpt><trkpt lat="43.63010639256641" lon="2.761512115918699"><ele>797.0</ele><time>2026-04-06T11:08:48.001Z</time></trkpt><trkpt lat="43.63003548070243" lon="2.761371438493736"><ele>800.5</ele><time>2026-04-06T11:08:49.001Z</time></trkpt><trkpt lat="43.63002415526268" lon="2.7611855085511845"><ele>804.0</ele><time>2026-04-06T11:08:50.001Z</time></trkpt><trkpt lat="43.630032248857496" lon="2.7610568582461243"><ele>801.5</ele><time>2026-04-06T11:08:51.001Z</time></trkpt><trkpt lat="43.63007188548341" lon="2.7609018468509894"><ele>799.0</ele><time>2026-04-06T11:08:52.001Z</time></trkpt><trkpt lat="43.63012331702641" lon="2.7608069093577208"><ele>796.5</ele><time>2026-04-06T11:08:53.001Z</time></trkpt><trkpt lat="43.630271613949255" lon="2.760677549083755"><ele>794.0</ele><time>2026-04-06T11:08:54.001Z</time></trkpt><trkpt lat="43.63045079335568" lon="2.760608251233822"><ele>792.3333333333334</ele><time>2026-04-06T11:08:55.001Z</time></trkpt><trkpt lat="43.630599441275926" lon="2.760549198528647"><ele>790.6666666666667</ele><time>2026-04-06T11:08:56.001Z</time></trkpt><trkpt lat="43.63077368656778" lon="2.7605031856174445"><ele>789.0</ele><time>2026-04-06T11:08:57.001Z</time></trkpt><trkpt lat="43.630965474404434" lon="2.7604656252266264"><ele>787.3333333333333</ele><time>2026-04-06T11:08:58.001Z</time></trkpt><trkpt lat="43.63114968862499" lon="2.7604152285539403"><ele>785.6666666666666</ele><time>2026-04-06T11:08:59.001Z</time></trkpt><trkpt lat="43.6313360392974" lon="2.7603705135728034"><ele>784.0</ele><time>2026-04-06T11:09:00.001Z</time></trkpt><trkpt lat="43.63152093463848" lon="2.760327682693084"><ele>784.0</ele><time>2026-04-06T11:09:01.001Z</time></trkpt><trkpt lat="43.63170124756451" lon="2.7602958330268255"><ele>784.0</ele><time>2026-04-06T11:09:02.001Z</time></trkpt><trkpt lat="43.631912182641656" lon="2.7602377214590743"><ele>784.0</ele><time>2026-04-06T11:09:03.001Z</time></trkpt><trkpt lat="43.632111023069825" lon="2.7601933035112363"><ele>788.6666666666666</ele><time>2026-04-06T11:09:04.001Z</time></trkpt><trkpt lat="43.632312131383955" lon="2.7601258430393476"><ele>793.3333333333333</ele><time>2026-04-06T11:09:05.001Z</time></trkpt><trkpt lat="43.63251500529017" lon="2.7600584425486163"><ele>798.0</ele><time>2026-04-06T11:09:06.001Z</time></trkpt><trkpt lat="43.63271767879181" lon="2.760013014947958"><ele>795.6666666666667</ele><time>2026-04-06T11:09:07.001Z</time></trkpt><trkpt lat="43.63292910894876" lon="2.7599420942009134"><ele>793.3333333333334</ele><time>2026-04-06T11:09:08.001Z</time></trkpt><trkpt lat="43.633133089826664" lon="2.75988008350841"><ele>791.0</ele><time>2026-04-06T11:09:09.001Z</time></trkpt><trkpt lat="43.63332377592305" lon="2.7598226839337685"><ele>791.0</ele><time>2026-04-06T11:09:10.001Z</time></trkpt><trkpt lat="43.633502447026665" lon="2.7597766132656156"><ele>791.0</ele><time>2026-04-06T11:09:11.001Z</time></trkpt><trkpt lat="43.633670995420644" lon="2.759749920216157"><ele>791.0</ele><time>2026-04-06T11:09:12.001Z</time></trkpt><trkpt lat="43.633821992979406" lon="2.759640146572712"><ele>790.3333333333334</ele><time>2026-04-06T11:09:13.001Z</time></trkpt><trkpt lat="43.63396689662213" lon="2.759492482630324"><ele>789.6666666666667</ele><time>2026-04-06T11:09:14.001Z</time></trkpt><trkpt lat="43.63408762798374" lon="2.759297248962973"><ele>789.0</ele><time>2026-04-06T11:09:15.001Z</time></trkpt><trkpt lat="43.63416138498043" lon="2.759116537982279"><ele>789.0</ele><time>2026-04-06T11:09:16.001Z</time></trkpt><trkpt lat="43.634236503760334" lon="2.7588762438821246"><ele>789.0</ele><time>2026-04-06T11:09:17.001Z</time></trkpt><trkpt lat="43.63423591287386" lon="2.758620476139924"><ele>789.0</ele><time>2026-04-06T11:09:18.001Z</time></trkpt><trkpt lat="43.634216264230204" lon="2.7583846483372363"><ele>788.6666666666667</ele><time>2026-04-06T11:09:19.001Z</time></trkpt><trkpt lat="43.63415954307515" lon="2.7581534400805383"><ele>788.3333333333334</ele><time>2026-04-06T11:09:20.001Z</time></trkpt><trkpt lat="43.63407678876106" lon="2.757913662106905"><ele>788.0</ele><time>2026-04-06T11:09:21.001Z</time></trkpt><trkpt lat="43.63399510678798" lon="2.7577052720501247"><ele>785.0</ele><time>2026-04-06T11:09:22.001Z</time></trkpt><trkpt lat="43.633901560244254" lon="2.757474142032401"><ele>782.0</ele><time>2026-04-06T11:09:23.001Z</time></trkpt><trkpt lat="43.633810309009" lon="2.7572739801214805"><ele>779.0</ele><time>2026-04-06T11:09:24.001Z</time></trkpt><trkpt lat="43.63372209264488" lon="2.757096255277171"><ele>782.75</ele><time>2026-04-06T11:09:25.001Z</time></trkpt><trkpt lat="43.63362335905058" lon="2.756941575368738"><ele>786.5</ele><time>2026-04-06T11:09:26.001Z</time></trkpt><trkpt lat="43.63351874106414" lon="2.756819837223597"><ele>790.25</ele><time>2026-04-06T11:09:27.001Z</time></trkpt><trkpt lat="43.633427821341826" lon="2.756682472848444"><ele>794.0</ele><time>2026-04-06T11:09:28.001Z</time></trkpt><trkpt lat="43.63335421201344" lon="2.7565728206714533"><ele>794.0000000000001</ele><time>2026-04-06T11:09:29.001Z</time></trkpt><trkpt lat="43.63332773859406" lon="2.756488838684102"><ele>794.0</ele><time>2026-04-06T11:09:30.001Z</time></trkpt><trkpt lat="43.633349751227364" lon="2.7563890709905476"><ele>794.0</ele><time>2026-04-06T11:09:31.001Z</time></trkpt><trkpt lat="43.63340414455857" lon="2.7562963162025294"><ele>794.0</ele><time>2026-04-06T11:09:32.001Z</time></trkpt><trkpt lat="43.63347981858948" lon="2.7562456913807027"><ele>794.0000000000001</ele><time>2026-04-06T11:09:33.001Z</time></trkpt><trkpt lat="43.63358695006301" lon="2.756293626463428"><ele>794.0</ele><time>2026-04-06T11:09:34.001Z</time></trkpt><trkpt lat="43.63370642261175" lon="2.7563028529020546"><ele>785.5</ele><time>2026-04-06T11:09:35.001Z</time></trkpt><trkpt lat="43.63382648478279" lon="2.7563106884967294"><ele>777.0</ele><time>2026-04-06T11:09:36.001Z</time></trkpt><trkpt lat="43.63394175063398" lon="2.7563079421501064"><ele>768.5</ele><time>2026-04-06T11:09:37.001Z</time></trkpt><trkpt lat="43.63405884702237" lon="2.756282300936616"><ele>760.0</ele><time>2026-04-06T11:09:38.001Z</time></trkpt><trkpt lat="43.63417830330905" lon="2.756241363395258"><ele>760.0</ele><time>2026-04-06T11:09:39.001Z</time></trkpt><trkpt lat="43.63428893900644" lon="2.7561708765264217"><ele>760.0</ele><time>2026-04-06T11:09:40.001Z</time></trkpt><trkpt lat="43.63441352126358" lon="2.7561188726832757"><ele>760.0</ele><time>2026-04-06T11:09:41.001Z</time></trkpt><trkpt lat="43.634519579147366" lon="2.75601448933179"><ele>760.0</ele><time>2026-04-06T11:09:42.001Z</time></trkpt><trkpt lat="43.63461944316466" lon="2.755923000530737"><ele>759.5</ele><time>2026-04-06T11:09:43.001Z</time></trkpt><trkpt lat="43.63471815743897" lon="2.7558167697909863"><ele>759.0</ele><time>2026-04-06T11:09:44.001Z</time></trkpt><trkpt lat="43.63480575019925" lon="2.755700185515284"><ele>758.5</ele><time>2026-04-06T11:09:45.001Z</time></trkpt><trkpt lat="43.634883391369584" lon="2.7555692092345216"><ele>758.0</ele><time>2026-04-06T11:09:46.001Z</time></trkpt><trkpt lat="43.634950716074094" lon="2.7554359432902498"><ele>758.0</ele><time>2026-04-06T11:09:47.001Z</time></trkpt><trkpt lat="43.6349972230769" lon="2.7553223455636013"><ele>758.0</ele><time>2026-04-06T11:09:48.001Z</time></trkpt><trkpt lat="43.63503665935639" lon="2.755189919493892"><ele>758.0</ele><time>2026-04-06T11:09:49.001Z</time></trkpt><trkpt lat="43.63508567091878" lon="2.755035769588987"><ele>758.0</ele><time>2026-04-06T11:09:50.001Z</time></trkpt><trkpt lat="43.635125807952384" lon="2.754890942808952"><ele>758.0</ele><time>2026-04-06T11:09:51.001Z</time></trkpt><trkpt lat="43.635146127900455" lon="2.7547686904182265"><ele>759.4</ele><time>2026-04-06T11:09:52.001Z</time></trkpt><trkpt lat="43.6351608110609" lon="2.754631847887848"><ele>760.8</ele><time>2026-04-06T11:09:53.001Z</time></trkpt><trkpt lat="43.63516788631509" lon="2.754471817260081"><ele>762.2</ele><time>2026-04-06T11:09:54.001Z</time></trkpt><trkpt lat="43.635136734080405" lon="2.754343701006433"><ele>763.6</ele><time>2026-04-06T11:09:55.001Z</time></trkpt><trkpt lat="43.63508002377486" lon="2.7542054852966134"><ele>765.0</ele><time>2026-04-06T11:09:56.001Z</time></trkpt><trkpt lat="43.635020670307355" lon="2.7540347025504204"><ele>767.75</ele><time>2026-04-06T11:09:57.001Z</time></trkpt><trkpt lat="43.63495849305035" lon="2.753860164477485"><ele>770.5</ele><time>2026-04-06T11:09:58.001Z</time></trkpt><trkpt lat="43.63491800314335" lon="2.7536784793989675"><ele>773.25</ele><time>2026-04-06T11:09:59.001Z</time></trkpt><trkpt lat="43.634905914692844" lon="2.7535093596180458"><ele>776.0</ele><time>2026-04-06T11:10:00.001Z</time></trkpt><trkpt lat="43.63492867903728" lon="2.753345803140244"><ele>776.1666666666667</ele><time>2026-04-06T11:10:01Z</time></trkpt><trkpt lat="43.63496716313571" lon="2.7532075141945205"><ele>776.3333333333334</ele><time>2026-04-06T11:10:02Z</time></trkpt><trkpt lat="43.63499961591425" lon="2.753117593978798"><ele>776.5</ele><time>2026-04-06T11:10:03Z</time></trkpt><trkpt lat="43.635049582712085" lon="2.7530137772091754"><ele>776.6666666666667</ele><time>2026-04-06T11:10:04Z</time></trkpt><trkpt lat="43.63507835080016" lon="2.752912351886867"><ele>776.8333333333334</ele><time>2026-04-06T11:10:05Z</time></trkpt><trkpt lat="43.63509433588871" lon="2.7528221006829012"><ele>777.0</ele><time>2026-04-06T11:10:06Z</time></trkpt><trkpt lat="43.635121513356985" lon="2.752702802604994"><ele>776.0</ele><time>2026-04-06T11:10:07Z</time></trkpt><trkpt lat="43.63517326503743" lon="2.7525813830218633"><ele>775.0</ele><time>2026-04-06T11:10:08Z</time></trkpt><trkpt lat="43.63525547118341" lon="2.7524736846105577"><ele>774.0</ele><time>2026-04-06T11:10:09Z</time></trkpt><trkpt lat="43.63533879691901" lon="2.7523296171805525"><ele>773.0</ele><time>2026-04-06T11:10:10Z</time></trkpt><trkpt lat="43.635437025665" lon="2.752167078642256"><ele>776.6666666666667</ele><time>2026-04-06T11:10:11Z</time></trkpt><trkpt lat="43.63552896851462" lon="2.751999320928673"><ele>780.3333333333333</ele><time>2026-04-06T11:10:12Z</time></trkpt><trkpt lat="43.63563459342556" lon="2.751839335282491"><ele>784.0</ele><time>2026-04-06T11:10:13Z</time></trkpt><trkpt lat="43.63574793996117" lon="2.751664474475745"><ele>784.0</ele><time>2026-04-06T11:10:14Z</time></trkpt><trkpt lat="43.63585527304087" lon="2.7514875397782093"><ele>784.0</ele><time>2026-04-06T11:10:15Z</time></trkpt><trkpt lat="43.63596948396447" lon="2.751275483647889"><ele>784.0</ele><time>2026-04-06T11:10:16Z</time></trkpt><trkpt lat="43.63607782845121" lon="2.7510975368966855"><ele>788.0</ele><time>2026-04-06T11:10:17Z</time></trkpt><trkpt lat="43.63616182561494" lon="2.750873009289542"><ele>792.0</ele><time>2026-04-06T11:10:18Z</time></trkpt><trkpt lat="43.63623761524937" lon="2.750650152645572"><ele>796.0</ele><time>2026-04-06T11:10:19Z</time></trkpt><trkpt lat="43.636302267542426" lon="2.750442214824229"><ele>792.0</ele><time>2026-04-06T11:10:20Z</time></trkpt><trkpt lat="43.63634540800986" lon="2.7502075414193956"><ele>788.0</ele><time>2026-04-06T11:10:21Z</time></trkpt><trkpt lat="43.63640381538727" lon="2.7499926476659082"><ele>784.0</ele><time>2026-04-06T11:10:22Z</time></trkpt><trkpt lat="43.63648122133414" lon="2.749783072549366"><ele>784.0</ele><time>2026-04-06T11:10:23Z</time></trkpt><trkpt lat="43.636558325557765" lon="2.7495825488054297"><ele>784.0</ele><time>2026-04-06T11:10:24Z</time></trkpt><trkpt lat="43.636647748505304" lon="2.7493903026067517"><ele>784.0</ele><time>2026-04-06T11:10:25Z</time></trkpt><trkpt lat="43.636746638828726" lon="2.7492075008271395"><ele>783.0</ele><time>2026-04-06T11:10:26Z</time></trkpt><trkpt lat="43.63684955900089" lon="2.7490299105365557"><ele>782.0</ele><time>2026-04-06T11:10:27Z</time></trkpt><trkpt lat="43.63696491864363" lon="2.748867087197491"><ele>781.0</ele><time>2026-04-06T11:10:28Z</time></trkpt><trkpt lat="43.637088940179595" lon="2.74872527960196"><ele>781.0</ele><time>2026-04-06T11:10:29Z</time></trkpt><trkpt lat="43.637222529609176" lon="2.748636769980855"><ele>781.0</ele><time>2026-04-06T11:10:30Z</time></trkpt><trkpt lat="43.6373468147823" lon="2.7485788477305175"><ele>781.0</ele><time>2026-04-06T11:10:31Z</time></trkpt><trkpt lat="43.63745666885799" lon="2.7484892680994935"><ele>781.0</ele><time>2026-04-06T11:10:32Z</time></trkpt><trkpt lat="43.637511836060305" lon="2.748384128500721"><ele>779.0</ele><time>2026-04-06T11:10:33Z</time></trkpt><trkpt lat="43.637547656670144" lon="2.748247406426982"><ele>777.0</ele><time>2026-04-06T11:10:34Z</time></trkpt><trkpt lat="43.63755887952235" lon="2.7481091413147967"><ele>775.0</ele><time>2026-04-06T11:10:35Z</time></trkpt><trkpt lat="43.63756408934615" lon="2.747991494708721"><ele>773.0</ele><time>2026-04-06T11:10:36Z</time></trkpt><trkpt lat="43.637490450562424" lon="2.7478821922362617"><ele>771.0</ele><time>2026-04-06T11:10:37Z</time></trkpt><trkpt lat="43.63738336648425" lon="2.747855077377207"><ele>771.0</ele><time>2026-04-06T11:10:38Z</time></trkpt><trkpt lat="43.637269219305" lon="2.7478336105167576"><ele>771.0</ele><time>2026-04-06T11:10:39Z</time></trkpt><trkpt lat="43.637139440256554" lon="2.7478457060380506"><ele>771.0</ele><time>2026-04-06T11:10:40Z</time></trkpt><trkpt lat="43.63700486499799" lon="2.7478770098877465"><ele>771.0</ele><time>2026-04-06T11:10:41Z</time></trkpt><trkpt lat="43.63687091704415" lon="2.747941787510871"><ele>772.6666666666667</ele><time>2026-04-06T11:10:42Z</time></trkpt><trkpt lat="43.636743046615955" lon="2.748036013038874"><ele>774.3333333333334</ele><time>2026-04-06T11:10:43Z</time></trkpt><trkpt lat="43.63661596616145" lon="2.748164814875971"><ele>776.0</ele><time>2026-04-06T11:10:44Z</time></trkpt><trkpt lat="43.63650303185279" lon="2.748326000753445"><ele>776.0</ele><time>2026-04-06T11:10:45Z</time></trkpt><trkpt lat="43.63637756150937" lon="2.7484786710683426"><ele>776.0</ele><time>2026-04-06T11:10:46Z</time></trkpt><trkpt lat="43.63624311819399" lon="2.748622526824577"><ele>776.0</ele><time>2026-04-06T11:10:47Z</time></trkpt><trkpt lat="43.636118361616" lon="2.7487714729294206"><ele>777.0</ele><time>2026-04-06T11:10:48Z</time></trkpt><trkpt lat="43.63599105711847" lon="2.7489250690357583"><ele>778.0</ele><time>2026-04-06T11:10:49Z</time></trkpt><trkpt lat="43.635865974547606" lon="2.749086647882839"><ele>779.0</ele><time>2026-04-06T11:10:50Z</time></trkpt><trkpt lat="43.63574515986277" lon="2.749249368006327"><ele>775.3333333333334</ele><time>2026-04-06T11:10:51Z</time></trkpt><trkpt lat="43.63562339678821" lon="2.7494154780304076"><ele>771.6666666666667</ele><time>2026-04-06T11:10:52Z</time></trkpt><trkpt lat="43.63550423670103" lon="2.7495865217823448"><ele>768.0</ele><time>2026-04-06T11:10:53Z</time></trkpt><trkpt lat="43.63539182235031" lon="2.7497524786870784"><ele>770.5</ele><time>2026-04-06T11:10:54Z</time></trkpt><trkpt lat="43.635279350966336" lon="2.749916720659023"><ele>773.0</ele><time>2026-04-06T11:10:55Z</time></trkpt><trkpt lat="43.635176501791406" lon="2.750052683244063"><ele>775.5</ele><time>2026-04-06T11:10:56Z</time></trkpt><trkpt lat="43.635078539304395" lon="2.7501854466530054"><ele>778.0</ele><time>2026-04-06T11:10:57Z</time></trkpt><trkpt lat="43.63494527372392" lon="2.750261645164764"><ele>772.25</ele><time>2026-04-06T11:10:58Z</time></trkpt><trkpt lat="43.63480502152506" lon="2.750317261459633"><ele>766.5</ele><time>2026-04-06T11:10:59Z</time></trkpt><trkpt lat="43.63465108394154" lon="2.750370383528648"><ele>760.75</ele><time>2026-04-06T11:11:00Z</time></trkpt><trkpt lat="43.634514444918494" lon="2.750392988419622"><ele>755.0</ele><time>2026-04-06T11:11:01Z</time></trkpt><trkpt lat="43.63439243517332" lon="2.750403502691785"><ele>754.0</ele><time>2026-04-06T11:11:02Z</time></trkpt><trkpt lat="43.6342616267359" lon="2.75036308494887"><ele>753.0</ele><time>2026-04-06T11:11:03Z</time></trkpt><trkpt lat="43.63421197745482" lon="2.7502928057661373"><ele>752.0</ele><time>2026-04-06T11:11:04Z</time></trkpt><trkpt lat="43.63420863201742" lon="2.750179450229195"><ele>751.0</ele><time>2026-04-06T11:11:05Z</time></trkpt><trkpt lat="43.63417254065014" lon="2.750081376691814"><ele>750.0</ele><time>2026-04-06T11:11:06Z</time></trkpt><trkpt lat="43.6341495184023" lon="2.7499561878481926"><ele>753.5</ele><time>2026-04-06T11:11:07Z</time></trkpt><trkpt lat="43.63412277212513" lon="2.749818904828783"><ele>757.0</ele><time>2026-04-06T11:11:08Z</time></trkpt><trkpt lat="43.63409102687248" lon="2.7496662075049696"><ele>760.5</ele><time>2026-04-06T11:11:09Z</time></trkpt><trkpt lat="43.63404783705366" lon="2.749511402130295"><ele>764.0</ele><time>2026-04-06T11:11:10Z</time></trkpt><trkpt lat="43.634004868053296" lon="2.7493456439697894"><ele>767.75</ele><time>2026-04-06T11:11:11Z</time></trkpt><trkpt lat="43.63396414106734" lon="2.7491636265600157"><ele>771.5</ele><time>2026-04-06T11:11:12Z</time></trkpt><trkpt lat="43.63391950469691" lon="2.7489733337769886"><ele>775.25</ele><time>2026-04-06T11:11:13Z</time></trkpt><trkpt lat="43.633870413139846" lon="2.7487849623061904"><ele>779.0</ele><time>2026-04-06T11:11:14Z</time></trkpt><trkpt lat="43.63382642454104" lon="2.7485988921786904"><ele>782.75</ele><time>2026-04-06T11:11:15Z</time></trkpt><trkpt lat="43.63376914550007" lon="2.748410003413512"><ele>786.5</ele><time>2026-04-06T11:11:16Z</time></trkpt><trkpt lat="43.63369569281821" lon="2.7482315126388817"><ele>790.25</ele><time>2026-04-06T11:11:17Z</time></trkpt><trkpt lat="43.63360562879991" lon="2.7480673712267834"><ele>794.0</ele><time>2026-04-06T11:11:18Z</time></trkpt><trkpt lat="43.63350897376166" lon="2.7479092165062275"><ele>790.25</ele><time>2026-04-06T11:11:19Z</time></trkpt><trkpt lat="43.63340950136274" lon="2.7477552183440888"><ele>786.5</ele><time>2026-04-06T11:11:20Z</time></trkpt><trkpt lat="43.63330307877285" lon="2.747607474760422"><ele>782.75</ele><time>2026-04-06T11:11:21Z</time></trkpt><trkpt lat="43.633189460902834" lon="2.7474764357795975"><ele>779.0</ele><time>2026-04-06T11:11:22Z</time></trkpt><trkpt lat="43.63305688111268" lon="2.7473798475638973"><ele>779.0</ele><time>2026-04-06T11:11:23Z</time></trkpt><trkpt lat="43.63291402725815" lon="2.7473087065333495"><ele>779.0</ele><time>2026-04-06T11:11:24Z</time></trkpt><trkpt lat="43.63276775308896" lon="2.7472373318547136"><ele>779.0</ele><time>2026-04-06T11:11:25Z</time></trkpt><trkpt lat="43.63261982241783" lon="2.7471783200294615"><ele>771.3333333333334</ele><time>2026-04-06T11:11:26Z</time></trkpt><trkpt lat="43.632465761731495" lon="2.7471352823530792"><ele>763.6666666666667</ele><time>2026-04-06T11:11:27Z</time></trkpt><trkpt lat="43.63230931536435" lon="2.747105056561973"><ele>756.0</ele><time>2026-04-06T11:11:28Z</time></trkpt><trkpt lat="43.63215197951195" lon="2.7470954630486917"><ele>756.0</ele><time>2026-04-06T11:11:29Z</time></trkpt><trkpt lat="43.631998502518236" lon="2.747107914660529"><ele>756.0</ele><time>2026-04-06T11:11:30Z</time></trkpt><trkpt lat="43.631857789318595" lon="2.7471083432978984"><ele>756.0</ele><time>2026-04-06T11:11:31Z</time></trkpt><trkpt lat="43.63172528348579" lon="2.747125845297462"><ele>756.0</ele><time>2026-04-06T11:11:32Z</time></trkpt><trkpt lat="43.63159932905975" lon="2.747137802415912"><ele>754.4</ele><time>2026-04-06T11:11:33Z</time></trkpt><trkpt lat="43.631495319437136" lon="2.747082977840682"><ele>752.8</ele><time>2026-04-06T11:11:34Z</time></trkpt><trkpt lat="43.631434162779286" lon="2.7469857985568464"><ele>751.1999999999999</ele><time>2026-04-06T11:11:35Z</time></trkpt><trkpt lat="43.631423421971355" lon="2.746875504095137"><ele>749.5999999999999</ele><time>2026-04-06T11:11:36Z</time></trkpt><trkpt lat="43.63145541823598" lon="2.7467600159278542"><ele>748.0</ele><time>2026-04-06T11:11:37Z</time></trkpt><trkpt lat="43.63150587672165" lon="2.746626739951967"><ele>748.0</ele><time>2026-04-06T11:11:38Z</time></trkpt><trkpt lat="43.631592950319565" lon="2.7465225343347415"><ele>748.0</ele><time>2026-04-06T11:11:39Z</time></trkpt><trkpt lat="43.631695202257475" lon="2.746422198422784"><ele>748.0</ele><time>2026-04-06T11:11:40Z</time></trkpt><trkpt lat="43.631817041377374" lon="2.7463359772041387"><ele>748.0</ele><time>2026-04-06T11:11:41Z</time></trkpt><trkpt lat="43.63196372859687" lon="2.746230816160189"><ele>748.0</ele><time>2026-04-06T11:11:42Z</time></trkpt><trkpt lat="43.632097459083084" lon="2.746155591001362"><ele>748.0</ele><time>2026-04-06T11:11:43Z</time></trkpt><trkpt lat="43.63223057447995" lon="2.7460762878396143"><ele>748.0</ele><time>2026-04-06T11:11:44Z</time></trkpt><trkpt lat="43.63235877092216" lon="2.745996317543002"><ele>748.0</ele><time>2026-04-06T11:11:45Z</time></trkpt><trkpt lat="43.632496240787184" lon="2.7458358024555056"><ele>748.0</ele><time>2026-04-06T11:11:46Z</time></trkpt><trkpt lat="43.632649117591846" lon="2.7456025032982043"><ele>748.0</ele><time>2026-04-06T11:11:47.001Z</time></trkpt><trkpt lat="43.63275072141259" lon="2.7454205547507016"><ele>748.0</ele><time>2026-04-06T11:11:48.001Z</time></trkpt><trkpt lat="43.632848584755564" lon="2.745230892608515"><ele>749.6666666666667</ele><time>2026-04-06T11:11:49.001Z</time></trkpt><trkpt lat="43.632946825937495" lon="2.7450396163191355"><ele>751.3333333333334</ele><time>2026-04-06T11:11:50.001Z</time></trkpt><trkpt lat="43.63304835575474" lon="2.74485065095684"><ele>753.0</ele><time>2026-04-06T11:11:51.001Z</time></trkpt><trkpt lat="43.63314601618215" lon="2.7446558628735653"><ele>753.0</ele><time>2026-04-06T11:11:52.001Z</time></trkpt><trkpt lat="43.6332396409014" lon="2.744460810590176"><ele>753.0</ele><time>2026-04-06T11:11:53.001Z</time></trkpt><trkpt lat="43.63333238637608" lon="2.744271660611047"><ele>753.0</ele><time>2026-04-06T11:11:54.001Z</time></trkpt><trkpt lat="43.63342073100241" lon="2.744076502727148"><ele>747.3333333333334</ele><time>2026-04-06T11:11:55.001Z</time></trkpt><trkpt lat="43.63349100305794" lon="2.74387621163318"><ele>741.6666666666667</ele><time>2026-04-06T11:11:56.001Z</time></trkpt><trkpt lat="43.633548090338415" lon="2.743668422532879"><ele>736.0</ele><time>2026-04-06T11:11:57.001Z</time></trkpt><trkpt lat="43.63360609061667" lon="2.7434712609494527"><ele>736.75</ele><time>2026-04-06T11:11:58.001Z</time></trkpt><trkpt lat="43.633681747516135" lon="2.743287789883273"><ele>737.5</ele><time>2026-04-06T11:11:59.001Z</time></trkpt><trkpt lat="43.63377188168856" lon="2.743128406164151"><ele>738.25</ele><time>2026-04-06T11:12:00.001Z</time></trkpt><trkpt lat="43.633872585157775" lon="2.742991778603701"><ele>739.0</ele><time>2026-04-06T11:12:01.001Z</time></trkpt><trkpt lat="43.633990403531335" lon="2.7428901283608917"><ele>739.0</ele><time>2026-04-06T11:12:02.001Z</time></trkpt><trkpt lat="43.63412948155741" lon="2.742834388409425"><ele>739.0</ele><time>2026-04-06T11:12:03.001Z</time></trkpt><trkpt lat="43.63427483139846" lon="2.7428266746356447"><ele>739.0</ele><time>2026-04-06T11:12:04.001Z</time></trkpt><trkpt lat="43.63442084186978" lon="2.742870010881532"><ele>739.0</ele><time>2026-04-06T11:12:05.001Z</time></trkpt><trkpt lat="43.634571435985464" lon="2.742880561959529"><ele>738.25</ele><time>2026-04-06T11:12:06.001Z</time></trkpt><trkpt lat="43.63471291601684" lon="2.7429166111515855"><ele>737.5</ele><time>2026-04-06T11:12:07.001Z</time></trkpt><trkpt lat="43.634841060064836" lon="2.742990810954776"><ele>736.75</ele><time>2026-04-06T11:12:08Z</time></trkpt><trkpt lat="43.63495276673753" lon="2.743009960223219"><ele>736.0</ele><time>2026-04-06T11:12:09Z</time></trkpt><trkpt lat="43.63504769196855" lon="2.74303527203166"><ele>736.0</ele><time>2026-04-06T11:12:10Z</time></trkpt><trkpt lat="43.635127757902275" lon="2.7429738064515883"><ele>736.0</ele><time>2026-04-06T11:12:11Z</time></trkpt><trkpt lat="43.63517328355192" lon="2.742858427243838"><ele>736.0</ele><time>2026-04-06T11:12:12Z</time></trkpt><trkpt lat="43.63516207111381" lon="2.7427206991594577"><ele>736.0</ele><time>2026-04-06T11:12:13Z</time></trkpt><trkpt lat="43.635114757894826" lon="2.7425860640229685"><ele>736.0</ele><time>2026-04-06T11:12:14Z</time></trkpt><trkpt lat="43.63506046625096" lon="2.7424395830393014"><ele>733.5</ele><time>2026-04-06T11:12:15Z</time></trkpt><trkpt lat="43.635010378935235" lon="2.742285922193934"><ele>731.0</ele><time>2026-04-06T11:12:16Z</time></trkpt><trkpt lat="43.634982902063115" lon="2.742128323723318"><ele>728.5</ele><time>2026-04-06T11:12:17Z</time></trkpt><trkpt lat="43.63500774485996" lon="2.741975374975235"><ele>726.0</ele><time>2026-04-06T11:12:18Z</time></trkpt><trkpt lat="43.63503053053085" lon="2.7418307978461685"><ele>724.8</ele><time>2026-04-06T11:12:19Z</time></trkpt><trkpt lat="43.635077621323916" lon="2.7416920652456787"><ele>723.5999999999999</ele><time>2026-04-06T11:12:20Z</time></trkpt><trkpt lat="43.63508180799841" lon="2.7415320919507606"><ele>722.4</ele><time>2026-04-06T11:12:21Z</time></trkpt><trkpt lat="43.63505712292633" lon="2.7413935586098357"><ele>721.2</ele><time>2026-04-06T11:12:22Z</time></trkpt><trkpt lat="43.634989166205244" lon="2.7413111676224666"><ele>720.0</ele><time>2026-04-06T11:12:23Z</time></trkpt><trkpt lat="43.634896231326415" lon="2.7412696623080186"><ele>720.0</ele><time>2026-04-06T11:12:24Z</time></trkpt><trkpt lat="43.63480345466693" lon="2.741207721650092"><ele>720.0</ele><time>2026-04-06T11:12:25Z</time></trkpt><trkpt lat="43.63472856800432" lon="2.741091272441689"><ele>720.0</ele><time>2026-04-06T11:12:26Z</time></trkpt><trkpt lat="43.634683073301524" lon="2.740934157801143"><ele>720.0</ele><time>2026-04-06T11:12:27Z</time></trkpt><trkpt lat="43.63464455518311" lon="2.7407590131168096"><ele>720.25</ele><time>2026-04-06T11:12:28Z</time></trkpt><trkpt lat="43.63460008889838" lon="2.7405831771571436"><ele>720.5</ele><time>2026-04-06T11:12:29Z</time></trkpt><trkpt lat="43.634543401933655" lon="2.7404167947124676"><ele>720.75</ele><time>2026-04-06T11:12:30Z</time></trkpt><trkpt lat="43.63449023663823" lon="2.740253462322964"><ele>721.0</ele><time>2026-04-06T11:12:31Z</time></trkpt><trkpt lat="43.634464445868325" lon="2.7400852767212682"><ele>720.0</ele><time>2026-04-06T11:12:32Z</time></trkpt><trkpt lat="43.63448102015915" lon="2.739950415625682"><ele>719.0</ele><time>2026-04-06T11:12:33Z</time></trkpt><trkpt lat="43.63453119509375" lon="2.739854235307225"><ele>718.0</ele><time>2026-04-06T11:12:34Z</time></trkpt><trkpt lat="43.634598439065364" lon="2.7397753672239666"><ele>717.0</ele><time>2026-04-06T11:12:35Z</time></trkpt><trkpt lat="43.634670555480625" lon="2.739687535676474"><ele>716.0</ele><time>2026-04-06T11:12:36Z</time></trkpt><trkpt lat="43.634688999899716" lon="2.73956058132094"><ele>716.0</ele><time>2026-04-06T11:12:37Z</time></trkpt><trkpt lat="43.63465635220662" lon="2.7394246350958738"><ele>716.0</ele><time>2026-04-06T11:12:38Z</time></trkpt><trkpt lat="43.63461227721278" lon="2.7392871177389013"><ele>716.0</ele><time>2026-04-06T11:12:39Z</time></trkpt><trkpt lat="43.6345539815219" lon="2.7391771272600334"><ele>716.0</ele><time>2026-04-06T11:12:40Z</time></trkpt><trkpt lat="43.63445254918247" lon="2.7391210203265235"><ele>716.0</ele><time>2026-04-06T11:12:41Z</time></trkpt><trkpt lat="43.634335081991146" lon="2.739110870680721"><ele>714.5</ele><time>2026-04-06T11:12:42Z</time></trkpt><trkpt lat="43.6342186155917" lon="2.7390635787364657"><ele>713.0</ele><time>2026-04-06T11:12:43Z</time></trkpt><trkpt lat="43.634104537185415" lon="2.7389598827315678"><ele>711.5</ele><time>2026-04-06T11:12:44Z</time></trkpt><trkpt lat="43.63399533449899" lon="2.7388134368588473"><ele>710.0</ele><time>2026-04-06T11:12:45Z</time></trkpt><trkpt lat="43.63390267166465" lon="2.738637157780389"><ele>712.3333333333333</ele><time>2026-04-06T11:12:46Z</time></trkpt><trkpt lat="43.63382374201645" lon="2.738437629896269"><ele>714.6666666666666</ele><time>2026-04-06T11:12:47Z</time></trkpt><trkpt lat="43.633743037209655" lon="2.7382352138879025"><ele>717.0</ele><time>2026-04-06T11:12:48Z</time></trkpt><trkpt lat="43.63365159633775" lon="2.7380303702686657"><ele>714.0</ele><time>2026-04-06T11:12:49Z</time></trkpt><trkpt lat="43.63354582015697" lon="2.737822313198537"><ele>711.0</ele><time>2026-04-06T11:12:50Z</time></trkpt><trkpt lat="43.6334167873576" lon="2.737632415769182"><ele>708.0</ele><time>2026-04-06T11:12:51Z</time></trkpt><trkpt lat="43.63326710589899" lon="2.7374580140062195"><ele>708.0</ele><time>2026-04-06T11:12:52Z</time></trkpt><trkpt lat="43.63311647024365" lon="2.7372902492167497"><ele>708.0</ele><time>2026-04-06T11:12:53Z</time></trkpt><trkpt lat="43.63296548504907" lon="2.7371106396366227"><ele>708.0</ele><time>2026-04-06T11:12:54Z</time></trkpt><trkpt lat="43.63281733653268" lon="2.736926609990486"><ele>706.3333333333334</ele><time>2026-04-06T11:12:55Z</time></trkpt><trkpt lat="43.63265910491636" lon="2.7367322615353618"><ele>704.6666666666667</ele><time>2026-04-06T11:12:56Z</time></trkpt><trkpt lat="43.63250302157012" lon="2.7365335466816463"><ele>703.0</ele><time>2026-04-06T11:12:57Z</time></trkpt><trkpt lat="43.63234504086609" lon="2.736337512536691"><ele>703.0</ele><time>2026-04-06T11:12:58Z</time></trkpt><trkpt lat="43.632187317493496" lon="2.7361494537115374"><ele>703.0</ele><time>2026-04-06T11:12:59Z</time></trkpt><trkpt lat="43.6320275352034" lon="2.7359625468425133"><ele>703.0</ele><time>2026-04-06T11:13:00Z</time></trkpt><trkpt lat="43.63187094555282" lon="2.7357754018861073"><ele>702.3333333333334</ele><time>2026-04-06T11:13:01Z</time></trkpt><trkpt lat="43.63171384464319" lon="2.7355886209541933"><ele>701.6666666666666</ele><time>2026-04-06T11:13:02Z</time></trkpt><trkpt lat="43.631561888444715" lon="2.735399055849724"><ele>701.0</ele><time>2026-04-06T11:13:03Z</time></trkpt><trkpt lat="43.63140764558826" lon="2.735208571283597"><ele>702.0</ele><time>2026-04-06T11:13:04Z</time></trkpt><trkpt lat="43.63125513134477" lon="2.735025614005966"><ele>703.0</ele><time>2026-04-06T11:13:05Z</time></trkpt><trkpt lat="43.63110511624203" lon="2.734846106790364"><ele>704.0</ele><time>2026-04-06T11:13:06Z</time></trkpt><trkpt lat="43.63095971694656" lon="2.734667390526832"><ele>704.0</ele><time>2026-04-06T11:13:07Z</time></trkpt><trkpt lat="43.63081082596493" lon="2.7344791849531043"><ele>704.0</ele><time>2026-04-06T11:13:08Z</time></trkpt><trkpt lat="43.630668351443575" lon="2.734283301307978"><ele>704.0</ele><time>2026-04-06T11:13:09Z</time></trkpt><trkpt lat="43.63054351020131" lon="2.7340612990161004"><ele>703.3333333333333</ele><time>2026-04-06T11:13:10Z</time></trkpt><trkpt lat="43.6304298270641" lon="2.7338156693727496"><ele>702.6666666666666</ele><time>2026-04-06T11:13:11Z</time></trkpt><trkpt lat="43.630335650327865" lon="2.733559378132266"><ele>702.0</ele><time>2026-04-06T11:13:12Z</time></trkpt><trkpt lat="43.63024388222115" lon="2.7333063120972536"><ele>700.6666666666666</ele><time>2026-04-06T11:13:13Z</time></trkpt><trkpt lat="43.63015602820975" lon="2.7330668222510663"><ele>699.3333333333333</ele><time>2026-04-06T11:13:14Z</time></trkpt><trkpt lat="43.63007051419908" lon="2.7328256742265498"><ele>698.0</ele><time>2026-04-06T11:13:15Z</time></trkpt><trkpt lat="43.6299893131418" lon="2.73258936400297"><ele>697.6666666666666</ele><time>2026-04-06T11:13:16Z</time></trkpt><trkpt lat="43.62990087060191" lon="2.7323480426068083"><ele>697.3333333333334</ele><time>2026-04-06T11:13:17Z</time></trkpt><trkpt lat="43.62981065528174" lon="2.732111825245162"><ele>697.0</ele><time>2026-04-06T11:13:18Z</time></trkpt><trkpt lat="43.62971817275964" lon="2.731875882778865"><ele>697.0</ele><time>2026-04-06T11:13:19Z</time></trkpt><trkpt lat="43.62962977526487" lon="2.7316333266053623"><ele>697.0</ele><time>2026-04-06T11:13:20Z</time></trkpt><trkpt lat="43.6295456721489" lon="2.7313912027414284"><ele>697.0</ele><time>2026-04-06T11:13:21Z</time></trkpt><trkpt lat="43.62946276967709" lon="2.7311568273082028"><ele>699.6666666666667</ele><time>2026-04-06T11:13:22Z</time></trkpt><trkpt lat="43.62937394043742" lon="2.7309181727885097"><ele>702.3333333333334</ele><time>2026-04-06T11:13:23Z</time></trkpt><trkpt lat="43.629278702318175" lon="2.7306809589058476"><ele>705.0</ele><time>2026-04-06T11:13:24Z</time></trkpt><trkpt lat="43.6291689042395" lon="2.730459546800318"><ele>705.0</ele><time>2026-04-06T11:13:25Z</time></trkpt><trkpt lat="43.629034399627706" lon="2.7302795014652363"><ele>705.0</ele><time>2026-04-06T11:13:26Z</time></trkpt><trkpt lat="43.62887151929419" lon="2.7301206214476847"><ele>705.0</ele><time>2026-04-06T11:13:27Z</time></trkpt><trkpt lat="43.62871659448286" lon="2.729957955379478"><ele>704.3333333333334</ele><time>2026-04-06T11:13:28Z</time></trkpt><trkpt lat="43.6285701255181" lon="2.729769645402005"><ele>703.6666666666667</ele><time>2026-04-06T11:13:29Z</time></trkpt><trkpt lat="43.62842580023906" lon="2.729572540644772"><ele>703.0</ele><time>2026-04-06T11:13:30Z</time></trkpt><trkpt lat="43.62827937359082" lon="2.72937149784864"><ele>703.0</ele><time>2026-04-06T11:13:31Z</time></trkpt><trkpt lat="43.628125610075024" lon="2.7291602742962207"><ele>703.0</ele><time>2026-04-06T11:13:32Z</time></trkpt><trkpt lat="43.62797061666057" lon="2.728947338026183"><ele>703.0</ele><time>2026-04-06T11:13:33Z</time></trkpt><trkpt lat="43.627813378158145" lon="2.728742481530138"><ele>702.0</ele><time>2026-04-06T11:13:34Z</time></trkpt><trkpt lat="43.62765323793827" lon="2.728530621375989"><ele>701.0</ele><time>2026-04-06T11:13:35Z</time></trkpt><trkpt lat="43.62749009603812" lon="2.7283264174929758"><ele>700.0</ele><time>2026-04-06T11:13:36Z</time></trkpt><trkpt lat="43.62732647513419" lon="2.728124443897417"><ele>700.0</ele><time>2026-04-06T11:13:37Z</time></trkpt><trkpt lat="43.62718362082469" lon="2.7279101614399694"><ele>700.0</ele><time>2026-04-06T11:13:38Z</time></trkpt><trkpt lat="43.62701932527096" lon="2.7276907083359236"><ele>700.0</ele><time>2026-04-06T11:13:39Z</time></trkpt><trkpt lat="43.62687208212198" lon="2.727492568029678"><ele>698.3333333333334</ele><time>2026-04-06T11:13:40Z</time></trkpt><trkpt lat="43.62673248139502" lon="2.727334843314001"><ele>696.6666666666666</ele><time>2026-04-06T11:13:41Z</time></trkpt><trkpt lat="43.62659984119913" lon="2.727121905953778"><ele>695.0</ele><time>2026-04-06T11:13:42Z</time></trkpt><trkpt lat="43.6264458121967" lon="2.7269603411966585"><ele>695.0</ele><time>2026-04-06T11:13:43Z</time></trkpt><trkpt lat="43.626293829312225" lon="2.7267699779032513"><ele>695.0</ele><time>2026-04-06T11:13:44Z</time></trkpt><trkpt lat="43.626164047939824" lon="2.726648051716597"><ele>695.0</ele><time>2026-04-06T11:13:45Z</time></trkpt><trkpt lat="43.62599806119829" lon="2.72652161076881"><ele>694.3333333333333</ele><time>2026-04-06T11:13:46Z</time></trkpt><trkpt lat="43.625839136737866" lon="2.7264212864515978"><ele>693.6666666666666</ele><time>2026-04-06T11:13:47Z</time></trkpt><trkpt lat="43.625688363131054" lon="2.726296194751577"><ele>693.0</ele><time>2026-04-06T11:13:48Z</time></trkpt><trkpt lat="43.62549711620828" lon="2.72616752490095"><ele>693.6666666666666</ele><time>2026-04-06T11:13:49Z</time></trkpt><trkpt lat="43.625302094222604" lon="2.726064941388169"><ele>694.3333333333333</ele><time>2026-04-06T11:13:50Z</time></trkpt><trkpt lat="43.625099432806884" lon="2.7259445907827184"><ele>695.0</ele><time>2026-04-06T11:13:51Z</time></trkpt><trkpt lat="43.624892249275355" lon="2.725813452711464"><ele>695.0</ele><time>2026-04-06T11:13:52Z</time></trkpt><trkpt lat="43.624670966599616" lon="2.7256714629599808"><ele>695.0</ele><time>2026-04-06T11:13:53.001Z</time></trkpt><trkpt lat="43.624463219839406" lon="2.725531387499807"><ele>696.0</ele><time>2026-04-06T11:13:54.001Z</time></trkpt><trkpt lat="43.624234662692615" lon="2.725381243024892"><ele>697.0</ele><time>2026-04-06T11:13:55.001Z</time></trkpt><trkpt lat="43.624011686355836" lon="2.7252069974792166"><ele>697.0</ele><time>2026-04-06T11:13:56.001Z</time></trkpt><trkpt lat="43.623782549702376" lon="2.7250497684641553"><ele>697.0</ele><time>2026-04-06T11:13:57.001Z</time></trkpt><trkpt lat="43.623597384436636" lon="2.7249316647286292"><ele>695.6666666666667</ele><time>2026-04-06T11:13:59.001Z</time></trkpt><trkpt lat="43.6234231582003" lon="2.724814588507117"><ele>694.3333333333334</ele><time>2026-04-06T11:14:00.001Z</time></trkpt><trkpt lat="43.62326531539598" lon="2.724653145746663"><ele>693.0</ele><time>2026-04-06T11:14:01.001Z</time></trkpt><trkpt lat="43.62313148490227" lon="2.724494010053891"><ele>694.3333333333334</ele><time>2026-04-06T11:14:02.001Z</time></trkpt><trkpt lat="43.622997960775926" lon="2.7243184647960113"><ele>695.6666666666667</ele><time>2026-04-06T11:14:03.001Z</time></trkpt><trkpt lat="43.62286166109896" lon="2.7241534814172668"><ele>697.0</ele><time>2026-04-06T11:14:04.001Z</time></trkpt><trkpt lat="43.62272060906335" lon="2.723978786996057"><ele>697.0</ele><time>2026-04-06T11:14:05.001Z</time></trkpt><trkpt lat="43.62258596643303" lon="2.7238140769615704"><ele>697.0</ele><time>2026-04-06T11:14:06.001Z</time></trkpt><trkpt lat="43.62244136153607" lon="2.7236602516370563"><ele>697.0</ele><time>2026-04-06T11:14:07.001Z</time></trkpt><trkpt lat="43.62228344070255" lon="2.723527255477214"><ele>696.3333333333334</ele><time>2026-04-06T11:14:08.001Z</time></trkpt><trkpt lat="43.62212862552386" lon="2.7233887323592794"><ele>695.6666666666666</ele><time>2026-04-06T11:14:09.001Z</time></trkpt><trkpt lat="43.621964286320015" lon="2.7232620839643586"><ele>695.0</ele><time>2026-04-06T11:14:10.001Z</time></trkpt><trkpt lat="43.62179008501876" lon="2.7231403316416345"><ele>695.0</ele><time>2026-04-06T11:14:11.001Z</time></trkpt><trkpt lat="43.621615282883816" lon="2.7230180005476154"><ele>695.0</ele><time>2026-04-06T11:14:12Z</time></trkpt><trkpt lat="43.62144474314304" lon="2.722888661096902"><ele>695.0</ele><time>2026-04-06T11:14:13Z</time></trkpt><trkpt lat="43.621275627120795" lon="2.7227583649244487"><ele>699.0</ele><time>2026-04-06T11:14:14Z</time></trkpt><trkpt lat="43.62111830371509" lon="2.72262015514988"><ele>703.0</ele><time>2026-04-06T11:14:15Z</time></trkpt><trkpt lat="43.62097427554115" lon="2.7224546141553008"><ele>707.0</ele><time>2026-04-06T11:14:16Z</time></trkpt><trkpt lat="43.620844290457505" lon="2.722271486342738"><ele>707.0</ele><time>2026-04-06T11:14:17Z</time></trkpt><trkpt lat="43.620729888663995" lon="2.722076086486241"><ele>707.0</ele><time>2026-04-06T11:14:18Z</time></trkpt><trkpt lat="43.62062265742713" lon="2.7218529113181495"><ele>707.0</ele><time>2026-04-06T11:14:19Z</time></trkpt><trkpt lat="43.62054604036076" lon="2.721623937040757"><ele>705.6666666666666</ele><time>2026-04-06T11:14:20Z</time></trkpt><trkpt lat="43.62044373171696" lon="2.7213817700110057"><ele>704.3333333333334</ele><time>2026-04-06T11:14:21Z</time></trkpt><trkpt lat="43.62033463848611" lon="2.7211381827945256"><ele>703.0</ele><time>2026-04-06T11:14:22Z</time></trkpt><trkpt lat="43.62023412805842" lon="2.720884332195504"><ele>698.0</ele><time>2026-04-06T11:14:23Z</time></trkpt><trkpt lat="43.62015620738483" lon="2.720622455929524"><ele>693.0</ele><time>2026-04-06T11:14:24Z</time></trkpt><trkpt lat="43.62010634169381" lon="2.720354495188456"><ele>688.0</ele><time>2026-04-06T11:14:25Z</time></trkpt><trkpt lat="43.6200595162375" lon="2.7200766802969745"><ele>687.0</ele><time>2026-04-06T11:14:26Z</time></trkpt><trkpt lat="43.6200120428715" lon="2.7197925983713325"><ele>686.0</ele><time>2026-04-06T11:14:27Z</time></trkpt><trkpt lat="43.61996008374763" lon="2.7195092750636154"><ele>685.0</ele><time>2026-04-06T11:14:28Z</time></trkpt><trkpt lat="43.61989240939708" lon="2.7192351756593287"><ele>685.0</ele><time>2026-04-06T11:14:29Z</time></trkpt><trkpt lat="43.61980435919738" lon="2.718968058632579"><ele>685.0</ele><time>2026-04-06T11:14:30Z</time></trkpt><trkpt lat="43.619706406355135" lon="2.7187084351858744"><ele>685.0</ele><time>2026-04-06T11:14:31Z</time></trkpt><trkpt lat="43.61962514893646" lon="2.718439366726501"><ele>684.6666666666667</ele><time>2026-04-06T11:14:32Z</time></trkpt><trkpt lat="43.61957699734204" lon="2.7181506739363726"><ele>684.3333333333334</ele><time>2026-04-06T11:14:33Z</time></trkpt><trkpt lat="43.61955937405603" lon="2.717855840890003"><ele>684.0</ele><time>2026-04-06T11:14:34Z</time></trkpt><trkpt lat="43.61955183722172" lon="2.717556887874299"><ele>684.0</ele><time>2026-04-06T11:14:35Z</time></trkpt><trkpt lat="43.61954465553565" lon="2.7172599512265068"><ele>684.0</ele><time>2026-04-06T11:14:36Z</time></trkpt><trkpt lat="43.61952926669768" lon="2.7169659053261266"><ele>684.0</ele><time>2026-04-06T11:14:37Z</time></trkpt><trkpt lat="43.61950562817392" lon="2.716672721735932"><ele>682.6666666666666</ele><time>2026-04-06T11:14:38Z</time></trkpt><trkpt lat="43.61946324067121" lon="2.7163870560693324"><ele>681.3333333333333</ele><time>2026-04-06T11:14:39Z</time></trkpt><trkpt lat="43.61940833268525" lon="2.7161100114998185"><ele>680.0</ele><time>2026-04-06T11:14:40Z</time></trkpt><trkpt lat="43.61934311537597" lon="2.715840171227829"><ele>680.0</ele><time>2026-04-06T11:14:41Z</time></trkpt><trkpt lat="43.61927022218263" lon="2.715575222519767"><ele>680.0</ele><time>2026-04-06T11:14:42Z</time></trkpt><trkpt lat="43.61919663736234" lon="2.715312341667969"><ele>680.0</ele><time>2026-04-06T11:14:43Z</time></trkpt><trkpt lat="43.619119046710104" lon="2.7150606299694995"><ele>680.6666666666666</ele><time>2026-04-06T11:14:44Z</time></trkpt><trkpt lat="43.61903170978848" lon="2.7148100533157886"><ele>681.3333333333334</ele><time>2026-04-06T11:14:45Z</time></trkpt><trkpt lat="43.61894095877559" lon="2.7145640246246345"><ele>682.0</ele><time>2026-04-06T11:14:46Z</time></trkpt><trkpt lat="43.618841133121414" lon="2.7143250561389487"><ele>681.0</ele><time>2026-04-06T11:14:47Z</time></trkpt><trkpt lat="43.61873639769183" lon="2.7140921138248784"><ele>680.0</ele><time>2026-04-06T11:14:48Z</time></trkpt><trkpt lat="43.61863144578579" lon="2.7138594874753554"><ele>679.0</ele><time>2026-04-06T11:14:49Z</time></trkpt><trkpt lat="43.618529515294426" lon="2.7136159762094865"><ele>680.3333333333334</ele><time>2026-04-06T11:14:50Z</time></trkpt><trkpt lat="43.61842360736654" lon="2.713369344446768"><ele>681.6666666666666</ele><time>2026-04-06T11:14:51Z</time></trkpt><trkpt lat="43.61831349421413" lon="2.7131235833148786"><ele>683.0</ele><time>2026-04-06T11:14:52Z</time></trkpt><trkpt lat="43.61819854404508" lon="2.712882969734723"><ele>684.0</ele><time>2026-04-06T11:14:53Z</time></trkpt><trkpt lat="43.618088328199825" lon="2.712651757698897"><ele>685.0</ele><time>2026-04-06T11:14:54Z</time></trkpt><trkpt lat="43.61797982956372" lon="2.712436817982556"><ele>686.0</ele><time>2026-04-06T11:14:55Z</time></trkpt><trkpt lat="43.61787580554527" lon="2.712225299972639"><ele>684.6666666666666</ele><time>2026-04-06T11:14:56Z</time></trkpt><trkpt lat="43.61777668244696" lon="2.7120182992633723"><ele>683.3333333333334</ele><time>2026-04-06T11:14:57Z</time></trkpt><trkpt lat="43.61769340394427" lon="2.711801675400671"><ele>682.0</ele><time>2026-04-06T11:14:58Z</time></trkpt><trkpt lat="43.617631546450404" lon="2.711561883172837"><ele>682.0</ele><time>2026-04-06T11:14:59Z</time></trkpt><trkpt lat="43.61757571860319" lon="2.7113151730661564"><ele>682.0</ele><time>2026-04-06T11:15:00Z</time></trkpt><trkpt lat="43.61752171521089" lon="2.7110819735533367"><ele>682.0</ele><time>2026-04-06T11:15:01Z</time></trkpt><trkpt lat="43.61747326858515" lon="2.710854766050938"><ele>681.6666666666667</ele><time>2026-04-06T11:15:02Z</time></trkpt><trkpt lat="43.61742151423605" lon="2.7106426439067643"><ele>681.3333333333334</ele><time>2026-04-06T11:15:03Z</time></trkpt><trkpt lat="43.61735200926466" lon="2.7104467341648166"><ele>681.0</ele><time>2026-04-06T11:15:04Z</time></trkpt><trkpt lat="43.61725678919853" lon="2.710260298672326"><ele>681.0</ele><time>2026-04-06T11:15:05Z</time></trkpt><trkpt lat="43.61715179830115" lon="2.710073029787201"><ele>681.0</ele><time>2026-04-06T11:15:06Z</time></trkpt><trkpt lat="43.61704066293618" lon="2.7098708729313303"><ele>681.0</ele><time>2026-04-06T11:15:07Z</time></trkpt><trkpt lat="43.61693330754186" lon="2.7096767879744164"><ele>680.6666666666666</ele><time>2026-04-06T11:15:08Z</time></trkpt><trkpt lat="43.61682233388998" lon="2.7094754551393843"><ele>680.3333333333333</ele><time>2026-04-06T11:15:09Z</time></trkpt><trkpt lat="43.616709084246025" lon="2.7092694106696187"><ele>680.0</ele><time>2026-04-06T11:15:10Z</time></trkpt><trkpt lat="43.616591656382404" lon="2.7090643600432815"><ele>680.0</ele><time>2026-04-06T11:15:11Z</time></trkpt><trkpt lat="43.616473953041236" lon="2.708861920535323"><ele>680.0</ele><time>2026-04-06T11:15:12Z</time></trkpt><trkpt lat="43.616355216403925" lon="2.708656349028539"><ele>680.0</ele><time>2026-04-06T11:15:13Z</time></trkpt><trkpt lat="43.61623642739775" lon="2.7084471073385377"><ele>678.6666666666666</ele><time>2026-04-06T11:15:14Z</time></trkpt><trkpt lat="43.61612340255084" lon="2.7082334913889823"><ele>677.3333333333334</ele><time>2026-04-06T11:15:15Z</time></trkpt><trkpt lat="43.616008330085926" lon="2.70802560236721"><ele>676.0</ele><time>2026-04-06T11:15:16Z</time></trkpt><trkpt lat="43.61588972047618" lon="2.7078107273590897"><ele>676.3333333333334</ele><time>2026-04-06T11:15:17Z</time></trkpt><trkpt lat="43.615771270716394" lon="2.7075979145571347"><ele>676.6666666666666</ele><time>2026-04-06T11:15:18Z</time></trkpt><trkpt lat="43.61565735764211" lon="2.70738508097992"><ele>677.0</ele><time>2026-04-06T11:15:19Z</time></trkpt><trkpt lat="43.61553883556956" lon="2.707171906062832"><ele>677.0</ele><time>2026-04-06T11:15:20Z</time></trkpt><trkpt lat="43.615427401607164" lon="2.7069643540212036"><ele>677.0</ele><time>2026-04-06T11:15:21Z</time></trkpt><trkpt lat="43.61531087488202" lon="2.70675614674046"><ele>677.0</ele><time>2026-04-06T11:15:22Z</time></trkpt><trkpt lat="43.61519628600236" lon="2.706548765808642"><ele>676.6666666666666</ele><time>2026-04-06T11:15:23Z</time></trkpt><trkpt lat="43.61507928514824" lon="2.706341641851945"><ele>676.3333333333334</ele><time>2026-04-06T11:15:24Z</time></trkpt><trkpt lat="43.61495779263102" lon="2.7061277858478916"><ele>676.0</ele><time>2026-04-06T11:15:25Z</time></trkpt><trkpt lat="43.61483646787593" lon="2.705914280138485"><ele>676.0</ele><time>2026-04-06T11:15:26Z</time></trkpt><trkpt lat="43.614719387063005" lon="2.705702149986715"><ele>676.0</ele><time>2026-04-06T11:15:27Z</time></trkpt><trkpt lat="43.614602261562595" lon="2.7054872673462773"><ele>676.0</ele><time>2026-04-06T11:15:28Z</time></trkpt><trkpt lat="43.61448391303694" lon="2.70527566638523"><ele>675.3333333333334</ele><time>2026-04-06T11:15:29Z</time></trkpt><trkpt lat="43.61435332328144" lon="2.705074128392079"><ele>674.6666666666666</ele><time>2026-04-06T11:15:30Z</time></trkpt><trkpt lat="43.614205448662524" lon="2.704893975620851"><ele>674.0</ele><time>2026-04-06T11:15:31Z</time></trkpt><trkpt lat="43.61404083848064" lon="2.7047421511682437"><ele>674.0</ele><time>2026-04-06T11:15:32Z</time></trkpt><trkpt lat="43.61386557818727" lon="2.7046085624450966"><ele>674.0</ele><time>2026-04-06T11:15:33Z</time></trkpt><trkpt lat="43.613690041656824" lon="2.704473553622422"><ele>674.0</ele><time>2026-04-06T11:15:34Z</time></trkpt><trkpt lat="43.61351811761104" lon="2.7043265425820335"><ele>673.3333333333333</ele><time>2026-04-06T11:15:35Z</time></trkpt><trkpt lat="43.61335056144858" lon="2.7041808438810833"><ele>672.6666666666666</ele><time>2026-04-06T11:15:36Z</time></trkpt><trkpt lat="43.613183521617685" lon="2.7040352578441538"><ele>672.0</ele><time>2026-04-06T11:15:37Z</time></trkpt><trkpt lat="43.61301705369848" lon="2.7038930173317723"><ele>672.0</ele><time>2026-04-06T11:15:38Z</time></trkpt><trkpt lat="43.612850375852176" lon="2.703751874067293"><ele>672.0</ele><time>2026-04-06T11:15:39Z</time></trkpt><trkpt lat="43.612685201208876" lon="2.703610370043896"><ele>672.0</ele><time>2026-04-06T11:15:40Z</time></trkpt><trkpt lat="43.61252315248457" lon="2.7034690310614464"><ele>672.6666666666666</ele><time>2026-04-06T11:15:41Z</time></trkpt><trkpt lat="43.612358366006696" lon="2.703329543209451"><ele>673.3333333333333</ele><time>2026-04-06T11:15:42Z</time></trkpt><trkpt lat="43.61220306690278" lon="2.703187152833426"><ele>674.0</ele><time>2026-04-06T11:15:43Z</time></trkpt><trkpt lat="43.61204849565255" lon="2.7030432964813853"><ele>673.6666666666666</ele><time>2026-04-06T11:15:44Z</time></trkpt><trkpt lat="43.611904122790925" lon="2.7029206445084637"><ele>673.3333333333334</ele><time>2026-04-06T11:15:45Z</time></trkpt><trkpt lat="43.61177086063116" lon="2.7028004611063428"><ele>673.0</ele><time>2026-04-06T11:15:46Z</time></trkpt><trkpt lat="43.61165851630837" lon="2.7026906168653695"><ele>672.8</ele><time>2026-04-06T11:15:47Z</time></trkpt><trkpt lat="43.61156095216616" lon="2.7025817798067577"><ele>672.5999999999999</ele><time>2026-04-06T11:15:48Z</time></trkpt><trkpt lat="43.61148807281941" lon="2.7024807644498496"><ele>672.4000000000001</ele><time>2026-04-06T11:15:49Z</time></trkpt><trkpt lat="43.61143812782923" lon="2.7023972367655054"><ele>672.2</ele><time>2026-04-06T11:15:50Z</time></trkpt><trkpt lat="43.6113952314999" lon="2.702323111427115"><ele>672.0</ele><time>2026-04-06T11:15:51Z</time></trkpt><trkpt lat="43.61131846278482" lon="2.7022541701562846"><ele>672.0</ele><time>2026-04-06T11:15:53Z</time></trkpt><trkpt lat="43.61120443005863" lon="2.7022557330274135"><ele>672.0</ele><time>2026-04-06T11:15:56Z</time></trkpt><trkpt lat="43.61112976460208" lon="2.70228541707103"><ele>672.0</ele><time>2026-04-06T11:15:57Z</time></trkpt><trkpt lat="43.61104843205142" lon="2.702310797044175"><ele>672.0</ele><time>2026-04-06T11:15:58Z</time></trkpt><trkpt lat="43.610952294824024" lon="2.702319078375534"><ele>672.0</ele><time>2026-04-06T11:15:59.001Z</time></trkpt><trkpt lat="43.6108413789776" lon="2.7023121420440237"><ele>672.75</ele><time>2026-04-06T11:16:00.001Z</time></trkpt><trkpt lat="43.6107177393917" lon="2.7022928971113505"><ele>673.5</ele><time>2026-04-06T11:16:01.001Z</time></trkpt><trkpt lat="43.61058525191199" lon="2.702278984946074"><ele>674.25</ele><time>2026-04-06T11:16:02.001Z</time></trkpt><trkpt lat="43.61044954452434" lon="2.702270401597509"><ele>675.0</ele><time>2026-04-06T11:16:03.001Z</time></trkpt><trkpt lat="43.61030411343911" lon="2.7022563666926165"><ele>677.3333333333334</ele><time>2026-04-06T11:16:04.001Z</time></trkpt><trkpt lat="43.610152324674495" lon="2.7022457843635417"><ele>679.6666666666667</ele><time>2026-04-06T11:16:05.001Z</time></trkpt><trkpt lat="43.60999441336129" lon="2.702235310831635"><ele>682.0</ele><time>2026-04-06T11:16:06.001Z</time></trkpt><trkpt lat="43.60983687064792" lon="2.702222194458311"><ele>682.0</ele><time>2026-04-06T11:16:07.001Z</time></trkpt><trkpt lat="43.60967228512809" lon="2.702203972303208"><ele>682.0</ele><time>2026-04-06T11:16:08.001Z</time></trkpt><trkpt lat="43.609505683123636" lon="2.7021873347322187"><ele>682.0</ele><time>2026-04-06T11:16:09.001Z</time></trkpt><trkpt lat="43.60933935875057" lon="2.702167539483617"><ele>686.0</ele><time>2026-04-06T11:16:10.001Z</time></trkpt><trkpt lat="43.60917546106617" lon="2.70214570990088"><ele>690.0</ele><time>2026-04-06T11:16:11.001Z</time></trkpt><trkpt lat="43.60901263332701" lon="2.7021331450139345"><ele>694.0</ele><time>2026-04-06T11:16:12.001Z</time></trkpt><trkpt lat="43.60884423115599" lon="2.702122800341737"><ele>694.0</ele><time>2026-04-06T11:16:13.001Z</time></trkpt><trkpt lat="43.60867467135161" lon="2.702127957545784"><ele>694.0</ele><time>2026-04-06T11:16:14.001Z</time></trkpt><trkpt lat="43.6084999641995" lon="2.7021622490920154"><ele>694.0</ele><time>2026-04-06T11:16:15.001Z</time></trkpt><trkpt lat="43.60832393692904" lon="2.7021923233253005"><ele>693.0</ele><time>2026-04-06T11:16:16Z</time></trkpt><trkpt lat="43.60814374666318" lon="2.7021976972212793"><ele>692.0</ele><time>2026-04-06T11:16:17Z</time></trkpt><trkpt lat="43.607968162870705" lon="2.7021368414432008"><ele>691.0</ele><time>2026-04-06T11:16:18Z</time></trkpt><trkpt lat="43.60779155747958" lon="2.7021162092137576"><ele>693.6666666666667</ele><time>2026-04-06T11:16:19Z</time></trkpt><trkpt lat="43.607621589858816" lon="2.7020869307078765"><ele>696.3333333333334</ele><time>2026-04-06T11:16:20Z</time></trkpt><trkpt lat="43.607446943624176" lon="2.7020702102302776"><ele>699.0</ele><time>2026-04-06T11:16:21Z</time></trkpt><trkpt lat="43.607272617198106" lon="2.7020888011254853"><ele>699.0</ele><time>2026-04-06T11:16:22Z</time></trkpt><trkpt lat="43.607102676604015" lon="2.70213032094915"><ele>699.0</ele><time>2026-04-06T11:16:23Z</time></trkpt><trkpt lat="43.60693414701415" lon="2.7022025886483747"><ele>699.0</ele><time>2026-04-06T11:16:24Z</time></trkpt><trkpt lat="43.606773199252295" lon="2.7023187369497395"><ele>699.6666666666666</ele><time>2026-04-06T11:16:25Z</time></trkpt><trkpt lat="43.60661450516464" lon="2.7024720319751245"><ele>700.3333333333333</ele><time>2026-04-06T11:16:26Z</time></trkpt><trkpt lat="43.60647149796168" lon="2.70263232074834"><ele>701.0</ele><time>2026-04-06T11:16:27Z</time></trkpt><trkpt lat="43.60631195169901" lon="2.7027913562688473"><ele>698.3333333333333</ele><time>2026-04-06T11:16:28Z</time></trkpt><trkpt lat="43.60614937099907" lon="2.7029200119434744"><ele>695.6666666666666</ele><time>2026-04-06T11:16:29Z</time></trkpt><trkpt lat="43.60596675334888" lon="2.7029774898069667"><ele>693.0</ele><time>2026-04-06T11:16:30Z</time></trkpt><trkpt lat="43.60579589027543" lon="2.703025526949234"><ele>693.0</ele><time>2026-04-06T11:16:31Z</time></trkpt><trkpt lat="43.60562547199562" lon="2.703076407079585"><ele>693.0</ele><time>2026-04-06T11:16:32Z</time></trkpt><trkpt lat="43.605498743373346" lon="2.703183825202063"><ele>693.0</ele><time>2026-04-06T11:16:33Z</time></trkpt><trkpt lat="43.60537157822671" lon="2.7033280099551997"><ele>691.0</ele><time>2026-04-06T11:16:34Z</time></trkpt><trkpt lat="43.60526405069787" lon="2.7034783935240885"><ele>689.0</ele><time>2026-04-06T11:16:35Z</time></trkpt><trkpt lat="43.60516538391678" lon="2.703638734194938"><ele>687.0</ele><time>2026-04-06T11:16:36Z</time></trkpt><trkpt lat="43.60516160330433" lon="2.703851214849374"><ele>687.0</ele><time>2026-04-06T11:16:37Z</time></trkpt><trkpt lat="43.60513704185144" lon="2.7040540857756556"><ele>687.0</ele><time>2026-04-06T11:16:38Z</time></trkpt><trkpt lat="43.60508310524578" lon="2.7042259131202884"><ele>687.0</ele><time>2026-04-06T11:16:39Z</time></trkpt><trkpt lat="43.605028954148885" lon="2.7043505212920067"><ele>687.0</ele><time>2026-04-06T11:16:40Z</time></trkpt><trkpt lat="43.6049238483462" lon="2.704471179679649"><ele>689.5</ele><time>2026-04-06T11:16:41Z</time></trkpt><trkpt lat="43.60480538412421" lon="2.704538712657825"><ele>692.0</ele><time>2026-04-06T11:16:42Z</time></trkpt><trkpt lat="43.60469279889174" lon="2.704553812190325"><ele>694.5</ele><time>2026-04-06T11:16:43Z</time></trkpt><trkpt lat="43.60457196993605" lon="2.704568344721212"><ele>697.0</ele><time>2026-04-06T11:16:44Z</time></trkpt><trkpt lat="43.60446142984352" lon="2.7045797656000534"><ele>697.0</ele><time>2026-04-06T11:16:45Z</time></trkpt><trkpt lat="43.60434684515347" lon="2.7045890901796295"><ele>697.0</ele><time>2026-04-06T11:16:46Z</time></trkpt><trkpt lat="43.604223489763676" lon="2.7046076447420218"><ele>697.0</ele><time>2026-04-06T11:16:47Z</time></trkpt><trkpt lat="43.604116991982224" lon="2.7046060831491046"><ele>697.0</ele><time>2026-04-06T11:16:48Z</time></trkpt><trkpt lat="43.60400701772907" lon="2.7045685031982294"><ele>697.0</ele><time>2026-04-06T11:16:49Z</time></trkpt><trkpt lat="43.60389368160171" lon="2.704540306927613"><ele>697.0</ele><time>2026-04-06T11:16:50Z</time></trkpt><trkpt lat="43.60379136266279" lon="2.704481803768542"><ele>697.0</ele><time>2026-04-06T11:16:51Z</time></trkpt><trkpt lat="43.603688053343355" lon="2.7044254940724657"><ele>697.0</ele><time>2026-04-06T11:16:52Z</time></trkpt><trkpt lat="43.60359222376868" lon="2.704342277483544"><ele>693.8</ele><time>2026-04-06T11:16:53Z</time></trkpt><trkpt lat="43.603492807159135" lon="2.70427424875388"><ele>690.6</ele><time>2026-04-06T11:16:54Z</time></trkpt><trkpt lat="43.603400794091996" lon="2.7042016755482234"><ele>687.4</ele><time>2026-04-06T11:16:55Z</time></trkpt><trkpt lat="43.60332190839133" lon="2.7041322541207227"><ele>684.1999999999999</ele><time>2026-04-06T11:16:56Z</time></trkpt><trkpt lat="43.60325497097594" lon="2.7040773597093493"><ele>681.0</ele><time>2026-04-06T11:16:57Z</time></trkpt><trkpt lat="43.60319095864428" lon="2.704034223656233"><ele>681.0</ele><time>2026-04-06T11:16:58Z</time></trkpt><trkpt lat="43.60312843918308" lon="2.703988467129418"><ele>681.0</ele><time>2026-04-06T11:16:59Z</time></trkpt><trkpt lat="43.603060655627424" lon="2.703938751202811"><ele>681.0</ele><time>2026-04-06T11:17:00Z</time></trkpt><trkpt lat="43.60297778589403" lon="2.7038731218259864"><ele>681.0</ele><time>2026-04-06T11:17:01Z</time></trkpt><trkpt lat="43.60289342228967" lon="2.7038082927377647"><ele>681.0</ele><time>2026-04-06T11:17:02Z</time></trkpt><trkpt lat="43.60280524074561" lon="2.703741812389003"><ele>681.0</ele><time>2026-04-06T11:17:03Z</time></trkpt><trkpt lat="43.602708531686154" lon="2.7036578462188423"><ele>681.5999999999999</ele><time>2026-04-06T11:17:04Z</time></trkpt><trkpt lat="43.602633910217335" lon="2.703559538960528"><ele>682.2</ele><time>2026-04-06T11:17:05Z</time></trkpt><trkpt lat="43.60255565504608" lon="2.7034586857069893"><ele>682.8</ele><time>2026-04-06T11:17:06Z</time></trkpt><trkpt lat="43.602481712886146" lon="2.703313515437957"><ele>683.4000000000001</ele><time>2026-04-06T11:17:07Z</time></trkpt><trkpt lat="43.60241408117682" lon="2.7031955268829977"><ele>684.0</ele><time>2026-04-06T11:17:08Z</time></trkpt><trkpt lat="43.60233978176951" lon="2.703080287970307"><ele>684.0</ele><time>2026-04-06T11:17:09Z</time></trkpt><trkpt lat="43.6022563434292" lon="2.7029676262787916"><ele>684.0</ele><time>2026-04-06T11:17:10Z</time></trkpt><trkpt lat="43.60216511737501" lon="2.7028640639629575"><ele>684.0</ele><time>2026-04-06T11:17:11Z</time></trkpt><trkpt lat="43.60208022484894" lon="2.7027659414556746"><ele>684.0</ele><time>2026-04-06T11:17:12Z</time></trkpt><trkpt lat="43.60201888040871" lon="2.7026489007106425"><ele>685.0</ele><time>2026-04-06T11:17:13Z</time></trkpt><trkpt lat="43.601968666277216" lon="2.702520433782468"><ele>686.0</ele><time>2026-04-06T11:17:14Z</time></trkpt><trkpt lat="43.601904872795615" lon="2.702386521106629"><ele>687.0</ele><time>2026-04-06T11:17:15Z</time></trkpt><trkpt lat="43.60180917889106" lon="2.7022932362298535"><ele>688.0</ele><time>2026-04-06T11:17:16Z</time></trkpt><trkpt lat="43.60169601499964" lon="2.7022247041317877"><ele>688.0</ele><time>2026-04-06T11:17:17Z</time></trkpt><trkpt lat="43.60158709614507" lon="2.7021446043039563"><ele>688.0</ele><time>2026-04-06T11:17:18Z</time></trkpt><trkpt lat="43.60148103179063" lon="2.702047898221788"><ele>688.0</ele><time>2026-04-06T11:17:19Z</time></trkpt><trkpt lat="43.60137217003219" lon="2.701960949255388"><ele>688.0</ele><time>2026-04-06T11:17:20Z</time></trkpt><trkpt lat="43.6012593107599" lon="2.7018812400759926"><ele>690.0</ele><time>2026-04-06T11:17:21Z</time></trkpt><trkpt lat="43.601149758739616" lon="2.701794509120394"><ele>692.0</ele><time>2026-04-06T11:17:22Z</time></trkpt><trkpt lat="43.60103095261513" lon="2.7017217051480436"><ele>694.0</ele><time>2026-04-06T11:17:23Z</time></trkpt><trkpt lat="43.600915124492985" lon="2.701651199747395"><ele>696.0</ele><time>2026-04-06T11:17:24Z</time></trkpt><trkpt lat="43.60080657718545" lon="2.701563332240223"><ele>696.0</ele><time>2026-04-06T11:17:25Z</time></trkpt><trkpt lat="43.60070664358975" lon="2.7014622979393743"><ele>696.0</ele><time>2026-04-06T11:17:26Z</time></trkpt><trkpt lat="43.60060884848525" lon="2.701363995615221"><ele>696.0</ele><time>2026-04-06T11:17:27Z</time></trkpt><trkpt lat="43.60050923126591" lon="2.7012693891213964"><ele>696.0</ele><time>2026-04-06T11:17:28Z</time></trkpt><trkpt lat="43.60040534165874" lon="2.7011750573981037"><ele>694.1999999999999</ele><time>2026-04-06T11:17:29Z</time></trkpt><trkpt lat="43.60030212688483" lon="2.7010924543425485"><ele>692.4</ele><time>2026-04-06T11:17:30Z</time></trkpt><trkpt lat="43.60020406681442" lon="2.701022297001276"><ele>690.6</ele><time>2026-04-06T11:17:31Z</time></trkpt><trkpt lat="43.600104793111605" lon="2.700978141429872"><ele>688.8</ele><time>2026-04-06T11:17:32Z</time></trkpt><trkpt lat="43.600004543009334" lon="2.700986492105261"><ele>687.0</ele><time>2026-04-06T11:17:33Z</time></trkpt><trkpt lat="43.59990694704388" lon="2.7010476449979897"><ele>691.75</ele><time>2026-04-06T11:17:34Z</time></trkpt><trkpt lat="43.59980524123422" lon="2.701130621513859"><ele>696.5</ele><time>2026-04-06T11:17:35Z</time></trkpt><trkpt lat="43.599698398004676" lon="2.7012025819047443"><ele>701.25</ele><time>2026-04-06T11:17:36Z</time></trkpt><trkpt lat="43.59959430091423" lon="2.701278979593534"><ele>706.0</ele><time>2026-04-06T11:17:37Z</time></trkpt><trkpt lat="43.59950936037174" lon="2.701361761627326"><ele>702.8</ele><time>2026-04-06T11:17:38Z</time></trkpt><trkpt lat="43.599442512537145" lon="2.7014519214467705"><ele>699.5999999999999</ele><time>2026-04-06T11:17:39Z</time></trkpt><trkpt lat="43.5993894445784" lon="2.701533683771057"><ele>696.4</ele><time>2026-04-06T11:17:40Z</time></trkpt><trkpt lat="43.599278912248984" lon="2.701599227872613"><ele>693.2</ele><time>2026-04-06T11:17:42Z</time></trkpt><trkpt lat="43.59921094647306" lon="2.7015610491212407"><ele>690.0</ele><time>2026-04-06T11:17:43Z</time></trkpt><trkpt lat="43.59913610468671" lon="2.701493459181609"><ele>690.0</ele><time>2026-04-06T11:17:44Z</time></trkpt><trkpt lat="43.59905092743384" lon="2.7014219477599375"><ele>690.0</ele><time>2026-04-06T11:17:45Z</time></trkpt><trkpt lat="43.598955111745525" lon="2.7013542991368418"><ele>690.0</ele><time>2026-04-06T11:17:46Z</time></trkpt><trkpt lat="43.598856821871934" lon="2.7012861664710117"><ele>690.0</ele><time>2026-04-06T11:17:47Z</time></trkpt><trkpt lat="43.598764183451934" lon="2.701221030845541"><ele>690.0</ele><time>2026-04-06T11:17:48Z</time></trkpt><trkpt lat="43.59868333063856" lon="2.701163227170248"><ele>688.6</ele><time>2026-04-06T11:17:49Z</time></trkpt><trkpt lat="43.598613258383764" lon="2.7011095668686873"><ele>687.2</ele><time>2026-04-06T11:17:50Z</time></trkpt><trkpt lat="43.598567687681694" lon="2.701018161152674"><ele>685.8</ele><time>2026-04-06T11:17:51Z</time></trkpt><trkpt lat="43.598640467741916" lon="2.7008198231081146"><ele>684.4</ele><time>2026-04-06T11:17:53Z</time></trkpt><trkpt lat="43.59869831404893" lon="2.700713391822489"><ele>683.0</ele><time>2026-04-06T11:17:54Z</time></trkpt><trkpt lat="43.59875173556508" lon="2.7005867697971135"><ele>683.0</ele><time>2026-04-06T11:17:55Z</time></trkpt><trkpt lat="43.59880691764057" lon="2.700447702968879"><ele>683.0</ele><time>2026-04-06T11:17:56Z</time></trkpt><trkpt lat="43.59887114690966" lon="2.700303766123425"><ele>683.0</ele><time>2026-04-06T11:17:57Z</time></trkpt><trkpt lat="43.5989315132226" lon="2.7001682890102647"><ele>683.0</ele><time>2026-04-06T11:17:58Z</time></trkpt><trkpt lat="43.59900930681992" lon="2.7000263747031124"><ele>685.75</ele><time>2026-04-06T11:17:59Z</time></trkpt><trkpt lat="43.59911008832993" lon="2.699891313825598"><ele>688.5</ele><time>2026-04-06T11:18:00Z</time></trkpt><trkpt lat="43.599225761359634" lon="2.699773980939228"><ele>691.25</ele><time>2026-04-06T11:18:01Z</time></trkpt><trkpt lat="43.59933652511149" lon="2.69965746199984"><ele>694.0</ele><time>2026-04-06T11:18:02Z</time></trkpt><trkpt lat="43.59943898635444" lon="2.699537576897685"><ele>692.25</ele><time>2026-04-06T11:18:03Z</time></trkpt><trkpt lat="43.599536474826685" lon="2.6994045582325232"><ele>690.5</ele><time>2026-04-06T11:18:04Z</time></trkpt><trkpt lat="43.599623983262234" lon="2.69926199550743"><ele>688.75</ele><time>2026-04-06T11:18:05.001Z</time></trkpt><trkpt lat="43.599691039060666" lon="2.6991037539922416"><ele>687.0</ele><time>2026-04-06T11:18:06.001Z</time></trkpt><trkpt lat="43.59972896656089" lon="2.698928169831829"><ele>687.0</ele><time>2026-04-06T11:18:07.001Z</time></trkpt><trkpt lat="43.59974458053418" lon="2.6987272448822788"><ele>687.0</ele><time>2026-04-06T11:18:08.001Z</time></trkpt><trkpt lat="43.59975595700216" lon="2.698529027108653"><ele>687.0</ele><time>2026-04-06T11:18:09.001Z</time></trkpt><trkpt lat="43.59975367432442" lon="2.6983251660759717"><ele>687.0</ele><time>2026-04-06T11:18:10.001Z</time></trkpt><trkpt lat="43.59974101339435" lon="2.698119625214449"><ele>688.0</ele><time>2026-04-06T11:18:11.001Z</time></trkpt><trkpt lat="43.59973647711211" lon="2.697911753100732"><ele>689.0</ele><time>2026-04-06T11:18:12.001Z</time></trkpt><trkpt lat="43.59976488603839" lon="2.697701002516914"><ele>690.0</ele><time>2026-04-06T11:18:13.001Z</time></trkpt><trkpt lat="43.5998108634648" lon="2.6974928201084234"><ele>690.0</ele><time>2026-04-06T11:18:14.001Z</time></trkpt><trkpt lat="43.599862116110344" lon="2.6972928956052558"><ele>690.0</ele><time>2026-04-06T11:18:15.001Z</time></trkpt><trkpt lat="43.59992334085147" lon="2.6970992454854823"><ele>690.0</ele><time>2026-04-06T11:18:16.001Z</time></trkpt><trkpt lat="43.60001287123119" lon="2.696928270937625"><ele>690.3333333333334</ele><time>2026-04-06T11:18:17.001Z</time></trkpt><trkpt lat="43.60012871164855" lon="2.6967921906871886"><ele>690.6666666666667</ele><time>2026-04-06T11:18:18Z</time></trkpt><trkpt lat="43.600255152051155" lon="2.6966840841487594"><ele>691.0</ele><time>2026-04-06T11:18:19Z</time></trkpt><trkpt lat="43.600387245325045" lon="2.6965895555200743"><ele>689.6666666666667</ele><time>2026-04-06T11:18:20Z</time></trkpt><trkpt lat="43.60053247348479" lon="2.696526617409141"><ele>688.3333333333334</ele><time>2026-04-06T11:18:21Z</time></trkpt><trkpt lat="43.60067361652845" lon="2.6964470172798314"><ele>687.0</ele><time>2026-04-06T11:18:22Z</time></trkpt><trkpt lat="43.600810143380635" lon="2.6963525484127837"><ele>687.0</ele><time>2026-04-06T11:18:23Z</time></trkpt><trkpt lat="43.600916443993064" lon="2.6961817655016604"><ele>687.0</ele><time>2026-04-06T11:18:24Z</time></trkpt><trkpt lat="43.60102708955594" lon="2.6960054297460707"><ele>687.0</ele><time>2026-04-06T11:18:25Z</time></trkpt><trkpt lat="43.601131284297516" lon="2.6958191267759557"><ele>688.0</ele><time>2026-04-06T11:18:26Z</time></trkpt><trkpt lat="43.60123527401466" lon="2.6956186996128193"><ele>689.0</ele><time>2026-04-06T11:18:27Z</time></trkpt><trkpt lat="43.6013382424216" lon="2.695418034648445"><ele>690.0</ele><time>2026-04-06T11:18:28Z</time></trkpt><trkpt lat="43.60146080840551" lon="2.695233610732578"><ele>692.3333333333334</ele><time>2026-04-06T11:18:29Z</time></trkpt><trkpt lat="43.60155814632175" lon="2.6950230546868332"><ele>694.6666666666667</ele><time>2026-04-06T11:18:30Z</time></trkpt><trkpt lat="43.60167165618996" lon="2.694831091339997"><ele>697.0</ele><time>2026-04-06T11:18:31Z</time></trkpt><trkpt lat="43.60178442790186" lon="2.6946434228577734"><ele>697.0</ele><time>2026-04-06T11:18:32Z</time></trkpt><trkpt lat="43.60189528103279" lon="2.694445932559969"><ele>697.0</ele><time>2026-04-06T11:18:33Z</time></trkpt><trkpt lat="43.60200767389999" lon="2.6942506069521293"><ele>697.0</ele><time>2026-04-06T11:18:34Z</time></trkpt><trkpt lat="43.60212610910282" lon="2.6940686227334303"><ele>697.6666666666667</ele><time>2026-04-06T11:18:35Z</time></trkpt><trkpt lat="43.60226488032547" lon="2.6939224752318514"><ele>698.3333333333334</ele><time>2026-04-06T11:18:36Z</time></trkpt><trkpt lat="43.60242525471448" lon="2.6938104947301476"><ele>699.0</ele><time>2026-04-06T11:18:37Z</time></trkpt><trkpt lat="43.6025842516734" lon="2.6936855671558324"><ele>699.6666666666666</ele><time>2026-04-06T11:18:38Z</time></trkpt><trkpt lat="43.602737083827776" lon="2.693533457479665"><ele>700.3333333333333</ele><time>2026-04-06T11:18:39Z</time></trkpt><trkpt lat="43.60288914872667" lon="2.6933631058647998"><ele>701.0</ele><time>2026-04-06T11:18:40Z</time></trkpt><trkpt lat="43.60304228021197" lon="2.693190468245869"><ele>701.0</ele><time>2026-04-06T11:18:41Z</time></trkpt><trkpt lat="43.603199145920975" lon="2.693015901180611"><ele>701.0</ele><time>2026-04-06T11:18:42Z</time></trkpt><trkpt lat="43.60336942828105" lon="2.6928700286736778"><ele>701.0</ele><time>2026-04-06T11:18:43Z</time></trkpt><trkpt lat="43.60353696860235" lon="2.6927296311144775"><ele>704.6666666666666</ele><time>2026-04-06T11:18:44Z</time></trkpt><trkpt lat="43.603711825044996" lon="2.692649593093809"><ele>708.3333333333334</ele><time>2026-04-06T11:18:45Z</time></trkpt><trkpt lat="43.60389514511631" lon="2.6925916870607822"><ele>712.0</ele><time>2026-04-06T11:18:46Z</time></trkpt><trkpt lat="43.60406977842989" lon="2.692528128367483"><ele>712.0</ele><time>2026-04-06T11:18:47Z</time></trkpt><trkpt lat="43.60425013217705" lon="2.6924589651662103"><ele>712.0</ele><time>2026-04-06T11:18:48Z</time></trkpt><trkpt lat="43.60442957538333" lon="2.692394235855974"><ele>712.0</ele><time>2026-04-06T11:18:49Z</time></trkpt><trkpt lat="43.60458880075652" lon="2.692272747744551"><ele>713.0</ele><time>2026-04-06T11:18:50Z</time></trkpt><trkpt lat="43.60472355011892" lon="2.6921019812265405"><ele>714.0</ele><time>2026-04-06T11:18:51Z</time></trkpt><trkpt lat="43.604835933495" lon="2.6919119761417005"><ele>715.0</ele><time>2026-04-06T11:18:52Z</time></trkpt><trkpt lat="43.60492190286561" lon="2.6916895311339357"><ele>715.0</ele><time>2026-04-06T11:18:53Z</time></trkpt><trkpt lat="43.604964039601185" lon="2.691452525317211"><ele>715.0</ele><time>2026-04-06T11:18:54Z</time></trkpt><trkpt lat="43.60497484913266" lon="2.6912023820747826"><ele>715.0</ele><time>2026-04-06T11:18:55Z</time></trkpt><trkpt lat="43.60495199710022" lon="2.6909305890616206"><ele>717.3333333333334</ele><time>2026-04-06T11:18:56Z</time></trkpt><trkpt lat="43.60489479948875" lon="2.6906673496189697"><ele>719.6666666666666</ele><time>2026-04-06T11:18:57Z</time></trkpt><trkpt lat="43.60482127843058" lon="2.690410029098874"><ele>722.0</ele><time>2026-04-06T11:18:58Z</time></trkpt><trkpt lat="43.60474471063641" lon="2.690164532206682"><ele>722.3333333333333</ele><time>2026-04-06T11:18:59Z</time></trkpt><trkpt lat="43.604670905540466" lon="2.68993074136663"><ele>722.6666666666666</ele><time>2026-04-06T11:19:00Z</time></trkpt><trkpt lat="43.604601690642056" lon="2.6897008165301552"><ele>723.0</ele><time>2026-04-06T11:19:01Z</time></trkpt><trkpt lat="43.60453480820344" lon="2.6894786399747352"><ele>724.3333333333334</ele><time>2026-04-06T11:19:02Z</time></trkpt><trkpt lat="43.60445634894351" lon="2.6892745933150697"><ele>725.6666666666667</ele><time>2026-04-06T11:19:03Z</time></trkpt><trkpt lat="43.60439648103159" lon="2.6890701068042726"><ele>727.0</ele><time>2026-04-06T11:19:04Z</time></trkpt><trkpt lat="43.604328475936036" lon="2.688877078189888"><ele>727.0</ele><time>2026-04-06T11:19:05Z</time></trkpt><trkpt lat="43.60425477170991" lon="2.6887017638938446"><ele>727.0</ele><time>2026-04-06T11:19:06Z</time></trkpt><trkpt lat="43.60419152125395" lon="2.6885221934104724"><ele>727.0</ele><time>2026-04-06T11:19:07Z</time></trkpt><trkpt lat="43.60410256473786" lon="2.6883779738753435"><ele>727.0</ele><time>2026-04-06T11:19:08Z</time></trkpt><trkpt lat="43.604043765887006" lon="2.6882256425312767"><ele>725.75</ele><time>2026-04-06T11:19:09Z</time></trkpt><trkpt lat="43.60399682108526" lon="2.6880715395179515"><ele>724.5</ele><time>2026-04-06T11:19:10Z</time></trkpt><trkpt lat="43.60398481819898" lon="2.68790558222796"><ele>723.25</ele><time>2026-04-06T11:19:11Z</time></trkpt><trkpt lat="43.60391935246622" lon="2.6877700566754426"><ele>722.0</ele><time>2026-04-06T11:19:12Z</time></trkpt><trkpt lat="43.60382831285048" lon="2.6876644799479625"><ele>721.75</ele><time>2026-04-06T11:19:13Z</time></trkpt><trkpt lat="43.60376538065833" lon="2.687525774955787"><ele>721.5</ele><time>2026-04-06T11:19:14Z</time></trkpt><trkpt lat="43.603751424232065" lon="2.6873427511165757"><ele>721.25</ele><time>2026-04-06T11:19:15Z</time></trkpt><trkpt lat="43.60381611381809" lon="2.6871750238999175"><ele>721.0</ele><time>2026-04-06T11:19:16Z</time></trkpt><trkpt lat="43.60389769761123" lon="2.68701805098524"><ele>720.0</ele><time>2026-04-06T11:19:17Z</time></trkpt><trkpt lat="43.6039690644947" lon="2.686841740287308"><ele>719.0</ele><time>2026-04-06T11:19:18Z</time></trkpt><trkpt lat="43.60400895876724" lon="2.6866479808986674"><ele>718.0</ele><time>2026-04-06T11:19:19Z</time></trkpt><trkpt lat="43.60403958967361" lon="2.6864525273361224"><ele>717.0</ele><time>2026-04-06T11:19:20Z</time></trkpt><trkpt lat="43.60405133379664" lon="2.686254181489275"><ele>716.75</ele><time>2026-04-06T11:19:21Z</time></trkpt><trkpt lat="43.60403879746049" lon="2.6860565370507223"><ele>716.5</ele><time>2026-04-06T11:19:22Z</time></trkpt><trkpt lat="43.604000481519165" lon="2.685856260630383"><ele>716.25</ele><time>2026-04-06T11:19:23Z</time></trkpt><trkpt lat="43.60395264653315" lon="2.685658159912893"><ele>716.0</ele><time>2026-04-06T11:19:24Z</time></trkpt><trkpt lat="43.60389711800697" lon="2.685458016715092"><ele>715.6666666666666</ele><time>2026-04-06T11:19:25Z</time></trkpt><trkpt lat="43.60384725491236" lon="2.6852517389726898"><ele>715.3333333333334</ele><time>2026-04-06T11:19:26Z</time></trkpt><trkpt lat="43.60379854840921" lon="2.685048345255006"><ele>715.0</ele><time>2026-04-06T11:19:27Z</time></trkpt><trkpt lat="43.60375043584503" lon="2.6848551685104014"><ele>715.0</ele><time>2026-04-06T11:19:28Z</time></trkpt><trkpt lat="43.603701640617004" lon="2.6846679259032373"><ele>715.0</ele><time>2026-04-06T11:19:29Z</time></trkpt><trkpt lat="43.60365887269721" lon="2.6844804087463947"><ele>715.0</ele><time>2026-04-06T11:19:30Z</time></trkpt><trkpt lat="43.603617280989845" lon="2.684287946181423"><ele>715.0</ele><time>2026-04-06T11:19:31Z</time></trkpt><trkpt lat="43.603569726980886" lon="2.684097314879385"><ele>710.75</ele><time>2026-04-06T11:19:32Z</time></trkpt><trkpt lat="43.603522531835786" lon="2.683902048654968"><ele>706.5</ele><time>2026-04-06T11:19:33Z</time></trkpt><trkpt lat="43.60348720810831" lon="2.6837103841419556"><ele>702.25</ele><time>2026-04-06T11:19:34Z</time></trkpt><trkpt lat="43.60346560170256" lon="2.683518087002319"><ele>698.0</ele><time>2026-04-06T11:19:35Z</time></trkpt><trkpt lat="43.6034661725257" lon="2.6833233309963465"><ele>696.5</ele><time>2026-04-06T11:19:36Z</time></trkpt><trkpt lat="43.603460540734666" lon="2.683134993699085"><ele>695.0</ele><time>2026-04-06T11:19:37Z</time></trkpt><trkpt lat="43.60345786579614" lon="2.6829453507944834"><ele>693.5</ele><time>2026-04-06T11:19:38Z</time></trkpt><trkpt lat="43.60345521005653" lon="2.6827570689811853"><ele>692.0</ele><time>2026-04-06T11:19:39Z</time></trkpt><trkpt lat="43.60345332749236" lon="2.682567174489649"><ele>691.75</ele><time>2026-04-06T11:19:40Z</time></trkpt><trkpt lat="43.60345213524571" lon="2.6823741944386015"><ele>691.5</ele><time>2026-04-06T11:19:41Z</time></trkpt><trkpt lat="43.60345090798926" lon="2.68218205612764"><ele>691.25</ele><time>2026-04-06T11:19:42Z</time></trkpt><trkpt lat="43.6034357796281" lon="2.681992577534207"><ele>691.0</ele><time>2026-04-06T11:19:43Z</time></trkpt><trkpt lat="43.603436307732245" lon="2.6818028900873974"><ele>689.75</ele><time>2026-04-06T11:19:44Z</time></trkpt><trkpt lat="43.60343485375468" lon="2.6816123552200746"><ele>688.5</ele><time>2026-04-06T11:19:45Z</time></trkpt><trkpt lat="43.60343179741591" lon="2.681424213398154"><ele>687.25</ele><time>2026-04-06T11:19:46Z</time></trkpt><trkpt lat="43.60342912201666" lon="2.681238292939437"><ele>686.0</ele><time>2026-04-06T11:19:47Z</time></trkpt><trkpt lat="43.60343254637088" lon="2.6810560169014312"><ele>684.5</ele><time>2026-04-06T11:19:48Z</time></trkpt><trkpt lat="43.60343676822665" lon="2.680870865384229"><ele>683.0</ele><time>2026-04-06T11:19:49Z</time></trkpt><trkpt lat="43.60343750914084" lon="2.680687478040632"><ele>681.5</ele><time>2026-04-06T11:19:49.999Z</time></trkpt><trkpt lat="43.603437940743355" lon="2.6805039131919264"><ele>680.0</ele><time>2026-04-06T11:19:50.999Z</time></trkpt><trkpt lat="43.60344546519909" lon="2.680322564492695"><ele>679.25</ele><time>2026-04-06T11:19:51.999Z</time></trkpt><trkpt lat="43.60345654245392" lon="2.6801463557491294"><ele>678.5</ele><time>2026-04-06T11:19:52.999Z</time></trkpt><trkpt lat="43.603467448439815" lon="2.679974128421482"><ele>677.75</ele><time>2026-04-06T11:19:53.999Z</time></trkpt><trkpt lat="43.6034816159701" lon="2.6798179255167223"><ele>677.0</ele><time>2026-04-06T11:19:54.999Z</time></trkpt><trkpt lat="43.603498421449565" lon="2.679679607638139"><ele>677.0</ele><time>2026-04-06T11:19:55.999Z</time></trkpt><trkpt lat="43.60352718020481" lon="2.6795708765688584"><ele>677.0</ele><time>2026-04-06T11:19:56.999Z</time></trkpt><trkpt lat="43.60354162643543" lon="2.6794795842461343"><ele>677.0</ele><time>2026-04-06T11:19:57.999Z</time></trkpt><trkpt lat="43.6035107563294" lon="2.6794023371062523"><ele>677.0</ele><time>2026-04-06T11:19:58.999Z</time></trkpt><trkpt lat="43.603390482444205" lon="2.67943982464854"><ele>677.0</ele><time>2026-04-06T11:20:00.999Z</time></trkpt><trkpt lat="43.6033798866104" lon="2.679526421280896"><ele>677.0</ele><time>2026-04-06T11:20:01.999Z</time></trkpt><trkpt lat="43.60329946075395" lon="2.6795648712575253"><ele>677.0</ele><time>2026-04-06T11:20:02.999Z</time></trkpt><trkpt lat="43.60324072662329" lon="2.6796514179648163"><ele>677.0</ele><time>2026-04-06T11:20:04.999Z</time></trkpt><trkpt lat="43.60317419860102" lon="2.6796984780817468"><ele>677.0</ele><time>2026-04-06T11:20:07.999Z</time></trkpt><trkpt lat="43.60314423923624" lon="2.679797417159947"><ele>677.0</ele><time>2026-04-06T11:20:09.999Z</time></trkpt><trkpt lat="43.60324309431418" lon="2.679927340529267"><ele>677.0</ele><time>2026-04-06T11:20:11.001Z</time></trkpt><trkpt lat="43.60322159474905" lon="2.6800877107355756"><ele>677.0</ele><time>2026-04-06T11:20:13.001Z</time></trkpt><trkpt lat="43.60321791311995" lon="2.6802371793319253"><ele>677.0</ele><time>2026-04-06T11:20:15.001Z</time></trkpt><trkpt lat="43.60321847444589" lon="2.680372024751479"><ele>677.0</ele><time>2026-04-06T11:20:17.001Z</time></trkpt><trkpt lat="43.603201267385955" lon="2.6804670281626546"><ele>677.0</ele><time>2026-04-06T11:20:19.001Z</time></trkpt><trkpt lat="43.603134653180355" lon="2.680491212964837"><ele>677.0</ele><time>2026-04-06T11:25:55.999Z</time></trkpt><trkpt lat="43.603061337385114" lon="2.680496651806099"><ele>677.0</ele><time>2026-04-06T11:26:01.999Z</time></trkpt><trkpt lat="43.60299800187083" lon="2.6805076814704534"><ele>677.4285714285713</ele><time>2026-04-06T11:26:06.999Z</time></trkpt><trkpt lat="43.60294540940205" lon="2.6804530766931816"><ele>677.8571428571429</ele><time>2026-04-06T11:26:15.999Z</time></trkpt><trkpt lat="43.60290448934204" lon="2.6803607180147027"><ele>678.2857142857142</ele><time>2026-04-06T11:26:33Z</time></trkpt><trkpt lat="43.6028415816701" lon="2.6803361044104106"><ele>678.7142857142857</ele><time>2026-04-06T11:26:46Z</time></trkpt><trkpt lat="43.60276858514901" lon="2.680299139168695"><ele>679.1428571428571</ele><time>2026-04-06T11:26:53Z</time></trkpt><trkpt lat="43.60271230322162" lon="2.6802487864484013"><ele>679.5714285714286</ele><time>2026-04-06T11:27:15Z</time></trkpt><trkpt lat="43.60265926007483" lon="2.6801990424822995"><ele>680.0</ele><time>2026-04-06T11:27:31.999Z</time></trkpt><trkpt lat="43.60258586471362" lon="2.6801812150867605"><ele>678.4285714285714</ele><time>2026-04-06T11:27:39.999Z</time></trkpt><trkpt lat="43.6025923529923" lon="2.6802801483340843"><ele>676.8571428571428</ele><time>2026-04-06T11:27:52.999Z</time></trkpt><trkpt lat="43.60266425476683" lon="2.680291926686611"><ele>675.2857142857142</ele><time>2026-04-06T11:29:07Z</time></trkpt><trkpt lat="43.602580031558496" lon="2.680276088139108"><ele>673.7142857142858</ele><time>2026-04-06T11:29:28Z</time></trkpt><trkpt lat="43.60255008970679" lon="2.6801974304000615"><ele>672.1428571428571</ele><time>2026-04-06T11:30:03.999Z</time></trkpt><trkpt lat="43.60248584872795" lon="2.6801816161635696"><ele>670.5714285714286</ele><time>2026-04-06T11:30:33.999Z</time></trkpt><trkpt lat="43.602412787906054" lon="2.6801813898963"><ele>669.0</ele><time>2026-04-06T11:30:37.999Z</time></trkpt><trkpt lat="43.60235759635188" lon="2.680232050138609"><ele>669.0</ele><time>2026-04-06T11:30:44Z</time></trkpt><trkpt lat="43.60229434984203" lon="2.680269797104323"><ele>669.0</ele><time>2026-04-06T11:30:49Z</time></trkpt><trkpt lat="43.602238859188574" lon="2.680333697386161"><ele>669.0</ele><time>2026-04-06T11:30:55Z</time></trkpt><trkpt lat="43.60217506545351" lon="2.680396829381872"><ele>669.0</ele><time>2026-04-06T11:31:01Z</time></trkpt><trkpt lat="43.60211979090465" lon="2.6804393439583634"><ele>669.0</ele><time>2026-04-06T11:31:06Z</time></trkpt><trkpt lat="43.602043114564104" lon="2.6804764304016375"><ele>669.0</ele><time>2026-04-06T11:31:12Z</time></trkpt><trkpt lat="43.60197760921511" lon="2.680489192146175"><ele>669.0</ele><time>2026-04-06T11:31:18Z</time></trkpt><trkpt lat="43.60191073054933" lon="2.68047723055814"><ele>669.0</ele><time>2026-04-06T11:31:24Z</time></trkpt><trkpt lat="43.601845055851314" lon="2.680416414615202"><ele>669.0</ele><time>2026-04-06T11:31:32Z</time></trkpt><trkpt lat="43.601808165899044" lon="2.680328824647076"><ele>669.0</ele><time>2026-04-06T11:31:39Z</time></trkpt><trkpt lat="43.60178300194563" lon="2.680236233579"><ele>669.0</ele><time>2026-04-06T11:31:45.999Z</time></trkpt><trkpt lat="43.60171646019756" lon="2.680202011060903"><ele>669.0</ele><time>2026-04-06T11:31:53.999Z</time></trkpt><trkpt lat="43.60163664849581" lon="2.6802214855389295"><ele>669.0</ele><time>2026-04-06T11:31:57.999Z</time></trkpt><trkpt lat="43.601572681922946" lon="2.6802104440555685"><ele>669.0</ele><time>2026-04-06T11:32:01.999Z</time></trkpt><trkpt lat="43.60150261785969" lon="2.6801781191956326"><ele>669.0</ele><time>2026-04-06T11:32:23.999Z</time></trkpt></trkseg></trk></gpx>